﻿<?xml version="1.0" encoding="utf-8"?><gpx creator="Garmin Desktop App" version="1.1" xsi:schemaLocation="http://www.topografix.com/GPX/1/1 http://www.topografix.com/GPX/1/1/gpx.xsd http://www.garmin.com/xmlschemas/WaypointExtension/v1 http://www8.garmin.com/xmlschemas/WaypointExtensionv1.xsd http://www.garmin.com/xmlschemas/TrackPointExtension/v1 http://www.garmin.com/xmlschemas/TrackPointExtensionv1.xsd http://www.garmin.com/xmlschemas/GpxExtensions/v3 http://www8.garmin.com/xmlschemas/GpxExtensionsv3.xsd http://www.garmin.com/xmlschemas/ActivityExtension/v1 http://www8.garmin.com/xmlschemas/ActivityExtensionv1.xsd http://www.garmin.com/xmlschemas/AdventuresExtensions/v1 http://www8.garmin.com/xmlschemas/AdventuresExtensionv1.xsd http://www.garmin.com/xmlschemas/PressureExtension/v1 http://www.garmin.com/xmlschemas/PressureExtensionv1.xsd http://www.garmin.com/xmlschemas/TripExtensions/v1 http://www.garmin.com/xmlschemas/TripExtensionsv1.xsd http://www.garmin.com/xmlschemas/TripMetaDataExtensions/v1 http://www.garmin.com/xmlschemas/TripMetaDataExtensionsv1.xsd http://www.garmin.com/xmlschemas/ViaPointTransportationModeExtensions/v1 http://www.garmin.com/xmlschemas/ViaPointTransportationModeExtensionsv1.xsd http://www.garmin.com/xmlschemas/CreationTimeExtension/v1 http://www.garmin.com/xmlschemas/CreationTimeExtensionsv1.xsd http://www.garmin.com/xmlschemas/AccelerationExtension/v1 http://www.garmin.com/xmlschemas/AccelerationExtensionv1.xsd http://www.garmin.com/xmlschemas/PowerExtension/v1 http://www.garmin.com/xmlschemas/PowerExtensionv1.xsd http://www.garmin.com/xmlschemas/VideoExtension/v1 http://www.garmin.com/xmlschemas/VideoExtensionv1.xsd" xmlns="http://www.topografix.com/GPX/1/1" xmlns:xsi="http://www.w3.org/2001/XMLSchema-instance" xmlns:wptx1="http://www.garmin.com/xmlschemas/WaypointExtension/v1" xmlns:gpxtrx="http://www.garmin.com/xmlschemas/GpxExtensions/v3" xmlns:gpxtpx="http://www.garmin.com/xmlschemas/TrackPointExtension/v1" xmlns:gpxx="http://www.garmin.com/xmlschemas/GpxExtensions/v3" xmlns:trp="http://www.garmin.com/xmlschemas/TripExtensions/v1" xmlns:adv="http://www.garmin.com/xmlschemas/AdventuresExtensions/v1" xmlns:prs="http://www.garmin.com/xmlschemas/PressureExtension/v1" xmlns:tmd="http://www.garmin.com/xmlschemas/TripMetaDataExtensions/v1" xmlns:vptm="http://www.garmin.com/xmlschemas/ViaPointTransportationModeExtensions/v1" xmlns:ctx="http://www.garmin.com/xmlschemas/CreationTimeExtension/v1" xmlns:gpxacc="http://www.garmin.com/xmlschemas/AccelerationExtension/v1" xmlns:gpxpx="http://www.garmin.com/xmlschemas/PowerExtension/v1" xmlns:vidx1="http://www.garmin.com/xmlschemas/VideoExtension/v1">

  <metadata>
    <link href="http://www.garmin.com">
      <text>Garmin International</text>
    </link>
    <time>2017-05-22T16:27:20Z</time>
    <bounds maxlat="51.93054998293519" maxlon="11.155624967068434" minlat="51.491531962528825" minlon="10.171214025467634" />
  </metadata>

  <trk>
    <name>Track vom: 22 MAI 2017 08:41</name>
    <extensions>
      <gpxx:TrackExtension>
        <gpxx:DisplayColor>DarkGray</gpxx:DisplayColor>
      </gpxx:TrackExtension>
    </extensions>
    <trkseg>
      <trkpt lat="51.6585039999336" lon="10.66089796833694">
        <ele>621.14999999999998</ele>
        <time>2017-05-22T06:41:55Z</time>
      </trkpt>
      <trkpt lat="51.658506011590362" lon="10.660902997478843">
        <ele>620.19000000000005</ele>
        <time>2017-05-22T06:42:49Z</time>
      </trkpt>
      <trkpt lat="51.658491007983685" lon="10.661163004115224">
        <ele>613.46000000000004</ele>
        <time>2017-05-22T06:42:54Z</time>
      </trkpt>
      <trkpt lat="51.658494025468826" lon="10.661246990785003">
        <ele>612.01999999999998</ele>
        <time>2017-05-22T06:42:55Z</time>
      </trkpt>
      <trkpt lat="51.658497964963317" lon="10.661327037960291">
        <ele>610.09000000000003</ele>
        <time>2017-05-22T06:42:56Z</time>
      </trkpt>
      <trkpt lat="51.658773981034756" lon="10.662155002355576">
        <ele>595.19000000000005</ele>
        <time>2017-05-22T06:43:10Z</time>
      </trkpt>
      <trkpt lat="51.659024013206363" lon="10.663283038884401">
        <ele>588.46000000000004</ele>
        <time>2017-05-22T06:43:23Z</time>
      </trkpt>
      <trkpt lat="51.659345962107182" lon="10.664630010724068">
        <ele>587.5</ele>
        <time>2017-05-22T06:43:33Z</time>
      </trkpt>
      <trkpt lat="51.659665983170271" lon="10.665802974253893">
        <ele>590.38999999999999</ele>
        <time>2017-05-22T06:43:42Z</time>
      </trkpt>
      <trkpt lat="51.65970797650516" lon="10.665912022814155">
        <ele>590.38999999999999</ele>
        <time>2017-05-22T06:43:43Z</time>
      </trkpt>
      <trkpt lat="51.659844014793634" lon="10.666216034442186">
        <ele>590.38999999999999</ele>
        <time>2017-05-22T06:43:46Z</time>
      </trkpt>
      <trkpt lat="51.659971000626683" lon="10.666516022756696">
        <ele>592.30999999999995</ele>
        <time>2017-05-22T06:43:49Z</time>
      </trkpt>
      <trkpt lat="51.660019028931856" lon="10.666910978034139">
        <ele>591.83000000000004</ele>
        <time>2017-05-22T06:43:56Z</time>
      </trkpt>
      <trkpt lat="51.659977035596967" lon="10.667043998837471">
        <ele>591.83000000000004</ele>
        <time>2017-05-22T06:44:07Z</time>
      </trkpt>
      <trkpt lat="51.659991033375263" lon="10.667076017707586">
        <ele>592.30999999999995</ele>
        <time>2017-05-22T06:44:08Z</time>
      </trkpt>
      <trkpt lat="51.660026991739869" lon="10.667099989950657">
        <ele>593.26999999999998</ele>
        <time>2017-05-22T06:44:09Z</time>
      </trkpt>
      <trkpt lat="51.660065967589617" lon="10.66712899133563">
        <ele>593.75</ele>
        <time>2017-05-22T06:44:10Z</time>
      </trkpt>
      <trkpt lat="51.660121958702803" lon="10.667160004377365">
        <ele>594.71000000000004</ele>
        <time>2017-05-22T06:44:11Z</time>
      </trkpt>
      <trkpt lat="51.66017803363502" lon="10.667204009369016">
        <ele>596.14999999999998</ele>
        <time>2017-05-22T06:44:12Z</time>
      </trkpt>
      <trkpt lat="51.660231007263064" lon="10.667251031845808">
        <ele>596.14999999999998</ele>
        <time>2017-05-22T06:44:13Z</time>
      </trkpt>
      <trkpt lat="51.660280041396618" lon="10.667308028787374">
        <ele>595.66999999999996</ele>
        <time>2017-05-22T06:44:14Z</time>
      </trkpt>
      <trkpt lat="51.660884963348508" lon="10.667801974341273">
        <ele>601.44000000000005</ele>
        <time>2017-05-22T06:44:23Z</time>
      </trkpt>
      <trkpt lat="51.660976996645331" lon="10.667827958241105">
        <ele>601.91999999999996</ele>
        <time>2017-05-22T06:44:24Z</time>
      </trkpt>
      <trkpt lat="51.661071963608265" lon="10.667840028181672">
        <ele>602.39999999999998</ele>
        <time>2017-05-22T06:44:25Z</time>
      </trkpt>
      <trkpt lat="51.662225984036922" lon="10.667862994596362">
        <ele>616.82000000000005</ele>
        <time>2017-05-22T06:44:36Z</time>
      </trkpt>
      <trkpt lat="51.662868959829211" lon="10.66800900734961">
        <ele>619.71000000000004</ele>
        <time>2017-05-22T06:44:43Z</time>
      </trkpt>
      <trkpt lat="51.663530040532351" lon="10.66792200319469">
        <ele>627.39999999999998</ele>
        <time>2017-05-22T06:44:50Z</time>
      </trkpt>
      <trkpt lat="51.663607992231846" lon="10.66785997711122">
        <ele>627.39999999999998</ele>
        <time>2017-05-22T06:44:51Z</time>
      </trkpt>
      <trkpt lat="51.663692984730005" lon="10.66777003929019">
        <ele>628.36000000000001</ele>
        <time>2017-05-22T06:44:52Z</time>
      </trkpt>
      <trkpt lat="51.663861041888595" lon="10.667582033202052">
        <ele>630.75999999999999</ele>
        <time>2017-05-22T06:44:54Z</time>
      </trkpt>
      <trkpt lat="51.663944022729993" lon="10.667508020997047">
        <ele>631.24000000000001</ele>
        <time>2017-05-22T06:44:55Z</time>
      </trkpt>
      <trkpt lat="51.664038989692926" lon="10.667458986863494">
        <ele>631.72000000000003</ele>
        <time>2017-05-22T06:44:56Z</time>
      </trkpt>
      <trkpt lat="51.664142003282905" lon="10.667424034327269">
        <ele>632.67999999999995</ele>
        <time>2017-05-22T06:44:57Z</time>
      </trkpt>
      <trkpt lat="51.664226995781064" lon="10.66740601323545">
        <ele>632.67999999999995</ele>
        <time>2017-05-22T06:44:58Z</time>
      </trkpt>
      <trkpt lat="51.664293967187405" lon="10.667398972436786">
        <ele>633.64999999999998</ele>
        <time>2017-05-22T06:44:59Z</time>
      </trkpt>
      <trkpt lat="51.664352975785732" lon="10.667424034327269">
        <ele>633.64999999999998</ele>
        <time>2017-05-22T06:45:01Z</time>
      </trkpt>
      <trkpt lat="51.664372002705932" lon="10.667465021833777">
        <ele>635.09000000000003</ele>
        <time>2017-05-22T06:45:02Z</time>
      </trkpt>
      <trkpt lat="51.664370996877551" lon="10.667555965483189">
        <ele>637.00999999999999</ele>
        <time>2017-05-22T06:45:03Z</time>
      </trkpt>
      <trkpt lat="51.664438974112272" lon="10.668603032827377">
        <ele>638.45000000000005</ele>
        <time>2017-05-22T06:45:11Z</time>
      </trkpt>
      <trkpt lat="51.664469987154007" lon="10.668865973129869">
        <ele>639.88999999999999</ele>
        <time>2017-05-22T06:45:14Z</time>
      </trkpt>
      <trkpt lat="51.664493959397078" lon="10.668921964243054">
        <ele>640.86000000000001</ele>
        <time>2017-05-22T06:45:15Z</time>
      </trkpt>
      <trkpt lat="51.664537964388728" lon="10.668943002820015">
        <ele>641.34000000000003</ele>
        <time>2017-05-22T06:45:16Z</time>
      </trkpt>
      <trkpt lat="51.664582975208759" lon="10.668949959799647">
        <ele>643.74000000000001</ele>
        <time>2017-05-22T06:45:17Z</time>
      </trkpt>
      <trkpt lat="51.664632009342313" lon="10.668939985334873">
        <ele>646.13999999999999</ele>
        <time>2017-05-22T06:45:18Z</time>
      </trkpt>
      <trkpt lat="51.66469101794064" lon="10.668915007263422">
        <ele>646.62</ele>
        <time>2017-05-22T06:45:19Z</time>
      </trkpt>
      <trkpt lat="51.665535997599363" lon="10.668378984555602">
        <ele>651.90999999999997</ele>
        <time>2017-05-22T06:45:30Z</time>
      </trkpt>
      <trkpt lat="51.666210992261767" lon="10.667941030114889">
        <ele>653.83000000000004</ele>
        <time>2017-05-22T06:45:38Z</time>
      </trkpt>
      <trkpt lat="51.666954969987273" lon="10.667487988248467">
        <ele>664.40999999999997</ele>
        <time>2017-05-22T06:45:48Z</time>
      </trkpt>
      <trkpt lat="51.667053960263729" lon="10.667426967993379">
        <ele>656.72000000000003</ele>
        <time>2017-05-22T06:45:58Z</time>
      </trkpt>
      <trkpt lat="51.667151022702456" lon="10.667437026277184">
        <ele>651.42999999999995</ele>
        <time>2017-05-22T06:46:01Z</time>
      </trkpt>
      <trkpt lat="51.667194021865726" lon="10.667457981035113">
        <ele>648.07000000000005</ele>
        <time>2017-05-22T06:46:02Z</time>
      </trkpt>
      <trkpt lat="51.667327964678407" lon="10.667586978524923">
        <ele>634.61000000000001</ele>
        <time>2017-05-22T06:46:09Z</time>
      </trkpt>
      <trkpt lat="51.667303992435336" lon="10.667567029595375">
        <ele>642.29999999999995</ele>
        <time>2017-05-22T06:46:22Z</time>
      </trkpt>
      <trkpt lat="51.667292006313801" lon="10.667555965483189">
        <ele>642.29999999999995</ele>
        <time>2017-05-22T06:46:24Z</time>
      </trkpt>
      <trkpt lat="51.667207013815641" lon="10.667528975754976">
        <ele>640.86000000000001</ele>
        <time>2017-05-22T06:46:27Z</time>
      </trkpt>
      <trkpt lat="51.667058989405632" lon="10.66751598380506">
        <ele>639.88999999999999</ele>
        <time>2017-05-22T06:46:30Z</time>
      </trkpt>
      <trkpt lat="51.66698900051415" lon="10.667482959106565">
        <ele>641.34000000000003</ele>
        <time>2017-05-22T06:46:38Z</time>
      </trkpt>
      <trkpt lat="51.666752966120839" lon="10.6676210090518">
        <ele>643.25999999999999</ele>
        <time>2017-05-22T06:47:19Z</time>
      </trkpt>
      <trkpt lat="51.665943022817373" lon="10.668082013726234">
        <ele>646.62</ele>
        <time>2017-05-22T06:47:30Z</time>
      </trkpt>
      <trkpt lat="51.665021013468504" lon="10.668618958443403">
        <ele>648.07000000000005</ele>
        <time>2017-05-22T06:47:40Z</time>
      </trkpt>
      <trkpt lat="51.663945028558373" lon="10.669291019439697">
        <ele>649.02999999999997</ele>
        <time>2017-05-22T06:47:53Z</time>
      </trkpt>
      <trkpt lat="51.663211025297642" lon="10.669842967763543">
        <ele>648.54999999999995</ele>
        <time>2017-05-22T06:48:01Z</time>
      </trkpt>
      <trkpt lat="51.663137013092637" lon="10.669957967475057">
        <ele>648.07000000000005</ele>
        <time>2017-05-22T06:48:02Z</time>
      </trkpt>
      <trkpt lat="51.663080016151071" lon="10.67007296718657">
        <ele>647.59000000000003</ele>
        <time>2017-05-22T06:48:03Z</time>
      </trkpt>
      <trkpt lat="51.663030982017517" lon="10.670196013525128">
        <ele>647.59000000000003</ele>
        <time>2017-05-22T06:48:04Z</time>
      </trkpt>
      <trkpt lat="51.662995023652911" lon="10.670332973822951">
        <ele>647.59000000000003</ele>
        <time>2017-05-22T06:48:05Z</time>
      </trkpt>
      <trkpt lat="51.662968033924699" lon="10.6704789865762">
        <ele>647.10000000000002</ele>
        <time>2017-05-22T06:48:06Z</time>
      </trkpt>
      <trkpt lat="51.66295001283288" lon="10.67062902264297">
        <ele>647.10000000000002</ele>
        <time>2017-05-22T06:48:07Z</time>
      </trkpt>
      <trkpt lat="51.662938026711345" lon="10.670793978497386">
        <ele>647.10000000000002</ele>
        <time>2017-05-22T06:48:08Z</time>
      </trkpt>
      <trkpt lat="51.662939032539725" lon="10.670958012342453">
        <ele>646.62</ele>
        <time>2017-05-22T06:48:09Z</time>
      </trkpt>
      <trkpt lat="51.662945989519358" lon="10.671120034530759">
        <ele>646.13999999999999</ele>
        <time>2017-05-22T06:48:10Z</time>
      </trkpt>
      <trkpt lat="51.662953030318022" lon="10.671279961243272">
        <ele>645.65999999999997</ele>
        <time>2017-05-22T06:48:11Z</time>
      </trkpt>
      <trkpt lat="51.663000974804163" lon="10.671864012256265">
        <ele>644.22000000000003</ele>
        <time>2017-05-22T06:48:15Z</time>
      </trkpt>
      <trkpt lat="51.663073981180787" lon="10.672189984470606">
        <ele>644.70000000000005</ele>
        <time>2017-05-22T06:48:17Z</time>
      </trkpt>
      <trkpt lat="51.663124021142721" lon="10.672572031617165">
        <ele>645.17999999999995</ele>
        <time>2017-05-22T06:48:19Z</time>
      </trkpt>
      <trkpt lat="51.663131983950734" lon="10.672773029655218">
        <ele>645.65999999999997</ele>
        <time>2017-05-22T06:48:20Z</time>
      </trkpt>
      <trkpt lat="51.663126032799482" lon="10.672982996329665">
        <ele>646.13999999999999</ele>
        <time>2017-05-22T06:48:21Z</time>
      </trkpt>
      <trkpt lat="51.663100970908999" lon="10.673796962946653">
        <ele>647.59000000000003</ele>
        <time>2017-05-22T06:48:25Z</time>
      </trkpt>
      <trkpt lat="51.663118992000818" lon="10.674465000629425">
        <ele>648.54999999999995</ele>
        <time>2017-05-22T06:48:28Z</time>
      </trkpt>
      <trkpt lat="51.66310197673738" lon="10.674689970910549">
        <ele>649.02999999999997</ele>
        <time>2017-05-22T06:48:29Z</time>
      </trkpt>
      <trkpt lat="51.663071969524026" lon="10.674909995868802">
        <ele>649.02999999999997</ele>
        <time>2017-05-22T06:48:30Z</time>
      </trkpt>
      <trkpt lat="51.66297297924757" lon="10.676756026223302">
        <ele>647.10000000000002</ele>
        <time>2017-05-22T06:48:38Z</time>
      </trkpt>
      <trkpt lat="51.662941966205835" lon="10.677328007295728">
        <ele>645.65999999999997</ele>
        <time>2017-05-22T06:48:41Z</time>
      </trkpt>
      <trkpt lat="51.662908019497991" lon="10.677507966756821">
        <ele>645.17999999999995</ele>
        <time>2017-05-22T06:48:42Z</time>
      </trkpt>
      <trkpt lat="51.662860997021198" lon="10.677707036957145">
        <ele>644.22000000000003</ele>
        <time>2017-05-22T06:48:43Z</time>
      </trkpt>
      <trkpt lat="51.662387000396848" lon="10.679576033726335">
        <ele>638.45000000000005</ele>
        <time>2017-05-22T06:48:51Z</time>
      </trkpt>
      <trkpt lat="51.662215003743768" lon="10.680914036929607">
        <ele>634.13</ele>
        <time>2017-05-22T06:48:56Z</time>
      </trkpt>
      <trkpt lat="51.662208968773484" lon="10.681188963353634">
        <ele>633.16999999999996</ele>
        <time>2017-05-22T06:48:57Z</time>
      </trkpt>
      <trkpt lat="51.662390017881989" lon="10.683681992813945">
        <ele>618.25999999999999</ele>
        <time>2017-05-22T06:49:05Z</time>
      </trkpt>
      <trkpt lat="51.662982031702995" lon="10.686756977811456">
        <ele>596.14999999999998</ele>
        <time>2017-05-22T06:49:14Z</time>
      </trkpt>
      <trkpt lat="51.663098959252238" lon="10.687040034681559">
        <ele>595.19000000000005</ele>
        <time>2017-05-22T06:49:15Z</time>
      </trkpt>
      <trkpt lat="51.663698013871908" lon="10.688896961510181">
        <ele>585.10000000000002</ele>
        <time>2017-05-22T06:49:21Z</time>
      </trkpt>
      <trkpt lat="51.663747970014811" lon="10.68925797007978">
        <ele>583.17999999999995</ele>
        <time>2017-05-22T06:49:22Z</time>
      </trkpt>
      <trkpt lat="51.663783006370068" lon="10.689620990306139">
        <ele>581.73000000000002</ele>
        <time>2017-05-22T06:49:23Z</time>
      </trkpt>
      <trkpt lat="51.663805972784758" lon="10.689981998875737">
        <ele>580.76999999999998</ele>
        <time>2017-05-22T06:49:24Z</time>
      </trkpt>
      <trkpt lat="51.663813013583422" lon="10.690334038808942">
        <ele>579.33000000000004</ele>
        <time>2017-05-22T06:49:25Z</time>
      </trkpt>
      <trkpt lat="51.663806978613138" lon="10.690671997144818">
        <ele>578.37</ele>
        <time>2017-05-22T06:49:26Z</time>
      </trkpt>
      <trkpt lat="51.663817958906293" lon="10.690991012379527">
        <ele>576.45000000000005</ele>
        <time>2017-05-22T06:49:27Z</time>
      </trkpt>
      <trkpt lat="51.663850983604789" lon="10.691271973773837">
        <ele>575.00999999999999</ele>
        <time>2017-05-22T06:49:28Z</time>
      </trkpt>
      <trkpt lat="51.663917033001781" lon="10.691526029258966">
        <ele>573.08000000000004</ele>
        <time>2017-05-22T06:49:29Z</time>
      </trkpt>
      <trkpt lat="51.664007976651192" lon="10.691781006753445">
        <ele>571.15999999999997</ele>
        <time>2017-05-22T06:49:30Z</time>
      </trkpt>
      <trkpt lat="51.664114007726312" lon="10.692019974812865">
        <ele>568.75999999999999</ele>
        <time>2017-05-22T06:49:31Z</time>
      </trkpt>
      <trkpt lat="51.664575012400746" lon="10.693263011053205">
        <ele>560.59000000000003</ele>
        <time>2017-05-22T06:49:36Z</time>
      </trkpt>
      <trkpt lat="51.664618011564016" lon="10.693536009639502">
        <ele>557.70000000000005</ele>
        <time>2017-05-22T06:49:37Z</time>
      </trkpt>
      <trkpt lat="51.664654975757003" lon="10.69383398629725">
        <ele>556.74000000000001</ele>
        <time>2017-05-22T06:49:38Z</time>
      </trkpt>
      <trkpt lat="51.665106005966663" lon="10.69636900909245">
        <ele>540.39999999999998</ele>
        <time>2017-05-22T06:49:46Z</time>
      </trkpt>
      <trkpt lat="51.665216982364655" lon="10.696656005457044">
        <ele>539.91999999999996</ele>
        <time>2017-05-22T06:49:47Z</time>
      </trkpt>
      <trkpt lat="51.665339022874832" lon="10.696934033185244">
        <ele>539.91999999999996</ele>
        <time>2017-05-22T06:49:48Z</time>
      </trkpt>
      <trkpt lat="51.665569022297859" lon="10.697506014257669">
        <ele>539.44000000000005</ele>
        <time>2017-05-22T06:49:50Z</time>
      </trkpt>
      <trkpt lat="51.665647979825735" lon="10.697815977036953">
        <ele>539.44000000000005</ele>
        <time>2017-05-22T06:49:51Z</time>
      </trkpt>
      <trkpt lat="51.666208980605006" lon="10.700201969593763">
        <ele>539.91999999999996</ele>
        <time>2017-05-22T06:49:59Z</time>
      </trkpt>
      <trkpt lat="51.666714996099472" lon="10.701881032437086">
        <ele>537.02999999999997</ele>
        <time>2017-05-22T06:50:06Z</time>
      </trkpt>
      <trkpt lat="51.666765036061406" lon="10.702165011316538">
        <ele>536.54999999999995</ele>
        <time>2017-05-22T06:50:07Z</time>
      </trkpt>
      <trkpt lat="51.666802000254393" lon="10.702471034601331">
        <ele>536.07000000000005</ele>
        <time>2017-05-22T06:50:08Z</time>
      </trkpt>
      <trkpt lat="51.666951030492783" lon="10.705109992995858">
        <ele>530.78999999999996</ele>
        <time>2017-05-22T06:50:16Z</time>
      </trkpt>
      <trkpt lat="51.667062006890774" lon="10.706898020580411">
        <ele>528.38</ele>
        <time>2017-05-22T06:50:24Z</time>
      </trkpt>
      <trkpt lat="51.667234003543854" lon="10.709530021995306">
        <ele>524.05999999999995</ele>
        <time>2017-05-22T06:50:38Z</time>
      </trkpt>
      <trkpt lat="51.667603980749846" lon="10.711905034258962">
        <ele>516.85000000000002</ele>
        <time>2017-05-22T06:50:51Z</time>
      </trkpt>
      <trkpt lat="51.66772099211812" lon="10.712572988122702">
        <ele>514.91999999999996</ele>
        <time>2017-05-22T06:50:55Z</time>
      </trkpt>
      <trkpt lat="51.667881002649665" lon="10.714748008176684">
        <ele>511.07999999999998</ele>
        <time>2017-05-22T06:51:08Z</time>
      </trkpt>
      <trkpt lat="51.667758040130138" lon="10.716446014121175">
        <ele>504.82999999999998</ele>
        <time>2017-05-22T06:51:20Z</time>
      </trkpt>
      <trkpt lat="51.667614039033651" lon="10.71701698936522">
        <ele>504.82999999999998</ele>
        <time>2017-05-22T06:51:25Z</time>
      </trkpt>
      <trkpt lat="51.667579002678394" lon="10.717074992135167">
        <ele>506.26999999999998</ele>
        <time>2017-05-22T06:51:26Z</time>
      </trkpt>
      <trkpt lat="51.667487975209951" lon="10.717230979353189">
        <ele>506.75</ele>
        <time>2017-05-22T06:51:29Z</time>
      </trkpt>
      <trkpt lat="51.667490992695093" lon="10.717275990173221">
        <ele>505.79000000000002</ele>
        <time>2017-05-22T06:51:30Z</time>
      </trkpt>
      <trkpt lat="51.667518988251686" lon="10.717328963801265">
        <ele>506.26999999999998</ele>
        <time>2017-05-22T06:51:31Z</time>
      </trkpt>
      <trkpt lat="51.667560981586576" lon="10.717347990721464">
        <ele>506.26999999999998</ele>
        <time>2017-05-22T06:51:32Z</time>
      </trkpt>
      <trkpt lat="51.667627030983567" lon="10.717365005984902">
        <ele>507.23000000000002</ele>
        <time>2017-05-22T06:51:33Z</time>
      </trkpt>
      <trkpt lat="51.667766002938151" lon="10.717447986826301">
        <ele>506.26999999999998</ele>
        <time>2017-05-22T06:51:35Z</time>
      </trkpt>
      <trkpt lat="51.667903969064355" lon="10.717513030394912">
        <ele>506.26999999999998</ele>
        <time>2017-05-22T06:51:37Z</time>
      </trkpt>
      <trkpt lat="51.667974963784218" lon="10.717502972111106">
        <ele>505.79000000000002</ele>
        <time>2017-05-22T06:51:38Z</time>
      </trkpt>
      <trkpt lat="51.668046964332461" lon="10.717449998483062">
        <ele>505.79000000000002</ele>
        <time>2017-05-22T06:51:39Z</time>
      </trkpt>
      <trkpt lat="51.668116031214595" lon="10.717365005984902">
        <ele>505.79000000000002</ele>
        <time>2017-05-22T06:51:40Z</time>
      </trkpt>
      <trkpt lat="51.668189037591219" lon="10.717264004051685">
        <ele>506.26999999999998</ele>
        <time>2017-05-22T06:51:41Z</time>
      </trkpt>
      <trkpt lat="51.668247962370515" lon="10.71716601960361">
        <ele>506.26999999999998</ele>
        <time>2017-05-22T06:51:42Z</time>
      </trkpt>
      <trkpt lat="51.669177012518048" lon="10.715990960597992">
        <ele>507.23000000000002</ele>
        <time>2017-05-22T06:51:55Z</time>
      </trkpt>
      <trkpt lat="51.669396031647921" lon="10.715827010571957">
        <ele>509.16000000000003</ele>
        <time>2017-05-22T06:51:58Z</time>
      </trkpt>
      <trkpt lat="51.669485969468951" lon="10.715801026672125">
        <ele>509.63999999999999</ele>
        <time>2017-05-22T06:51:59Z</time>
      </trkpt>
      <trkpt lat="51.669583031907678" lon="10.71578904055059">
        <ele>510.12</ele>
        <time>2017-05-22T06:52:00Z</time>
      </trkpt>
      <trkpt lat="51.66967598721385" lon="10.715817036107183">
        <ele>510.60000000000002</ele>
        <time>2017-05-22T06:52:01Z</time>
      </trkpt>
      <trkpt lat="51.669760979712009" lon="10.71587797254324">
        <ele>511.56</ele>
        <time>2017-05-22T06:52:02Z</time>
      </trkpt>
      <trkpt lat="51.669859969988465" lon="10.715957013890147">
        <ele>512.03999999999996</ele>
        <time>2017-05-22T06:52:03Z</time>
      </trkpt>
      <trkpt lat="51.670039007440209" lon="10.716099003329873">
        <ele>513.48000000000002</ele>
        <time>2017-05-22T06:52:05Z</time>
      </trkpt>
      <trkpt lat="51.670131962746382" lon="10.716147031635046">
        <ele>514.44000000000005</ele>
        <time>2017-05-22T06:52:06Z</time>
      </trkpt>
      <trkpt lat="51.670221984386444" lon="10.71615700609982">
        <ele>514.91999999999996</ele>
        <time>2017-05-22T06:52:07Z</time>
      </trkpt>
      <trkpt lat="51.670328015461564" lon="10.716149965301156">
        <ele>515.39999999999998</ele>
        <time>2017-05-22T06:52:08Z</time>
      </trkpt>
      <trkpt lat="51.670437986031175" lon="10.716119036078453">
        <ele>516.37</ele>
        <time>2017-05-22T06:52:09Z</time>
      </trkpt>
      <trkpt lat="51.672100033611059" lon="10.715525010600686">
        <ele>526.46000000000004</ele>
        <time>2017-05-22T06:52:25Z</time>
      </trkpt>
      <trkpt lat="51.672204975038767" lon="10.715525010600686">
        <ele>526.94000000000005</ele>
        <time>2017-05-22T06:52:26Z</time>
      </trkpt>
      <trkpt lat="51.672314023599029" lon="10.715538002550602">
        <ele>527.41999999999996</ele>
        <time>2017-05-22T06:52:27Z</time>
      </trkpt>
      <trkpt lat="51.673568962141871" lon="10.715896999463439">
        <ele>531.75</ele>
        <time>2017-05-22T06:52:40Z</time>
      </trkpt>
      <trkpt lat="51.67453195899725" lon="10.716159017756581">
        <ele>534.63</ele>
        <time>2017-05-22T06:52:51Z</time>
      </trkpt>
      <trkpt lat="51.675772983580828" lon="10.716622034087777">
        <ele>541.36000000000001</ele>
        <time>2017-05-22T06:53:02Z</time>
      </trkpt>
      <trkpt lat="51.676775040104985" lon="10.716853961348534">
        <ele>539.44000000000005</ele>
        <time>2017-05-22T06:53:10Z</time>
      </trkpt>
      <trkpt lat="51.676917029544711" lon="10.716926967725158">
        <ele>539.91999999999996</ele>
        <time>2017-05-22T06:53:11Z</time>
      </trkpt>
      <trkpt lat="51.677052984014153" lon="10.717022018507123">
        <ele>539.91999999999996</ele>
        <time>2017-05-22T06:53:12Z</time>
      </trkpt>
      <trkpt lat="51.677171001210809" lon="10.717167025431991">
        <ele>539.44000000000005</ele>
        <time>2017-05-22T06:53:13Z</time>
      </trkpt>
      <trkpt lat="51.677270997315645" lon="10.717339022085071">
        <ele>539.91999999999996</ele>
        <time>2017-05-22T06:53:14Z</time>
      </trkpt>
      <trkpt lat="51.677374010905623" lon="10.717513030394912">
        <ele>540.39999999999998</ele>
        <time>2017-05-22T06:53:15Z</time>
      </trkpt>
      <trkpt lat="51.678308006376028" lon="10.71884298697114">
        <ele>546.16999999999996</ele>
        <time>2017-05-22T06:53:24Z</time>
      </trkpt>
      <trkpt lat="51.678438009694219" lon="10.718944994732738">
        <ele>547.13</ele>
        <time>2017-05-22T06:53:25Z</time>
      </trkpt>
      <trkpt lat="51.678571030497551" lon="10.719024036079645">
        <ele>547.61000000000001</ele>
        <time>2017-05-22T06:53:26Z</time>
      </trkpt>
      <trkpt lat="51.678708996623755" lon="10.719085978344083">
        <ele>549.04999999999995</ele>
        <time>2017-05-22T06:53:27Z</time>
      </trkpt>
      <trkpt lat="51.678855009377003" lon="10.719139035791159">
        <ele>550.49000000000001</ele>
        <time>2017-05-22T06:53:28Z</time>
      </trkpt>
      <trkpt lat="51.680412031710148" lon="10.719665000215173">
        <ele>560.11000000000001</ele>
        <time>2017-05-22T06:53:38Z</time>
      </trkpt>
      <trkpt lat="51.680558966472745" lon="10.719645973294973">
        <ele>560.59000000000003</ele>
        <time>2017-05-22T06:53:39Z</time>
      </trkpt>
      <trkpt lat="51.680713025853038" lon="10.719602974131703">
        <ele>560.59000000000003</ele>
        <time>2017-05-22T06:53:40Z</time>
      </trkpt>
      <trkpt lat="51.68086800724268" lon="10.71953197941184">
        <ele>560.59000000000003</ele>
        <time>2017-05-22T06:53:41Z</time>
      </trkpt>
      <trkpt lat="51.681036986410618" lon="10.719441035762429">
        <ele>560.11000000000001</ele>
        <time>2017-05-22T06:53:42Z</time>
      </trkpt>
      <trkpt lat="51.682607000693679" lon="10.718297995626926">
        <ele>555.77999999999997</ele>
        <time>2017-05-22T06:53:51Z</time>
      </trkpt>
      <trkpt lat="51.682772040367126" lon="10.718104038387537">
        <ele>555.77999999999997</ele>
        <time>2017-05-22T06:53:52Z</time>
      </trkpt>
      <trkpt lat="51.684354962781072" lon="10.715996995568275">
        <ele>556.74000000000001</ele>
        <time>2017-05-22T06:54:02Z</time>
      </trkpt>
      <trkpt lat="51.6866260394454" lon="10.713071040809155">
        <ele>555.77999999999997</ele>
        <time>2017-05-22T06:54:16Z</time>
      </trkpt>
      <trkpt lat="51.68680096976459" lon="10.712950006127357">
        <ele>556.25999999999999</ele>
        <time>2017-05-22T06:54:17Z</time>
      </trkpt>
      <trkpt lat="51.686989981681108" lon="10.71287197060883">
        <ele>556.25999999999999</ele>
        <time>2017-05-22T06:54:18Z</time>
      </trkpt>
      <trkpt lat="51.687214029952884" lon="10.712856967002153">
        <ele>557.22000000000003</ele>
        <time>2017-05-22T06:54:19Z</time>
      </trkpt>
      <trkpt lat="51.687419973313808" lon="10.712854033336043">
        <ele>557.70000000000005</ele>
        <time>2017-05-22T06:54:20Z</time>
      </trkpt>
      <trkpt lat="51.689133988693357" lon="10.712956041097641">
        <ele>552.40999999999997</ele>
        <time>2017-05-22T06:54:28Z</time>
      </trkpt>
      <trkpt lat="51.689349990338087" lon="10.713033992797136">
        <ele>551.92999999999995</ele>
        <time>2017-05-22T06:54:29Z</time>
      </trkpt>
      <trkpt lat="51.691646967083216" lon="10.713997995480895">
        <ele>527.89999999999998</ele>
        <time>2017-05-22T06:54:40Z</time>
      </trkpt>
      <trkpt lat="51.693548988550901" lon="10.714754965156317">
        <ele>508.67000000000002</ele>
        <time>2017-05-22T06:54:49Z</time>
      </trkpt>
      <trkpt lat="51.693749986588955" lon="10.714764017611742">
        <ele>505.79000000000002</ele>
        <time>2017-05-22T06:54:50Z</time>
      </trkpt>
      <trkpt lat="51.693935981020331" lon="10.714726969599724">
        <ele>502.91000000000003</ele>
        <time>2017-05-22T06:54:51Z</time>
      </trkpt>
      <trkpt lat="51.694119963794947" lon="10.714653041213751">
        <ele>500.5</ele>
        <time>2017-05-22T06:54:52Z</time>
      </trkpt>
      <trkpt lat="51.694291960448027" lon="10.714562013745308">
        <ele>498.10000000000002</ele>
        <time>2017-05-22T06:54:53Z</time>
      </trkpt>
      <trkpt lat="51.694738967344165" lon="10.714388005435467">
        <ele>494.25999999999999</ele>
        <time>2017-05-22T06:54:56Z</time>
      </trkpt>
      <trkpt lat="51.694866959005594" lon="10.714386999607086">
        <ele>492.81</ele>
        <time>2017-05-22T06:54:57Z</time>
      </trkpt>
      <trkpt lat="51.694983970373869" lon="10.714432010427117">
        <ele>491.37</ele>
        <time>2017-05-22T06:54:58Z</time>
      </trkpt>
      <trkpt lat="51.695082038640976" lon="10.714526977390051">
        <ele>489.93000000000001</ele>
        <time>2017-05-22T06:54:59Z</time>
      </trkpt>
      <trkpt lat="51.695151021704078" lon="10.714690005406737">
        <ele>488.49000000000001</ele>
        <time>2017-05-22T06:55:00Z</time>
      </trkpt>
      <trkpt lat="51.695202989503741" lon="10.71488999761641">
        <ele>487.05000000000001</ele>
        <time>2017-05-22T06:55:01Z</time>
      </trkpt>
      <trkpt lat="51.695241965353489" lon="10.71510398760438">
        <ele>485.60000000000002</ele>
        <time>2017-05-22T06:55:02Z</time>
      </trkpt>
      <trkpt lat="51.695562992244959" lon="10.716820014640689">
        <ele>476.94999999999999</ele>
        <time>2017-05-22T06:55:11Z</time>
      </trkpt>
      <trkpt lat="51.695638010278344" lon="10.717115979641676">
        <ele>477.43000000000001</ele>
        <time>2017-05-22T06:55:13Z</time>
      </trkpt>
      <trkpt lat="51.695659970864654" lon="10.717273978516459">
        <ele>476.94999999999999</ele>
        <time>2017-05-22T06:55:14Z</time>
      </trkpt>
      <trkpt lat="51.695675980299711" lon="10.717436000704765">
        <ele>477.43000000000001</ele>
        <time>2017-05-22T06:55:15Z</time>
      </trkpt>
      <trkpt lat="51.695695007219911" lon="10.71774797514081">
        <ele>477.91000000000003</ele>
        <time>2017-05-22T06:55:17Z</time>
      </trkpt>
      <trkpt lat="51.695723002776504" lon="10.71787403896451">
        <ele>477.91000000000003</ele>
        <time>2017-05-22T06:55:18Z</time>
      </trkpt>
      <trkpt lat="51.695764996111393" lon="10.717966994270682">
        <ele>477.91000000000003</ele>
        <time>2017-05-22T06:55:19Z</time>
      </trkpt>
      <trkpt lat="51.695820987224579" lon="10.718018962070346">
        <ele>477.91000000000003</ele>
        <time>2017-05-22T06:55:20Z</time>
      </trkpt>
      <trkpt lat="51.695877984166145" lon="10.718036983162165">
        <ele>477.43000000000001</ele>
        <time>2017-05-22T06:55:21Z</time>
      </trkpt>
      <trkpt lat="51.695937998592854" lon="10.718029020354152">
        <ele>476.94999999999999</ele>
        <time>2017-05-22T06:55:22Z</time>
      </trkpt>
      <trkpt lat="51.696000024676323" lon="10.718017034232616">
        <ele>476.94999999999999</ele>
        <time>2017-05-22T06:55:23Z</time>
      </trkpt>
      <trkpt lat="51.6964450199157" lon="10.717863980680704">
        <ele>475.50999999999999</ele>
        <time>2017-05-22T06:55:33Z</time>
      </trkpt>
      <trkpt lat="51.696463963016868" lon="10.717807989567518">
        <ele>475.50999999999999</ele>
        <time>2017-05-22T06:55:34Z</time>
      </trkpt>
      <trkpt lat="51.696472009643912" lon="10.717705981805921">
        <ele>475.02999999999997</ele>
        <time>2017-05-22T06:55:35Z</time>
      </trkpt>
      <trkpt lat="51.696456000208855" lon="10.717573966830969">
        <ele>475.02999999999997</ele>
        <time>2017-05-22T06:55:36Z</time>
      </trkpt>
      <trkpt lat="51.696429010480642" lon="10.71742401458323">
        <ele>475.02999999999997</ele>
        <time>2017-05-22T06:55:37Z</time>
      </trkpt>
      <trkpt lat="51.696392968297005" lon="10.717247994616628">
        <ele>475.02999999999997</ele>
        <time>2017-05-22T06:55:38Z</time>
      </trkpt>
      <trkpt lat="51.696020979434252" lon="10.715549988672137">
        <ele>473.11000000000001</ele>
        <time>2017-05-22T06:55:45Z</time>
      </trkpt>
      <trkpt lat="51.69595199637115" lon="10.714971972629428">
        <ele>473.11000000000001</ele>
        <time>2017-05-22T06:55:47Z</time>
      </trkpt>
      <trkpt lat="51.695867003872991" lon="10.711825992912054">
        <ele>475.02999999999997</ele>
        <time>2017-05-22T06:55:57Z</time>
      </trkpt>
      <trkpt lat="51.695567015558481" lon="10.70835898630321">
        <ele>477.43000000000001</ele>
        <time>2017-05-22T06:56:07Z</time>
      </trkpt>
      <trkpt lat="51.694893026724458" lon="10.705364970490336">
        <ele>478.87</ele>
        <time>2017-05-22T06:56:15Z</time>
      </trkpt>
      <trkpt lat="51.694519026204944" lon="10.703030023723841">
        <ele>481.27999999999997</ele>
        <time>2017-05-22T06:56:21Z</time>
      </trkpt>
      <trkpt lat="51.69451299123466" lon="10.702635990455747">
        <ele>481.75999999999999</ele>
        <time>2017-05-22T06:56:22Z</time>
      </trkpt>
      <trkpt lat="51.694521959871054" lon="10.702251009643078">
        <ele>482.24000000000001</ele>
        <time>2017-05-22T06:56:23Z</time>
      </trkpt>
      <trkpt lat="51.694721030071378" lon="10.699031017720699">
        <ele>482.24000000000001</ele>
        <time>2017-05-22T06:56:32Z</time>
      </trkpt>
      <trkpt lat="51.695255041122437" lon="10.696892039850354">
        <ele>482.72000000000003</ele>
        <time>2017-05-22T06:56:39Z</time>
      </trkpt>
      <trkpt lat="51.69599499553442" lon="10.69525002501905">
        <ele>484.63999999999999</ele>
        <time>2017-05-22T06:56:45Z</time>
      </trkpt>
      <trkpt lat="51.696874005720019" lon="10.692444015294313">
        <ele>489.44999999999999</ele>
        <time>2017-05-22T06:56:54Z</time>
      </trkpt>
      <trkpt lat="51.69691801071167" lon="10.692115025594831">
        <ele>489.44999999999999</ele>
        <time>2017-05-22T06:56:55Z</time>
      </trkpt>
      <trkpt lat="51.697236020117998" lon="10.68938696756959">
        <ele>488.97000000000003</ele>
        <time>2017-05-22T06:57:03Z</time>
      </trkpt>
      <trkpt lat="51.697675986215472" lon="10.687113963067532">
        <ele>488.97000000000003</ele>
        <time>2017-05-22T06:57:10Z</time>
      </trkpt>
      <trkpt lat="51.697870027273893" lon="10.686381971463561">
        <ele>490.41000000000003</ele>
        <time>2017-05-22T06:57:14Z</time>
      </trkpt>
      <trkpt lat="51.697929035872221" lon="10.686322962865233">
        <ele>491.37</ele>
        <time>2017-05-22T06:57:15Z</time>
      </trkpt>
      <trkpt lat="51.698003970086575" lon="10.686321035027504">
        <ele>490.88999999999999</ele>
        <time>2017-05-22T06:57:16Z</time>
      </trkpt>
      <trkpt lat="51.698091980069876" lon="10.686349030584097">
        <ele>491.37</ele>
        <time>2017-05-22T06:57:17Z</time>
      </trkpt>
      <trkpt lat="51.698189964517951" lon="10.686398986726999">
        <ele>491.85000000000002</ele>
        <time>2017-05-22T06:57:18Z</time>
      </trkpt>
      <trkpt lat="51.698302030563354" lon="10.686472998932004">
        <ele>491.85000000000002</ele>
        <time>2017-05-22T06:57:19Z</time>
      </trkpt>
      <trkpt lat="51.699399976059794" lon="10.687285037711263">
        <ele>499.06</ele>
        <time>2017-05-22T06:57:27Z</time>
      </trkpt>
      <trkpt lat="51.699559986591339" lon="10.687355026602745">
        <ele>500.01999999999998</ele>
        <time>2017-05-22T06:57:28Z</time>
      </trkpt>
      <trkpt lat="51.700895978137851" lon="10.687573961913586">
        <ele>509.16000000000003</ele>
        <time>2017-05-22T06:57:36Z</time>
      </trkpt>
      <trkpt lat="51.701032016426325" lon="10.687645962461829">
        <ele>510.12</ele>
        <time>2017-05-22T06:57:37Z</time>
      </trkpt>
      <trkpt lat="51.701142992824316" lon="10.687777977436781">
        <ele>510.60000000000002</ele>
        <time>2017-05-22T06:57:38Z</time>
      </trkpt>
      <trkpt lat="51.70123795978725" lon="10.687963971868157">
        <ele>511.56</ele>
        <time>2017-05-22T06:57:39Z</time>
      </trkpt>
      <trkpt lat="51.701320018619299" lon="10.688176034018397">
        <ele>512.51999999999998</ele>
        <time>2017-05-22T06:57:40Z</time>
      </trkpt>
      <trkpt lat="51.701395036652684" lon="10.688384994864464">
        <ele>512.51999999999998</ele>
        <time>2017-05-22T06:57:41Z</time>
      </trkpt>
      <trkpt lat="51.701471982523799" lon="10.688581969588995">
        <ele>512.51999999999998</ele>
        <time>2017-05-22T06:57:42Z</time>
      </trkpt>
      <trkpt lat="51.7015599925071" lon="10.688750026747584">
        <ele>513</ele>
        <time>2017-05-22T06:57:43Z</time>
      </trkpt>
      <trkpt lat="51.701668035238981" lon="10.688852034509182">
        <ele>513</ele>
        <time>2017-05-22T06:57:44Z</time>
      </trkpt>
      <trkpt lat="51.701767025515437" lon="10.688909031450748">
        <ele>512.51999999999998</ele>
        <time>2017-05-22T06:57:45Z</time>
      </trkpt>
      <trkpt lat="51.701889988034964" lon="10.688908025622368">
        <ele>512.51999999999998</ele>
        <time>2017-05-22T06:57:46Z</time>
      </trkpt>
      <trkpt lat="51.70203298330307" lon="10.688862008973956">
        <ele>513</ele>
        <time>2017-05-22T06:57:47Z</time>
      </trkpt>
      <trkpt lat="51.702184025198221" lon="10.688798977062106">
        <ele>514.44000000000005</ele>
        <time>2017-05-22T06:57:48Z</time>
      </trkpt>
      <trkpt lat="51.703458996489644" lon="10.688175028190017">
        <ele>518.28999999999996</ele>
        <time>2017-05-22T06:57:55Z</time>
      </trkpt>
      <trkpt lat="51.706075994297862" lon="10.686834007501602">
        <ele>528.86000000000001</ele>
        <time>2017-05-22T06:58:08Z</time>
      </trkpt>
      <trkpt lat="51.708395015448332" lon="10.685686022043228">
        <ele>541.84000000000003</ele>
        <time>2017-05-22T06:58:19Z</time>
      </trkpt>
      <trkpt lat="51.709888000041246" lon="10.685007004067302">
        <ele>539.91999999999996</ele>
        <time>2017-05-22T06:58:27Z</time>
      </trkpt>
      <trkpt lat="51.71030499972403" lon="10.684708021581173">
        <ele>537.50999999999999</ele>
        <time>2017-05-22T06:58:30Z</time>
      </trkpt>
      <trkpt lat="51.710430979728699" lon="10.684558991342783">
        <ele>538.48000000000002</ele>
        <time>2017-05-22T06:58:31Z</time>
      </trkpt>
      <trkpt lat="51.710550002753735" lon="10.684353969991207">
        <ele>538.96000000000004</ele>
        <time>2017-05-22T06:58:32Z</time>
      </trkpt>
      <trkpt lat="51.711777029559016" lon="10.682267965748906">
        <ele>550.00999999999999</ele>
        <time>2017-05-22T06:58:41Z</time>
      </trkpt>
      <trkpt lat="51.712982011958957" lon="10.680326968431473">
        <ele>559.62</ele>
        <time>2017-05-22T06:58:50Z</time>
      </trkpt>
      <trkpt lat="51.714426968246698" lon="10.678302990272641">
        <ele>569.72000000000003</ele>
        <time>2017-05-22T06:59:00Z</time>
      </trkpt>
      <trkpt lat="51.714610029011965" lon="10.678195031359792">
        <ele>568.75999999999999</ele>
        <time>2017-05-22T06:59:01Z</time>
      </trkpt>
      <trkpt lat="51.715976027771831" lon="10.677216025069356">
        <ele>559.62</ele>
        <time>2017-05-22T06:59:09Z</time>
      </trkpt>
      <trkpt lat="51.7173090018332" lon="10.675798980519176">
        <ele>553.86000000000001</ele>
        <time>2017-05-22T06:59:17Z</time>
      </trkpt>
      <trkpt lat="51.718411976471543" lon="10.674601960927248">
        <ele>556.74000000000001</ele>
        <time>2017-05-22T06:59:24Z</time>
      </trkpt>
      <trkpt lat="51.71926399692893" lon="10.673296982422471">
        <ele>560.11000000000001</ele>
        <time>2017-05-22T06:59:30Z</time>
      </trkpt>
      <trkpt lat="51.719431970268488" lon="10.673157004639506">
        <ele>559.62</ele>
        <time>2017-05-22T06:59:31Z</time>
      </trkpt>
      <trkpt lat="51.720447018742561" lon="10.672425013035536">
        <ele>561.54999999999995</ele>
        <time>2017-05-22T06:59:37Z</time>
      </trkpt>
      <trkpt lat="51.720633013173938" lon="10.672411015257239">
        <ele>562.50999999999999</ele>
        <time>2017-05-22T06:59:38Z</time>
      </trkpt>
      <trkpt lat="51.720810038968921" lon="10.672436999157071">
        <ele>562.50999999999999</ele>
        <time>2017-05-22T06:59:39Z</time>
      </trkpt>
      <trkpt lat="51.721371961757541" lon="10.672674039378762">
        <ele>565.38999999999999</ele>
        <time>2017-05-22T06:59:42Z</time>
      </trkpt>
      <trkpt lat="51.721537001430988" lon="10.67282197996974">
        <ele>566.35000000000002</ele>
        <time>2017-05-22T06:59:43Z</time>
      </trkpt>
      <trkpt lat="51.721696006134152" lon="10.6729949824512">
        <ele>567.32000000000005</ele>
        <time>2017-05-22T06:59:44Z</time>
      </trkpt>
      <trkpt lat="51.721852999180555" lon="10.673227999359369">
        <ele>569.72000000000003</ele>
        <time>2017-05-22T06:59:45Z</time>
      </trkpt>
      <trkpt lat="51.722006974741817" lon="10.673417011275887">
        <ele>570.20000000000005</ele>
        <time>2017-05-22T06:59:46Z</time>
      </trkpt>
      <trkpt lat="51.722135972231627" lon="10.673641981557012">
        <ele>570.67999999999995</ele>
        <time>2017-05-22T06:59:47Z</time>
      </trkpt>
      <trkpt lat="51.723139034584165" lon="10.675842985510826">
        <ele>574.52999999999997</ele>
        <time>2017-05-22T06:59:55Z</time>
      </trkpt>
      <trkpt lat="51.723676985129714" lon="10.677340999245644">
        <ele>577.40999999999997</ele>
        <time>2017-05-22T07:00:01Z</time>
      </trkpt>
      <trkpt lat="51.723720990121365" lon="10.677565969526768">
        <ele>577.40999999999997</ele>
        <time>2017-05-22T07:00:02Z</time>
      </trkpt>
      <trkpt lat="51.723900027573109" lon="10.678378008306026">
        <ele>575.00999999999999</ele>
        <time>2017-05-22T07:00:06Z</time>
      </trkpt>
      <trkpt lat="51.724405959248543" lon="10.680094035342336">
        <ele>573.55999999999995</ele>
        <time>2017-05-22T07:00:16Z</time>
      </trkpt>
      <trkpt lat="51.724651968106627" lon="10.680698035284877">
        <ele>569.72000000000003</ele>
        <time>2017-05-22T07:00:20Z</time>
      </trkpt>
      <trkpt lat="51.725184973329306" lon="10.681809978559613">
        <ele>559.62</ele>
        <time>2017-05-22T07:00:27Z</time>
      </trkpt>
      <trkpt lat="51.725393012166023" lon="10.682179033756256">
        <ele>558.65999999999997</ele>
        <time>2017-05-22T07:00:29Z</time>
      </trkpt>
      <trkpt lat="51.725504994392395" lon="10.682323034852743">
        <ele>558.65999999999997</ele>
        <time>2017-05-22T07:00:30Z</time>
      </trkpt>
      <trkpt lat="51.725604990497231" lon="10.682424958795309">
        <ele>559.13999999999999</ele>
        <time>2017-05-22T07:00:31Z</time>
      </trkpt>
      <trkpt lat="51.725712027400732" lon="10.682461000978947">
        <ele>559.62</ele>
        <time>2017-05-22T07:00:32Z</time>
      </trkpt>
      <trkpt lat="51.725842030718923" lon="10.682421019300818">
        <ele>560.59000000000003</ele>
        <time>2017-05-22T07:00:33Z</time>
      </trkpt>
      <trkpt lat="51.725950995460153" lon="10.682319011539221">
        <ele>560.59000000000003</ele>
        <time>2017-05-22T07:00:34Z</time>
      </trkpt>
      <trkpt lat="51.726055014878511" lon="10.682176016271114">
        <ele>560.59000000000003</ele>
        <time>2017-05-22T07:00:35Z</time>
      </trkpt>
      <trkpt lat="51.72615903429687" lon="10.682028997689486">
        <ele>560.59000000000003</ele>
        <time>2017-05-22T07:00:36Z</time>
      </trkpt>
      <trkpt lat="51.726273028180003" lon="10.681892037391663">
        <ele>560.11000000000001</ele>
        <time>2017-05-22T07:00:37Z</time>
      </trkpt>
      <trkpt lat="51.726400014013052" lon="10.681778965517879">
        <ele>559.62</ele>
        <time>2017-05-22T07:00:38Z</time>
      </trkpt>
      <trkpt lat="51.726533034816384" lon="10.681687016040087">
        <ele>559.13999999999999</ele>
        <time>2017-05-22T07:00:39Z</time>
      </trkpt>
      <trkpt lat="51.726666977629066" lon="10.681632030755281">
        <ele>559.13999999999999</ele>
        <time>2017-05-22T07:00:40Z</time>
      </trkpt>
      <trkpt lat="51.726801004260778" lon="10.681605963036418">
        <ele>559.13999999999999</ele>
        <time>2017-05-22T07:00:41Z</time>
      </trkpt>
      <trkpt lat="51.726922038942575" lon="10.681640999391675">
        <ele>558.65999999999997</ele>
        <time>2017-05-22T07:00:42Z</time>
      </trkpt>
      <trkpt lat="51.727046007290483" lon="10.681642005220056">
        <ele>558.17999999999995</ele>
        <time>2017-05-22T07:00:43Z</time>
      </trkpt>
      <trkpt lat="51.727166036143899" lon="10.681601017713547">
        <ele>557.70000000000005</ele>
        <time>2017-05-22T07:00:44Z</time>
      </trkpt>
      <trkpt lat="51.727284975349903" lon="10.681524993851781">
        <ele>557.70000000000005</ele>
        <time>2017-05-22T07:00:45Z</time>
      </trkpt>
      <trkpt lat="51.727397963404655" lon="10.68139499053359">
        <ele>557.70000000000005</ele>
        <time>2017-05-22T07:00:46Z</time>
      </trkpt>
      <trkpt lat="51.727512963116169" lon="10.681237997487187">
        <ele>557.70000000000005</ele>
        <time>2017-05-22T07:00:47Z</time>
      </trkpt>
      <trkpt lat="51.727631986141205" lon="10.681057032197714">
        <ele>558.17999999999995</ele>
        <time>2017-05-22T07:00:48Z</time>
      </trkpt>
      <trkpt lat="51.727744974195957" lon="10.680873971432447">
        <ele>558.17999999999995</ele>
        <time>2017-05-22T07:00:49Z</time>
      </trkpt>
      <trkpt lat="51.728056026622653" lon="10.680340966209769">
        <ele>557.22000000000003</ele>
        <time>2017-05-22T07:00:52Z</time>
      </trkpt>
      <trkpt lat="51.728146970272064" lon="10.680224038660526">
        <ele>557.22000000000003</ele>
        <time>2017-05-22T07:00:53Z</time>
      </trkpt>
      <trkpt lat="51.728246966376901" lon="10.680165030062199">
        <ele>556.74000000000001</ele>
        <time>2017-05-22T07:00:54Z</time>
      </trkpt>
      <trkpt lat="51.728370012715459" lon="10.680177016183734">
        <ele>555.77999999999997</ele>
        <time>2017-05-22T07:00:55Z</time>
      </trkpt>
      <trkpt lat="51.728475959971547" lon="10.680208029225469">
        <ele>555.29999999999995</ele>
        <time>2017-05-22T07:00:56Z</time>
      </trkpt>
      <trkpt lat="51.728585008531809" lon="10.680244993418455">
        <ele>555.77999999999997</ele>
        <time>2017-05-22T07:00:57Z</time>
      </trkpt>
      <trkpt lat="51.728782989084721" lon="10.680473987013102">
        <ele>557.70000000000005</ele>
        <time>2017-05-22T07:00:59Z</time>
      </trkpt>
      <trkpt lat="51.729767024517059" lon="10.681483000516891">
        <ele>545.20000000000005</ele>
        <time>2017-05-22T07:01:06Z</time>
      </trkpt>
      <trkpt lat="51.729925023391843" lon="10.681552989408374">
        <ele>545.20000000000005</ele>
        <time>2017-05-22T07:01:07Z</time>
      </trkpt>
      <trkpt lat="51.730078998953104" lon="10.68160898052156">
        <ele>544.72000000000003</ele>
        <time>2017-05-22T07:01:08Z</time>
      </trkpt>
      <trkpt lat="51.731239976361394" lon="10.682052969932556">
        <ele>536.07000000000005</ele>
        <time>2017-05-22T07:01:16Z</time>
      </trkpt>
      <trkpt lat="51.731394035741687" lon="10.682111978530884">
        <ele>534.63</ele>
        <time>2017-05-22T07:01:17Z</time>
      </trkpt>
      <trkpt lat="51.731557985767722" lon="10.682127987965941">
        <ele>534.14999999999998</ele>
        <time>2017-05-22T07:01:18Z</time>
      </trkpt>
      <trkpt lat="51.731860991567373" lon="10.68210200406611">
        <ele>533.66999999999996</ele>
        <time>2017-05-22T07:01:20Z</time>
      </trkpt>
      <trkpt lat="51.732334988191724" lon="10.681942999362946">
        <ele>531.75</ele>
        <time>2017-05-22T07:01:23Z</time>
      </trkpt>
      <trkpt lat="51.732487035915256" lon="10.681939981877804">
        <ele>531.75</ele>
        <time>2017-05-22T07:01:24Z</time>
      </trkpt>
      <trkpt lat="51.732772020623088" lon="10.681934030726552">
        <ele>530.78999999999996</ele>
        <time>2017-05-22T07:01:26Z</time>
      </trkpt>
      <trkpt lat="51.732880985364318" lon="10.681903017684817">
        <ele>529.82000000000005</ele>
        <time>2017-05-22T07:01:27Z</time>
      </trkpt>
      <trkpt lat="51.732972012832761" lon="10.681840991601348">
        <ele>529.34000000000003</ele>
        <time>2017-05-22T07:01:28Z</time>
      </trkpt>
      <trkpt lat="51.733537958934903" lon="10.681355008855462">
        <ele>528.38</ele>
        <time>2017-05-22T07:01:37Z</time>
      </trkpt>
      <trkpt lat="51.734219994395971" lon="10.680986037477851">
        <ele>534.63</ele>
        <time>2017-05-22T07:01:45Z</time>
      </trkpt>
      <trkpt lat="51.734296018257737" lon="10.680887969210744">
        <ele>535.59000000000003</ele>
        <time>2017-05-22T07:01:46Z</time>
      </trkpt>
      <trkpt lat="51.734370030462742" lon="10.680768024176359">
        <ele>536.54999999999995</ele>
        <time>2017-05-22T07:01:47Z</time>
      </trkpt>
      <trkpt lat="51.734440019354224" lon="10.680626034736633">
        <ele>537.99000000000001</ele>
        <time>2017-05-22T07:01:48Z</time>
      </trkpt>
      <trkpt lat="51.734507996588945" lon="10.680466024205089">
        <ele>539.91999999999996</ele>
        <time>2017-05-22T07:01:49Z</time>
      </trkpt>
      <trkpt lat="51.734573040157557" lon="10.680288998410106">
        <ele>541.84000000000003</ele>
        <time>2017-05-22T07:01:50Z</time>
      </trkpt>
      <trkpt lat="51.734641017392278" lon="10.68010501563549">
        <ele>543.27999999999997</ele>
        <time>2017-05-22T07:01:51Z</time>
      </trkpt>
      <trkpt lat="51.734901024028659" lon="10.679425997659564">
        <ele>548.09000000000003</ele>
        <time>2017-05-22T07:01:55Z</time>
      </trkpt>
      <trkpt lat="51.734982999041677" lon="10.67928803153336">
        <ele>548.09000000000003</ele>
        <time>2017-05-22T07:01:56Z</time>
      </trkpt>
      <trkpt lat="51.735068997368217" lon="10.679170014336705">
        <ele>547.61000000000001</ele>
        <time>2017-05-22T07:01:57Z</time>
      </trkpt>
      <trkpt lat="51.735530002042651" lon="10.678403992205858">
        <ele>555.77999999999997</ele>
        <time>2017-05-22T07:02:05Z</time>
      </trkpt>
      <trkpt lat="51.735578030347824" lon="10.678255967795849">
        <ele>557.70000000000005</ele>
        <time>2017-05-22T07:02:08Z</time>
      </trkpt>
      <trkpt lat="51.735600996762514" lon="10.678202994167805">
        <ele>557.70000000000005</ele>
        <time>2017-05-22T07:02:09Z</time>
      </trkpt>
      <trkpt lat="51.735626980662346" lon="10.678161000832915">
        <ele>557.70000000000005</ele>
        <time>2017-05-22T07:02:10Z</time>
      </trkpt>
      <trkpt lat="51.735967034474015" lon="10.677707036957145">
        <ele>549.04999999999995</ele>
        <time>2017-05-22T07:02:15Z</time>
      </trkpt>
      <trkpt lat="51.736140958964825" lon="10.677537973970175">
        <ele>550.49000000000001</ele>
        <time>2017-05-22T07:02:17Z</time>
      </trkpt>
      <trkpt lat="51.736264005303383" lon="10.677492041140795">
        <ele>550.97000000000003</ele>
        <time>2017-05-22T07:02:18Z</time>
      </trkpt>
      <trkpt lat="51.736423010006547" lon="10.677458010613918">
        <ele>550.49000000000001</ele>
        <time>2017-05-22T07:02:19Z</time>
      </trkpt>
      <trkpt lat="51.73658000305295" lon="10.677426997572184">
        <ele>551.45000000000005</ele>
        <time>2017-05-22T07:02:20Z</time>
      </trkpt>
      <trkpt lat="51.73675199970603" lon="10.677407970651984">
        <ele>552.89999999999998</ele>
        <time>2017-05-22T07:02:21Z</time>
      </trkpt>
      <trkpt lat="51.738733984529972" lon="10.677259024232626">
        <ele>539.91999999999996</ele>
        <time>2017-05-22T07:02:32Z</time>
      </trkpt>
      <trkpt lat="51.739291967824101" lon="10.677217030897737">
        <ele>540.39999999999998</ele>
        <time>2017-05-22T07:02:37Z</time>
      </trkpt>
      <trkpt lat="51.739368997514248" lon="10.677237985655665">
        <ele>540.39999999999998</ele>
        <time>2017-05-22T07:02:38Z</time>
      </trkpt>
      <trkpt lat="51.739418031647801" lon="10.677298000082374">
        <ele>539.91999999999996</ele>
        <time>2017-05-22T07:02:39Z</time>
      </trkpt>
      <trkpt lat="51.73945801332593" lon="10.677396990358829">
        <ele>538.96000000000004</ele>
        <time>2017-05-22T07:02:40Z</time>
      </trkpt>
      <trkpt lat="51.739489026367664" lon="10.677536968141794">
        <ele>538.48000000000002</ele>
        <time>2017-05-22T07:02:41Z</time>
      </trkpt>
      <trkpt lat="51.739520961418748" lon="10.677716005593538">
        <ele>537.99000000000001</ele>
        <time>2017-05-22T07:02:42Z</time>
      </trkpt>
      <trkpt lat="51.739568989723921" lon="10.67791398614645">
        <ele>537.99000000000001</ele>
        <time>2017-05-22T07:02:43Z</time>
      </trkpt>
      <trkpt lat="51.739634033292532" lon="10.678119007498026">
        <ele>537.50999999999999</ele>
        <time>2017-05-22T07:02:44Z</time>
      </trkpt>
      <trkpt lat="51.739719025790691" lon="10.678326962515712">
        <ele>537.50999999999999</ele>
        <time>2017-05-22T07:02:45Z</time>
      </trkpt>
      <trkpt lat="51.73982497304678" lon="10.678539024665952">
        <ele>537.50999999999999</ele>
        <time>2017-05-22T07:02:46Z</time>
      </trkpt>
      <trkpt lat="51.739943996071815" lon="10.678747985512018">
        <ele>537.50999999999999</ele>
        <time>2017-05-22T07:02:47Z</time>
      </trkpt>
      <trkpt lat="51.740918979048729" lon="10.680711027234793">
        <ele>535.59000000000003</ele>
        <time>2017-05-22T07:02:55Z</time>
      </trkpt>
      <trkpt lat="51.741246040910482" lon="10.681719034910202">
        <ele>530.29999999999995</ele>
        <time>2017-05-22T07:02:59Z</time>
      </trkpt>
      <trkpt lat="51.741558015346527" lon="10.683137001469731">
        <ele>525.01999999999998</ele>
        <time>2017-05-22T07:03:07Z</time>
      </trkpt>
      <trkpt lat="51.741644013673067" lon="10.683417040854692">
        <ele>523.58000000000004</ele>
        <time>2017-05-22T07:03:09Z</time>
      </trkpt>
      <trkpt lat="51.741701010614634" lon="10.683555006980896">
        <ele>522.61000000000001</ele>
        <time>2017-05-22T07:03:10Z</time>
      </trkpt>
      <trkpt lat="51.741763958707452" lon="10.683686016127467">
        <ele>521.64999999999998</ele>
        <time>2017-05-22T07:03:11Z</time>
      </trkpt>
      <trkpt lat="51.741850040853024" lon="10.683732032775879">
        <ele>521.16999999999996</ele>
        <time>2017-05-22T07:03:12Z</time>
      </trkpt>
      <trkpt lat="51.741941990330815" lon="10.683749970048666">
        <ele>520.21000000000004</ele>
        <time>2017-05-22T07:03:13Z</time>
      </trkpt>
      <trkpt lat="51.742043998092413" lon="10.683730021119118">
        <ele>519.73000000000002</ele>
        <time>2017-05-22T07:03:14Z</time>
      </trkpt>
      <trkpt lat="51.742171989753842" lon="10.683681992813945">
        <ele>517.80999999999995</ele>
        <time>2017-05-22T07:03:15Z</time>
      </trkpt>
      <trkpt lat="51.742287995293736" lon="10.683621978387237">
        <ele>516.85000000000002</ele>
        <time>2017-05-22T07:03:16Z</time>
      </trkpt>
      <trkpt lat="51.742405006662011" lon="10.683543020859361">
        <ele>513.96000000000004</ele>
        <time>2017-05-22T07:03:17Z</time>
      </trkpt>
      <trkpt lat="51.742501985281706" lon="10.683460040017962">
        <ele>512.51999999999998</ele>
        <time>2017-05-22T07:03:18Z</time>
      </trkpt>
      <trkpt lat="51.743345037102699" lon="10.682482961565256">
        <ele>506.26999999999998</ele>
        <time>2017-05-22T07:03:27Z</time>
      </trkpt>
      <trkpt lat="51.74343204125762" lon="10.682385982945561">
        <ele>505.31</ele>
        <time>2017-05-22T07:03:28Z</time>
      </trkpt>
      <trkpt lat="51.74352197907865" lon="10.682335020974278">
        <ele>504.82999999999998</ele>
        <time>2017-05-22T07:03:29Z</time>
      </trkpt>
      <trkpt lat="51.74360697157681" lon="10.682300990447402">
        <ele>504.35000000000002</ele>
        <time>2017-05-22T07:03:30Z</time>
      </trkpt>
      <trkpt lat="51.743684001266956" lon="10.682285986840725">
        <ele>503.87</ele>
        <time>2017-05-22T07:03:31Z</time>
      </trkpt>
      <trkpt lat="51.743844011798501" lon="10.682300990447402">
        <ele>504.35000000000002</ele>
        <time>2017-05-22T07:03:33Z</time>
      </trkpt>
      <trkpt lat="51.743909977376461" lon="10.682367039844394">
        <ele>504.35000000000002</ele>
        <time>2017-05-22T07:03:34Z</time>
      </trkpt>
      <trkpt lat="51.74403796903789" lon="10.68246703594923">
        <ele>505.31</ele>
        <time>2017-05-22T07:03:35Z</time>
      </trkpt>
      <trkpt lat="51.74408096820116" lon="10.682602990418673">
        <ele>505.31</ele>
        <time>2017-05-22T07:03:36Z</time>
      </trkpt>
      <trkpt lat="51.744132013991475" lon="10.682753026485443">
        <ele>505.31</ele>
        <time>2017-05-22T07:03:37Z</time>
      </trkpt>
      <trkpt lat="51.744165038689971" lon="10.682916976511478">
        <ele>505.31</ele>
        <time>2017-05-22T07:03:38Z</time>
      </trkpt>
      <trkpt lat="51.744418004527688" lon="10.685097025707364">
        <ele>502.43000000000001</ele>
        <time>2017-05-22T07:03:50Z</time>
      </trkpt>
      <trkpt lat="51.744439965113997" lon="10.685896994546056">
        <ele>502.43000000000001</ele>
        <time>2017-05-22T07:03:56Z</time>
      </trkpt>
      <trkpt lat="51.744427978992462" lon="10.685964971780777">
        <ele>502.43000000000001</ele>
        <time>2017-05-22T07:03:57Z</time>
      </trkpt>
      <trkpt lat="51.744414987042546" lon="10.686002019792795">
        <ele>501.94999999999999</ele>
        <time>2017-05-22T07:03:58Z</time>
      </trkpt>
      <trkpt lat="51.744406018406153" lon="10.68603403866291">
        <ele>501.45999999999998</ele>
        <time>2017-05-22T07:03:59Z</time>
      </trkpt>
      <trkpt lat="51.74438196234405" lon="10.686064967885613">
        <ele>501.45999999999998</ele>
        <time>2017-05-22T07:04:00Z</time>
      </trkpt>
      <trkpt lat="51.744349021464586" lon="10.686095980927348">
        <ele>500.98000000000002</ele>
        <time>2017-05-22T07:04:01Z</time>
      </trkpt>
      <trkpt lat="51.744306022301316" lon="10.686140991747379">
        <ele>500.5</ele>
        <time>2017-05-22T07:04:02Z</time>
      </trkpt>
      <trkpt lat="51.744275009259582" lon="10.68620603531599">
        <ele>500.01999999999998</ele>
        <time>2017-05-22T07:04:03Z</time>
      </trkpt>
      <trkpt lat="51.744256988167763" lon="10.68629203364253">
        <ele>499.54000000000002</ele>
        <time>2017-05-22T07:04:04Z</time>
      </trkpt>
      <trkpt lat="51.744260005652905" lon="10.6863799598068">
        <ele>499.54000000000002</ele>
        <time>2017-05-22T07:04:05Z</time>
      </trkpt>
      <trkpt lat="51.744282972067595" lon="10.68646302446723">
        <ele>499.54000000000002</ele>
        <time>2017-05-22T07:04:06Z</time>
      </trkpt>
      <trkpt lat="51.744321025907993" lon="10.686532007530332">
        <ele>500.01999999999998</ele>
        <time>2017-05-22T07:04:07Z</time>
      </trkpt>
      <trkpt lat="51.744375005364418" lon="10.686568971723318">
        <ele>500.01999999999998</ele>
        <time>2017-05-22T07:04:08Z</time>
      </trkpt>
      <trkpt lat="51.744435019791126" lon="10.686585986986756">
        <ele>500.5</ele>
        <time>2017-05-22T07:04:09Z</time>
      </trkpt>
      <trkpt lat="51.744500985369086" lon="10.686612976714969">
        <ele>500.98000000000002</ele>
        <time>2017-05-22T07:04:10Z</time>
      </trkpt>
      <trkpt lat="51.744567034766078" lon="10.686664022505283">
        <ele>501.45999999999998</ele>
        <time>2017-05-22T07:04:11Z</time>
      </trkpt>
      <trkpt lat="51.744633000344038" lon="10.686745997518301">
        <ele>501.94999999999999</ele>
        <time>2017-05-22T07:04:12Z</time>
      </trkpt>
      <trkpt lat="51.74470198340714" lon="10.686852028593421">
        <ele>502.91000000000003</ele>
        <time>2017-05-22T07:04:13Z</time>
      </trkpt>
      <trkpt lat="51.745523996651173" lon="10.688435034826398">
        <ele>511.07999999999998</ele>
        <time>2017-05-22T07:04:25Z</time>
      </trkpt>
      <trkpt lat="51.745608989149332" lon="10.688554979860783">
        <ele>512.03999999999996</ele>
        <time>2017-05-22T07:04:26Z</time>
      </trkpt>
      <trkpt lat="51.745920963585377" lon="10.689152022823691">
        <ele>515.88</ele>
        <time>2017-05-22T07:04:32Z</time>
      </trkpt>
      <trkpt lat="51.746389009058475" lon="10.690100016072392">
        <ele>520.69000000000005</ele>
        <time>2017-05-22T07:04:39Z</time>
      </trkpt>
      <trkpt lat="51.74657198600471" lon="10.690371003001928">
        <ele>521.64999999999998</ele>
        <time>2017-05-22T07:04:41Z</time>
      </trkpt>
      <trkpt lat="51.746773989871144" lon="10.690619023516774">
        <ele>523.09000000000003</ele>
        <time>2017-05-22T07:04:43Z</time>
      </trkpt>
      <trkpt lat="51.746886977925897" lon="10.690695969387889">
        <ele>523.58000000000004</ele>
        <time>2017-05-22T07:04:44Z</time>
      </trkpt>
      <trkpt lat="51.747010024264455" lon="10.69074098020792">
        <ele>525.01999999999998</ele>
        <time>2017-05-22T07:04:45Z</time>
      </trkpt>
      <trkpt lat="51.747145978733897" lon="10.690751960501075">
        <ele>525.5</ele>
        <time>2017-05-22T07:04:46Z</time>
      </trkpt>
      <trkpt lat="51.747273970395327" lon="10.690737040713429">
        <ele>525.98000000000002</ele>
        <time>2017-05-22T07:04:47Z</time>
      </trkpt>
      <trkpt lat="51.747396010905504" lon="10.690689012408257">
        <ele>526.46000000000004</ele>
        <time>2017-05-22T07:04:48Z</time>
      </trkpt>
      <trkpt lat="51.747522996738553" lon="10.690585998818278">
        <ele>526.94000000000005</ele>
        <time>2017-05-22T07:04:49Z</time>
      </trkpt>
      <trkpt lat="51.74764403142035" lon="10.690459012985229">
        <ele>527.89999999999998</ele>
        <time>2017-05-22T07:04:50Z</time>
      </trkpt>
      <trkpt lat="51.747746039181948" lon="10.690295984968543">
        <ele>528.38</ele>
        <time>2017-05-22T07:04:51Z</time>
      </trkpt>
      <trkpt lat="51.747827008366585" lon="10.690114013850689">
        <ele>529.34000000000003</ele>
        <time>2017-05-22T07:04:52Z</time>
      </trkpt>
      <trkpt lat="51.74790496006608" lon="10.689907986670732">
        <ele>530.29999999999995</ele>
        <time>2017-05-22T07:04:53Z</time>
      </trkpt>
      <trkpt lat="51.74816002137959" lon="10.689269034191966">
        <ele>532.23000000000002</ele>
        <time>2017-05-22T07:04:56Z</time>
      </trkpt>
      <trkpt lat="51.748266974464059" lon="10.689067030325532">
        <ele>533.19000000000005</ele>
        <time>2017-05-22T07:04:57Z</time>
      </trkpt>
      <trkpt lat="51.748385997489095" lon="10.688888998702168">
        <ele>534.14999999999998</ele>
        <time>2017-05-22T07:04:58Z</time>
      </trkpt>
      <trkpt lat="51.748514994978905" lon="10.688730999827385">
        <ele>534.63</ele>
        <time>2017-05-22T07:04:59Z</time>
      </trkpt>
      <trkpt lat="51.748648015782237" lon="10.688578030094504">
        <ele>535.59000000000003</ele>
        <time>2017-05-22T07:05:00Z</time>
      </trkpt>
      <trkpt lat="51.748780030757189" lon="10.688413996249437">
        <ele>536.07000000000005</ele>
        <time>2017-05-22T07:05:01Z</time>
      </trkpt>
      <trkpt lat="51.749480003491044" lon="10.687287971377373">
        <ele>542.79999999999995</ele>
        <time>2017-05-22T07:05:06Z</time>
      </trkpt>
      <trkpt lat="51.749904965981841" lon="10.686575006693602">
        <ele>548.09000000000003</ele>
        <time>2017-05-22T07:05:09Z</time>
      </trkpt>
      <trkpt lat="51.750707030296326" lon="10.683910986408591">
        <ele>560.11000000000001</ele>
        <time>2017-05-22T07:05:17Z</time>
      </trkpt>
      <trkpt lat="51.751139033585787" lon="10.682063028216362">
        <ele>566.83000000000004</ele>
        <time>2017-05-22T07:05:23Z</time>
      </trkpt>
      <trkpt lat="51.75116702914238" lon="10.681836968287826">
        <ele>568.27999999999997</ele>
        <time>2017-05-22T07:05:24Z</time>
      </trkpt>
      <trkpt lat="51.751181026920676" lon="10.681644016876817">
        <ele>570.20000000000005</ele>
        <time>2017-05-22T07:05:25Z</time>
      </trkpt>
      <trkpt lat="51.75129703246057" lon="10.681101959198713">
        <ele>572.60000000000002</ele>
        <time>2017-05-22T07:05:28Z</time>
      </trkpt>
      <trkpt lat="51.751397028565407" lon="10.680949995294213">
        <ele>573.55999999999995</ele>
        <time>2017-05-22T07:05:29Z</time>
      </trkpt>
      <trkpt lat="51.751509010791779" lon="10.680830972269177">
        <ele>574.52999999999997</ele>
        <time>2017-05-22T07:05:30Z</time>
      </trkpt>
      <trkpt lat="51.751631973311305" lon="10.680744973942637">
        <ele>576.45000000000005</ele>
        <time>2017-05-22T07:05:31Z</time>
      </trkpt>
      <trkpt lat="51.751763988286257" lon="10.680712033063173">
        <ele>577.88999999999999</ele>
        <time>2017-05-22T07:05:32Z</time>
      </trkpt>
      <trkpt lat="51.751897009089589" lon="10.680751008912921">
        <ele>579.33000000000004</ele>
        <time>2017-05-22T07:05:33Z</time>
      </trkpt>
      <trkpt lat="51.752061964944005" lon="10.680853016674519">
        <ele>579.80999999999995</ele>
        <time>2017-05-22T07:05:34Z</time>
      </trkpt>
      <trkpt lat="51.752194985747337" lon="10.681004980579019">
        <ele>580.76999999999998</ele>
        <time>2017-05-22T07:05:35Z</time>
      </trkpt>
      <trkpt lat="51.752315014600754" lon="10.68117898888886">
        <ele>582.22000000000003</ele>
        <time>2017-05-22T07:05:36Z</time>
      </trkpt>
      <trkpt lat="51.75243403762579" lon="10.681379986926913">
        <ele>583.65999999999997</ele>
        <time>2017-05-22T07:05:37Z</time>
      </trkpt>
      <trkpt lat="51.752548031508923" lon="10.681596994400024">
        <ele>584.62</ele>
        <time>2017-05-22T07:05:38Z</time>
      </trkpt>
      <trkpt lat="51.753118000924587" lon="10.682663004845381">
        <ele>591.83000000000004</ele>
        <time>2017-05-22T07:05:43Z</time>
      </trkpt>
      <trkpt lat="51.753597026690841" lon="10.683364989235997">
        <ele>598.55999999999995</ele>
        <time>2017-05-22T07:05:47Z</time>
      </trkpt>
      <trkpt lat="51.75372401252389" lon="10.683463979512453">
        <ele>599.51999999999998</ele>
        <time>2017-05-22T07:05:48Z</time>
      </trkpt>
      <trkpt lat="51.753856027498841" lon="10.683597000315785">
        <ele>600</ele>
        <time>2017-05-22T07:05:49Z</time>
      </trkpt>
      <trkpt lat="51.754185017198324" lon="10.683810990303755">
        <ele>600.96000000000004</ele>
        <time>2017-05-22T07:05:51Z</time>
      </trkpt>
      <trkpt lat="51.754331029951572" lon="10.683969995006919">
        <ele>601.44000000000005</ele>
        <time>2017-05-22T07:05:52Z</time>
      </trkpt>
      <trkpt lat="51.75503502599895" lon="10.684889992699027">
        <ele>606.25</ele>
        <time>2017-05-22T07:05:57Z</time>
      </trkpt>
      <trkpt lat="51.755177015438676" lon="10.685002980753779">
        <ele>607.21000000000004</ele>
        <time>2017-05-22T07:05:58Z</time>
      </trkpt>
      <trkpt lat="51.755341971293092" lon="10.685069030150771">
        <ele>607.21000000000004</ele>
        <time>2017-05-22T07:05:59Z</time>
      </trkpt>
      <trkpt lat="51.755502987653017" lon="10.685088979080319">
        <ele>607.69000000000005</ele>
        <time>2017-05-22T07:06:00Z</time>
      </trkpt>
      <trkpt lat="51.755654029548168" lon="10.685026030987501">
        <ele>608.64999999999998</ele>
        <time>2017-05-22T07:06:01Z</time>
      </trkpt>
      <trkpt lat="51.755805993452668" lon="10.684953024610877">
        <ele>608.64999999999998</ele>
        <time>2017-05-22T07:06:02Z</time>
      </trkpt>
      <trkpt lat="51.755943037569523" lon="10.684851016849279">
        <ele>609.13</ele>
        <time>2017-05-22T07:06:03Z</time>
      </trkpt>
      <trkpt lat="51.756092989817262" lon="10.684740962460637">
        <ele>608.64999999999998</ele>
        <time>2017-05-22T07:06:04Z</time>
      </trkpt>
      <trkpt lat="51.756479982286692" lon="10.68437903188169">
        <ele>610.09000000000003</ele>
        <time>2017-05-22T07:06:07Z</time>
      </trkpt>
      <trkpt lat="51.756738983094692" lon="10.684159006923437">
        <ele>614.89999999999998</ele>
        <time>2017-05-22T07:06:11Z</time>
      </trkpt>
      <trkpt lat="51.75677603110671" lon="10.684173004701734">
        <ele>615.86000000000001</ele>
        <time>2017-05-22T07:06:12Z</time>
      </trkpt>
      <trkpt lat="51.75681903026998" lon="10.684193037450314">
        <ele>616.82000000000005</ele>
        <time>2017-05-22T07:06:13Z</time>
      </trkpt>
      <trkpt lat="51.756844008341432" lon="10.684226984158158">
        <ele>616.34000000000003</ele>
        <time>2017-05-22T07:06:14Z</time>
      </trkpt>
      <trkpt lat="51.756920032203197" lon="10.684264032170177">
        <ele>620.19000000000005</ele>
        <time>2017-05-22T07:06:16Z</time>
      </trkpt>
      <trkpt lat="51.756938975304365" lon="10.684251040220261">
        <ele>620.66999999999996</ele>
        <time>2017-05-22T07:06:17Z</time>
      </trkpt>
      <trkpt lat="51.75699102692306" lon="10.684234024956822">
        <ele>623.54999999999995</ele>
        <time>2017-05-22T07:06:18Z</time>
      </trkpt>
      <trkpt lat="51.757032014429569" lon="10.684179039672017">
        <ele>624.02999999999997</ele>
        <time>2017-05-22T07:06:19Z</time>
      </trkpt>
      <trkpt lat="51.757067972794175" lon="10.684105027467012">
        <ele>624.99000000000001</ele>
        <time>2017-05-22T07:06:20Z</time>
      </trkpt>
      <trkpt lat="51.757104014977813" lon="10.684019029140472">
        <ele>625.47000000000003</ele>
        <time>2017-05-22T07:06:21Z</time>
      </trkpt>
      <trkpt lat="51.757189007475972" lon="10.683828005567193">
        <ele>626.44000000000005</ele>
        <time>2017-05-22T07:06:23Z</time>
      </trkpt>
      <trkpt lat="51.75746401771903" lon="10.683373035863042">
        <ele>626.44000000000005</ele>
        <time>2017-05-22T07:06:27Z</time>
      </trkpt>
      <trkpt lat="51.758321989327669" lon="10.68221096880734">
        <ele>622.59000000000003</ele>
        <time>2017-05-22T07:06:35Z</time>
      </trkpt>
      <trkpt lat="51.759370984509587" lon="10.681053008884192">
        <ele>620.66999999999996</ele>
        <time>2017-05-22T07:06:42Z</time>
      </trkpt>
      <trkpt lat="51.760590970516205" lon="10.678423019126058">
        <ele>618.25999999999999</ele>
        <time>2017-05-22T07:06:52Z</time>
      </trkpt>
      <trkpt lat="51.761408960446715" lon="10.676126964390278">
        <ele>615.86000000000001</ele>
        <time>2017-05-22T07:07:01Z</time>
      </trkpt>
      <trkpt lat="51.761876000091434" lon="10.675122980028391">
        <ele>612.01999999999998</ele>
        <time>2017-05-22T07:07:08Z</time>
      </trkpt>
      <trkpt lat="51.761954035609961" lon="10.67492701113224">
        <ele>611.53999999999996</ele>
        <time>2017-05-22T07:07:10Z</time>
      </trkpt>
      <trkpt lat="51.761997034773231" lon="10.674832966178656">
        <ele>611.53999999999996</ele>
        <time>2017-05-22T07:07:11Z</time>
      </trkpt>
      <trkpt lat="51.762338010594249" lon="10.673936018720269">
        <ele>609.61000000000001</ele>
        <time>2017-05-22T07:07:21Z</time>
      </trkpt>
      <trkpt lat="51.762489974498749" lon="10.673604011535645">
        <ele>608.16999999999996</ele>
        <time>2017-05-22T07:07:24Z</time>
      </trkpt>
      <trkpt lat="51.763163963332772" lon="10.672059981152415">
        <ele>610.09000000000003</ele>
        <time>2017-05-22T07:07:34Z</time>
      </trkpt>
      <trkpt lat="51.763511979952455" lon="10.671350033953786">
        <ele>610.57000000000005</ele>
        <time>2017-05-22T07:07:38Z</time>
      </trkpt>
      <trkpt lat="51.763936020433903" lon="10.670536989346147">
        <ele>612.98000000000002</ele>
        <time>2017-05-22T07:07:43Z</time>
      </trkpt>
      <trkpt lat="51.763987988233566" lon="10.670352000743151">
        <ele>612.98000000000002</ele>
        <time>2017-05-22T07:07:44Z</time>
      </trkpt>
      <trkpt lat="51.764015983790159" lon="10.670145973563194">
        <ele>612.5</ele>
        <time>2017-05-22T07:07:45Z</time>
      </trkpt>
      <trkpt lat="51.764030987396836" lon="10.669922009110451">
        <ele>612.5</ele>
        <time>2017-05-22T07:07:46Z</time>
      </trkpt>
      <trkpt lat="51.764035010710359" lon="10.669693015515804">
        <ele>612.5</ele>
        <time>2017-05-22T07:07:47Z</time>
      </trkpt>
      <trkpt lat="51.764155961573124" lon="10.668357023969293">
        <ele>614.41999999999996</ele>
        <time>2017-05-22T07:07:53Z</time>
      </trkpt>
      <trkpt lat="51.764201978221536" lon="10.668196007609367">
        <ele>614.89999999999998</ele>
        <time>2017-05-22T07:07:54Z</time>
      </trkpt>
      <trkpt lat="51.764249000698328" lon="10.6680319737643">
        <ele>616.34000000000003</ele>
        <time>2017-05-22T07:07:55Z</time>
      </trkpt>
      <trkpt lat="51.764439018443227" lon="10.667740032076836">
        <ele>617.77999999999997</ele>
        <time>2017-05-22T07:07:58Z</time>
      </trkpt>
      <trkpt lat="51.764512024819851" lon="10.667610028758645">
        <ele>617.29999999999995</ele>
        <time>2017-05-22T07:07:59Z</time>
      </trkpt>
      <trkpt lat="51.764548989012837" lon="10.667469967156649">
        <ele>616.82000000000005</ele>
        <time>2017-05-22T07:08:00Z</time>
      </trkpt>
      <trkpt lat="51.764580002054572" lon="10.667323032394052">
        <ele>615.86000000000001</ele>
        <time>2017-05-22T07:08:01Z</time>
      </trkpt>
      <trkpt lat="51.764602968469262" lon="10.667178025469184">
        <ele>615.86000000000001</ele>
        <time>2017-05-22T07:08:02Z</time>
      </trkpt>
      <trkpt lat="51.764653008431196" lon="10.666404040530324">
        <ele>613.46000000000004</ele>
        <time>2017-05-22T07:08:08Z</time>
      </trkpt>
      <trkpt lat="51.764644039794803" lon="10.66626800224185">
        <ele>613.46000000000004</ele>
        <time>2017-05-22T07:08:09Z</time>
      </trkpt>
      <trkpt lat="51.764621995389462" lon="10.666127018630505">
        <ele>613.46000000000004</ele>
        <time>2017-05-22T07:08:10Z</time>
      </trkpt>
      <trkpt lat="51.764600034803152" lon="10.666003972291946">
        <ele>613.94000000000005</ele>
        <time>2017-05-22T07:08:11Z</time>
      </trkpt>
      <trkpt lat="51.764569021761417" lon="10.665887966752052">
        <ele>613.94000000000005</ele>
        <time>2017-05-22T07:08:12Z</time>
      </trkpt>
      <trkpt lat="51.764538008719683" lon="10.66579501144588">
        <ele>613.46000000000004</ele>
        <time>2017-05-22T07:08:13Z</time>
      </trkpt>
      <trkpt lat="51.764501966536045" lon="10.665716975927353">
        <ele>613.46000000000004</ele>
        <time>2017-05-22T07:08:14Z</time>
      </trkpt>
      <trkpt lat="51.764457961544394" lon="10.665647992864251">
        <ele>614.41999999999996</ele>
        <time>2017-05-22T07:08:15Z</time>
      </trkpt>
      <trkpt lat="51.764216981828213" lon="10.665224036201835">
        <ele>615.38</ele>
        <time>2017-05-22T07:08:20Z</time>
      </trkpt>
      <trkpt lat="51.764195021241903" lon="10.665099984034896">
        <ele>615.86000000000001</ele>
        <time>2017-05-22T07:08:21Z</time>
      </trkpt>
      <trkpt lat="51.764202984049916" lon="10.664573013782501">
        <ele>615.38</ele>
        <time>2017-05-22T07:08:25Z</time>
      </trkpt>
      <trkpt lat="51.764222010970116" lon="10.664435969665647">
        <ele>615.38</ele>
        <time>2017-05-22T07:08:26Z</time>
      </trkpt>
      <trkpt lat="51.764332987368107" lon="10.663899024948478">
        <ele>616.34000000000003</ele>
        <time>2017-05-22T07:08:30Z</time>
      </trkpt>
      <trkpt lat="51.764347990974784" lon="10.663770027458668">
        <ele>615.86000000000001</ele>
        <time>2017-05-22T07:08:31Z</time>
      </trkpt>
      <trkpt lat="51.764376992359757" lon="10.663010962307453">
        <ele>618.25999999999999</ele>
        <time>2017-05-22T07:08:37Z</time>
      </trkpt>
      <trkpt lat="51.764397025108337" lon="10.662663029506803">
        <ele>619.23000000000002</ele>
        <time>2017-05-22T07:08:40Z</time>
      </trkpt>
      <trkpt lat="51.764588970690966" lon="10.661121010780334">
        <ele>619.23000000000002</ele>
        <time>2017-05-22T07:08:54Z</time>
      </trkpt>
      <trkpt lat="51.765105966478586" lon="10.658346014097333">
        <ele>619.23000000000002</ele>
        <time>2017-05-22T07:09:18Z</time>
      </trkpt>
      <trkpt lat="51.765234963968396" lon="10.656754039227962">
        <ele>619.23000000000002</ele>
        <time>2017-05-22T07:09:31Z</time>
      </trkpt>
      <trkpt lat="51.76526396535337" lon="10.656658988445997">
        <ele>619.23000000000002</ele>
        <time>2017-05-22T07:09:32Z</time>
      </trkpt>
      <trkpt lat="51.765302019193769" lon="10.656558992341161">
        <ele>619.23000000000002</ele>
        <time>2017-05-22T07:09:33Z</time>
      </trkpt>
      <trkpt lat="51.765345018357038" lon="10.65647098235786">
        <ele>619.23000000000002</ele>
        <time>2017-05-22T07:09:34Z</time>
      </trkpt>
      <trkpt lat="51.765394974499941" lon="10.656383978202939">
        <ele>619.23000000000002</ele>
        <time>2017-05-22T07:09:35Z</time>
      </trkpt>
      <trkpt lat="51.765804011374712" lon="10.655431961640716">
        <ele>620.19000000000005</ele>
        <time>2017-05-22T07:09:45Z</time>
      </trkpt>
      <trkpt lat="51.765852961689234" lon="10.655342023819685">
        <ele>620.66999999999996</ele>
        <time>2017-05-22T07:09:46Z</time>
      </trkpt>
      <trkpt lat="51.766626024618745" lon="10.654112985357642">
        <ele>622.59000000000003</ele>
        <time>2017-05-22T07:10:01Z</time>
      </trkpt>
      <trkpt lat="51.767255002632737" lon="10.653314022347331">
        <ele>624.02999999999997</ele>
        <time>2017-05-22T07:10:14Z</time>
      </trkpt>
      <trkpt lat="51.767780967056751" lon="10.652572978287935">
        <ele>625.96000000000004</ele>
        <time>2017-05-22T07:10:25Z</time>
      </trkpt>
      <trkpt lat="51.768073998391628" lon="10.652037961408496">
        <ele>626.44000000000005</ele>
        <time>2017-05-22T07:10:33Z</time>
      </trkpt>
      <trkpt lat="51.768111968412995" lon="10.651985993608832">
        <ele>626.91999999999996</ele>
        <time>2017-05-22T07:10:34Z</time>
      </trkpt>
      <trkpt lat="51.768154967576265" lon="10.651936959475279">
        <ele>626.44000000000005</ele>
        <time>2017-05-22T07:10:35Z</time>
      </trkpt>
      <trkpt lat="51.768925013020635" lon="10.651436978951097">
        <ele>627.39999999999998</ele>
        <time>2017-05-22T07:10:46Z</time>
      </trkpt>
      <trkpt lat="51.769589027389884" lon="10.650609014555812">
        <ele>631.24000000000001</ele>
        <time>2017-05-22T07:10:56Z</time>
      </trkpt>
      <trkpt lat="51.769744008779526" lon="10.650441041216254">
        <ele>631.72000000000003</ele>
        <time>2017-05-22T07:10:59Z</time>
      </trkpt>
      <trkpt lat="51.769936038181186" lon="10.650322018191218">
        <ele>631.72000000000003</ele>
        <time>2017-05-22T07:11:05Z</time>
      </trkpt>
      <trkpt lat="51.770066041499376" lon="10.650267032906413">
        <ele>631.24000000000001</ele>
        <time>2017-05-22T07:11:08Z</time>
      </trkpt>
      <trkpt lat="51.77016201429069" lon="10.65021799877286">
        <ele>631.24000000000001</ele>
        <time>2017-05-22T07:11:10Z</time>
      </trkpt>
      <trkpt lat="51.770203001797199" lon="10.650172987952828">
        <ele>631.24000000000001</ele>
        <time>2017-05-22T07:11:11Z</time>
      </trkpt>
      <trkpt lat="51.770771965384483" lon="10.649688011035323">
        <ele>634.13</ele>
        <time>2017-05-22T07:11:21Z</time>
      </trkpt>
      <trkpt lat="51.771535975858569" lon="10.649061966687441">
        <ele>638.92999999999995</ele>
        <time>2017-05-22T07:11:32Z</time>
      </trkpt>
      <trkpt lat="51.771628009155393" lon="10.648893993347883">
        <ele>637.97000000000003</ele>
        <time>2017-05-22T07:11:34Z</time>
      </trkpt>
      <trkpt lat="51.77168601192534" lon="10.648717973381281">
        <ele>637.49000000000001</ele>
        <time>2017-05-22T07:11:36Z</time>
      </trkpt>
      <trkpt lat="51.771810986101627" lon="10.648444974794984">
        <ele>638.92999999999995</ele>
        <time>2017-05-22T07:11:39Z</time>
      </trkpt>
      <trkpt lat="51.77217903546989" lon="10.647676018998027">
        <ele>642.29999999999995</ele>
        <time>2017-05-22T07:11:48Z</time>
      </trkpt>
      <trkpt lat="51.772206025198102" lon="10.64761902205646">
        <ele>642.77999999999997</ele>
        <time>2017-05-22T07:11:49Z</time>
      </trkpt>
      <trkpt lat="51.772274002432823" lon="10.647431015968323">
        <ele>644.22000000000003</ele>
        <time>2017-05-22T07:11:57Z</time>
      </trkpt>
      <trkpt lat="51.77224600687623" lon="10.647417018190026">
        <ele>644.22000000000003</ele>
        <time>2017-05-22T07:12:00Z</time>
      </trkpt>
      <trkpt lat="51.772232009097934" lon="10.6474269926548">
        <ele>644.70000000000005</ele>
        <time>2017-05-22T07:12:01Z</time>
      </trkpt>
      <trkpt lat="51.772217005491257" lon="10.647446019575">
        <ele>645.17999999999995</ele>
        <time>2017-05-22T07:12:02Z</time>
      </trkpt>
      <trkpt lat="51.772204013541341" lon="10.647488012909889">
        <ele>644.70000000000005</ele>
        <time>2017-05-22T07:12:03Z</time>
      </trkpt>
      <trkpt lat="51.772189009934664" lon="10.647545009851456">
        <ele>644.70000000000005</ele>
        <time>2017-05-22T07:12:04Z</time>
      </trkpt>
      <trkpt lat="51.772140981629491" lon="10.647679958492517">
        <ele>644.22000000000003</ele>
        <time>2017-05-22T07:12:06Z</time>
      </trkpt>
      <trkpt lat="51.772108040750027" lon="10.647752964869142">
        <ele>644.22000000000003</ele>
        <time>2017-05-22T07:12:07Z</time>
      </trkpt>
      <trkpt lat="51.77207300439477" lon="10.64783401787281">
        <ele>644.22000000000003</ele>
        <time>2017-05-22T07:12:08Z</time>
      </trkpt>
      <trkpt lat="51.771454000845551" lon="10.649085016921163">
        <ele>639.40999999999997</ele>
        <time>2017-05-22T07:12:22Z</time>
      </trkpt>
      <trkpt lat="51.771355010569096" lon="10.649236980825663">
        <ele>638.92999999999995</ele>
        <time>2017-05-22T07:12:24Z</time>
      </trkpt>
      <trkpt lat="51.770511036738753" lon="10.649999985471368">
        <ele>634.61000000000001</ele>
        <time>2017-05-22T07:12:36Z</time>
      </trkpt>
      <trkpt lat="51.770238038152456" lon="10.650245994329453">
        <ele>633.16999999999996</ele>
        <time>2017-05-22T07:12:40Z</time>
      </trkpt>
      <trkpt lat="51.770045002922416" lon="10.650366023182869">
        <ele>632.20000000000005</ele>
        <time>2017-05-22T07:12:43Z</time>
      </trkpt>
      <trkpt lat="51.769790025427938" lon="10.650468030944467">
        <ele>631.24000000000001</ele>
        <time>2017-05-22T07:12:47Z</time>
      </trkpt>
      <trkpt lat="51.769479978829622" lon="10.65077799372375">
        <ele>628.36000000000001</ele>
        <time>2017-05-22T07:12:52Z</time>
      </trkpt>
      <trkpt lat="51.76904303021729" lon="10.651342011988163">
        <ele>626.44000000000005</ele>
        <time>2017-05-22T07:12:59Z</time>
      </trkpt>
      <trkpt lat="51.768986033275723" lon="10.651398003101349">
        <ele>625.47000000000003</ele>
        <time>2017-05-22T07:13:00Z</time>
      </trkpt>
      <trkpt lat="51.768918978050351" lon="10.651447959244251">
        <ele>624.50999999999999</ele>
        <time>2017-05-22T07:13:01Z</time>
      </trkpt>
      <trkpt lat="51.768023036420345" lon="10.652003008872271">
        <ele>622.11000000000001</ele>
        <time>2017-05-22T07:13:13Z</time>
      </trkpt>
      <trkpt lat="51.767960004508495" lon="10.652078026905656">
        <ele>622.11000000000001</ele>
        <time>2017-05-22T07:13:14Z</time>
      </trkpt>
      <trkpt lat="51.767904013395309" lon="10.652166036888957">
        <ele>621.63</ele>
        <time>2017-05-22T07:13:15Z</time>
      </trkpt>
      <trkpt lat="51.767852967604995" lon="10.652262009680271">
        <ele>621.63</ele>
        <time>2017-05-22T07:13:16Z</time>
      </trkpt>
      <trkpt lat="51.767807034775615" lon="10.652354964986444">
        <ele>621.14999999999998</ele>
        <time>2017-05-22T07:13:17Z</time>
      </trkpt>
      <trkpt lat="51.767759006470442" lon="10.652451021596789">
        <ele>622.11000000000001</ele>
        <time>2017-05-22T07:13:18Z</time>
      </trkpt>
      <trkpt lat="51.76766999065876" lon="10.652641961351037">
        <ele>621.63</ele>
        <time>2017-05-22T07:13:20Z</time>
      </trkpt>
      <trkpt lat="51.767308982089162" lon="10.653187958523631">
        <ele>620.19000000000005</ele>
        <time>2017-05-22T07:13:27Z</time>
      </trkpt>
      <trkpt lat="51.766830962151289" lon="10.653792964294553">
        <ele>620.19000000000005</ele>
        <time>2017-05-22T07:13:37Z</time>
      </trkpt>
      <trkpt lat="51.766427960246801" lon="10.65440802834928">
        <ele>616.34000000000003</ele>
        <time>2017-05-22T07:13:47Z</time>
      </trkpt>
      <trkpt lat="51.765798982232809" lon="10.655391979962587">
        <ele>616.82000000000005</ele>
        <time>2017-05-22T07:14:02Z</time>
      </trkpt>
      <trkpt lat="51.7657579947263" lon="10.655464986339211">
        <ele>617.29999999999995</ele>
        <time>2017-05-22T07:14:03Z</time>
      </trkpt>
      <trkpt lat="51.76521903835237" lon="10.656662005931139">
        <ele>614.89999999999998</ele>
        <time>2017-05-22T07:14:20Z</time>
      </trkpt>
      <trkpt lat="51.765190958976746" lon="10.656721014529467">
        <ele>614.89999999999998</ele>
        <time>2017-05-22T07:14:21Z</time>
      </trkpt>
      <trkpt lat="51.765170004218817" lon="10.656788991764188">
        <ele>614.41999999999996</ele>
        <time>2017-05-22T07:14:22Z</time>
      </trkpt>
      <trkpt lat="51.765152988955379" lon="10.656859986484051">
        <ele>614.89999999999998</ele>
        <time>2017-05-22T07:14:23Z</time>
      </trkpt>
      <trkpt lat="51.765143014490604" lon="10.656929975375533">
        <ele>614.89999999999998</ele>
        <time>2017-05-22T07:14:24Z</time>
      </trkpt>
      <trkpt lat="51.76513597369194" lon="10.657000970095396">
        <ele>614.89999999999998</ele>
        <time>2017-05-22T07:14:25Z</time>
      </trkpt>
      <trkpt lat="51.765133962035179" lon="10.657067019492388">
        <ele>613.94000000000005</ele>
        <time>2017-05-22T07:14:26Z</time>
      </trkpt>
      <trkpt lat="51.765047963708639" lon="10.658222967758775">
        <ele>615.86000000000001</ele>
        <time>2017-05-22T07:14:37Z</time>
      </trkpt>
      <trkpt lat="51.764792986214161" lon="10.659592989832163">
        <ele>615.86000000000001</ele>
        <time>2017-05-22T07:14:50Z</time>
      </trkpt>
      <trkpt lat="51.764542032033205" lon="10.660930993035436">
        <ele>615.38</ele>
        <time>2017-05-22T07:15:05Z</time>
      </trkpt>
      <trkpt lat="51.764315972104669" lon="10.662059029564261">
        <ele>616.34000000000003</ele>
        <time>2017-05-22T07:15:17Z</time>
      </trkpt>
      <trkpt lat="51.764312032610178" lon="10.662151984870434">
        <ele>615.38</ele>
        <time>2017-05-22T07:15:18Z</time>
      </trkpt>
      <trkpt lat="51.764283031225204" lon="10.663297958672047">
        <ele>615.38</ele>
        <time>2017-05-22T07:15:29Z</time>
      </trkpt>
      <trkpt lat="51.76425302401185" lon="10.663951998576522">
        <ele>613.46000000000004</ele>
        <time>2017-05-22T07:15:35Z</time>
      </trkpt>
      <trkpt lat="51.764241959899664" lon="10.664043026044965">
        <ele>613.46000000000004</ele>
        <time>2017-05-22T07:15:36Z</time>
      </trkpt>
      <trkpt lat="51.764182029291987" lon="10.664577037096024">
        <ele>612.01999999999998</ele>
        <time>2017-05-22T07:15:42Z</time>
      </trkpt>
      <trkpt lat="51.764168031513691" lon="10.664658006280661">
        <ele>612.01999999999998</ele>
        <time>2017-05-22T07:15:43Z</time>
      </trkpt>
      <trkpt lat="51.764159984886646" lon="10.664823967963457">
        <ele>611.53999999999996</ele>
        <time>2017-05-22T07:15:45Z</time>
      </trkpt>
      <trkpt lat="51.764170965179801" lon="10.664979033172131">
        <ele>610.57000000000005</ele>
        <time>2017-05-22T07:15:47Z</time>
      </trkpt>
      <trkpt lat="51.764293005689979" lon="10.665521007031202">
        <ele>612.98000000000002</ele>
        <time>2017-05-22T07:15:58Z</time>
      </trkpt>
      <trkpt lat="51.764350002631545" lon="10.665624020621181">
        <ele>612.5</ele>
        <time>2017-05-22T07:16:02Z</time>
      </trkpt>
      <trkpt lat="51.764366012066603" lon="10.665613962337375">
        <ele>612.01999999999998</ele>
        <time>2017-05-22T07:16:03Z</time>
      </trkpt>
      <trkpt lat="51.764400964602828" lon="10.665576998144388">
        <ele>611.53999999999996</ele>
        <time>2017-05-22T07:16:04Z</time>
      </trkpt>
      <trkpt lat="51.764412028715014" lon="10.665550008416176">
        <ele>611.53999999999996</ele>
        <time>2017-05-22T07:16:05Z</time>
      </trkpt>
      <trkpt lat="51.764427032321692" lon="10.665527964010835">
        <ele>611.53999999999996</ele>
        <time>2017-05-22T07:16:06Z</time>
      </trkpt>
      <trkpt lat="51.764498027041554" lon="10.665440959855914">
        <ele>611.05999999999995</ele>
        <time>2017-05-22T07:16:21Z</time>
      </trkpt>
      <trkpt lat="51.764556029811502" lon="10.665350016206503">
        <ele>612.5</ele>
        <time>2017-05-22T07:16:34Z</time>
      </trkpt>
      <trkpt lat="51.764546977356076" lon="10.665354961529374">
        <ele>612.98000000000002</ele>
        <time>2017-05-22T07:16:35Z</time>
      </trkpt>
      <trkpt lat="51.764530967921019" lon="10.665382035076618">
        <ele>613.46000000000004</ele>
        <time>2017-05-22T07:16:36Z</time>
      </trkpt>
      <trkpt lat="51.764469025656581" lon="10.665561994537711">
        <ele>612.98000000000002</ele>
        <time>2017-05-22T07:16:40Z</time>
      </trkpt>
      <trkpt lat="51.764470031484962" lon="10.665617985650897">
        <ele>613.46000000000004</ele>
        <time>2017-05-22T07:16:41Z</time>
      </trkpt>
      <trkpt lat="51.764484029263258" lon="10.665681017562747">
        <ele>612.5</ele>
        <time>2017-05-22T07:16:42Z</time>
      </trkpt>
      <trkpt lat="51.764506995677948" lon="10.665765004232526">
        <ele>612.01999999999998</ele>
        <time>2017-05-22T07:16:43Z</time>
      </trkpt>
      <trkpt lat="51.764531973749399" lon="10.665859971195459">
        <ele>612.01999999999998</ele>
        <time>2017-05-22T07:16:44Z</time>
      </trkpt>
      <trkpt lat="51.76457597874105" lon="10.66609701141715">
        <ele>612.98000000000002</ele>
        <time>2017-05-22T07:16:46Z</time>
      </trkpt>
      <trkpt lat="51.764593999832869" lon="10.66624503582716">
        <ele>612.98000000000002</ele>
        <time>2017-05-22T07:16:47Z</time>
      </trkpt>
      <trkpt lat="51.764603974297643" lon="10.666412003338337">
        <ele>612.5</ele>
        <time>2017-05-22T07:16:48Z</time>
      </trkpt>
      <trkpt lat="51.764604980126023" lon="10.666577965021133">
        <ele>612.5</ele>
        <time>2017-05-22T07:16:49Z</time>
      </trkpt>
      <trkpt lat="51.764595005661249" lon="10.666754990816116">
        <ele>612.5</ele>
        <time>2017-05-22T07:16:50Z</time>
      </trkpt>
      <trkpt lat="51.764580002054572" lon="10.66693402826786">
        <ele>612.5</ele>
        <time>2017-05-22T07:16:51Z</time>
      </trkpt>
      <trkpt lat="51.764476988464594" lon="10.667629977688193">
        <ele>612.5</ele>
        <time>2017-05-22T07:16:55Z</time>
      </trkpt>
      <trkpt lat="51.764422003179789" lon="10.667753024026752">
        <ele>612.5</ele>
        <time>2017-05-22T07:16:56Z</time>
      </trkpt>
      <trkpt lat="51.764346985146403" lon="10.667855031788349">
        <ele>612.98000000000002</ele>
        <time>2017-05-22T07:16:57Z</time>
      </trkpt>
      <trkpt lat="51.764120003208518" lon="10.668219979852438">
        <ele>613.46000000000004</ele>
        <time>2017-05-22T07:17:00Z</time>
      </trkpt>
      <trkpt lat="51.764091001823545" lon="10.668417038396001">
        <ele>613.46000000000004</ele>
        <time>2017-05-22T07:17:01Z</time>
      </trkpt>
      <trkpt lat="51.764078009873629" lon="10.668633040040731">
        <ele>613.46000000000004</ele>
        <time>2017-05-22T07:17:02Z</time>
      </trkpt>
      <trkpt lat="51.764055965468287" lon="10.668862033635378">
        <ele>613.46000000000004</ele>
        <time>2017-05-22T07:17:03Z</time>
      </trkpt>
      <trkpt lat="51.764027969911695" lon="10.669076023623347">
        <ele>613.94000000000005</ele>
        <time>2017-05-22T07:17:04Z</time>
      </trkpt>
      <trkpt lat="51.763937026262283" lon="10.670245969668031">
        <ele>612.98000000000002</ele>
        <time>2017-05-22T07:17:09Z</time>
      </trkpt>
      <trkpt lat="51.763914981856942" lon="10.670460965484381">
        <ele>612.5</ele>
        <time>2017-05-22T07:17:10Z</time>
      </trkpt>
      <trkpt lat="51.763852033764124" lon="10.670641008764505">
        <ele>612.01999999999998</ele>
        <time>2017-05-22T07:17:11Z</time>
      </trkpt>
      <trkpt lat="51.763768969103694" lon="10.670818034559488">
        <ele>612.01999999999998</ele>
        <time>2017-05-22T07:17:12Z</time>
      </trkpt>
      <trkpt lat="51.763663021847606" lon="10.670990031212568">
        <ele>611.53999999999996</ele>
        <time>2017-05-22T07:17:13Z</time>
      </trkpt>
      <trkpt lat="51.762918038293719" lon="10.67239198833704">
        <ele>609.61000000000001</ele>
        <time>2017-05-22T07:17:20Z</time>
      </trkpt>
      <trkpt lat="51.762326024472713" lon="10.67374499514699">
        <ele>612.5</ele>
        <time>2017-05-22T07:17:28Z</time>
      </trkpt>
      <trkpt lat="51.762284031137824" lon="10.673818001523614">
        <ele>612.98000000000002</ele>
        <time>2017-05-22T07:17:29Z</time>
      </trkpt>
      <trkpt lat="51.762261986732483" lon="10.673864018172026">
        <ele>611.05999999999995</ele>
        <time>2017-05-22T07:17:30Z</time>
      </trkpt>
      <trkpt lat="51.76212796010077" lon="10.67411002703011">
        <ele>612.01999999999998</ele>
        <time>2017-05-22T07:17:33Z</time>
      </trkpt>
      <trkpt lat="51.761620016768575" lon="10.675458004698157">
        <ele>613.94000000000005</ele>
        <time>2017-05-22T07:17:41Z</time>
      </trkpt>
      <trkpt lat="51.760830022394657" lon="10.677568987011909">
        <ele>617.77999999999997</ele>
        <time>2017-05-22T07:17:50Z</time>
      </trkpt>
      <trkpt lat="51.759744985029101" lon="10.680336020886898">
        <ele>619.23000000000002</ele>
        <time>2017-05-22T07:18:00Z</time>
      </trkpt>
      <trkpt lat="51.758677968755364" lon="10.681892037391663">
        <ele>624.50999999999999</ele>
        <time>2017-05-22T07:18:07Z</time>
      </trkpt>
      <trkpt lat="51.757795019075274" lon="10.682878000661731">
        <ele>629.79999999999995</ele>
        <time>2017-05-22T07:18:13Z</time>
      </trkpt>
      <trkpt lat="51.757117006927729" lon="10.683976029977202">
        <ele>632.20000000000005</ele>
        <time>2017-05-22T07:18:20Z</time>
      </trkpt>
      <trkpt lat="51.757047018036246" lon="10.684155989438295">
        <ele>631.72000000000003</ele>
        <time>2017-05-22T07:18:21Z</time>
      </trkpt>
      <trkpt lat="51.756786005571485" lon="10.684898961335421">
        <ele>631.72000000000003</ele>
        <time>2017-05-22T07:18:25Z</time>
      </trkpt>
      <trkpt lat="51.756171025335789" lon="10.686238976195455">
        <ele>628.84000000000003</ele>
        <time>2017-05-22T07:18:31Z</time>
      </trkpt>
      <trkpt lat="51.755583034828305" lon="10.68760396912694">
        <ele>621.63</ele>
        <time>2017-05-22T07:18:36Z</time>
      </trkpt>
      <trkpt lat="51.755497958511114" lon="10.687906974926591">
        <ele>619.71000000000004</ele>
        <time>2017-05-22T07:18:37Z</time>
      </trkpt>
      <trkpt lat="51.755435010418296" lon="10.688236970454454">
        <ele>618.75</ele>
        <time>2017-05-22T07:18:38Z</time>
      </trkpt>
      <trkpt lat="51.755393017083406" lon="10.688560009002686">
        <ele>616.34000000000003</ele>
        <time>2017-05-22T07:18:39Z</time>
      </trkpt>
      <trkpt lat="51.755351023748517" lon="10.688900984823704">
        <ele>615.38</ele>
        <time>2017-05-22T07:18:40Z</time>
      </trkpt>
      <trkpt lat="51.755191013216972" lon="10.690800994634628">
        <ele>608.16999999999996</ele>
        <time>2017-05-22T07:18:46Z</time>
      </trkpt>
      <trkpt lat="51.755227977409959" lon="10.691076004877687">
        <ele>605.76999999999998</ele>
        <time>2017-05-22T07:18:47Z</time>
      </trkpt>
      <trkpt lat="51.755262007936835" lon="10.691371969878674">
        <ele>604.80999999999995</ele>
        <time>2017-05-22T07:18:48Z</time>
      </trkpt>
      <trkpt lat="51.755314981564879" lon="10.691685033962131">
        <ele>604.33000000000004</ele>
        <time>2017-05-22T07:18:49Z</time>
      </trkpt>
      <trkpt lat="51.755388993769884" lon="10.691987033933401">
        <ele>602.39999999999998</ele>
        <time>2017-05-22T07:18:50Z</time>
      </trkpt>
      <trkpt lat="51.755482032895088" lon="10.692290039733052">
        <ele>601.44000000000005</ele>
        <time>2017-05-22T07:18:51Z</time>
      </trkpt>
      <trkpt lat="51.755601977929473" lon="10.692586004734039">
        <ele>600.48000000000002</ele>
        <time>2017-05-22T07:18:52Z</time>
      </trkpt>
      <trkpt lat="51.755751008167863" lon="10.692866966128349">
        <ele>598.55999999999995</ele>
        <time>2017-05-22T07:18:53Z</time>
      </trkpt>
      <trkpt lat="51.755891991779208" lon="10.693154968321323">
        <ele>597.12</ele>
        <time>2017-05-22T07:18:54Z</time>
      </trkpt>
      <trkpt lat="51.756567992269993" lon="10.694384006783366">
        <ele>593.26999999999998</ele>
        <time>2017-05-22T07:18:59Z</time>
      </trkpt>
      <trkpt lat="51.756709981709719" lon="10.694557009264827">
        <ele>592.30999999999995</ele>
        <time>2017-05-22T07:19:00Z</time>
      </trkpt>
      <trkpt lat="51.756974011659622" lon="10.694921035319567">
        <ele>591.35000000000002</ele>
        <time>2017-05-22T07:19:02Z</time>
      </trkpt>
      <trkpt lat="51.757086999714375" lon="10.695140976458788">
        <ele>590.38999999999999</ele>
        <time>2017-05-22T07:19:03Z</time>
      </trkpt>
      <trkpt lat="51.757165035232902" lon="10.69540299475193">
        <ele>589.42999999999995</ele>
        <time>2017-05-22T07:19:04Z</time>
      </trkpt>
      <trkpt lat="51.75722798332572" lon="10.695687979459763">
        <ele>588.46000000000004</ele>
        <time>2017-05-22T07:19:05Z</time>
      </trkpt>
      <trkpt lat="51.757263019680977" lon="10.696001965552568">
        <ele>587.5</ele>
        <time>2017-05-22T07:19:06Z</time>
      </trkpt>
      <trkpt lat="51.757645988836884" lon="10.698209004476666">
        <ele>576.45000000000005</ele>
        <time>2017-05-22T07:19:14Z</time>
      </trkpt>
      <trkpt lat="51.757677001878619" lon="10.698959017172456">
        <ele>573.08000000000004</ele>
        <time>2017-05-22T07:19:17Z</time>
      </trkpt>
      <trkpt lat="51.75767901353538" lon="10.699388002976775">
        <ele>571.63999999999999</ele>
        <time>2017-05-22T07:19:19Z</time>
      </trkpt>
      <trkpt lat="51.757717989385128" lon="10.699565028771758">
        <ele>570.67999999999995</ele>
        <time>2017-05-22T07:19:20Z</time>
      </trkpt>
      <trkpt lat="51.757771968841553" lon="10.699712969362736">
        <ele>570.20000000000005</ele>
        <time>2017-05-22T07:19:21Z</time>
      </trkpt>
      <trkpt lat="51.757832989096642" lon="10.699815982952714">
        <ele>569.72000000000003</ele>
        <time>2017-05-22T07:19:22Z</time>
      </trkpt>
      <trkpt lat="51.757885040715337" lon="10.699898963794112">
        <ele>569.24000000000001</ele>
        <time>2017-05-22T07:19:23Z</time>
      </trkpt>
      <trkpt lat="51.757976990193129" lon="10.699943974614143">
        <ele>568.27999999999997</ele>
        <time>2017-05-22T07:19:25Z</time>
      </trkpt>
      <trkpt lat="51.75804203376174" lon="10.699902987107635">
        <ele>567.79999999999995</ele>
        <time>2017-05-22T07:19:26Z</time>
      </trkpt>
      <trkpt lat="51.758598005399108" lon="10.699728978797793">
        <ele>566.35000000000002</ele>
        <time>2017-05-22T07:19:31Z</time>
      </trkpt>
      <trkpt lat="51.758703030645847" lon="10.699821012094617">
        <ele>565.87</ele>
        <time>2017-05-22T07:19:32Z</time>
      </trkpt>
      <trkpt lat="51.758808977901936" lon="10.699932994320989">
        <ele>565.87</ele>
        <time>2017-05-22T07:19:33Z</time>
      </trkpt>
      <trkpt lat="51.758897993713617" lon="10.700069032609463">
        <ele>565.38999999999999</ele>
        <time>2017-05-22T07:19:34Z</time>
      </trkpt>
      <trkpt lat="51.758960019797087" lon="10.70021697320044">
        <ele>565.38999999999999</ele>
        <time>2017-05-22T07:19:35Z</time>
      </trkpt>
      <trkpt lat="51.758976029232144" lon="10.700430041179061">
        <ele>564.42999999999995</ele>
        <time>2017-05-22T07:19:37Z</time>
      </trkpt>
      <trkpt lat="51.758929006755352" lon="10.700530959293246">
        <ele>564.42999999999995</ele>
        <time>2017-05-22T07:19:38Z</time>
      </trkpt>
      <trkpt lat="51.758877960965037" lon="10.700642019510269">
        <ele>563.95000000000005</ele>
        <time>2017-05-22T07:19:39Z</time>
      </trkpt>
      <trkpt lat="51.758811995387077" lon="10.700743021443486">
        <ele>563.95000000000005</ele>
        <time>2017-05-22T07:19:40Z</time>
      </trkpt>
      <trkpt lat="51.758722979575396" lon="10.700849974527955">
        <ele>563.47000000000003</ele>
        <time>2017-05-22T07:19:41Z</time>
      </trkpt>
      <trkpt lat="51.758608985692263" lon="10.700974026694894">
        <ele>562.99000000000001</ele>
        <time>2017-05-22T07:19:42Z</time>
      </trkpt>
      <trkpt lat="51.757771968841553" lon="10.701900981366634">
        <ele>559.13999999999999</ele>
        <time>2017-05-22T07:19:47Z</time>
      </trkpt>
      <trkpt lat="51.757472986355424" lon="10.702285040169954">
        <ele>556.74000000000001</ele>
        <time>2017-05-22T07:19:49Z</time>
      </trkpt>
      <trkpt lat="51.757365027442575" lon="10.70253498852253">
        <ele>556.74000000000001</ele>
        <time>2017-05-22T07:19:50Z</time>
      </trkpt>
      <trkpt lat="51.757266959175467" lon="10.702806981280446">
        <ele>556.74000000000001</ele>
        <time>2017-05-22T07:19:51Z</time>
      </trkpt>
      <trkpt lat="51.757188001647592" lon="10.703101018443704">
        <ele>556.25999999999999</ele>
        <time>2017-05-22T07:19:52Z</time>
      </trkpt>
      <trkpt lat="51.757126981392503" lon="10.70341601036489">
        <ele>556.25999999999999</ele>
        <time>2017-05-22T07:19:53Z</time>
      </trkpt>
      <trkpt lat="51.757061015814543" lon="10.703720021992922">
        <ele>555.77999999999997</ele>
        <time>2017-05-22T07:19:54Z</time>
      </trkpt>
      <trkpt lat="51.756946016103029" lon="10.704020010307431">
        <ele>554.82000000000005</ele>
        <time>2017-05-22T07:19:55Z</time>
      </trkpt>
      <trkpt lat="51.756857000291348" lon="10.704287979751825">
        <ele>554.82000000000005</ele>
        <time>2017-05-22T07:19:56Z</time>
      </trkpt>
      <trkpt lat="51.756419967859983" lon="10.706070978194475">
        <ele>551.92999999999995</ele>
        <time>2017-05-22T07:20:03Z</time>
      </trkpt>
      <trkpt lat="51.756401024758816" lon="10.706339031457901">
        <ele>550.49000000000001</ele>
        <time>2017-05-22T07:20:04Z</time>
      </trkpt>
      <trkpt lat="51.756395995616913" lon="10.706614963710308">
        <ele>548.09000000000003</ele>
        <time>2017-05-22T07:20:05Z</time>
      </trkpt>
      <trkpt lat="51.75641200505197" lon="10.706930039450526">
        <ele>547.61000000000001</ele>
        <time>2017-05-22T07:20:06Z</time>
      </trkpt>
      <trkpt lat="51.7565209697932" lon="10.708662997931242">
        <ele>544.24000000000001</ele>
        <time>2017-05-22T07:20:11Z</time>
      </trkpt>
      <trkpt lat="51.756488028913736" lon="10.708926022052765">
        <ele>544.24000000000001</ele>
        <time>2017-05-22T07:20:12Z</time>
      </trkpt>
      <trkpt lat="51.756415022537112" lon="10.709143029525876">
        <ele>543.75999999999999</ele>
        <time>2017-05-22T07:20:13Z</time>
      </trkpt>
      <trkpt lat="51.756062982603908" lon="10.710018016397953">
        <ele>542.32000000000005</ele>
        <time>2017-05-22T07:20:17Z</time>
      </trkpt>
      <trkpt lat="51.756009003147483" lon="10.710287997499108">
        <ele>541.36000000000001</ele>
        <time>2017-05-22T07:20:18Z</time>
      </trkpt>
      <trkpt lat="51.755975978448987" lon="10.710567031055689">
        <ele>540.88</ele>
        <time>2017-05-22T07:20:19Z</time>
      </trkpt>
      <trkpt lat="51.755957035347819" lon="10.710852015763521">
        <ele>541.36000000000001</ele>
        <time>2017-05-22T07:20:20Z</time>
      </trkpt>
      <trkpt lat="51.755969021469355" lon="10.711148986592889">
        <ele>540.39999999999998</ele>
        <time>2017-05-22T07:20:21Z</time>
      </trkpt>
      <trkpt lat="51.756002968177199" lon="10.711440006271005">
        <ele>539.91999999999996</ele>
        <time>2017-05-22T07:20:22Z</time>
      </trkpt>
      <trkpt lat="51.756062982603908" lon="10.711725996807218">
        <ele>539.91999999999996</ele>
        <time>2017-05-22T07:20:23Z</time>
      </trkpt>
      <trkpt lat="51.756133977323771" lon="10.71198801510036">
        <ele>538.96000000000004</ele>
        <time>2017-05-22T07:20:24Z</time>
      </trkpt>
      <trkpt lat="51.756231961771846" lon="10.712237963452935">
        <ele>537.50999999999999</ele>
        <time>2017-05-22T07:20:25Z</time>
      </trkpt>
      <trkpt lat="51.756350984796882" lon="10.712490007281303">
        <ele>537.02999999999997</ele>
        <time>2017-05-22T07:20:26Z</time>
      </trkpt>
      <trkpt lat="51.756487023085356" lon="10.712738027796149">
        <ele>536.54999999999995</ele>
        <time>2017-05-22T07:20:27Z</time>
      </trkpt>
      <trkpt lat="51.757585974410176" lon="10.714040994644165">
        <ele>535.11000000000001</ele>
        <time>2017-05-22T07:20:33Z</time>
      </trkpt>
      <trkpt lat="51.760319983586669" lon="10.71665002964437">
        <ele>545.69000000000005</ele>
        <time>2017-05-22T07:20:46Z</time>
      </trkpt>
      <trkpt lat="51.76216802559793" lon="10.718754976987839">
        <ele>551.45000000000005</ele>
        <time>2017-05-22T07:20:55Z</time>
      </trkpt>
      <trkpt lat="51.762587036937475" lon="10.719139035791159">
        <ele>552.40999999999997</ele>
        <time>2017-05-22T07:20:57Z</time>
      </trkpt>
      <trkpt lat="51.762807983905077" lon="10.719281025230885">
        <ele>553.38</ele>
        <time>2017-05-22T07:20:58Z</time>
      </trkpt>
      <trkpt lat="51.763033038005233" lon="10.719385966658592">
        <ele>553.38</ele>
        <time>2017-05-22T07:20:59Z</time>
      </trkpt>
      <trkpt lat="51.764923995360732" lon="10.720252990722656">
        <ele>560.11000000000001</ele>
        <time>2017-05-22T07:21:07Z</time>
      </trkpt>
      <trkpt lat="51.765526989474893" lon="10.720896972343326">
        <ele>561.54999999999995</ele>
        <time>2017-05-22T07:21:10Z</time>
      </trkpt>
      <trkpt lat="51.765679959207773" lon="10.72114197537303">
        <ele>562.02999999999997</ele>
        <time>2017-05-22T07:21:11Z</time>
      </trkpt>
      <trkpt lat="51.766217993572354" lon="10.722040012478828">
        <ele>561.54999999999995</ele>
        <time>2017-05-22T07:21:15Z</time>
      </trkpt>
      <trkpt lat="51.766395019367337" lon="10.722160041332245">
        <ele>560.59000000000003</ele>
        <time>2017-05-22T07:21:16Z</time>
      </trkpt>
      <trkpt lat="51.766569027677178" lon="10.722277974709868">
        <ele>560.59000000000003</ele>
        <time>2017-05-22T07:21:17Z</time>
      </trkpt>
      <trkpt lat="51.766741024330258" lon="10.722367996349931">
        <ele>561.07000000000005</ele>
        <time>2017-05-22T07:21:18Z</time>
      </trkpt>
      <trkpt lat="51.76691897213459" lon="10.722400015220046">
        <ele>561.54999999999995</ele>
        <time>2017-05-22T07:21:19Z</time>
      </trkpt>
      <trkpt lat="51.767080994322896" lon="10.722415018826723">
        <ele>562.02999999999997</ele>
        <time>2017-05-22T07:21:20Z</time>
      </trkpt>
      <trkpt lat="51.767261037603021" lon="10.722352992743254">
        <ele>558.65999999999997</ele>
        <time>2017-05-22T07:21:21Z</time>
      </trkpt>
      <trkpt lat="51.767388023436069" lon="10.722298007458448">
        <ele>559.62</ele>
        <time>2017-05-22T07:21:22Z</time>
      </trkpt>
      <trkpt lat="51.767494976520538" lon="10.722222989425063">
        <ele>561.07000000000005</ele>
        <time>2017-05-22T07:21:23Z</time>
      </trkpt>
      <trkpt lat="51.767577035352588" lon="10.722156018018723">
        <ele>562.02999999999997</ele>
        <time>2017-05-22T07:21:24Z</time>
      </trkpt>
      <trkpt lat="51.767654987052083" lon="10.722090974450111">
        <ele>559.62</ele>
        <time>2017-05-22T07:21:25Z</time>
      </trkpt>
      <trkpt lat="51.767809968441725" lon="10.72195895947516">
        <ele>559.62</ele>
        <time>2017-05-22T07:21:27Z</time>
      </trkpt>
      <trkpt lat="51.767914993688464" lon="10.721910009160638">
        <ele>559.13999999999999</ele>
        <time>2017-05-22T07:21:28Z</time>
      </trkpt>
      <trkpt lat="51.768017001450062" lon="10.721904980018735">
        <ele>559.13999999999999</ele>
        <time>2017-05-22T07:21:29Z</time>
      </trkpt>
      <trkpt lat="51.768124038353562" lon="10.721944961696863">
        <ele>559.62</ele>
        <time>2017-05-22T07:21:30Z</time>
      </trkpt>
      <trkpt lat="51.76822897978127" lon="10.722038000822067">
        <ele>559.62</ele>
        <time>2017-05-22T07:21:31Z</time>
      </trkpt>
      <trkpt lat="51.768342973664403" lon="10.72217202745378">
        <ele>560.11000000000001</ele>
        <time>2017-05-22T07:21:32Z</time>
      </trkpt>
      <trkpt lat="51.768456967547536" lon="10.722329020500183">
        <ele>560.59000000000003</ele>
        <time>2017-05-22T07:21:33Z</time>
      </trkpt>
      <trkpt lat="51.769327009096742" lon="10.723689990118146">
        <ele>560.11000000000001</ele>
        <time>2017-05-22T07:21:40Z</time>
      </trkpt>
      <trkpt lat="51.769408984109759" lon="10.723890988156199">
        <ele>560.11000000000001</ele>
        <time>2017-05-22T07:21:41Z</time>
      </trkpt>
      <trkpt lat="51.769833024591208" lon="10.725312978029251">
        <ele>559.62</ele>
        <time>2017-05-22T07:21:48Z</time>
      </trkpt>
      <trkpt lat="51.770195960998535" lon="10.726241022348404">
        <ele>555.29999999999995</ele>
        <time>2017-05-22T07:21:56Z</time>
      </trkpt>
      <trkpt lat="51.770385978743434" lon="10.726605970412493">
        <ele>553.86000000000001</ele>
        <time>2017-05-22T07:22:04Z</time>
      </trkpt>
      <trkpt lat="51.77044196985662" lon="10.726795988157392">
        <ele>554.34000000000003</ele>
        <time>2017-05-22T07:22:07Z</time>
      </trkpt>
      <trkpt lat="51.770580019801855" lon="10.727107040584087">
        <ele>554.34000000000003</ele>
        <time>2017-05-22T07:22:17Z</time>
      </trkpt>
      <trkpt lat="51.770600974559784" lon="10.727118020877242">
        <ele>553.86000000000001</ele>
        <time>2017-05-22T07:22:31Z</time>
      </trkpt>
      <trkpt lat="51.7706139665097" lon="10.727089019492269">
        <ele>552.89999999999998</ele>
        <time>2017-05-22T07:22:32Z</time>
      </trkpt>
      <trkpt lat="51.77061497233808" lon="10.727066975086927">
        <ele>552.89999999999998</ele>
        <time>2017-05-22T07:22:33Z</time>
      </trkpt>
      <trkpt lat="51.77061103284359" lon="10.727046020328999">
        <ele>552.89999999999998</ele>
        <time>2017-05-22T07:22:34Z</time>
      </trkpt>
      <trkpt lat="51.770601980388165" lon="10.727020958438516">
        <ele>552.89999999999998</ele>
        <time>2017-05-22T07:22:35Z</time>
      </trkpt>
      <trkpt lat="51.770581025630236" lon="10.726969996467233">
        <ele>553.38</ele>
        <time>2017-05-22T07:22:36Z</time>
      </trkpt>
      <trkpt lat="51.770509025081992" lon="10.726784002035856">
        <ele>553.38</ele>
        <time>2017-05-22T07:22:38Z</time>
      </trkpt>
      <trkpt lat="51.770411040633917" lon="10.726509997621179">
        <ele>553.38</ele>
        <time>2017-05-22T07:22:41Z</time>
      </trkpt>
      <trkpt lat="51.770390002056956" lon="10.726464986801147">
        <ele>553.38</ele>
        <time>2017-05-22T07:22:42Z</time>
      </trkpt>
      <trkpt lat="51.770379021763802" lon="10.726442020386457">
        <ele>553.38</ele>
        <time>2017-05-22T07:22:43Z</time>
      </trkpt>
      <trkpt lat="51.770369969308376" lon="10.7264260109514">
        <ele>553.38</ele>
        <time>2017-05-22T07:22:44Z</time>
      </trkpt>
      <trkpt lat="51.770358989015222" lon="10.726417964324355">
        <ele>553.86000000000001</ele>
        <time>2017-05-22T07:22:45Z</time>
      </trkpt>
      <trkpt lat="51.770348008722067" lon="10.726415030658245">
        <ele>553.86000000000001</ele>
        <time>2017-05-22T07:22:46Z</time>
      </trkpt>
      <trkpt lat="51.770338034257293" lon="10.726410001516342">
        <ele>553.86000000000001</ele>
        <time>2017-05-22T07:22:47Z</time>
      </trkpt>
      <trkpt lat="51.770316995680332" lon="10.72640597820282">
        <ele>554.34000000000003</ele>
        <time>2017-05-22T07:22:48Z</time>
      </trkpt>
      <trkpt lat="51.770302997902036" lon="10.726422993466258">
        <ele>552.89999999999998</ele>
        <time>2017-05-22T07:23:06Z</time>
      </trkpt>
      <trkpt lat="51.770385978743434" lon="10.726444032043219">
        <ele>539.91999999999996</ele>
        <time>2017-05-22T07:27:51Z</time>
      </trkpt>
      <trkpt lat="51.770406011492014" lon="10.726415030658245">
        <ele>536.54999999999995</ele>
        <time>2017-05-22T07:28:40Z</time>
      </trkpt>
      <trkpt lat="51.770400982350111" lon="10.726412013173103">
        <ele>537.02999999999997</ele>
        <time>2017-05-22T07:30:21Z</time>
      </trkpt>
      <trkpt lat="51.77039997652173" lon="10.726412013173103">
        <ele>537.02999999999997</ele>
        <time>2017-05-22T07:30:48Z</time>
      </trkpt>
      <trkpt lat="51.77039603702724" lon="10.726445037871599">
        <ele>537.02999999999997</ele>
        <time>2017-05-22T07:30:50Z</time>
      </trkpt>
      <trkpt lat="51.770455967634916" lon="10.726544028148055">
        <ele>537.02999999999997</ele>
        <time>2017-05-22T07:30:54Z</time>
      </trkpt>
      <trkpt lat="51.770767020061612" lon="10.7272859942168">
        <ele>537.99000000000001</ele>
        <time>2017-05-22T07:31:04Z</time>
      </trkpt>
      <trkpt lat="51.77134595811367" lon="10.728862965479493">
        <ele>539.91999999999996</ele>
        <time>2017-05-22T07:31:15Z</time>
      </trkpt>
      <trkpt lat="51.771606970578432" lon="10.729288011789322">
        <ele>540.39999999999998</ele>
        <time>2017-05-22T07:31:18Z</time>
      </trkpt>
      <trkpt lat="51.771721970289946" lon="10.729408040642738">
        <ele>540.39999999999998</ele>
        <time>2017-05-22T07:31:19Z</time>
      </trkpt>
      <trkpt lat="51.773012029007077" lon="10.730147995054722">
        <ele>539.91999999999996</ele>
        <time>2017-05-22T07:31:27Z</time>
      </trkpt>
      <trkpt lat="51.773825995624065" lon="10.730385035276413">
        <ele>537.99000000000001</ele>
        <time>2017-05-22T07:31:31Z</time>
      </trkpt>
      <trkpt lat="51.775802029296756" lon="10.730614028871059">
        <ele>533.19000000000005</ele>
        <time>2017-05-22T07:31:40Z</time>
      </trkpt>
      <trkpt lat="51.775989029556513" lon="10.730697009712458">
        <ele>532.71000000000004</ele>
        <time>2017-05-22T07:31:41Z</time>
      </trkpt>
      <trkpt lat="51.776164965704083" lon="10.730822989717126">
        <ele>532.23000000000002</ele>
        <time>2017-05-22T07:31:42Z</time>
      </trkpt>
      <trkpt lat="51.777085969224572" lon="10.731608960777521">
        <ele>530.29999999999995</ele>
        <time>2017-05-22T07:31:48Z</time>
      </trkpt>
      <trkpt lat="51.777253020554781" lon="10.731688002124429">
        <ele>529.82000000000005</ele>
        <time>2017-05-22T07:31:49Z</time>
      </trkpt>
      <trkpt lat="51.778203025460243" lon="10.732083041220903">
        <ele>525.98000000000002</ele>
        <time>2017-05-22T07:31:54Z</time>
      </trkpt>
      <trkpt lat="51.77931203506887" lon="10.732939001172781">
        <ele>522.13</ele>
        <time>2017-05-22T07:32:00Z</time>
      </trkpt>
      <trkpt lat="51.779462993144989" lon="10.733143016695976">
        <ele>521.16999999999996</ele>
        <time>2017-05-22T07:32:01Z</time>
      </trkpt>
      <trkpt lat="51.780520034953952" lon="10.735158026218414">
        <ele>517.33000000000004</ele>
        <time>2017-05-22T07:32:09Z</time>
      </trkpt>
      <trkpt lat="51.781022027134895" lon="10.736802974715829">
        <ele>514.91999999999996</ele>
        <time>2017-05-22T07:32:16Z</time>
      </trkpt>
      <trkpt lat="51.781577998772264" lon="10.738900965079665">
        <ele>512.51999999999998</ele>
        <time>2017-05-22T07:32:24Z</time>
      </trkpt>
      <trkpt lat="51.782525992020965" lon="10.742613980546594">
        <ele>512.51999999999998</ele>
        <time>2017-05-22T07:32:35Z</time>
      </trkpt>
      <trkpt lat="51.783164022490382" lon="10.744972983375192">
        <ele>512.03999999999996</ele>
        <time>2017-05-22T07:32:43Z</time>
      </trkpt>
      <trkpt lat="51.783279022201896" lon="10.745150009170175">
        <ele>511.56</ele>
        <time>2017-05-22T07:32:44Z</time>
      </trkpt>
      <trkpt lat="51.783400978893042" lon="10.745272971689701">
        <ele>511.56</ele>
        <time>2017-05-22T07:32:45Z</time>
      </trkpt>
      <trkpt lat="51.783529976382852" lon="10.745344972237945">
        <ele>511.56</ele>
        <time>2017-05-22T07:32:46Z</time>
      </trkpt>
      <trkpt lat="51.783661991357803" lon="10.745366010814905">
        <ele>511.56</ele>
        <time>2017-05-22T07:32:47Z</time>
      </trkpt>
      <trkpt lat="51.783787971362472" lon="10.745318988338113">
        <ele>511.56</ele>
        <time>2017-05-22T07:32:48Z</time>
      </trkpt>
      <trkpt lat="51.783914035186172" lon="10.745224021375179">
        <ele>510.60000000000002</ele>
        <time>2017-05-22T07:32:49Z</time>
      </trkpt>
      <trkpt lat="51.784021994099021" lon="10.745093012228608">
        <ele>510.60000000000002</ele>
        <time>2017-05-22T07:32:50Z</time>
      </trkpt>
      <trkpt lat="51.784118972718716" lon="10.744873993098736">
        <ele>508.67000000000002</ele>
        <time>2017-05-22T07:32:51Z</time>
      </trkpt>
      <trkpt lat="51.784178987145424" lon="10.744640976190567">
        <ele>507.70999999999998</ele>
        <time>2017-05-22T07:32:52Z</time>
      </trkpt>
      <trkpt lat="51.784190973266959" lon="10.744347022846341">
        <ele>506.75</ele>
        <time>2017-05-22T07:32:53Z</time>
      </trkpt>
      <trkpt lat="51.784206982702017" lon="10.744071006774902">
        <ele>505.79000000000002</ele>
        <time>2017-05-22T07:32:54Z</time>
      </trkpt>
      <trkpt lat="51.784220980480313" lon="10.743787027895451">
        <ele>504.35000000000002</ele>
        <time>2017-05-22T07:32:55Z</time>
      </trkpt>
      <trkpt lat="51.78423497825861" lon="10.74297096580267">
        <ele>501.45999999999998</ele>
        <time>2017-05-22T07:32:58Z</time>
      </trkpt>
      <trkpt lat="51.784198014065623" lon="10.74273300357163">
        <ele>500.5</ele>
        <time>2017-05-22T07:32:59Z</time>
      </trkpt>
      <trkpt lat="51.784140011295676" lon="10.74249898083508">
        <ele>499.54000000000002</ele>
        <time>2017-05-22T07:33:00Z</time>
      </trkpt>
      <trkpt lat="51.783903976902366" lon="10.741531038656831">
        <ele>496.18000000000001</ele>
        <time>2017-05-22T07:33:04Z</time>
      </trkpt>
      <trkpt lat="51.783894002437592" lon="10.74127497151494">
        <ele>495.22000000000003</ele>
        <time>2017-05-22T07:33:05Z</time>
      </trkpt>
      <trkpt lat="51.783917974680662" lon="10.741008007898927">
        <ele>494.25999999999999</ele>
        <time>2017-05-22T07:33:06Z</time>
      </trkpt>
      <trkpt lat="51.784002967178822" lon="10.740428986027837">
        <ele>491.85000000000002</ele>
        <time>2017-05-22T07:33:08Z</time>
      </trkpt>
      <trkpt lat="51.784073039889336" lon="10.740148024633527">
        <ele>489.44999999999999</ele>
        <time>2017-05-22T07:33:09Z</time>
      </trkpt>
      <trkpt lat="51.784141017124057" lon="10.73987603187561">
        <ele>488.00999999999999</ele>
        <time>2017-05-22T07:33:10Z</time>
      </trkpt>
      <trkpt lat="51.784245036542416" lon="10.739604961127043">
        <ele>487.05000000000001</ele>
        <time>2017-05-22T07:33:11Z</time>
      </trkpt>
      <trkpt lat="51.784359030425549" lon="10.739358030259609">
        <ele>485.60000000000002</ele>
        <time>2017-05-22T07:33:12Z</time>
      </trkpt>
      <trkpt lat="51.784472018480301" lon="10.739130964502692">
        <ele>484.63999999999999</ele>
        <time>2017-05-22T07:33:13Z</time>
      </trkpt>
      <trkpt lat="51.784590035676956" lon="10.738934995606542">
        <ele>483.68000000000001</ele>
        <time>2017-05-22T07:33:14Z</time>
      </trkpt>
      <trkpt lat="51.784720961004496" lon="10.738767022266984">
        <ele>482.24000000000001</ele>
        <time>2017-05-22T07:33:15Z</time>
      </trkpt>
      <trkpt lat="51.784855993464589" lon="10.738665014505386">
        <ele>480.80000000000001</ele>
        <time>2017-05-22T07:33:16Z</time>
      </trkpt>
      <trkpt lat="51.78500896319747" lon="10.738579016178846">
        <ele>479.35000000000002</ele>
        <time>2017-05-22T07:33:17Z</time>
      </trkpt>
      <trkpt lat="51.785143995657563" lon="10.738557977601886">
        <ele>477.91000000000003</ele>
        <time>2017-05-22T07:33:18Z</time>
      </trkpt>
      <trkpt lat="51.785268969833851" lon="10.738603994250298">
        <ele>475.99000000000001</ele>
        <time>2017-05-22T07:33:19Z</time>
      </trkpt>
      <trkpt lat="51.785447001457214" lon="10.738684041425586">
        <ele>475.02999999999997</ele>
        <time>2017-05-22T07:33:20Z</time>
      </trkpt>
      <trkpt lat="51.785611035302281" lon="10.738754030317068">
        <ele>473.58999999999997</ele>
        <time>2017-05-22T07:33:21Z</time>
      </trkpt>
      <trkpt lat="51.78713402710855" lon="10.73957503773272">
        <ele>461.56999999999999</ele>
        <time>2017-05-22T07:33:29Z</time>
      </trkpt>
      <trkpt lat="51.788685014471412" lon="10.740146012976766">
        <ele>450.51999999999998</ele>
        <time>2017-05-22T07:33:37Z</time>
      </trkpt>
      <trkpt lat="51.788842007517815" lon="10.740163028240204">
        <ele>449.06999999999999</ele>
        <time>2017-05-22T07:33:38Z</time>
      </trkpt>
      <trkpt lat="51.788983996957541" lon="10.74011399410665">
        <ele>448.58999999999997</ele>
        <time>2017-05-22T07:33:39Z</time>
      </trkpt>
      <trkpt lat="51.789100002497435" lon="10.74002698995173">
        <ele>447.14999999999998</ele>
        <time>2017-05-22T07:33:40Z</time>
      </trkpt>
      <trkpt lat="51.789201004430652" lon="10.739890029653907">
        <ele>445.23000000000002</ele>
        <time>2017-05-22T07:33:41Z</time>
      </trkpt>
      <trkpt lat="51.789280967786908" lon="10.739710992202163">
        <ele>443.31</ele>
        <time>2017-05-22T07:33:42Z</time>
      </trkpt>
      <trkpt lat="51.789362020790577" lon="10.739513011649251">
        <ele>442.33999999999997</ele>
        <time>2017-05-22T07:33:43Z</time>
      </trkpt>
      <trkpt lat="51.789451958611608" lon="10.739303966984153">
        <ele>440.42000000000002</ele>
        <time>2017-05-22T07:33:44Z</time>
      </trkpt>
      <trkpt lat="51.789855966344476" lon="10.738468961790204">
        <ele>436.57999999999998</ele>
        <time>2017-05-22T07:33:48Z</time>
      </trkpt>
      <trkpt lat="51.78999301046133" lon="10.738300988450646">
        <ele>435.61000000000001</ele>
        <time>2017-05-22T07:33:49Z</time>
      </trkpt>
      <trkpt lat="51.790126031264663" lon="10.738150030374527">
        <ele>435.13</ele>
        <time>2017-05-22T07:33:50Z</time>
      </trkpt>
      <trkpt lat="51.790255028754473" lon="10.738041987642646">
        <ele>434.17000000000002</ele>
        <time>2017-05-22T07:33:51Z</time>
      </trkpt>
      <trkpt lat="51.79040196351707" lon="10.737975016236305">
        <ele>433.69</ele>
        <time>2017-05-22T07:33:52Z</time>
      </trkpt>
      <trkpt lat="51.790559962391853" lon="10.737980967387557">
        <ele>432.73000000000002</ele>
        <time>2017-05-22T07:33:53Z</time>
      </trkpt>
      <trkpt lat="51.790718967095017" lon="10.738023966550827">
        <ele>431.76999999999998</ele>
        <time>2017-05-22T07:33:54Z</time>
      </trkpt>
      <trkpt lat="51.790885012596846" lon="10.738085992634296">
        <ele>430.81</ele>
        <time>2017-05-22T07:33:55Z</time>
      </trkpt>
      <trkpt lat="51.792054958641529" lon="10.738640036433935">
        <ele>425.51999999999998</ele>
        <time>2017-05-22T07:34:02Z</time>
      </trkpt>
      <trkpt lat="51.792208012193441" lon="10.738654034212232">
        <ele>424.56</ele>
        <time>2017-05-22T07:34:03Z</time>
      </trkpt>
      <trkpt lat="51.792368022724986" lon="10.738625032827258">
        <ele>424.07999999999998</ele>
        <time>2017-05-22T07:34:04Z</time>
      </trkpt>
      <trkpt lat="51.79252996109426" lon="10.738509027287364">
        <ele>422.63999999999999</ele>
        <time>2017-05-22T07:34:05Z</time>
      </trkpt>
      <trkpt lat="51.792702963575721" lon="10.738366032019258">
        <ele>421.68000000000001</ele>
        <time>2017-05-22T07:34:06Z</time>
      </trkpt>
      <trkpt lat="51.792866997420788" lon="10.73817802593112">
        <ele>421.19</ele>
        <time>2017-05-22T07:34:07Z</time>
      </trkpt>
      <trkpt lat="51.793018961325288" lon="10.737953977659345">
        <ele>420.23000000000002</ele>
        <time>2017-05-22T07:34:08Z</time>
      </trkpt>
      <trkpt lat="51.793177966028452" lon="10.737715009599924">
        <ele>419.26999999999998</ele>
        <time>2017-05-22T07:34:09Z</time>
      </trkpt>
      <trkpt lat="51.793333031237125" lon="10.737489033490419">
        <ele>418.79000000000002</ele>
        <time>2017-05-22T07:34:10Z</time>
      </trkpt>
      <trkpt lat="51.79484898224473" lon="10.735649038106203">
        <ele>410.13999999999999</ele>
        <time>2017-05-22T07:34:19Z</time>
      </trkpt>
      <trkpt lat="51.795345023274422" lon="10.735203037038445">
        <ele>407.74000000000001</ele>
        <time>2017-05-22T07:34:22Z</time>
      </trkpt>
      <trkpt lat="51.795538980513811" lon="10.73512801900506">
        <ele>406.76999999999998</ele>
        <time>2017-05-22T07:34:23Z</time>
      </trkpt>
      <trkpt lat="51.795746013522148" lon="10.735088037326932">
        <ele>406.29000000000002</ele>
        <time>2017-05-22T07:34:24Z</time>
      </trkpt>
      <trkpt lat="51.797017967328429" lon="10.735006984323263">
        <ele>401.97000000000003</ele>
        <time>2017-05-22T07:34:30Z</time>
      </trkpt>
      <trkpt lat="51.797229023650289" lon="10.735073033720255">
        <ele>401.00999999999999</ele>
        <time>2017-05-22T07:34:31Z</time>
      </trkpt>
      <trkpt lat="51.798066040500998" lon="10.735377967357635">
        <ele>399.56999999999999</ele>
        <time>2017-05-22T07:34:35Z</time>
      </trkpt>
      <trkpt lat="51.798281036317348" lon="10.735379979014397">
        <ele>399.07999999999998</ele>
        <time>2017-05-22T07:34:36Z</time>
      </trkpt>
      <trkpt lat="51.798495026305318" lon="10.735360030084848">
        <ele>398.60000000000002</ele>
        <time>2017-05-22T07:34:37Z</time>
      </trkpt>
      <trkpt lat="51.798708010464907" lon="10.735314013436437">
        <ele>398.60000000000002</ele>
        <time>2017-05-22T07:34:38Z</time>
      </trkpt>
      <trkpt lat="51.798926023766398" lon="10.735232038423419">
        <ele>398.12</ele>
        <time>2017-05-22T07:34:39Z</time>
      </trkpt>
      <trkpt lat="51.79914403706789" lon="10.735133970156312">
        <ele>398.12</ele>
        <time>2017-05-22T07:34:40Z</time>
      </trkpt>
      <trkpt lat="51.800718996673822" lon="10.734292007982731">
        <ele>394.27999999999997</ele>
        <time>2017-05-22T07:34:48Z</time>
      </trkpt>
      <trkpt lat="51.800896022468805" lon="10.734144989401102">
        <ele>392.83999999999997</ele>
        <time>2017-05-22T07:34:49Z</time>
      </trkpt>
      <trkpt lat="51.801060978323221" lon="10.733953965827823">
        <ele>391.87</ele>
        <time>2017-05-22T07:34:50Z</time>
      </trkpt>
      <trkpt lat="51.801213026046753" lon="10.733718015253544">
        <ele>390.43000000000001</ele>
        <time>2017-05-22T07:34:51Z</time>
      </trkpt>
      <trkpt lat="51.801353003829718" lon="10.733467983081937">
        <ele>389.94999999999999</ele>
        <time>2017-05-22T07:34:52Z</time>
      </trkpt>
      <trkpt lat="51.801488036289811" lon="10.733214011415839">
        <ele>389.47000000000003</ele>
        <time>2017-05-22T07:34:53Z</time>
      </trkpt>
      <trkpt lat="51.801626002416015" lon="10.732983006164432">
        <ele>388.50999999999999</ele>
        <time>2017-05-22T07:34:54Z</time>
      </trkpt>
      <trkpt lat="51.801759023219347" lon="10.732798017561436">
        <ele>388.02999999999997</ele>
        <time>2017-05-22T07:34:55Z</time>
      </trkpt>
      <trkpt lat="51.801893971860409" lon="10.732654016464949">
        <ele>387.06999999999999</ele>
        <time>2017-05-22T07:34:56Z</time>
      </trkpt>
      <trkpt lat="51.802041996270418" lon="10.732545973733068">
        <ele>386.58999999999997</ele>
        <time>2017-05-22T07:34:57Z</time>
      </trkpt>
      <trkpt lat="51.80221701040864" lon="10.732474979013205">
        <ele>386.11000000000001</ele>
        <time>2017-05-22T07:34:58Z</time>
      </trkpt>
      <trkpt lat="51.802418008446693" lon="10.732428040355444">
        <ele>385.63</ele>
        <time>2017-05-22T07:34:59Z</time>
      </trkpt>
      <trkpt lat="51.802640967071056" lon="10.732384035363793">
        <ele>385.14999999999998</ele>
        <time>2017-05-22T07:35:00Z</time>
      </trkpt>
      <trkpt lat="51.804691012948751" lon="10.731875002384186">
        <ele>378.89999999999998</ele>
        <time>2017-05-22T07:35:09Z</time>
      </trkpt>
      <trkpt lat="51.806346019729972" lon="10.731463031843305">
        <ele>377.44999999999999</ele>
        <time>2017-05-22T07:35:17Z</time>
      </trkpt>
      <trkpt lat="51.806737035512924" lon="10.731531009078026">
        <ele>377.94</ele>
        <time>2017-05-22T07:35:19Z</time>
      </trkpt>
      <trkpt lat="51.806941973045468" lon="10.731611978262663">
        <ele>377.44999999999999</ele>
        <time>2017-05-22T07:35:20Z</time>
      </trkpt>
      <trkpt lat="51.807145988568664" lon="10.731703005731106">
        <ele>376.97000000000003</ele>
        <time>2017-05-22T07:35:21Z</time>
      </trkpt>
      <trkpt lat="51.808494972065091" lon="10.73274596594274">
        <ele>375.52999999999997</ele>
        <time>2017-05-22T07:35:28Z</time>
      </trkpt>
      <trkpt lat="51.810006983578205" lon="10.734188994392753">
        <ele>368.80000000000001</ele>
        <time>2017-05-22T07:35:36Z</time>
      </trkpt>
      <trkpt lat="51.811300981789827" lon="10.735050989314914">
        <ele>347.64999999999998</ele>
        <time>2017-05-22T07:35:44Z</time>
      </trkpt>
      <trkpt lat="51.812907960265875" lon="10.735959000885487">
        <ele>330.35000000000002</ele>
        <time>2017-05-22T07:35:54Z</time>
      </trkpt>
      <trkpt lat="51.814509993419051" lon="10.736881010234356">
        <ele>322.66000000000003</ele>
        <time>2017-05-22T07:36:02Z</time>
      </trkpt>
      <trkpt lat="51.815854031592607" lon="10.738123962655663">
        <ele>318.81</ele>
        <time>2017-05-22T07:36:09Z</time>
      </trkpt>
      <trkpt lat="51.816694987937808" lon="10.739422990009189">
        <ele>313.52999999999997</ele>
        <time>2017-05-22T07:36:15Z</time>
      </trkpt>
      <trkpt lat="51.817307034507394" lon="10.740512972697616">
        <ele>309.19999999999999</ele>
        <time>2017-05-22T07:36:23Z</time>
      </trkpt>
      <trkpt lat="51.818399028852582" lon="10.742118023335934">
        <ele>300.55000000000001</ele>
        <time>2017-05-22T07:36:38Z</time>
      </trkpt>
      <trkpt lat="51.818985007703304" lon="10.743051012977958">
        <ele>297.18000000000001</ele>
        <time>2017-05-22T07:36:46Z</time>
      </trkpt>
      <trkpt lat="51.819034963846207" lon="10.74318403378129">
        <ele>297.18000000000001</ele>
        <time>2017-05-22T07:36:47Z</time>
      </trkpt>
      <trkpt lat="51.819070000201464" lon="10.743317976593971">
        <ele>297.67000000000002</ele>
        <time>2017-05-22T07:36:48Z</time>
      </trkpt>
      <trkpt lat="51.819311985746026" lon="10.744986981153488">
        <ele>295.74000000000001</ele>
        <time>2017-05-22T07:36:59Z</time>
      </trkpt>
      <trkpt lat="51.819653967395425" lon="10.747327040880919">
        <ele>289.97000000000003</ele>
        <time>2017-05-22T07:37:15Z</time>
      </trkpt>
      <trkpt lat="51.819737032055855" lon="10.747629962861538">
        <ele>288.52999999999997</ele>
        <time>2017-05-22T07:37:19Z</time>
      </trkpt>
      <trkpt lat="51.819839039817452" lon="10.747881000861526">
        <ele>288.05000000000001</ele>
        <time>2017-05-22T07:37:22Z</time>
      </trkpt>
      <trkpt lat="51.820296021178365" lon="10.749260997399688">
        <ele>287.56999999999999</ele>
        <time>2017-05-22T07:37:34Z</time>
      </trkpt>
      <trkpt lat="51.820572037249804" lon="10.750205973163247">
        <ele>299.58999999999997</ele>
        <time>2017-05-22T07:37:41Z</time>
      </trkpt>
      <trkpt lat="51.82062903419137" lon="10.750270010903478">
        <ele>300.55000000000001</ele>
        <time>2017-05-22T07:37:42Z</time>
      </trkpt>
      <trkpt lat="51.820701034739614" lon="10.750312004238367">
        <ele>300.06999999999999</ele>
        <time>2017-05-22T07:37:43Z</time>
      </trkpt>
      <trkpt lat="51.820774041116238" lon="10.750337988138199">
        <ele>300.55000000000001</ele>
        <time>2017-05-22T07:37:44Z</time>
      </trkpt>
      <trkpt lat="51.820854004472494" lon="10.750364977866411">
        <ele>300.55000000000001</ele>
        <time>2017-05-22T07:37:45Z</time>
      </trkpt>
      <trkpt lat="51.821003034710884" lon="10.750433960929513">
        <ele>299.58999999999997</ele>
        <time>2017-05-22T07:37:47Z</time>
      </trkpt>
      <trkpt lat="51.821071011945605" lon="10.750474026426673">
        <ele>298.63</ele>
        <time>2017-05-22T07:37:48Z</time>
      </trkpt>
      <trkpt lat="51.821780037134886" lon="10.751280030235648">
        <ele>293.33999999999997</ele>
        <time>2017-05-22T07:37:59Z</time>
      </trkpt>
      <trkpt lat="51.822579000145197" lon="10.752268005162477">
        <ele>285.64999999999998</ele>
        <time>2017-05-22T07:38:11Z</time>
      </trkpt>
      <trkpt lat="51.823418028652668" lon="10.753329992294312">
        <ele>279.39999999999998</ele>
        <time>2017-05-22T07:38:24Z</time>
      </trkpt>
      <trkpt lat="51.82361701503396" lon="10.753594022244215">
        <ele>278.92000000000002</ele>
        <time>2017-05-22T07:38:27Z</time>
      </trkpt>
      <trkpt lat="51.82368298061192" lon="10.753696030005813">
        <ele>279.39999999999998</ele>
        <time>2017-05-22T07:38:28Z</time>
      </trkpt>
      <trkpt lat="51.824525026604533" lon="10.754839992150664">
        <ele>275.56</ele>
        <time>2017-05-22T07:38:41Z</time>
      </trkpt>
      <trkpt lat="51.824581017717719" lon="10.754934959113598">
        <ele>275.06999999999999</ele>
        <time>2017-05-22T07:38:42Z</time>
      </trkpt>
      <trkpt lat="51.825344022363424" lon="10.756594995036721">
        <ele>268.35000000000002</ele>
        <time>2017-05-22T07:38:58Z</time>
      </trkpt>
      <trkpt lat="51.826109038665891" lon="10.758345974609256">
        <ele>265.45999999999998</ele>
        <time>2017-05-22T07:39:15Z</time>
      </trkpt>
      <trkpt lat="51.826600972563028" lon="10.759582975879312">
        <ele>265.94</ele>
        <time>2017-05-22T07:39:26Z</time>
      </trkpt>
      <trkpt lat="51.826738016679883" lon="10.759909031912684">
        <ele>265.94</ele>
        <time>2017-05-22T07:39:29Z</time>
      </trkpt>
      <trkpt lat="51.826774980872869" lon="10.760020008310676">
        <ele>265.94</ele>
        <time>2017-05-22T07:39:30Z</time>
      </trkpt>
      <trkpt lat="51.826833989471197" lon="10.760258976370096">
        <ele>265.45999999999998</ele>
        <time>2017-05-22T07:39:32Z</time>
      </trkpt>
      <trkpt lat="51.827073041349649" lon="10.76260699890554">
        <ele>258.73000000000002</ele>
        <time>2017-05-22T07:39:50Z</time>
      </trkpt>
      <trkpt lat="51.827432960271835" lon="10.764963990077376">
        <ele>256.81</ele>
        <time>2017-05-22T07:40:08Z</time>
      </trkpt>
      <trkpt lat="51.827859012410045" lon="10.767178991809487">
        <ele>256.32999999999998</ele>
        <time>2017-05-22T07:40:23Z</time>
      </trkpt>
      <trkpt lat="51.828405009582639" lon="10.769977038726211">
        <ele>254.88999999999999</ele>
        <time>2017-05-22T07:40:41Z</time>
      </trkpt>
      <trkpt lat="51.82894698344171" lon="10.772542990744114">
        <ele>251.03999999999999</ele>
        <time>2017-05-22T07:40:57Z</time>
      </trkpt>
      <trkpt lat="51.829643016681075" lon="10.774634024128318">
        <ele>250.08000000000001</ele>
        <time>2017-05-22T07:41:11Z</time>
      </trkpt>
      <trkpt lat="51.830031014978886" lon="10.775485960766673">
        <ele>250.56</ele>
        <time>2017-05-22T07:41:17Z</time>
      </trkpt>
      <trkpt lat="51.830109972506762" lon="10.775619987398386">
        <ele>250.56</ele>
        <time>2017-05-22T07:41:18Z</time>
      </trkpt>
      <trkpt lat="51.831118986010551" lon="10.777440033853054">
        <ele>249.12</ele>
        <time>2017-05-22T07:41:32Z</time>
      </trkpt>
      <trkpt lat="51.831260975450277" lon="10.777665004134178">
        <ele>249.12</ele>
        <time>2017-05-22T07:41:34Z</time>
      </trkpt>
      <trkpt lat="51.831455016508698" lon="10.778057025745511">
        <ele>250.08000000000001</ele>
        <time>2017-05-22T07:41:37Z</time>
      </trkpt>
      <trkpt lat="51.831778977066278" lon="10.778977023437619">
        <ele>250.56</ele>
        <time>2017-05-22T07:41:46Z</time>
      </trkpt>
      <trkpt lat="51.831815019249916" lon="10.779057992622256">
        <ele>250.56</ele>
        <time>2017-05-22T07:41:56Z</time>
      </trkpt>
      <trkpt lat="51.831905962899327" lon="10.779384970664978">
        <ele>252</ele>
        <time>2017-05-22T07:42:11Z</time>
      </trkpt>
      <trkpt lat="51.832195976749063" lon="10.780322989448905">
        <ele>251.52000000000001</ele>
        <time>2017-05-22T07:42:20Z</time>
      </trkpt>
      <trkpt lat="51.832229001447558" lon="10.780392978340387">
        <ele>251.52000000000001</ele>
        <time>2017-05-22T07:42:21Z</time>
      </trkpt>
      <trkpt lat="51.832278035581112" lon="10.78044100664556">
        <ele>251.03999999999999</ele>
        <time>2017-05-22T07:42:22Z</time>
      </trkpt>
      <trkpt lat="51.832336038351059" lon="10.78046003356576">
        <ele>251.03999999999999</ele>
        <time>2017-05-22T07:42:23Z</time>
      </trkpt>
      <trkpt lat="51.832395968958735" lon="10.780456010252237">
        <ele>251.03999999999999</ele>
        <time>2017-05-22T07:42:24Z</time>
      </trkpt>
      <trkpt lat="51.832463024184108" lon="10.780408987775445">
        <ele>249.59999999999999</ele>
        <time>2017-05-22T07:42:25Z</time>
      </trkpt>
      <trkpt lat="51.832525972276926" lon="10.780352996662259">
        <ele>248.63999999999999</ele>
        <time>2017-05-22T07:42:26Z</time>
      </trkpt>
      <trkpt lat="51.83259503915906" lon="10.780286025255919">
        <ele>247.68000000000001</ele>
        <time>2017-05-22T07:42:27Z</time>
      </trkpt>
      <trkpt lat="51.833454016596079" lon="10.779475998133421">
        <ele>235.66</ele>
        <time>2017-05-22T07:42:39Z</time>
      </trkpt>
      <trkpt lat="51.834527989849448" lon="10.778725985437632">
        <ele>235.66</ele>
        <time>2017-05-22T07:42:52Z</time>
      </trkpt>
      <trkpt lat="51.834608037024736" lon="10.778692960739136">
        <ele>234.69999999999999</ele>
        <time>2017-05-22T07:42:53Z</time>
      </trkpt>
      <trkpt lat="51.834695041179657" lon="10.77867804095149">
        <ele>235.18000000000001</ele>
        <time>2017-05-22T07:42:54Z</time>
      </trkpt>
      <trkpt lat="51.835140958428383" lon="10.778585001826286">
        <ele>237.09999999999999</ele>
        <time>2017-05-22T07:42:59Z</time>
      </trkpt>
      <trkpt lat="51.835222011432052" lon="10.778543008491397">
        <ele>237.09999999999999</ele>
        <time>2017-05-22T07:43:00Z</time>
      </trkpt>
      <trkpt lat="51.835300968959928" lon="10.778491040691733">
        <ele>237.09999999999999</ele>
        <time>2017-05-22T07:43:01Z</time>
      </trkpt>
      <trkpt lat="51.835372969508171" lon="10.778427002951503">
        <ele>237.58000000000001</ele>
        <time>2017-05-22T07:43:02Z</time>
      </trkpt>
      <trkpt lat="51.83543499559164" lon="10.778361037373543">
        <ele>237.58000000000001</ele>
        <time>2017-05-22T07:43:03Z</time>
      </trkpt>
      <trkpt lat="51.835577990859747" lon="10.778181999921799">
        <ele>238.06</ele>
        <time>2017-05-22T07:43:07Z</time>
      </trkpt>
      <trkpt lat="51.835814025253057" lon="10.777585040777922">
        <ele>240.47</ele>
        <time>2017-05-22T07:43:17Z</time>
      </trkpt>
      <trkpt lat="51.835866998881102" lon="10.777540029957891">
        <ele>240.47</ele>
        <time>2017-05-22T07:43:18Z</time>
      </trkpt>
      <trkpt lat="51.835915027186275" lon="10.777512034401298">
        <ele>240.94999999999999</ele>
        <time>2017-05-22T07:43:19Z</time>
      </trkpt>
      <trkpt lat="51.835965989157557" lon="10.777521003037691">
        <ele>240.47</ele>
        <time>2017-05-22T07:43:20Z</time>
      </trkpt>
      <trkpt lat="51.836010999977589" lon="10.777566013857722">
        <ele>240.47</ele>
        <time>2017-05-22T07:43:21Z</time>
      </trkpt>
      <trkpt lat="51.836060034111142" lon="10.777626028284431">
        <ele>240.94999999999999</ele>
        <time>2017-05-22T07:43:22Z</time>
      </trkpt>
      <trkpt lat="51.836084006354213" lon="10.777710014954209">
        <ele>240.94999999999999</ele>
        <time>2017-05-22T07:43:23Z</time>
      </trkpt>
      <trkpt lat="51.836108984425664" lon="10.777806993573904">
        <ele>240.94999999999999</ele>
        <time>2017-05-22T07:43:24Z</time>
      </trkpt>
      <trkpt lat="51.83652900159359" lon="10.779177015647292">
        <ele>242.87</ele>
        <time>2017-05-22T07:43:35Z</time>
      </trkpt>
      <trkpt lat="51.836577029898763" lon="10.77930299565196">
        <ele>243.34999999999999</ele>
        <time>2017-05-22T07:43:36Z</time>
      </trkpt>
      <trkpt lat="51.836636960506439" lon="10.779402991756797">
        <ele>243.34999999999999</ele>
        <time>2017-05-22T07:43:37Z</time>
      </trkpt>
      <trkpt lat="51.836708961054683" lon="10.779487984254956">
        <ele>242.87</ele>
        <time>2017-05-22T07:43:38Z</time>
      </trkpt>
      <trkpt lat="51.836790014058352" lon="10.779555961489677">
        <ele>242.87</ele>
        <time>2017-05-22T07:43:39Z</time>
      </trkpt>
      <trkpt lat="51.836869977414608" lon="10.779609018936753">
        <ele>243.34999999999999</ele>
        <time>2017-05-22T07:43:40Z</time>
      </trkpt>
      <trkpt lat="51.836961004883051" lon="10.779633997008204">
        <ele>242.87</ele>
        <time>2017-05-22T07:43:41Z</time>
      </trkpt>
      <trkpt lat="51.837053038179874" lon="10.779644977301359">
        <ele>242.87</ele>
        <time>2017-05-22T07:43:42Z</time>
      </trkpt>
      <trkpt lat="51.837344979867339" lon="10.779649000614882">
        <ele>242.87</ele>
        <time>2017-05-22T07:43:46Z</time>
      </trkpt>
      <trkpt lat="51.837413962930441" lon="10.779670961201191">
        <ele>242.38999999999999</ele>
        <time>2017-05-22T07:43:47Z</time>
      </trkpt>
      <trkpt lat="51.837486969307065" lon="10.779703985899687">
        <ele>242.38999999999999</ele>
        <time>2017-05-22T07:43:48Z</time>
      </trkpt>
      <trkpt lat="51.83756198734045" lon="10.779756959527731">
        <ele>241.91</ele>
        <time>2017-05-22T07:43:49Z</time>
      </trkpt>
      <trkpt lat="51.837637005373836" lon="10.779825020581484">
        <ele>241.91</ele>
        <time>2017-05-22T07:43:50Z</time>
      </trkpt>
      <trkpt lat="51.837705988436937" lon="10.779912024736404">
        <ele>241.91</ele>
        <time>2017-05-22T07:43:51Z</time>
      </trkpt>
      <trkpt lat="51.837761979550123" lon="10.780017971992493">
        <ele>241.91</ele>
        <time>2017-05-22T07:43:52Z</time>
      </trkpt>
      <trkpt lat="51.837806990370154" lon="10.780134983360767">
        <ele>242.38999999999999</ele>
        <time>2017-05-22T07:43:53Z</time>
      </trkpt>
      <trkpt lat="51.837841020897031" lon="10.780264986678958">
        <ele>241.91</ele>
        <time>2017-05-22T07:43:54Z</time>
      </trkpt>
      <trkpt lat="51.837864993140101" lon="10.780402030795813">
        <ele>241.91</ele>
        <time>2017-05-22T07:43:55Z</time>
      </trkpt>
      <trkpt lat="51.83788301423192" lon="10.780538991093636">
        <ele>241.43000000000001</ele>
        <time>2017-05-22T07:43:56Z</time>
      </trkpt>
      <trkpt lat="51.837889971211553" lon="10.780662037432194">
        <ele>241.43000000000001</ele>
        <time>2017-05-22T07:43:57Z</time>
      </trkpt>
      <trkpt lat="51.837898017838597" lon="10.78078399412334">
        <ele>241.43000000000001</ele>
        <time>2017-05-22T07:43:58Z</time>
      </trkpt>
      <trkpt lat="51.837785029783845" lon="10.782406982034445">
        <ele>239.99000000000001</ele>
        <time>2017-05-22T07:44:10Z</time>
      </trkpt>
      <trkpt lat="51.837768014520407" lon="10.782669000327587">
        <ele>239.02000000000001</ele>
        <time>2017-05-22T07:44:12Z</time>
      </trkpt>
      <trkpt lat="51.837774971500039" lon="10.783177027478814">
        <ele>238.06</ele>
        <time>2017-05-22T07:44:17Z</time>
      </trkpt>
      <trkpt lat="51.837809002026916" lon="10.783306024968624">
        <ele>238.06</ele>
        <time>2017-05-22T07:44:19Z</time>
      </trkpt>
      <trkpt lat="51.837913021445274" lon="10.784972012042999">
        <ele>225.09</ele>
        <time>2017-05-22T07:45:19Z</time>
      </trkpt>
      <trkpt lat="51.838066997006536" lon="10.786982998251915">
        <ele>238.53999999999999</ele>
        <time>2017-05-22T07:45:31Z</time>
      </trkpt>
      <trkpt lat="51.838188031688333" lon="10.789609970524907">
        <ele>242.38999999999999</ele>
        <time>2017-05-22T07:45:47Z</time>
      </trkpt>
      <trkpt lat="51.838218960911036" lon="10.791131034493446">
        <ele>245.27000000000001</ele>
        <time>2017-05-22T07:45:58Z</time>
      </trkpt>
      <trkpt lat="51.83835600502789" lon="10.792001998052001">
        <ele>245.27000000000001</ele>
        <time>2017-05-22T07:46:11Z</time>
      </trkpt>
      <trkpt lat="51.838358016684651" lon="10.792087996378541">
        <ele>245.75</ele>
        <time>2017-05-22T07:46:12Z</time>
      </trkpt>
      <trkpt lat="51.838322980329394" lon="10.7921729888767">
        <ele>246.22999999999999</ele>
        <time>2017-05-22T07:46:13Z</time>
      </trkpt>
      <trkpt lat="51.83827000670135" lon="10.792244989424944">
        <ele>246.22999999999999</ele>
        <time>2017-05-22T07:46:14Z</time>
      </trkpt>
      <trkpt lat="51.838215021416545" lon="10.792311038821936">
        <ele>246.22999999999999</ele>
        <time>2017-05-22T07:46:15Z</time>
      </trkpt>
      <trkpt lat="51.838158024474978" lon="10.79236401244998">
        <ele>246.72</ele>
        <time>2017-05-22T07:46:16Z</time>
      </trkpt>
      <trkpt lat="51.838105972856283" lon="10.792412040755153">
        <ele>247.68000000000001</ele>
        <time>2017-05-22T07:46:17Z</time>
      </trkpt>
      <trkpt lat="51.837556036189198" lon="10.79290397465229">
        <ele>252.47999999999999</ele>
        <time>2017-05-22T07:46:28Z</time>
      </trkpt>
      <trkpt lat="51.83711196295917" lon="10.793086029589176">
        <ele>252.47999999999999</ele>
        <time>2017-05-22T07:46:37Z</time>
      </trkpt>
      <trkpt lat="51.837018001824617" lon="10.793172027915716">
        <ele>251.52000000000001</ele>
        <time>2017-05-22T07:46:49Z</time>
      </trkpt>
      <trkpt lat="51.836928986012936" lon="10.793405966833234">
        <ele>250.56</ele>
        <time>2017-05-22T07:46:52Z</time>
      </trkpt>
      <trkpt lat="51.836918005719781" lon="10.793507974594831">
        <ele>250.56</ele>
        <time>2017-05-22T07:46:53Z</time>
      </trkpt>
      <trkpt lat="51.836919011548162" lon="10.793607970699668">
        <ele>250.08000000000001</ele>
        <time>2017-05-22T07:46:54Z</time>
      </trkpt>
      <trkpt lat="51.836933009326458" lon="10.793705033138394">
        <ele>250.08000000000001</ele>
        <time>2017-05-22T07:46:55Z</time>
      </trkpt>
      <trkpt lat="51.836952958256006" lon="10.79378399066627">
        <ele>249.59999999999999</ele>
        <time>2017-05-22T07:46:56Z</time>
      </trkpt>
      <trkpt lat="51.836976008489728" lon="10.793854985386133">
        <ele>249.59999999999999</ele>
        <time>2017-05-22T07:46:57Z</time>
      </trkpt>
      <trkpt lat="51.836996963247657" lon="10.793922040611506">
        <ele>249.59999999999999</ele>
        <time>2017-05-22T07:46:58Z</time>
      </trkpt>
      <trkpt lat="51.837095031514764" lon="10.794371981173754">
        <ele>249.59999999999999</ele>
        <time>2017-05-22T07:47:07Z</time>
      </trkpt>
      <trkpt lat="51.837111040949821" lon="10.794546995311975">
        <ele>249.12</ele>
        <time>2017-05-22T07:47:09Z</time>
      </trkpt>
      <trkpt lat="51.837149010971189" lon="10.794635005295277">
        <ele>249.12</ele>
        <time>2017-05-22T07:47:10Z</time>
      </trkpt>
      <trkpt lat="51.837202990427613" lon="10.794714968651533">
        <ele>249.12</ele>
        <time>2017-05-22T07:47:11Z</time>
      </trkpt>
      <trkpt lat="51.837379010394216" lon="10.794976986944675">
        <ele>249.59999999999999</ele>
        <time>2017-05-22T07:47:14Z</time>
      </trkpt>
      <trkpt lat="51.837428966537118" lon="10.79509299248457">
        <ele>249.59999999999999</ele>
        <time>2017-05-22T07:47:15Z</time>
      </trkpt>
      <trkpt lat="51.83773297816515" lon="10.795896984636784">
        <ele>250.08000000000001</ele>
        <time>2017-05-22T07:47:24Z</time>
      </trkpt>
      <trkpt lat="51.837789975106716" lon="10.795930009335279">
        <ele>249.12</ele>
        <time>2017-05-22T07:47:26Z</time>
      </trkpt>
      <trkpt lat="51.837835991755128" lon="10.795898996293545">
        <ele>248.16</ele>
        <time>2017-05-22T07:47:27Z</time>
      </trkpt>
      <trkpt lat="51.837873961776495" lon="10.795863037928939">
        <ele>247.68000000000001</ele>
        <time>2017-05-22T07:47:28Z</time>
      </trkpt>
      <trkpt lat="51.837908998131752" lon="10.795828001573682">
        <ele>247.19999999999999</ele>
        <time>2017-05-22T07:47:29Z</time>
      </trkpt>
      <trkpt lat="51.837941017001867" lon="10.795788019895554">
        <ele>247.68000000000001</ele>
        <time>2017-05-22T07:47:30Z</time>
      </trkpt>
      <trkpt lat="51.838145032525063" lon="10.795599007979035">
        <ele>245.75</ele>
        <time>2017-05-22T07:47:37Z</time>
      </trkpt>
      <trkpt lat="51.838185014203191" lon="10.795550979673862">
        <ele>245.75</ele>
        <time>2017-05-22T07:47:38Z</time>
      </trkpt>
      <trkpt lat="51.838221978396177" lon="10.795497000217438">
        <ele>245.75</ele>
        <time>2017-05-22T07:47:39Z</time>
      </trkpt>
      <trkpt lat="51.838262965902686" lon="10.795445032417774">
        <ele>245.75</ele>
        <time>2017-05-22T07:47:40Z</time>
      </trkpt>
      <trkpt lat="51.838304959237576" lon="10.79539499245584">
        <ele>245.75</ele>
        <time>2017-05-22T07:47:41Z</time>
      </trkpt>
      <trkpt lat="51.838359022513032" lon="10.795300025492907">
        <ele>245.27000000000001</ele>
        <time>2017-05-22T07:47:43Z</time>
      </trkpt>
      <trkpt lat="51.838360028341413" lon="10.795257026329637">
        <ele>244.78999999999999</ele>
        <time>2017-05-22T07:47:44Z</time>
      </trkpt>
      <trkpt lat="51.838342007249594" lon="10.795233976095915">
        <ele>244.78999999999999</ele>
        <time>2017-05-22T07:47:45Z</time>
      </trkpt>
      <trkpt lat="51.838320968672633" lon="10.795232970267534">
        <ele>243.83000000000001</ele>
        <time>2017-05-22T07:47:46Z</time>
      </trkpt>
      <trkpt lat="51.838305965065956" lon="10.795255014672875">
        <ele>243.34999999999999</ele>
        <time>2017-05-22T07:47:47Z</time>
      </trkpt>
      <trkpt lat="51.838295990601182" lon="10.795277981087565">
        <ele>243.34999999999999</ele>
        <time>2017-05-22T07:47:48Z</time>
      </trkpt>
      <trkpt lat="51.83828903362155" lon="10.795304970815778">
        <ele>242.87</ele>
        <time>2017-05-22T07:47:49Z</time>
      </trkpt>
      <trkpt lat="51.838282998651266" lon="10.795325003564358">
        <ele>242.87</ele>
        <time>2017-05-22T07:47:50Z</time>
      </trkpt>
      <trkpt lat="51.838261038064957" lon="10.795421982184052">
        <ele>241.91</ele>
        <time>2017-05-22T07:47:53Z</time>
      </trkpt>
      <trkpt lat="51.838243016973138" lon="10.795456012710929">
        <ele>241.91</ele>
        <time>2017-05-22T07:47:54Z</time>
      </trkpt>
      <trkpt lat="51.8382260017097" lon="10.795477973297238">
        <ele>241.91</ele>
        <time>2017-05-22T07:47:55Z</time>
      </trkpt>
      <trkpt lat="51.838193982839584" lon="10.795504041016102">
        <ele>241.43000000000001</ele>
        <time>2017-05-22T07:48:08Z</time>
      </trkpt>
      <trkpt lat="51.838197000324726" lon="10.795505968853831">
        <ele>240.94999999999999</ele>
        <time>2017-05-22T07:50:18Z</time>
      </trkpt>
      <trkpt lat="51.83816296979785" lon="10.795542011037469">
        <ele>240.94999999999999</ele>
        <time>2017-05-22T07:50:34Z</time>
      </trkpt>
      <trkpt lat="51.838112007826567" lon="10.795570006594062">
        <ele>241.43000000000001</ele>
        <time>2017-05-22T07:50:35Z</time>
      </trkpt>
      <trkpt lat="51.837874967604876" lon="10.79569498077035">
        <ele>240.94999999999999</ele>
        <time>2017-05-22T07:50:40Z</time>
      </trkpt>
      <trkpt lat="51.837821993976831" lon="10.795663967728615">
        <ele>240.94999999999999</ele>
        <time>2017-05-22T07:50:41Z</time>
      </trkpt>
      <trkpt lat="51.837777988985181" lon="10.795603031292558">
        <ele>240.94999999999999</ele>
        <time>2017-05-22T07:50:42Z</time>
      </trkpt>
      <trkpt lat="51.837746975943446" lon="10.79552298411727">
        <ele>240.94999999999999</ele>
        <time>2017-05-22T07:50:43Z</time>
      </trkpt>
      <trkpt lat="51.837716968730092" lon="10.795431034639478">
        <ele>241.43000000000001</ele>
        <time>2017-05-22T07:50:44Z</time>
      </trkpt>
      <trkpt lat="51.837386973202229" lon="10.794505001977086">
        <ele>242.38999999999999</ele>
        <time>2017-05-22T07:50:54Z</time>
      </trkpt>
      <trkpt lat="51.837352020666003" lon="10.794323030859232">
        <ele>241.91</ele>
        <time>2017-05-22T07:50:56Z</time>
      </trkpt>
      <trkpt lat="51.837317990139127" lon="10.794267039746046">
        <ele>241.91</ele>
        <time>2017-05-22T07:50:57Z</time>
      </trkpt>
      <trkpt lat="51.837265016511083" lon="10.794246001169086">
        <ele>241.91</ele>
        <time>2017-05-22T07:50:58Z</time>
      </trkpt>
      <trkpt lat="51.837211037054658" lon="10.794267961755395">
        <ele>240.94999999999999</ele>
        <time>2017-05-22T07:50:59Z</time>
      </trkpt>
      <trkpt lat="51.837155967950821" lon="10.794334011152387">
        <ele>240.94999999999999</ele>
        <time>2017-05-22T07:51:00Z</time>
      </trkpt>
      <trkpt lat="51.837098971009254" lon="10.794417997822165">
        <ele>240.94999999999999</ele>
        <time>2017-05-22T07:51:01Z</time>
      </trkpt>
      <trkpt lat="51.836964022368193" lon="10.794529980048537">
        <ele>240.94999999999999</ele>
        <time>2017-05-22T07:51:03Z</time>
      </trkpt>
      <trkpt lat="51.836881963536143" lon="10.794563004747033">
        <ele>240.94999999999999</ele>
        <time>2017-05-22T07:51:04Z</time>
      </trkpt>
      <trkpt lat="51.835876973345876" lon="10.794911021366715">
        <ele>243.83000000000001</ele>
        <time>2017-05-22T07:51:15Z</time>
      </trkpt>
      <trkpt lat="51.835289988666773" lon="10.795083018019795">
        <ele>249.59999999999999</ele>
        <time>2017-05-22T07:51:21Z</time>
      </trkpt>
      <trkpt lat="51.835190998390317" lon="10.795064996927977">
        <ele>251.03999999999999</ele>
        <time>2017-05-22T07:51:22Z</time>
      </trkpt>
      <trkpt lat="51.835099970921874" lon="10.79502803273499">
        <ele>252.96000000000001</ele>
        <time>2017-05-22T07:51:23Z</time>
      </trkpt>
      <trkpt lat="51.835022019222379" lon="10.794983021914959">
        <ele>253.93000000000001</ele>
        <time>2017-05-22T07:51:24Z</time>
      </trkpt>
      <trkpt lat="51.834928980097175" lon="10.794924013316631">
        <ele>254.88999999999999</ele>
        <time>2017-05-22T07:51:25Z</time>
      </trkpt>
      <trkpt lat="51.834475016221404" lon="10.794550012797117">
        <ele>259.69</ele>
        <time>2017-05-22T07:51:31Z</time>
      </trkpt>
      <trkpt lat="51.834397986531258" lon="10.794549006968737">
        <ele>259.20999999999998</ele>
        <time>2017-05-22T07:51:32Z</time>
      </trkpt>
      <trkpt lat="51.834319029003382" lon="10.794569961726665">
        <ele>259.69</ele>
        <time>2017-05-22T07:51:33Z</time>
      </trkpt>
      <trkpt lat="51.834246022626758" lon="10.794622013345361">
        <ele>260.17000000000002</ele>
        <time>2017-05-22T07:51:34Z</time>
      </trkpt>
      <trkpt lat="51.834176033735275" lon="10.794681021943688">
        <ele>260.64999999999998</ele>
        <time>2017-05-22T07:51:35Z</time>
      </trkpt>
      <trkpt lat="51.834099004045129" lon="10.794752016663551">
        <ele>261.13999999999999</ele>
        <time>2017-05-22T07:51:36Z</time>
      </trkpt>
      <trkpt lat="51.833449993282557" lon="10.795216038823128">
        <ele>264.98000000000002</ele>
        <time>2017-05-22T07:51:44Z</time>
      </trkpt>
      <trkpt lat="51.833375981077552" lon="10.795226013287902">
        <ele>265.94</ele>
        <time>2017-05-22T07:51:45Z</time>
      </trkpt>
      <trkpt lat="51.833322001621127" lon="10.795216960832477">
        <ele>266.42000000000002</ele>
        <time>2017-05-22T07:51:46Z</time>
      </trkpt>
      <trkpt lat="51.833271961659193" lon="10.795184019953012">
        <ele>267.38</ele>
        <time>2017-05-22T07:51:47Z</time>
      </trkpt>
      <trkpt lat="51.833234997466207" lon="10.795130962505937">
        <ele>267.38</ele>
        <time>2017-05-22T07:51:48Z</time>
      </trkpt>
      <trkpt lat="51.833203984424472" lon="10.795063991099596">
        <ele>267.38</ele>
        <time>2017-05-22T07:51:49Z</time>
      </trkpt>
      <trkpt lat="51.833169031888247" lon="10.794966006651521">
        <ele>267.38</ele>
        <time>2017-05-22T07:51:50Z</time>
      </trkpt>
      <trkpt lat="51.833130978047848" lon="10.794861987233162">
        <ele>267.38</ele>
        <time>2017-05-22T07:51:51Z</time>
      </trkpt>
      <trkpt lat="51.832621023058891" lon="10.793529013171792">
        <ele>268.82999999999998</ele>
        <time>2017-05-22T07:52:02Z</time>
      </trkpt>
      <trkpt lat="51.832224978134036" lon="10.792389996349812">
        <ele>267.38</ele>
        <time>2017-05-22T07:52:13Z</time>
      </trkpt>
      <trkpt lat="51.832220032811165" lon="10.792341968044639">
        <ele>267.38</ele>
        <time>2017-05-22T07:52:14Z</time>
      </trkpt>
      <trkpt lat="51.832227995619178" lon="10.792292011901736">
        <ele>266.89999999999998</ele>
        <time>2017-05-22T07:52:15Z</time>
      </trkpt>
      <trkpt lat="51.832242999225855" lon="10.792245995253325">
        <ele>266.42000000000002</ele>
        <time>2017-05-22T07:52:16Z</time>
      </trkpt>
      <trkpt lat="51.832269988954067" lon="10.792201990261674">
        <ele>266.42000000000002</ele>
        <time>2017-05-22T07:52:17Z</time>
      </trkpt>
      <trkpt lat="51.832307036966085" lon="10.79217198304832">
        <ele>266.42000000000002</ele>
        <time>2017-05-22T07:52:18Z</time>
      </trkpt>
      <trkpt lat="51.832348024472594" lon="10.792138958349824">
        <ele>266.89999999999998</ele>
        <time>2017-05-22T07:52:19Z</time>
      </trkpt>
      <trkpt lat="51.8324030097574" lon="10.79210702329874">
        <ele>267.86000000000001</ele>
        <time>2017-05-22T07:52:20Z</time>
      </trkpt>
      <trkpt lat="51.83279100805521" lon="10.791900996118784">
        <ele>265.45999999999998</ele>
        <time>2017-05-22T07:52:29Z</time>
      </trkpt>
      <trkpt lat="51.832871977239847" lon="10.792009038850665">
        <ele>262.57999999999998</ele>
        <time>2017-05-22T07:52:33Z</time>
      </trkpt>
      <trkpt lat="51.832967028021812" lon="10.792260998860002">
        <ele>262.10000000000002</ele>
        <time>2017-05-22T07:52:37Z</time>
      </trkpt>
      <trkpt lat="51.833061994984746" lon="10.792061006650329">
        <ele>261.13999999999999</ele>
        <time>2017-05-22T07:52:44Z</time>
      </trkpt>
      <trkpt lat="51.833026958629489" lon="10.791906025260687">
        <ele>259.69</ele>
        <time>2017-05-22T07:52:47Z</time>
      </trkpt>
      <trkpt lat="51.833105999976397" lon="10.791711984202266">
        <ele>259.20999999999998</ele>
        <time>2017-05-22T07:52:52Z</time>
      </trkpt>
      <trkpt lat="51.833151010796428" lon="10.79167895950377">
        <ele>259.20999999999998</ele>
        <time>2017-05-22T07:52:53Z</time>
      </trkpt>
      <trkpt lat="51.833209013566375" lon="10.79163696616888">
        <ele>259.20999999999998</ele>
        <time>2017-05-22T07:52:54Z</time>
      </trkpt>
      <trkpt lat="51.833569016307592" lon="10.791451977565885">
        <ele>258.25</ele>
        <time>2017-05-22T07:52:59Z</time>
      </trkpt>
      <trkpt lat="51.833634981885552" lon="10.791460024192929">
        <ele>258.25</ele>
        <time>2017-05-22T07:53:00Z</time>
      </trkpt>
      <trkpt lat="51.833691978827119" lon="10.79148500226438">
        <ele>258.25</ele>
        <time>2017-05-22T07:53:01Z</time>
      </trkpt>
      <trkpt lat="51.833745036274195" lon="10.791523978114128">
        <ele>258.25</ele>
        <time>2017-05-22T07:53:02Z</time>
      </trkpt>
      <trkpt lat="51.833792980760336" lon="10.79157100059092">
        <ele>258.25</ele>
        <time>2017-05-22T07:53:03Z</time>
      </trkpt>
      <trkpt lat="51.833829022943974" lon="10.791635038331151">
        <ele>257.76999999999998</ele>
        <time>2017-05-22T07:53:04Z</time>
      </trkpt>
      <trkpt lat="51.833857018500566" lon="10.791697986423969">
        <ele>257.76999999999998</ele>
        <time>2017-05-22T07:53:05Z</time>
      </trkpt>
      <trkpt lat="51.833877973258495" lon="10.791766969487071">
        <ele>257.76999999999998</ele>
        <time>2017-05-22T07:53:06Z</time>
      </trkpt>
      <trkpt lat="51.834001019597054" lon="10.792120015248656">
        <ele>258.25</ele>
        <time>2017-05-22T07:53:11Z</time>
      </trkpt>
      <trkpt lat="51.834322968497872" lon="10.793186025694013">
        <ele>259.69</ele>
        <time>2017-05-22T07:53:22Z</time>
      </trkpt>
      <trkpt lat="51.834470992907882" lon="10.793821038678288">
        <ele>262.57999999999998</ele>
        <time>2017-05-22T07:53:28Z</time>
      </trkpt>
      <trkpt lat="51.834476022049785" lon="10.793919023126364">
        <ele>262.10000000000002</ele>
        <time>2017-05-22T07:53:29Z</time>
      </trkpt>
      <trkpt lat="51.834469987079501" lon="10.794008960947394">
        <ele>262.57999999999998</ele>
        <time>2017-05-22T07:53:30Z</time>
      </trkpt>
      <trkpt lat="51.834463030099869" lon="10.794107029214501">
        <ele>263.54000000000002</ele>
        <time>2017-05-22T07:53:31Z</time>
      </trkpt>
      <trkpt lat="51.834452971816063" lon="10.794195039197803">
        <ele>264.01999999999998</ele>
        <time>2017-05-22T07:53:32Z</time>
      </trkpt>
      <trkpt lat="51.834393963217735" lon="10.794439958408475">
        <ele>265.45999999999998</ele>
        <time>2017-05-22T07:53:40Z</time>
      </trkpt>
      <trkpt lat="51.834072014316916" lon="10.794756961986423">
        <ele>267.38</ele>
        <time>2017-05-22T07:53:46Z</time>
      </trkpt>
      <trkpt lat="51.833420991897583" lon="10.795239005237818">
        <ele>268.35000000000002</ele>
        <time>2017-05-22T07:53:58Z</time>
      </trkpt>
      <trkpt lat="51.833376986905932" lon="10.795230036601424">
        <ele>267.86000000000001</ele>
        <time>2017-05-22T07:53:59Z</time>
      </trkpt>
      <trkpt lat="51.833342034369707" lon="10.795213021337986">
        <ele>267.86000000000001</ele>
        <time>2017-05-22T07:54:00Z</time>
      </trkpt>
      <trkpt lat="51.833304986357689" lon="10.795177984982729">
        <ele>267.38</ele>
        <time>2017-05-22T07:54:01Z</time>
      </trkpt>
      <trkpt lat="51.833265004679561" lon="10.795124005526304">
        <ele>267.38</ele>
        <time>2017-05-22T07:54:02Z</time>
      </trkpt>
      <trkpt lat="51.833226028829813" lon="10.795047981664538">
        <ele>267.38</ele>
        <time>2017-05-22T07:54:03Z</time>
      </trkpt>
      <trkpt lat="51.833195015788078" lon="10.794957960024476">
        <ele>266.89999999999998</ele>
        <time>2017-05-22T07:54:04Z</time>
      </trkpt>
      <trkpt lat="51.833166014403105" lon="10.794861987233162">
        <ele>267.38</ele>
        <time>2017-05-22T07:54:05Z</time>
      </trkpt>
      <trkpt lat="51.83264097198844" lon="10.79341602511704">
        <ele>264.98000000000002</ele>
        <time>2017-05-22T07:54:17Z</time>
      </trkpt>
      <trkpt lat="51.83250904083252" lon="10.793077982962132">
        <ele>264.01999999999998</ele>
        <time>2017-05-22T07:54:20Z</time>
      </trkpt>
      <trkpt lat="51.832244005054235" lon="10.792324030771852">
        <ele>262.57999999999998</ele>
        <time>2017-05-22T07:54:30Z</time>
      </trkpt>
      <trkpt lat="51.832048958167434" lon="10.791660016402602">
        <ele>258.25</ele>
        <time>2017-05-22T07:54:40Z</time>
      </trkpt>
      <trkpt lat="51.83203998953104" lon="10.791581980884075">
        <ele>257.76999999999998</ele>
        <time>2017-05-22T07:54:41Z</time>
      </trkpt>
      <trkpt lat="51.832073014229536" lon="10.791208986192942">
        <ele>254.88999999999999</ele>
        <time>2017-05-22T07:54:47Z</time>
      </trkpt>
      <trkpt lat="51.832108972594142" lon="10.791176967322826">
        <ele>254.41</ele>
        <time>2017-05-22T07:54:48Z</time>
      </trkpt>
      <trkpt lat="51.832158006727695" lon="10.791143020614982">
        <ele>254.41</ele>
        <time>2017-05-22T07:54:49Z</time>
      </trkpt>
      <trkpt lat="51.832209974527359" lon="10.791115025058389">
        <ele>253.93000000000001</ele>
        <time>2017-05-22T07:54:50Z</time>
      </trkpt>
      <trkpt lat="51.832260014489293" lon="10.791089963167906">
        <ele>253.44</ele>
        <time>2017-05-22T07:54:51Z</time>
      </trkpt>
      <trkpt lat="51.832497976720333" lon="10.790970018133521">
        <ele>254.41</ele>
        <time>2017-05-22T07:54:58Z</time>
      </trkpt>
      <trkpt lat="51.832508035004139" lon="10.79092601314187">
        <ele>254.41</ele>
        <time>2017-05-22T07:54:59Z</time>
      </trkpt>
      <trkpt lat="51.832509962841868" lon="10.790871027857065">
        <ele>253.44</ele>
        <time>2017-05-22T07:55:00Z</time>
      </trkpt>
      <trkpt lat="51.83250904083252" lon="10.790807995945215">
        <ele>252.96000000000001</ele>
        <time>2017-05-22T07:55:01Z</time>
      </trkpt>
      <trkpt lat="51.832508035004139" lon="10.790734989568591">
        <ele>252.47999999999999</ele>
        <time>2017-05-22T07:55:02Z</time>
      </trkpt>
      <trkpt lat="51.832496970891953" lon="10.790658965706825">
        <ele>252</ele>
        <time>2017-05-22T07:55:03Z</time>
      </trkpt>
      <trkpt lat="51.832454977557063" lon="10.790261998772621">
        <ele>250.56</ele>
        <time>2017-05-22T07:55:08Z</time>
      </trkpt>
      <trkpt lat="51.832380965352058" lon="10.789928985759616">
        <ele>249.12</ele>
        <time>2017-05-22T07:55:12Z</time>
      </trkpt>
      <trkpt lat="51.832334026694298" lon="10.789612988010049">
        <ele>248.63999999999999</ele>
        <time>2017-05-22T07:55:16Z</time>
      </trkpt>
      <trkpt lat="51.83218901976943" lon="10.789243010804057">
        <ele>248.16</ele>
        <time>2017-05-22T07:55:25Z</time>
      </trkpt>
      <trkpt lat="51.832138979807496" lon="10.789249967783689">
        <ele>248.16</ele>
        <time>2017-05-22T07:55:26Z</time>
      </trkpt>
      <trkpt lat="51.832089023664594" lon="10.789277041330934">
        <ele>248.16</ele>
        <time>2017-05-22T07:55:27Z</time>
      </trkpt>
      <trkpt lat="51.832037977874279" lon="10.789315011352301">
        <ele>248.16</ele>
        <time>2017-05-22T07:55:28Z</time>
      </trkpt>
      <trkpt lat="51.831988021731377" lon="10.789359016343951">
        <ele>248.16</ele>
        <time>2017-05-22T07:55:29Z</time>
      </trkpt>
      <trkpt lat="51.8313720356673" lon="10.789791019633412">
        <ele>252.96000000000001</ele>
        <time>2017-05-22T07:55:41Z</time>
      </trkpt>
      <trkpt lat="51.831314032897353" lon="10.789833012968302">
        <ele>254.41</ele>
        <time>2017-05-22T07:55:47Z</time>
      </trkpt>
      <trkpt lat="51.831290982663631" lon="10.789799988269806">
        <ele>254.41</ele>
        <time>2017-05-22T07:55:48Z</time>
      </trkpt>
      <trkpt lat="51.831278996542096" lon="10.789738968014717">
        <ele>254.88999999999999</ele>
        <time>2017-05-22T07:55:49Z</time>
      </trkpt>
      <trkpt lat="51.831246977671981" lon="10.789364967495203">
        <ele>254.88999999999999</ele>
        <time>2017-05-22T07:55:53Z</time>
      </trkpt>
      <trkpt lat="51.83122300542891" lon="10.788773037493229">
        <ele>253.93000000000001</ele>
        <time>2017-05-22T07:56:02Z</time>
      </trkpt>
      <trkpt lat="51.83117900043726" lon="10.788731966167688">
        <ele>252.47999999999999</ele>
        <time>2017-05-22T07:56:07Z</time>
      </trkpt>
      <trkpt lat="51.831147987395525" lon="10.788724003359675">
        <ele>252.47999999999999</ele>
        <time>2017-05-22T07:56:08Z</time>
      </trkpt>
      <trkpt lat="51.831105994060636" lon="10.788738001137972">
        <ele>252.96000000000001</ele>
        <time>2017-05-22T07:56:09Z</time>
      </trkpt>
      <trkpt lat="51.830668961629272" lon="10.788893988355994">
        <ele>252.47999999999999</ele>
        <time>2017-05-22T07:56:16Z</time>
      </trkpt>
      <trkpt lat="51.830619005486369" lon="10.788942016661167">
        <ele>252.47999999999999</ele>
        <time>2017-05-22T07:56:17Z</time>
      </trkpt>
      <trkpt lat="51.830583969131112" lon="10.789015023037791">
        <ele>252.47999999999999</ele>
        <time>2017-05-22T07:56:18Z</time>
      </trkpt>
      <trkpt lat="51.830568965524435" lon="10.789109990000725">
        <ele>252.47999999999999</ele>
        <time>2017-05-22T07:56:19Z</time>
      </trkpt>
      <trkpt lat="51.830580029636621" lon="10.78920696862042">
        <ele>252</ele>
        <time>2017-05-22T07:56:20Z</time>
      </trkpt>
      <trkpt lat="51.830601990222931" lon="10.789297996088862">
        <ele>252.47999999999999</ele>
        <time>2017-05-22T07:56:21Z</time>
      </trkpt>
      <trkpt lat="51.830628979951143" lon="10.789377959445119">
        <ele>252.47999999999999</ele>
        <time>2017-05-22T07:56:22Z</time>
      </trkpt>
      <trkpt lat="51.830653036013246" lon="10.789445014670491">
        <ele>252</ele>
        <time>2017-05-22T07:56:23Z</time>
      </trkpt>
      <trkpt lat="51.830867026001215" lon="10.789957987144589">
        <ele>252</ele>
        <time>2017-05-22T07:56:34Z</time>
      </trkpt>
      <trkpt lat="51.83087901212275" lon="10.790014984086156">
        <ele>252</ele>
        <time>2017-05-22T07:56:35Z</time>
      </trkpt>
      <trkpt lat="51.830885969102383" lon="10.790082961320877">
        <ele>252.47999999999999</ele>
        <time>2017-05-22T07:56:36Z</time>
      </trkpt>
      <trkpt lat="51.830875994637609" lon="10.790154961869121">
        <ele>252.47999999999999</ele>
        <time>2017-05-22T07:56:37Z</time>
      </trkpt>
      <trkpt lat="51.830855961889029" lon="10.790224028751254">
        <ele>252.47999999999999</ele>
        <time>2017-05-22T07:56:38Z</time>
      </trkpt>
      <trkpt lat="51.8308159802109" lon="10.790295023471117">
        <ele>252.96000000000001</ele>
        <time>2017-05-22T07:56:39Z</time>
      </trkpt>
      <trkpt lat="51.830767029896379" lon="10.79036601819098">
        <ele>252.96000000000001</ele>
        <time>2017-05-22T07:56:40Z</time>
      </trkpt>
      <trkpt lat="51.830712966620922" lon="10.790437012910843">
        <ele>253.44</ele>
        <time>2017-05-22T07:56:41Z</time>
      </trkpt>
      <trkpt lat="51.830651024356484" lon="10.790510019287467">
        <ele>253.44</ele>
        <time>2017-05-22T07:56:42Z</time>
      </trkpt>
      <trkpt lat="51.829877039417624" lon="10.791308982297778">
        <ele>253.93000000000001</ele>
        <time>2017-05-22T07:56:52Z</time>
      </trkpt>
      <trkpt lat="51.828496959060431" lon="10.792897017672658">
        <ele>255.84999999999999</ele>
        <time>2017-05-22T07:57:09Z</time>
      </trkpt>
      <trkpt lat="51.827551983296871" lon="10.7941709831357">
        <ele>257.76999999999998</ele>
        <time>2017-05-22T07:57:21Z</time>
      </trkpt>
      <trkpt lat="51.827486017718911" lon="10.794309033080935">
        <ele>257.76999999999998</ele>
        <time>2017-05-22T07:57:22Z</time>
      </trkpt>
      <trkpt lat="51.826991988345981" lon="10.795997986570001">
        <ele>259.20999999999998</ele>
        <time>2017-05-22T07:57:32Z</time>
      </trkpt>
      <trkpt lat="51.826751008629799" lon="10.796798961237073">
        <ele>259.69</ele>
        <time>2017-05-22T07:57:37Z</time>
      </trkpt>
      <trkpt lat="51.825963025912642" lon="10.798556981608272">
        <ele>261.62</ele>
        <time>2017-05-22T07:57:48Z</time>
      </trkpt>
      <trkpt lat="51.825299011543393" lon="10.800935011357069">
        <ele>266.89999999999998</ele>
        <time>2017-05-22T07:58:02Z</time>
      </trkpt>
      <trkpt lat="51.824379013851285" lon="10.803335001692176">
        <ele>271.23000000000002</ele>
        <time>2017-05-22T07:58:16Z</time>
      </trkpt>
      <trkpt lat="51.823753975331783" lon="10.805297959595919">
        <ele>275.06999999999999</ele>
        <time>2017-05-22T07:58:27Z</time>
      </trkpt>
      <trkpt lat="51.823149975389242" lon="10.808111010119319">
        <ele>276.51999999999998</ele>
        <time>2017-05-22T07:58:42Z</time>
      </trkpt>
      <trkpt lat="51.822612024843693" lon="10.810310002416372">
        <ele>278.92000000000002</ele>
        <time>2017-05-22T07:58:53Z</time>
      </trkpt>
      <trkpt lat="51.82252099737525" lon="10.810489039868116">
        <ele>278.92000000000002</ele>
        <time>2017-05-22T07:58:54Z</time>
      </trkpt>
      <trkpt lat="51.822413960471749" lon="10.810650978237391">
        <ele>279.39999999999998</ele>
        <time>2017-05-22T07:58:55Z</time>
      </trkpt>
      <trkpt lat="51.822297032922506" lon="10.8107990026474">
        <ele>279.88</ele>
        <time>2017-05-22T07:58:56Z</time>
      </trkpt>
      <trkpt lat="51.822174992412329" lon="10.810933029279113">
        <ele>279.88</ele>
        <time>2017-05-22T07:58:57Z</time>
      </trkpt>
      <trkpt lat="51.822051024064422" lon="10.811059009283781">
        <ele>280.36000000000001</ele>
        <time>2017-05-22T07:58:58Z</time>
      </trkpt>
      <trkpt lat="51.820817962288857" lon="10.812198026105762">
        <ele>282.76999999999998</ele>
        <time>2017-05-22T07:59:09Z</time>
      </trkpt>
      <trkpt lat="51.819893019273877" lon="10.813431004062295">
        <ele>285.64999999999998</ele>
        <time>2017-05-22T07:59:19Z</time>
      </trkpt>
      <trkpt lat="51.818671021610498" lon="10.814809994772077">
        <ele>289.49000000000001</ele>
        <time>2017-05-22T07:59:31Z</time>
      </trkpt>
      <trkpt lat="51.817534016445279" lon="10.815276028588414">
        <ele>292.38</ele>
        <time>2017-05-22T07:59:40Z</time>
      </trkpt>
      <trkpt lat="51.816285029053688" lon="10.815378958359361">
        <ele>294.77999999999997</ele>
        <time>2017-05-22T07:59:47Z</time>
      </trkpt>
      <trkpt lat="51.815122039988637" lon="10.815455988049507">
        <ele>297.18000000000001</ele>
        <time>2017-05-22T07:59:54Z</time>
      </trkpt>
      <trkpt lat="51.813709018751979" lon="10.815228000283241">
        <ele>297.18000000000001</ele>
        <time>2017-05-22T08:00:03Z</time>
      </trkpt>
      <trkpt lat="51.812064992263913" lon="10.814167018979788">
        <ele>302.47000000000003</ele>
        <time>2017-05-22T08:00:13Z</time>
      </trkpt>
      <trkpt lat="51.810903009027243" lon="10.813483977690339">
        <ele>307.27999999999997</ele>
        <time>2017-05-22T08:00:20Z</time>
      </trkpt>
      <trkpt lat="51.810716008767486" lon="10.813489006832242">
        <ele>307.75999999999999</ele>
        <time>2017-05-22T08:00:21Z</time>
      </trkpt>
      <trkpt lat="51.809411030262709" lon="10.813734009861946">
        <ele>311.60000000000002</ele>
        <time>2017-05-22T08:00:27Z</time>
      </trkpt>
      <trkpt lat="51.808302020654082" lon="10.813555978238583">
        <ele>315.93000000000001</ele>
        <time>2017-05-22T08:00:33Z</time>
      </trkpt>
      <trkpt lat="51.808127006515861" lon="10.81346302293241">
        <ele>316.41000000000003</ele>
        <time>2017-05-22T08:00:34Z</time>
      </trkpt>
      <trkpt lat="51.807960039004683" lon="10.813335031270981">
        <ele>316.88999999999999</ele>
        <time>2017-05-22T08:00:35Z</time>
      </trkpt>
      <trkpt lat="51.807796005159616" lon="10.813169991597533">
        <ele>317.85000000000002</ele>
        <time>2017-05-22T08:00:36Z</time>
      </trkpt>
      <trkpt lat="51.807643035426736" lon="10.81296899355948">
        <ele>318.81</ele>
        <time>2017-05-22T08:00:37Z</time>
      </trkpt>
      <trkpt lat="51.807572040706873" lon="10.812662970274687">
        <ele>318.81</ele>
        <time>2017-05-22T08:00:38Z</time>
      </trkpt>
      <trkpt lat="51.807508002966642" lon="10.812361976131797">
        <ele>319.30000000000001</ele>
        <time>2017-05-22T08:00:39Z</time>
      </trkpt>
      <trkpt lat="51.807491993531585" lon="10.812029968947172">
        <ele>319.77999999999997</ele>
        <time>2017-05-22T08:00:40Z</time>
      </trkpt>
      <trkpt lat="51.807533986866474" lon="10.811644988134503">
        <ele>322.18000000000001</ele>
        <time>2017-05-22T08:00:41Z</time>
      </trkpt>
      <trkpt lat="51.807577991858125" lon="10.811309963464737">
        <ele>322.66000000000003</ele>
        <time>2017-05-22T08:00:42Z</time>
      </trkpt>
      <trkpt lat="51.807637000456452" lon="10.810963036492467">
        <ele>323.13999999999999</ele>
        <time>2017-05-22T08:00:43Z</time>
      </trkpt>
      <trkpt lat="51.807721992954612" lon="10.808855993673205">
        <ele>326.5</ele>
        <time>2017-05-22T08:00:49Z</time>
      </trkpt>
      <trkpt lat="51.807648986577988" lon="10.808520969003439">
        <ele>326.5</ele>
        <time>2017-05-22T08:00:50Z</time>
      </trkpt>
      <trkpt lat="51.807543961331248" lon="10.808194996789098">
        <ele>326.99000000000001</ele>
        <time>2017-05-22T08:00:51Z</time>
      </trkpt>
      <trkpt lat="51.807413036003709" lon="10.807882016524673">
        <ele>327.47000000000003</ele>
        <time>2017-05-22T08:00:52Z</time>
      </trkpt>
      <trkpt lat="51.807278003543615" lon="10.807569036260247">
        <ele>328.43000000000001</ele>
        <time>2017-05-22T08:00:53Z</time>
      </trkpt>
      <trkpt lat="51.806841976940632" lon="10.806707041338086">
        <ele>331.31</ele>
        <time>2017-05-22T08:00:56Z</time>
      </trkpt>
      <trkpt lat="51.806661011651158" lon="10.806495985016227">
        <ele>332.26999999999998</ele>
        <time>2017-05-22T08:00:57Z</time>
      </trkpt>
      <trkpt lat="51.80644802749157" lon="10.806324994191527">
        <ele>333.23000000000002</ele>
        <time>2017-05-22T08:00:58Z</time>
      </trkpt>
      <trkpt lat="51.806225990876555" lon="10.806199014186859">
        <ele>334.19999999999999</ele>
        <time>2017-05-22T08:00:59Z</time>
      </trkpt>
      <trkpt lat="51.806006971746683" lon="10.806129025295377">
        <ele>335.63999999999999</ele>
        <time>2017-05-22T08:01:00Z</time>
      </trkpt>
      <trkpt lat="51.805788958445191" lon="10.806130031123757">
        <ele>336.60000000000002</ele>
        <time>2017-05-22T08:01:01Z</time>
      </trkpt>
      <trkpt lat="51.805557031184435" lon="10.806172024458647">
        <ele>337.07999999999998</ele>
        <time>2017-05-22T08:01:02Z</time>
      </trkpt>
      <trkpt lat="51.805322002619505" lon="10.806232960894704">
        <ele>338.04000000000002</ele>
        <time>2017-05-22T08:01:03Z</time>
      </trkpt>
      <trkpt lat="51.803621985018253" lon="10.806770995259285">
        <ele>349.10000000000002</ele>
        <time>2017-05-22T08:01:11Z</time>
      </trkpt>
      <trkpt lat="51.803083028644323" lon="10.806862022727728">
        <ele>352.45999999999998</ele>
        <time>2017-05-22T08:01:14Z</time>
      </trkpt>
      <trkpt lat="51.802902985364199" lon="10.806850036606193">
        <ele>353.89999999999998</ele>
        <time>2017-05-22T08:01:15Z</time>
      </trkpt>
      <trkpt lat="51.802717996761203" lon="10.806807037442923">
        <ele>354.86000000000001</ele>
        <time>2017-05-22T08:01:16Z</time>
      </trkpt>
      <trkpt lat="51.802571984007955" lon="10.806751968339086">
        <ele>355.33999999999997</ele>
        <time>2017-05-22T08:01:17Z</time>
      </trkpt>
      <trkpt lat="51.802394958212972" lon="10.806640991941094">
        <ele>356.31</ele>
        <time>2017-05-22T08:01:18Z</time>
      </trkpt>
      <trkpt lat="51.801471021026373" lon="10.806316025555134">
        <ele>358.70999999999998</ele>
        <time>2017-05-22T08:01:23Z</time>
      </trkpt>
      <trkpt lat="51.801229035481811" lon="10.806346032768488">
        <ele>360.14999999999998</ele>
        <time>2017-05-22T08:01:24Z</time>
      </trkpt>
      <trkpt lat="51.800975985825062" lon="10.806432031095028">
        <ele>361.11000000000001</ele>
        <time>2017-05-22T08:01:25Z</time>
      </trkpt>
      <trkpt lat="51.800763001665473" lon="10.806627999991179">
        <ele>364.95999999999998</ele>
        <time>2017-05-22T08:01:26Z</time>
      </trkpt>
      <trkpt lat="51.800535013899207" lon="10.806820029392838">
        <ele>366.88</ele>
        <time>2017-05-22T08:01:27Z</time>
      </trkpt>
      <trkpt lat="51.798978997394443" lon="10.807638019323349">
        <ele>376.00999999999999</ele>
        <time>2017-05-22T08:01:34Z</time>
      </trkpt>
      <trkpt lat="51.798770036548376" lon="10.80757699906826">
        <ele>376.97000000000003</ele>
        <time>2017-05-22T08:01:35Z</time>
      </trkpt>
      <trkpt lat="51.7985650151968" lon="10.807481026276946">
        <ele>377.94</ele>
        <time>2017-05-22T08:01:36Z</time>
      </trkpt>
      <trkpt lat="51.798378014937043" lon="10.807305006310344">
        <ele>379.38</ele>
        <time>2017-05-22T08:01:37Z</time>
      </trkpt>
      <trkpt lat="51.798208029940724" lon="10.807072995230556">
        <ele>381.30000000000001</ele>
        <time>2017-05-22T08:01:38Z</time>
      </trkpt>
      <trkpt lat="51.798038966953754" lon="10.806820029392838">
        <ele>382.25999999999999</ele>
        <time>2017-05-22T08:01:39Z</time>
      </trkpt>
      <trkpt lat="51.797706037759781" lon="10.80639598891139">
        <ele>384.66000000000003</ele>
        <time>2017-05-22T08:01:41Z</time>
      </trkpt>
      <trkpt lat="51.797534041106701" lon="10.80626699142158">
        <ele>386.11000000000001</ele>
        <time>2017-05-22T08:01:42Z</time>
      </trkpt>
      <trkpt lat="51.797345029190183" lon="10.806185016408563">
        <ele>387.06999999999999</ele>
        <time>2017-05-22T08:01:43Z</time>
      </trkpt>
      <trkpt lat="51.797152999788523" lon="10.806118967011571">
        <ele>388.02999999999997</ele>
        <time>2017-05-22T08:01:44Z</time>
      </trkpt>
      <trkpt lat="51.796947978436947" lon="10.806083008646965">
        <ele>389.47000000000003</ele>
        <time>2017-05-22T08:01:45Z</time>
      </trkpt>
      <trkpt lat="51.796338027343154" lon="10.805959040299058">
        <ele>393.80000000000001</ele>
        <time>2017-05-22T08:01:48Z</time>
      </trkpt>
      <trkpt lat="51.796142980456352" lon="10.805967003107071">
        <ele>394.27999999999997</ele>
        <time>2017-05-22T08:01:49Z</time>
      </trkpt>
      <trkpt lat="51.79594399407506" lon="10.806016959249973">
        <ele>395.24000000000001</ele>
        <time>2017-05-22T08:01:50Z</time>
      </trkpt>
      <trkpt lat="51.795765040442348" lon="10.806120978668332">
        <ele>395.72000000000003</ele>
        <time>2017-05-22T08:01:51Z</time>
      </trkpt>
      <trkpt lat="51.795631013810635" lon="10.806316025555134">
        <ele>398.60000000000002</ele>
        <time>2017-05-22T08:01:52Z</time>
      </trkpt>
      <trkpt lat="51.795507967472076" lon="10.806525992229581">
        <ele>399.56999999999999</ele>
        <time>2017-05-22T08:01:53Z</time>
      </trkpt>
      <trkpt lat="51.795406965538859" lon="10.80678197555244">
        <ele>400.52999999999997</ele>
        <time>2017-05-22T08:01:54Z</time>
      </trkpt>
      <trkpt lat="51.795319961383939" lon="10.807065032422543">
        <ele>401.49000000000001</ele>
        <time>2017-05-22T08:01:55Z</time>
      </trkpt>
      <trkpt lat="51.79523597471416" lon="10.80736099742353">
        <ele>402.93000000000001</ele>
        <time>2017-05-22T08:01:56Z</time>
      </trkpt>
      <trkpt lat="51.794618982821703" lon="10.81024001352489">
        <ele>411.10000000000002</ele>
        <time>2017-05-22T08:02:04Z</time>
      </trkpt>
      <trkpt lat="51.794293010607362" lon="10.813680030405521">
        <ele>420.23000000000002</ele>
        <time>2017-05-22T08:02:13Z</time>
      </trkpt>
      <trkpt lat="51.794312037527561" lon="10.814506988972425">
        <ele>425.51999999999998</ele>
        <time>2017-05-22T08:02:16Z</time>
      </trkpt>
      <trkpt lat="51.794534996151924" lon="10.815920010209084">
        <ele>436.10000000000002</ele>
        <time>2017-05-22T08:02:22Z</time>
      </trkpt>
      <trkpt lat="51.794542958959937" lon="10.816130982711911">
        <ele>438.01999999999998</ele>
        <time>2017-05-22T08:02:23Z</time>
      </trkpt>
      <trkpt lat="51.794531978666782" lon="10.816340027377009">
        <ele>439.45999999999998</ele>
        <time>2017-05-22T08:02:24Z</time>
      </trkpt>
      <trkpt lat="51.794510018080473" lon="10.81653599627316">
        <ele>439.45999999999998</ele>
        <time>2017-05-22T08:02:25Z</time>
      </trkpt>
      <trkpt lat="51.794479005038738" lon="10.816744035109878">
        <ele>440.89999999999998</ele>
        <time>2017-05-22T08:02:26Z</time>
      </trkpt>
      <trkpt lat="51.794440029188991" lon="10.816959030926228">
        <ele>442.33999999999997</ele>
        <time>2017-05-22T08:02:27Z</time>
      </trkpt>
      <trkpt lat="51.794400969520211" lon="10.817168997600675">
        <ele>444.75</ele>
        <time>2017-05-22T08:02:28Z</time>
      </trkpt>
      <trkpt lat="51.794339027255774" lon="10.817355997860432">
        <ele>445.23000000000002</ele>
        <time>2017-05-22T08:02:29Z</time>
      </trkpt>
      <trkpt lat="51.794256968423724" lon="10.817529000341892">
        <ele>446.67000000000002</ele>
        <time>2017-05-22T08:02:30Z</time>
      </trkpt>
      <trkpt lat="51.794162001460791" lon="10.817689010873437">
        <ele>447.63</ele>
        <time>2017-05-22T08:02:31Z</time>
      </trkpt>
      <trkpt lat="51.794053958728909" lon="10.81782697699964">
        <ele>449.06999999999999</ele>
        <time>2017-05-22T08:02:32Z</time>
      </trkpt>
      <trkpt lat="51.793938037008047" lon="10.817936025559902">
        <ele>450.51999999999998</ele>
        <time>2017-05-22T08:02:33Z</time>
      </trkpt>
      <trkpt lat="51.793811973184347" lon="10.818011965602636">
        <ele>451.95999999999998</ele>
        <time>2017-05-22T08:02:34Z</time>
      </trkpt>
      <trkpt lat="51.793682975694537" lon="10.818052031099796">
        <ele>454.36000000000001</ele>
        <time>2017-05-22T08:02:35Z</time>
      </trkpt>
      <trkpt lat="51.793545009568334" lon="10.818079020828009">
        <ele>454.36000000000001</ele>
        <time>2017-05-22T08:02:36Z</time>
      </trkpt>
      <trkpt lat="51.793406959623098" lon="10.81810500472784">
        <ele>455.80000000000001</ele>
        <time>2017-05-22T08:02:37Z</time>
      </trkpt>
      <trkpt lat="51.792970011010766" lon="10.818069968372583">
        <ele>460.61000000000001</ele>
        <time>2017-05-22T08:02:40Z</time>
      </trkpt>
      <trkpt lat="51.792817963287234" lon="10.817992016673088">
        <ele>462.05000000000001</ele>
        <time>2017-05-22T08:02:41Z</time>
      </trkpt>
      <trkpt lat="51.792630963027477" lon="10.81784600391984">
        <ele>462.52999999999997</ele>
        <time>2017-05-22T08:02:42Z</time>
      </trkpt>
      <trkpt lat="51.792490985244513" lon="10.817723041400313">
        <ele>463.00999999999999</ele>
        <time>2017-05-22T08:02:43Z</time>
      </trkpt>
      <trkpt lat="51.792365005239844" lon="10.817580968141556">
        <ele>464.44999999999999</ele>
        <time>2017-05-22T08:02:44Z</time>
      </trkpt>
      <trkpt lat="51.792254028841853" lon="10.817411988973618">
        <ele>466.38</ele>
        <time>2017-05-22T08:02:45Z</time>
      </trkpt>
      <trkpt lat="51.792154032737017" lon="10.817200010642409">
        <ele>466.86000000000001</ele>
        <time>2017-05-22T08:02:46Z</time>
      </trkpt>
      <trkpt lat="51.792046995833516" lon="10.81694302149117">
        <ele>467.33999999999997</ele>
        <time>2017-05-22T08:02:47Z</time>
      </trkpt>
      <trkpt lat="51.791940964758396" lon="10.816633980721235">
        <ele>468.30000000000001</ele>
        <time>2017-05-22T08:02:48Z</time>
      </trkpt>
      <trkpt lat="51.791839962825179" lon="10.816269032657146">
        <ele>468.77999999999997</ele>
        <time>2017-05-22T08:02:49Z</time>
      </trkpt>
      <trkpt lat="51.791262030601501" lon="10.813995022326708">
        <ele>474.06999999999999</ele>
        <time>2017-05-22T08:02:54Z</time>
      </trkpt>
      <trkpt lat="51.790859028697014" lon="10.812223004177213">
        <ele>481.75999999999999</ele>
        <time>2017-05-22T08:02:59Z</time>
      </trkpt>
      <trkpt lat="51.790752997621894" lon="10.811956040561199">
        <ele>483.68000000000001</ele>
        <time>2017-05-22T08:03:00Z</time>
      </trkpt>
      <trkpt lat="51.790640009567142" lon="10.811728974804282">
        <ele>485.60000000000002</ele>
        <time>2017-05-22T08:03:01Z</time>
      </trkpt>
      <trkpt lat="51.790499025955796" lon="10.811540968716145">
        <ele>488.00999999999999</ele>
        <time>2017-05-22T08:03:02Z</time>
      </trkpt>
      <trkpt lat="51.790351001545787" lon="10.811396967619658">
        <ele>489.93000000000001</ele>
        <time>2017-05-22T08:03:03Z</time>
      </trkpt>
      <trkpt lat="51.790204988792539" lon="10.811290014535189">
        <ele>491.85000000000002</ele>
        <time>2017-05-22T08:03:04Z</time>
      </trkpt>
      <trkpt lat="51.790062999352813" lon="10.81120703369379">
        <ele>493.29000000000002</ele>
        <time>2017-05-22T08:03:05Z</time>
      </trkpt>
      <trkpt lat="51.789934001863003" lon="10.811157999560237">
        <ele>495.22000000000003</ele>
        <time>2017-05-22T08:03:06Z</time>
      </trkpt>
      <trkpt lat="51.789792012423277" lon="10.811127992346883">
        <ele>496.66000000000003</ele>
        <time>2017-05-22T08:03:07Z</time>
      </trkpt>
      <trkpt lat="51.78964801132679" lon="10.811117012053728">
        <ele>498.57999999999998</ele>
        <time>2017-05-22T08:03:08Z</time>
      </trkpt>
      <trkpt lat="51.789501998573542" lon="10.811110977083445">
        <ele>500.98000000000002</ele>
        <time>2017-05-22T08:03:09Z</time>
      </trkpt>
      <trkpt lat="51.78937098942697" lon="10.811155987903476">
        <ele>502.91000000000003</ele>
        <time>2017-05-22T08:03:10Z</time>
      </trkpt>
      <trkpt lat="51.789239980280399" lon="10.811218013986945">
        <ele>503.87</ele>
        <time>2017-05-22T08:03:11Z</time>
      </trkpt>
      <trkpt lat="51.789102014154196" lon="10.811323961243033">
        <ele>505.79000000000002</ele>
        <time>2017-05-22T08:03:12Z</time>
      </trkpt>
      <trkpt lat="51.788988020271063" lon="10.811458993703127">
        <ele>507.70999999999998</ele>
        <time>2017-05-22T08:03:13Z</time>
      </trkpt>
      <trkpt lat="51.788872014731169" lon="10.811610035598278">
        <ele>510.12</ele>
        <time>2017-05-22T08:03:14Z</time>
      </trkpt>
      <trkpt lat="51.788138011470437" lon="10.812531961128116">
        <ele>517.80999999999995</ele>
        <time>2017-05-22T08:03:18Z</time>
      </trkpt>
      <trkpt lat="51.787322033196688" lon="10.813275016844273">
        <ele>525.01999999999998</ele>
        <time>2017-05-22T08:03:22Z</time>
      </trkpt>
      <trkpt lat="51.787135032936931" lon="10.813385993242264">
        <ele>527.41999999999996</ele>
        <time>2017-05-22T08:03:23Z</time>
      </trkpt>
      <trkpt lat="51.786943003535271" lon="10.813465034589171">
        <ele>529.82000000000005</ele>
        <time>2017-05-22T08:03:24Z</time>
      </trkpt>
      <trkpt lat="51.786745022982359" lon="10.813492024317384">
        <ele>531.26999999999998</ele>
        <time>2017-05-22T08:03:25Z</time>
      </trkpt>
      <trkpt lat="51.786559028550982" lon="10.813489006832242">
        <ele>532.23000000000002</ele>
        <time>2017-05-22T08:03:26Z</time>
      </trkpt>
      <trkpt lat="51.786388959735632" lon="10.813466962426901">
        <ele>532.23000000000002</ele>
        <time>2017-05-22T08:03:27Z</time>
      </trkpt>
      <trkpt lat="51.786228027194738" lon="10.813426980748773">
        <ele>532.71000000000004</ele>
        <time>2017-05-22T08:03:28Z</time>
      </trkpt>
      <trkpt lat="51.78608100861311" lon="10.81337601877749">
        <ele>532.71000000000004</ele>
        <time>2017-05-22T08:03:29Z</time>
      </trkpt>
      <trkpt lat="51.784519962966442" lon="10.812738994136453">
        <ele>529.34000000000003</ele>
        <time>2017-05-22T08:03:39Z</time>
      </trkpt>
      <trkpt lat="51.783234011381865" lon="10.811994010582566">
        <ele>528.38</ele>
        <time>2017-05-22T08:03:47Z</time>
      </trkpt>
      <trkpt lat="51.780999982729554" lon="10.810527009889483">
        <ele>523.58000000000004</ele>
        <time>2017-05-22T08:03:59Z</time>
      </trkpt>
      <trkpt lat="51.778913978487253" lon="10.809096973389387">
        <ele>516.85000000000002</ele>
        <time>2017-05-22T08:04:10Z</time>
      </trkpt>
      <trkpt lat="51.777817960828543" lon="10.808170018717647">
        <ele>510.12</ele>
        <time>2017-05-22T08:04:16Z</time>
      </trkpt>
      <trkpt lat="51.777619980275631" lon="10.808073962107301">
        <ele>508.67000000000002</ele>
        <time>2017-05-22T08:04:17Z</time>
      </trkpt>
      <trkpt lat="51.777414036914706" lon="10.808019982650876">
        <ele>507.23000000000002</ele>
        <time>2017-05-22T08:04:18Z</time>
      </trkpt>
      <trkpt lat="51.777199963107705" lon="10.807999027892947">
        <ele>505.79000000000002</ele>
        <time>2017-05-22T08:04:19Z</time>
      </trkpt>
      <trkpt lat="51.77699401974678" lon="10.807989975437522">
        <ele>504.35000000000002</ele>
        <time>2017-05-22T08:04:20Z</time>
      </trkpt>
      <trkpt lat="51.775537999346852" lon="10.807808004319668">
        <ele>494.25999999999999</ele>
        <time>2017-05-22T08:04:28Z</time>
      </trkpt>
      <trkpt lat="51.775385029613972" lon="10.807757964357734">
        <ele>493.29000000000002</ele>
        <time>2017-05-22T08:04:29Z</time>
      </trkpt>
      <trkpt lat="51.775244968011975" lon="10.807687975466251">
        <ele>491.85000000000002</ele>
        <time>2017-05-22T08:04:30Z</time>
      </trkpt>
      <trkpt lat="51.77512401714921" lon="10.807565012946725">
        <ele>489.44999999999999</ele>
        <time>2017-05-22T08:04:31Z</time>
      </trkpt>
      <trkpt lat="51.775003988295794" lon="10.80742402933538">
        <ele>487.52999999999997</ele>
        <time>2017-05-22T08:04:32Z</time>
      </trkpt>
      <trkpt lat="51.774889994412661" lon="10.807257983833551">
        <ele>486.07999999999998</ele>
        <time>2017-05-22T08:04:33Z</time>
      </trkpt>
      <trkpt lat="51.774807013571262" lon="10.807087998837233">
        <ele>484.63999999999999</ele>
        <time>2017-05-22T08:04:34Z</time>
      </trkpt>
      <trkpt lat="51.774744987487793" lon="10.806920025497675">
        <ele>483.68000000000001</ele>
        <time>2017-05-22T08:04:35Z</time>
      </trkpt>
      <trkpt lat="51.774685978889465" lon="10.806748028844595">
        <ele>482.24000000000001</ele>
        <time>2017-05-22T08:04:36Z</time>
      </trkpt>
      <trkpt lat="51.774070998653769" lon="10.805096961557865">
        <ele>478.38999999999999</ele>
        <time>2017-05-22T08:04:47Z</time>
      </trkpt>
      <trkpt lat="51.773198023438454" lon="10.803993986919522">
        <ele>471.66000000000003</ele>
        <time>2017-05-22T08:04:58Z</time>
      </trkpt>
      <trkpt lat="51.773052010685205" lon="10.803721994161606">
        <ele>469.74000000000001</ele>
        <time>2017-05-22T08:05:01Z</time>
      </trkpt>
      <trkpt lat="51.773014962673187" lon="10.803618980571628">
        <ele>469.25999999999999</ele>
        <time>2017-05-22T08:05:02Z</time>
      </trkpt>
      <trkpt lat="51.772936005145311" lon="10.803422005847096">
        <ele>468.30000000000001</ele>
        <time>2017-05-22T08:05:04Z</time>
      </trkpt>
      <trkpt lat="51.7728709615767" lon="10.803355034440756">
        <ele>467.81999999999999</ele>
        <time>2017-05-22T08:05:05Z</time>
      </trkpt>
      <trkpt lat="51.772802984341979" lon="10.803339025005698">
        <ele>467.33999999999997</ele>
        <time>2017-05-22T08:05:06Z</time>
      </trkpt>
      <trkpt lat="51.772726960480213" lon="10.803359979763627">
        <ele>466.86000000000001</ele>
        <time>2017-05-22T08:05:07Z</time>
      </trkpt>
      <trkpt lat="51.772656971588731" lon="10.803403984755278">
        <ele>466.86000000000001</ele>
        <time>2017-05-22T08:05:08Z</time>
      </trkpt>
      <trkpt lat="51.772582959383726" lon="10.80345100723207">
        <ele>466.86000000000001</ele>
        <time>2017-05-22T08:05:09Z</time>
      </trkpt>
      <trkpt lat="51.772500984370708" lon="10.803496018052101">
        <ele>465.89999999999998</ele>
        <time>2017-05-22T08:05:10Z</time>
      </trkpt>
      <trkpt lat="51.772411968559027" lon="10.803535999730229">
        <ele>465.89999999999998</ele>
        <time>2017-05-22T08:05:11Z</time>
      </trkpt>
      <trkpt lat="51.770838014781475" lon="10.804231027141213">
        <ele>462.05000000000001</ele>
        <time>2017-05-22T08:05:29Z</time>
      </trkpt>
      <trkpt lat="51.770022958517075" lon="10.804538978263736">
        <ele>461.56999999999999</ele>
        <time>2017-05-22T08:05:39Z</time>
      </trkpt>
      <trkpt lat="51.769862025976181" lon="10.804597986862063">
        <ele>462.52999999999997</ele>
        <time>2017-05-22T08:05:42Z</time>
      </trkpt>
      <trkpt lat="51.769808968529105" lon="10.804636040702462">
        <ele>462.52999999999997</ele>
        <time>2017-05-22T08:05:43Z</time>
      </trkpt>
      <trkpt lat="51.769778039306402" lon="10.804713992401958">
        <ele>461.56999999999999</ele>
        <time>2017-05-22T08:05:44Z</time>
      </trkpt>
      <trkpt lat="51.769746020436287" lon="10.804813988506794">
        <ele>461.08999999999997</ele>
        <time>2017-05-22T08:05:45Z</time>
      </trkpt>
      <trkpt lat="51.769715007394552" lon="10.804935023188591">
        <ele>461.08999999999997</ele>
        <time>2017-05-22T08:05:46Z</time>
      </trkpt>
      <trkpt lat="51.769515015184879" lon="10.805585039779544">
        <ele>460.61000000000001</ele>
        <time>2017-05-22T08:05:51Z</time>
      </trkpt>
      <trkpt lat="51.769104972481728" lon="10.807453030720353">
        <ele>457.24000000000001</ele>
        <time>2017-05-22T08:06:02Z</time>
      </trkpt>
      <trkpt lat="51.768958959728479" lon="10.809751013293862">
        <ele>452.44</ele>
        <time>2017-05-22T08:06:14Z</time>
      </trkpt>
      <trkpt lat="51.768660983070731" lon="10.81281702965498">
        <ele>448.11000000000001</ele>
        <time>2017-05-22T08:06:30Z</time>
      </trkpt>
      <trkpt lat="51.768642039969563" lon="10.813461011275649">
        <ele>447.14999999999998</ele>
        <time>2017-05-22T08:06:33Z</time>
      </trkpt>
      <trkpt lat="51.768599962815642" lon="10.813675001263618">
        <ele>446.67000000000002</ele>
        <time>2017-05-22T08:06:34Z</time>
      </trkpt>
      <trkpt lat="51.768125966191292" lon="10.815970972180367">
        <ele>446.19</ele>
        <time>2017-05-22T08:06:44Z</time>
      </trkpt>
      <trkpt lat="51.767747020348907" lon="10.817864025011659">
        <ele>442.33999999999997</ele>
        <time>2017-05-22T08:06:53Z</time>
      </trkpt>
      <trkpt lat="51.767209991812706" lon="10.820253035053611">
        <ele>436.57999999999998</ele>
        <time>2017-05-22T08:07:03Z</time>
      </trkpt>
      <trkpt lat="51.767051992937922" lon="10.822647996246815">
        <ele>432.73000000000002</ele>
        <time>2017-05-22T08:07:11Z</time>
      </trkpt>
      <trkpt lat="51.767009999603033" lon="10.824220022186637">
        <ele>431.29000000000002</ele>
        <time>2017-05-22T08:07:17Z</time>
      </trkpt>
      <trkpt lat="51.766973035410047" lon="10.824455972760916">
        <ele>430.81</ele>
        <time>2017-05-22T08:07:18Z</time>
      </trkpt>
      <trkpt lat="51.766900029033422" lon="10.824673986062407">
        <ele>430.32999999999998</ele>
        <time>2017-05-22T08:07:19Z</time>
      </trkpt>
      <trkpt lat="51.766807995736599" lon="10.824883030727506">
        <ele>430.32999999999998</ele>
        <time>2017-05-22T08:07:20Z</time>
      </trkpt>
      <trkpt lat="51.766699030995369" lon="10.825082017108798">
        <ele>429.85000000000002</ele>
        <time>2017-05-22T08:07:21Z</time>
      </trkpt>
      <trkpt lat="51.766582019627094" lon="10.825264994055033">
        <ele>428.88999999999999</ele>
        <time>2017-05-22T08:07:22Z</time>
      </trkpt>
      <trkpt lat="51.7664660140872" lon="10.825427016243339">
        <ele>428.88999999999999</ele>
        <time>2017-05-22T08:07:23Z</time>
      </trkpt>
      <trkpt lat="51.766347996890545" lon="10.825562970712781">
        <ele>428.39999999999998</ele>
        <time>2017-05-22T08:07:24Z</time>
      </trkpt>
      <trkpt lat="51.766235008835793" lon="10.825675958767533">
        <ele>428.39999999999998</ele>
        <time>2017-05-22T08:07:25Z</time>
      </trkpt>
      <trkpt lat="51.766117997467518" lon="10.82577302120626">
        <ele>427.92000000000002</ele>
        <time>2017-05-22T08:07:26Z</time>
      </trkpt>
      <trkpt lat="51.7654989939183" lon="10.826206030324101">
        <ele>426.95999999999998</ele>
        <time>2017-05-22T08:07:32Z</time>
      </trkpt>
      <trkpt lat="51.764862975105643" lon="10.827198028564453">
        <ele>423.12</ele>
        <time>2017-05-22T08:07:41Z</time>
      </trkpt>
      <trkpt lat="51.764356959611177" lon="10.828100005164742">
        <ele>419.75</ele>
        <time>2017-05-22T08:07:48Z</time>
      </trkpt>
      <trkpt lat="51.764262998476624" lon="10.828197989612818">
        <ele>419.26999999999998</ele>
        <time>2017-05-22T08:07:49Z</time>
      </trkpt>
      <trkpt lat="51.764170965179801" lon="10.828277030959725">
        <ele>419.26999999999998</ele>
        <time>2017-05-22T08:07:50Z</time>
      </trkpt>
      <trkpt lat="51.763162035495043" lon="10.828839959576726">
        <ele>418.79000000000002</ele>
        <time>2017-05-22T08:08:01Z</time>
      </trkpt>
      <trkpt lat="51.762719973921776" lon="10.829153023660183">
        <ele>417.35000000000002</ele>
        <time>2017-05-22T08:08:05Z</time>
      </trkpt>
      <trkpt lat="51.762622995302081" lon="10.829273974522948">
        <ele>416.87</ele>
        <time>2017-05-22T08:08:06Z</time>
      </trkpt>
      <trkpt lat="51.762528028339148" lon="10.829418981447816">
        <ele>416.87</ele>
        <time>2017-05-22T08:08:07Z</time>
      </trkpt>
      <trkpt lat="51.762442030012608" lon="10.829578991979361">
        <ele>416.38999999999999</ele>
        <time>2017-05-22T08:08:08Z</time>
      </trkpt>
      <trkpt lat="51.762360977008939" lon="10.829744031652808">
        <ele>415.91000000000003</ele>
        <time>2017-05-22T08:08:09Z</time>
      </trkpt>
      <trkpt lat="51.762296017259359" lon="10.829931031912565">
        <ele>415.91000000000003</ele>
        <time>2017-05-22T08:08:10Z</time>
      </trkpt>
      <trkpt lat="51.762239020317793" lon="10.830134963616729">
        <ele>414.94999999999999</ele>
        <time>2017-05-22T08:08:11Z</time>
      </trkpt>
      <trkpt lat="51.762189986184239" lon="10.830376027151942">
        <ele>413.98000000000002</ele>
        <time>2017-05-22T08:08:12Z</time>
      </trkpt>
      <trkpt lat="51.762165008112788" lon="10.830669980496168">
        <ele>413.01999999999998</ele>
        <time>2017-05-22T08:08:13Z</time>
      </trkpt>
      <trkpt lat="51.762131983414292" lon="10.830991007387638">
        <ele>412.06</ele>
        <time>2017-05-22T08:08:14Z</time>
      </trkpt>
      <trkpt lat="51.76199602894485" lon="10.832552975043654">
        <ele>407.74000000000001</ele>
        <time>2017-05-22T08:08:20Z</time>
      </trkpt>
      <trkpt lat="51.761949006468058" lon="10.83275699056685">
        <ele>406.76999999999998</ele>
        <time>2017-05-22T08:08:21Z</time>
      </trkpt>
      <trkpt lat="51.76188999786973" lon="10.832967041060328">
        <ele>406.29000000000002</ele>
        <time>2017-05-22T08:08:22Z</time>
      </trkpt>
      <trkpt lat="51.761729987338185" lon="10.83344497717917">
        <ele>405.32999999999998</ele>
        <time>2017-05-22T08:08:24Z</time>
      </trkpt>
      <trkpt lat="51.761622028425336" lon="10.833690986037254">
        <ele>404.85000000000002</ele>
        <time>2017-05-22T08:08:25Z</time>
      </trkpt>
      <trkpt lat="51.761187007650733" lon="10.83456102758646">
        <ele>402.93000000000001</ele>
        <time>2017-05-22T08:08:30Z</time>
      </trkpt>
      <trkpt lat="51.760852988809347" lon="10.835144994780421">
        <ele>401.97000000000003</ele>
        <time>2017-05-22T08:08:34Z</time>
      </trkpt>
      <trkpt lat="51.760749975219369" lon="10.835257982835174">
        <ele>401.49000000000001</ele>
        <time>2017-05-22T08:08:35Z</time>
      </trkpt>
      <trkpt lat="51.760635981336236" lon="10.835359990596771">
        <ele>401.00999999999999</ele>
        <time>2017-05-22T08:08:36Z</time>
      </trkpt>
      <trkpt lat="51.760387038812041" lon="10.835522012785077">
        <ele>400.52999999999997</ele>
        <time>2017-05-22T08:08:38Z</time>
      </trkpt>
      <trkpt lat="51.759485984221101" lon="10.835769027471542">
        <ele>397.63999999999999</ele>
        <time>2017-05-22T08:08:43Z</time>
      </trkpt>
      <trkpt lat="51.759293032810092" lon="10.835839016363025">
        <ele>396.19999999999999</ele>
        <time>2017-05-22T08:08:44Z</time>
      </trkpt>
      <trkpt lat="51.759113995358348" lon="10.835944041609764">
        <ele>396.68000000000001</ele>
        <time>2017-05-22T08:08:45Z</time>
      </trkpt>
      <trkpt lat="51.758950967341661" lon="10.836081001907587">
        <ele>396.68000000000001</ele>
        <time>2017-05-22T08:08:46Z</time>
      </trkpt>
      <trkpt lat="51.758803026750684" lon="10.836241012439132">
        <ele>396.19999999999999</ele>
        <time>2017-05-22T08:08:47Z</time>
      </trkpt>
      <trkpt lat="51.758672017604113" lon="10.836419966071844">
        <ele>395.72000000000003</ele>
        <time>2017-05-22T08:08:48Z</time>
      </trkpt>
      <trkpt lat="51.758546959608793" lon="10.836601015180349">
        <ele>395.72000000000003</ele>
        <time>2017-05-22T08:08:49Z</time>
      </trkpt>
      <trkpt lat="51.757629979401827" lon="10.837819995358586">
        <ele>394.75999999999999</ele>
        <time>2017-05-22T08:08:57Z</time>
      </trkpt>
      <trkpt lat="51.757499976083636" lon="10.83791202865541">
        <ele>394.27999999999997</ele>
        <time>2017-05-22T08:08:58Z</time>
      </trkpt>
      <trkpt lat="51.756575033068657" lon="10.83860102109611">
        <ele>390.91000000000003</ele>
        <time>2017-05-22T08:09:04Z</time>
      </trkpt>
      <trkpt lat="51.755628967657685" lon="10.839715981855989">
        <ele>390.91000000000003</ele>
        <time>2017-05-22T08:09:11Z</time>
      </trkpt>
      <trkpt lat="51.755076013505459" lon="10.840729018673301">
        <ele>388.02999999999997</ele>
        <time>2017-05-22T08:09:18Z</time>
      </trkpt>
      <trkpt lat="51.75501499325037" lon="10.840900009498">
        <ele>388.02999999999997</ele>
        <time>2017-05-22T08:09:19Z</time>
      </trkpt>
      <trkpt lat="51.754969982430339" lon="10.841081980615854">
        <ele>388.02999999999997</ele>
        <time>2017-05-22T08:09:20Z</time>
      </trkpt>
      <trkpt lat="51.75464803352952" lon="10.842805970460176">
        <ele>387.06999999999999</ele>
        <time>2017-05-22T08:09:30Z</time>
      </trkpt>
      <trkpt lat="51.754608973860741" lon="10.844667004421353">
        <ele>386.58999999999997</ele>
        <time>2017-05-22T08:09:42Z</time>
      </trkpt>
      <trkpt lat="51.754631018266082" lon="10.844955006614327">
        <ele>386.11000000000001</ele>
        <time>2017-05-22T08:09:44Z</time>
      </trkpt>
      <trkpt lat="51.75465096719563" lon="10.845104036852717">
        <ele>385.63</ele>
        <time>2017-05-22T08:09:45Z</time>
      </trkpt>
      <trkpt lat="51.754686003550887" lon="10.845250971615314">
        <ele>385.63</ele>
        <time>2017-05-22T08:09:46Z</time>
      </trkpt>
      <trkpt lat="51.754725985229015" lon="10.845386004075408">
        <ele>385.63</ele>
        <time>2017-05-22T08:09:47Z</time>
      </trkpt>
      <trkpt lat="51.754764039069414" lon="10.845505027100444">
        <ele>385.14999999999998</ele>
        <time>2017-05-22T08:09:48Z</time>
      </trkpt>
      <trkpt lat="51.754793962463737" lon="10.84560502320528">
        <ele>385.14999999999998</ele>
        <time>2017-05-22T08:09:49Z</time>
      </trkpt>
      <trkpt lat="51.754810977727175" lon="10.845699990168214">
        <ele>385.14999999999998</ele>
        <time>2017-05-22T08:09:50Z</time>
      </trkpt>
      <trkpt lat="51.7548200301826" lon="10.845788000151515">
        <ele>384.66000000000003</ele>
        <time>2017-05-22T08:09:51Z</time>
      </trkpt>
      <trkpt lat="51.754812989383936" lon="10.845872992649674">
        <ele>385.14999999999998</ele>
        <time>2017-05-22T08:09:52Z</time>
      </trkpt>
      <trkpt lat="51.754790022969246" lon="10.845956979319453">
        <ele>385.14999999999998</ele>
        <time>2017-05-22T08:09:53Z</time>
      </trkpt>
      <trkpt lat="51.754749035462737" lon="10.8460340090096">
        <ele>385.14999999999998</ele>
        <time>2017-05-22T08:09:54Z</time>
      </trkpt>
      <trkpt lat="51.754698995500803" lon="10.846108021214604">
        <ele>385.14999999999998</ele>
        <time>2017-05-22T08:09:55Z</time>
      </trkpt>
      <trkpt lat="51.754630012437701" lon="10.846298038959503">
        <ele>385.63</ele>
        <time>2017-05-22T08:09:57Z</time>
      </trkpt>
      <trkpt lat="51.754625989124179" lon="10.846413038671017">
        <ele>385.63</ele>
        <time>2017-05-22T08:09:58Z</time>
      </trkpt>
      <trkpt lat="51.754663959145546" lon="10.846514962613583">
        <ele>386.11000000000001</ele>
        <time>2017-05-22T08:09:59Z</time>
      </trkpt>
      <trkpt lat="51.754722967743874" lon="10.84661303088069">
        <ele>386.11000000000001</ele>
        <time>2017-05-22T08:10:00Z</time>
      </trkpt>
      <trkpt lat="51.754802009090781" lon="10.846727024763823">
        <ele>386.11000000000001</ele>
        <time>2017-05-22T08:10:01Z</time>
      </trkpt>
      <trkpt lat="51.754889013245702" lon="10.846834983676672">
        <ele>386.58999999999997</ele>
        <time>2017-05-22T08:10:02Z</time>
      </trkpt>
      <trkpt lat="51.754998983815312" lon="10.846934979781508">
        <ele>386.58999999999997</ele>
        <time>2017-05-22T08:10:03Z</time>
      </trkpt>
      <trkpt lat="51.756016965955496" lon="10.848249010741711">
        <ele>390.43000000000001</ele>
        <time>2017-05-22T08:10:13Z</time>
      </trkpt>
      <trkpt lat="51.756384009495378" lon="10.848858961835504">
        <ele>391.38999999999999</ele>
        <time>2017-05-22T08:10:17Z</time>
      </trkpt>
      <trkpt lat="51.756437988951802" lon="10.849063983187079">
        <ele>391.38999999999999</ele>
        <time>2017-05-22T08:10:18Z</time>
      </trkpt>
      <trkpt lat="51.756484005600214" lon="10.849280990660191">
        <ele>391.87</ele>
        <time>2017-05-22T08:10:19Z</time>
      </trkpt>
      <trkpt lat="51.756510995328426" lon="10.849496992304921">
        <ele>392.36000000000001</ele>
        <time>2017-05-22T08:10:20Z</time>
      </trkpt>
      <trkpt lat="51.756529016420245" lon="10.849722968414426">
        <ele>392.83999999999997</ele>
        <time>2017-05-22T08:10:21Z</time>
      </trkpt>
      <trkpt lat="51.756533039733768" lon="10.84994500502944">
        <ele>393.31999999999999</ele>
        <time>2017-05-22T08:10:22Z</time>
      </trkpt>
      <trkpt lat="51.756531028077006" lon="10.850177016109228">
        <ele>393.31999999999999</ele>
        <time>2017-05-22T08:10:23Z</time>
      </trkpt>
      <trkpt lat="51.756488028913736" lon="10.850883023813367">
        <ele>395.24000000000001</ele>
        <time>2017-05-22T08:10:26Z</time>
      </trkpt>
      <trkpt lat="51.756424997001886" lon="10.851102964952588">
        <ele>394.75999999999999</ele>
        <time>2017-05-22T08:10:27Z</time>
      </trkpt>
      <trkpt lat="51.756335981190205" lon="10.851314021274447">
        <ele>395.24000000000001</ele>
        <time>2017-05-22T08:10:28Z</time>
      </trkpt>
      <trkpt lat="51.756229028105736" lon="10.851527005434036">
        <ele>398.60000000000002</ele>
        <time>2017-05-22T08:10:29Z</time>
      </trkpt>
      <trkpt lat="51.7561100050807" lon="10.851723980158567">
        <ele>399.56999999999999</ele>
        <time>2017-05-22T08:10:30Z</time>
      </trkpt>
      <trkpt lat="51.755504999309778" lon="10.852664010599256">
        <ele>405.81</ele>
        <time>2017-05-22T08:10:35Z</time>
      </trkpt>
      <trkpt lat="51.755387987941504" lon="10.852773981168866">
        <ele>407.74000000000001</ele>
        <time>2017-05-22T08:10:36Z</time>
      </trkpt>
      <trkpt lat="51.755263013765216" lon="10.852830978110433">
        <ele>408.69999999999999</ele>
        <time>2017-05-22T08:10:37Z</time>
      </trkpt>
      <trkpt lat="51.755119012668729" lon="10.852797031402588">
        <ele>410.13999999999999</ele>
        <time>2017-05-22T08:10:38Z</time>
      </trkpt>
      <trkpt lat="51.754965959116817" lon="10.852726958692074">
        <ele>411.57999999999998</ele>
        <time>2017-05-22T08:10:39Z</time>
      </trkpt>
      <trkpt lat="51.754804020747542" lon="10.852635009214282">
        <ele>413.01999999999998</ele>
        <time>2017-05-22T08:10:40Z</time>
      </trkpt>
      <trkpt lat="51.754487017169595" lon="10.852463012561202">
        <ele>413.98000000000002</ele>
        <time>2017-05-22T08:10:42Z</time>
      </trkpt>
      <trkpt lat="51.754333041608334" lon="10.852425964549184">
        <ele>414.47000000000003</ele>
        <time>2017-05-22T08:10:43Z</time>
      </trkpt>
      <trkpt lat="51.754188034683466" lon="10.852422025054693">
        <ele>415.91000000000003</ele>
        <time>2017-05-22T08:10:44Z</time>
      </trkpt>
      <trkpt lat="51.75404897890985" lon="10.852463012561202">
        <ele>416.38999999999999</ele>
        <time>2017-05-22T08:10:45Z</time>
      </trkpt>
      <trkpt lat="51.753914030268788" lon="10.85252596065402">
        <ele>416.87</ele>
        <time>2017-05-22T08:10:46Z</time>
      </trkpt>
      <trkpt lat="51.753783021122217" lon="10.852612964808941">
        <ele>417.82999999999998</ele>
        <time>2017-05-22T08:10:47Z</time>
      </trkpt>
      <trkpt lat="51.753657963126898" lon="10.852657975628972">
        <ele>418.31</ele>
        <time>2017-05-22T08:10:48Z</time>
      </trkpt>
      <trkpt lat="51.753545980900526" lon="10.852666022256017">
        <ele>419.26999999999998</ele>
        <time>2017-05-22T08:10:49Z</time>
      </trkpt>
      <trkpt lat="51.753461994230747" lon="10.852622017264366">
        <ele>420.23000000000002</ele>
        <time>2017-05-22T08:10:50Z</time>
      </trkpt>
      <trkpt lat="51.753430981189013" lon="10.852488996461034">
        <ele>420.23000000000002</ele>
        <time>2017-05-22T08:10:51Z</time>
      </trkpt>
      <trkpt lat="51.75344598479569" lon="10.852357987314463">
        <ele>420.70999999999998</ele>
        <time>2017-05-22T08:10:52Z</time>
      </trkpt>
      <trkpt lat="51.753471968695521" lon="10.852209040895104">
        <ele>420.70999999999998</ele>
        <time>2017-05-22T08:10:53Z</time>
      </trkpt>
      <trkpt lat="51.753521002829075" lon="10.85205196402967">
        <ele>421.19</ele>
        <time>2017-05-22T08:10:54Z</time>
      </trkpt>
      <trkpt lat="51.753586968407035" lon="10.851892037317157">
        <ele>420.70999999999998</ele>
        <time>2017-05-22T08:10:55Z</time>
      </trkpt>
      <trkpt lat="51.753679001703858" lon="10.85177200846374">
        <ele>420.70999999999998</ele>
        <time>2017-05-22T08:10:56Z</time>
      </trkpt>
      <trkpt lat="51.753802970051765" lon="10.851692967116833">
        <ele>421.19</ele>
        <time>2017-05-22T08:10:57Z</time>
      </trkpt>
      <trkpt lat="51.753938002511859" lon="10.851663965731859">
        <ele>421.68000000000001</ele>
        <time>2017-05-22T08:10:58Z</time>
      </trkpt>
      <trkpt lat="51.754083009436727" lon="10.85166497156024">
        <ele>422.16000000000003</ele>
        <time>2017-05-22T08:10:59Z</time>
      </trkpt>
      <trkpt lat="51.75422097556293" lon="10.851678969338536">
        <ele>422.63999999999999</ele>
        <time>2017-05-22T08:11:00Z</time>
      </trkpt>
      <trkpt lat="51.754373023286462" lon="10.851720962673426">
        <ele>423.60000000000002</ele>
        <time>2017-05-22T08:11:01Z</time>
      </trkpt>
      <trkpt lat="51.754598999395967" lon="10.851714005693793">
        <ele>424.07999999999998</ele>
        <time>2017-05-22T08:11:03Z</time>
      </trkpt>
      <trkpt lat="51.754677034914494" lon="10.85166203789413">
        <ele>425.04000000000002</ele>
        <time>2017-05-22T08:11:04Z</time>
      </trkpt>
      <trkpt lat="51.754730008542538" lon="10.851575033739209">
        <ele>424.56</ele>
        <time>2017-05-22T08:11:05Z</time>
      </trkpt>
      <trkpt lat="51.754755992442369" lon="10.851455004885793">
        <ele>424.07999999999998</ele>
        <time>2017-05-22T08:11:06Z</time>
      </trkpt>
      <trkpt lat="51.754775019362569" lon="10.851336987689137">
        <ele>426</ele>
        <time>2017-05-22T08:11:07Z</time>
      </trkpt>
      <trkpt lat="51.754753980785608" lon="10.851206984370947">
        <ele>427.92000000000002</ele>
        <time>2017-05-22T08:11:08Z</time>
      </trkpt>
      <trkpt lat="51.754692960530519" lon="10.851087039336562">
        <ele>427.92000000000002</ele>
        <time>2017-05-22T08:11:09Z</time>
      </trkpt>
      <trkpt lat="51.75460503436625" lon="10.850990982726216">
        <ele>429.37</ele>
        <time>2017-05-22T08:11:10Z</time>
      </trkpt>
      <trkpt lat="51.754495985805988" lon="10.850895009934902">
        <ele>430.81</ele>
        <time>2017-05-22T08:11:11Z</time>
      </trkpt>
      <trkpt lat="51.753503987565637" lon="10.850021028891206">
        <ele>441.38</ele>
        <time>2017-05-22T08:11:18Z</time>
      </trkpt>
      <trkpt lat="51.753053963184357" lon="10.849680975079536">
        <ele>445.70999999999998</ele>
        <time>2017-05-22T08:11:21Z</time>
      </trkpt>
      <trkpt lat="51.75290702842176" lon="10.849646022543311">
        <ele>445.70999999999998</ele>
        <time>2017-05-22T08:11:22Z</time>
      </trkpt>
      <trkpt lat="51.752782976254821" lon="10.849689021706581">
        <ele>446.19</ele>
        <time>2017-05-22T08:11:23Z</time>
      </trkpt>
      <trkpt lat="51.752664037048817" lon="10.849806033074856">
        <ele>448.11000000000001</ele>
        <time>2017-05-22T08:11:24Z</time>
      </trkpt>
      <trkpt lat="51.752560017630458" lon="10.849978029727936">
        <ele>449.06999999999999</ele>
        <time>2017-05-22T08:11:25Z</time>
      </trkpt>
      <trkpt lat="51.752463039010763" lon="10.850194031372666">
        <ele>449.55000000000001</ele>
        <time>2017-05-22T08:11:26Z</time>
      </trkpt>
      <trkpt lat="51.752381986007094" lon="10.850454960018396">
        <ele>450.02999999999997</ele>
        <time>2017-05-22T08:11:27Z</time>
      </trkpt>
      <trkpt lat="51.751871025189757" lon="10.852442979812622">
        <ele>457.24000000000001</ele>
        <time>2017-05-22T08:11:33Z</time>
      </trkpt>
      <trkpt lat="51.751272976398468" lon="10.856560003012419">
        <ele>475.99000000000001</ele>
        <time>2017-05-22T08:11:43Z</time>
      </trkpt>
      <trkpt lat="51.751043982803822" lon="10.858350964263082">
        <ele>483.68000000000001</ele>
        <time>2017-05-22T08:11:48Z</time>
      </trkpt>
      <trkpt lat="51.750957984477282" lon="10.8586470130831">
        <ele>484.16000000000003</ele>
        <time>2017-05-22T08:11:49Z</time>
      </trkpt>
      <trkpt lat="51.750844996422529" lon="10.858896039426327">
        <ele>485.12</ele>
        <time>2017-05-22T08:11:50Z</time>
      </trkpt>
      <trkpt lat="51.750708958134055" lon="10.85911899805069">
        <ele>487.52999999999997</ele>
        <time>2017-05-22T08:11:51Z</time>
      </trkpt>
      <trkpt lat="51.750559005886316" lon="10.859327036887407">
        <ele>488.49000000000001</ele>
        <time>2017-05-22T08:11:52Z</time>
      </trkpt>
      <trkpt lat="51.749432981014252" lon="10.861165020614862">
        <ele>500.01999999999998</ele>
        <time>2017-05-22T08:11:59Z</time>
      </trkpt>
      <trkpt lat="51.747155031189322" lon="10.865149023011327">
        <ele>502.91000000000003</ele>
        <time>2017-05-22T08:12:13Z</time>
      </trkpt>
      <trkpt lat="51.745843011885881" lon="10.868158964440227">
        <ele>488.97000000000003</ele>
        <time>2017-05-22T08:12:23Z</time>
      </trkpt>
      <trkpt lat="51.745262984186411" lon="10.870329039171338">
        <ele>484.63999999999999</ele>
        <time>2017-05-22T08:12:29Z</time>
      </trkpt>
      <trkpt lat="51.743978038430214" lon="10.875973999500275">
        <ele>466.86000000000001</ele>
        <time>2017-05-22T08:12:44Z</time>
      </trkpt>
      <trkpt lat="51.743452996015549" lon="10.879369005560875">
        <ele>456.27999999999997</ele>
        <time>2017-05-22T08:12:53Z</time>
      </trkpt>
      <trkpt lat="51.743298014625907" lon="10.882636019960046">
        <ele>449.55000000000001</ele>
        <time>2017-05-22T08:13:02Z</time>
      </trkpt>
      <trkpt lat="51.743101961910725" lon="10.885397018864751">
        <ele>442.33999999999997</ele>
        <time>2017-05-22T08:13:12Z</time>
      </trkpt>
      <trkpt lat="51.743060974404216" lon="10.885622994974256">
        <ele>441.86000000000001</ele>
        <time>2017-05-22T08:13:13Z</time>
      </trkpt>
      <trkpt lat="51.742689991369843" lon="10.886752037331462">
        <ele>438.98000000000002</ele>
        <time>2017-05-22T08:13:20Z</time>
      </trkpt>
      <trkpt lat="51.742580020800233" lon="10.886981030926108">
        <ele>438.01999999999998</ele>
        <time>2017-05-22T08:13:26Z</time>
      </trkpt>
      <trkpt lat="51.742449011653662" lon="10.887232990935445">
        <ele>437.06</ele>
        <time>2017-05-22T08:13:41Z</time>
      </trkpt>
      <trkpt lat="51.742104012519121" lon="10.888060033321381">
        <ele>434.64999999999998</ele>
        <time>2017-05-22T08:13:50Z</time>
      </trkpt>
      <trkpt lat="51.740072993561625" lon="10.892870994284749">
        <ele>427.44</ele>
        <time>2017-05-22T08:14:19Z</time>
      </trkpt>
      <trkpt lat="51.739215021952987" lon="10.894857002422214">
        <ele>428.88999999999999</ele>
        <time>2017-05-22T08:14:33Z</time>
      </trkpt>
      <trkpt lat="51.739178979769349" lon="10.894983988255262">
        <ele>428.88999999999999</ele>
        <time>2017-05-22T08:14:34Z</time>
      </trkpt>
      <trkpt lat="51.739173028618097" lon="10.895098987966776">
        <ele>428.39999999999998</ele>
        <time>2017-05-22T08:14:35Z</time>
      </trkpt>
      <trkpt lat="51.739165987819433" lon="10.895197978243232">
        <ele>428.39999999999998</ele>
        <time>2017-05-22T08:14:36Z</time>
      </trkpt>
      <trkpt lat="51.739162970334291" lon="10.895283976569772">
        <ele>428.39999999999998</ele>
        <time>2017-05-22T08:14:37Z</time>
      </trkpt>
      <trkpt lat="51.739167999476194" lon="10.895346002653241">
        <ele>428.39999999999998</ele>
        <time>2017-05-22T08:14:38Z</time>
      </trkpt>
      <trkpt lat="51.739175962284207" lon="10.895391013473272">
        <ele>428.88999999999999</ele>
        <time>2017-05-22T08:14:39Z</time>
      </trkpt>
      <trkpt lat="51.739183003082871" lon="10.895424038171768">
        <ele>428.88999999999999</ele>
        <time>2017-05-22T08:14:40Z</time>
      </trkpt>
      <trkpt lat="51.739193983376026" lon="10.895447004586458">
        <ele>429.37</ele>
        <time>2017-05-22T08:14:41Z</time>
      </trkpt>
      <trkpt lat="51.739210998639464" lon="10.895465025678277">
        <ele>429.37</ele>
        <time>2017-05-22T08:14:42Z</time>
      </trkpt>
      <trkpt lat="51.739255003631115" lon="10.895404005423188">
        <ele>431.29000000000002</ele>
        <time>2017-05-22T08:14:53Z</time>
      </trkpt>
      <trkpt lat="51.739233965054154" lon="10.895387995988131">
        <ele>431.29000000000002</ele>
        <time>2017-05-22T08:15:31Z</time>
      </trkpt>
      <trkpt lat="51.739234970882535" lon="10.89538699015975">
        <ele>431.29000000000002</ele>
        <time>2017-05-22T08:17:02Z</time>
      </trkpt>
      <trkpt lat="51.739234970882535" lon="10.895298980176449">
        <ele>431.76999999999998</ele>
        <time>2017-05-22T08:25:11Z</time>
      </trkpt>
      <trkpt lat="51.739233965054154" lon="10.895337034016848">
        <ele>430.32999999999998</ele>
        <time>2017-05-22T08:26:05Z</time>
      </trkpt>
      <trkpt lat="51.739188032224774" lon="10.895423032343388">
        <ele>430.32999999999998</ele>
        <time>2017-05-22T08:26:08Z</time>
      </trkpt>
      <trkpt lat="51.739175962284207" lon="10.895522022619843">
        <ele>430.81</ele>
        <time>2017-05-22T08:26:09Z</time>
      </trkpt>
      <trkpt lat="51.73917998559773" lon="10.895638028159738">
        <ele>431.29000000000002</ele>
        <time>2017-05-22T08:26:10Z</time>
      </trkpt>
      <trkpt lat="51.73918099142611" lon="10.896917022764683">
        <ele>435.61000000000001</ele>
        <time>2017-05-22T08:26:19Z</time>
      </trkpt>
      <trkpt lat="51.739144027233124" lon="10.897091031074524">
        <ele>436.10000000000002</ele>
        <time>2017-05-22T08:26:20Z</time>
      </trkpt>
      <trkpt lat="51.73909398727119" lon="10.897252969443798">
        <ele>436.57999999999998</ele>
        <time>2017-05-22T08:26:21Z</time>
      </trkpt>
      <trkpt lat="51.73902902752161" lon="10.897417003288865">
        <ele>437.06</ele>
        <time>2017-05-22T08:26:22Z</time>
      </trkpt>
      <trkpt lat="51.738605992868543" lon="10.898230969905853">
        <ele>439.94</ele>
        <time>2017-05-22T08:26:27Z</time>
      </trkpt>
      <trkpt lat="51.73849199898541" lon="10.898339012637734">
        <ele>440.42000000000002</ele>
        <time>2017-05-22T08:26:28Z</time>
      </trkpt>
      <trkpt lat="51.738366018980742" lon="10.89841403067112">
        <ele>440.89999999999998</ele>
        <time>2017-05-22T08:26:29Z</time>
      </trkpt>
      <trkpt lat="51.738224029541016" lon="10.8984599635005">
        <ele>441.86000000000001</ele>
        <time>2017-05-22T08:26:30Z</time>
      </trkpt>
      <trkpt lat="51.738087991252542" lon="10.898473961278796">
        <ele>442.33999999999997</ele>
        <time>2017-05-22T08:26:31Z</time>
      </trkpt>
      <trkpt lat="51.737951030954719" lon="10.898492988198996">
        <ele>442.33999999999997</ele>
        <time>2017-05-22T08:26:32Z</time>
      </trkpt>
      <trkpt lat="51.737819015979767" lon="10.898573035374284">
        <ele>443.79000000000002</ele>
        <time>2017-05-22T08:26:33Z</time>
      </trkpt>
      <trkpt lat="51.737702004611492" lon="10.898688035085797">
        <ele>444.26999999999998</ele>
        <time>2017-05-22T08:26:34Z</time>
      </trkpt>
      <trkpt lat="51.737613994628191" lon="10.898846033960581">
        <ele>444.26999999999998</ele>
        <time>2017-05-22T08:26:35Z</time>
      </trkpt>
      <trkpt lat="51.737554986029863" lon="10.899031022563577">
        <ele>444.75</ele>
        <time>2017-05-22T08:26:36Z</time>
      </trkpt>
      <trkpt lat="51.737538976594806" lon="10.899244006723166">
        <ele>444.75</ele>
        <time>2017-05-22T08:26:37Z</time>
      </trkpt>
      <trkpt lat="51.737550962716341" lon="10.899466965347528">
        <ele>445.23000000000002</ele>
        <time>2017-05-22T08:26:38Z</time>
      </trkpt>
      <trkpt lat="51.73759002238512" lon="10.899695036932826">
        <ele>446.19</ele>
        <time>2017-05-22T08:26:39Z</time>
      </trkpt>
      <trkpt lat="51.737640984356403" lon="10.899923024699092">
        <ele>446.19</ele>
        <time>2017-05-22T08:26:40Z</time>
      </trkpt>
      <trkpt lat="51.737683983519673" lon="10.900153024122119">
        <ele>446.19</ele>
        <time>2017-05-22T08:26:41Z</time>
      </trkpt>
      <trkpt lat="51.737707033753395" lon="10.900390986353159">
        <ele>446.67000000000002</ele>
        <time>2017-05-22T08:26:42Z</time>
      </trkpt>
      <trkpt lat="51.737691024318337" lon="10.900614028796554">
        <ele>446.67000000000002</ele>
        <time>2017-05-22T08:26:43Z</time>
      </trkpt>
      <trkpt lat="51.737644001841545" lon="10.900831036269665">
        <ele>446.67000000000002</ele>
        <time>2017-05-22T08:26:44Z</time>
      </trkpt>
      <trkpt lat="51.737563032656908" lon="10.901039997115731">
        <ele>447.14999999999998</ele>
        <time>2017-05-22T08:26:45Z</time>
      </trkpt>
      <trkpt lat="51.737464964389801" lon="10.901259016245604">
        <ele>451.48000000000002</ele>
        <time>2017-05-22T08:26:46Z</time>
      </trkpt>
      <trkpt lat="51.737342001870275" lon="10.901452973484993">
        <ele>452.44</ele>
        <time>2017-05-22T08:26:47Z</time>
      </trkpt>
      <trkpt lat="51.737232031300664" lon="10.901657994836569">
        <ele>452.44</ele>
        <time>2017-05-22T08:26:48Z</time>
      </trkpt>
      <trkpt lat="51.737147960811853" lon="10.901896962895989">
        <ele>453.39999999999998</ele>
        <time>2017-05-22T08:26:49Z</time>
      </trkpt>
      <trkpt lat="51.737079983577132" lon="10.902164010331035">
        <ele>453.39999999999998</ele>
        <time>2017-05-22T08:26:50Z</time>
      </trkpt>
      <trkpt lat="51.737041007727385" lon="10.902451006695628">
        <ele>453.39999999999998</ele>
        <time>2017-05-22T08:26:51Z</time>
      </trkpt>
      <trkpt lat="51.73700999468565" lon="10.902752000838518">
        <ele>452.92000000000002</ele>
        <time>2017-05-22T08:26:52Z</time>
      </trkpt>
      <trkpt lat="51.736787036061287" lon="10.904529970139265">
        <ele>455.80000000000001</ele>
        <time>2017-05-22T08:26:58Z</time>
      </trkpt>
      <trkpt lat="51.736699026077986" lon="10.904790982604027">
        <ele>457.24000000000001</ele>
        <time>2017-05-22T08:26:59Z</time>
      </trkpt>
      <trkpt lat="51.736604981124401" lon="10.905025005340576">
        <ele>457.72000000000003</ele>
        <time>2017-05-22T08:27:00Z</time>
      </trkpt>
      <trkpt lat="51.73649501055479" lon="10.905233966186643">
        <ele>457.72000000000003</ele>
        <time>2017-05-22T08:27:01Z</time>
      </trkpt>
      <trkpt lat="51.736373975872993" lon="10.905411997810006">
        <ele>457.24000000000001</ele>
        <time>2017-05-22T08:27:02Z</time>
      </trkpt>
      <trkpt lat="51.736247995868325" lon="10.905564967542887">
        <ele>457.24000000000001</ele>
        <time>2017-05-22T08:27:03Z</time>
      </trkpt>
      <trkpt lat="51.736114975064993" lon="10.905690025538206">
        <ele>457.24000000000001</ele>
        <time>2017-05-22T08:27:04Z</time>
      </trkpt>
      <trkpt lat="51.735976003110409" lon="10.905797984451056">
        <ele>457.24000000000001</ele>
        <time>2017-05-22T08:27:05Z</time>
      </trkpt>
      <trkpt lat="51.735824039205909" lon="10.905889011919498">
        <ele>457.24000000000001</ele>
        <time>2017-05-22T08:27:06Z</time>
      </trkpt>
      <trkpt lat="51.735666962340474" lon="10.905975010246038">
        <ele>456.75999999999999</ele>
        <time>2017-05-22T08:27:07Z</time>
      </trkpt>
      <trkpt lat="51.733676008880138" lon="10.907189967110753">
        <ele>453.88</ele>
        <time>2017-05-22T08:27:20Z</time>
      </trkpt>
      <trkpt lat="51.733364034444094" lon="10.907344026491046">
        <ele>454.36000000000001</ele>
        <time>2017-05-22T08:27:25Z</time>
      </trkpt>
      <trkpt lat="51.733350036665797" lon="10.907352995127439">
        <ele>454.83999999999997</ele>
        <time>2017-05-22T08:27:43Z</time>
      </trkpt>
      <trkpt lat="51.73333402723074" lon="10.907464977353811">
        <ele>454.36000000000001</ele>
        <time>2017-05-22T08:27:49Z</time>
      </trkpt>
      <trkpt lat="51.733351964503527" lon="10.907584000378847">
        <ele>454.36000000000001</ele>
        <time>2017-05-22T08:27:50Z</time>
      </trkpt>
      <trkpt lat="51.733389012515545" lon="10.907724983990192">
        <ele>454.36000000000001</ele>
        <time>2017-05-22T08:27:51Z</time>
      </trkpt>
      <trkpt lat="51.733702998608351" lon="10.908928960561752">
        <ele>451.95999999999998</ele>
        <time>2017-05-22T08:27:57Z</time>
      </trkpt>
      <trkpt lat="51.734406994655728" lon="10.91117899864912">
        <ele>439.94</ele>
        <time>2017-05-22T08:28:05Z</time>
      </trkpt>
      <trkpt lat="51.735191959887743" lon="10.913445968180895">
        <ele>427.92000000000002</ele>
        <time>2017-05-22T08:28:14Z</time>
      </trkpt>
      <trkpt lat="51.735282987356186" lon="10.913616959005594">
        <ele>426.95999999999998</ele>
        <time>2017-05-22T08:28:15Z</time>
      </trkpt>
      <trkpt lat="51.735406033694744" lon="10.913761965930462">
        <ele>426</ele>
        <time>2017-05-22T08:28:16Z</time>
      </trkpt>
      <trkpt lat="51.736079016700387" lon="10.914432015269995">
        <ele>419.75</ele>
        <time>2017-05-22T08:28:21Z</time>
      </trkpt>
      <trkpt lat="51.736180018633604" lon="10.914585990831256">
        <ele>418.31</ele>
        <time>2017-05-22T08:28:22Z</time>
      </trkpt>
      <trkpt lat="51.736574973911047" lon="10.915118996053934">
        <ele>411.10000000000002</ele>
        <time>2017-05-22T08:28:26Z</time>
      </trkpt>
      <trkpt lat="51.736698020249605" lon="10.915232989937067">
        <ele>409.18000000000001</ele>
        <time>2017-05-22T08:28:27Z</time>
      </trkpt>
      <trkpt lat="51.737799989059567" lon="10.91614100150764">
        <ele>397.63999999999999</ele>
        <time>2017-05-22T08:28:34Z</time>
      </trkpt>
      <trkpt lat="51.738587971776724" lon="10.917339026927948">
        <ele>390.43000000000001</ele>
        <time>2017-05-22T08:28:40Z</time>
      </trkpt>
      <trkpt lat="51.738672964274883" lon="10.91758000664413">
        <ele>388.99000000000001</ele>
        <time>2017-05-22T08:28:41Z</time>
      </trkpt>
      <trkpt lat="51.739020980894566" lon="10.919137028977275">
        <ele>377.94</ele>
        <time>2017-05-22T08:28:48Z</time>
      </trkpt>
      <trkpt lat="51.73945901915431" lon="10.920349974185228">
        <ele>366.39999999999998</ele>
        <time>2017-05-22T08:28:56Z</time>
      </trkpt>
      <trkpt lat="51.739914994686842" lon="10.92151396907866">
        <ele>356.79000000000002</ele>
        <time>2017-05-22T08:29:04Z</time>
      </trkpt>
      <trkpt lat="51.739999987185001" lon="10.921641960740089">
        <ele>355.33999999999997</ele>
        <time>2017-05-22T08:29:05Z</time>
      </trkpt>
      <trkpt lat="51.740094032138586" lon="10.921755032613873">
        <ele>353.42000000000002</ele>
        <time>2017-05-22T08:29:06Z</time>
      </trkpt>
      <trkpt lat="51.74018899910152" lon="10.921845976263285">
        <ele>352.45999999999998</ele>
        <time>2017-05-22T08:29:07Z</time>
      </trkpt>
      <trkpt lat="51.740283966064453" lon="10.921913031488657">
        <ele>350.54000000000002</ele>
        <time>2017-05-22T08:29:08Z</time>
      </trkpt>
      <trkpt lat="51.740391002967954" lon="10.921954018995166">
        <ele>348.62</ele>
        <time>2017-05-22T08:29:09Z</time>
      </trkpt>
      <trkpt lat="51.74049099907279" lon="10.921997018158436">
        <ele>347.17000000000002</ele>
        <time>2017-05-22T08:29:10Z</time>
      </trkpt>
      <trkpt lat="51.741165993735194" lon="10.922289965674281">
        <ele>344.76999999999998</ele>
        <time>2017-05-22T08:29:19Z</time>
      </trkpt>
      <trkpt lat="51.741853980347514" lon="10.922893965616822">
        <ele>337.56</ele>
        <time>2017-05-22T08:29:27Z</time>
      </trkpt>
      <trkpt lat="51.74268102273345" lon="10.923766018822789">
        <ele>342.37</ele>
        <time>2017-05-22T08:29:36Z</time>
      </trkpt>
      <trkpt lat="51.743697999045253" lon="10.925130005925894">
        <ele>353.42000000000002</ele>
        <time>2017-05-22T08:29:47Z</time>
      </trkpt>
      <trkpt lat="51.743973009288311" lon="10.925506018102169">
        <ele>356.79000000000002</ele>
        <time>2017-05-22T08:29:50Z</time>
      </trkpt>
      <trkpt lat="51.744155986234546" lon="10.925743980333209">
        <ele>358.70999999999998</ele>
        <time>2017-05-22T08:29:52Z</time>
      </trkpt>
      <trkpt lat="51.744260005652905" lon="10.925857974216342">
        <ele>359.67000000000002</ele>
        <time>2017-05-22T08:29:53Z</time>
      </trkpt>
      <trkpt lat="51.744371987879276" lon="10.925957970321178">
        <ele>359.19</ele>
        <time>2017-05-22T08:29:54Z</time>
      </trkpt>
      <trkpt lat="51.744473995640874" lon="10.926054026931524">
        <ele>360.14999999999998</ele>
        <time>2017-05-22T08:29:55Z</time>
      </trkpt>
      <trkpt lat="51.744598969817162" lon="10.926097026094794">
        <ele>361.11000000000001</ele>
        <time>2017-05-22T08:29:56Z</time>
      </trkpt>
      <trkpt lat="51.744724027812481" lon="10.926142036914825">
        <ele>361.58999999999997</ele>
        <time>2017-05-22T08:29:57Z</time>
      </trkpt>
      <trkpt lat="51.745574958622456" lon="10.926568005234003">
        <ele>369.27999999999997</ele>
        <time>2017-05-22T08:30:06Z</time>
      </trkpt>
      <trkpt lat="51.746257999911904" lon="10.927569977939129">
        <ele>377.94</ele>
        <time>2017-05-22T08:30:16Z</time>
      </trkpt>
      <trkpt lat="51.746633006259799" lon="10.928592989221215">
        <ele>385.63</ele>
        <time>2017-05-22T08:30:23Z</time>
      </trkpt>
      <trkpt lat="51.746912961825728" lon="10.929578030481935">
        <ele>391.87</ele>
        <time>2017-05-22T08:30:31Z</time>
      </trkpt>
      <trkpt lat="51.747117983177304" lon="10.930438013747334">
        <ele>397.16000000000003</ele>
        <time>2017-05-22T08:30:39Z</time>
      </trkpt>
      <trkpt lat="51.747232982888818" lon="10.930949980393052">
        <ele>400.52999999999997</ele>
        <time>2017-05-22T08:30:44Z</time>
      </trkpt>
      <trkpt lat="51.747645037248731" lon="10.9325569588691">
        <ele>409.66000000000003</ele>
        <time>2017-05-22T08:30:59Z</time>
      </trkpt>
      <trkpt lat="51.748254988342524" lon="10.934323025867343">
        <ele>418.31</ele>
        <time>2017-05-22T08:31:13Z</time>
      </trkpt>
      <trkpt lat="51.748269991949201" lon="10.93444699421525">
        <ele>418.79000000000002</ele>
        <time>2017-05-22T08:31:14Z</time>
      </trkpt>
      <trkpt lat="51.748255994170904" lon="10.934554031118751">
        <ele>419.26999999999998</ele>
        <time>2017-05-22T08:31:15Z</time>
      </trkpt>
      <trkpt lat="51.748208971694112" lon="10.934643968939781">
        <ele>419.26999999999998</ele>
        <time>2017-05-22T08:31:16Z</time>
      </trkpt>
      <trkpt lat="51.748137976974249" lon="10.934722004458308">
        <ele>419.75</ele>
        <time>2017-05-22T08:31:17Z</time>
      </trkpt>
      <trkpt lat="51.748048961162567" lon="10.934791993349791">
        <ele>418.79000000000002</ele>
        <time>2017-05-22T08:31:18Z</time>
      </trkpt>
      <trkpt lat="51.747089987620711" lon="10.935621969401836">
        <ele>424.56</ele>
        <time>2017-05-22T08:31:26Z</time>
      </trkpt>
      <trkpt lat="51.745736980810761" lon="10.936984028667212">
        <ele>424.56</ele>
        <time>2017-05-22T08:31:35Z</time>
      </trkpt>
      <trkpt lat="51.743996981531382" lon="10.939444033429027">
        <ele>426.48000000000002</ele>
        <time>2017-05-22T08:31:46Z</time>
      </trkpt>
      <trkpt lat="51.742862993851304" lon="10.941098034381866">
        <ele>430.32999999999998</ele>
        <time>2017-05-22T08:31:54Z</time>
      </trkpt>
      <trkpt lat="51.742784036323428" lon="10.941302971914411">
        <ele>430.81</ele>
        <time>2017-05-22T08:31:55Z</time>
      </trkpt>
      <trkpt lat="51.742725027725101" lon="10.941539006307721">
        <ele>430.81</ele>
        <time>2017-05-22T08:31:56Z</time>
      </trkpt>
      <trkpt lat="51.742687979713082" lon="10.941801024600863">
        <ele>431.29000000000002</ele>
        <time>2017-05-22T08:31:57Z</time>
      </trkpt>
      <trkpt lat="51.742673981934786" lon="10.942071005702019">
        <ele>430.81</ele>
        <time>2017-05-22T08:31:58Z</time>
      </trkpt>
      <trkpt lat="51.742680016905069" lon="10.942339980974793">
        <ele>430.81</ele>
        <time>2017-05-22T08:31:59Z</time>
      </trkpt>
      <trkpt lat="51.742672976106405" lon="10.942593030631542">
        <ele>430.32999999999998</ele>
        <time>2017-05-22T08:32:00Z</time>
      </trkpt>
      <trkpt lat="51.742641041055322" lon="10.942823030054569">
        <ele>429.37</ele>
        <time>2017-05-22T08:32:01Z</time>
      </trkpt>
      <trkpt lat="51.742580020800233" lon="10.9430200047791">
        <ele>428.88999999999999</ele>
        <time>2017-05-22T08:32:02Z</time>
      </trkpt>
      <trkpt lat="51.742497039958835" lon="10.9431719686836">
        <ele>427.44</ele>
        <time>2017-05-22T08:32:03Z</time>
      </trkpt>
      <trkpt lat="51.742372987791896" lon="10.943253021687269">
        <ele>426</ele>
        <time>2017-05-22T08:32:04Z</time>
      </trkpt>
      <trkpt lat="51.742238039150834" lon="10.943290991708636">
        <ele>425.51999999999998</ele>
        <time>2017-05-22T08:32:05Z</time>
      </trkpt>
      <trkpt lat="51.742090014740825" lon="10.943268025293946">
        <ele>424.07999999999998</ele>
        <time>2017-05-22T08:32:06Z</time>
      </trkpt>
      <trkpt lat="51.741935033351183" lon="10.943204993382096">
        <ele>422.63999999999999</ele>
        <time>2017-05-22T08:32:07Z</time>
      </trkpt>
      <trkpt lat="51.741777034476399" lon="10.94316903501749">
        <ele>421.19</ele>
        <time>2017-05-22T08:32:08Z</time>
      </trkpt>
      <trkpt lat="51.741619035601616" lon="10.94316802918911">
        <ele>420.23000000000002</ele>
        <time>2017-05-22T08:32:09Z</time>
      </trkpt>
      <trkpt lat="51.741458019241691" lon="10.943197030574083">
        <ele>419.75</ele>
        <time>2017-05-22T08:32:10Z</time>
      </trkpt>
      <trkpt lat="51.741298008710146" lon="10.943245980888605">
        <ele>419.26999999999998</ele>
        <time>2017-05-22T08:32:11Z</time>
      </trkpt>
      <trkpt lat="51.741145038977265" lon="10.943326028063893">
        <ele>418.79000000000002</ele>
        <time>2017-05-22T08:32:12Z</time>
      </trkpt>
      <trkpt lat="51.740993997082114" lon="10.943424012511969">
        <ele>417.35000000000002</ele>
        <time>2017-05-22T08:32:13Z</time>
      </trkpt>
      <trkpt lat="51.740857036784291" lon="10.943547980859876">
        <ele>415.43000000000001</ele>
        <time>2017-05-22T08:32:14Z</time>
      </trkpt>
      <trkpt lat="51.740739019587636" lon="10.943711008876562">
        <ele>414.94999999999999</ele>
        <time>2017-05-22T08:32:15Z</time>
      </trkpt>
      <trkpt lat="51.740635000169277" lon="10.943909995257854">
        <ele>414.47000000000003</ele>
        <time>2017-05-22T08:32:16Z</time>
      </trkpt>
      <trkpt lat="51.74055302515626" lon="10.944129014387727">
        <ele>413.5</ele>
        <time>2017-05-22T08:32:17Z</time>
      </trkpt>
      <trkpt lat="51.74047096632421" lon="10.944362031295896">
        <ele>413.01999999999998</ele>
        <time>2017-05-22T08:32:18Z</time>
      </trkpt>
      <trkpt lat="51.74038396216929" lon="10.944582978263497">
        <ele>411.10000000000002</ele>
        <time>2017-05-22T08:32:19Z</time>
      </trkpt>
      <trkpt lat="51.740273991599679" lon="10.944798979908228">
        <ele>410.62</ele>
        <time>2017-05-22T08:32:20Z</time>
      </trkpt>
      <trkpt lat="51.740156980231404" lon="10.94499796628952">
        <ele>410.13999999999999</ele>
        <time>2017-05-22T08:32:21Z</time>
      </trkpt>
      <trkpt lat="51.740034017711878" lon="10.9451889898628">
        <ele>409.18000000000001</ele>
        <time>2017-05-22T08:32:22Z</time>
      </trkpt>
      <trkpt lat="51.739903008565307" lon="10.945357969030738">
        <ele>407.74000000000001</ele>
        <time>2017-05-22T08:32:23Z</time>
      </trkpt>
      <trkpt lat="51.739768981933594" lon="10.945504987612367">
        <ele>406.29000000000002</ele>
        <time>2017-05-22T08:32:24Z</time>
      </trkpt>
      <trkpt lat="51.739625986665487" lon="10.945623004809022">
        <ele>405.81</ele>
        <time>2017-05-22T08:32:25Z</time>
      </trkpt>
      <trkpt lat="51.739474022760987" lon="10.945699028670788">
        <ele>404.85000000000002</ele>
        <time>2017-05-22T08:32:26Z</time>
      </trkpt>
      <trkpt lat="51.739319041371346" lon="10.945731969550252">
        <ele>403.41000000000003</ele>
        <time>2017-05-22T08:32:27Z</time>
      </trkpt>
      <trkpt lat="51.739175962284207" lon="10.945732975378633">
        <ele>403.41000000000003</ele>
        <time>2017-05-22T08:32:28Z</time>
      </trkpt>
      <trkpt lat="51.739036990329623" lon="10.945702968165278">
        <ele>402.93000000000001</ele>
        <time>2017-05-22T08:32:29Z</time>
      </trkpt>
      <trkpt lat="51.738893995061517" lon="10.945626022294164">
        <ele>401.49000000000001</ele>
        <time>2017-05-22T08:32:30Z</time>
      </trkpt>
      <trkpt lat="51.738758962601423" lon="10.945519991219044">
        <ele>401.00999999999999</ele>
        <time>2017-05-22T08:32:31Z</time>
      </trkpt>
      <trkpt lat="51.738629965111613" lon="10.945428041741252">
        <ele>400.05000000000001</ele>
        <time>2017-05-22T08:32:32Z</time>
      </trkpt>
      <trkpt lat="51.738499039784074" lon="10.945376995950937">
        <ele>399.07999999999998</ele>
        <time>2017-05-22T08:32:33Z</time>
      </trkpt>
      <trkpt lat="51.738374987617135" lon="10.945370038971305">
        <ele>398.60000000000002</ele>
        <time>2017-05-22T08:32:34Z</time>
      </trkpt>
      <trkpt lat="51.738253030925989" lon="10.94538495875895">
        <ele>398.12</ele>
        <time>2017-05-22T08:32:35Z</time>
      </trkpt>
      <trkpt lat="51.738140964880586" lon="10.945413038134575">
        <ele>398.12</ele>
        <time>2017-05-22T08:32:36Z</time>
      </trkpt>
      <trkpt lat="51.737926974892616" lon="10.945416977629066">
        <ele>398.12</ele>
        <time>2017-05-22T08:32:38Z</time>
      </trkpt>
      <trkpt lat="51.737819015979767" lon="10.94538202509284">
        <ele>398.12</ele>
        <time>2017-05-22T08:32:39Z</time>
      </trkpt>
      <trkpt lat="51.737703010439873" lon="10.94529896043241">
        <ele>397.63999999999999</ele>
        <time>2017-05-22T08:32:40Z</time>
      </trkpt>
      <trkpt lat="51.737585999071598" lon="10.945197036489844">
        <ele>397.63999999999999</ele>
        <time>2017-05-22T08:32:41Z</time>
      </trkpt>
      <trkpt lat="51.737468987703323" lon="10.945073990151286">
        <ele>397.63999999999999</ele>
        <time>2017-05-22T08:32:42Z</time>
      </trkpt>
      <trkpt lat="51.737363962456584" lon="10.94493099488318">
        <ele>397.63999999999999</ele>
        <time>2017-05-22T08:32:43Z</time>
      </trkpt>
      <trkpt lat="51.737261032685637" lon="10.944777019321918">
        <ele>398.12</ele>
        <time>2017-05-22T08:32:44Z</time>
      </trkpt>
      <trkpt lat="51.737164976075292" lon="10.944604016840458">
        <ele>398.60000000000002</ele>
        <time>2017-05-22T08:32:45Z</time>
      </trkpt>
      <trkpt lat="51.737084006890655" lon="10.944413999095559">
        <ele>398.60000000000002</ele>
        <time>2017-05-22T08:32:46Z</time>
      </trkpt>
      <trkpt lat="51.737016029655933" lon="10.944214006885886">
        <ele>398.60000000000002</ele>
        <time>2017-05-22T08:32:47Z</time>
      </trkpt>
      <trkpt lat="51.73623600974679" lon="10.942414999008179">
        <ele>391.38999999999999</ele>
        <time>2017-05-22T08:32:56Z</time>
      </trkpt>
      <trkpt lat="51.736027970910072" lon="10.942091038450599">
        <ele>389.94999999999999</ele>
        <time>2017-05-22T08:32:58Z</time>
      </trkpt>
      <trkpt lat="51.735947001725435" lon="10.941904038190842">
        <ele>388.50999999999999</ele>
        <time>2017-05-22T08:32:59Z</time>
      </trkpt>
      <trkpt lat="51.73589201644063" lon="10.941684013232589">
        <ele>388.02999999999997</ele>
        <time>2017-05-22T08:33:00Z</time>
      </trkpt>
      <trkpt lat="51.735768970102072" lon="10.941248992457986">
        <ele>385.14999999999998</ele>
        <time>2017-05-22T08:33:02Z</time>
      </trkpt>
      <trkpt lat="51.735685989260674" lon="10.941049000248313">
        <ele>383.22000000000003</ele>
        <time>2017-05-22T08:33:03Z</time>
      </trkpt>
      <trkpt lat="51.735582975670695" lon="10.940863005816936">
        <ele>382.25999999999999</ele>
        <time>2017-05-22T08:33:04Z</time>
      </trkpt>
      <trkpt lat="51.735463030636311" lon="10.940687991678715">
        <ele>381.30000000000001</ele>
        <time>2017-05-22T08:33:05Z</time>
      </trkpt>
      <trkpt lat="51.73533302731812" lon="10.940515995025635">
        <ele>380.33999999999997</ele>
        <time>2017-05-22T08:33:06Z</time>
      </trkpt>
      <trkpt lat="51.734304986894131" lon="10.938746994361281">
        <ele>369.75999999999999</ele>
        <time>2017-05-22T08:33:15Z</time>
      </trkpt>
      <trkpt lat="51.734183030202985" lon="10.938569968566298">
        <ele>367.83999999999997</ele>
        <time>2017-05-22T08:33:16Z</time>
      </trkpt>
      <trkpt lat="51.734050009399652" lon="10.938411969691515">
        <ele>367.36000000000001</ele>
        <time>2017-05-22T08:33:17Z</time>
      </trkpt>
      <trkpt lat="51.733912965282798" lon="10.938268974423409">
        <ele>365.92000000000002</ele>
        <time>2017-05-22T08:33:18Z</time>
      </trkpt>
      <trkpt lat="51.73376401886344" lon="10.938134025782347">
        <ele>365.92000000000002</ele>
        <time>2017-05-22T08:33:19Z</time>
      </trkpt>
      <trkpt lat="51.733011994510889" lon="10.937359035015106">
        <ele>363.51999999999998</ele>
        <time>2017-05-22T08:33:25Z</time>
      </trkpt>
      <trkpt lat="51.732891965657473" lon="10.937280999496579">
        <ele>363.04000000000002</ele>
        <time>2017-05-22T08:33:26Z</time>
      </trkpt>
      <trkpt lat="51.732769003137946" lon="10.937236994504929">
        <ele>362.55000000000001</ele>
        <time>2017-05-22T08:33:27Z</time>
      </trkpt>
      <trkpt lat="51.732635982334614" lon="10.937225008383393">
        <ele>361.58999999999997</ele>
        <time>2017-05-22T08:33:28Z</time>
      </trkpt>
      <trkpt lat="51.73249801620841" lon="10.93723900616169">
        <ele>360.63</ele>
        <time>2017-05-22T08:33:29Z</time>
      </trkpt>
      <trkpt lat="51.73221898265183" lon="10.937235988676548">
        <ele>359.19</ele>
        <time>2017-05-22T08:33:31Z</time>
      </trkpt>
      <trkpt lat="51.731285993009806" lon="10.936968019232154">
        <ele>354.38</ele>
        <time>2017-05-22T08:33:37Z</time>
      </trkpt>
      <trkpt lat="51.731139980256557" lon="10.936872968450189">
        <ele>353.89999999999998</ele>
        <time>2017-05-22T08:33:38Z</time>
      </trkpt>
      <trkpt lat="51.731009976938367" lon="10.93674698844552">
        <ele>353.42000000000002</ele>
        <time>2017-05-22T08:33:39Z</time>
      </trkpt>
      <trkpt lat="51.730003980919719" lon="10.935498001053929">
        <ele>345.73000000000002</ele>
        <time>2017-05-22T08:33:48Z</time>
      </trkpt>
      <trkpt lat="51.729597961530089" lon="10.934556964784861">
        <ele>341.88999999999999</ele>
        <time>2017-05-22T08:33:53Z</time>
      </trkpt>
      <trkpt lat="51.729539036750793" lon="10.934333000332117">
        <ele>341.41000000000003</ele>
        <time>2017-05-22T08:33:54Z</time>
      </trkpt>
      <trkpt lat="51.729487990960479" lon="10.934098977595568">
        <ele>340.92000000000002</ele>
        <time>2017-05-22T08:33:55Z</time>
      </trkpt>
      <trkpt lat="51.729463012889028" lon="10.933861015364528">
        <ele>339.95999999999998</ele>
        <time>2017-05-22T08:33:56Z</time>
      </trkpt>
      <trkpt lat="51.729452032595873" lon="10.933607965707779">
        <ele>339</ele>
        <time>2017-05-22T08:33:57Z</time>
      </trkpt>
      <trkpt lat="51.729450020939112" lon="10.9333720151335">
        <ele>338.04000000000002</ele>
        <time>2017-05-22T08:33:58Z</time>
      </trkpt>
      <trkpt lat="51.729451026767492" lon="10.933142015710473">
        <ele>337.56</ele>
        <time>2017-05-22T08:33:59Z</time>
      </trkpt>
      <trkpt lat="51.729589998722076" lon="10.930791981518269">
        <ele>327.47000000000003</ele>
        <time>2017-05-22T08:34:10Z</time>
      </trkpt>
      <trkpt lat="51.729591004550457" lon="10.930589977651834">
        <ele>326.5</ele>
        <time>2017-05-22T08:34:11Z</time>
      </trkpt>
      <trkpt lat="51.729593016207218" lon="10.929912971332669">
        <ele>325.06</ele>
        <time>2017-05-22T08:34:15Z</time>
      </trkpt>
      <trkpt lat="51.729595027863979" lon="10.929594961926341">
        <ele>323.62</ele>
        <time>2017-05-22T08:34:17Z</time>
      </trkpt>
      <trkpt lat="51.729612965136766" lon="10.929452972486615">
        <ele>323.62</ele>
        <time>2017-05-22T08:34:18Z</time>
      </trkpt>
      <trkpt lat="51.729634003713727" lon="10.929277036339045">
        <ele>323.13999999999999</ele>
        <time>2017-05-22T08:34:19Z</time>
      </trkpt>
      <trkpt lat="51.729660993441939" lon="10.929101016372442">
        <ele>321.69999999999999</ele>
        <time>2017-05-22T08:34:20Z</time>
      </trkpt>
      <trkpt lat="51.729689994826913" lon="10.928917033597827">
        <ele>321.22000000000003</ele>
        <time>2017-05-22T08:34:21Z</time>
      </trkpt>
      <trkpt lat="51.729715978726745" lon="10.928726010024548">
        <ele>319.30000000000001</ele>
        <time>2017-05-22T08:34:22Z</time>
      </trkpt>
      <trkpt lat="51.729729976505041" lon="10.928524006158113">
        <ele>317.85000000000002</ele>
        <time>2017-05-22T08:34:23Z</time>
      </trkpt>
      <trkpt lat="51.729729976505041" lon="10.92832300812006">
        <ele>316.88999999999999</ele>
        <time>2017-05-22T08:34:24Z</time>
      </trkpt>
      <trkpt lat="51.729692006483674" lon="10.928138019517064">
        <ele>315.44999999999999</ele>
        <time>2017-05-22T08:34:25Z</time>
      </trkpt>
      <trkpt lat="51.729629980400205" lon="10.927963005378842">
        <ele>314.00999999999999</ele>
        <time>2017-05-22T08:34:26Z</time>
      </trkpt>
      <trkpt lat="51.729542976245284" lon="10.927813975140452">
        <ele>312.56999999999999</ele>
        <time>2017-05-22T08:34:27Z</time>
      </trkpt>
      <trkpt lat="51.729445997625589" lon="10.927695035934448">
        <ele>311.12</ele>
        <time>2017-05-22T08:34:28Z</time>
      </trkpt>
      <trkpt lat="51.729347007349133" lon="10.927593028172851">
        <ele>310.63999999999999</ele>
        <time>2017-05-22T08:34:29Z</time>
      </trkpt>
      <trkpt lat="51.729248017072678" lon="10.927526978775859">
        <ele>309.19999999999999</ele>
        <time>2017-05-22T08:34:30Z</time>
      </trkpt>
      <trkpt lat="51.729140980169177" lon="10.927512980997562">
        <ele>307.75999999999999</ele>
        <time>2017-05-22T08:34:31Z</time>
      </trkpt>
      <trkpt lat="51.729028997942805" lon="10.927555980160832">
        <ele>307.27999999999997</ele>
        <time>2017-05-22T08:34:32Z</time>
      </trkpt>
      <trkpt lat="51.728924978524446" lon="10.927642984315753">
        <ele>306.80000000000001</ele>
        <time>2017-05-22T08:34:33Z</time>
      </trkpt>
      <trkpt lat="51.728820037096739" lon="10.927752032876015">
        <ele>305.83999999999997</ele>
        <time>2017-05-22T08:34:34Z</time>
      </trkpt>
      <trkpt lat="51.728728003799915" lon="10.927889999002218">
        <ele>304.88</ele>
        <time>2017-05-22T08:34:35Z</time>
      </trkpt>
      <trkpt lat="51.728647034615278" lon="10.928038023412228">
        <ele>304.88</ele>
        <time>2017-05-22T08:34:36Z</time>
      </trkpt>
      <trkpt lat="51.728570004925132" lon="10.928185964003205">
        <ele>304.38999999999999</ele>
        <time>2017-05-22T08:34:37Z</time>
      </trkpt>
      <trkpt lat="51.728355009108782" lon="10.928746964782476">
        <ele>303.91000000000003</ele>
        <time>2017-05-22T08:34:41Z</time>
      </trkpt>
      <trkpt lat="51.728321984410286" lon="10.928884008899331">
        <ele>303.43000000000001</ele>
        <time>2017-05-22T08:34:42Z</time>
      </trkpt>
      <trkpt lat="51.72790196724236" lon="10.930847972631454">
        <ele>301.02999999999997</ele>
        <time>2017-05-22T08:34:56Z</time>
      </trkpt>
      <trkpt lat="51.727538025006652" lon="10.931719020009041">
        <ele>301.50999999999999</ele>
        <time>2017-05-22T08:35:03Z</time>
      </trkpt>
      <trkpt lat="51.726946011185646" lon="10.933653982356191">
        <ele>299.58999999999997</ele>
        <time>2017-05-22T08:35:18Z</time>
      </trkpt>
      <trkpt lat="51.726830005645752" lon="10.934511031955481">
        <ele>299.11000000000001</ele>
        <time>2017-05-22T08:35:24Z</time>
      </trkpt>
      <trkpt lat="51.726835034787655" lon="10.934665007516742">
        <ele>299.11000000000001</ele>
        <time>2017-05-22T08:35:25Z</time>
      </trkpt>
      <trkpt lat="51.727020023390651" lon="10.93661698512733">
        <ele>302.47000000000003</ele>
        <time>2017-05-22T08:35:37Z</time>
      </trkpt>
      <trkpt lat="51.727038966491818" lon="10.937373032793403">
        <ele>303.91000000000003</ele>
        <time>2017-05-22T08:35:42Z</time>
      </trkpt>
      <trkpt lat="51.726722968742251" lon="10.939405979588628">
        <ele>300.06999999999999</ele>
        <time>2017-05-22T08:35:55Z</time>
      </trkpt>
      <trkpt lat="51.726362966001034" lon="10.941283022984862">
        <ele>297.67000000000002</ele>
        <time>2017-05-22T08:36:08Z</time>
      </trkpt>
      <trkpt lat="51.726273028180003" lon="10.942048961296678">
        <ele>298.14999999999998</ele>
        <time>2017-05-22T08:36:14Z</time>
      </trkpt>
      <trkpt lat="51.726270010694861" lon="10.942180976271629">
        <ele>298.14999999999998</ele>
        <time>2017-05-22T08:36:15Z</time>
      </trkpt>
      <trkpt lat="51.726189041510224" lon="10.943612018600106">
        <ele>299.58999999999997</ele>
        <time>2017-05-22T08:36:26Z</time>
      </trkpt>
      <trkpt lat="51.726154005154967" lon="10.943724000826478">
        <ele>299.58999999999997</ele>
        <time>2017-05-22T08:36:27Z</time>
      </trkpt>
      <trkpt lat="51.726079992949963" lon="10.94407101161778">
        <ele>298.14999999999998</ele>
        <time>2017-05-22T08:36:30Z</time>
      </trkpt>
      <trkpt lat="51.726085022091866" lon="10.944197997450829">
        <ele>297.67000000000002</ele>
        <time>2017-05-22T08:36:31Z</time>
      </trkpt>
      <trkpt lat="51.726102959364653" lon="10.944320959970355">
        <ele>297.18000000000001</ele>
        <time>2017-05-22T08:36:32Z</time>
      </trkpt>
      <trkpt lat="51.726125003769994" lon="10.94443797133863">
        <ele>297.67000000000002</ele>
        <time>2017-05-22T08:36:33Z</time>
      </trkpt>
      <trkpt lat="51.726163979619741" lon="10.94454400241375">
        <ele>297.18000000000001</ele>
        <time>2017-05-22T08:36:34Z</time>
      </trkpt>
      <trkpt lat="51.726221982389688" lon="10.944637041538954">
        <ele>296.69999999999999</ele>
        <time>2017-05-22T08:36:35Z</time>
      </trkpt>
      <trkpt lat="51.726283002644777" lon="10.944719016551971">
        <ele>296.69999999999999</ele>
        <time>2017-05-22T08:36:36Z</time>
      </trkpt>
      <trkpt lat="51.727026980370283" lon="10.945383030921221">
        <ele>295.25999999999999</ele>
        <time>2017-05-22T08:36:46Z</time>
      </trkpt>
      <trkpt lat="51.727110967040062" lon="10.945413038134575">
        <ele>295.25999999999999</ele>
        <time>2017-05-22T08:36:47Z</time>
      </trkpt>
      <trkpt lat="51.727200988680124" lon="10.945427035912871">
        <ele>295.74000000000001</ele>
        <time>2017-05-22T08:36:48Z</time>
      </trkpt>
      <trkpt lat="51.727285981178284" lon="10.945428963750601">
        <ele>295.25999999999999</ele>
        <time>2017-05-22T08:36:49Z</time>
      </trkpt>
      <trkpt lat="51.727371979504824" lon="10.945422006770968">
        <ele>295.25999999999999</ele>
        <time>2017-05-22T08:36:50Z</time>
      </trkpt>
      <trkpt lat="51.72744800336659" lon="10.94542502425611">
        <ele>295.25999999999999</ele>
        <time>2017-05-22T08:36:51Z</time>
      </trkpt>
      <trkpt lat="51.727635003626347" lon="10.945467017591">
        <ele>294.77999999999997</ele>
        <time>2017-05-22T08:36:53Z</time>
      </trkpt>
      <trkpt lat="51.727737011387944" lon="10.94551001675427">
        <ele>294.77999999999997</ele>
        <time>2017-05-22T08:36:54Z</time>
      </trkpt>
      <trkpt lat="51.727829966694117" lon="10.945571037009358">
        <ele>294.30000000000001</ele>
        <time>2017-05-22T08:36:55Z</time>
      </trkpt>
      <trkpt lat="51.728403037413955" lon="10.945993987843394">
        <ele>293.81999999999999</ele>
        <time>2017-05-22T08:37:00Z</time>
      </trkpt>
      <trkpt lat="51.728516025468707" lon="10.946132959797978">
        <ele>293.81999999999999</ele>
        <time>2017-05-22T08:37:01Z</time>
      </trkpt>
      <trkpt lat="51.728611998260021" lon="10.946308979764581">
        <ele>293.33999999999997</ele>
        <time>2017-05-22T08:37:02Z</time>
      </trkpt>
      <trkpt lat="51.728860018774867" lon="10.946917003020644">
        <ele>292.86000000000001</ele>
        <time>2017-05-22T08:37:05Z</time>
      </trkpt>
      <trkpt lat="51.72891098074615" lon="10.947159994393587">
        <ele>292.38</ele>
        <time>2017-05-22T08:37:06Z</time>
      </trkpt>
      <trkpt lat="51.728940987959504" lon="10.947406003251672">
        <ele>291.42000000000002</ele>
        <time>2017-05-22T08:37:07Z</time>
      </trkpt>
      <trkpt lat="51.728950962424278" lon="10.947648994624615">
        <ele>290.94</ele>
        <time>2017-05-22T08:37:08Z</time>
      </trkpt>
      <trkpt lat="51.728944005444646" lon="10.947868013754487">
        <ele>289.97000000000003</ele>
        <time>2017-05-22T08:37:09Z</time>
      </trkpt>
      <trkpt lat="51.728913998231292" lon="10.948071023449302">
        <ele>289.97000000000003</ele>
        <time>2017-05-22T08:37:10Z</time>
      </trkpt>
      <trkpt lat="51.728860018774867" lon="10.948250982910395">
        <ele>289.97000000000003</ele>
        <time>2017-05-22T08:37:11Z</time>
      </trkpt>
      <trkpt lat="51.728774020448327" lon="10.948398001492023">
        <ele>289.97000000000003</ele>
        <time>2017-05-22T08:37:12Z</time>
      </trkpt>
      <trkpt lat="51.728664971888065" lon="10.948494980111718">
        <ele>289.97000000000003</ele>
        <time>2017-05-22T08:37:13Z</time>
      </trkpt>
      <trkpt lat="51.728518037125468" lon="10.948547031730413">
        <ele>290.94</ele>
        <time>2017-05-22T08:37:14Z</time>
      </trkpt>
      <trkpt lat="51.728381998836994" lon="10.94860402867198">
        <ele>290.94</ele>
        <time>2017-05-22T08:37:15Z</time>
      </trkpt>
      <trkpt lat="51.728244032710791" lon="10.948689021170139">
        <ele>290.94</ele>
        <time>2017-05-22T08:37:16Z</time>
      </trkpt>
      <trkpt lat="51.72811696305871" lon="10.948801003396511">
        <ele>290.94</ele>
        <time>2017-05-22T08:37:17Z</time>
      </trkpt>
      <trkpt lat="51.727998023852706" lon="10.948934024199843">
        <ele>290.45999999999998</ele>
        <time>2017-05-22T08:37:18Z</time>
      </trkpt>
      <trkpt lat="51.727889981120825" lon="10.94908095896244">
        <ele>290.45999999999998</ele>
        <time>2017-05-22T08:37:19Z</time>
      </trkpt>
      <trkpt lat="51.72779300250113" lon="10.949245998635888">
        <ele>289.97000000000003</ele>
        <time>2017-05-22T08:37:20Z</time>
      </trkpt>
      <trkpt lat="51.727564008906484" lon="10.949728041887283">
        <ele>289.00999999999999</ele>
        <time>2017-05-22T08:37:23Z</time>
      </trkpt>
      <trkpt lat="51.727115996181965" lon="10.951458988711238">
        <ele>286.13</ele>
        <time>2017-05-22T08:37:31Z</time>
      </trkpt>
      <trkpt lat="51.727039972320199" lon="10.95161397010088">
        <ele>285.64999999999998</ele>
        <time>2017-05-22T08:37:32Z</time>
      </trkpt>
      <trkpt lat="51.726928995922208" lon="10.951746990904212">
        <ele>285.64999999999998</ele>
        <time>2017-05-22T08:37:33Z</time>
      </trkpt>
      <trkpt lat="51.726802010089159" lon="10.951852016150951">
        <ele>286.61000000000001</ele>
        <time>2017-05-22T08:37:34Z</time>
      </trkpt>
      <trkpt lat="51.726678041741252" lon="10.951960980892181">
        <ele>286.13</ele>
        <time>2017-05-22T08:37:35Z</time>
      </trkpt>
      <trkpt lat="51.72629096545279" lon="10.952233979478478">
        <ele>285.64999999999998</ele>
        <time>2017-05-22T08:37:38Z</time>
      </trkpt>
      <trkpt lat="51.725374991074204" lon="10.95260102301836">
        <ele>284.69</ele>
        <time>2017-05-22T08:37:44Z</time>
      </trkpt>
      <trkpt lat="51.725200982764363" lon="10.952598005533218">
        <ele>284.20999999999998</ele>
        <time>2017-05-22T08:37:45Z</time>
      </trkpt>
      <trkpt lat="51.725047007203102" lon="10.952583001926541">
        <ele>284.20999999999998</ele>
        <time>2017-05-22T08:37:46Z</time>
      </trkpt>
      <trkpt lat="51.724560018628836" lon="10.95245098695159">
        <ele>284.20999999999998</ele>
        <time>2017-05-22T08:37:49Z</time>
      </trkpt>
      <trkpt lat="51.724409982562065" lon="10.952372029423714">
        <ele>284.69</ele>
        <time>2017-05-22T08:37:50Z</time>
      </trkpt>
      <trkpt lat="51.724044028669596" lon="10.952148986980319">
        <ele>285.64999999999998</ele>
        <time>2017-05-22T08:37:53Z</time>
      </trkpt>
      <trkpt lat="51.723916037008166" lon="10.952135995030403">
        <ele>285.17000000000002</ele>
        <time>2017-05-22T08:37:54Z</time>
      </trkpt>
      <trkpt lat="51.722793029621243" lon="10.952113028615713">
        <ele>285.64999999999998</ele>
        <time>2017-05-22T08:38:01Z</time>
      </trkpt>
      <trkpt lat="51.722137983888388" lon="10.952183017507195">
        <ele>286.61000000000001</ele>
        <time>2017-05-22T08:38:05Z</time>
      </trkpt>
      <trkpt lat="51.721960036084056" lon="10.952281001955271">
        <ele>286.13</ele>
        <time>2017-05-22T08:38:06Z</time>
      </trkpt>
      <trkpt lat="51.72074600122869" lon="10.953284986317158">
        <ele>287.56999999999999</ele>
        <time>2017-05-22T08:38:13Z</time>
      </trkpt>
      <trkpt lat="51.720598982647061" lon="10.953494030982256">
        <ele>287.56999999999999</ele>
        <time>2017-05-22T08:38:14Z</time>
      </trkpt>
      <trkpt lat="51.719604972749949" lon="10.95526403747499">
        <ele>285.17000000000002</ele>
        <time>2017-05-22T08:38:22Z</time>
      </trkpt>
      <trkpt lat="51.719538001343608" lon="10.955490013584495">
        <ele>285.17000000000002</ele>
        <time>2017-05-22T08:38:23Z</time>
      </trkpt>
      <trkpt lat="51.719487961381674" lon="10.955721018835902">
        <ele>285.17000000000002</ele>
        <time>2017-05-22T08:38:24Z</time>
      </trkpt>
      <trkpt lat="51.719454014673829" lon="10.955950012430549">
        <ele>285.17000000000002</ele>
        <time>2017-05-22T08:38:25Z</time>
      </trkpt>
      <trkpt lat="51.719449991360307" lon="10.95617095939815">
        <ele>285.17000000000002</ele>
        <time>2017-05-22T08:38:26Z</time>
      </trkpt>
      <trkpt lat="51.719485027715564" lon="10.956378998234868">
        <ele>285.64999999999998</ele>
        <time>2017-05-22T08:38:27Z</time>
      </trkpt>
      <trkpt lat="51.719546969980001" lon="10.956578990444541">
        <ele>285.17000000000002</ele>
        <time>2017-05-22T08:38:28Z</time>
      </trkpt>
      <trkpt lat="51.71962802298367" lon="10.956754004582763">
        <ele>285.17000000000002</ele>
        <time>2017-05-22T08:38:29Z</time>
      </trkpt>
      <trkpt lat="51.719748973846436" lon="10.956893982365727">
        <ele>284.69</ele>
        <time>2017-05-22T08:38:30Z</time>
      </trkpt>
      <trkpt lat="51.719892974942923" lon="10.957011999562383">
        <ele>284.69</ele>
        <time>2017-05-22T08:38:31Z</time>
      </trkpt>
      <trkpt lat="51.720038987696171" lon="10.957111995667219">
        <ele>284.20999999999998</ele>
        <time>2017-05-22T08:38:32Z</time>
      </trkpt>
      <trkpt lat="51.720191035419703" lon="10.957192964851856">
        <ele>284.20999999999998</ele>
        <time>2017-05-22T08:38:33Z</time>
      </trkpt>
      <trkpt lat="51.720580039545894" lon="10.957442997023463">
        <ele>283.25</ele>
        <time>2017-05-22T08:38:36Z</time>
      </trkpt>
      <trkpt lat="51.720675006508827" lon="10.957575011998415">
        <ele>283.25</ele>
        <time>2017-05-22T08:38:37Z</time>
      </trkpt>
      <trkpt lat="51.720727980136871" lon="10.957752959802747">
        <ele>283.25</ele>
        <time>2017-05-22T08:38:38Z</time>
      </trkpt>
      <trkpt lat="51.721052024513483" lon="10.958929024636745">
        <ele>284.20999999999998</ele>
        <time>2017-05-22T08:38:44Z</time>
      </trkpt>
      <trkpt lat="51.72115202061832" lon="10.959095992147923">
        <ele>284.20999999999998</ele>
        <time>2017-05-22T08:38:45Z</time>
      </trkpt>
      <trkpt lat="51.721430970355868" lon="10.959608964622021">
        <ele>284.20999999999998</ele>
        <time>2017-05-22T08:38:48Z</time>
      </trkpt>
      <trkpt lat="51.721473969519138" lon="10.959794959053397">
        <ele>284.20999999999998</ele>
        <time>2017-05-22T08:38:49Z</time>
      </trkpt>
      <trkpt lat="51.721486039459705" lon="10.959991011768579">
        <ele>284.20999999999998</ele>
        <time>2017-05-22T08:38:50Z</time>
      </trkpt>
      <trkpt lat="51.721485033631325" lon="10.960198966786265">
        <ele>284.20999999999998</ele>
        <time>2017-05-22T08:38:51Z</time>
      </trkpt>
      <trkpt lat="51.721444968134165" lon="10.960435001179576">
        <ele>283.73000000000002</ele>
        <time>2017-05-22T08:38:52Z</time>
      </trkpt>
      <trkpt lat="51.721401968970895" lon="10.960689978674054">
        <ele>283.73000000000002</ele>
        <time>2017-05-22T08:38:53Z</time>
      </trkpt>
      <trkpt lat="51.721344972029328" lon="10.961295990273356">
        <ele>282.76999999999998</ele>
        <time>2017-05-22T08:38:56Z</time>
      </trkpt>
      <trkpt lat="51.721313958987594" lon="10.961429011076689">
        <ele>282.27999999999997</ele>
        <time>2017-05-22T08:38:57Z</time>
      </trkpt>
      <trkpt lat="51.721256962046027" lon="10.961524983868003">
        <ele>281.31999999999999</ele>
        <time>2017-05-22T08:38:58Z</time>
      </trkpt>
      <trkpt lat="51.721178004518151" lon="10.961602013558149">
        <ele>279.88</ele>
        <time>2017-05-22T08:38:59Z</time>
      </trkpt>
      <trkpt lat="51.721098041161895" lon="10.961636966094375">
        <ele>279.39999999999998</ele>
        <time>2017-05-22T08:39:00Z</time>
      </trkpt>
      <trkpt lat="51.720999972894788" lon="10.961665967479348">
        <ele>278.92000000000002</ele>
        <time>2017-05-22T08:39:01Z</time>
      </trkpt>
      <trkpt lat="51.720781959593296" lon="10.961715001612902">
        <ele>279.88</ele>
        <time>2017-05-22T08:39:03Z</time>
      </trkpt>
      <trkpt lat="51.72067902982235" lon="10.961673008278012">
        <ele>279.39999999999998</ele>
        <time>2017-05-22T08:39:04Z</time>
      </trkpt>
      <trkpt lat="51.720560006797314" lon="10.961592961102724">
        <ele>278.44</ele>
        <time>2017-05-22T08:39:05Z</time>
      </trkpt>
      <trkpt lat="51.720177037641406" lon="10.961387017741799">
        <ele>278.44</ele>
        <time>2017-05-22T08:39:08Z</time>
      </trkpt>
      <trkpt lat="51.720019960775971" lon="10.961378971114755">
        <ele>278.92000000000002</ele>
        <time>2017-05-22T08:39:09Z</time>
      </trkpt>
      <trkpt lat="51.719863973557949" lon="10.961401015520096">
        <ele>278.92000000000002</ele>
        <time>2017-05-22T08:39:10Z</time>
      </trkpt>
      <trkpt lat="51.719717960804701" lon="10.961433034390211">
        <ele>278.44</ele>
        <time>2017-05-22T08:39:11Z</time>
      </trkpt>
      <trkpt lat="51.719565996900201" lon="10.961504029110074">
        <ele>278.44</ele>
        <time>2017-05-22T08:39:12Z</time>
      </trkpt>
      <trkpt lat="51.719417972490191" lon="10.961609976366162">
        <ele>278.44</ele>
        <time>2017-05-22T08:39:13Z</time>
      </trkpt>
      <trkpt lat="51.719295009970665" lon="10.961708966642618">
        <ele>277.95999999999998</ele>
        <time>2017-05-22T08:39:14Z</time>
      </trkpt>
      <trkpt lat="51.71915796585381" lon="10.961830001324415">
        <ele>277.95999999999998</ele>
        <time>2017-05-22T08:39:15Z</time>
      </trkpt>
      <trkpt lat="51.719038020819426" lon="10.96197098493576">
        <ele>277.95999999999998</ele>
        <time>2017-05-22T08:39:16Z</time>
      </trkpt>
      <trkpt lat="51.71887599863112" lon="10.962197966873646">
        <ele>277</ele>
        <time>2017-05-22T08:39:17Z</time>
      </trkpt>
      <trkpt lat="51.718750018626451" lon="10.962425032630563">
        <ele>276.51999999999998</ele>
        <time>2017-05-22T08:39:18Z</time>
      </trkpt>
      <trkpt lat="51.718638958409429" lon="10.962625024840236">
        <ele>276.51999999999998</ele>
        <time>2017-05-22T08:39:19Z</time>
      </trkpt>
      <trkpt lat="51.718550026416779" lon="10.962837003171444">
        <ele>276.51999999999998</ele>
        <time>2017-05-22T08:39:20Z</time>
      </trkpt>
      <trkpt lat="51.718491017818451" lon="10.963073037564754">
        <ele>276.04000000000002</ele>
        <time>2017-05-22T08:39:21Z</time>
      </trkpt>
      <trkpt lat="51.718433015048504" lon="10.963295996189117">
        <ele>276.04000000000002</ele>
        <time>2017-05-22T08:39:22Z</time>
      </trkpt>
      <trkpt lat="51.718399990350008" lon="10.963549967855215">
        <ele>276.04000000000002</ele>
        <time>2017-05-22T08:39:23Z</time>
      </trkpt>
      <trkpt lat="51.718370988965034" lon="10.963792037218809">
        <ele>276.04000000000002</ele>
        <time>2017-05-22T08:39:24Z</time>
      </trkpt>
      <trkpt lat="51.718299994245172" lon="10.964796021580696">
        <ele>278.44</ele>
        <time>2017-05-22T08:39:29Z</time>
      </trkpt>
      <trkpt lat="51.718356991186738" lon="10.965495994314551">
        <ele>275.06999999999999</ele>
        <time>2017-05-22T08:39:33Z</time>
      </trkpt>
      <trkpt lat="51.718824030831456" lon="10.967644024640322">
        <ele>270.75</ele>
        <time>2017-05-22T08:39:45Z</time>
      </trkpt>
      <trkpt lat="51.718997033312917" lon="10.968197984620929">
        <ele>271.23000000000002</ele>
        <time>2017-05-22T08:39:48Z</time>
      </trkpt>
      <trkpt lat="51.719208005815744" lon="10.96970203332603">
        <ele>269.79000000000002</ele>
        <time>2017-05-22T08:39:54Z</time>
      </trkpt>
      <trkpt lat="51.71922099776566" lon="10.969944018870592">
        <ele>269.79000000000002</ele>
        <time>2017-05-22T08:39:55Z</time>
      </trkpt>
      <trkpt lat="51.719217980280519" lon="10.970172006636858">
        <ele>269.31</ele>
        <time>2017-05-22T08:39:56Z</time>
      </trkpt>
      <trkpt lat="51.719185961410403" lon="10.970387002453208">
        <ele>269.79000000000002</ele>
        <time>2017-05-22T08:39:57Z</time>
      </trkpt>
      <trkpt lat="51.719122007489204" lon="10.970548018813133">
        <ele>268.35000000000002</ele>
        <time>2017-05-22T08:39:58Z</time>
      </trkpt>
      <trkpt lat="51.719032991677523" lon="10.97064902074635">
        <ele>267.38</ele>
        <time>2017-05-22T08:39:59Z</time>
      </trkpt>
      <trkpt lat="51.718934001401067" lon="10.970701994374394">
        <ele>266.89999999999998</ele>
        <time>2017-05-22T08:40:00Z</time>
      </trkpt>
      <trkpt lat="51.718843979761004" lon="10.970724038779736">
        <ele>266.89999999999998</ele>
        <time>2017-05-22T08:40:01Z</time>
      </trkpt>
      <trkpt lat="51.718734009191394" lon="10.970694031566381">
        <ele>266.42000000000002</ele>
        <time>2017-05-22T08:40:02Z</time>
      </trkpt>
      <trkpt lat="51.718622026965022" lon="10.970646003261209">
        <ele>266.89999999999998</ele>
        <time>2017-05-22T08:40:03Z</time>
      </trkpt>
      <trkpt lat="51.718503003939986" lon="10.970610966905951">
        <ele>266.89999999999998</ele>
        <time>2017-05-22T08:40:04Z</time>
      </trkpt>
      <trkpt lat="51.718376018106937" lon="10.970595041289926">
        <ele>267.38</ele>
        <time>2017-05-22T08:40:05Z</time>
      </trkpt>
      <trkpt lat="51.718248026445508" lon="10.9706050157547">
        <ele>267.38</ele>
        <time>2017-05-22T08:40:06Z</time>
      </trkpt>
      <trkpt lat="51.718121962621808" lon="10.970621025189757">
        <ele>267.86000000000001</ele>
        <time>2017-05-22T08:40:07Z</time>
      </trkpt>
      <trkpt lat="51.716846991330385" lon="10.970810037106276">
        <ele>268.82999999999998</ele>
        <time>2017-05-22T08:40:18Z</time>
      </trkpt>
      <trkpt lat="51.716644987463951" lon="10.970764020457864">
        <ele>268.82999999999998</ele>
        <time>2017-05-22T08:40:20Z</time>
      </trkpt>
      <trkpt lat="51.716048028320074" lon="10.970710041001439">
        <ele>269.79000000000002</ele>
        <time>2017-05-22T08:40:25Z</time>
      </trkpt>
      <trkpt lat="51.715946020558476" lon="10.97073501907289">
        <ele>269.79000000000002</ele>
        <time>2017-05-22T08:40:26Z</time>
      </trkpt>
      <trkpt lat="51.715855998918414" lon="10.970806013792753">
        <ele>269.79000000000002</ele>
        <time>2017-05-22T08:40:27Z</time>
      </trkpt>
      <trkpt lat="51.715776035562158" lon="10.97090701572597">
        <ele>269.79000000000002</ele>
        <time>2017-05-22T08:40:28Z</time>
      </trkpt>
      <trkpt lat="51.715709986165166" lon="10.971039030700922">
        <ele>269.31</ele>
        <time>2017-05-22T08:40:29Z</time>
      </trkpt>
      <trkpt lat="51.715663969516754" lon="10.971194012090564">
        <ele>268.82999999999998</ele>
        <time>2017-05-22T08:40:30Z</time>
      </trkpt>
      <trkpt lat="51.715634968131781" lon="10.971357962116599">
        <ele>268.82999999999998</ele>
        <time>2017-05-22T08:40:31Z</time>
      </trkpt>
      <trkpt lat="51.715618036687374" lon="10.971517972648144">
        <ele>268.82999999999998</ele>
        <time>2017-05-22T08:40:32Z</time>
      </trkpt>
      <trkpt lat="51.715601021423936" lon="10.971674965694547">
        <ele>268.82999999999998</ele>
        <time>2017-05-22T08:40:33Z</time>
      </trkpt>
      <trkpt lat="51.715563973411918" lon="10.972966030240059">
        <ele>268.35000000000002</ele>
        <time>2017-05-22T08:40:44Z</time>
      </trkpt>
      <trkpt lat="51.715562967583537" lon="10.973076000809669">
        <ele>268.35000000000002</ele>
        <time>2017-05-22T08:40:45Z</time>
      </trkpt>
      <trkpt lat="51.715585011988878" lon="10.973182031884789">
        <ele>267.38</ele>
        <time>2017-05-22T08:40:46Z</time>
      </trkpt>
      <trkpt lat="51.715617030858994" lon="10.973284961655736">
        <ele>267.86000000000001</ele>
        <time>2017-05-22T08:40:47Z</time>
      </trkpt>
      <trkpt lat="51.715662041679025" lon="10.973373977467418">
        <ele>267.86000000000001</ele>
        <time>2017-05-22T08:40:48Z</time>
      </trkpt>
      <trkpt lat="51.715715015307069" lon="10.973461987450719">
        <ele>267.86000000000001</ele>
        <time>2017-05-22T08:40:49Z</time>
      </trkpt>
      <trkpt lat="51.715887011960149" lon="10.973730962723494">
        <ele>268.35000000000002</ele>
        <time>2017-05-22T08:40:52Z</time>
      </trkpt>
      <trkpt lat="51.715926993638277" lon="10.97382802516222">
        <ele>268.35000000000002</ele>
        <time>2017-05-22T08:40:53Z</time>
      </trkpt>
      <trkpt lat="51.715951971709728" lon="10.973916035145521">
        <ele>268.35000000000002</ele>
        <time>2017-05-22T08:40:54Z</time>
      </trkpt>
      <trkpt lat="51.715965969488025" lon="10.973982000723481">
        <ele>267.86000000000001</ele>
        <time>2017-05-22T08:40:55Z</time>
      </trkpt>
      <trkpt lat="51.715967981144786" lon="10.974034974351525">
        <ele>268.35000000000002</ele>
        <time>2017-05-22T08:40:56Z</time>
      </trkpt>
      <trkpt lat="51.715969992801547" lon="10.974084008485079">
        <ele>268.35000000000002</ele>
        <time>2017-05-22T08:40:57Z</time>
      </trkpt>
      <trkpt lat="51.715958006680012" lon="10.974291963502765">
        <ele>267.86000000000001</ele>
        <time>2017-05-22T08:41:02Z</time>
      </trkpt>
      <trkpt lat="51.715977033600211" lon="10.974320964887738">
        <ele>267.86000000000001</ele>
        <time>2017-05-22T08:41:03Z</time>
      </trkpt>
      <trkpt lat="51.716008968651295" lon="10.974334962666035">
        <ele>267.86000000000001</ele>
        <time>2017-05-22T08:41:04Z</time>
      </trkpt>
      <trkpt lat="51.716050039976835" lon="10.974334962666035">
        <ele>268.35000000000002</ele>
        <time>2017-05-22T08:41:05Z</time>
      </trkpt>
      <trkpt lat="51.716099996119738" lon="10.974307972937822">
        <ele>268.35000000000002</ele>
        <time>2017-05-22T08:41:06Z</time>
      </trkpt>
      <trkpt lat="51.716156993061304" lon="10.974277965724468">
        <ele>268.35000000000002</ele>
        <time>2017-05-22T08:41:07Z</time>
      </trkpt>
      <trkpt lat="51.716852020472288" lon="10.973861971870065">
        <ele>269.79000000000002</ele>
        <time>2017-05-22T08:41:15Z</time>
      </trkpt>
      <trkpt lat="51.71694396995008" lon="10.973757030442357">
        <ele>270.26999999999998</ele>
        <time>2017-05-22T08:41:16Z</time>
      </trkpt>
      <trkpt lat="51.7173280287534" lon="10.973330978304148">
        <ele>271.70999999999998</ele>
        <time>2017-05-22T08:41:20Z</time>
      </trkpt>
      <trkpt lat="51.717542018741369" lon="10.973183959722519">
        <ele>272.67000000000002</ele>
        <time>2017-05-22T08:41:22Z</time>
      </trkpt>
      <trkpt lat="51.717690965160728" lon="10.973118999972939">
        <ele>273.14999999999998</ele>
        <time>2017-05-22T08:41:23Z</time>
      </trkpt>
      <trkpt lat="51.717814011499286" lon="10.973116988316178">
        <ele>273.63</ele>
        <time>2017-05-22T08:41:24Z</time>
      </trkpt>
      <trkpt lat="51.71810301952064" lon="10.973087986931205">
        <ele>275.06999999999999</ele>
        <time>2017-05-22T08:41:26Z</time>
      </trkpt>
      <trkpt lat="51.718712970614433" lon="10.973027972504497">
        <ele>277.48000000000002</ele>
        <time>2017-05-22T08:41:30Z</time>
      </trkpt>
      <trkpt lat="51.718843979761004" lon="10.972977010533214">
        <ele>278.44</ele>
        <time>2017-05-22T08:41:31Z</time>
      </trkpt>
      <trkpt lat="51.718979012221098" lon="10.972898975014687">
        <ele>278.92000000000002</ele>
        <time>2017-05-22T08:41:32Z</time>
      </trkpt>
      <trkpt lat="51.71911203302443" lon="10.972801996394992">
        <ele>279.39999999999998</ele>
        <time>2017-05-22T08:41:33Z</time>
      </trkpt>
      <trkpt lat="51.71924002468586" lon="10.972680039703846">
        <ele>280.36000000000001</ele>
        <time>2017-05-22T08:41:34Z</time>
      </trkpt>
      <trkpt lat="51.719347983598709" lon="10.972546013072133">
        <ele>280.83999999999997</ele>
        <time>2017-05-22T08:41:35Z</time>
      </trkpt>
      <trkpt lat="51.71943599358201" lon="10.972380973398685">
        <ele>281.80000000000001</ele>
        <time>2017-05-22T08:41:36Z</time>
      </trkpt>
      <trkpt lat="51.719501037150621" lon="10.972165977582335">
        <ele>282.27999999999997</ele>
        <time>2017-05-22T08:41:37Z</time>
      </trkpt>
      <trkpt lat="51.71956499107182" lon="10.97193798981607">
        <ele>283.25</ele>
        <time>2017-05-22T08:41:38Z</time>
      </trkpt>
      <trkpt lat="51.719859028235078" lon="10.971026960760355">
        <ele>287.08999999999997</ele>
        <time>2017-05-22T08:41:42Z</time>
      </trkpt>
      <trkpt lat="51.72010101377964" lon="10.970405023545027">
        <ele>288.05000000000001</ele>
        <time>2017-05-22T08:41:45Z</time>
      </trkpt>
      <trkpt lat="51.720177037641406" lon="10.97022196277976">
        <ele>288.52999999999997</ele>
        <time>2017-05-22T08:41:46Z</time>
      </trkpt>
      <trkpt lat="51.720255995169282" lon="10.970029011368752">
        <ele>289.49000000000001</ele>
        <time>2017-05-22T08:41:47Z</time>
      </trkpt>
      <trkpt lat="51.721011037006974" lon="10.968657983466983">
        <ele>290.94</ele>
        <time>2017-05-22T08:41:54Z</time>
      </trkpt>
      <trkpt lat="51.722047040238976" lon="10.967186959460378">
        <ele>298.14999999999998</ele>
        <time>2017-05-22T08:42:02Z</time>
      </trkpt>
      <trkpt lat="51.722416011616588" lon="10.966683961451054">
        <ele>300.06999999999999</ele>
        <time>2017-05-22T08:42:05Z</time>
      </trkpt>
      <trkpt lat="51.722554983571172" lon="10.966571979224682">
        <ele>301.02999999999997</ele>
        <time>2017-05-22T08:42:06Z</time>
      </trkpt>
      <trkpt lat="51.722714994102716" lon="10.966481035575271">
        <ele>301.50999999999999</ele>
        <time>2017-05-22T08:42:07Z</time>
      </trkpt>
      <trkpt lat="51.723523009568453" lon="10.96618096344173">
        <ele>305.83999999999997</ele>
        <time>2017-05-22T08:42:12Z</time>
      </trkpt>
      <trkpt lat="51.723686037585139" lon="10.966170988976955">
        <ele>306.80000000000001</ele>
        <time>2017-05-22T08:42:13Z</time>
      </trkpt>
      <trkpt lat="51.723858034238219" lon="10.966205019503832">
        <ele>307.75999999999999</ele>
        <time>2017-05-22T08:42:14Z</time>
      </trkpt>
      <trkpt lat="51.724032964557409" lon="10.966290012001991">
        <ele>308.72000000000003</ele>
        <time>2017-05-22T08:42:15Z</time>
      </trkpt>
      <trkpt lat="51.724177971482277" lon="10.966400988399982">
        <ele>310.16000000000003</ele>
        <time>2017-05-22T08:42:16Z</time>
      </trkpt>
      <trkpt lat="51.724299006164074" lon="10.966510958969593">
        <ele>311.60000000000002</ele>
        <time>2017-05-22T08:42:17Z</time>
      </trkpt>
      <trkpt lat="51.724422974511981" lon="10.966607015579939">
        <ele>314.49000000000001</ele>
        <time>2017-05-22T08:42:18Z</time>
      </trkpt>
      <trkpt lat="51.724664960056543" lon="10.966621013358235">
        <ele>316.41000000000003</ele>
        <time>2017-05-22T08:42:20Z</time>
      </trkpt>
      <trkpt lat="51.724791023880243" lon="10.96665496006608">
        <ele>317.37</ele>
        <time>2017-05-22T08:42:21Z</time>
      </trkpt>
      <trkpt lat="51.724919015541673" lon="10.966728972271085">
        <ele>318.32999999999998</ele>
        <time>2017-05-22T08:42:22Z</time>
      </trkpt>
      <trkpt lat="51.725041978061199" lon="10.966833997517824">
        <ele>319.30000000000001</ele>
        <time>2017-05-22T08:42:23Z</time>
      </trkpt>
      <trkpt lat="51.725161001086235" lon="10.96695302054286">
        <ele>319.77999999999997</ele>
        <time>2017-05-22T08:42:24Z</time>
      </trkpt>
      <trkpt lat="51.725265020504594" lon="10.967087969183922">
        <ele>321.22000000000003</ele>
        <time>2017-05-22T08:42:25Z</time>
      </trkpt>
      <trkpt lat="51.725355964154005" lon="10.967229958623648">
        <ele>322.18000000000001</ele>
        <time>2017-05-22T08:42:26Z</time>
      </trkpt>
      <trkpt lat="51.72545101493597" lon="10.967350993305445">
        <ele>323.13999999999999</ele>
        <time>2017-05-22T08:42:27Z</time>
      </trkpt>
      <trkpt lat="51.725567020475864" lon="10.967437997460365">
        <ele>324.10000000000002</ele>
        <time>2017-05-22T08:42:28Z</time>
      </trkpt>
      <trkpt lat="51.725698029622436" lon="10.967517960816622">
        <ele>325.06</ele>
        <time>2017-05-22T08:42:29Z</time>
      </trkpt>
      <trkpt lat="51.72667502425611" lon="10.968183986842632">
        <ele>332.26999999999998</ele>
        <time>2017-05-22T08:42:36Z</time>
      </trkpt>
      <trkpt lat="51.726831011474133" lon="10.968225980177522">
        <ele>333.23000000000002</ele>
        <time>2017-05-22T08:42:37Z</time>
      </trkpt>
      <trkpt lat="51.727868020534515" lon="10.96826596185565">
        <ele>339.95999999999998</ele>
        <time>2017-05-22T08:42:44Z</time>
      </trkpt>
      <trkpt lat="51.727976985275745" lon="10.968241989612579">
        <ele>340.92000000000002</ele>
        <time>2017-05-22T08:42:45Z</time>
      </trkpt>
      <trkpt lat="51.728038005530834" lon="10.96817996352911">
        <ele>339.95999999999998</ele>
        <time>2017-05-22T08:42:46Z</time>
      </trkpt>
      <trkpt lat="51.728082010522485" lon="10.968087008222938">
        <ele>340.44</ele>
        <time>2017-05-22T08:42:47Z</time>
      </trkpt>
      <trkpt lat="51.728097014129162" lon="10.967966979369521">
        <ele>341.41000000000003</ele>
        <time>2017-05-22T08:42:48Z</time>
      </trkpt>
      <trkpt lat="51.728103971108794" lon="10.967842005193233">
        <ele>341.88999999999999</ele>
        <time>2017-05-22T08:42:49Z</time>
      </trkpt>
      <trkpt lat="51.72813699580729" lon="10.967725999653339">
        <ele>342.37</ele>
        <time>2017-05-22T08:42:50Z</time>
      </trkpt>
      <trkpt lat="51.728198016062379" lon="10.967658022418618">
        <ele>342.85000000000002</ele>
        <time>2017-05-22T08:42:51Z</time>
      </trkpt>
      <trkpt lat="51.728280996903777" lon="10.967660034075379">
        <ele>343.32999999999998</ele>
        <time>2017-05-22T08:42:52Z</time>
      </trkpt>
      <trkpt lat="51.728369006887078" lon="10.96774997189641">
        <ele>344.29000000000002</ele>
        <time>2017-05-22T08:42:53Z</time>
      </trkpt>
      <trkpt lat="51.728442013263702" lon="10.967887016013265">
        <ele>344.76999999999998</ele>
        <time>2017-05-22T08:42:54Z</time>
      </trkpt>
      <trkpt lat="51.728531029075384" lon="10.968054989352822">
        <ele>345.73000000000002</ele>
        <time>2017-05-22T08:42:55Z</time>
      </trkpt>
      <trkpt lat="51.729109967127442" lon="10.969337001442909">
        <ele>352.94</ele>
        <time>2017-05-22T08:43:01Z</time>
      </trkpt>
      <trkpt lat="51.729560997337103" lon="10.970451040193439">
        <ele>359.19</ele>
        <time>2017-05-22T08:43:06Z</time>
      </trkpt>
      <trkpt lat="51.729678008705378" lon="10.970639968290925">
        <ele>359.67000000000002</ele>
        <time>2017-05-22T08:43:07Z</time>
      </trkpt>
      <trkpt lat="51.730594988912344" lon="10.972378961741924">
        <ele>367.36000000000001</ele>
        <time>2017-05-22T08:43:16Z</time>
      </trkpt>
      <trkpt lat="51.730621978640556" lon="10.972562022507191">
        <ele>368.31999999999999</ele>
        <time>2017-05-22T08:43:17Z</time>
      </trkpt>
      <trkpt lat="51.730623990297318" lon="10.972735024988651">
        <ele>368.80000000000001</ele>
        <time>2017-05-22T08:43:18Z</time>
      </trkpt>
      <trkpt lat="51.730581996962428" lon="10.972896041348577">
        <ele>368.80000000000001</ele>
        <time>2017-05-22T08:43:19Z</time>
      </trkpt>
      <trkpt lat="51.730518965050578" lon="10.973076000809669">
        <ele>368.80000000000001</ele>
        <time>2017-05-22T08:43:20Z</time>
      </trkpt>
      <trkpt lat="51.73043598420918" lon="10.973241040483117">
        <ele>369.27999999999997</ele>
        <time>2017-05-22T08:43:21Z</time>
      </trkpt>
      <trkpt lat="51.730319978669286" lon="10.973401973024011">
        <ele>369.75999999999999</ele>
        <time>2017-05-22T08:43:22Z</time>
      </trkpt>
      <trkpt lat="51.730187963694334" lon="10.973594002425671">
        <ele>370.24000000000001</ele>
        <time>2017-05-22T08:43:23Z</time>
      </trkpt>
      <trkpt lat="51.730089979246259" lon="10.973783014342189">
        <ele>370.73000000000002</ele>
        <time>2017-05-22T08:43:24Z</time>
      </trkpt>
      <trkpt lat="51.730019990354776" lon="10.973983006551862">
        <ele>370.73000000000002</ele>
        <time>2017-05-22T08:43:25Z</time>
      </trkpt>
      <trkpt lat="51.729987971484661" lon="10.974220968782902">
        <ele>372.17000000000002</ele>
        <time>2017-05-22T08:43:26Z</time>
      </trkpt>
      <trkpt lat="51.729980008676648" lon="10.974465971812606">
        <ele>372.64999999999998</ele>
        <time>2017-05-22T08:43:27Z</time>
      </trkpt>
      <trkpt lat="51.72998302616179" lon="10.974717009812593">
        <ele>373.61000000000001</ele>
        <time>2017-05-22T08:43:28Z</time>
      </trkpt>
      <trkpt lat="51.729997023940086" lon="10.974962012842298">
        <ele>374.56999999999999</ele>
        <time>2017-05-22T08:43:29Z</time>
      </trkpt>
      <trkpt lat="51.730053015053272" lon="10.97520500421524">
        <ele>375.52999999999997</ele>
        <time>2017-05-22T08:43:30Z</time>
      </trkpt>
      <trkpt lat="51.730127027258277" lon="10.975454030558467">
        <ele>376.49000000000001</ele>
        <time>2017-05-22T08:43:31Z</time>
      </trkpt>
      <trkpt lat="51.730207996442914" lon="10.975711019709706">
        <ele>376.97000000000003</ele>
        <time>2017-05-22T08:43:32Z</time>
      </trkpt>
      <trkpt lat="51.730276979506016" lon="10.975990975275636">
        <ele>377.94</ele>
        <time>2017-05-22T08:43:33Z</time>
      </trkpt>
      <trkpt lat="51.730336993932724" lon="10.976275959983468">
        <ele>378.89999999999998</ele>
        <time>2017-05-22T08:43:34Z</time>
      </trkpt>
      <trkpt lat="51.730503039434552" lon="10.977039970457554">
        <ele>381.77999999999997</ele>
        <time>2017-05-22T08:43:37Z</time>
      </trkpt>
      <trkpt lat="51.730578979477286" lon="10.977229988202453">
        <ele>382.25999999999999</ele>
        <time>2017-05-22T08:43:38Z</time>
      </trkpt>
      <trkpt lat="51.730677969753742" lon="10.977379018440843">
        <ele>382.74000000000001</ele>
        <time>2017-05-22T08:43:39Z</time>
      </trkpt>
      <trkpt lat="51.73080001026392" lon="10.977508015930653">
        <ele>383.69999999999999</ele>
        <time>2017-05-22T08:43:40Z</time>
      </trkpt>
      <trkpt lat="51.730928001925349" lon="10.977639025077224">
        <ele>384.18000000000001</ele>
        <time>2017-05-22T08:43:41Z</time>
      </trkpt>
      <trkpt lat="51.731565026566386" lon="10.978214023634791">
        <ele>386.58999999999997</ele>
        <time>2017-05-22T08:43:46Z</time>
      </trkpt>
      <trkpt lat="51.731665022671223" lon="10.978388031944633">
        <ele>387.55000000000001</ele>
        <time>2017-05-22T08:43:47Z</time>
      </trkpt>
      <trkpt lat="51.731744986027479" lon="10.978582995012403">
        <ele>387.06999999999999</ele>
        <time>2017-05-22T08:43:48Z</time>
      </trkpt>
      <trkpt lat="51.731953024864197" lon="10.979001000523567">
        <ele>390.43000000000001</ele>
        <time>2017-05-22T08:43:50Z</time>
      </trkpt>
      <trkpt lat="51.732084034010768" lon="10.979186994954944">
        <ele>391.38999999999999</ele>
        <time>2017-05-22T08:43:51Z</time>
      </trkpt>
      <trkpt lat="51.732621984556317" lon="10.980031974613667">
        <ele>398.60000000000002</ele>
        <time>2017-05-22T08:43:55Z</time>
      </trkpt>
      <trkpt lat="51.732716029509902" lon="10.980289969593287">
        <ele>399.56999999999999</ele>
        <time>2017-05-22T08:43:56Z</time>
      </trkpt>
      <trkpt lat="51.73329496756196" lon="10.982234990224242">
        <ele>406.76999999999998</ele>
        <time>2017-05-22T08:44:03Z</time>
      </trkpt>
      <trkpt lat="51.733468975871801" lon="10.98308801651001">
        <ele>408.69999999999999</ele>
        <time>2017-05-22T08:44:06Z</time>
      </trkpt>
      <trkpt lat="51.73355296254158" lon="10.983307035639882">
        <ele>409.66000000000003</ele>
        <time>2017-05-22T08:44:07Z</time>
      </trkpt>
      <trkpt lat="51.733643990010023" lon="10.983488000929356">
        <ele>410.13999999999999</ele>
        <time>2017-05-22T08:44:08Z</time>
      </trkpt>
      <trkpt lat="51.733737029135227" lon="10.983639964833856">
        <ele>411.10000000000002</ele>
        <time>2017-05-22T08:44:09Z</time>
      </trkpt>
      <trkpt lat="51.733828978613019" lon="10.983773991465569">
        <ele>412.06</ele>
        <time>2017-05-22T08:44:10Z</time>
      </trkpt>
      <trkpt lat="51.733969962224364" lon="10.984020000323653">
        <ele>413.01999999999998</ele>
        <time>2017-05-22T08:44:12Z</time>
      </trkpt>
      <trkpt lat="51.734010027721524" lon="10.984137011691928">
        <ele>413.5</ele>
        <time>2017-05-22T08:44:13Z</time>
      </trkpt>
      <trkpt lat="51.734013967216015" lon="10.984258968383074">
        <ele>413.5</ele>
        <time>2017-05-22T08:44:14Z</time>
      </trkpt>
      <trkpt lat="51.733985971659422" lon="10.984404981136322">
        <ele>413.01999999999998</ele>
        <time>2017-05-22T08:44:15Z</time>
      </trkpt>
      <trkpt lat="51.733935009688139" lon="10.984576977789402">
        <ele>413.5</ele>
        <time>2017-05-22T08:44:16Z</time>
      </trkpt>
      <trkpt lat="51.733888993039727" lon="10.984760038554668">
        <ele>413.5</ele>
        <time>2017-05-22T08:44:17Z</time>
      </trkpt>
      <trkpt lat="51.733854962512851" lon="10.984963970258832">
        <ele>414.47000000000003</ele>
        <time>2017-05-22T08:44:18Z</time>
      </trkpt>
      <trkpt lat="51.733842976391315" lon="10.985182989388704">
        <ele>414.47000000000003</ele>
        <time>2017-05-22T08:44:19Z</time>
      </trkpt>
      <trkpt lat="51.733863009139895" lon="10.985404020175338">
        <ele>414.47000000000003</ele>
        <time>2017-05-22T08:44:20Z</time>
      </trkpt>
      <trkpt lat="51.733900979161263" lon="10.985628990456462">
        <ele>414.47000000000003</ele>
        <time>2017-05-22T08:44:21Z</time>
      </trkpt>
      <trkpt lat="51.73395898193121" lon="10.985865024849772">
        <ele>413.5</ele>
        <time>2017-05-22T08:44:22Z</time>
      </trkpt>
      <trkpt lat="51.734018996357918" lon="10.986107010394335">
        <ele>412.54000000000002</ele>
        <time>2017-05-22T08:44:23Z</time>
      </trkpt>
      <trkpt lat="51.734697008505464" lon="10.988330980762839">
        <ele>408.69999999999999</ele>
        <time>2017-05-22T08:44:31Z</time>
      </trkpt>
      <trkpt lat="51.735641984269023" lon="10.991406971588731">
        <ele>401.49000000000001</ele>
        <time>2017-05-22T08:44:42Z</time>
      </trkpt>
      <trkpt lat="51.736703971400857" lon="10.994181968271732">
        <ele>395.72000000000003</ele>
        <time>2017-05-22T08:44:52Z</time>
      </trkpt>
      <trkpt lat="51.737535959109664" lon="10.99692502990365">
        <ele>390.43000000000001</ele>
        <time>2017-05-22T08:45:01Z</time>
      </trkpt>
      <trkpt lat="51.737641990184784" lon="10.997938988730311">
        <ele>388.02999999999997</ele>
        <time>2017-05-22T08:45:06Z</time>
      </trkpt>
      <trkpt lat="51.737674009054899" lon="10.99806496873498">
        <ele>388.02999999999997</ele>
        <time>2017-05-22T08:45:07Z</time>
      </trkpt>
      <trkpt lat="51.737730000168085" lon="10.998147027567029">
        <ele>388.50999999999999</ele>
        <time>2017-05-22T08:45:08Z</time>
      </trkpt>
      <trkpt lat="51.737799989059567" lon="10.99814803339541">
        <ele>387.55000000000001</ele>
        <time>2017-05-22T08:45:09Z</time>
      </trkpt>
      <trkpt lat="51.737872995436192" lon="10.99808500148356">
        <ele>387.06999999999999</ele>
        <time>2017-05-22T08:45:10Z</time>
      </trkpt>
      <trkpt lat="51.737938039004803" lon="10.997974025085568">
        <ele>386.58999999999997</ele>
        <time>2017-05-22T08:45:11Z</time>
      </trkpt>
      <trkpt lat="51.737980032339692" lon="10.997809991240501">
        <ele>386.58999999999997</ele>
        <time>2017-05-22T08:45:12Z</time>
      </trkpt>
      <trkpt lat="51.738024959340692" lon="10.99761301651597">
        <ele>385.63</ele>
        <time>2017-05-22T08:45:13Z</time>
      </trkpt>
      <trkpt lat="51.738212965428829" lon="10.997015973553061">
        <ele>384.66000000000003</ele>
        <time>2017-05-22T08:45:16Z</time>
      </trkpt>
      <trkpt lat="51.738308016210794" lon="10.996826961636543">
        <ele>384.18000000000001</ele>
        <time>2017-05-22T08:45:17Z</time>
      </trkpt>
      <trkpt lat="51.738424021750689" lon="10.996639039367437">
        <ele>383.69999999999999</ele>
        <time>2017-05-22T08:45:18Z</time>
      </trkpt>
      <trkpt lat="51.738547990098596" lon="10.99647500552237">
        <ele>383.22000000000003</ele>
        <time>2017-05-22T08:45:19Z</time>
      </trkpt>
      <trkpt lat="51.738686040043831" lon="10.996332010254264">
        <ele>382.25999999999999</ele>
        <time>2017-05-22T08:45:20Z</time>
      </trkpt>
      <trkpt lat="51.738826017826796" lon="10.996208041906357">
        <ele>382.25999999999999</ele>
        <time>2017-05-22T08:45:21Z</time>
      </trkpt>
      <trkpt lat="51.739101028069854" lon="10.996051970869303">
        <ele>381.77999999999997</ele>
        <time>2017-05-22T08:45:23Z</time>
      </trkpt>
      <trkpt lat="51.739235976710916" lon="10.996058005839586">
        <ele>381.77999999999997</ele>
        <time>2017-05-22T08:45:24Z</time>
      </trkpt>
      <trkpt lat="51.739363968372345" lon="10.996121037751436">
        <ele>382.25999999999999</ele>
        <time>2017-05-22T08:45:25Z</time>
      </trkpt>
      <trkpt lat="51.739499000832438" lon="10.996213993057609">
        <ele>382.74000000000001</ele>
        <time>2017-05-22T08:45:26Z</time>
      </trkpt>
      <trkpt lat="51.739646019414067" lon="10.996338967233896">
        <ele>383.22000000000003</ele>
        <time>2017-05-22T08:45:27Z</time>
      </trkpt>
      <trkpt lat="51.739785997197032" lon="10.996484979987144">
        <ele>383.69999999999999</ele>
        <time>2017-05-22T08:45:28Z</time>
      </trkpt>
      <trkpt lat="51.739919018000364" lon="10.996677009388804">
        <ele>384.66000000000003</ele>
        <time>2017-05-22T08:45:29Z</time>
      </trkpt>
      <trkpt lat="51.740054972469807" lon="10.996888987720013">
        <ele>385.14999999999998</ele>
        <time>2017-05-22T08:45:30Z</time>
      </trkpt>
      <trkpt lat="51.740187993273139" lon="10.997124016284943">
        <ele>385.63</ele>
        <time>2017-05-22T08:45:31Z</time>
      </trkpt>
      <trkpt lat="51.740311039611697" lon="10.997368013486266">
        <ele>386.11000000000001</ele>
        <time>2017-05-22T08:45:32Z</time>
      </trkpt>
      <trkpt lat="51.740429978817701" lon="10.997620979323983">
        <ele>386.58999999999997</ele>
        <time>2017-05-22T08:45:33Z</time>
      </trkpt>
      <trkpt lat="51.741203041747212" lon="10.999128967523575">
        <ele>388.99000000000001</ele>
        <time>2017-05-22T08:45:39Z</time>
      </trkpt>
      <trkpt lat="51.741486014798284" lon="10.999943017959595">
        <ele>388.50999999999999</ele>
        <time>2017-05-22T08:45:42Z</time>
      </trkpt>
      <trkpt lat="51.741553992033005" lon="11.000243006274104">
        <ele>389.47000000000003</ele>
        <time>2017-05-22T08:45:43Z</time>
      </trkpt>
      <trkpt lat="51.741602020338178" lon="11.000548023730516">
        <ele>389.94999999999999</ele>
        <time>2017-05-22T08:45:44Z</time>
      </trkpt>
      <trkpt lat="51.741626998409629" lon="11.000862009823322">
        <ele>389.94999999999999</ele>
        <time>2017-05-22T08:45:45Z</time>
      </trkpt>
      <trkpt lat="51.741644013673067" lon="11.001165015622973">
        <ele>390.43000000000001</ele>
        <time>2017-05-22T08:45:46Z</time>
      </trkpt>
      <trkpt lat="51.741650970652699" lon="11.001452011987567">
        <ele>390.43000000000001</ele>
        <time>2017-05-22T08:45:47Z</time>
      </trkpt>
      <trkpt lat="51.741666980087757" lon="11.001727022230625">
        <ele>390.43000000000001</ele>
        <time>2017-05-22T08:45:48Z</time>
      </trkpt>
      <trkpt lat="51.741717020049691" lon="11.001987028867006">
        <ele>390.43000000000001</ele>
        <time>2017-05-22T08:45:49Z</time>
      </trkpt>
      <trkpt lat="51.74180100671947" lon="11.002245023846626">
        <ele>390.43000000000001</ele>
        <time>2017-05-22T08:45:50Z</time>
      </trkpt>
      <trkpt lat="51.741902008652687" lon="11.002487009391189">
        <ele>390.91000000000003</ele>
        <time>2017-05-22T08:45:51Z</time>
      </trkpt>
      <trkpt lat="51.742020025849342" lon="11.002723965793848">
        <ele>391.38999999999999</ele>
        <time>2017-05-22T08:45:52Z</time>
      </trkpt>
      <trkpt lat="51.74214500002563" lon="11.002954971045256">
        <ele>390.91000000000003</ele>
        <time>2017-05-22T08:45:53Z</time>
      </trkpt>
      <trkpt lat="51.743239006027579" lon="11.004561027511954">
        <ele>392.36000000000001</ele>
        <time>2017-05-22T08:46:01Z</time>
      </trkpt>
      <trkpt lat="51.743982983753085" lon="11.00545596331358">
        <ele>392.83999999999997</ele>
        <time>2017-05-22T08:46:08Z</time>
      </trkpt>
      <trkpt lat="51.744283977895975" lon="11.005903976038098">
        <ele>393.80000000000001</ele>
        <time>2017-05-22T08:46:12Z</time>
      </trkpt>
      <trkpt lat="51.744322031736374" lon="11.006009001284838">
        <ele>393.31999999999999</ele>
        <time>2017-05-22T08:46:13Z</time>
      </trkpt>
      <trkpt lat="51.74444398842752" lon="11.006280994042754">
        <ele>391.38999999999999</ele>
        <time>2017-05-22T08:46:20Z</time>
      </trkpt>
      <trkpt lat="51.744590001180768" lon="11.006608977913857">
        <ele>389.47000000000003</ele>
        <time>2017-05-22T08:46:25Z</time>
      </trkpt>
      <trkpt lat="51.744601987302303" lon="11.006664969027042">
        <ele>389.47000000000003</ele>
        <time>2017-05-22T08:46:26Z</time>
      </trkpt>
      <trkpt lat="51.744600981473923" lon="11.006714003160596">
        <ele>389.94999999999999</ele>
        <time>2017-05-22T08:46:27Z</time>
      </trkpt>
      <trkpt lat="51.744591007009149" lon="11.006746022030711">
        <ele>389.94999999999999</ele>
        <time>2017-05-22T08:46:28Z</time>
      </trkpt>
      <trkpt lat="51.744567034766078" lon="11.00676697678864">
        <ele>389.94999999999999</ele>
        <time>2017-05-22T08:46:29Z</time>
      </trkpt>
      <trkpt lat="51.744534010067582" lon="11.006758008152246">
        <ele>390.43000000000001</ele>
        <time>2017-05-22T08:46:30Z</time>
      </trkpt>
      <trkpt lat="51.744488999247551" lon="11.006734035909176">
        <ele>390.91000000000003</ele>
        <time>2017-05-22T08:46:31Z</time>
      </trkpt>
      <trkpt lat="51.744346003979445" lon="11.006704028695822">
        <ele>391.38999999999999</ele>
        <time>2017-05-22T08:46:33Z</time>
      </trkpt>
      <trkpt lat="51.744262017309666" lon="11.006714003160596">
        <ele>391.87</ele>
        <time>2017-05-22T08:46:34Z</time>
      </trkpt>
      <trkpt lat="51.744175013154745" lon="11.00674401037395">
        <ele>392.83999999999997</ele>
        <time>2017-05-22T08:46:35Z</time>
      </trkpt>
      <trkpt lat="51.743753990158439" lon="11.007048022001982">
        <ele>393.31999999999999</ele>
        <time>2017-05-22T08:46:39Z</time>
      </trkpt>
      <trkpt lat="51.743662962689996" lon="11.007167967036366">
        <ele>393.31999999999999</ele>
        <time>2017-05-22T08:46:40Z</time>
      </trkpt>
      <trkpt lat="51.743589034304023" lon="11.007322026416659">
        <ele>393.80000000000001</ele>
        <time>2017-05-22T08:46:41Z</time>
      </trkpt>
      <trkpt lat="51.743530025705695" lon="11.007494023069739">
        <ele>394.27999999999997</ele>
        <time>2017-05-22T08:46:42Z</time>
      </trkpt>
      <trkpt lat="51.743483003228903" lon="11.007687980309129">
        <ele>394.75999999999999</ele>
        <time>2017-05-22T08:46:43Z</time>
      </trkpt>
      <trkpt lat="51.743438998237252" lon="11.007887972518802">
        <ele>394.75999999999999</ele>
        <time>2017-05-22T08:46:44Z</time>
      </trkpt>
      <trkpt lat="51.743217967450619" lon="11.009765015915036">
        <ele>401.49000000000001</ele>
        <time>2017-05-22T08:46:53Z</time>
      </trkpt>
      <trkpt lat="51.742697032168508" lon="11.01160098798573">
        <ele>413.98000000000002</ele>
        <time>2017-05-22T08:47:03Z</time>
      </trkpt>
      <trkpt lat="51.742119016125798" lon="11.013157004490495">
        <ele>418.31</ele>
        <time>2017-05-22T08:47:13Z</time>
      </trkpt>
      <trkpt lat="51.742034023627639" lon="11.013287007808685">
        <ele>418.79000000000002</ele>
        <time>2017-05-22T08:47:14Z</time>
      </trkpt>
      <trkpt lat="51.741957999765873" lon="11.013422962278128">
        <ele>419.75</ele>
        <time>2017-05-22T08:47:15Z</time>
      </trkpt>
      <trkpt lat="51.74109198153019" lon="11.015048967674375">
        <ele>425.04000000000002</ele>
        <time>2017-05-22T08:47:25Z</time>
      </trkpt>
      <trkpt lat="51.740757040679455" lon="11.015852959826589">
        <ele>425.51999999999998</ele>
        <time>2017-05-22T08:47:31Z</time>
      </trkpt>
      <trkpt lat="51.740585966035724" lon="11.016957024112344">
        <ele>422.63999999999999</ele>
        <time>2017-05-22T08:47:42Z</time>
      </trkpt>
      <trkpt lat="51.74027600325644" lon="11.018141973763704">
        <ele>417.35000000000002</ele>
        <time>2017-05-22T08:47:53Z</time>
      </trkpt>
      <trkpt lat="51.740078022703528" lon="11.018717978149652">
        <ele>415.43000000000001</ele>
        <time>2017-05-22T08:48:02Z</time>
      </trkpt>
      <trkpt lat="51.739851962774992" lon="11.019228016957641">
        <ele>419.75</ele>
        <time>2017-05-22T08:48:18Z</time>
      </trkpt>
      <trkpt lat="51.739831008017063" lon="11.019289037212729">
        <ele>422.16000000000003</ele>
        <time>2017-05-22T08:48:21Z</time>
      </trkpt>
      <trkpt lat="51.739822961390018" lon="11.019299011677504">
        <ele>423.12</ele>
        <time>2017-05-22T08:48:22Z</time>
      </trkpt>
      <trkpt lat="51.739783985540271" lon="11.019285013899207">
        <ele>424.56</ele>
        <time>2017-05-22T08:48:33Z</time>
      </trkpt>
      <trkpt lat="51.739693963900208" lon="11.01939900778234">
        <ele>465.89999999999998</ele>
        <time>2017-05-22T08:57:51Z</time>
      </trkpt>
      <trkpt lat="51.739771999418736" lon="11.019347961992025">
        <ele>445.70999999999998</ele>
        <time>2017-05-22T08:58:53Z</time>
      </trkpt>
      <trkpt lat="51.739771999418736" lon="11.019347961992025">
        <ele>445.70999999999998</ele>
        <time>2017-05-22T08:59:11Z</time>
      </trkpt>
      <trkpt lat="51.739742998033762" lon="11.019405964761972">
        <ele>445.70999999999998</ele>
        <time>2017-05-22T08:59:17Z</time>
      </trkpt>
      <trkpt lat="51.739935027435422" lon="11.019511995837092">
        <ele>438.5</ele>
        <time>2017-05-22T08:59:26Z</time>
      </trkpt>
      <trkpt lat="51.740027982741594" lon="11.019351985305548">
        <ele>435.13</ele>
        <time>2017-05-22T08:59:30Z</time>
      </trkpt>
      <trkpt lat="51.740090008825064" lon="11.018772041425109">
        <ele>428.39999999999998</ele>
        <time>2017-05-22T08:59:41Z</time>
      </trkpt>
      <trkpt lat="51.740393014624715" lon="11.017794962972403">
        <ele>423.60000000000002</ele>
        <time>2017-05-22T08:59:56Z</time>
      </trkpt>
      <trkpt lat="51.74064296297729" lon="11.0164999589324">
        <ele>427.44</ele>
        <time>2017-05-22T09:00:14Z</time>
      </trkpt>
      <trkpt lat="51.740761986002326" lon="11.015838040038943">
        <ele>427.44</ele>
        <time>2017-05-22T09:00:23Z</time>
      </trkpt>
      <trkpt lat="51.741202035918832" lon="11.014765994623303">
        <ele>427.44</ele>
        <time>2017-05-22T09:00:38Z</time>
      </trkpt>
      <trkpt lat="51.741792960092425" lon="11.013644998893142">
        <ele>424.56</ele>
        <time>2017-05-22T09:00:52Z</time>
      </trkpt>
      <trkpt lat="51.741980966180563" lon="11.013322966173291">
        <ele>423.12</ele>
        <time>2017-05-22T09:00:56Z</time>
      </trkpt>
      <trkpt lat="51.742025977000594" lon="11.013235962018371">
        <ele>423.12</ele>
        <time>2017-05-22T09:00:57Z</time>
      </trkpt>
      <trkpt lat="51.742103006690741" lon="11.013062037527561">
        <ele>422.16000000000003</ele>
        <time>2017-05-22T09:00:59Z</time>
      </trkpt>
      <trkpt lat="51.742658978328109" lon="11.011868035420775">
        <ele>415.43000000000001</ele>
        <time>2017-05-22T09:01:12Z</time>
      </trkpt>
      <trkpt lat="51.742684040218592" lon="11.01174901239574">
        <ele>413.98000000000002</ele>
        <time>2017-05-22T09:01:13Z</time>
      </trkpt>
      <trkpt lat="51.742738019675016" lon="11.011511972174048">
        <ele>412.06</ele>
        <time>2017-05-22T09:01:15Z</time>
      </trkpt>
      <trkpt lat="51.743217967450619" lon="11.009599976241589">
        <ele>398.12</ele>
        <time>2017-05-22T09:01:31Z</time>
      </trkpt>
      <trkpt lat="51.74330597743392" lon="11.009200997650623">
        <ele>399.07999999999998</ele>
        <time>2017-05-22T09:01:34Z</time>
      </trkpt>
      <trkpt lat="51.743323998525739" lon="11.009067976847291">
        <ele>398.60000000000002</ele>
        <time>2017-05-22T09:01:35Z</time>
      </trkpt>
      <trkpt lat="51.743380995467305" lon="11.008413014933467">
        <ele>395.24000000000001</ele>
        <time>2017-05-22T09:01:40Z</time>
      </trkpt>
      <trkpt lat="51.743549974635243" lon="11.007501985877752">
        <ele>394.27999999999997</ele>
        <time>2017-05-22T09:01:47Z</time>
      </trkpt>
      <trkpt lat="51.743586016818881" lon="11.007390003651381">
        <ele>393.80000000000001</ele>
        <time>2017-05-22T09:01:48Z</time>
      </trkpt>
      <trkpt lat="51.743631027638912" lon="11.007281960919499">
        <ele>393.80000000000001</ele>
        <time>2017-05-22T09:01:49Z</time>
      </trkpt>
      <trkpt lat="51.743678972125053" lon="11.007181964814663">
        <ele>393.31999999999999</ele>
        <time>2017-05-22T09:01:50Z</time>
      </trkpt>
      <trkpt lat="51.743736974895" lon="11.00708800368011">
        <ele>393.31999999999999</ele>
        <time>2017-05-22T09:01:51Z</time>
      </trkpt>
      <trkpt lat="51.743801012635231" lon="11.007008040323853">
        <ele>392.36000000000001</ele>
        <time>2017-05-22T09:01:52Z</time>
      </trkpt>
      <trkpt lat="51.743868989869952" lon="11.006946014240384">
        <ele>391.87</ele>
        <time>2017-05-22T09:01:53Z</time>
      </trkpt>
      <trkpt lat="51.743946019560099" lon="11.006904020905495">
        <ele>391.87</ele>
        <time>2017-05-22T09:01:54Z</time>
      </trkpt>
      <trkpt lat="51.744020031765103" lon="11.006860015913844">
        <ele>391.87</ele>
        <time>2017-05-22T09:01:55Z</time>
      </trkpt>
      <trkpt lat="51.744232010096312" lon="11.006722971796989">
        <ele>390.43000000000001</ele>
        <time>2017-05-22T09:01:58Z</time>
      </trkpt>
      <trkpt lat="51.744305016472936" lon="11.006696987897158">
        <ele>389.47000000000003</ele>
        <time>2017-05-22T09:01:59Z</time>
      </trkpt>
      <trkpt lat="51.744385985657573" lon="11.006688019260764">
        <ele>388.50999999999999</ele>
        <time>2017-05-22T09:02:00Z</time>
      </trkpt>
      <trkpt lat="51.74446502700448" lon="11.006693970412016">
        <ele>388.02999999999997</ele>
        <time>2017-05-22T09:02:01Z</time>
      </trkpt>
      <trkpt lat="51.744540967047215" lon="11.006720960140228">
        <ele>387.06999999999999</ele>
        <time>2017-05-22T09:02:02Z</time>
      </trkpt>
      <trkpt lat="51.744607016444206" lon="11.006760019809008">
        <ele>386.11000000000001</ele>
        <time>2017-05-22T09:02:03Z</time>
      </trkpt>
      <trkpt lat="51.744672982022166" lon="11.006831014528871">
        <ele>385.63</ele>
        <time>2017-05-22T09:02:04Z</time>
      </trkpt>
      <trkpt lat="51.744751017540693" lon="11.006922964006662">
        <ele>384.18000000000001</ele>
        <time>2017-05-22T09:02:05Z</time>
      </trkpt>
      <trkpt lat="51.744817988947034" lon="11.007031006738544">
        <ele>383.69999999999999</ele>
        <time>2017-05-22T09:02:06Z</time>
      </trkpt>
      <trkpt lat="51.744871968403459" lon="11.007168972864747">
        <ele>382.25999999999999</ele>
        <time>2017-05-22T09:02:07Z</time>
      </trkpt>
      <trkpt lat="51.744930977001786" lon="11.007311968132854">
        <ele>381.30000000000001</ele>
        <time>2017-05-22T09:02:08Z</time>
      </trkpt>
      <trkpt lat="51.745692975819111" lon="11.009707013145089">
        <ele>363.04000000000002</ele>
        <time>2017-05-22T09:02:22Z</time>
      </trkpt>
      <trkpt lat="51.745790960267186" lon="11.010190984234214">
        <ele>360.14999999999998</ele>
        <time>2017-05-22T09:02:24Z</time>
      </trkpt>
      <trkpt lat="51.745806969702244" lon="11.01045903749764">
        <ele>358.70999999999998</ele>
        <time>2017-05-22T09:02:25Z</time>
      </trkpt>
      <trkpt lat="51.745809987187386" lon="11.010738993063569">
        <ele>357.26999999999998</ele>
        <time>2017-05-22T09:02:26Z</time>
      </trkpt>
      <trkpt lat="51.745814010500908" lon="11.011547008529305">
        <ele>351.98000000000002</ele>
        <time>2017-05-22T09:02:29Z</time>
      </trkpt>
      <trkpt lat="51.745848041027784" lon="11.011798968538642">
        <ele>350.06</ele>
        <time>2017-05-22T09:02:30Z</time>
      </trkpt>
      <trkpt lat="51.745891040191054" lon="11.012042965739965">
        <ele>348.62</ele>
        <time>2017-05-22T09:02:31Z</time>
      </trkpt>
      <trkpt lat="51.745955999940634" lon="11.012279000133276">
        <ele>347.17000000000002</ele>
        <time>2017-05-22T09:02:32Z</time>
      </trkpt>
      <trkpt lat="51.746022971346974" lon="11.012516962364316">
        <ele>345.73000000000002</ele>
        <time>2017-05-22T09:02:33Z</time>
      </trkpt>
      <trkpt lat="51.746472995728254" lon="11.014663986861706">
        <ele>330.82999999999998</ele>
        <time>2017-05-22T09:02:41Z</time>
      </trkpt>
      <trkpt lat="51.746918996796012" lon="11.017166990786791">
        <ele>316.88999999999999</ele>
        <time>2017-05-22T09:02:51Z</time>
      </trkpt>
      <trkpt lat="51.746984040364623" lon="11.017367988824844">
        <ele>314.49000000000001</ele>
        <time>2017-05-22T09:02:52Z</time>
      </trkpt>
      <trkpt lat="51.747062997892499" lon="11.017553983256221">
        <ele>314.49000000000001</ele>
        <time>2017-05-22T09:02:53Z</time>
      </trkpt>
      <trkpt lat="51.747146984562278" lon="11.017709970474243">
        <ele>314.00999999999999</ele>
        <time>2017-05-22T09:02:54Z</time>
      </trkpt>
      <trkpt lat="51.747239017859101" lon="11.017813989892602">
        <ele>313.52999999999997</ele>
        <time>2017-05-22T09:02:55Z</time>
      </trkpt>
      <trkpt lat="51.747330967336893" lon="11.017857994884253">
        <ele>313.05000000000001</ele>
        <time>2017-05-22T09:02:56Z</time>
      </trkpt>
      <trkpt lat="51.747435992583632" lon="11.01783100515604">
        <ele>312.08999999999997</ele>
        <time>2017-05-22T09:02:57Z</time>
      </trkpt>
      <trkpt lat="51.747549986466765" lon="11.017754981294274">
        <ele>311.12</ele>
        <time>2017-05-22T09:02:58Z</time>
      </trkpt>
      <trkpt lat="51.747671021148562" lon="11.017623972147703">
        <ele>309.68000000000001</ele>
        <time>2017-05-22T09:02:59Z</time>
      </trkpt>
      <trkpt lat="51.747783003374934" lon="11.017477037385106">
        <ele>308.72000000000003</ele>
        <time>2017-05-22T09:03:00Z</time>
      </trkpt>
      <trkpt lat="51.74790202639997" lon="11.017313003540039">
        <ele>308.24000000000001</ele>
        <time>2017-05-22T09:03:01Z</time>
      </trkpt>
      <trkpt lat="51.748208971694112" lon="11.016787039116025">
        <ele>304.88</ele>
        <time>2017-05-22T09:03:04Z</time>
      </trkpt>
      <trkpt lat="51.748294970020652" lon="11.016663992777467">
        <ele>303.91000000000003</ele>
        <time>2017-05-22T09:03:05Z</time>
      </trkpt>
      <trkpt lat="51.748381974175572" lon="11.016596015542746">
        <ele>303.43000000000001</ele>
        <time>2017-05-22T09:03:06Z</time>
      </trkpt>
      <trkpt lat="51.748449029400945" lon="11.016579000279307">
        <ele>303.43000000000001</ele>
        <time>2017-05-22T09:03:07Z</time>
      </trkpt>
      <trkpt lat="51.748482976108789" lon="11.016614036634564">
        <ele>301.99000000000001</ele>
        <time>2017-05-22T09:03:08Z</time>
      </trkpt>
      <trkpt lat="51.748540978878736" lon="11.01669198833406">
        <ele>302.47000000000003</ele>
        <time>2017-05-22T09:03:09Z</time>
      </trkpt>
      <trkpt lat="51.748592024669051" lon="11.01680195890367">
        <ele>301.99000000000001</ele>
        <time>2017-05-22T09:03:10Z</time>
      </trkpt>
      <trkpt lat="51.748623037710786" lon="11.016957024112344">
        <ele>301.99000000000001</ele>
        <time>2017-05-22T09:03:11Z</time>
      </trkpt>
      <trkpt lat="51.748628988862038" lon="11.017141006886959">
        <ele>301.99000000000001</ele>
        <time>2017-05-22T09:03:12Z</time>
      </trkpt>
      <trkpt lat="51.748628988862038" lon="11.017351979389787">
        <ele>301.50999999999999</ele>
        <time>2017-05-22T09:03:13Z</time>
      </trkpt>
      <trkpt lat="51.748623037710786" lon="11.017581978812814">
        <ele>301.50999999999999</ele>
        <time>2017-05-22T09:03:14Z</time>
      </trkpt>
      <trkpt lat="51.748436037451029" lon="11.019581984728575">
        <ele>293.81999999999999</ele>
        <time>2017-05-22T09:03:22Z</time>
      </trkpt>
      <trkpt lat="51.748323971405625" lon="11.019982974976301">
        <ele>290.94</ele>
        <time>2017-05-22T09:03:24Z</time>
      </trkpt>
      <trkpt lat="51.748233027756214" lon="11.020119013264775">
        <ele>289.97000000000003</ele>
        <time>2017-05-22T09:03:25Z</time>
      </trkpt>
      <trkpt lat="51.748124985024333" lon="11.02019595913589">
        <ele>289.00999999999999</ele>
        <time>2017-05-22T09:03:26Z</time>
      </trkpt>
      <trkpt lat="51.747999005019665" lon="11.020243987441063">
        <ele>286.61000000000001</ele>
        <time>2017-05-22T09:03:27Z</time>
      </trkpt>
      <trkpt lat="51.7478590272367" lon="11.020243987441063">
        <ele>285.64999999999998</ele>
        <time>2017-05-22T09:03:28Z</time>
      </trkpt>
      <trkpt lat="51.747725000604987" lon="11.020201994106174">
        <ele>284.69</ele>
        <time>2017-05-22T09:03:29Z</time>
      </trkpt>
      <trkpt lat="51.747590973973274" lon="11.020134016871452">
        <ele>283.25</ele>
        <time>2017-05-22T09:03:30Z</time>
      </trkpt>
      <trkpt lat="51.747136004269123" lon="11.019830005243421">
        <ele>277.95999999999998</ele>
        <time>2017-05-22T09:03:33Z</time>
      </trkpt>
      <trkpt lat="51.746990997344255" lon="11.019689021632075">
        <ele>275.56</ele>
        <time>2017-05-22T09:03:34Z</time>
      </trkpt>
      <trkpt lat="51.746577015146613" lon="11.019353996962309">
        <ele>270.75</ele>
        <time>2017-05-22T09:03:37Z</time>
      </trkpt>
      <trkpt lat="51.746457992121577" lon="11.019308986142278">
        <ele>269.31</ele>
        <time>2017-05-22T09:03:38Z</time>
      </trkpt>
      <trkpt lat="51.746314996853471" lon="11.019329018890858">
        <ele>266.89999999999998</ele>
        <time>2017-05-22T09:03:39Z</time>
      </trkpt>
      <trkpt lat="51.746215000748634" lon="11.019388027489185">
        <ele>265.45999999999998</ele>
        <time>2017-05-22T09:03:40Z</time>
      </trkpt>
      <trkpt lat="51.74614098854363" lon="11.019516019150615">
        <ele>264.5</ele>
        <time>2017-05-22T09:03:41Z</time>
      </trkpt>
      <trkpt lat="51.746079968288541" lon="11.019692961126566">
        <ele>263.06</ele>
        <time>2017-05-22T09:03:42Z</time>
      </trkpt>
      <trkpt lat="51.746064964681864" lon="11.01989203132689">
        <ele>261.62</ele>
        <time>2017-05-22T09:03:43Z</time>
      </trkpt>
      <trkpt lat="51.746084997430444" lon="11.020082971081138">
        <ele>260.17000000000002</ele>
        <time>2017-05-22T09:03:44Z</time>
      </trkpt>
      <trkpt lat="51.74612196162343" lon="11.020250022411346">
        <ele>259.20999999999998</ele>
        <time>2017-05-22T09:03:45Z</time>
      </trkpt>
      <trkpt lat="51.746179964393377" lon="11.020397963002324">
        <ele>258.73000000000002</ele>
        <time>2017-05-22T09:03:46Z</time>
      </trkpt>
      <trkpt lat="51.746280966326594" lon="11.020553028210998">
        <ele>258.25</ele>
        <time>2017-05-22T09:03:47Z</time>
      </trkpt>
      <trkpt lat="51.746437959372997" lon="11.020679008215666">
        <ele>257.76999999999998</ele>
        <time>2017-05-22T09:03:48Z</time>
      </trkpt>
      <trkpt lat="51.746578020974994" lon="11.020841030403972">
        <ele>257.76999999999998</ele>
        <time>2017-05-22T09:03:49Z</time>
      </trkpt>
      <trkpt lat="51.747699016705155" lon="11.022373996675014">
        <ele>243.83000000000001</ele>
        <time>2017-05-22T09:03:57Z</time>
      </trkpt>
      <trkpt lat="51.747818039730191" lon="11.022586980834603">
        <ele>241.91</ele>
        <time>2017-05-22T09:03:58Z</time>
      </trkpt>
      <trkpt lat="51.748310979455709" lon="11.023746030405164">
        <ele>234.22</ele>
        <time>2017-05-22T09:04:03Z</time>
      </trkpt>
      <trkpt lat="51.748446011915803" lon="11.02391098625958">
        <ele>232.78</ele>
        <time>2017-05-22T09:04:04Z</time>
      </trkpt>
      <trkpt lat="51.748580038547516" lon="11.024062028154731">
        <ele>231.33000000000001</ele>
        <time>2017-05-22T09:04:05Z</time>
      </trkpt>
      <trkpt lat="51.7487190105021" lon="11.024166969582438">
        <ele>229.88999999999999</ele>
        <time>2017-05-22T09:04:06Z</time>
      </trkpt>
      <trkpt lat="51.748867034912109" lon="11.02423301897943">
        <ele>228.44999999999999</ele>
        <time>2017-05-22T09:04:07Z</time>
      </trkpt>
      <trkpt lat="51.749018998816609" lon="11.024263026192784">
        <ele>227.00999999999999</ele>
        <time>2017-05-22T09:04:08Z</time>
      </trkpt>
      <trkpt lat="51.749190995469689" lon="11.024291021749377">
        <ele>225.09</ele>
        <time>2017-05-22T09:04:09Z</time>
      </trkpt>
      <trkpt lat="51.749366009607911" lon="11.024351958185434">
        <ele>223.16</ele>
        <time>2017-05-22T09:04:10Z</time>
      </trkpt>
      <trkpt lat="51.749539012089372" lon="11.024449020624161">
        <ele>221.24000000000001</ele>
        <time>2017-05-22T09:04:11Z</time>
      </trkpt>
      <trkpt lat="51.749693993479013" lon="11.024573994800448">
        <ele>219.80000000000001</ele>
        <time>2017-05-22T09:04:12Z</time>
      </trkpt>
      <trkpt lat="51.749835982918739" lon="11.024707015603781">
        <ele>218.36000000000001</ele>
        <time>2017-05-22T09:04:13Z</time>
      </trkpt>
      <trkpt lat="51.749970009550452" lon="11.02483500726521">
        <ele>216.91</ele>
        <time>2017-05-22T09:04:14Z</time>
      </trkpt>
      <trkpt lat="51.750713987275958" lon="11.025862041860819">
        <ele>205.86000000000001</ele>
        <time>2017-05-22T09:04:21Z</time>
      </trkpt>
      <trkpt lat="51.751094022765756" lon="11.026540976017714">
        <ele>190.47999999999999</ele>
        <time>2017-05-22T09:04:27Z</time>
      </trkpt>
      <trkpt lat="51.751110032200813" lon="11.026691012084484">
        <ele>187.11000000000001</ele>
        <time>2017-05-22T09:04:28Z</time>
      </trkpt>
      <trkpt lat="51.751112965866923" lon="11.026838030666113">
        <ele>185.66999999999999</ele>
        <time>2017-05-22T09:04:29Z</time>
      </trkpt>
      <trkpt lat="51.751095028594136" lon="11.026986977085471">
        <ele>183.27000000000001</ele>
        <time>2017-05-22T09:04:30Z</time>
      </trkpt>
      <trkpt lat="51.751056974753737" lon="11.027140030637383">
        <ele>181.34999999999999</ele>
        <time>2017-05-22T09:04:31Z</time>
      </trkpt>
      <trkpt lat="51.751025961712003" lon="11.027285037562251">
        <ele>179.90000000000001</ele>
        <time>2017-05-22T09:04:32Z</time>
      </trkpt>
      <trkpt lat="51.750994026660919" lon="11.027576979249716">
        <ele>177.97999999999999</ele>
        <time>2017-05-22T09:04:34Z</time>
      </trkpt>
      <trkpt lat="51.750988997519016" lon="11.027722992002964">
        <ele>177.02000000000001</ele>
        <time>2017-05-22T09:04:35Z</time>
      </trkpt>
      <trkpt lat="51.750993020832539" lon="11.027867998927832">
        <ele>176.06</ele>
        <time>2017-05-22T09:04:36Z</time>
      </trkpt>
      <trkpt lat="51.750999977812171" lon="11.028003031387925">
        <ele>174.13999999999999</ele>
        <time>2017-05-22T09:04:37Z</time>
      </trkpt>
      <trkpt lat="51.751010036095977" lon="11.028132028877735">
        <ele>173.66</ele>
        <time>2017-05-22T09:04:38Z</time>
      </trkpt>
      <trkpt lat="51.750983968377113" lon="11.029898012056947">
        <ele>168.37</ele>
        <time>2017-05-22T09:04:52Z</time>
      </trkpt>
      <trkpt lat="51.751013975590467" lon="11.031551007181406">
        <ele>165.96000000000001</ele>
        <time>2017-05-22T09:05:04Z</time>
      </trkpt>
      <trkpt lat="51.751135010272264" lon="11.032797982916236">
        <ele>162.12</ele>
        <time>2017-05-22T09:05:12Z</time>
      </trkpt>
      <trkpt lat="51.75117096863687" lon="11.033451016992331">
        <ele>161.16</ele>
        <time>2017-05-22T09:05:21Z</time>
      </trkpt>
      <trkpt lat="51.751152025535703" lon="11.033495021983981">
        <ele>161.16</ele>
        <time>2017-05-22T09:05:22Z</time>
      </trkpt>
      <trkpt lat="51.751117995008826" lon="11.033524023368955">
        <ele>160.68000000000001</ele>
        <time>2017-05-22T09:05:23Z</time>
      </trkpt>
      <trkpt lat="51.751072984188795" lon="11.033542966470122">
        <ele>161.16</ele>
        <time>2017-05-22T09:05:24Z</time>
      </trkpt>
      <trkpt lat="51.751010958105326" lon="11.03355897590518">
        <ele>161.63999999999999</ele>
        <time>2017-05-22T09:05:25Z</time>
      </trkpt>
      <trkpt lat="51.750950021669269" lon="11.033570962026715">
        <ele>161.63999999999999</ele>
        <time>2017-05-22T09:05:26Z</time>
      </trkpt>
      <trkpt lat="51.750612985342741" lon="11.033600969240069">
        <ele>161.16</ele>
        <time>2017-05-22T09:05:33Z</time>
      </trkpt>
      <trkpt lat="51.75056797452271" lon="11.033580014482141">
        <ele>161.16</ele>
        <time>2017-05-22T09:05:34Z</time>
      </trkpt>
      <trkpt lat="51.750478036701679" lon="11.033550007268786">
        <ele>161.16</ele>
        <time>2017-05-22T09:05:36Z</time>
      </trkpt>
      <trkpt lat="51.750432020053267" lon="11.033580014482141">
        <ele>160.68000000000001</ele>
        <time>2017-05-22T09:05:37Z</time>
      </trkpt>
      <trkpt lat="51.750401007011533" lon="11.033646985888481">
        <ele>160.19999999999999</ele>
        <time>2017-05-22T09:05:38Z</time>
      </trkpt>
      <trkpt lat="51.750398995354772" lon="11.033733990043402">
        <ele>159.72</ele>
        <time>2017-05-22T09:05:39Z</time>
      </trkpt>
      <trkpt lat="51.750425985082984" lon="11.033819988369942">
        <ele>159.72</ele>
        <time>2017-05-22T09:05:40Z</time>
      </trkpt>
      <trkpt lat="51.750463033095002" lon="11.033912021666765">
        <ele>159.24000000000001</ele>
        <time>2017-05-22T09:05:41Z</time>
      </trkpt>
      <trkpt lat="51.750537967309356" lon="11.034136991947889">
        <ele>159.24000000000001</ele>
        <time>2017-05-22T09:05:43Z</time>
      </trkpt>
      <trkpt lat="51.750559005886316" lon="11.034273030236363">
        <ele>159.24000000000001</ele>
        <time>2017-05-22T09:05:44Z</time>
      </trkpt>
      <trkpt lat="51.75086704082787" lon="11.036725994199514">
        <ele>159.72</ele>
        <time>2017-05-22T09:06:00Z</time>
      </trkpt>
      <trkpt lat="51.750992015004158" lon="11.037625959143043">
        <ele>161.63999999999999</ele>
        <time>2017-05-22T09:06:06Z</time>
      </trkpt>
      <trkpt lat="51.7509950324893" lon="11.037784963846207">
        <ele>161.63999999999999</ele>
        <time>2017-05-22T09:06:07Z</time>
      </trkpt>
      <trkpt lat="51.750986985862255" lon="11.037948997691274">
        <ele>161.63999999999999</ele>
        <time>2017-05-22T09:06:08Z</time>
      </trkpt>
      <trkpt lat="51.750959996134043" lon="11.03847797960043">
        <ele>161.63999999999999</ele>
        <time>2017-05-22T09:06:11Z</time>
      </trkpt>
      <trkpt lat="51.750967958942056" lon="11.038665985688567">
        <ele>161.16</ele>
        <time>2017-05-22T09:06:12Z</time>
      </trkpt>
      <trkpt lat="51.751224026083946" lon="11.041168989613652">
        <ele>161.16</ele>
        <time>2017-05-22T09:06:25Z</time>
      </trkpt>
      <trkpt lat="51.751324022188783" lon="11.042241035029292">
        <ele>162.59999999999999</ele>
        <time>2017-05-22T09:06:31Z</time>
      </trkpt>
      <trkpt lat="51.751310024410486" lon="11.042382018640637">
        <ele>162.59999999999999</ele>
        <time>2017-05-22T09:06:32Z</time>
      </trkpt>
      <trkpt lat="51.751269036903977" lon="11.042489977553487">
        <ele>163.56</ele>
        <time>2017-05-22T09:06:33Z</time>
      </trkpt>
      <trkpt lat="51.751221008598804" lon="11.042585028335452">
        <ele>165</ele>
        <time>2017-05-22T09:06:34Z</time>
      </trkpt>
      <trkpt lat="51.751164011657238" lon="11.042664991691709">
        <ele>165.47999999999999</ele>
        <time>2017-05-22T09:06:35Z</time>
      </trkpt>
      <trkpt lat="51.751108020544052" lon="11.042725006118417">
        <ele>165.47999999999999</ele>
        <time>2017-05-22T09:06:36Z</time>
      </trkpt>
      <trkpt lat="51.751053035259247" lon="11.04277404025197">
        <ele>165.47999999999999</ele>
        <time>2017-05-22T09:06:37Z</time>
      </trkpt>
      <trkpt lat="51.751006012782454" lon="11.042832965031266">
        <ele>165.47999999999999</ele>
        <time>2017-05-22T09:06:38Z</time>
      </trkpt>
      <trkpt lat="51.750979023054242" lon="11.042911000549793">
        <ele>165</ele>
        <time>2017-05-22T09:06:39Z</time>
      </trkpt>
      <trkpt lat="51.750982040539384" lon="11.042995993047953">
        <ele>165</ele>
        <time>2017-05-22T09:06:40Z</time>
      </trkpt>
      <trkpt lat="51.751015987247229" lon="11.043064976111054">
        <ele>164.52000000000001</ele>
        <time>2017-05-22T09:06:41Z</time>
      </trkpt>
      <trkpt lat="51.751063009724021" lon="11.043102024123073">
        <ele>164.03999999999999</ele>
        <time>2017-05-22T09:06:42Z</time>
      </trkpt>
      <trkpt lat="51.751123024150729" lon="11.04311803355813">
        <ele>163.56</ele>
        <time>2017-05-22T09:06:43Z</time>
      </trkpt>
      <trkpt lat="51.751193013042212" lon="11.043137982487679">
        <ele>163.08000000000001</ele>
        <time>2017-05-22T09:06:44Z</time>
      </trkpt>
      <trkpt lat="51.751267025247216" lon="11.043166983872652">
        <ele>162.59999999999999</ele>
        <time>2017-05-22T09:06:45Z</time>
      </trkpt>
      <trkpt lat="51.751347994431853" lon="11.043199002742767">
        <ele>162.12</ele>
        <time>2017-05-22T09:06:46Z</time>
      </trkpt>
      <trkpt lat="51.75160096026957" lon="11.0433320235461">
        <ele>161.16</ele>
        <time>2017-05-22T09:06:49Z</time>
      </trkpt>
      <trkpt lat="51.751685030758381" lon="11.043395977467299">
        <ele>161.16</ele>
        <time>2017-05-22T09:06:50Z</time>
      </trkpt>
      <trkpt lat="51.751756025478244" lon="11.043488010764122">
        <ele>160.68000000000001</ele>
        <time>2017-05-22T09:06:51Z</time>
      </trkpt>
      <trkpt lat="51.751820985227823" lon="11.043594963848591">
        <ele>160.68000000000001</ele>
        <time>2017-05-22T09:06:52Z</time>
      </trkpt>
      <trkpt lat="51.751885022968054" lon="11.043709041550756">
        <ele>160.68000000000001</ele>
        <time>2017-05-22T09:06:53Z</time>
      </trkpt>
      <trkpt lat="51.75209398381412" lon="11.044070972129703">
        <ele>159.72</ele>
        <time>2017-05-22T09:06:56Z</time>
      </trkpt>
      <trkpt lat="51.752175036817789" lon="11.044188989326358">
        <ele>159.24000000000001</ele>
        <time>2017-05-22T09:06:57Z</time>
      </trkpt>
      <trkpt lat="51.753342971205711" lon="11.045347033068538">
        <ele>155.38999999999999</ele>
        <time>2017-05-22T09:07:10Z</time>
      </trkpt>
      <trkpt lat="51.753763994202018" lon="11.04571801610291">
        <ele>153.94999999999999</ele>
        <time>2017-05-22T09:07:16Z</time>
      </trkpt>
      <trkpt lat="51.753792995586991" lon="11.045786999166012">
        <ele>154.43000000000001</ele>
        <time>2017-05-22T09:07:17Z</time>
      </trkpt>
      <trkpt lat="51.753805987536907" lon="11.045877020806074">
        <ele>154.43000000000001</ele>
        <time>2017-05-22T09:07:18Z</time>
      </trkpt>
      <trkpt lat="51.75385401584208" lon="11.046963986009359">
        <ele>153.47</ele>
        <time>2017-05-22T09:07:25Z</time>
      </trkpt>
      <trkpt lat="51.75366198644042" lon="11.04941301047802">
        <ele>152.50999999999999</ele>
        <time>2017-05-22T09:07:37Z</time>
      </trkpt>
      <trkpt lat="51.753311958163977" lon="11.053257035091519">
        <ele>149.62</ele>
        <time>2017-05-22T09:07:54Z</time>
      </trkpt>
      <trkpt lat="51.753071984276175" lon="11.055903034284711">
        <ele>148.18000000000001</ele>
        <time>2017-05-22T09:08:07Z</time>
      </trkpt>
      <trkpt lat="51.752679962664843" lon="11.060205968096852">
        <ele>145.30000000000001</ele>
        <time>2017-05-22T09:08:29Z</time>
      </trkpt>
      <trkpt lat="51.752322977408767" lon="11.064179996028543">
        <ele>142.88999999999999</ele>
        <time>2017-05-22T09:08:49Z</time>
      </trkpt>
      <trkpt lat="51.752121979370713" lon="11.066456018015742">
        <ele>141.93000000000001</ele>
        <time>2017-05-22T09:08:57Z</time>
      </trkpt>
      <trkpt lat="51.751667009666562" lon="11.071596974506974">
        <ele>139.53</ele>
        <time>2017-05-22T09:09:13Z</time>
      </trkpt>
      <trkpt lat="51.751110032200813" lon="11.07652997598052">
        <ele>138.56999999999999</ele>
        <time>2017-05-22T09:09:28Z</time>
      </trkpt>
      <trkpt lat="51.750872991979122" lon="11.077917013317347">
        <ele>137.61000000000001</ele>
        <time>2017-05-22T09:09:33Z</time>
      </trkpt>
      <trkpt lat="51.750858994200826" lon="11.078195963054895">
        <ele>138.09</ele>
        <time>2017-05-22T09:09:34Z</time>
      </trkpt>
      <trkpt lat="51.75099603831768" lon="11.08022497035563">
        <ele>136.63999999999999</ele>
        <time>2017-05-22T09:09:41Z</time>
      </trkpt>
      <trkpt lat="51.751410020515323" lon="11.082017021253705">
        <ele>136.16</ele>
        <time>2017-05-22T09:09:49Z</time>
      </trkpt>
      <trkpt lat="51.751804975792766" lon="11.082985969260335">
        <ele>136.16</ele>
        <time>2017-05-22T09:09:57Z</time>
      </trkpt>
      <trkpt lat="51.751840012148023" lon="11.083054030314088">
        <ele>136.63999999999999</ele>
        <time>2017-05-22T09:10:04Z</time>
      </trkpt>
      <trkpt lat="51.751998011022806" lon="11.083473041653633">
        <ele>137.13</ele>
        <time>2017-05-22T09:10:15Z</time>
      </trkpt>
      <trkpt lat="51.75247703678906" lon="11.084976000711322">
        <ele>137.13</ele>
        <time>2017-05-22T09:10:23Z</time>
      </trkpt>
      <trkpt lat="51.753283040598035" lon="11.086779031902552">
        <ele>137.61000000000001</ele>
        <time>2017-05-22T09:10:31Z</time>
      </trkpt>
      <trkpt lat="51.753933979198337" lon="11.088157016783953">
        <ele>137.13</ele>
        <time>2017-05-22T09:10:39Z</time>
      </trkpt>
      <trkpt lat="51.754937041550875" lon="11.090115029364824">
        <ele>137.13</ele>
        <time>2017-05-22T09:10:51Z</time>
      </trkpt>
      <trkpt lat="51.755686970427632" lon="11.09139796346426">
        <ele>141.44999999999999</ele>
        <time>2017-05-22T09:11:01Z</time>
      </trkpt>
      <trkpt lat="51.755756959319115" lon="11.091428976505995">
        <ele>141.44999999999999</ele>
        <time>2017-05-22T09:11:02Z</time>
      </trkpt>
      <trkpt lat="51.755830971524119" lon="11.091396035626531">
        <ele>141.44999999999999</ele>
        <time>2017-05-22T09:11:03Z</time>
      </trkpt>
      <trkpt lat="51.755906995385885" lon="11.091327974572778">
        <ele>141.44999999999999</ele>
        <time>2017-05-22T09:11:04Z</time>
      </trkpt>
      <trkpt lat="51.755989976227283" lon="11.091238958761096">
        <ele>140.97</ele>
        <time>2017-05-22T09:11:05Z</time>
      </trkpt>
      <trkpt lat="51.756202038377523" lon="11.091109961271286">
        <ele>140.49000000000001</ele>
        <time>2017-05-22T09:11:07Z</time>
      </trkpt>
      <trkpt lat="51.756327012553811" lon="11.091089006513357">
        <ele>140.00999999999999</ele>
        <time>2017-05-22T09:11:08Z</time>
      </trkpt>
      <trkpt lat="51.756461039185524" lon="11.09109302982688">
        <ele>139.53</ele>
        <time>2017-05-22T09:11:09Z</time>
      </trkpt>
      <trkpt lat="51.756602022796869" lon="11.091136028990149">
        <ele>138.56999999999999</ele>
        <time>2017-05-22T09:11:10Z</time>
      </trkpt>
      <trkpt lat="51.756739988923073" lon="11.091198977082968">
        <ele>137.61000000000001</ele>
        <time>2017-05-22T09:11:11Z</time>
      </trkpt>
      <trkpt lat="51.756872003898025" lon="11.091267038136721">
        <ele>137.13</ele>
        <time>2017-05-22T09:11:12Z</time>
      </trkpt>
      <trkpt lat="51.757154976949096" lon="11.091373991221189">
        <ele>134.72</ele>
        <time>2017-05-22T09:11:16Z</time>
      </trkpt>
      <trkpt lat="51.757438033819199" lon="11.091299979016185">
        <ele>134.24000000000001</ele>
        <time>2017-05-22T09:11:24Z</time>
      </trkpt>
      <trkpt lat="51.757754031568766" lon="11.091171987354755">
        <ele>134.24000000000001</ele>
        <time>2017-05-22T09:11:30Z</time>
      </trkpt>
      <trkpt lat="51.758759021759033" lon="11.090715005993843">
        <ele>132.80000000000001</ele>
        <time>2017-05-22T09:11:37Z</time>
      </trkpt>
      <trkpt lat="51.760199032723904" lon="11.090067001059651">
        <ele>132.31999999999999</ele>
        <time>2017-05-22T09:11:47Z</time>
      </trkpt>
      <trkpt lat="51.761716995388269" lon="11.089213974773884">
        <ele>131.36000000000001</ele>
        <time>2017-05-22T09:12:01Z</time>
      </trkpt>
      <trkpt lat="51.762829022482038" lon="11.088489023968577">
        <ele>131.84</ele>
        <time>2017-05-22T09:12:13Z</time>
      </trkpt>
      <trkpt lat="51.763462023809552" lon="11.088058026507497">
        <ele>132.31999999999999</ele>
        <time>2017-05-22T09:12:23Z</time>
      </trkpt>
      <trkpt lat="51.76401799544692" lon="11.087172981351614">
        <ele>132.31999999999999</ele>
        <time>2017-05-22T09:12:34Z</time>
      </trkpt>
      <trkpt lat="51.764079015702009" lon="11.087110033258796">
        <ele>132.31999999999999</ele>
        <time>2017-05-22T09:12:35Z</time>
      </trkpt>
      <trkpt lat="51.764149004593492" lon="11.087096035480499">
        <ele>132.31999999999999</ele>
        <time>2017-05-22T09:12:36Z</time>
      </trkpt>
      <trkpt lat="51.764219999313354" lon="11.087131993845105">
        <ele>132.80000000000001</ele>
        <time>2017-05-22T09:12:37Z</time>
      </trkpt>
      <trkpt lat="51.764284037053585" lon="11.087195025756955">
        <ele>132.80000000000001</ele>
        <time>2017-05-22T09:12:38Z</time>
      </trkpt>
      <trkpt lat="51.764348996803164" lon="11.087282029911876">
        <ele>133.28</ele>
        <time>2017-05-22T09:12:39Z</time>
      </trkpt>
      <trkpt lat="51.764414962381124" lon="11.087376996874809">
        <ele>133.75999999999999</ele>
        <time>2017-05-22T09:12:40Z</time>
      </trkpt>
      <trkpt lat="51.765225995332003" lon="11.088663032278419">
        <ele>140.00999999999999</ele>
        <time>2017-05-22T09:12:52Z</time>
      </trkpt>
      <trkpt lat="51.765725975856185" lon="11.08942000195384">
        <ele>142.88999999999999</ele>
        <time>2017-05-22T09:12:59Z</time>
      </trkpt>
      <trkpt lat="51.765803005546331" lon="11.089575989171863">
        <ele>142.88999999999999</ele>
        <time>2017-05-22T09:13:00Z</time>
      </trkpt>
      <trkpt lat="51.765880035236478" lon="11.089757038280368">
        <ele>143.37</ele>
        <time>2017-05-22T09:13:01Z</time>
      </trkpt>
      <trkpt lat="51.76629401743412" lon="11.091040978208184">
        <ele>142.41</ele>
        <time>2017-05-22T09:13:07Z</time>
      </trkpt>
      <trkpt lat="51.76631698384881" lon="11.091281035915017">
        <ele>142.41</ele>
        <time>2017-05-22T09:13:08Z</time>
      </trkpt>
      <trkpt lat="51.766314972192049" lon="11.091543976217508">
        <ele>142.41</ele>
        <time>2017-05-22T09:13:09Z</time>
      </trkpt>
      <trkpt lat="51.766283959150314" lon="11.092409994453192">
        <ele>142.88999999999999</ele>
        <time>2017-05-22T09:13:12Z</time>
      </trkpt>
      <trkpt lat="51.766312960535288" lon="11.092704031616449">
        <ele>144.34</ele>
        <time>2017-05-22T09:13:13Z</time>
      </trkpt>
      <trkpt lat="51.766360988840461" lon="11.092999996617436">
        <ele>145.30000000000001</ele>
        <time>2017-05-22T09:13:14Z</time>
      </trkpt>
      <trkpt lat="51.766427038237453" lon="11.093295961618423">
        <ele>145.78</ele>
        <time>2017-05-22T09:13:15Z</time>
      </trkpt>
      <trkpt lat="51.766511024907231" lon="11.093584969639778">
        <ele>146.25999999999999</ele>
        <time>2017-05-22T09:13:16Z</time>
      </trkpt>
      <trkpt lat="51.766622001305223" lon="11.093853022903204">
        <ele>146.74000000000001</ele>
        <time>2017-05-22T09:13:17Z</time>
      </trkpt>
      <trkpt lat="51.766759967431426" lon="11.09410498291254">
        <ele>147.69999999999999</ele>
        <time>2017-05-22T09:13:18Z</time>
      </trkpt>
      <trkpt lat="51.766902040690184" lon="11.094354009255767">
        <ele>148.18000000000001</ele>
        <time>2017-05-22T09:13:19Z</time>
      </trkpt>
      <trkpt lat="51.767302025109529" lon="11.095066973939538">
        <ele>149.13999999999999</ele>
        <time>2017-05-22T09:13:22Z</time>
      </trkpt>
      <trkpt lat="51.767403027042747" lon="11.0953089594841">
        <ele>149.62</ele>
        <time>2017-05-22T09:13:23Z</time>
      </trkpt>
      <trkpt lat="51.767488019540906" lon="11.095575001090765">
        <ele>149.62</ele>
        <time>2017-05-22T09:13:24Z</time>
      </trkpt>
      <trkpt lat="51.767719024792314" lon="11.096386034041643">
        <ele>148.66</ele>
        <time>2017-05-22T09:13:27Z</time>
      </trkpt>
      <trkpt lat="51.767824972048402" lon="11.096606981009245">
        <ele>148.18000000000001</ele>
        <time>2017-05-22T09:13:28Z</time>
      </trkpt>
      <trkpt lat="51.767965033650398" lon="11.096793981269002">
        <ele>149.13999999999999</ele>
        <time>2017-05-22T09:13:29Z</time>
      </trkpt>
      <trkpt lat="51.769182002171874" lon="11.098101977258921">
        <ele>149.13999999999999</ele>
        <time>2017-05-22T09:13:36Z</time>
      </trkpt>
      <trkpt lat="51.770235020667315" lon="11.099418019875884">
        <ele>146.74000000000001</ele>
        <time>2017-05-22T09:13:43Z</time>
      </trkpt>
      <trkpt lat="51.770364018157125" lon="11.099679032340646">
        <ele>145.30000000000001</ele>
        <time>2017-05-22T09:13:44Z</time>
      </trkpt>
      <trkpt lat="51.770858969539404" lon="11.100695002824068">
        <ele>141.44999999999999</ele>
        <time>2017-05-22T09:13:48Z</time>
      </trkpt>
      <trkpt lat="51.771006993949413" lon="11.100894995033741">
        <ele>140.49000000000001</ele>
        <time>2017-05-22T09:13:49Z</time>
      </trkpt>
      <trkpt lat="51.771174967288971" lon="11.10106498003006">
        <ele>139.53</ele>
        <time>2017-05-22T09:13:50Z</time>
      </trkpt>
      <trkpt lat="51.77299601957202" lon="11.102575985714793">
        <ele>130.88</ele>
        <time>2017-05-22T09:14:00Z</time>
      </trkpt>
      <trkpt lat="51.774585982784629" lon="11.104202996939421">
        <ele>131.36000000000001</ele>
        <time>2017-05-22T09:14:10Z</time>
      </trkpt>
      <trkpt lat="51.774826040491462" lon="11.104482030496001">
        <ele>132.80000000000001</ele>
        <time>2017-05-22T09:14:14Z</time>
      </trkpt>
      <trkpt lat="51.774870967492461" lon="11.104560988023877">
        <ele>132.80000000000001</ele>
        <time>2017-05-22T09:14:15Z</time>
      </trkpt>
      <trkpt lat="51.774912960827351" lon="11.104670036584139">
        <ele>132.80000000000001</ele>
        <time>2017-05-22T09:14:16Z</time>
      </trkpt>
      <trkpt lat="51.774954032152891" lon="11.104810014367104">
        <ele>132.80000000000001</ele>
        <time>2017-05-22T09:14:17Z</time>
      </trkpt>
      <trkpt lat="51.774993008002639" lon="11.104981005191803">
        <ele>132.31999999999999</ele>
        <time>2017-05-22T09:14:18Z</time>
      </trkpt>
      <trkpt lat="51.775032989680767" lon="11.105178985744715">
        <ele>131.84</ele>
        <time>2017-05-22T09:14:19Z</time>
      </trkpt>
      <trkpt lat="51.775326021015644" lon="11.10705703496933">
        <ele>130.40000000000001</ele>
        <time>2017-05-22T09:14:26Z</time>
      </trkpt>
      <trkpt lat="51.775376982986927" lon="11.109383013099432">
        <ele>130.40000000000001</ele>
        <time>2017-05-22T09:14:33Z</time>
      </trkpt>
      <trkpt lat="51.775545962154865" lon="11.110552037134767">
        <ele>131.36000000000001</ele>
        <time>2017-05-22T09:14:37Z</time>
      </trkpt>
      <trkpt lat="51.775617962703109" lon="11.110780024901032">
        <ele>131.84</ele>
        <time>2017-05-22T09:14:38Z</time>
      </trkpt>
      <trkpt lat="51.775699015706778" lon="11.11097096465528">
        <ele>131.36000000000001</ele>
        <time>2017-05-22T09:14:39Z</time>
      </trkpt>
      <trkpt lat="51.775786019861698" lon="11.111124018207192">
        <ele>131.36000000000001</ele>
        <time>2017-05-22T09:14:40Z</time>
      </trkpt>
      <trkpt lat="51.775872018188238" lon="11.111244969069958">
        <ele>131.84</ele>
        <time>2017-05-22T09:14:41Z</time>
      </trkpt>
      <trkpt lat="51.7759620398283" lon="11.111349994316697">
        <ele>131.84</ele>
        <time>2017-05-22T09:14:42Z</time>
      </trkpt>
      <trkpt lat="51.776053989306092" lon="11.111427024006844">
        <ele>131.84</ele>
        <time>2017-05-22T09:14:43Z</time>
      </trkpt>
      <trkpt lat="51.776148034259677" lon="11.111487960442901">
        <ele>131.84</ele>
        <time>2017-05-22T09:14:44Z</time>
      </trkpt>
      <trkpt lat="51.776247024536133" lon="11.111528025940061">
        <ele>131.84</ele>
        <time>2017-05-22T09:14:45Z</time>
      </trkpt>
      <trkpt lat="51.77634802646935" lon="11.111569013446569">
        <ele>131.84</ele>
        <time>2017-05-22T09:14:46Z</time>
      </trkpt>
      <trkpt lat="51.776633011177182" lon="11.111780991777778">
        <ele>132.31999999999999</ele>
        <time>2017-05-22T09:14:49Z</time>
      </trkpt>
      <trkpt lat="51.776725966483355" lon="11.111892974004149">
        <ele>132.31999999999999</ele>
        <time>2017-05-22T09:14:50Z</time>
      </trkpt>
      <trkpt lat="51.776816993951797" lon="11.112035969272256">
        <ele>132.31999999999999</ele>
        <time>2017-05-22T09:14:51Z</time>
      </trkpt>
      <trkpt lat="51.776884971186519" lon="11.112215006724">
        <ele>132.80000000000001</ele>
        <time>2017-05-22T09:14:52Z</time>
      </trkpt>
      <trkpt lat="51.776957977563143" lon="11.112426985055208">
        <ele>133.28</ele>
        <time>2017-05-22T09:14:53Z</time>
      </trkpt>
      <trkpt lat="51.777025032788515" lon="11.112684980034828">
        <ele>133.75999999999999</ele>
        <time>2017-05-22T09:14:54Z</time>
      </trkpt>
      <trkpt lat="51.777085969224572" lon="11.112953033298254">
        <ele>133.75999999999999</ele>
        <time>2017-05-22T09:14:55Z</time>
      </trkpt>
      <trkpt lat="51.77748603746295" lon="11.115168035030365">
        <ele>133.28</ele>
        <time>2017-05-22T09:15:04Z</time>
      </trkpt>
      <trkpt lat="51.77778803743422" lon="11.116437977179885">
        <ele>131.84</ele>
        <time>2017-05-22T09:15:10Z</time>
      </trkpt>
      <trkpt lat="51.77787302993238" lon="11.116621037945151">
        <ele>131.36000000000001</ele>
        <time>2017-05-22T09:15:11Z</time>
      </trkpt>
      <trkpt lat="51.778358006849885" lon="11.117844963446259">
        <ele>131.36000000000001</ele>
        <time>2017-05-22T09:15:18Z</time>
      </trkpt>
      <trkpt lat="51.778393965214491" lon="11.118025006726384">
        <ele>131.36000000000001</ele>
        <time>2017-05-22T09:15:19Z</time>
      </trkpt>
      <trkpt lat="51.778422966599464" lon="11.118220975622535">
        <ele>131.36000000000001</ele>
        <time>2017-05-22T09:15:20Z</time>
      </trkpt>
      <trkpt lat="51.77864802069962" lon="11.120000034570694">
        <ele>130.40000000000001</ele>
        <time>2017-05-22T09:15:29Z</time>
      </trkpt>
      <trkpt lat="51.778908027336001" lon="11.121091023087502">
        <ele>129.43000000000001</ele>
        <time>2017-05-22T09:15:35Z</time>
      </trkpt>
      <trkpt lat="51.778942979872227" lon="11.121281962841749">
        <ele>128.94999999999999</ele>
        <time>2017-05-22T09:15:36Z</time>
      </trkpt>
      <trkpt lat="51.778966030105948" lon="11.121480027213693">
        <ele>128.94999999999999</ele>
        <time>2017-05-22T09:15:37Z</time>
      </trkpt>
      <trkpt lat="51.779180020093918" lon="11.123998034745455">
        <ele>127.51000000000001</ele>
        <time>2017-05-22T09:15:49Z</time>
      </trkpt>
      <trkpt lat="51.779517978429794" lon="11.125538041815162">
        <ele>124.63</ele>
        <time>2017-05-22T09:15:58Z</time>
      </trkpt>
      <trkpt lat="51.779580004513264" lon="11.125656981021166">
        <ele>124.63</ele>
        <time>2017-05-22T09:15:59Z</time>
      </trkpt>
      <trkpt lat="51.779658040031791" lon="11.125762006267905">
        <ele>124.15000000000001</ele>
        <time>2017-05-22T09:16:00Z</time>
      </trkpt>
      <trkpt lat="51.780680967494845" lon="11.126788035035133">
        <ele>123.67</ele>
        <time>2017-05-22T09:16:11Z</time>
      </trkpt>
      <trkpt lat="51.780875008553267" lon="11.126921977847815">
        <ele>123.19</ele>
        <time>2017-05-22T09:16:13Z</time>
      </trkpt>
      <trkpt lat="51.780975004658103" lon="11.126985009759665">
        <ele>123.19</ele>
        <time>2017-05-22T09:16:14Z</time>
      </trkpt>
      <trkpt lat="51.781082963570952" lon="11.127021973952651">
        <ele>123.19</ele>
        <time>2017-05-22T09:16:15Z</time>
      </trkpt>
      <trkpt lat="51.781199974939227" lon="11.127042006701231">
        <ele>123.19</ele>
        <time>2017-05-22T09:16:16Z</time>
      </trkpt>
      <trkpt lat="51.781317992135882" lon="11.12706396728754">
        <ele>123.67</ele>
        <time>2017-05-22T09:16:17Z</time>
      </trkpt>
      <trkpt lat="51.782262967899442" lon="11.12718902528286">
        <ele>122.22</ele>
        <time>2017-05-22T09:16:25Z</time>
      </trkpt>
      <trkpt lat="51.782367993146181" lon="11.127237975597382">
        <ele>122.22</ele>
        <time>2017-05-22T09:16:26Z</time>
      </trkpt>
      <trkpt lat="51.782463965937495" lon="11.127309976145625">
        <ele>122.70999999999999</ele>
        <time>2017-05-22T09:16:27Z</time>
      </trkpt>
      <trkpt lat="51.782566979527473" lon="11.127402009442449">
        <ele>123.67</ele>
        <time>2017-05-22T09:16:28Z</time>
      </trkpt>
      <trkpt lat="51.782663958147168" lon="11.127480966970325">
        <ele>124.15000000000001</ele>
        <time>2017-05-22T09:16:29Z</time>
      </trkpt>
      <trkpt lat="51.782869985327125" lon="11.127562019973993">
        <ele>123.19</ele>
        <time>2017-05-22T09:16:31Z</time>
      </trkpt>
      <trkpt lat="51.782984985038638" lon="11.127539975568652">
        <ele>123.67</ele>
        <time>2017-05-22T09:16:32Z</time>
      </trkpt>
      <trkpt lat="51.783105013892055" lon="11.127496976405382">
        <ele>123.19</ele>
        <time>2017-05-22T09:16:33Z</time>
      </trkpt>
      <trkpt lat="51.783541040495038" lon="11.12731802277267">
        <ele>123.19</ele>
        <time>2017-05-22T09:16:37Z</time>
      </trkpt>
      <trkpt lat="51.783650005236268" lon="11.127312993630767">
        <ele>122.70999999999999</ele>
        <time>2017-05-22T09:16:38Z</time>
      </trkpt>
      <trkpt lat="51.783755030483007" lon="11.127335038036108">
        <ele>122.70999999999999</ele>
        <time>2017-05-22T09:16:39Z</time>
      </trkpt>
      <trkpt lat="51.783859971910715" lon="11.127380970865488">
        <ele>122.70999999999999</ele>
        <time>2017-05-22T09:16:40Z</time>
      </trkpt>
      <trkpt lat="51.783958962187171" lon="11.12744802609086">
        <ele>122.70999999999999</ele>
        <time>2017-05-22T09:16:41Z</time>
      </trkpt>
      <trkpt lat="51.78406398743391" lon="11.127535030245781">
        <ele>124.15000000000001</ele>
        <time>2017-05-22T09:16:42Z</time>
      </trkpt>
      <trkpt lat="51.784162977710366" lon="11.12762002274394">
        <ele>125.59</ele>
        <time>2017-05-22T09:16:43Z</time>
      </trkpt>
      <trkpt lat="51.784891029819846" lon="11.128447987139225">
        <ele>128.47</ele>
        <time>2017-05-22T09:16:51Z</time>
      </trkpt>
      <trkpt lat="51.784950960427523" lon="11.128595005720854">
        <ele>127.98999999999999</ele>
        <time>2017-05-22T09:16:52Z</time>
      </trkpt>
      <trkpt lat="51.785553032532334" lon="11.13021899946034">
        <ele>125.59</ele>
        <time>2017-05-22T09:17:02Z</time>
      </trkpt>
      <trkpt lat="51.785624027252197" lon="11.130355037748814">
        <ele>125.59</ele>
        <time>2017-05-22T09:17:03Z</time>
      </trkpt>
      <trkpt lat="51.785715976729989" lon="11.130462996661663">
        <ele>125.59</ele>
        <time>2017-05-22T09:17:04Z</time>
      </trkpt>
      <trkpt lat="51.78616700693965" lon="11.130947973579168">
        <ele>127.98999999999999</ele>
        <time>2017-05-22T09:17:09Z</time>
      </trkpt>
      <trkpt lat="51.786235990002751" lon="11.131058027967811">
        <ele>127.98999999999999</ele>
        <time>2017-05-22T09:17:10Z</time>
      </trkpt>
      <trkpt lat="51.786292986944318" lon="11.131187025457621">
        <ele>128.47</ele>
        <time>2017-05-22T09:17:11Z</time>
      </trkpt>
      <trkpt lat="51.786341015249491" lon="11.131323985755444">
        <ele>128.94999999999999</ele>
        <time>2017-05-22T09:17:12Z</time>
      </trkpt>
      <trkpt lat="51.786379991099238" lon="11.131461029872298">
        <ele>128.94999999999999</ele>
        <time>2017-05-22T09:17:13Z</time>
      </trkpt>
      <trkpt lat="51.786420978605747" lon="11.131587009876966">
        <ele>129.43000000000001</ele>
        <time>2017-05-22T09:17:14Z</time>
      </trkpt>
      <trkpt lat="51.786728007718921" lon="11.132821999490261">
        <ele>128.94999999999999</ele>
        <time>2017-05-22T09:17:25Z</time>
      </trkpt>
      <trkpt lat="51.786796990782022" lon="11.133504034951329">
        <ele>125.59</ele>
        <time>2017-05-22T09:17:33Z</time>
      </trkpt>
      <trkpt lat="51.786748040467501" lon="11.13385003991425">
        <ele>124.15000000000001</ele>
        <time>2017-05-22T09:17:41Z</time>
      </trkpt>
      <trkpt lat="51.786732031032443" lon="11.133912988007069">
        <ele>124.15000000000001</ele>
        <time>2017-05-22T09:17:42Z</time>
      </trkpt>
      <trkpt lat="51.786720966920257" lon="11.133985994383693">
        <ele>124.15000000000001</ele>
        <time>2017-05-22T09:17:43Z</time>
      </trkpt>
      <trkpt lat="51.786729013547301" lon="11.134056989103556">
        <ele>123.67</ele>
        <time>2017-05-22T09:17:44Z</time>
      </trkpt>
      <trkpt lat="51.786758014932275" lon="11.134117003530264">
        <ele>124.15000000000001</ele>
        <time>2017-05-22T09:17:45Z</time>
      </trkpt>
      <trkpt lat="51.786808976903558" lon="11.13415103405714">
        <ele>123.67</ele>
        <time>2017-05-22T09:17:46Z</time>
      </trkpt>
      <trkpt lat="51.786877037957311" lon="11.13415002822876">
        <ele>123.67</ele>
        <time>2017-05-22T09:17:47Z</time>
      </trkpt>
      <trkpt lat="51.786945015192032" lon="11.13415296189487">
        <ele>123.19</ele>
        <time>2017-05-22T09:17:48Z</time>
      </trkpt>
      <trkpt lat="51.787008969113231" lon="11.134166959673166">
        <ele>123.19</ele>
        <time>2017-05-22T09:17:49Z</time>
      </trkpt>
      <trkpt lat="51.787062026560307" lon="11.134203001856804">
        <ele>123.19</ele>
        <time>2017-05-22T09:17:50Z</time>
      </trkpt>
      <trkpt lat="51.787338964641094" lon="11.134468037635088">
        <ele>124.63</ele>
        <time>2017-05-22T09:17:55Z</time>
      </trkpt>
      <trkpt lat="51.787386992946267" lon="11.134531991556287">
        <ele>125.11</ele>
        <time>2017-05-22T09:17:56Z</time>
      </trkpt>
      <trkpt lat="51.787424962967634" lon="11.134599968791008">
        <ele>125.59</ele>
        <time>2017-05-22T09:17:57Z</time>
      </trkpt>
      <trkpt lat="51.787463016808033" lon="11.134674986824393">
        <ele>125.59</ele>
        <time>2017-05-22T09:17:58Z</time>
      </trkpt>
      <trkpt lat="51.787496963515878" lon="11.134754028171301">
        <ele>125.59</ele>
        <time>2017-05-22T09:17:59Z</time>
      </trkpt>
      <trkpt lat="51.787599977105856" lon="11.134977992624044">
        <ele>126.55</ele>
        <time>2017-05-22T09:18:02Z</time>
      </trkpt>
      <trkpt lat="51.787640964612365" lon="11.135034989565611">
        <ele>127.03</ele>
        <time>2017-05-22T09:18:03Z</time>
      </trkpt>
      <trkpt lat="51.787686981260777" lon="11.135082012042403">
        <ele>127.98999999999999</ele>
        <time>2017-05-22T09:18:04Z</time>
      </trkpt>
      <trkpt lat="51.78773601539433" lon="11.135125011205673">
        <ele>128.94999999999999</ele>
        <time>2017-05-22T09:18:05Z</time>
      </trkpt>
      <trkpt lat="51.787788989022374" lon="11.135173039510846">
        <ele>128.94999999999999</ele>
        <time>2017-05-22T09:18:06Z</time>
      </trkpt>
      <trkpt lat="51.788316965103149" lon="11.135682994499803">
        <ele>132.80000000000001</ele>
        <time>2017-05-22T09:18:18Z</time>
      </trkpt>
      <trkpt lat="51.788318976759911" lon="11.135739991441369">
        <ele>131.84</ele>
        <time>2017-05-22T09:18:19Z</time>
      </trkpt>
      <trkpt lat="51.788314031437039" lon="11.135799000039697">
        <ele>131.36000000000001</ele>
        <time>2017-05-22T09:18:20Z</time>
      </trkpt>
      <trkpt lat="51.788301961496472" lon="11.135865971446037">
        <ele>130.88</ele>
        <time>2017-05-22T09:18:21Z</time>
      </trkpt>
      <trkpt lat="51.788288969546556" lon="11.13593302667141">
        <ele>129.91999999999999</ele>
        <time>2017-05-22T09:18:22Z</time>
      </trkpt>
      <trkpt lat="51.788255022838712" lon="11.136068981140852">
        <ele>129.91999999999999</ele>
        <time>2017-05-22T09:18:24Z</time>
      </trkpt>
      <trkpt lat="51.788244964554906" lon="11.13614802248776">
        <ele>128.94999999999999</ele>
        <time>2017-05-22T09:18:25Z</time>
      </trkpt>
      <trkpt lat="51.788233984261751" lon="11.136313984170556">
        <ele>128.47</ele>
        <time>2017-05-22T09:18:27Z</time>
      </trkpt>
      <trkpt lat="51.788225015625358" lon="11.136395959183574">
        <ele>128.47</ele>
        <time>2017-05-22T09:18:28Z</time>
      </trkpt>
      <trkpt lat="51.788009013980627" lon="11.137555008754134">
        <ele>127.51000000000001</ele>
        <time>2017-05-22T09:18:44Z</time>
      </trkpt>
      <trkpt lat="51.787900971248746" lon="11.138084996491671">
        <ele>127.51000000000001</ele>
        <time>2017-05-22T09:18:56Z</time>
      </trkpt>
      <trkpt lat="51.787582039833069" lon="11.138768037781119">
        <ele>125.11</ele>
        <time>2017-05-22T09:19:12Z</time>
      </trkpt>
      <trkpt lat="51.787526970729232" lon="11.138860993087292">
        <ele>125.11</ele>
        <time>2017-05-22T09:19:14Z</time>
      </trkpt>
      <trkpt lat="51.7875009868294" lon="11.138914972543716">
        <ele>125.59</ele>
        <time>2017-05-22T09:19:15Z</time>
      </trkpt>
      <trkpt lat="51.787481959909201" lon="11.138979010283947">
        <ele>125.59</ele>
        <time>2017-05-22T09:19:16Z</time>
      </trkpt>
      <trkpt lat="51.787468967959285" lon="11.13905000500381">
        <ele>125.11</ele>
        <time>2017-05-22T09:19:17Z</time>
      </trkpt>
      <trkpt lat="51.787464022636414" lon="11.139118988066912">
        <ele>125.59</ele>
        <time>2017-05-22T09:19:18Z</time>
      </trkpt>
      <trkpt lat="51.787438960745931" lon="11.139248991385102">
        <ele>127.03</ele>
        <time>2017-05-22T09:19:20Z</time>
      </trkpt>
      <trkpt lat="51.787187000736594" lon="11.140325982123613">
        <ele>127.03</ele>
        <time>2017-05-22T09:19:39Z</time>
      </trkpt>
      <trkpt lat="51.787132015451789" lon="11.141065014526248">
        <ele>124.15000000000001</ele>
        <time>2017-05-22T09:19:52Z</time>
      </trkpt>
      <trkpt lat="51.787360003218055" lon="11.141754006966949">
        <ele>124.15000000000001</ele>
        <time>2017-05-22T09:20:08Z</time>
      </trkpt>
      <trkpt lat="51.787664014846087" lon="11.14227301441133">
        <ele>122.22</ele>
        <time>2017-05-22T09:20:21Z</time>
      </trkpt>
      <trkpt lat="51.787701984867454" lon="11.142407963052392">
        <ele>124.15000000000001</ele>
        <time>2017-05-22T09:20:26Z</time>
      </trkpt>
      <trkpt lat="51.787694022059441" lon="11.142379967495799">
        <ele>125.11</ele>
        <time>2017-05-22T09:20:37Z</time>
      </trkpt>
      <trkpt lat="51.787684969604015" lon="11.142362030223012">
        <ele>125.59</ele>
        <time>2017-05-22T09:20:45Z</time>
      </trkpt>
      <trkpt lat="51.787665020674467" lon="11.142329005524516">
        <ele>125.59</ele>
        <time>2017-05-22T09:20:46Z</time>
      </trkpt>
      <trkpt lat="51.787298982962966" lon="11.14164998754859">
        <ele>125.59</ele>
        <time>2017-05-22T09:21:01Z</time>
      </trkpt>
      <trkpt lat="51.78713402710855" lon="11.140908021479845">
        <ele>123.67</ele>
        <time>2017-05-22T09:21:16Z</time>
      </trkpt>
      <trkpt lat="51.787283979356289" lon="11.140054995194077">
        <ele>122.22</ele>
        <time>2017-05-22T09:21:32Z</time>
      </trkpt>
      <trkpt lat="51.787486989051104" lon="11.139163998886943">
        <ele>123.19</ele>
        <time>2017-05-22T09:21:46Z</time>
      </trkpt>
      <trkpt lat="51.787567958235741" lon="11.138901980593801">
        <ele>123.67</ele>
        <time>2017-05-22T09:21:51Z</time>
      </trkpt>
      <trkpt lat="51.787597965449095" lon="11.138856969773769">
        <ele>123.67</ele>
        <time>2017-05-22T09:21:52Z</time>
      </trkpt>
      <trkpt lat="51.787633001804352" lon="11.138818999752402">
        <ele>123.67</ele>
        <time>2017-05-22T09:21:53Z</time>
      </trkpt>
      <trkpt lat="51.78775898180902" lon="11.138658989220858">
        <ele>123.19</ele>
        <time>2017-05-22T09:21:57Z</time>
      </trkpt>
      <trkpt lat="51.787783959880471" lon="11.138607021421194">
        <ele>123.19</ele>
        <time>2017-05-22T09:21:58Z</time>
      </trkpt>
      <trkpt lat="51.787884039804339" lon="11.138335028663278">
        <ele>122.22</ele>
        <time>2017-05-22T09:22:09Z</time>
      </trkpt>
      <trkpt lat="51.787882028147578" lon="11.138334022834897">
        <ele>122.22</ele>
        <time>2017-05-22T09:24:18Z</time>
      </trkpt>
      <trkpt lat="51.787882028147578" lon="11.138332011178136">
        <ele>122.22</ele>
        <time>2017-05-22T09:26:05Z</time>
      </trkpt>
      <trkpt lat="51.787916980683804" lon="11.138162026181817">
        <ele>122.22</ele>
        <time>2017-05-22T09:27:36Z</time>
      </trkpt>
      <trkpt lat="51.788046984001994" lon="11.137410001829267">
        <ele>123.19</ele>
        <time>2017-05-22T09:27:47Z</time>
      </trkpt>
      <trkpt lat="51.788178998976946" lon="11.136666024103761">
        <ele>123.19</ele>
        <time>2017-05-22T09:27:56Z</time>
      </trkpt>
      <trkpt lat="51.78818603977561" lon="11.136361006647348">
        <ele>123.19</ele>
        <time>2017-05-22T09:28:00Z</time>
      </trkpt>
      <trkpt lat="51.788195008412004" lon="11.136284982785583">
        <ele>123.19</ele>
        <time>2017-05-22T09:28:01Z</time>
      </trkpt>
      <trkpt lat="51.788212023675442" lon="11.136211976408958">
        <ele>123.19</ele>
        <time>2017-05-22T09:28:02Z</time>
      </trkpt>
      <trkpt lat="51.788368010893464" lon="11.135749965906143">
        <ele>124.63</ele>
        <time>2017-05-22T09:28:10Z</time>
      </trkpt>
      <trkpt lat="51.788396006450057" lon="11.135754995048046">
        <ele>124.63</ele>
        <time>2017-05-22T09:28:11Z</time>
      </trkpt>
      <trkpt lat="51.788430036976933" lon="11.135779973119497">
        <ele>125.11</ele>
        <time>2017-05-22T09:28:12Z</time>
      </trkpt>
      <trkpt lat="51.788644026964903" lon="11.13591299392283">
        <ele>126.06999999999999</ele>
        <time>2017-05-22T09:28:19Z</time>
      </trkpt>
      <trkpt lat="51.788657018914819" lon="11.13593302667141">
        <ele>126.06999999999999</ele>
        <time>2017-05-22T09:28:52Z</time>
      </trkpt>
      <trkpt lat="51.789380963891745" lon="11.136443987488747">
        <ele>126.55</ele>
        <time>2017-05-22T09:28:59Z</time>
      </trkpt>
      <trkpt lat="51.790343960747123" lon="11.137227024883032">
        <ele>131.36000000000001</ele>
        <time>2017-05-22T09:29:09Z</time>
      </trkpt>
      <trkpt lat="51.790478993207216" lon="11.137405978515744">
        <ele>129.91999999999999</ele>
        <time>2017-05-22T09:29:14Z</time>
      </trkpt>
      <trkpt lat="51.79050799459219" lon="11.137392986565828">
        <ele>127.51000000000001</ele>
        <time>2017-05-22T09:29:25Z</time>
      </trkpt>
      <trkpt lat="51.790506988763809" lon="11.137389969080687">
        <ele>127.51000000000001</ele>
        <time>2017-05-22T09:29:44Z</time>
      </trkpt>
      <trkpt lat="51.790500031784177" lon="11.137358034029603">
        <ele>127.51000000000001</ele>
        <time>2017-05-22T09:29:45Z</time>
      </trkpt>
      <trkpt lat="51.790431970730424" lon="11.137257032096386">
        <ele>127.51000000000001</ele>
        <time>2017-05-22T09:29:47Z</time>
      </trkpt>
      <trkpt lat="51.790361981838942" lon="11.137209003791213">
        <ele>127.51000000000001</ele>
        <time>2017-05-22T09:29:48Z</time>
      </trkpt>
      <trkpt lat="51.789431003853679" lon="11.136410040780902">
        <ele>125.11</ele>
        <time>2017-05-22T09:30:00Z</time>
      </trkpt>
      <trkpt lat="51.788572026416659" lon="11.135716019198298">
        <ele>120.3</ele>
        <time>2017-05-22T09:30:12Z</time>
      </trkpt>
      <trkpt lat="51.787685975432396" lon="11.134982015937567">
        <ele>121.26000000000001</ele>
        <time>2017-05-22T09:30:25Z</time>
      </trkpt>
      <trkpt lat="51.787611963227391" lon="11.134888976812363">
        <ele>120.78</ele>
        <time>2017-05-22T09:30:26Z</time>
      </trkpt>
      <trkpt lat="51.787539962679148" lon="11.134767020121217">
        <ele>120.3</ele>
        <time>2017-05-22T09:30:27Z</time>
      </trkpt>
      <trkpt lat="51.78747802041471" lon="11.134632993489504">
        <ele>120.78</ele>
        <time>2017-05-22T09:30:28Z</time>
      </trkpt>
      <trkpt lat="51.787277022376657" lon="11.134296962991357">
        <ele>121.26000000000001</ele>
        <time>2017-05-22T09:30:31Z</time>
      </trkpt>
      <trkpt lat="51.786957001313567" lon="11.133952969685197">
        <ele>121.73999999999999</ele>
        <time>2017-05-22T09:30:36Z</time>
      </trkpt>
      <trkpt lat="51.786908973008394" lon="11.133877029642463">
        <ele>121.73999999999999</ele>
        <time>2017-05-22T09:30:37Z</time>
      </trkpt>
      <trkpt lat="51.786817023530602" lon="11.133762029930949">
        <ele>121.73999999999999</ele>
        <time>2017-05-22T09:30:39Z</time>
      </trkpt>
      <trkpt lat="51.786762960255146" lon="11.133755994960666">
        <ele>122.70999999999999</ele>
        <time>2017-05-22T09:30:40Z</time>
      </trkpt>
      <trkpt lat="51.786711998283863" lon="11.1337870080024">
        <ele>123.19</ele>
        <time>2017-05-22T09:30:41Z</time>
      </trkpt>
      <trkpt lat="51.786671010777354" lon="11.13385003991425">
        <ele>123.19</ele>
        <time>2017-05-22T09:30:42Z</time>
      </trkpt>
      <trkpt lat="51.786633962765336" lon="11.133927991613746">
        <ele>122.70999999999999</ele>
        <time>2017-05-22T09:30:43Z</time>
      </trkpt>
      <trkpt lat="51.786589035764337" lon="11.134008038789034">
        <ele>123.19</ele>
        <time>2017-05-22T09:30:44Z</time>
      </trkpt>
      <trkpt lat="51.786446962505579" lon="11.134135024622083">
        <ele>123.67</ele>
        <time>2017-05-22T09:30:46Z</time>
      </trkpt>
      <trkpt lat="51.786364987492561" lon="11.134178023785353">
        <ele>123.19</ele>
        <time>2017-05-22T09:30:47Z</time>
      </trkpt>
      <trkpt lat="51.785784959793091" lon="11.13432303071022">
        <ele>123.19</ele>
        <time>2017-05-22T09:30:54Z</time>
      </trkpt>
      <trkpt lat="51.78569401614368" lon="11.134363012388349">
        <ele>123.19</ele>
        <time>2017-05-22T09:30:55Z</time>
      </trkpt>
      <trkpt lat="51.785607011988759" lon="11.13440902903676">
        <ele>122.70999999999999</ele>
        <time>2017-05-22T09:30:56Z</time>
      </trkpt>
      <trkpt lat="51.7855220194906" lon="11.13447398878634">
        <ele>122.22</ele>
        <time>2017-05-22T09:30:57Z</time>
      </trkpt>
      <trkpt lat="51.785439038649201" lon="11.134554035961628">
        <ele>122.22</ele>
        <time>2017-05-22T09:30:58Z</time>
      </trkpt>
      <trkpt lat="51.78496696986258" lon="11.135013028979301">
        <ele>122.70999999999999</ele>
        <time>2017-05-22T09:31:04Z</time>
      </trkpt>
      <trkpt lat="51.784912990406156" lon="11.135128028690815">
        <ele>123.19</ele>
        <time>2017-05-22T09:31:05Z</time>
      </trkpt>
      <trkpt lat="51.784873008728027" lon="11.135261971503496">
        <ele>122.70999999999999</ele>
        <time>2017-05-22T09:31:06Z</time>
      </trkpt>
      <trkpt lat="51.784724984318018" lon="11.136007960885763">
        <ele>122.70999999999999</ele>
        <time>2017-05-22T09:31:11Z</time>
      </trkpt>
      <trkpt lat="51.78440697491169" lon="11.137515027076006">
        <ele>122.70999999999999</ele>
        <time>2017-05-22T09:31:21Z</time>
      </trkpt>
      <trkpt lat="51.784101035445929" lon="11.138433013111353">
        <ele>123.67</ele>
        <time>2017-05-22T09:31:28Z</time>
      </trkpt>
      <trkpt lat="51.784074967727065" lon="11.138567039743066">
        <ele>123.67</ele>
        <time>2017-05-22T09:31:29Z</time>
      </trkpt>
      <trkpt lat="51.784059964120388" lon="11.13870601169765">
        <ele>124.63</ele>
        <time>2017-05-22T09:31:30Z</time>
      </trkpt>
      <trkpt lat="51.784059964120388" lon="11.138842971995473">
        <ele>124.15000000000001</ele>
        <time>2017-05-22T09:31:31Z</time>
      </trkpt>
      <trkpt lat="51.784068010747433" lon="11.13898697309196">
        <ele>124.15000000000001</ele>
        <time>2017-05-22T09:31:32Z</time>
      </trkpt>
      <trkpt lat="51.784078991040587" lon="11.139132985845208">
        <ele>124.15000000000001</ele>
        <time>2017-05-22T09:31:33Z</time>
      </trkpt>
      <trkpt lat="51.784110004082322" lon="11.139646964147687">
        <ele>125.11</ele>
        <time>2017-05-22T09:31:37Z</time>
      </trkpt>
      <trkpt lat="51.784093994647264" lon="11.139755006879568">
        <ele>125.11</ele>
        <time>2017-05-22T09:31:38Z</time>
      </trkpt>
      <trkpt lat="51.784026017412543" lon="11.140226991847157">
        <ele>127.03</ele>
        <time>2017-05-22T09:31:42Z</time>
      </trkpt>
      <trkpt lat="51.783980000764132" lon="11.14033997990191">
        <ele>127.51000000000001</ele>
        <time>2017-05-22T09:31:43Z</time>
      </trkpt>
      <trkpt lat="51.783717982470989" lon="11.141041964292526">
        <ele>128.94999999999999</ele>
        <time>2017-05-22T09:31:49Z</time>
      </trkpt>
      <trkpt lat="51.78369602188468" lon="11.141167022287846">
        <ele>128.94999999999999</ele>
        <time>2017-05-22T09:31:50Z</time>
      </trkpt>
      <trkpt lat="51.783586973324418" lon="11.141840005293489">
        <ele>127.03</ele>
        <time>2017-05-22T09:31:58Z</time>
      </trkpt>
      <trkpt lat="51.783559983596206" lon="11.141940001398325">
        <ele>124.63</ele>
        <time>2017-05-22T09:32:20Z</time>
      </trkpt>
      <trkpt lat="51.783528970554471" lon="11.142008984461427">
        <ele>124.63</ele>
        <time>2017-05-22T09:32:21Z</time>
      </trkpt>
      <trkpt lat="51.78348102606833" lon="11.142061036080122">
        <ele>124.63</ele>
        <time>2017-05-22T09:32:22Z</time>
      </trkpt>
      <trkpt lat="51.783421011641622" lon="11.142076039686799">
        <ele>124.63</ele>
        <time>2017-05-22T09:32:23Z</time>
      </trkpt>
      <trkpt lat="51.78335596807301" lon="11.142059024423361">
        <ele>123.67</ele>
        <time>2017-05-22T09:32:24Z</time>
      </trkpt>
      <trkpt lat="51.783293019980192" lon="11.142061036080122">
        <ele>123.67</ele>
        <time>2017-05-22T09:32:25Z</time>
      </trkpt>
      <trkpt lat="51.783175002783537" lon="11.142120966687799">
        <ele>123.67</ele>
        <time>2017-05-22T09:32:27Z</time>
      </trkpt>
      <trkpt lat="51.783124040812254" lon="11.142192967236042">
        <ele>123.67</ele>
        <time>2017-05-22T09:32:28Z</time>
      </trkpt>
      <trkpt lat="51.7830940335989" lon="11.142280977219343">
        <ele>123.19</ele>
        <time>2017-05-22T09:32:29Z</time>
      </trkpt>
      <trkpt lat="51.783068971708417" lon="11.142375022172928">
        <ele>123.19</ele>
        <time>2017-05-22T09:32:30Z</time>
      </trkpt>
      <trkpt lat="51.783044999465346" lon="11.142468983307481">
        <ele>122.70999999999999</ele>
        <time>2017-05-22T09:32:31Z</time>
      </trkpt>
      <trkpt lat="51.782819023355842" lon="11.143236011266708">
        <ele>121.26000000000001</ele>
        <time>2017-05-22T09:32:42Z</time>
      </trkpt>
      <trkpt lat="51.782732019200921" lon="11.143278004601598">
        <ele>122.22</ele>
        <time>2017-05-22T09:32:45Z</time>
      </trkpt>
      <trkpt lat="51.78223698399961" lon="11.143278004601598">
        <ele>122.70999999999999</ele>
        <time>2017-05-22T09:32:52Z</time>
      </trkpt>
      <trkpt lat="51.781408013775945" lon="11.143350005149841">
        <ele>124.15000000000001</ele>
        <time>2017-05-22T09:33:05Z</time>
      </trkpt>
      <trkpt lat="51.781036024913192" lon="11.143357967957854">
        <ele>123.67</ele>
        <time>2017-05-22T09:33:13Z</time>
      </trkpt>
      <trkpt lat="51.780242007225752" lon="11.143382024019957">
        <ele>123.67</ele>
        <time>2017-05-22T09:33:27Z</time>
      </trkpt>
      <trkpt lat="51.78000002168119" lon="11.143370037898421">
        <ele>123.67</ele>
        <time>2017-05-22T09:33:32Z</time>
      </trkpt>
      <trkpt lat="51.779944030568004" lon="11.143343970179558">
        <ele>123.67</ele>
        <time>2017-05-22T09:33:33Z</time>
      </trkpt>
      <trkpt lat="51.779837999492884" lon="11.143279010429978">
        <ele>123.67</ele>
        <time>2017-05-22T09:33:35Z</time>
      </trkpt>
      <trkpt lat="51.779784020036459" lon="11.14328102208674">
        <ele>123.67</ele>
        <time>2017-05-22T09:33:36Z</time>
      </trkpt>
      <trkpt lat="51.779724005609751" lon="11.143298959359527">
        <ele>123.67</ele>
        <time>2017-05-22T09:33:37Z</time>
      </trkpt>
      <trkpt lat="51.779510015621781" lon="11.14328102208674">
        <ele>123.67</ele>
        <time>2017-05-22T09:33:40Z</time>
      </trkpt>
      <trkpt lat="51.779431980103254" lon="11.143235005438328">
        <ele>123.67</ele>
        <time>2017-05-22T09:33:41Z</time>
      </trkpt>
      <trkpt lat="51.778616001829505" lon="11.142651960253716">
        <ele>124.15000000000001</ele>
        <time>2017-05-22T09:33:52Z</time>
      </trkpt>
      <trkpt lat="51.778165977448225" lon="11.142306961119175">
        <ele>124.63</ele>
        <time>2017-05-22T09:34:06Z</time>
      </trkpt>
      <trkpt lat="51.777715031057596" lon="11.141976965591311">
        <ele>125.11</ele>
        <time>2017-05-22T09:34:13Z</time>
      </trkpt>
      <trkpt lat="51.776267979294062" lon="11.140932999551296">
        <ele>126.06999999999999</ele>
        <time>2017-05-22T09:34:26Z</time>
      </trkpt>
      <trkpt lat="51.774735013023019" lon="11.139828013256192">
        <ele>131.84</ele>
        <time>2017-05-22T09:34:37Z</time>
      </trkpt>
      <trkpt lat="51.774589000269771" lon="11.139789037406445">
        <ele>132.31999999999999</ele>
        <time>2017-05-22T09:34:38Z</time>
      </trkpt>
      <trkpt lat="51.774446005001664" lon="11.139789959415793">
        <ele>132.80000000000001</ele>
        <time>2017-05-22T09:34:39Z</time>
      </trkpt>
      <trkpt lat="51.774298986420035" lon="11.139837987720966">
        <ele>133.28</ele>
        <time>2017-05-22T09:34:40Z</time>
      </trkpt>
      <trkpt lat="51.774154985323548" lon="11.13993102684617">
        <ele>133.75999999999999</ele>
        <time>2017-05-22T09:34:41Z</time>
      </trkpt>
      <trkpt lat="51.774015007540584" lon="11.140053989365697">
        <ele>134.72</ele>
        <time>2017-05-22T09:34:42Z</time>
      </trkpt>
      <trkpt lat="51.773870000615716" lon="11.140179969370365">
        <ele>135.19999999999999</ele>
        <time>2017-05-22T09:34:43Z</time>
      </trkpt>
      <trkpt lat="51.773580992594361" lon="11.140407035127282">
        <ele>136.16</ele>
        <time>2017-05-22T09:34:45Z</time>
      </trkpt>
      <trkpt lat="51.773431962355971" lon="11.140483980998397">
        <ele>137.13</ele>
        <time>2017-05-22T09:34:46Z</time>
      </trkpt>
      <trkpt lat="51.773287961259484" lon="11.140529997646809">
        <ele>137.61000000000001</ele>
        <time>2017-05-22T09:34:47Z</time>
      </trkpt>
      <trkpt lat="51.773149995133281" lon="11.140557993203402">
        <ele>138.09</ele>
        <time>2017-05-22T09:34:48Z</time>
      </trkpt>
      <trkpt lat="51.773024015128613" lon="11.140552964061499">
        <ele>138.56999999999999</ele>
        <time>2017-05-22T09:34:49Z</time>
      </trkpt>
      <trkpt lat="51.772905997931957" lon="11.140543995425105">
        <ele>139.53</ele>
        <time>2017-05-22T09:34:50Z</time>
      </trkpt>
      <trkpt lat="51.772788986563683" lon="11.140515999868512">
        <ele>140.00999999999999</ele>
        <time>2017-05-22T09:34:51Z</time>
      </trkpt>
      <trkpt lat="51.77220300771296" lon="11.140327993780375">
        <ele>140.97</ele>
        <time>2017-05-22T09:34:57Z</time>
      </trkpt>
      <trkpt lat="51.772130001336336" lon="11.140268985182047">
        <ele>140.97</ele>
        <time>2017-05-22T09:34:58Z</time>
      </trkpt>
      <trkpt lat="51.772062024101615" lon="11.140238977968693">
        <ele>141.44999999999999</ele>
        <time>2017-05-22T09:34:59Z</time>
      </trkpt>
      <trkpt lat="51.771993041038513" lon="11.140262028202415">
        <ele>141.44999999999999</ele>
        <time>2017-05-22T09:35:00Z</time>
      </trkpt>
      <trkpt lat="51.771948030218482" lon="11.140349032357335">
        <ele>141.44999999999999</ele>
        <time>2017-05-22T09:35:01Z</time>
      </trkpt>
      <trkpt lat="51.771907964721322" lon="11.140454979613423">
        <ele>141.44999999999999</ele>
        <time>2017-05-22T09:35:02Z</time>
      </trkpt>
      <trkpt lat="51.771862031891942" lon="11.140562016516924">
        <ele>140.97</ele>
        <time>2017-05-22T09:35:03Z</time>
      </trkpt>
      <trkpt lat="51.771792965009809" lon="11.140654971823096">
        <ele>141.44999999999999</ele>
        <time>2017-05-22T09:35:04Z</time>
      </trkpt>
      <trkpt lat="51.771704033017159" lon="11.140734013170004">
        <ele>140.97</ele>
        <time>2017-05-22T09:35:05Z</time>
      </trkpt>
      <trkpt lat="51.770774982869625" lon="11.141632972285151">
        <ele>140.49000000000001</ele>
        <time>2017-05-22T09:35:13Z</time>
      </trkpt>
      <trkpt lat="51.768554029986262" lon="11.143635995686054">
        <ele>142.41</ele>
        <time>2017-05-22T09:35:28Z</time>
      </trkpt>
      <trkpt lat="51.76605798304081" lon="11.145873963832855">
        <ele>142.88999999999999</ele>
        <time>2017-05-22T09:35:40Z</time>
      </trkpt>
      <trkpt lat="51.762193003669381" lon="11.14934197627008">
        <ele>145.78</ele>
        <time>2017-05-22T09:35:58Z</time>
      </trkpt>
      <trkpt lat="51.759737022221088" lon="11.151557983830571">
        <ele>148.66</ele>
        <time>2017-05-22T09:36:11Z</time>
      </trkpt>
      <trkpt lat="51.758790034800768" lon="11.15237002260983">
        <ele>151.06</ele>
        <time>2017-05-22T09:36:18Z</time>
      </trkpt>
      <trkpt lat="51.758711999282241" lon="11.152390977367759">
        <ele>151.06</ele>
        <time>2017-05-22T09:36:19Z</time>
      </trkpt>
      <trkpt lat="51.758637987077236" lon="11.152378991246223">
        <ele>151.53999999999999</ele>
        <time>2017-05-22T09:36:20Z</time>
      </trkpt>
      <trkpt lat="51.758488034829497" lon="11.152398018166423">
        <ele>151.53999999999999</ele>
        <time>2017-05-22T09:36:22Z</time>
      </trkpt>
      <trkpt lat="51.75843195989728" lon="11.152467001229525">
        <ele>151.53999999999999</ele>
        <time>2017-05-22T09:36:23Z</time>
      </trkpt>
      <trkpt lat="51.758384015411139" lon="11.152584012597799">
        <ele>151.53999999999999</ele>
        <time>2017-05-22T09:36:24Z</time>
      </trkpt>
      <trkpt lat="51.758244959637523" lon="11.152854999527335">
        <ele>151.53999999999999</ele>
        <time>2017-05-22T09:36:26Z</time>
      </trkpt>
      <trkpt lat="51.75813197158277" lon="11.152980979532003">
        <ele>152.03</ele>
        <time>2017-05-22T09:36:27Z</time>
      </trkpt>
      <trkpt lat="51.757020028308034" lon="11.15398496389389">
        <ele>154.43000000000001</ele>
        <time>2017-05-22T09:36:34Z</time>
      </trkpt>
      <trkpt lat="51.754994038492441" lon="11.155536035075784">
        <ele>158.75</ele>
        <time>2017-05-22T09:36:45Z</time>
      </trkpt>
      <trkpt lat="51.754788011312485" lon="11.15559202618897">
        <ele>158.75</ele>
        <time>2017-05-22T09:36:46Z</time>
      </trkpt>
      <trkpt lat="51.754577960819006" lon="11.155624967068434">
        <ele>158.75</ele>
        <time>2017-05-22T09:36:47Z</time>
      </trkpt>
      <trkpt lat="51.752444012090564" lon="11.155453976243734">
        <ele>163.08000000000001</ele>
        <time>2017-05-22T09:36:57Z</time>
      </trkpt>
      <trkpt lat="51.748831998556852" lon="11.154972016811371">
        <ele>171.72999999999999</ele>
        <time>2017-05-22T09:37:14Z</time>
      </trkpt>
      <trkpt lat="51.745764976367354" lon="11.153879016637802">
        <ele>178.46000000000001</ele>
        <time>2017-05-22T09:37:29Z</time>
      </trkpt>
      <trkpt lat="51.744242990389466" lon="11.152772018685937">
        <ele>181.34999999999999</ele>
        <time>2017-05-22T09:37:37Z</time>
      </trkpt>
      <trkpt lat="51.742390003055334" lon="11.150806965306401">
        <ele>188.56</ele>
        <time>2017-05-22T09:37:48Z</time>
      </trkpt>
      <trkpt lat="51.741251992061734" lon="11.15024596452713">
        <ele>188.08000000000001</ele>
        <time>2017-05-22T09:37:54Z</time>
      </trkpt>
      <trkpt lat="51.741058034822345" lon="11.150240013375878">
        <ele>188.08000000000001</ele>
        <time>2017-05-22T09:37:55Z</time>
      </trkpt>
      <trkpt lat="51.74087698571384" lon="11.150259962305427">
        <ele>188.56</ele>
        <time>2017-05-22T09:37:56Z</time>
      </trkpt>
      <trkpt lat="51.739981966093183" lon="11.150559028610587">
        <ele>189.03999999999999</ele>
        <time>2017-05-22T09:38:02Z</time>
      </trkpt>
      <trkpt lat="51.73810500651598" lon="11.151242991909385">
        <ele>192.88</ele>
        <time>2017-05-22T09:38:16Z</time>
      </trkpt>
      <trkpt lat="51.736227963119745" lon="11.151769040152431">
        <ele>197.69</ele>
        <time>2017-05-22T09:38:29Z</time>
      </trkpt>
      <trkpt lat="51.736092008650303" lon="11.151861995458603">
        <ele>198.16999999999999</ele>
        <time>2017-05-22T09:38:30Z</time>
      </trkpt>
      <trkpt lat="51.735956976190209" lon="11.151982024312019">
        <ele>198.65000000000001</ele>
        <time>2017-05-22T09:38:31Z</time>
      </trkpt>
      <trkpt lat="51.73486297018826" lon="11.153061026707292">
        <ele>201.05000000000001</ele>
        <time>2017-05-22T09:38:39Z</time>
      </trkpt>
      <trkpt lat="51.733553968369961" lon="11.153706014156342">
        <ele>204.41999999999999</ele>
        <time>2017-05-22T09:38:49Z</time>
      </trkpt>
      <trkpt lat="51.732513019815087" lon="11.153883961960673">
        <ele>207.30000000000001</ele>
        <time>2017-05-22T09:38:58Z</time>
      </trkpt>
      <trkpt lat="51.732223005965352" lon="11.15398496389389">
        <ele>208.74000000000001</ele>
        <time>2017-05-22T09:39:04Z</time>
      </trkpt>
      <trkpt lat="51.732140025123954" lon="11.153997033834457">
        <ele>208.74000000000001</ele>
        <time>2017-05-22T09:39:11Z</time>
      </trkpt>
      <trkpt lat="51.732088979333639" lon="11.153980018571019">
        <ele>209.22</ele>
        <time>2017-05-22T09:39:12Z</time>
      </trkpt>
      <trkpt lat="51.732037011533976" lon="11.153945988044143">
        <ele>209.22</ele>
        <time>2017-05-22T09:39:13Z</time>
      </trkpt>
      <trkpt lat="51.731986971572042" lon="11.15389896556735">
        <ele>209.22</ele>
        <time>2017-05-22T09:39:14Z</time>
      </trkpt>
      <trkpt lat="51.731946989893913" lon="11.153828976675868">
        <ele>209.22</ele>
        <time>2017-05-22T09:39:15Z</time>
      </trkpt>
      <trkpt lat="51.731909019872546" lon="11.153735015541315">
        <ele>208.74000000000001</ele>
        <time>2017-05-22T09:39:16Z</time>
      </trkpt>
      <trkpt lat="51.731880018487573" lon="11.153586991131306">
        <ele>208.25999999999999</ele>
        <time>2017-05-22T09:39:17Z</time>
      </trkpt>
      <trkpt lat="51.731841964647174" lon="11.153460005298257">
        <ele>207.30000000000001</ele>
        <time>2017-05-22T09:39:18Z</time>
      </trkpt>
      <trkpt lat="51.731550022959709" lon="11.152358036488295">
        <ele>206.34</ele>
        <time>2017-05-22T09:39:26Z</time>
      </trkpt>
      <trkpt lat="51.73148900270462" lon="11.152237001806498">
        <ele>206.81999999999999</ele>
        <time>2017-05-22T09:39:27Z</time>
      </trkpt>
      <trkpt lat="51.731420019641519" lon="11.152118984609842">
        <ele>206.34</ele>
        <time>2017-05-22T09:39:28Z</time>
      </trkpt>
      <trkpt lat="51.731337960809469" lon="11.152014965191483">
        <ele>206.34</ele>
        <time>2017-05-22T09:39:29Z</time>
      </trkpt>
      <trkpt lat="51.731239976361394" lon="11.151922009885311">
        <ele>206.34</ele>
        <time>2017-05-22T09:39:30Z</time>
      </trkpt>
      <trkpt lat="51.731137968599796" lon="11.151827964931726">
        <ele>206.81999999999999</ele>
        <time>2017-05-22T09:39:31Z</time>
      </trkpt>
      <trkpt lat="51.729945978149772" lon="11.15080201998353">
        <ele>211.63</ele>
        <time>2017-05-22T09:39:43Z</time>
      </trkpt>
      <trkpt lat="51.729337032884359" lon="11.149770962074399">
        <ele>212.11000000000001</ele>
        <time>2017-05-22T09:39:51Z</time>
      </trkpt>
      <trkpt lat="51.728693973273039" lon="11.148276971653104">
        <ele>212.59</ele>
        <time>2017-05-22T09:40:00Z</time>
      </trkpt>
      <trkpt lat="51.727753020823002" lon="11.146900998428464">
        <ele>218.36000000000001</ele>
        <time>2017-05-22T09:40:11Z</time>
      </trkpt>
      <trkpt lat="51.726918015629053" lon="11.145729040727019">
        <ele>224.12</ele>
        <time>2017-05-22T09:40:22Z</time>
      </trkpt>
      <trkpt lat="51.726692039519548" lon="11.145294019952416">
        <ele>225.56999999999999</ele>
        <time>2017-05-22T09:40:26Z</time>
      </trkpt>
      <trkpt lat="51.726606963202357" lon="11.145196035504341">
        <ele>226.05000000000001</ele>
        <time>2017-05-22T09:40:27Z</time>
      </trkpt>
      <trkpt lat="51.726511996239424" lon="11.145106013864279">
        <ele>226.05000000000001</ele>
        <time>2017-05-22T09:40:28Z</time>
      </trkpt>
      <trkpt lat="51.725521003827453" lon="11.144152991473675">
        <ele>227.97</ele>
        <time>2017-05-22T09:40:40Z</time>
      </trkpt>
      <trkpt lat="51.725119007751346" lon="11.143681006506085">
        <ele>230.37</ele>
        <time>2017-05-22T09:40:46Z</time>
      </trkpt>
      <trkpt lat="51.725073996931314" lon="11.143557038158178">
        <ele>231.33000000000001</ele>
        <time>2017-05-22T09:40:47Z</time>
      </trkpt>
      <trkpt lat="51.724707037210464" lon="11.141875041648746">
        <ele>233.74000000000001</ele>
        <time>2017-05-22T09:40:59Z</time>
      </trkpt>
      <trkpt lat="51.724644005298615" lon="11.141622997820377">
        <ele>233.25999999999999</ele>
        <time>2017-05-22T09:41:01Z</time>
      </trkpt>
      <trkpt lat="51.7245929595083" lon="11.141510009765625">
        <ele>233.74000000000001</ele>
        <time>2017-05-22T09:41:02Z</time>
      </trkpt>
      <trkpt lat="51.724537974223495" lon="11.141400039196014">
        <ele>233.74000000000001</ele>
        <time>2017-05-22T09:41:03Z</time>
      </trkpt>
      <trkpt lat="51.724477037787437" lon="11.141289984807372">
        <ele>233.74000000000001</ele>
        <time>2017-05-22T09:41:04Z</time>
      </trkpt>
      <trkpt lat="51.724403025582433" lon="11.1411970295012">
        <ele>234.22</ele>
        <time>2017-05-22T09:41:05Z</time>
      </trkpt>
      <trkpt lat="51.724189035594463" lon="11.14093903452158">
        <ele>233.74000000000001</ele>
        <time>2017-05-22T09:41:08Z</time>
      </trkpt>
      <trkpt lat="51.724106976762414" lon="11.140884971246123">
        <ele>233.74000000000001</ele>
        <time>2017-05-22T09:41:09Z</time>
      </trkpt>
      <trkpt lat="51.724018966779113" lon="11.140854964032769">
        <ele>234.22</ele>
        <time>2017-05-22T09:41:10Z</time>
      </trkpt>
      <trkpt lat="51.723935985937715" lon="11.140847001224756">
        <ele>234.69999999999999</ele>
        <time>2017-05-22T09:41:11Z</time>
      </trkpt>
      <trkpt lat="51.723859962075949" lon="11.140863010659814">
        <ele>234.69999999999999</ele>
        <time>2017-05-22T09:41:12Z</time>
      </trkpt>
      <trkpt lat="51.723782010376453" lon="11.140895029529929">
        <ele>235.18000000000001</ele>
        <time>2017-05-22T09:41:13Z</time>
      </trkpt>
      <trkpt lat="51.723705986514688" lon="11.140926964581013">
        <ele>235.18000000000001</ele>
        <time>2017-05-22T09:41:14Z</time>
      </trkpt>
      <trkpt lat="51.723396023735404" lon="11.141040036454797">
        <ele>236.62</ele>
        <time>2017-05-22T09:41:18Z</time>
      </trkpt>
      <trkpt lat="51.723316982388496" lon="11.141040958464146">
        <ele>238.53999999999999</ele>
        <time>2017-05-22T09:41:19Z</time>
      </trkpt>
      <trkpt lat="51.723250010982156" lon="11.140998965129256">
        <ele>239.50999999999999</ele>
        <time>2017-05-22T09:41:20Z</time>
      </trkpt>
      <trkpt lat="51.723186979070306" lon="11.140921013429761">
        <ele>239.99000000000001</ele>
        <time>2017-05-22T09:41:21Z</time>
      </trkpt>
      <trkpt lat="51.723125958815217" lon="11.14083400927484">
        <ele>240.47</ele>
        <time>2017-05-22T09:41:22Z</time>
      </trkpt>
      <trkpt lat="51.723073991015553" lon="11.140735018998384">
        <ele>240.94999999999999</ele>
        <time>2017-05-22T09:41:23Z</time>
      </trkpt>
      <trkpt lat="51.723033003509045" lon="11.140629993751645">
        <ele>241.43000000000001</ele>
        <time>2017-05-22T09:41:24Z</time>
      </trkpt>
      <trkpt lat="51.723010959103703" lon="11.140497978776693">
        <ele>241.43000000000001</ele>
        <time>2017-05-22T09:41:25Z</time>
      </trkpt>
      <trkpt lat="51.722998972982168" lon="11.140359006822109">
        <ele>241.43000000000001</ele>
        <time>2017-05-22T09:41:26Z</time>
      </trkpt>
      <trkpt lat="51.722837034612894" lon="11.139354016631842">
        <ele>243.34999999999999</ele>
        <time>2017-05-22T09:41:32Z</time>
      </trkpt>
      <trkpt lat="51.722775008529425" lon="11.139181014150381">
        <ele>243.34999999999999</ele>
        <time>2017-05-22T09:41:33Z</time>
      </trkpt>
      <trkpt lat="51.722693033516407" lon="11.139017986133695">
        <ele>243.34999999999999</ele>
        <time>2017-05-22T09:41:34Z</time>
      </trkpt>
      <trkpt lat="51.722590019926429" lon="11.138880020007491">
        <ele>244.31</ele>
        <time>2017-05-22T09:41:35Z</time>
      </trkpt>
      <trkpt lat="51.722469991073012" lon="11.138762002810836">
        <ele>244.31</ele>
        <time>2017-05-22T09:41:36Z</time>
      </trkpt>
      <trkpt lat="51.722334958612919" lon="11.138659995049238">
        <ele>244.31</ele>
        <time>2017-05-22T09:41:37Z</time>
      </trkpt>
      <trkpt lat="51.722187018021941" lon="11.138586988672614">
        <ele>244.78999999999999</ele>
        <time>2017-05-22T09:41:38Z</time>
      </trkpt>
      <trkpt lat="51.722030024975538" lon="11.138542983680964">
        <ele>245.27000000000001</ele>
        <time>2017-05-22T09:41:39Z</time>
      </trkpt>
      <trkpt lat="51.721861967816949" lon="11.138524040579796">
        <ele>245.75</ele>
        <time>2017-05-22T09:41:40Z</time>
      </trkpt>
      <trkpt lat="51.721684020012617" lon="11.138543989509344">
        <ele>246.22999999999999</ele>
        <time>2017-05-22T09:41:41Z</time>
      </trkpt>
      <trkpt lat="51.721498025581241" lon="11.138602998107672">
        <ele>246.72</ele>
        <time>2017-05-22T09:41:42Z</time>
      </trkpt>
      <trkpt lat="51.721316976472735" lon="11.138700982555747">
        <ele>247.19999999999999</ele>
        <time>2017-05-22T09:41:43Z</time>
      </trkpt>
      <trkpt lat="51.721150008961558" lon="11.138807013630867">
        <ele>248.16</ele>
        <time>2017-05-22T09:41:44Z</time>
      </trkpt>
      <trkpt lat="51.720833005383611" lon="11.138963000848889">
        <ele>250.08000000000001</ele>
        <time>2017-05-22T09:41:46Z</time>
      </trkpt>
      <trkpt lat="51.720669977366924" lon="11.138983033597469">
        <ele>251.03999999999999</ele>
        <time>2017-05-22T09:41:47Z</time>
      </trkpt>
      <trkpt lat="51.720494041219354" lon="11.138988984748721">
        <ele>251.52000000000001</ele>
        <time>2017-05-22T09:41:48Z</time>
      </trkpt>
      <trkpt lat="51.720332019031048" lon="11.138952020555735">
        <ele>252.96000000000001</ele>
        <time>2017-05-22T09:41:49Z</time>
      </trkpt>
      <trkpt lat="51.720161028206348" lon="11.138879014179111">
        <ele>254.41</ele>
        <time>2017-05-22T09:41:50Z</time>
      </trkpt>
      <trkpt lat="51.719673033803701" lon="11.138738030567765">
        <ele>258.73000000000002</ele>
        <time>2017-05-22T09:41:53Z</time>
      </trkpt>
      <trkpt lat="51.719503970816731" lon="11.138740964233875">
        <ele>259.20999999999998</ele>
        <time>2017-05-22T09:41:54Z</time>
      </trkpt>
      <trkpt lat="51.719335997477174" lon="11.138785975053906">
        <ele>259.69</ele>
        <time>2017-05-22T09:41:55Z</time>
      </trkpt>
      <trkpt lat="51.719199037179351" lon="11.138851018622518">
        <ele>260.17000000000002</ele>
        <time>2017-05-22T09:41:56Z</time>
      </trkpt>
      <trkpt lat="51.719143968075514" lon="11.139080012217164">
        <ele>260.17000000000002</ele>
        <time>2017-05-22T09:41:58Z</time>
      </trkpt>
      <trkpt lat="51.71915402635932" lon="11.139189982786775">
        <ele>260.64999999999998</ele>
        <time>2017-05-22T09:41:59Z</time>
      </trkpt>
      <trkpt lat="51.719172969460487" lon="11.139294002205133">
        <ele>260.17000000000002</ele>
        <time>2017-05-22T09:42:00Z</time>
      </trkpt>
      <trkpt lat="51.719272965565324" lon="11.139383018016815">
        <ele>261.13999999999999</ele>
        <time>2017-05-22T09:42:01Z</time>
      </trkpt>
      <trkpt lat="51.719358963891864" lon="11.139427023008466">
        <ele>261.62</ele>
        <time>2017-05-22T09:42:02Z</time>
      </trkpt>
      <trkpt lat="51.719449991360307" lon="11.139450995251536">
        <ele>261.62</ele>
        <time>2017-05-22T09:42:03Z</time>
      </trkpt>
      <trkpt lat="51.719576977193356" lon="11.1394580360502">
        <ele>262.10000000000002</ele>
        <time>2017-05-22T09:42:04Z</time>
      </trkpt>
      <trkpt lat="51.719696000218391" lon="11.139485025778413">
        <ele>263.06</ele>
        <time>2017-05-22T09:42:05Z</time>
      </trkpt>
      <trkpt lat="51.719836983829737" lon="11.13954302854836">
        <ele>263.54000000000002</ele>
        <time>2017-05-22T09:42:06Z</time>
      </trkpt>
      <trkpt lat="51.720008980482817" lon="11.139634978026152">
        <ele>264.01999999999998</ele>
        <time>2017-05-22T09:42:07Z</time>
      </trkpt>
      <trkpt lat="51.720171002671123" lon="11.139734974130988">
        <ele>264.5</ele>
        <time>2017-05-22T09:42:08Z</time>
      </trkpt>
      <trkpt lat="51.72095999121666" lon="11.140250964090228">
        <ele>267.38</ele>
        <time>2017-05-22T09:42:13Z</time>
      </trkpt>
      <trkpt lat="51.721095023676753" lon="11.14025498740375">
        <ele>267.86000000000001</ele>
        <time>2017-05-22T09:42:14Z</time>
      </trkpt>
      <trkpt lat="51.721209017559886" lon="11.140206037089229">
        <ele>268.35000000000002</ele>
        <time>2017-05-22T09:42:15Z</time>
      </trkpt>
      <trkpt lat="51.721384031698108" lon="11.140201007947326">
        <ele>269.31</ele>
        <time>2017-05-22T09:42:17Z</time>
      </trkpt>
      <trkpt lat="51.721461983397603" lon="11.140236966311932">
        <ele>269.79000000000002</ele>
        <time>2017-05-22T09:42:18Z</time>
      </trkpt>
      <trkpt lat="51.721455026417971" lon="11.140430001541972">
        <ele>271.23000000000002</ele>
        <time>2017-05-22T09:42:20Z</time>
      </trkpt>
      <trkpt lat="51.721400963142514" lon="11.140578025951982">
        <ele>273.14999999999998</ele>
        <time>2017-05-22T09:42:21Z</time>
      </trkpt>
      <trkpt lat="51.721334997564554" lon="11.140681961551309">
        <ele>273.63</ele>
        <time>2017-05-22T09:42:22Z</time>
      </trkpt>
      <trkpt lat="51.721244975924492" lon="11.140782963484526">
        <ele>274.11000000000001</ele>
        <time>2017-05-22T09:42:23Z</time>
      </trkpt>
      <trkpt lat="51.72115596011281" lon="11.140892012044787">
        <ele>274.11000000000001</ele>
        <time>2017-05-22T09:42:24Z</time>
      </trkpt>
      <trkpt lat="51.720063965767622" lon="11.142163965851068">
        <ele>280.36000000000001</ele>
        <time>2017-05-22T09:42:34Z</time>
      </trkpt>
      <trkpt lat="51.719913007691503" lon="11.142243007197976">
        <ele>281.31999999999999</ele>
        <time>2017-05-22T09:42:35Z</time>
      </trkpt>
      <trkpt lat="51.719740005210042" lon="11.142253987491131">
        <ele>281.80000000000001</ele>
        <time>2017-05-22T09:42:36Z</time>
      </trkpt>
      <trkpt lat="51.719202976673841" lon="11.142246024683118">
        <ele>284.20999999999998</ele>
        <time>2017-05-22T09:42:39Z</time>
      </trkpt>
      <trkpt lat="51.719016982242465" lon="11.14218701608479">
        <ele>284.69</ele>
        <time>2017-05-22T09:42:40Z</time>
      </trkpt>
      <trkpt lat="51.717346971854568" lon="11.141112959012389">
        <ele>299.58999999999997</ele>
        <time>2017-05-22T09:42:49Z</time>
      </trkpt>
      <trkpt lat="51.717186961323023" lon="11.140916990116239">
        <ele>301.50999999999999</ele>
        <time>2017-05-22T09:42:50Z</time>
      </trkpt>
      <trkpt lat="51.715401029214263" lon="11.138696959242225">
        <ele>311.60000000000002</ele>
        <time>2017-05-22T09:43:01Z</time>
      </trkpt>
      <trkpt lat="51.713530020788312" lon="11.13685897551477">
        <ele>320.25999999999999</ele>
        <time>2017-05-22T09:43:11Z</time>
      </trkpt>
      <trkpt lat="51.712139965966344" lon="11.135447965934873">
        <ele>326.01999999999998</ele>
        <time>2017-05-22T09:43:19Z</time>
      </trkpt>
      <trkpt lat="51.711821034550667" lon="11.135088969022036">
        <ele>326.99000000000001</ele>
        <time>2017-05-22T09:43:21Z</time>
      </trkpt>
      <trkpt lat="51.710928026586771" lon="11.133960010483861">
        <ele>341.41000000000003</ele>
        <time>2017-05-22T09:43:28Z</time>
      </trkpt>
      <trkpt lat="51.710398038849235" lon="11.13303598947823">
        <ele>352.45999999999998</ele>
        <time>2017-05-22T09:43:33Z</time>
      </trkpt>
      <trkpt lat="51.710268035531044" lon="11.132902968674898">
        <ele>353.42000000000002</ele>
        <time>2017-05-22T09:43:34Z</time>
      </trkpt>
      <trkpt lat="51.709189033135772" lon="11.132018007338047">
        <ele>359.67000000000002</ele>
        <time>2017-05-22T09:43:41Z</time>
      </trkpt>
      <trkpt lat="51.707464959472418" lon="11.130567016080022">
        <ele>367.83999999999997</ele>
        <time>2017-05-22T09:43:51Z</time>
      </trkpt>
      <trkpt lat="51.706766998395324" lon="11.130058988928795">
        <ele>369.75999999999999</ele>
        <time>2017-05-22T09:43:55Z</time>
      </trkpt>
      <trkpt lat="51.706589972600341" lon="11.130014983937144">
        <ele>369.75999999999999</ele>
        <time>2017-05-22T09:43:56Z</time>
      </trkpt>
      <trkpt lat="51.705450033769011" lon="11.129879029467702">
        <ele>373.61000000000001</ele>
        <time>2017-05-22T09:44:02Z</time>
      </trkpt>
      <trkpt lat="51.705282982438803" lon="11.129745002835989">
        <ele>373.61000000000001</ele>
        <time>2017-05-22T09:44:03Z</time>
      </trkpt>
      <trkpt lat="51.703960988670588" lon="11.128998007625341">
        <ele>375.52999999999997</ele>
        <time>2017-05-22T09:44:10Z</time>
      </trkpt>
      <trkpt lat="51.703602997586131" lon="11.128931036219001">
        <ele>374.56999999999999</ele>
        <time>2017-05-22T09:44:12Z</time>
      </trkpt>
      <trkpt lat="51.70342898927629" lon="11.12895299680531">
        <ele>374.08999999999997</ele>
        <time>2017-05-22T09:44:13Z</time>
      </trkpt>
      <trkpt lat="51.703261015936732" lon="11.129024997353554">
        <ele>373.61000000000001</ele>
        <time>2017-05-22T09:44:14Z</time>
      </trkpt>
      <trkpt lat="51.703108968213201" lon="11.129165980964899">
        <ele>372.64999999999998</ele>
        <time>2017-05-22T09:44:15Z</time>
      </trkpt>
      <trkpt lat="51.702988017350435" lon="11.12938198260963">
        <ele>370.73000000000002</ele>
        <time>2017-05-22T09:44:16Z</time>
      </trkpt>
      <trkpt lat="51.702862037345767" lon="11.129623968154192">
        <ele>371.20999999999998</ele>
        <time>2017-05-22T09:44:17Z</time>
      </trkpt>
      <trkpt lat="51.702593984082341" lon="11.130096036940813">
        <ele>372.17000000000002</ele>
        <time>2017-05-22T09:44:19Z</time>
      </trkpt>
      <trkpt lat="51.702437996864319" lon="11.130297034978867">
        <ele>373.13</ele>
        <time>2017-05-22T09:44:20Z</time>
      </trkpt>
      <trkpt lat="51.702257031574845" lon="11.13047800026834">
        <ele>374.08999999999997</ele>
        <time>2017-05-22T09:44:21Z</time>
      </trkpt>
      <trkpt lat="51.702069025486708" lon="11.130634993314743">
        <ele>374.56999999999999</ele>
        <time>2017-05-22T09:44:22Z</time>
      </trkpt>
      <trkpt lat="51.701853023841977" lon="11.130760973319411">
        <ele>375.52999999999997</ele>
        <time>2017-05-22T09:44:23Z</time>
      </trkpt>
      <trkpt lat="51.701628975570202" lon="11.130887037143111">
        <ele>376.49000000000001</ele>
        <time>2017-05-22T09:44:24Z</time>
      </trkpt>
      <trkpt lat="51.700321985408664" lon="11.131488019600511">
        <ele>376.97000000000003</ele>
        <time>2017-05-22T09:44:31Z</time>
      </trkpt>
      <trkpt lat="51.698930002748966" lon="11.132033010944724">
        <ele>378.89999999999998</ele>
        <time>2017-05-22T09:44:41Z</time>
      </trkpt>
      <trkpt lat="51.697972035035491" lon="11.132264016196132">
        <ele>378.89999999999998</ele>
        <time>2017-05-22T09:44:50Z</time>
      </trkpt>
      <trkpt lat="51.697769025340676" lon="11.132254963740706">
        <ele>378.89999999999998</ele>
        <time>2017-05-22T09:44:52Z</time>
      </trkpt>
      <trkpt lat="51.697665005922318" lon="11.132224034518003">
        <ele>378.89999999999998</ele>
        <time>2017-05-22T09:44:53Z</time>
      </trkpt>
      <trkpt lat="51.696881968528032" lon="11.131992023438215">
        <ele>382.74000000000001</ele>
        <time>2017-05-22T09:44:59Z</time>
      </trkpt>
      <trkpt lat="51.696730004623532" lon="11.132014989852905">
        <ele>383.22000000000003</ele>
        <time>2017-05-22T09:45:00Z</time>
      </trkpt>
      <trkpt lat="51.696572005748749" lon="11.132073998451233">
        <ele>383.69999999999999</ele>
        <time>2017-05-22T09:45:01Z</time>
      </trkpt>
      <trkpt lat="51.696413001045585" lon="11.132173994556069">
        <ele>384.66000000000003</ele>
        <time>2017-05-22T09:45:02Z</time>
      </trkpt>
      <trkpt lat="51.696249973028898" lon="11.132286982610822">
        <ele>385.14999999999998</ele>
        <time>2017-05-22T09:45:03Z</time>
      </trkpt>
      <trkpt lat="51.694416012614965" lon="11.133403033018112">
        <ele>394.27999999999997</ele>
        <time>2017-05-22T09:45:14Z</time>
      </trkpt>
      <trkpt lat="51.692899977788329" lon="11.134190009906888">
        <ele>399.07999999999998</ele>
        <time>2017-05-22T09:45:23Z</time>
      </trkpt>
      <trkpt lat="51.691514030098915" lon="11.134837009012699">
        <ele>402.93000000000001</ele>
        <time>2017-05-22T09:45:31Z</time>
      </trkpt>
      <trkpt lat="51.690575005486608" lon="11.135279992595315">
        <ele>403.41000000000003</ele>
        <time>2017-05-22T09:45:37Z</time>
      </trkpt>
      <trkpt lat="51.690475009381771" lon="11.135416030883789">
        <ele>403.88999999999999</ele>
        <time>2017-05-22T09:45:38Z</time>
      </trkpt>
      <trkpt lat="51.69038699939847" lon="11.135601019486785">
        <ele>403.88999999999999</ele>
        <time>2017-05-22T09:45:39Z</time>
      </trkpt>
      <trkpt lat="51.689617037773132" lon="11.1370940040797">
        <ele>409.18000000000001</ele>
        <time>2017-05-22T09:45:46Z</time>
      </trkpt>
      <trkpt lat="51.688606012612581" lon="11.138763008639216">
        <ele>414.47000000000003</ele>
        <time>2017-05-22T09:45:54Z</time>
      </trkpt>
      <trkpt lat="51.688234023749828" lon="11.139364996924996">
        <ele>416.38999999999999</ele>
        <time>2017-05-22T09:45:57Z</time>
      </trkpt>
      <trkpt lat="51.68725099414587" lon="11.140660000964999">
        <ele>418.31</ele>
        <time>2017-05-22T09:46:04Z</time>
      </trkpt>
      <trkpt lat="51.687083020806313" lon="11.140840966254473">
        <ele>417.82999999999998</ele>
        <time>2017-05-22T09:46:05Z</time>
      </trkpt>
      <trkpt lat="51.686958968639374" lon="11.140911038964987">
        <ele>418.31</ele>
        <time>2017-05-22T09:46:06Z</time>
      </trkpt>
      <trkpt lat="51.68682100251317" lon="11.140997959300876">
        <ele>417.82999999999998</ele>
        <time>2017-05-22T09:46:07Z</time>
      </trkpt>
      <trkpt lat="51.686675995588303" lon="11.141050010919571">
        <ele>417.82999999999998</ele>
        <time>2017-05-22T09:46:08Z</time>
      </trkpt>
      <trkpt lat="51.686507016420364" lon="11.141129974275827">
        <ele>417.35000000000002</ele>
        <time>2017-05-22T09:46:09Z</time>
      </trkpt>
      <trkpt lat="51.685134982690215" lon="11.141431974247098">
        <ele>409.66000000000003</ele>
        <time>2017-05-22T09:46:16Z</time>
      </trkpt>
      <trkpt lat="51.684756958857179" lon="11.141662979498506">
        <ele>404.85000000000002</ele>
        <time>2017-05-22T09:46:18Z</time>
      </trkpt>
      <trkpt lat="51.684569958597422" lon="11.141811003908515">
        <ele>402.44999999999999</ele>
        <time>2017-05-22T09:46:19Z</time>
      </trkpt>
      <trkpt lat="51.682919980958104" lon="11.143341036513448">
        <ele>389.94999999999999</ele>
        <time>2017-05-22T09:46:28Z</time>
      </trkpt>
      <trkpt lat="51.681947009637952" lon="11.144133964553475">
        <ele>385.63</ele>
        <time>2017-05-22T09:46:34Z</time>
      </trkpt>
      <trkpt lat="51.681763026863337" lon="11.144181992858648">
        <ele>385.14999999999998</ele>
        <time>2017-05-22T09:46:35Z</time>
      </trkpt>
      <trkpt lat="51.681570997461677" lon="11.144181992858648">
        <ele>384.66000000000003</ele>
        <time>2017-05-22T09:46:36Z</time>
      </trkpt>
      <trkpt lat="51.681376034393907" lon="11.14414201118052">
        <ele>384.66000000000003</ele>
        <time>2017-05-22T09:46:37Z</time>
      </trkpt>
      <trkpt lat="51.68118903413415" lon="11.144080990925431">
        <ele>385.14999999999998</ele>
        <time>2017-05-22T09:46:38Z</time>
      </trkpt>
      <trkpt lat="51.679618014022708" lon="11.143400967121124">
        <ele>380.81999999999999</ele>
        <time>2017-05-22T09:46:46Z</time>
      </trkpt>
      <trkpt lat="51.679447023198009" lon="11.143242968246341">
        <ele>380.33999999999997</ele>
        <time>2017-05-22T09:46:47Z</time>
      </trkpt>
      <trkpt lat="51.679291035979986" lon="11.143048005178571">
        <ele>379.86000000000001</ele>
        <time>2017-05-22T09:46:48Z</time>
      </trkpt>
      <trkpt lat="51.679149968549609" lon="11.142822029069066">
        <ele>378.89999999999998</ele>
        <time>2017-05-22T09:46:49Z</time>
      </trkpt>
      <trkpt lat="51.679027006030083" lon="11.142565961927176">
        <ele>376.00999999999999</ele>
        <time>2017-05-22T09:46:50Z</time>
      </trkpt>
      <trkpt lat="51.678918963298202" lon="11.142326993867755">
        <ele>374.56999999999999</ele>
        <time>2017-05-22T09:46:51Z</time>
      </trkpt>
      <trkpt lat="51.678821984678507" lon="11.142082996666431">
        <ele>374.08999999999997</ele>
        <time>2017-05-22T09:46:52Z</time>
      </trkpt>
      <trkpt lat="51.678745038807392" lon="11.141835981979966">
        <ele>373.61000000000001</ele>
        <time>2017-05-22T09:46:53Z</time>
      </trkpt>
      <trkpt lat="51.678688963875175" lon="11.141588967293501">
        <ele>373.13</ele>
        <time>2017-05-22T09:46:54Z</time>
      </trkpt>
      <trkpt lat="51.678661974146962" lon="11.141318986192346">
        <ele>372.64999999999998</ele>
        <time>2017-05-22T09:46:55Z</time>
      </trkpt>
      <trkpt lat="51.678657028824091" lon="11.141024027019739">
        <ele>371.69</ele>
        <time>2017-05-22T09:46:56Z</time>
      </trkpt>
      <trkpt lat="51.678649988025427" lon="11.140712974593043">
        <ele>370.73000000000002</ele>
        <time>2017-05-22T09:46:57Z</time>
      </trkpt>
      <trkpt lat="51.678573964163661" lon="11.139680994674563">
        <ele>363.51999999999998</ele>
        <time>2017-05-22T09:47:00Z</time>
      </trkpt>
      <trkpt lat="51.678507998585701" lon="11.139359967783093">
        <ele>361.58999999999997</ele>
        <time>2017-05-22T09:47:01Z</time>
      </trkpt>
      <trkpt lat="51.678423006087542" lon="11.139041958376765">
        <ele>360.14999999999998</ele>
        <time>2017-05-22T09:47:02Z</time>
      </trkpt>
      <trkpt lat="51.678328961133957" lon="11.138755967840552">
        <ele>358.23000000000002</ele>
        <time>2017-05-22T09:47:03Z</time>
      </trkpt>
      <trkpt lat="51.678239023312926" lon="11.138514988124371">
        <ele>356.79000000000002</ele>
        <time>2017-05-22T09:47:04Z</time>
      </trkpt>
      <trkpt lat="51.677978010848165" lon="11.137870000675321">
        <ele>354.38</ele>
        <time>2017-05-22T09:47:08Z</time>
      </trkpt>
      <trkpt lat="51.677855970337987" lon="11.137575963512063">
        <ele>351.98000000000002</ele>
        <time>2017-05-22T09:47:14Z</time>
      </trkpt>
      <trkpt lat="51.677886983379722" lon="11.137505974620581">
        <ele>352.45999999999998</ele>
        <time>2017-05-22T09:47:26Z</time>
      </trkpt>
      <trkpt lat="51.67788396589458" lon="11.137501029297709">
        <ele>352.94</ele>
        <time>2017-05-22T09:48:08Z</time>
      </trkpt>
      <trkpt lat="51.67788396589458" lon="11.137509997934103">
        <ele>352.45999999999998</ele>
        <time>2017-05-22T09:50:01Z</time>
      </trkpt>
      <trkpt lat="51.677877008914948" lon="11.137515027076006">
        <ele>351.5</ele>
        <time>2017-05-22T09:51:25Z</time>
      </trkpt>
      <trkpt lat="51.677859993651509" lon="11.137513015419245">
        <ele>351.01999999999998</ele>
        <time>2017-05-22T09:51:30Z</time>
      </trkpt>
      <trkpt lat="51.677730996161699" lon="11.137341018766165">
        <ele>350.06</ele>
        <time>2017-05-22T09:51:33Z</time>
      </trkpt>
      <trkpt lat="51.677231015637517" lon="11.136666024103761">
        <ele>345.25</ele>
        <time>2017-05-22T09:51:39Z</time>
      </trkpt>
      <trkpt lat="51.677033035084605" lon="11.136402999982238">
        <ele>343.81</ele>
        <time>2017-05-22T09:51:41Z</time>
      </trkpt>
      <trkpt lat="51.676936978474259" lon="11.136252041906118">
        <ele>342.85000000000002</ele>
        <time>2017-05-22T09:51:42Z</time>
      </trkpt>
      <trkpt lat="51.676398022100329" lon="11.135298013687134">
        <ele>338.51999999999998</ele>
        <time>2017-05-22T09:51:47Z</time>
      </trkpt>
      <trkpt lat="51.676246980205178" lon="11.135134985670447">
        <ele>338.04000000000002</ele>
        <time>2017-05-22T09:51:48Z</time>
      </trkpt>
      <trkpt lat="51.676086969673634" lon="11.13499098457396">
        <ele>337.56</ele>
        <time>2017-05-22T09:51:49Z</time>
      </trkpt>
      <trkpt lat="51.675170995295048" lon="11.134427972137928">
        <ele>335.16000000000003</ele>
        <time>2017-05-22T09:51:54Z</time>
      </trkpt>
      <trkpt lat="51.674986006692052" lon="11.134384972974658">
        <ele>334.19999999999999</ele>
        <time>2017-05-22T09:51:55Z</time>
      </trkpt>
      <trkpt lat="51.674793977290392" lon="11.134379021823406">
        <ele>333.23000000000002</ele>
        <time>2017-05-22T09:51:56Z</time>
      </trkpt>
      <trkpt lat="51.674416959285736" lon="11.134417997673154">
        <ele>329.87</ele>
        <time>2017-05-22T09:51:58Z</time>
      </trkpt>
      <trkpt lat="51.674227025359869" lon="11.13447499461472">
        <ele>329.38999999999999</ele>
        <time>2017-05-22T09:51:59Z</time>
      </trkpt>
      <trkpt lat="51.673211976885796" lon="11.1348179820925">
        <ele>326.01999999999998</ele>
        <time>2017-05-22T09:52:05Z</time>
      </trkpt>
      <trkpt lat="51.672721970826387" lon="11.134831979870796">
        <ele>323.62</ele>
        <time>2017-05-22T09:52:08Z</time>
      </trkpt>
      <trkpt lat="51.672569001093507" lon="11.134769031777978">
        <ele>323.13999999999999</ele>
        <time>2017-05-22T09:52:09Z</time>
      </trkpt>
      <trkpt lat="51.672411002218723" lon="11.134678004309535">
        <ele>322.18000000000001</ele>
        <time>2017-05-22T09:52:10Z</time>
      </trkpt>
      <trkpt lat="51.672259038314223" lon="11.134542971849442">
        <ele>321.22000000000003</ele>
        <time>2017-05-22T09:52:11Z</time>
      </trkpt>
      <trkpt lat="51.672109002247453" lon="11.134396959096193">
        <ele>319.77999999999997</ele>
        <time>2017-05-22T09:52:12Z</time>
      </trkpt>
      <trkpt lat="51.671748999506235" lon="11.134084984660149">
        <ele>320.74000000000001</ele>
        <time>2017-05-22T09:52:14Z</time>
      </trkpt>
      <trkpt lat="51.671584965661168" lon="11.134028993546963">
        <ele>319.77999999999997</ele>
        <time>2017-05-22T09:52:15Z</time>
      </trkpt>
      <trkpt lat="51.671411041170359" lon="11.133953975513577">
        <ele>319.30000000000001</ele>
        <time>2017-05-22T09:52:16Z</time>
      </trkpt>
      <trkpt lat="51.671232003718615" lon="11.133912988007069">
        <ele>318.32999999999998</ele>
        <time>2017-05-22T09:52:17Z</time>
      </trkpt>
      <trkpt lat="51.671055983752012" lon="11.133904019370675">
        <ele>316.88999999999999</ele>
        <time>2017-05-22T09:52:18Z</time>
      </trkpt>
      <trkpt lat="51.670379983261228" lon="11.133754989132285">
        <ele>310.63999999999999</ele>
        <time>2017-05-22T09:52:23Z</time>
      </trkpt>
      <trkpt lat="51.670247968286276" lon="11.133681982755661">
        <ele>309.19999999999999</ele>
        <time>2017-05-22T09:52:24Z</time>
      </trkpt>
      <trkpt lat="51.670113019645214" lon="11.133567988872528">
        <ele>307.75999999999999</ele>
        <time>2017-05-22T09:52:25Z</time>
      </trkpt>
      <trkpt lat="51.669672969728708" lon="11.133018974214792">
        <ele>301.02999999999997</ele>
        <time>2017-05-22T09:52:29Z</time>
      </trkpt>
      <trkpt lat="51.669599963352084" lon="11.132849995046854">
        <ele>299.58999999999997</ele>
        <time>2017-05-22T09:52:30Z</time>
      </trkpt>
      <trkpt lat="51.669555958360434" lon="11.132644973695278">
        <ele>297.18000000000001</ele>
        <time>2017-05-22T09:52:31Z</time>
      </trkpt>
      <trkpt lat="51.669517988339067" lon="11.132452022284269">
        <ele>296.22000000000003</ele>
        <time>2017-05-22T09:52:32Z</time>
      </trkpt>
      <trkpt lat="51.669489992782474" lon="11.132253035902977">
        <ele>294.77999999999997</ele>
        <time>2017-05-22T09:52:33Z</time>
      </trkpt>
      <trkpt lat="51.669325958937407" lon="11.130989966914058">
        <ele>290.45999999999998</ele>
        <time>2017-05-22T09:52:40Z</time>
      </trkpt>
      <trkpt lat="51.669271979480982" lon="11.130834985524416">
        <ele>291.89999999999998</ele>
        <time>2017-05-22T09:52:41Z</time>
      </trkpt>
      <trkpt lat="51.669211965054274" lon="11.130696013569832">
        <ele>291.89999999999998</ele>
        <time>2017-05-22T09:52:42Z</time>
      </trkpt>
      <trkpt lat="51.668425993993878" lon="11.129305036738515">
        <ele>291.42000000000002</ele>
        <time>2017-05-22T09:52:51Z</time>
      </trkpt>
      <trkpt lat="51.668288027867675" lon="11.129171010106802">
        <ele>290.94</ele>
        <time>2017-05-22T09:52:52Z</time>
      </trkpt>
      <trkpt lat="51.668142015114427" lon="11.129057016223669">
        <ele>289.97000000000003</ele>
        <time>2017-05-22T09:52:53Z</time>
      </trkpt>
      <trkpt lat="51.66797898709774" lon="11.129014017060399">
        <ele>288.05000000000001</ele>
        <time>2017-05-22T09:52:54Z</time>
      </trkpt>
      <trkpt lat="51.667813025414944" lon="11.129018040373921">
        <ele>287.08999999999997</ele>
        <time>2017-05-22T09:52:55Z</time>
      </trkpt>
      <trkpt lat="51.667646979913116" lon="11.129033965989947">
        <ele>285.64999999999998</ele>
        <time>2017-05-22T09:52:56Z</time>
      </trkpt>
      <trkpt lat="51.667479006573558" lon="11.129090962931514">
        <ele>284.69</ele>
        <time>2017-05-22T09:52:57Z</time>
      </trkpt>
      <trkpt lat="51.667315978556871" lon="11.129178972914815">
        <ele>283.25</ele>
        <time>2017-05-22T09:52:58Z</time>
      </trkpt>
      <trkpt lat="51.667158985510468" lon="11.129297995939851">
        <ele>282.27999999999997</ele>
        <time>2017-05-22T09:52:59Z</time>
      </trkpt>
      <trkpt lat="51.667021019384265" lon="11.129466975107789">
        <ele>281.31999999999999</ele>
        <time>2017-05-22T09:53:00Z</time>
      </trkpt>
      <trkpt lat="51.666892021894455" lon="11.129677025601268">
        <ele>280.83999999999997</ele>
        <time>2017-05-22T09:53:01Z</time>
      </trkpt>
      <trkpt lat="51.666766041889787" lon="11.129887998104095">
        <ele>279.88</ele>
        <time>2017-05-22T09:53:02Z</time>
      </trkpt>
      <trkpt lat="51.666568983346224" lon="11.130321007221937">
        <ele>278.44</ele>
        <time>2017-05-22T09:53:04Z</time>
      </trkpt>
      <trkpt lat="51.666487008333206" lon="11.130570033565164">
        <ele>278.44</ele>
        <time>2017-05-22T09:53:05Z</time>
      </trkpt>
      <trkpt lat="51.666423976421356" lon="11.130789974704385">
        <ele>277.48000000000002</ele>
        <time>2017-05-22T09:53:06Z</time>
      </trkpt>
      <trkpt lat="51.666352981701493" lon="11.13101402297616">
        <ele>277</ele>
        <time>2017-05-22T09:53:07Z</time>
      </trkpt>
      <trkpt lat="51.666282992810011" lon="11.131221977993846">
        <ele>276.51999999999998</ele>
        <time>2017-05-22T09:53:08Z</time>
      </trkpt>
      <trkpt lat="51.666205041110516" lon="11.131414007395506">
        <ele>275.56</ele>
        <time>2017-05-22T09:53:09Z</time>
      </trkpt>
      <trkpt lat="51.666118036955595" lon="11.131603019312024">
        <ele>275.06999999999999</ele>
        <time>2017-05-22T09:53:10Z</time>
      </trkpt>
      <trkpt lat="51.665921984240413" lon="11.131947012618184">
        <ele>273.63</ele>
        <time>2017-05-22T09:53:12Z</time>
      </trkpt>
      <trkpt lat="51.665790975093842" lon="11.132071986794472">
        <ele>272.67000000000002</ele>
        <time>2017-05-22T09:53:13Z</time>
      </trkpt>
      <trkpt lat="51.66570003144443" lon="11.132092019543052">
        <ele>272.19</ele>
        <time>2017-05-22T09:53:14Z</time>
      </trkpt>
      <trkpt lat="51.665574973449111" lon="11.132090007886291">
        <ele>272.19</ele>
        <time>2017-05-22T09:53:15Z</time>
      </trkpt>
      <trkpt lat="51.665455028414726" lon="11.132043991237879">
        <ele>271.70999999999998</ele>
        <time>2017-05-22T09:53:16Z</time>
      </trkpt>
      <trkpt lat="51.66535503230989" lon="11.131822038441896">
        <ele>271.70999999999998</ele>
        <time>2017-05-22T09:53:17Z</time>
      </trkpt>
      <trkpt lat="51.665240032598376" lon="11.131627997383475">
        <ele>271.23000000000002</ele>
        <time>2017-05-22T09:53:18Z</time>
      </trkpt>
      <trkpt lat="51.665126960724592" lon="11.131438985466957">
        <ele>270.75</ele>
        <time>2017-05-22T09:53:19Z</time>
      </trkpt>
      <trkpt lat="51.665012966841459" lon="11.131214015185833">
        <ele>270.26999999999998</ele>
        <time>2017-05-22T09:53:20Z</time>
      </trkpt>
      <trkpt lat="51.66490601375699" lon="11.13097102381289">
        <ele>269.79000000000002</ele>
        <time>2017-05-22T09:53:21Z</time>
      </trkpt>
      <trkpt lat="51.664503011852503" lon="11.130053959786892">
        <ele>272.67000000000002</ele>
        <time>2017-05-22T09:53:25Z</time>
      </trkpt>
      <trkpt lat="51.664435034617782" lon="11.129800993949175">
        <ele>274.11000000000001</ele>
        <time>2017-05-22T09:53:26Z</time>
      </trkpt>
      <trkpt lat="51.664366973564029" lon="11.129564037546515">
        <ele>275.06999999999999</ele>
        <time>2017-05-22T09:53:27Z</time>
      </trkpt>
      <trkpt lat="51.664311988279223" lon="11.129301013424993">
        <ele>276.04000000000002</ele>
        <time>2017-05-22T09:53:28Z</time>
      </trkpt>
      <trkpt lat="51.664253985509276" lon="11.129036983475089">
        <ele>276.51999999999998</ele>
        <time>2017-05-22T09:53:29Z</time>
      </trkpt>
      <trkpt lat="51.664163041859865" lon="11.128284959122539">
        <ele>277</ele>
        <time>2017-05-22T09:53:32Z</time>
      </trkpt>
      <trkpt lat="51.664163963869214" lon="11.128035010769963">
        <ele>276.51999999999998</ele>
        <time>2017-05-22T09:53:33Z</time>
      </trkpt>
      <trkpt lat="51.664111996069551" lon="11.126700025051832">
        <ele>276.04000000000002</ele>
        <time>2017-05-22T09:53:39Z</time>
      </trkpt>
      <trkpt lat="51.664059022441506" lon="11.12650497816503">
        <ele>276.04000000000002</ele>
        <time>2017-05-22T09:53:40Z</time>
      </trkpt>
      <trkpt lat="51.663978975266218" lon="11.12631001509726">
        <ele>275.56</ele>
        <time>2017-05-22T09:53:41Z</time>
      </trkpt>
      <trkpt lat="51.663889037445188" lon="11.126127960160375">
        <ele>276.04000000000002</ele>
        <time>2017-05-22T09:53:42Z</time>
      </trkpt>
      <trkpt lat="51.663751993328333" lon="11.125977002084255">
        <ele>276.04000000000002</ele>
        <time>2017-05-22T09:53:43Z</time>
      </trkpt>
      <trkpt lat="51.663603968918324" lon="11.125829983502626">
        <ele>275.56</ele>
        <time>2017-05-22T09:53:44Z</time>
      </trkpt>
      <trkpt lat="51.662268983200192" lon="11.124546965584159">
        <ele>277</ele>
        <time>2017-05-22T09:53:52Z</time>
      </trkpt>
      <trkpt lat="51.662106961011887" lon="11.124288970604539">
        <ele>279.88</ele>
        <time>2017-05-22T09:53:53Z</time>
      </trkpt>
      <trkpt lat="51.661952985450625" lon="11.124071963131428">
        <ele>281.31999999999999</ele>
        <time>2017-05-22T09:53:54Z</time>
      </trkpt>
      <trkpt lat="51.660864008590579" lon="11.122240014374256">
        <ele>288.05000000000001</ele>
        <time>2017-05-22T09:54:02Z</time>
      </trkpt>
      <trkpt lat="51.660265037789941" lon="11.121236030012369">
        <ele>287.56999999999999</ele>
        <time>2017-05-22T09:54:07Z</time>
      </trkpt>
      <trkpt lat="51.660106033086777" lon="11.121114995330572">
        <ele>287.08999999999997</ele>
        <time>2017-05-22T09:54:08Z</time>
      </trkpt>
      <trkpt lat="51.659928001463413" lon="11.121077025309205">
        <ele>287.08999999999997</ele>
        <time>2017-05-22T09:54:09Z</time>
      </trkpt>
      <trkpt lat="51.659762961789966" lon="11.121060010045767">
        <ele>287.08999999999997</ele>
        <time>2017-05-22T09:54:10Z</time>
      </trkpt>
      <trkpt lat="51.65959800593555" lon="11.121080964803696">
        <ele>286.61000000000001</ele>
        <time>2017-05-22T09:54:11Z</time>
      </trkpt>
      <trkpt lat="51.659460039809346" lon="11.121146008372307">
        <ele>286.13</ele>
        <time>2017-05-22T09:54:12Z</time>
      </trkpt>
      <trkpt lat="51.659329030662775" lon="11.121229995042086">
        <ele>285.64999999999998</ele>
        <time>2017-05-22T09:54:13Z</time>
      </trkpt>
      <trkpt lat="51.659282008185983" lon="11.121507016941905">
        <ele>285.17000000000002</ele>
        <time>2017-05-22T09:54:14Z</time>
      </trkpt>
      <trkpt lat="51.659349985420704" lon="11.121632996946573">
        <ele>284.69</ele>
        <time>2017-05-22T09:54:15Z</time>
      </trkpt>
      <trkpt lat="51.659379992634058" lon="11.121824020519853">
        <ele>284.69</ele>
        <time>2017-05-22T09:54:16Z</time>
      </trkpt>
      <trkpt lat="51.659435983747244" lon="11.122006997466087">
        <ele>285.17000000000002</ele>
        <time>2017-05-22T09:54:17Z</time>
      </trkpt>
      <trkpt lat="51.659503038972616" lon="11.122191986069083">
        <ele>285.17000000000002</ele>
        <time>2017-05-22T09:54:18Z</time>
      </trkpt>
      <trkpt lat="51.65957897901535" lon="11.122386027127504">
        <ele>285.17000000000002</ele>
        <time>2017-05-22T09:54:19Z</time>
      </trkpt>
      <trkpt lat="51.65996303781867" lon="11.123183984309435">
        <ele>284.69</ele>
        <time>2017-05-22T09:54:23Z</time>
      </trkpt>
      <trkpt lat="51.660044007003307" lon="11.123415995389223">
        <ele>284.69</ele>
        <time>2017-05-22T09:54:24Z</time>
      </trkpt>
      <trkpt lat="51.660249028354883" lon="11.124232979491353">
        <ele>285.17000000000002</ele>
        <time>2017-05-22T09:54:28Z</time>
      </trkpt>
      <trkpt lat="51.660280963405967" lon="11.124341022223234">
        <ele>285.64999999999998</ele>
        <time>2017-05-22T09:54:29Z</time>
      </trkpt>
      <trkpt lat="51.660491013899446" lon="11.124753998592496">
        <ele>287.56999999999999</ele>
        <time>2017-05-22T09:54:34Z</time>
      </trkpt>
      <trkpt lat="51.660031015053391" lon="11.124690966680646">
        <ele>288.05000000000001</ele>
        <time>2017-05-22T09:54:35Z</time>
      </trkpt>
      <trkpt lat="51.65974996984005" lon="11.124576972797513">
        <ele>289.00999999999999</ele>
        <time>2017-05-22T09:54:36Z</time>
      </trkpt>
      <trkpt lat="51.659279996529222" lon="11.124513018876314">
        <ele>289.49000000000001</ele>
        <time>2017-05-22T09:54:37Z</time>
      </trkpt>
      <trkpt lat="51.65852696634829" lon="11.124234991148114">
        <ele>287.56999999999999</ele>
        <time>2017-05-22T09:54:39Z</time>
      </trkpt>
      <trkpt lat="51.65833200328052" lon="11.124271033331752">
        <ele>286.61000000000001</ele>
        <time>2017-05-22T09:54:40Z</time>
      </trkpt>
      <trkpt lat="51.658189008012414" lon="11.124345967546105">
        <ele>286.13</ele>
        <time>2017-05-22T09:54:41Z</time>
      </trkpt>
      <trkpt lat="51.658046012744308" lon="11.124475970864296">
        <ele>285.17000000000002</ele>
        <time>2017-05-22T09:54:42Z</time>
      </trkpt>
      <trkpt lat="51.657921960577369" lon="11.124678980559111">
        <ele>285.17000000000002</ele>
        <time>2017-05-22T09:54:43Z</time>
      </trkpt>
      <trkpt lat="51.657809978350997" lon="11.124829016625881">
        <ele>284.69</ele>
        <time>2017-05-22T09:54:44Z</time>
      </trkpt>
      <trkpt lat="51.657692966982722" lon="11.125072007998824">
        <ele>284.69</ele>
        <time>2017-05-22T09:54:45Z</time>
      </trkpt>
      <trkpt lat="51.657215030863881" lon="11.126506989821792">
        <ele>283.73000000000002</ele>
        <time>2017-05-22T09:54:51Z</time>
      </trkpt>
      <trkpt lat="51.657118974253535" lon="11.12658997066319">
        <ele>283.73000000000002</ele>
        <time>2017-05-22T09:54:52Z</time>
      </trkpt>
      <trkpt lat="51.656973967328668" lon="11.12667596898973">
        <ele>284.69</ele>
        <time>2017-05-22T09:54:53Z</time>
      </trkpt>
      <trkpt lat="51.656854022294283" lon="11.126683009788394">
        <ele>285.17000000000002</ele>
        <time>2017-05-22T09:54:54Z</time>
      </trkpt>
      <trkpt lat="51.656725024804473" lon="11.126688038930297">
        <ele>285.64999999999998</ele>
        <time>2017-05-22T09:54:55Z</time>
      </trkpt>
      <trkpt lat="51.656598038971424" lon="11.126650990918279">
        <ele>286.13</ele>
        <time>2017-05-22T09:54:56Z</time>
      </trkpt>
      <trkpt lat="51.656460994854569" lon="11.126574967056513">
        <ele>286.13</ele>
        <time>2017-05-22T09:54:57Z</time>
      </trkpt>
      <trkpt lat="51.656337026506662" lon="11.126453010365367">
        <ele>286.13</ele>
        <time>2017-05-22T09:54:58Z</time>
      </trkpt>
      <trkpt lat="51.656208029016852" lon="11.126292999833822">
        <ele>286.13</ele>
        <time>2017-05-22T09:54:59Z</time>
      </trkpt>
      <trkpt lat="51.656080037355423" lon="11.126093007624149">
        <ele>286.61000000000001</ele>
        <time>2017-05-22T09:55:00Z</time>
      </trkpt>
      <trkpt lat="51.655952967703342" lon="11.125887986272573">
        <ele>287.08999999999997</ele>
        <time>2017-05-22T09:55:01Z</time>
      </trkpt>
      <trkpt lat="51.655823970213532" lon="11.125690005719662">
        <ele>287.08999999999997</ele>
        <time>2017-05-22T09:55:02Z</time>
      </trkpt>
      <trkpt lat="51.655707964673638" lon="11.125414995476604">
        <ele>288.05000000000001</ele>
        <time>2017-05-22T09:55:03Z</time>
      </trkpt>
      <trkpt lat="51.654970021918416" lon="11.123527977615595">
        <ele>293.81999999999999</ele>
        <time>2017-05-22T09:55:10Z</time>
      </trkpt>
      <trkpt lat="51.654929034411907" lon="11.123223965987563">
        <ele>295.25999999999999</ele>
        <time>2017-05-22T09:55:11Z</time>
      </trkpt>
      <trkpt lat="51.654794001951814" lon="11.121717989444733">
        <ele>300.55000000000001</ele>
        <time>2017-05-22T09:55:16Z</time>
      </trkpt>
      <trkpt lat="51.654788972809911" lon="11.120818024501204">
        <ele>303.43000000000001</ele>
        <time>2017-05-22T09:55:19Z</time>
      </trkpt>
      <trkpt lat="51.654798025265336" lon="11.120531028136611">
        <ele>303.91000000000003</ele>
        <time>2017-05-22T09:55:20Z</time>
      </trkpt>
      <trkpt lat="51.655112011358142" lon="11.118718022480607">
        <ele>306.31999999999999</ele>
        <time>2017-05-22T09:55:27Z</time>
      </trkpt>
      <trkpt lat="51.655106982216239" lon="11.117720995098352">
        <ele>307.27999999999997</ele>
        <time>2017-05-22T09:55:32Z</time>
      </trkpt>
      <trkpt lat="51.655058031901717" lon="11.117514967918396">
        <ele>306.80000000000001</ele>
        <time>2017-05-22T09:55:33Z</time>
      </trkpt>
      <trkpt lat="51.654988965019584" lon="11.117327967658639">
        <ele>306.31999999999999</ele>
        <time>2017-05-22T09:55:34Z</time>
      </trkpt>
      <trkpt lat="51.654795007780194" lon="11.117038037627935">
        <ele>306.80000000000001</ele>
        <time>2017-05-22T09:55:36Z</time>
      </trkpt>
      <trkpt lat="51.654667016118765" lon="11.116955978795886">
        <ele>306.80000000000001</ele>
        <time>2017-05-22T09:55:37Z</time>
      </trkpt>
      <trkpt lat="51.654532989487052" lon="11.116894958540797">
        <ele>307.27999999999997</ele>
        <time>2017-05-22T09:55:38Z</time>
      </trkpt>
      <trkpt lat="51.654383959248662" lon="11.116885989904404">
        <ele>307.27999999999997</ele>
        <time>2017-05-22T09:55:39Z</time>
      </trkpt>
      <trkpt lat="51.654238030314445" lon="11.116890013217926">
        <ele>307.75999999999999</ele>
        <time>2017-05-22T09:55:40Z</time>
      </trkpt>
      <trkpt lat="51.654086988419294" lon="11.116921026259661">
        <ele>307.75999999999999</ele>
        <time>2017-05-22T09:55:41Z</time>
      </trkpt>
      <trkpt lat="51.653939969837666" lon="11.116961007937789">
        <ele>308.24000000000001</ele>
        <time>2017-05-22T09:55:42Z</time>
      </trkpt>
      <trkpt lat="51.652361992746592" lon="11.117119006812572">
        <ele>311.60000000000002</ele>
        <time>2017-05-22T09:55:53Z</time>
      </trkpt>
      <trkpt lat="51.651807026937604" lon="11.117065027356148">
        <ele>312.08999999999997</ele>
        <time>2017-05-22T09:55:57Z</time>
      </trkpt>
      <trkpt lat="51.651666965335608" lon="11.117108026519418">
        <ele>312.08999999999997</ele>
        <time>2017-05-22T09:55:58Z</time>
      </trkpt>
      <trkpt lat="51.651526987552643" lon="11.117198970168829">
        <ele>312.08999999999997</ele>
        <time>2017-05-22T09:55:59Z</time>
      </trkpt>
      <trkpt lat="51.650462988764048" lon="11.118111005052924">
        <ele>317.37</ele>
        <time>2017-05-22T09:56:07Z</time>
      </trkpt>
      <trkpt lat="51.650323010981083" lon="11.118191974237561">
        <ele>317.85000000000002</ele>
        <time>2017-05-22T09:56:08Z</time>
      </trkpt>
      <trkpt lat="51.650174986571074" lon="11.118249977007508">
        <ele>318.81</ele>
        <time>2017-05-22T09:56:09Z</time>
      </trkpt>
      <trkpt lat="51.65003702044487" lon="11.118275038897991">
        <ele>319.30000000000001</ele>
        <time>2017-05-22T09:56:10Z</time>
      </trkpt>
      <trkpt lat="51.649907017126679" lon="11.118275038897991">
        <ele>320.25999999999999</ele>
        <time>2017-05-22T09:56:11Z</time>
      </trkpt>
      <trkpt lat="51.649788999930024" lon="11.118213012814522">
        <ele>320.74000000000001</ele>
        <time>2017-05-22T09:56:12Z</time>
      </trkpt>
      <trkpt lat="51.649683974683285" lon="11.11812399700284">
        <ele>321.69999999999999</ele>
        <time>2017-05-22T09:56:13Z</time>
      </trkpt>
      <trkpt lat="51.649581966921687" lon="11.118018971756101">
        <ele>322.18000000000001</ele>
        <time>2017-05-22T09:56:14Z</time>
      </trkpt>
      <trkpt lat="51.649485994130373" lon="11.117882011458278">
        <ele>321.69999999999999</ele>
        <time>2017-05-22T09:56:15Z</time>
      </trkpt>
      <trkpt lat="51.649396978318691" lon="11.117740022018552">
        <ele>321.22000000000003</ele>
        <time>2017-05-22T09:56:16Z</time>
      </trkpt>
      <trkpt lat="51.649102019146085" lon="11.117118000984192">
        <ele>321.22000000000003</ele>
        <time>2017-05-22T09:56:20Z</time>
      </trkpt>
      <trkpt lat="51.648574965074658" lon="11.115799024701118">
        <ele>319.30000000000001</ele>
        <time>2017-05-22T09:56:30Z</time>
      </trkpt>
      <trkpt lat="51.647575004026294" lon="11.113429041579366">
        <ele>321.69999999999999</ele>
        <time>2017-05-22T09:56:45Z</time>
      </trkpt>
      <trkpt lat="51.647498980164528" lon="11.113284034654498">
        <ele>320.25999999999999</ele>
        <time>2017-05-22T09:56:46Z</time>
      </trkpt>
      <trkpt lat="51.647408958524466" lon="11.11316098831594">
        <ele>319.77999999999997</ele>
        <time>2017-05-22T09:56:47Z</time>
      </trkpt>
      <trkpt lat="51.647299993783236" lon="11.11307599581778">
        <ele>320.25999999999999</ele>
        <time>2017-05-22T09:56:48Z</time>
      </trkpt>
      <trkpt lat="51.647182982414961" lon="11.113014975562692">
        <ele>320.25999999999999</ele>
        <time>2017-05-22T09:56:49Z</time>
      </trkpt>
      <trkpt lat="51.647060019895434" lon="11.112956972792745">
        <ele>320.74000000000001</ele>
        <time>2017-05-22T09:56:50Z</time>
      </trkpt>
      <trkpt lat="51.646928004920483" lon="11.112920008599758">
        <ele>321.22000000000003</ele>
        <time>2017-05-22T09:56:51Z</time>
      </trkpt>
      <trkpt lat="51.646799007430673" lon="11.112888995558023">
        <ele>321.69999999999999</ele>
        <time>2017-05-22T09:56:52Z</time>
      </trkpt>
      <trkpt lat="51.645917985588312" lon="11.112629994750023">
        <ele>322.18000000000001</ele>
        <time>2017-05-22T09:56:59Z</time>
      </trkpt>
      <trkpt lat="51.64580499753356" lon="11.112552965059876">
        <ele>322.66000000000003</ele>
        <time>2017-05-22T09:57:00Z</time>
      </trkpt>
      <trkpt lat="51.645695026963949" lon="11.112444000318646">
        <ele>323.13999999999999</ele>
        <time>2017-05-22T09:57:01Z</time>
      </trkpt>
      <trkpt lat="51.645597964525223" lon="11.112311985343695">
        <ele>324.10000000000002</ele>
        <time>2017-05-22T09:57:02Z</time>
      </trkpt>
      <trkpt lat="51.645509032532573" lon="11.112150968983769">
        <ele>324.10000000000002</ele>
        <time>2017-05-22T09:57:03Z</time>
      </trkpt>
      <trkpt lat="51.645424962043762" lon="11.111988024786115">
        <ele>324.10000000000002</ele>
        <time>2017-05-22T09:57:04Z</time>
      </trkpt>
      <trkpt lat="51.645351033657789" lon="11.111808987334371">
        <ele>324.57999999999998</ele>
        <time>2017-05-22T09:57:05Z</time>
      </trkpt>
      <trkpt lat="51.645281966775656" lon="11.111622992902994">
        <ele>324.10000000000002</ele>
        <time>2017-05-22T09:57:06Z</time>
      </trkpt>
      <trkpt lat="51.644659023731947" lon="11.109604965895414">
        <ele>323.62</ele>
        <time>2017-05-22T09:57:17Z</time>
      </trkpt>
      <trkpt lat="51.644588029012084" lon="11.109279999509454">
        <ele>323.62</ele>
        <time>2017-05-22T09:57:19Z</time>
      </trkpt>
      <trkpt lat="51.644575959071517" lon="11.108962995931506">
        <ele>324.10000000000002</ele>
        <time>2017-05-22T09:57:21Z</time>
      </trkpt>
      <trkpt lat="51.644548969343305" lon="11.108611961826682">
        <ele>323.13999999999999</ele>
        <time>2017-05-22T09:57:24Z</time>
      </trkpt>
      <trkpt lat="51.644441010430455" lon="11.108493022620678">
        <ele>323.13999999999999</ele>
        <time>2017-05-22T09:57:29Z</time>
      </trkpt>
      <trkpt lat="51.644394993782043" lon="11.108513977378607">
        <ele>323.13999999999999</ele>
        <time>2017-05-22T09:57:30Z</time>
      </trkpt>
      <trkpt lat="51.644341014325619" lon="11.108570974320173">
        <ele>323.13999999999999</ele>
        <time>2017-05-22T09:57:31Z</time>
      </trkpt>
      <trkpt lat="51.644142027944326" lon="11.108728973194957">
        <ele>323.13999999999999</ele>
        <time>2017-05-22T09:57:34Z</time>
      </trkpt>
      <trkpt lat="51.644068015739322" lon="11.108759986236691">
        <ele>323.13999999999999</ele>
        <time>2017-05-22T09:57:35Z</time>
      </trkpt>
      <trkpt lat="51.643987968564034" lon="11.108760992065072">
        <ele>323.62</ele>
        <time>2017-05-22T09:57:36Z</time>
      </trkpt>
      <trkpt lat="51.643895013257861" lon="11.10873500816524">
        <ele>323.62</ele>
        <time>2017-05-22T09:57:37Z</time>
      </trkpt>
      <trkpt lat="51.643799962475896" lon="11.108669964596629">
        <ele>323.62</ele>
        <time>2017-05-22T09:57:38Z</time>
      </trkpt>
      <trkpt lat="51.643709018826485" lon="11.108572985976934">
        <ele>323.62</ele>
        <time>2017-05-22T09:57:39Z</time>
      </trkpt>
      <trkpt lat="51.643620003014803" lon="11.108439965173602">
        <ele>324.10000000000002</ele>
        <time>2017-05-22T09:57:40Z</time>
      </trkpt>
      <trkpt lat="51.643522018566728" lon="11.108290012925863">
        <ele>324.10000000000002</ele>
        <time>2017-05-22T09:57:41Z</time>
      </trkpt>
      <trkpt lat="51.642396999523044" lon="11.10665000975132">
        <ele>328.91000000000003</ele>
        <time>2017-05-22T09:57:50Z</time>
      </trkpt>
      <trkpt lat="51.640720032155514" lon="11.104969019070268">
        <ele>326.99000000000001</ele>
        <time>2017-05-22T09:58:00Z</time>
      </trkpt>
      <trkpt lat="51.640514004975557" lon="11.104853013530374">
        <ele>327.47000000000003</ele>
        <time>2017-05-22T09:58:01Z</time>
      </trkpt>
      <trkpt lat="51.638282993808389" lon="11.103886999189854">
        <ele>328.43000000000001</ele>
        <time>2017-05-22T09:58:11Z</time>
      </trkpt>
      <trkpt lat="51.637730961665511" lon="11.103623975068331">
        <ele>328.91000000000003</ele>
        <time>2017-05-22T09:58:14Z</time>
      </trkpt>
      <trkpt lat="51.637578997761011" lon="11.103488020598888">
        <ele>329.38999999999999</ele>
        <time>2017-05-22T09:58:15Z</time>
      </trkpt>
      <trkpt lat="51.637439019978046" lon="11.103308983147144">
        <ele>329.87</ele>
        <time>2017-05-22T09:58:16Z</time>
      </trkpt>
      <trkpt lat="51.636741980910301" lon="11.101855980232358">
        <ele>329.87</ele>
        <time>2017-05-22T09:58:22Z</time>
      </trkpt>
      <trkpt lat="51.63669403642416" lon="11.101520033553243">
        <ele>329.38999999999999</ele>
        <time>2017-05-22T09:58:23Z</time>
      </trkpt>
      <trkpt lat="51.636650031432509" lon="11.101179979741573">
        <ele>328.91000000000003</ele>
        <time>2017-05-22T09:58:24Z</time>
      </trkpt>
      <trkpt lat="51.636619018390775" lon="11.10009997151792">
        <ele>328.91000000000003</ele>
        <time>2017-05-22T09:58:27Z</time>
      </trkpt>
      <trkpt lat="51.636634021997452" lon="11.099780034273863">
        <ele>328.91000000000003</ele>
        <time>2017-05-22T09:58:28Z</time>
      </trkpt>
      <trkpt lat="51.636678026989102" lon="11.099468981847167">
        <ele>328.91000000000003</ele>
        <time>2017-05-22T09:58:29Z</time>
      </trkpt>
      <trkpt lat="51.63673996925354" lon="11.099175028502941">
        <ele>328.91000000000003</ele>
        <time>2017-05-22T09:58:30Z</time>
      </trkpt>
      <trkpt lat="51.636789003387094" lon="11.098913010209799">
        <ele>328.91000000000003</ele>
        <time>2017-05-22T09:58:31Z</time>
      </trkpt>
      <trkpt lat="51.636811969801784" lon="11.098654009401798">
        <ele>328.91000000000003</ele>
        <time>2017-05-22T09:58:32Z</time>
      </trkpt>
      <trkpt lat="51.636836025863886" lon="11.098413029685616">
        <ele>330.35000000000002</ele>
        <time>2017-05-22T09:58:33Z</time>
      </trkpt>
      <trkpt lat="51.636805012822151" lon="11.098166014999151">
        <ele>329.87</ele>
        <time>2017-05-22T09:58:34Z</time>
      </trkpt>
      <trkpt lat="51.636753967031837" lon="11.097908020019531">
        <ele>330.82999999999998</ele>
        <time>2017-05-22T09:58:35Z</time>
      </trkpt>
      <trkpt lat="51.636669980362058" lon="11.097655976191163">
        <ele>331.31</ele>
        <time>2017-05-22T09:58:36Z</time>
      </trkpt>
      <trkpt lat="51.636536959558725" lon="11.09743201173842">
        <ele>330.82999999999998</ele>
        <time>2017-05-22T09:58:37Z</time>
      </trkpt>
      <trkpt lat="51.636412991210818" lon="11.097222967073321">
        <ele>330.35000000000002</ele>
        <time>2017-05-22T09:58:38Z</time>
      </trkpt>
      <trkpt lat="51.636267984285951" lon="11.097058011218905">
        <ele>329.87</ele>
        <time>2017-05-22T09:58:39Z</time>
      </trkpt>
      <trkpt lat="51.63609498180449" lon="11.096963966265321">
        <ele>328.91000000000003</ele>
        <time>2017-05-22T09:58:40Z</time>
      </trkpt>
      <trkpt lat="51.635918039828539" lon="11.096922978758812">
        <ele>329.38999999999999</ele>
        <time>2017-05-22T09:58:41Z</time>
      </trkpt>
      <trkpt lat="51.635736990720034" lon="11.096948962658644">
        <ele>328.91000000000003</ele>
        <time>2017-05-22T09:58:42Z</time>
      </trkpt>
      <trkpt lat="51.635548984631896" lon="11.097033033147454">
        <ele>328.91000000000003</ele>
        <time>2017-05-22T09:58:43Z</time>
      </trkpt>
      <trkpt lat="51.635373970493674" lon="11.09713101759553">
        <ele>329.87</ele>
        <time>2017-05-22T09:58:44Z</time>
      </trkpt>
      <trkpt lat="51.63499996997416" lon="11.097264960408211">
        <ele>329.87</ele>
        <time>2017-05-22T09:58:46Z</time>
      </trkpt>
      <trkpt lat="51.63480500690639" lon="11.097264960408211">
        <ele>330.35000000000002</ele>
        <time>2017-05-22T09:58:47Z</time>
      </trkpt>
      <trkpt lat="51.634601997211576" lon="11.097238976508379">
        <ele>331.31</ele>
        <time>2017-05-22T09:58:48Z</time>
      </trkpt>
      <trkpt lat="51.634192038327456" lon="11.09721701592207">
        <ele>332.26999999999998</ele>
        <time>2017-05-22T09:58:50Z</time>
      </trkpt>
      <trkpt lat="51.633989028632641" lon="11.097258003428578">
        <ele>332.75</ele>
        <time>2017-05-22T09:58:51Z</time>
      </trkpt>
      <trkpt lat="51.633788030594587" lon="11.097319023683667">
        <ele>333.70999999999998</ele>
        <time>2017-05-22T09:58:52Z</time>
      </trkpt>
      <trkpt lat="51.633248990401626" lon="11.097551034763455">
        <ele>334.19999999999999</ele>
        <time>2017-05-22T09:58:55Z</time>
      </trkpt>
      <trkpt lat="51.633102977648377" lon="11.097646001726389">
        <ele>334.19999999999999</ele>
        <time>2017-05-22T09:58:56Z</time>
      </trkpt>
      <trkpt lat="51.632730988785625" lon="11.097915982827544">
        <ele>333.23000000000002</ele>
        <time>2017-05-22T09:58:59Z</time>
      </trkpt>
      <trkpt lat="51.632622024044394" lon="11.097954036667943">
        <ele>332.75</ele>
        <time>2017-05-22T09:59:00Z</time>
      </trkpt>
      <trkpt lat="51.632501995190978" lon="11.097998041659594">
        <ele>333.23000000000002</ele>
        <time>2017-05-22T09:59:01Z</time>
      </trkpt>
      <trkpt lat="51.631176983937621" lon="11.098158974200487">
        <ele>332.75</ele>
        <time>2017-05-22T09:59:11Z</time>
      </trkpt>
      <trkpt lat="51.631028959527612" lon="11.098118992522359">
        <ele>333.23000000000002</ele>
        <time>2017-05-22T09:59:12Z</time>
      </trkpt>
      <trkpt lat="51.630422025918961" lon="11.097793020308018">
        <ele>333.23000000000002</ele>
        <time>2017-05-22T09:59:16Z</time>
      </trkpt>
      <trkpt lat="51.630282970145345" lon="11.097668968141079">
        <ele>333.70999999999998</ele>
        <time>2017-05-22T09:59:17Z</time>
      </trkpt>
      <trkpt lat="51.630159001797438" lon="11.097523039206862">
        <ele>333.23000000000002</ele>
        <time>2017-05-22T09:59:18Z</time>
      </trkpt>
      <trkpt lat="51.629809979349375" lon="11.097011994570494">
        <ele>332.75</ele>
        <time>2017-05-22T09:59:21Z</time>
      </trkpt>
      <trkpt lat="51.629697997123003" lon="11.096759028732777">
        <ele>334.19999999999999</ele>
        <time>2017-05-22T09:59:22Z</time>
      </trkpt>
      <trkpt lat="51.629275968298316" lon="11.095211980864406">
        <ele>333.70999999999998</ele>
        <time>2017-05-22T09:59:29Z</time>
      </trkpt>
      <trkpt lat="51.629263982176781" lon="11.094981981441379">
        <ele>334.19999999999999</ele>
        <time>2017-05-22T09:59:30Z</time>
      </trkpt>
      <trkpt lat="51.629266999661922" lon="11.094730021432042">
        <ele>334.19999999999999</ele>
        <time>2017-05-22T09:59:31Z</time>
      </trkpt>
      <trkpt lat="51.629155017435551" lon="11.093249022960663">
        <ele>337.07999999999998</ele>
        <time>2017-05-22T09:59:38Z</time>
      </trkpt>
      <trkpt lat="51.629109000787139" lon="11.093067973852158">
        <ele>337.56</ele>
        <time>2017-05-22T09:59:39Z</time>
      </trkpt>
      <trkpt lat="51.628628969192505" lon="11.09201998449862">
        <ele>337.07999999999998</ele>
        <time>2017-05-22T09:59:47Z</time>
      </trkpt>
      <trkpt lat="51.628609020262957" lon="11.091926023364067">
        <ele>336.60000000000002</ele>
        <time>2017-05-22T09:59:48Z</time>
      </trkpt>
      <trkpt lat="51.628612959757447" lon="11.09182502143085">
        <ele>336.12</ele>
        <time>2017-05-22T09:59:49Z</time>
      </trkpt>
      <trkpt lat="51.62863701581955" lon="11.091741034761071">
        <ele>336.12</ele>
        <time>2017-05-22T09:59:50Z</time>
      </trkpt>
      <trkpt lat="51.628679009154439" lon="11.091665010899305">
        <ele>335.63999999999999</ele>
        <time>2017-05-22T09:59:51Z</time>
      </trkpt>
      <trkpt lat="51.628722008317709" lon="11.091601978987455">
        <ele>335.63999999999999</ele>
        <time>2017-05-22T09:59:52Z</time>
      </trkpt>
      <trkpt lat="51.628923006355762" lon="11.091296039521694">
        <ele>334.68000000000001</ele>
        <time>2017-05-22T09:59:57Z</time>
      </trkpt>
      <trkpt lat="51.628974974155426" lon="11.091183973476291">
        <ele>335.16000000000003</ele>
        <time>2017-05-22T09:59:58Z</time>
      </trkpt>
      <trkpt lat="51.629010010510683" lon="11.091046007350087">
        <ele>335.16000000000003</ele>
        <time>2017-05-22T09:59:59Z</time>
      </trkpt>
      <trkpt lat="51.629188964143395" lon="11.089564003050327">
        <ele>338.51999999999998</ele>
        <time>2017-05-22T10:00:07Z</time>
      </trkpt>
      <trkpt lat="51.629149988293648" lon="11.089431988075376">
        <ele>339.48000000000002</ele>
        <time>2017-05-22T10:00:08Z</time>
      </trkpt>
      <trkpt lat="51.629074970260262" lon="11.089338026940823">
        <ele>340.44</ele>
        <time>2017-05-22T10:00:09Z</time>
      </trkpt>
      <trkpt lat="51.628975979983807" lon="11.089277006685734">
        <ele>340.92000000000002</ele>
        <time>2017-05-22T10:00:10Z</time>
      </trkpt>
      <trkpt lat="51.628857040777802" lon="11.089234007522464">
        <ele>341.41000000000003</ele>
        <time>2017-05-22T10:00:11Z</time>
      </trkpt>
      <trkpt lat="51.628717985004187" lon="11.089188996702433">
        <ele>342.37</ele>
        <time>2017-05-22T10:00:12Z</time>
      </trkpt>
      <trkpt lat="51.628264021128416" lon="11.088992021977901">
        <ele>343.81</ele>
        <time>2017-05-22T10:00:15Z</time>
      </trkpt>
      <trkpt lat="51.628112979233265" lon="11.08888297341764">
        <ele>344.29000000000002</ele>
        <time>2017-05-22T10:00:16Z</time>
      </trkpt>
      <trkpt lat="51.627966966480017" lon="11.088751964271069">
        <ele>345.25</ele>
        <time>2017-05-22T10:00:17Z</time>
      </trkpt>
      <trkpt lat="51.627527000382543" lon="11.088268999010324">
        <ele>345.73000000000002</ele>
        <time>2017-05-22T10:00:20Z</time>
      </trkpt>
      <trkpt lat="51.627051997929811" lon="11.087504988536239">
        <ele>347.64999999999998</ele>
        <time>2017-05-22T10:00:24Z</time>
      </trkpt>
      <trkpt lat="51.62696398794651" lon="11.087253028526902">
        <ele>347.17000000000002</ele>
        <time>2017-05-22T10:00:25Z</time>
      </trkpt>
      <trkpt lat="51.626881007105112" lon="11.087005008012056">
        <ele>347.64999999999998</ele>
        <time>2017-05-22T10:00:26Z</time>
      </trkpt>
      <trkpt lat="51.626816969364882" lon="11.086772996932268">
        <ele>348.13</ele>
        <time>2017-05-22T10:00:27Z</time>
      </trkpt>
      <trkpt lat="51.626786962151527" lon="11.086564036086202">
        <ele>349.10000000000002</ele>
        <time>2017-05-22T10:00:28Z</time>
      </trkpt>
      <trkpt lat="51.626785034313798" lon="11.086394973099232">
        <ele>349.57999999999998</ele>
        <time>2017-05-22T10:00:29Z</time>
      </trkpt>
      <trkpt lat="51.626802971586585" lon="11.086230017244816">
        <ele>349.57999999999998</ele>
        <time>2017-05-22T10:00:30Z</time>
      </trkpt>
      <trkpt lat="51.6268349904567" lon="11.086055003106594">
        <ele>349.10000000000002</ele>
        <time>2017-05-22T10:00:31Z</time>
      </trkpt>
      <trkpt lat="51.626884024590254" lon="11.085863979533315">
        <ele>348.62</ele>
        <time>2017-05-22T10:00:32Z</time>
      </trkpt>
      <trkpt lat="51.627067001536489" lon="11.084999972954392">
        <ele>347.64999999999998</ele>
        <time>2017-05-22T10:00:37Z</time>
      </trkpt>
      <trkpt lat="51.627065995708108" lon="11.084835017099977">
        <ele>347.64999999999998</ele>
        <time>2017-05-22T10:00:38Z</time>
      </trkpt>
      <trkpt lat="51.627054009586573" lon="11.084687998518348">
        <ele>347.64999999999998</ele>
        <time>2017-05-22T10:00:39Z</time>
      </trkpt>
      <trkpt lat="51.627018973231316" lon="11.08456201851368">
        <ele>346.69</ele>
        <time>2017-05-22T10:00:40Z</time>
      </trkpt>
      <trkpt lat="51.626990977674723" lon="11.084445007145405">
        <ele>345.73000000000002</ele>
        <time>2017-05-22T10:00:41Z</time>
      </trkpt>
      <trkpt lat="51.626944039016962" lon="11.084332019090652">
        <ele>346.20999999999998</ele>
        <time>2017-05-22T10:00:42Z</time>
      </trkpt>
      <trkpt lat="51.62687798961997" lon="11.084245014935732">
        <ele>345.73000000000002</ele>
        <time>2017-05-22T10:00:43Z</time>
      </trkpt>
      <trkpt lat="51.626802971586585" lon="11.084185000509024">
        <ele>345.25</ele>
        <time>2017-05-22T10:00:44Z</time>
      </trkpt>
      <trkpt lat="51.626738011837006" lon="11.084169996902347">
        <ele>343.81</ele>
        <time>2017-05-22T10:00:45Z</time>
      </trkpt>
      <trkpt lat="51.626648996025324" lon="11.08417603187263">
        <ele>343.32999999999998</ele>
        <time>2017-05-22T10:00:46Z</time>
      </trkpt>
      <trkpt lat="51.62655302323401" lon="11.084202015772462">
        <ele>343.81</ele>
        <time>2017-05-22T10:00:47Z</time>
      </trkpt>
      <trkpt lat="51.626444980502129" lon="11.084235962480307">
        <ele>344.29000000000002</ele>
        <time>2017-05-22T10:00:48Z</time>
      </trkpt>
      <trkpt lat="51.625869981944561" lon="11.084405025467277">
        <ele>345.25</ele>
        <time>2017-05-22T10:00:53Z</time>
      </trkpt>
      <trkpt lat="51.625757999718189" lon="11.084379041567445">
        <ele>345.73000000000002</ele>
        <time>2017-05-22T10:00:54Z</time>
      </trkpt>
      <trkpt lat="51.625643000006676" lon="11.084324978291988">
        <ele>345.73000000000002</ele>
        <time>2017-05-22T10:00:55Z</time>
      </trkpt>
      <trkpt lat="51.625538980588317" lon="11.084226993843913">
        <ele>345.25</ele>
        <time>2017-05-22T10:00:56Z</time>
      </trkpt>
      <trkpt lat="51.625446025282145" lon="11.084074024111032">
        <ele>344.76999999999998</ele>
        <time>2017-05-22T10:00:57Z</time>
      </trkpt>
      <trkpt lat="51.625361032783985" lon="11.083888029679656">
        <ele>344.29000000000002</ele>
        <time>2017-05-22T10:00:58Z</time>
      </trkpt>
      <trkpt lat="51.625277968123555" lon="11.083688959479332">
        <ele>344.76999999999998</ele>
        <time>2017-05-22T10:00:59Z</time>
      </trkpt>
      <trkpt lat="51.625055009499192" lon="11.083024023100734">
        <ele>344.29000000000002</ele>
        <time>2017-05-22T10:01:02Z</time>
      </trkpt>
      <trkpt lat="51.623897971585393" lon="11.08046100474894">
        <ele>347.17000000000002</ele>
        <time>2017-05-22T10:01:13Z</time>
      </trkpt>
      <trkpt lat="51.623827982693911" lon="11.080157998949289">
        <ele>347.17000000000002</ele>
        <time>2017-05-22T10:01:14Z</time>
      </trkpt>
      <trkpt lat="51.623775009065866" lon="11.079845018684864">
        <ele>347.64999999999998</ele>
        <time>2017-05-22T10:01:15Z</time>
      </trkpt>
      <trkpt lat="51.623729998245835" lon="11.079543018713593">
        <ele>347.64999999999998</ele>
        <time>2017-05-22T10:01:16Z</time>
      </trkpt>
      <trkpt lat="51.623673001304269" lon="11.079254010692239">
        <ele>348.13</ele>
        <time>2017-05-22T10:01:17Z</time>
      </trkpt>
      <trkpt lat="51.623634025454521" lon="11.079006996005774">
        <ele>348.13</ele>
        <time>2017-05-22T10:01:18Z</time>
      </trkpt>
      <trkpt lat="51.623599994927645" lon="11.078775990754366">
        <ele>348.13</ele>
        <time>2017-05-22T10:01:19Z</time>
      </trkpt>
      <trkpt lat="51.623566970229149" lon="11.078081969171762">
        <ele>348.62</ele>
        <time>2017-05-22T10:01:22Z</time>
      </trkpt>
      <trkpt lat="51.623584991320968" lon="11.077823974192142">
        <ele>348.62</ele>
        <time>2017-05-22T10:01:23Z</time>
      </trkpt>
      <trkpt lat="51.623633019626141" lon="11.077550975605845">
        <ele>348.62</ele>
        <time>2017-05-22T10:01:24Z</time>
      </trkpt>
      <trkpt lat="51.623703008517623" lon="11.077283006161451">
        <ele>348.62</ele>
        <time>2017-05-22T10:01:25Z</time>
      </trkpt>
      <trkpt lat="51.623795041814446" lon="11.077017970383167">
        <ele>348.62</ele>
        <time>2017-05-22T10:01:26Z</time>
      </trkpt>
      <trkpt lat="51.623905012384057" lon="11.076757041737437">
        <ele>349.10000000000002</ele>
        <time>2017-05-22T10:01:27Z</time>
      </trkpt>
      <trkpt lat="51.62401900626719" lon="11.076494017615914">
        <ele>349.10000000000002</ele>
        <time>2017-05-22T10:01:28Z</time>
      </trkpt>
      <trkpt lat="51.624623006209731" lon="11.075162971392274">
        <ele>350.54000000000002</ele>
        <time>2017-05-22T10:01:33Z</time>
      </trkpt>
      <trkpt lat="51.624764995649457" lon="11.074941018596292">
        <ele>351.01999999999998</ele>
        <time>2017-05-22T10:01:34Z</time>
      </trkpt>
      <trkpt lat="51.625046962872148" lon="11.074478002265096">
        <ele>351.5</ele>
        <time>2017-05-22T10:01:36Z</time>
      </trkpt>
      <trkpt lat="51.625166991725564" lon="11.074206009507179">
        <ele>351.5</ele>
        <time>2017-05-22T10:01:37Z</time>
      </trkpt>
      <trkpt lat="51.625298000872135" lon="11.073893029242754">
        <ele>353.89999999999998</ele>
        <time>2017-05-22T10:01:38Z</time>
      </trkpt>
      <trkpt lat="51.625559013336897" lon="11.07304897159338">
        <ele>359.67000000000002</ele>
        <time>2017-05-22T10:01:41Z</time>
      </trkpt>
      <trkpt lat="51.625595977529883" lon="11.07279097661376">
        <ele>359.19</ele>
        <time>2017-05-22T10:01:42Z</time>
      </trkpt>
      <trkpt lat="51.625622967258096" lon="11.072523007169366">
        <ele>360.14999999999998</ele>
        <time>2017-05-22T10:01:43Z</time>
      </trkpt>
      <trkpt lat="51.625634031370282" lon="11.072250008583069">
        <ele>360.63</ele>
        <time>2017-05-22T10:01:44Z</time>
      </trkpt>
      <trkpt lat="51.625633025541902" lon="11.071981033310294">
        <ele>361.11000000000001</ele>
        <time>2017-05-22T10:01:45Z</time>
      </trkpt>
      <trkpt lat="51.625598995015025" lon="11.071727983653545">
        <ele>361.11000000000001</ele>
        <time>2017-05-22T10:01:46Z</time>
      </trkpt>
      <trkpt lat="51.625535041093826" lon="11.071484992280602">
        <ele>361.58999999999997</ele>
        <time>2017-05-22T10:01:47Z</time>
      </trkpt>
      <trkpt lat="51.625447031110525" lon="11.071251975372434">
        <ele>361.11000000000001</ele>
        <time>2017-05-22T10:01:48Z</time>
      </trkpt>
      <trkpt lat="51.625354997813702" lon="11.071023987606168">
        <ele>360.14999999999998</ele>
        <time>2017-05-22T10:01:49Z</time>
      </trkpt>
      <trkpt lat="51.625253995880485" lon="11.070819972082973">
        <ele>359.67000000000002</ele>
        <time>2017-05-22T10:01:50Z</time>
      </trkpt>
      <trkpt lat="51.625140001997352" lon="11.070624003186822">
        <ele>359.67000000000002</ele>
        <time>2017-05-22T10:01:51Z</time>
      </trkpt>
      <trkpt lat="51.624991977587342" lon="11.070445971563458">
        <ele>359.19</ele>
        <time>2017-05-22T10:01:52Z</time>
      </trkpt>
      <trkpt lat="51.624845964834094" lon="11.070285039022565">
        <ele>358.70999999999998</ele>
        <time>2017-05-22T10:01:53Z</time>
      </trkpt>
      <trkpt lat="51.624692995101213" lon="11.07014698907733">
        <ele>358.23000000000002</ele>
        <time>2017-05-22T10:01:54Z</time>
      </trkpt>
      <trkpt lat="51.624476993456483" lon="11.070065014064312">
        <ele>357.75</ele>
        <time>2017-05-22T10:01:55Z</time>
      </trkpt>
      <trkpt lat="51.624298039823771" lon="11.069983039051294">
        <ele>358.23000000000002</ele>
        <time>2017-05-22T10:01:56Z</time>
      </trkpt>
      <trkpt lat="51.624101987108588" lon="11.069911038503051">
        <ele>358.23000000000002</ele>
        <time>2017-05-22T10:01:57Z</time>
      </trkpt>
      <trkpt lat="51.623015021905303" lon="11.069295974448323">
        <ele>358.70999999999998</ele>
        <time>2017-05-22T10:02:03Z</time>
      </trkpt>
      <trkpt lat="51.62288099527359" lon="11.069148033857346">
        <ele>358.70999999999998</ele>
        <time>2017-05-22T10:02:04Z</time>
      </trkpt>
      <trkpt lat="51.622775970026851" lon="11.068997997790575">
        <ele>359.19</ele>
        <time>2017-05-22T10:02:05Z</time>
      </trkpt>
      <trkpt lat="51.621852032840252" lon="11.067571984604001">
        <ele>358.70999999999998</ele>
        <time>2017-05-22T10:02:13Z</time>
      </trkpt>
      <trkpt lat="51.621728986501694" lon="11.067446004599333">
        <ele>358.70999999999998</ele>
        <time>2017-05-22T10:02:14Z</time>
      </trkpt>
      <trkpt lat="51.621596971526742" lon="11.067348020151258">
        <ele>358.70999999999998</ele>
        <time>2017-05-22T10:02:15Z</time>
      </trkpt>
      <trkpt lat="51.621452970430255" lon="11.067279037088156">
        <ele>359.19</ele>
        <time>2017-05-22T10:02:16Z</time>
      </trkpt>
      <trkpt lat="51.621306035667658" lon="11.067232014611363">
        <ele>359.19</ele>
        <time>2017-05-22T10:02:17Z</time>
      </trkpt>
      <trkpt lat="51.621149964630604" lon="11.067185997962952">
        <ele>358.70999999999998</ele>
        <time>2017-05-22T10:02:18Z</time>
      </trkpt>
      <trkpt lat="51.620992971584201" lon="11.067106034606695">
        <ele>358.23000000000002</ele>
        <time>2017-05-22T10:02:19Z</time>
      </trkpt>
      <trkpt lat="51.620833966881037" lon="11.067003021016717">
        <ele>357.26999999999998</ele>
        <time>2017-05-22T10:02:20Z</time>
      </trkpt>
      <trkpt lat="51.619867030531168" lon="11.06630296446383">
        <ele>357.26999999999998</ele>
        <time>2017-05-22T10:02:26Z</time>
      </trkpt>
      <trkpt lat="51.619738033041358" lon="11.066138008609414">
        <ele>357.26999999999998</ele>
        <time>2017-05-22T10:02:27Z</time>
      </trkpt>
      <trkpt lat="51.619625966995955" lon="11.065934998914599">
        <ele>357.26999999999998</ele>
        <time>2017-05-22T10:02:28Z</time>
      </trkpt>
      <trkpt lat="51.619523959234357" lon="11.065706005319953">
        <ele>357.26999999999998</ele>
        <time>2017-05-22T10:02:29Z</time>
      </trkpt>
      <trkpt lat="51.619419017806649" lon="11.065465025603771">
        <ele>357.75</ele>
        <time>2017-05-22T10:02:30Z</time>
      </trkpt>
      <trkpt lat="51.618603961542249" lon="11.063477005809546">
        <ele>359.67000000000002</ele>
        <time>2017-05-22T10:02:38Z</time>
      </trkpt>
      <trkpt lat="51.61854000762105" lon="11.063195960596204">
        <ele>359.67000000000002</ele>
        <time>2017-05-22T10:02:39Z</time>
      </trkpt>
      <trkpt lat="51.618501031771302" lon="11.062896978110075">
        <ele>360.14999999999998</ele>
        <time>2017-05-22T10:02:40Z</time>
      </trkpt>
      <trkpt lat="51.61854000762105" lon="11.060687005519867">
        <ele>358.70999999999998</ele>
        <time>2017-05-22T10:02:47Z</time>
      </trkpt>
      <trkpt lat="51.618617037311196" lon="11.058279974386096">
        <ele>357.75</ele>
        <time>2017-05-22T10:02:56Z</time>
      </trkpt>
      <trkpt lat="51.61862701177597" lon="11.057017995044589">
        <ele>361.58999999999997</ele>
        <time>2017-05-22T10:03:02Z</time>
      </trkpt>
      <trkpt lat="51.618629023432732" lon="11.056779026985168">
        <ele>362.06999999999999</ele>
        <time>2017-05-22T10:03:03Z</time>
      </trkpt>
      <trkpt lat="51.618612008169293" lon="11.056538969278336">
        <ele>363.04000000000002</ele>
        <time>2017-05-22T10:03:04Z</time>
      </trkpt>
      <trkpt lat="51.618579989299178" lon="11.056294972077012">
        <ele>363.04000000000002</ele>
        <time>2017-05-22T10:03:05Z</time>
      </trkpt>
      <trkpt lat="51.618533972650766" lon="11.056045023724437">
        <ele>363.51999999999998</ele>
        <time>2017-05-22T10:03:06Z</time>
      </trkpt>
      <trkpt lat="51.618479993194342" lon="11.05579499155283">
        <ele>363.51999999999998</ele>
        <time>2017-05-22T10:03:07Z</time>
      </trkpt>
      <trkpt lat="51.618414027616382" lon="11.05553699657321">
        <ele>363.51999999999998</ele>
        <time>2017-05-22T10:03:08Z</time>
      </trkpt>
      <trkpt lat="51.617707014083862" lon="11.053167013451457">
        <ele>364.95999999999998</ele>
        <time>2017-05-22T10:03:17Z</time>
      </trkpt>
      <trkpt lat="51.617520013824105" lon="11.052450025454164">
        <ele>364.48000000000002</ele>
        <time>2017-05-22T10:03:20Z</time>
      </trkpt>
      <trkpt lat="51.617351034656167" lon="11.051528016105294">
        <ele>364</ele>
        <time>2017-05-22T10:03:26Z</time>
      </trkpt>
      <trkpt lat="51.617124974727631" lon="11.050001000985503">
        <ele>365.92000000000002</ele>
        <time>2017-05-22T10:03:36Z</time>
      </trkpt>
      <trkpt lat="51.617340976372361" lon="11.048114988952875">
        <ele>365.92000000000002</ele>
        <time>2017-05-22T10:03:47Z</time>
      </trkpt>
      <trkpt lat="51.617711037397385" lon="11.047041015699506">
        <ele>370.24000000000001</ele>
        <time>2017-05-22T10:03:56Z</time>
      </trkpt>
      <trkpt lat="51.617715982720256" lon="11.046820990741253">
        <ele>371.69</ele>
        <time>2017-05-22T10:04:00Z</time>
      </trkpt>
      <trkpt lat="51.617686981335282" lon="11.046786960214376">
        <ele>372.17000000000002</ele>
        <time>2017-05-22T10:04:01Z</time>
      </trkpt>
      <trkpt lat="51.617644988000393" lon="11.046774974092841">
        <ele>372.17000000000002</ele>
        <time>2017-05-22T10:04:02Z</time>
      </trkpt>
      <trkpt lat="51.617579022422433" lon="11.046782014891505">
        <ele>372.17000000000002</ele>
        <time>2017-05-22T10:04:03Z</time>
      </trkpt>
      <trkpt lat="51.617506016045809" lon="11.046816967427731">
        <ele>372.17000000000002</ele>
        <time>2017-05-22T10:04:04Z</time>
      </trkpt>
      <trkpt lat="51.617427980527282" lon="11.046866001561284">
        <ele>372.64999999999998</ele>
        <time>2017-05-22T10:04:05Z</time>
      </trkpt>
      <trkpt lat="51.617355979979038" lon="11.046941019594669">
        <ele>372.64999999999998</ele>
        <time>2017-05-22T10:04:06Z</time>
      </trkpt>
      <trkpt lat="51.617280961945653" lon="11.047025006264448">
        <ele>373.13</ele>
        <time>2017-05-22T10:04:07Z</time>
      </trkpt>
      <trkpt lat="51.617204016074538" lon="11.047130031511188">
        <ele>373.61000000000001</ele>
        <time>2017-05-22T10:04:08Z</time>
      </trkpt>
      <trkpt lat="51.617132015526295" lon="11.047242013737559">
        <ele>374.08999999999997</ele>
        <time>2017-05-22T10:04:09Z</time>
      </trkpt>
      <trkpt lat="51.616780981421471" lon="11.047828998416662">
        <ele>378.42000000000002</ele>
        <time>2017-05-22T10:04:14Z</time>
      </trkpt>
      <trkpt lat="51.616749968379736" lon="11.047988003119826">
        <ele>379.38</ele>
        <time>2017-05-22T10:04:15Z</time>
      </trkpt>
      <trkpt lat="51.616744017228484" lon="11.04816704057157">
        <ele>380.33999999999997</ele>
        <time>2017-05-22T10:04:16Z</time>
      </trkpt>
      <trkpt lat="51.616725996136665" lon="11.048843963071704">
        <ele>382.74000000000001</ele>
        <time>2017-05-22T10:04:20Z</time>
      </trkpt>
      <trkpt lat="51.616694983094931" lon="11.048971032723784">
        <ele>383.69999999999999</ele>
        <time>2017-05-22T10:04:21Z</time>
      </trkpt>
      <trkpt lat="51.616643015295267" lon="11.049084020778537">
        <ele>384.18000000000001</ele>
        <time>2017-05-22T10:04:22Z</time>
      </trkpt>
      <trkpt lat="51.616577971726656" lon="11.049173958599567">
        <ele>384.66000000000003</ele>
        <time>2017-05-22T10:04:23Z</time>
      </trkpt>
      <trkpt lat="51.616509994491935" lon="11.049226010218263">
        <ele>385.14999999999998</ele>
        <time>2017-05-22T10:04:24Z</time>
      </trkpt>
      <trkpt lat="51.616440005600452" lon="11.049233973026276">
        <ele>385.63</ele>
        <time>2017-05-22T10:04:25Z</time>
      </trkpt>
      <trkpt lat="51.616365993395448" lon="11.049208994954824">
        <ele>386.11000000000001</ele>
        <time>2017-05-22T10:04:26Z</time>
      </trkpt>
      <trkpt lat="51.616296004503965" lon="11.049145963042974">
        <ele>386.58999999999997</ele>
        <time>2017-05-22T10:04:27Z</time>
      </trkpt>
      <trkpt lat="51.616221992298961" lon="11.049055019393563">
        <ele>387.06999999999999</ele>
        <time>2017-05-22T10:04:28Z</time>
      </trkpt>
      <trkpt lat="51.616144040599465" lon="11.048938008025289">
        <ele>387.55000000000001</ele>
        <time>2017-05-22T10:04:29Z</time>
      </trkpt>
      <trkpt lat="51.615916974842548" lon="11.048584962263703">
        <ele>388.50999999999999</ele>
        <time>2017-05-22T10:04:32Z</time>
      </trkpt>
      <trkpt lat="51.615828964859247" lon="11.048525031656027">
        <ele>388.99000000000001</ele>
        <time>2017-05-22T10:04:33Z</time>
      </trkpt>
      <trkpt lat="51.615741038694978" lon="11.048504998907447">
        <ele>388.99000000000001</ele>
        <time>2017-05-22T10:04:34Z</time>
      </trkpt>
      <trkpt lat="51.615645987913013" lon="11.048516985028982">
        <ele>388.99000000000001</ele>
        <time>2017-05-22T10:04:35Z</time>
      </trkpt>
      <trkpt lat="51.615541968494654" lon="11.048545986413956">
        <ele>389.47000000000003</ele>
        <time>2017-05-22T10:04:36Z</time>
      </trkpt>
      <trkpt lat="51.615437027066946" lon="11.048590997233987">
        <ele>389.94999999999999</ele>
        <time>2017-05-22T10:04:37Z</time>
      </trkpt>
      <trkpt lat="51.615229994058609" lon="11.048638019710779">
        <ele>391.38999999999999</ele>
        <time>2017-05-22T10:04:39Z</time>
      </trkpt>
      <trkpt lat="51.615127986297011" lon="11.048633996397257">
        <ele>392.36000000000001</ele>
        <time>2017-05-22T10:04:40Z</time>
      </trkpt>
      <trkpt lat="51.615025978535414" lon="11.048613963648677">
        <ele>392.36000000000001</ele>
        <time>2017-05-22T10:04:41Z</time>
      </trkpt>
      <trkpt lat="51.614014031365514" lon="11.04806100949645">
        <ele>397.16000000000003</ele>
        <time>2017-05-22T10:04:51Z</time>
      </trkpt>
      <trkpt lat="51.613723011687398" lon="11.047836039215326">
        <ele>398.60000000000002</ele>
        <time>2017-05-22T10:04:54Z</time>
      </trkpt>
      <trkpt lat="51.6136210039258" lon="11.047779964283109">
        <ele>399.07999999999998</ele>
        <time>2017-05-22T10:04:55Z</time>
      </trkpt>
      <trkpt lat="51.613401984795928" lon="11.047694971784949">
        <ele>400.05000000000001</ele>
        <time>2017-05-22T10:04:57Z</time>
      </trkpt>
      <trkpt lat="51.613285979256034" lon="11.047690026462078">
        <ele>401.00999999999999</ele>
        <time>2017-05-22T10:04:58Z</time>
      </trkpt>
      <trkpt lat="51.61316997371614" lon="11.047722967341542">
        <ele>401.49000000000001</ele>
        <time>2017-05-22T10:04:59Z</time>
      </trkpt>
      <trkpt lat="51.613056985661387" lon="11.047790022566915">
        <ele>402.44999999999999</ele>
        <time>2017-05-22T10:05:00Z</time>
      </trkpt>
      <trkpt lat="51.612943997606635" lon="11.047883983701468">
        <ele>403.41000000000003</ele>
        <time>2017-05-22T10:05:01Z</time>
      </trkpt>
      <trkpt lat="51.61273998208344" lon="11.048023961484432">
        <ele>404.85000000000002</ele>
        <time>2017-05-22T10:05:03Z</time>
      </trkpt>
      <trkpt lat="51.612629005685449" lon="11.048065032809973">
        <ele>406.29000000000002</ele>
        <time>2017-05-22T10:05:04Z</time>
      </trkpt>
      <trkpt lat="51.612518029287457" lon="11.048072995617986">
        <ele>406.76999999999998</ele>
        <time>2017-05-22T10:05:05Z</time>
      </trkpt>
      <trkpt lat="51.612401017919183" lon="11.048013987019658">
        <ele>409.18000000000001</ele>
        <time>2017-05-22T10:05:06Z</time>
      </trkpt>
      <trkpt lat="51.612284006550908" lon="11.047952966764569">
        <ele>410.13999999999999</ele>
        <time>2017-05-22T10:05:07Z</time>
      </trkpt>
      <trkpt lat="51.612165989354253" lon="11.047865962609649">
        <ele>410.62</ele>
        <time>2017-05-22T10:05:08Z</time>
      </trkpt>
      <trkpt lat="51.6120530012995" lon="11.047756997868419">
        <ele>411.57999999999998</ele>
        <time>2017-05-22T10:05:09Z</time>
      </trkpt>
      <trkpt lat="51.611932972446084" lon="11.047646021470428">
        <ele>413.5</ele>
        <time>2017-05-22T10:05:10Z</time>
      </trkpt>
      <trkpt lat="51.611360991373658" lon="11.047098012641072">
        <ele>420.23000000000002</ele>
        <time>2017-05-22T10:05:15Z</time>
      </trkpt>
      <trkpt lat="51.611230988055468" lon="11.047044033184648">
        <ele>421.68000000000001</ele>
        <time>2017-05-22T10:05:16Z</time>
      </trkpt>
      <trkpt lat="51.609826013445854" lon="11.046632984653115">
        <ele>431.76999999999998</ele>
        <time>2017-05-22T10:05:25Z</time>
      </trkpt>
      <trkpt lat="51.608115015551448" lon="11.046091010794044">
        <ele>447.14999999999998</ele>
        <time>2017-05-22T10:05:33Z</time>
      </trkpt>
      <trkpt lat="51.60558502189815" lon="11.045391038060188">
        <ele>453.39999999999998</ele>
        <time>2017-05-22T10:05:43Z</time>
      </trkpt>
      <trkpt lat="51.602965006604791" lon="11.044831965118647">
        <ele>460.13</ele>
        <time>2017-05-22T10:05:53Z</time>
      </trkpt>
      <trkpt lat="51.59948299638927" lon="11.045113010331988">
        <ele>465.89999999999998</ele>
        <time>2017-05-22T10:06:05Z</time>
      </trkpt>
      <trkpt lat="51.596206007525325" lon="11.045419033616781">
        <ele>471.18000000000001</ele>
        <time>2017-05-22T10:06:17Z</time>
      </trkpt>
      <trkpt lat="51.594251012429595" lon="11.045573009178042">
        <ele>473.58999999999997</ele>
        <time>2017-05-22T10:06:25Z</time>
      </trkpt>
      <trkpt lat="51.593176033347845" lon="11.045708041638136">
        <ele>474.06999999999999</ele>
        <time>2017-05-22T10:06:32Z</time>
      </trkpt>
      <trkpt lat="51.592718968167901" lon="11.045751962810755">
        <ele>474.06999999999999</ele>
        <time>2017-05-22T10:06:37Z</time>
      </trkpt>
      <trkpt lat="51.592677980661392" lon="11.045733019709587">
        <ele>474.06999999999999</ele>
        <time>2017-05-22T10:06:38Z</time>
      </trkpt>
      <trkpt lat="51.592653002589941" lon="11.045703012496233">
        <ele>474.55000000000001</ele>
        <time>2017-05-22T10:06:39Z</time>
      </trkpt>
      <trkpt lat="51.592636993154883" lon="11.045650960877538">
        <ele>474.55000000000001</ele>
        <time>2017-05-22T10:06:40Z</time>
      </trkpt>
      <trkpt lat="51.592624001204967" lon="11.045549036934972">
        <ele>474.55000000000001</ele>
        <time>2017-05-22T10:06:41Z</time>
      </trkpt>
      <trkpt lat="51.592627018690109" lon="11.045406041666865">
        <ele>474.55000000000001</ele>
        <time>2017-05-22T10:06:42Z</time>
      </trkpt>
      <trkpt lat="51.5926309581846" lon="11.045225998386741">
        <ele>474.55000000000001</ele>
        <time>2017-05-22T10:06:43Z</time>
      </trkpt>
      <trkpt lat="51.592617966234684" lon="11.043277960270643">
        <ele>474.06999999999999</ele>
        <time>2017-05-22T10:06:51Z</time>
      </trkpt>
      <trkpt lat="51.592505984008312" lon="11.040495000779629">
        <ele>474.06999999999999</ele>
        <time>2017-05-22T10:07:00Z</time>
      </trkpt>
      <trkpt lat="51.592447981238365" lon="11.040162993595004">
        <ele>473.58999999999997</ele>
        <time>2017-05-22T10:07:01Z</time>
      </trkpt>
      <trkpt lat="51.591972978785634" lon="11.037573991343379">
        <ele>472.63</ele>
        <time>2017-05-22T10:07:08Z</time>
      </trkpt>
      <trkpt lat="51.591139985248446" lon="11.033251024782658">
        <ele>468.30000000000001</ele>
        <time>2017-05-22T10:07:18Z</time>
      </trkpt>
      <trkpt lat="51.590228034183383" lon="11.028136974200606">
        <ele>472.13999999999999</ele>
        <time>2017-05-22T10:07:29Z</time>
      </trkpt>
      <trkpt lat="51.589409960433841" lon="11.024003019556403">
        <ele>480.80000000000001</ele>
        <time>2017-05-22T10:07:38Z</time>
      </trkpt>
      <trkpt lat="51.58863396383822" lon="11.019759010523558">
        <ele>481.27999999999997</ele>
        <time>2017-05-22T10:07:47Z</time>
      </trkpt>
      <trkpt lat="51.588105987757444" lon="11.016621999442577">
        <ele>488.00999999999999</ele>
        <time>2017-05-22T10:07:54Z</time>
      </trkpt>
      <trkpt lat="51.588070029392838" lon="11.015110993757844">
        <ele>491.37</ele>
        <time>2017-05-22T10:07:58Z</time>
      </trkpt>
      <trkpt lat="51.588054019957781" lon="11.013821018859744">
        <ele>496.66000000000003</ele>
        <time>2017-05-22T10:08:04Z</time>
      </trkpt>
      <trkpt lat="51.588035998865962" lon="11.012862967327237">
        <ele>499.54000000000002</ele>
        <time>2017-05-22T10:08:12Z</time>
      </trkpt>
      <trkpt lat="51.588026024401188" lon="11.012517968192697">
        <ele>500.01999999999998</ele>
        <time>2017-05-22T10:08:17Z</time>
      </trkpt>
      <trkpt lat="51.588054019957781" lon="11.012429958209395">
        <ele>500.01999999999998</ele>
        <time>2017-05-22T10:08:18Z</time>
      </trkpt>
      <trkpt lat="51.588101964443922" lon="11.012342032045126">
        <ele>500.5</ele>
        <time>2017-05-22T10:08:19Z</time>
      </trkpt>
      <trkpt lat="51.588643016293645" lon="11.011446006596088">
        <ele>500.01999999999998</ele>
        <time>2017-05-22T10:08:26Z</time>
      </trkpt>
      <trkpt lat="51.589294960722327" lon="11.01029098033905">
        <ele>501.45999999999998</ele>
        <time>2017-05-22T10:08:32Z</time>
      </trkpt>
      <trkpt lat="51.589389005675912" lon="11.010060980916023">
        <ele>501.94999999999999</ele>
        <time>2017-05-22T10:08:33Z</time>
      </trkpt>
      <trkpt lat="51.590033993124962" lon="11.007837010547519">
        <ele>500.5</ele>
        <time>2017-05-22T10:08:40Z</time>
      </trkpt>
      <trkpt lat="51.590502038598061" lon="11.006241012364626">
        <ele>497.62</ele>
        <time>2017-05-22T10:08:46Z</time>
      </trkpt>
      <trkpt lat="51.591175021603703" lon="11.00463897921145">
        <ele>495.69999999999999</ele>
        <time>2017-05-22T10:08:52Z</time>
      </trkpt>
      <trkpt lat="51.59273698925972" lon="11.002132035791874">
        <ele>490.88999999999999</ele>
        <time>2017-05-22T10:09:01Z</time>
      </trkpt>
      <trkpt lat="51.594319995492697" lon="10.99959097802639">
        <ele>493.76999999999998</ele>
        <time>2017-05-22T10:09:11Z</time>
      </trkpt>
      <trkpt lat="51.594603974372149" lon="10.999233992770314">
        <ele>494.25999999999999</ele>
        <time>2017-05-22T10:09:13Z</time>
      </trkpt>
      <trkpt lat="51.594774965196848" lon="10.999093009158969">
        <ele>494.74000000000001</ele>
        <time>2017-05-22T10:09:14Z</time>
      </trkpt>
      <trkpt lat="51.596248000860214" lon="10.998111991211772">
        <ele>494.74000000000001</ele>
        <time>2017-05-22T10:09:21Z</time>
      </trkpt>
      <trkpt lat="51.597586004063487" lon="10.997214959934354">
        <ele>499.06</ele>
        <time>2017-05-22T10:09:28Z</time>
      </trkpt>
      <trkpt lat="51.597750037908554" lon="10.997039023786783">
        <ele>499.54000000000002</ele>
        <time>2017-05-22T10:09:29Z</time>
      </trkpt>
      <trkpt lat="51.598182963207364" lon="10.996403004974127">
        <ele>501.45999999999998</ele>
        <time>2017-05-22T10:09:32Z</time>
      </trkpt>
      <trkpt lat="51.598306009545922" lon="10.996175017207861">
        <ele>502.43000000000001</ele>
        <time>2017-05-22T10:09:33Z</time>
      </trkpt>
      <trkpt lat="51.598485969007015" lon="10.995764974504709">
        <ele>502.43000000000001</ele>
        <time>2017-05-22T10:09:36Z</time>
      </trkpt>
      <trkpt lat="51.598498038947582" lon="10.995684005320072">
        <ele>502.43000000000001</ele>
        <time>2017-05-22T10:09:37Z</time>
      </trkpt>
      <trkpt lat="51.59849502146244" lon="10.995576968416572">
        <ele>501.94999999999999</ele>
        <time>2017-05-22T10:09:38Z</time>
      </trkpt>
      <trkpt lat="51.598506001755595" lon="10.995272034779191">
        <ele>500.98000000000002</ele>
        <time>2017-05-22T10:09:40Z</time>
      </trkpt>
      <trkpt lat="51.598786041140556" lon="10.993747031316161">
        <ele>495.69999999999999</ele>
        <time>2017-05-22T10:09:46Z</time>
      </trkpt>
      <trkpt lat="51.599371014162898" lon="10.990935992449522">
        <ele>488.00999999999999</ele>
        <time>2017-05-22T10:09:54Z</time>
      </trkpt>
      <trkpt lat="51.600296963006258" lon="10.986431976780295">
        <ele>477.91000000000003</ele>
        <time>2017-05-22T10:10:05Z</time>
      </trkpt>
      <trkpt lat="51.60053500905633" lon="10.984062999486923">
        <ele>474.55000000000001</ele>
        <time>2017-05-22T10:10:11Z</time>
      </trkpt>
      <trkpt lat="51.600474994629622" lon="10.981175014749169">
        <ele>464.93000000000001</ele>
        <time>2017-05-22T10:10:18Z</time>
      </trkpt>
      <trkpt lat="51.600419003516436" lon="10.980436988174915">
        <ele>463.00999999999999</ele>
        <time>2017-05-22T10:10:20Z</time>
      </trkpt>
      <trkpt lat="51.600345997139812" lon="10.980058964341879">
        <ele>462.05000000000001</ele>
        <time>2017-05-22T10:10:21Z</time>
      </trkpt>
      <trkpt lat="51.599763035774231" lon="10.977353034541011">
        <ele>453.88</ele>
        <time>2017-05-22T10:10:28Z</time>
      </trkpt>
      <trkpt lat="51.599567988887429" lon="10.97526703029871">
        <ele>447.14999999999998</ele>
        <time>2017-05-22T10:10:33Z</time>
      </trkpt>
      <trkpt lat="51.59931200556457" lon="10.971010029315948">
        <ele>440.89999999999998</ele>
        <time>2017-05-22T10:10:43Z</time>
      </trkpt>
      <trkpt lat="51.598911015316844" lon="10.967811997979879">
        <ele>435.13</ele>
        <time>2017-05-22T10:10:51Z</time>
      </trkpt>
      <trkpt lat="51.598833985626698" lon="10.967480996623635">
        <ele>434.64999999999998</ele>
        <time>2017-05-22T10:10:52Z</time>
      </trkpt>
      <trkpt lat="51.598747987300158" lon="10.967143960297108">
        <ele>433.69</ele>
        <time>2017-05-22T10:10:53Z</time>
      </trkpt>
      <trkpt lat="51.598634999245405" lon="10.966817988082767">
        <ele>433.69</ele>
        <time>2017-05-22T10:10:54Z</time>
      </trkpt>
      <trkpt lat="51.598478006199002" lon="10.966511964797974">
        <ele>432.73000000000002</ele>
        <time>2017-05-22T10:10:55Z</time>
      </trkpt>
      <trkpt lat="51.598297962918878" lon="10.966247012838721">
        <ele>432.25</ele>
        <time>2017-05-22T10:10:56Z</time>
      </trkpt>
      <trkpt lat="51.598135018721223" lon="10.965988012030721">
        <ele>430.81</ele>
        <time>2017-05-22T10:10:57Z</time>
      </trkpt>
      <trkpt lat="51.597543004900217" lon="10.965081006288528">
        <ele>426.48000000000002</ele>
        <time>2017-05-22T10:11:01Z</time>
      </trkpt>
      <trkpt lat="51.597362039610744" lon="10.964896017685533">
        <ele>425.51999999999998</ele>
        <time>2017-05-22T10:11:02Z</time>
      </trkpt>
      <trkpt lat="51.597161963582039" lon="10.964730978012085">
        <ele>425.51999999999998</ele>
        <time>2017-05-22T10:11:03Z</time>
      </trkpt>
      <trkpt lat="51.596737001091242" lon="10.964511036872864">
        <ele>423.60000000000002</ele>
        <time>2017-05-22T10:11:05Z</time>
      </trkpt>
      <trkpt lat="51.596505995839834" lon="10.964454961940646">
        <ele>422.63999999999999</ele>
        <time>2017-05-22T10:11:06Z</time>
      </trkpt>
      <trkpt lat="51.59625998698175" lon="10.964428978040814">
        <ele>421.68000000000001</ele>
        <time>2017-05-22T10:11:07Z</time>
      </trkpt>
      <trkpt lat="51.594966994598508" lon="10.964239966124296">
        <ele>417.35000000000002</ele>
        <time>2017-05-22T10:11:13Z</time>
      </trkpt>
      <trkpt lat="51.594805978238583" lon="10.964132007211447">
        <ele>416.38999999999999</ele>
        <time>2017-05-22T10:11:14Z</time>
      </trkpt>
      <trkpt lat="51.594667006283998" lon="10.963994963094592">
        <ele>415.43000000000001</ele>
        <time>2017-05-22T10:11:15Z</time>
      </trkpt>
      <trkpt lat="51.594564998522401" lon="10.963848028331995">
        <ele>413.5</ele>
        <time>2017-05-22T10:11:16Z</time>
      </trkpt>
      <trkpt lat="51.594482017681003" lon="10.963604031130672">
        <ele>412.54000000000002</ele>
        <time>2017-05-22T10:11:17Z</time>
      </trkpt>
      <trkpt lat="51.594409011304379" lon="10.963332960382104">
        <ele>412.06</ele>
        <time>2017-05-22T10:11:18Z</time>
      </trkpt>
      <trkpt lat="51.594346985220909" lon="10.963029032573104">
        <ele>411.57999999999998</ele>
        <time>2017-05-22T10:11:19Z</time>
      </trkpt>
      <trkpt lat="51.594301974400878" lon="10.962680010125041">
        <ele>410.62</ele>
        <time>2017-05-22T10:11:20Z</time>
      </trkpt>
      <trkpt lat="51.594276996329427" lon="10.962316989898682">
        <ele>409.66000000000003</ele>
        <time>2017-05-22T10:11:21Z</time>
      </trkpt>
      <trkpt lat="51.594268027693033" lon="10.961950030177832">
        <ele>409.18000000000001</ele>
        <time>2017-05-22T10:11:22Z</time>
      </trkpt>
      <trkpt lat="51.59426199272275" lon="10.961596984416246">
        <ele>408.69999999999999</ele>
        <time>2017-05-22T10:11:23Z</time>
      </trkpt>
      <trkpt lat="51.594169037416577" lon="10.960994996130466">
        <ele>407.74000000000001</ele>
        <time>2017-05-22T10:11:25Z</time>
      </trkpt>
      <trkpt lat="51.59408999606967" lon="10.960710011422634">
        <ele>406.76999999999998</ele>
        <time>2017-05-22T10:11:26Z</time>
      </trkpt>
      <trkpt lat="51.593964016065001" lon="10.960450004786253">
        <ele>405.81</ele>
        <time>2017-05-22T10:11:27Z</time>
      </trkpt>
      <trkpt lat="51.593787996098399" lon="10.960211958736181">
        <ele>405.32999999999998</ele>
        <time>2017-05-22T10:11:28Z</time>
      </trkpt>
      <trkpt lat="51.593545004725456" lon="10.960015989840031">
        <ele>404.85000000000002</ele>
        <time>2017-05-22T10:11:29Z</time>
      </trkpt>
      <trkpt lat="51.593332020565867" lon="10.959823960438371">
        <ele>404.37</ele>
        <time>2017-05-22T10:11:30Z</time>
      </trkpt>
      <trkpt lat="51.593178967013955" lon="10.959608964622021">
        <ele>403.41000000000003</ele>
        <time>2017-05-22T10:11:31Z</time>
      </trkpt>
      <trkpt lat="51.59267202951014" lon="10.959038995206356">
        <ele>401.97000000000003</ele>
        <time>2017-05-22T10:11:34Z</time>
      </trkpt>
      <trkpt lat="51.592560969293118" lon="10.958835985511541">
        <ele>400.05000000000001</ele>
        <time>2017-05-22T10:11:35Z</time>
      </trkpt>
      <trkpt lat="51.592237008735538" lon="10.958097958937287">
        <ele>397.63999999999999</ele>
        <time>2017-05-22T10:11:38Z</time>
      </trkpt>
      <trkpt lat="51.591811962425709" lon="10.956294005736709">
        <ele>394.75999999999999</ele>
        <time>2017-05-22T10:11:44Z</time>
      </trkpt>
      <trkpt lat="51.591719007119536" lon="10.956071969121695">
        <ele>394.27999999999997</ele>
        <time>2017-05-22T10:11:45Z</time>
      </trkpt>
      <trkpt lat="51.591653963550925" lon="10.955864014104009">
        <ele>394.27999999999997</ele>
        <time>2017-05-22T10:11:46Z</time>
      </trkpt>
      <trkpt lat="51.591501999646425" lon="10.955745996907353">
        <ele>393.31999999999999</ele>
        <time>2017-05-22T10:11:47Z</time>
      </trkpt>
      <trkpt lat="51.591346012428403" lon="10.955658992752433">
        <ele>392.83999999999997</ele>
        <time>2017-05-22T10:11:48Z</time>
      </trkpt>
      <trkpt lat="51.591174015775323" lon="10.955625968053937">
        <ele>391.87</ele>
        <time>2017-05-22T10:11:49Z</time>
      </trkpt>
      <trkpt lat="51.591037977486849" lon="10.955603001639247">
        <ele>391.38999999999999</ele>
        <time>2017-05-22T10:11:50Z</time>
      </trkpt>
      <trkpt lat="51.590922977775335" lon="10.95561096444726">
        <ele>391.38999999999999</ele>
        <time>2017-05-22T10:11:51Z</time>
      </trkpt>
      <trkpt lat="51.590846031904221" lon="10.955638037994504">
        <ele>390.91000000000003</ele>
        <time>2017-05-22T10:11:52Z</time>
      </trkpt>
      <trkpt lat="51.590763973072171" lon="10.955843981355429">
        <ele>390.91000000000003</ele>
        <time>2017-05-22T10:11:53Z</time>
      </trkpt>
      <trkpt lat="51.590679986402392" lon="10.956033999100327">
        <ele>390.43000000000001</ele>
        <time>2017-05-22T10:11:54Z</time>
      </trkpt>
      <trkpt lat="51.590588958933949" lon="10.956255029886961">
        <ele>389.94999999999999</ele>
        <time>2017-05-22T10:11:55Z</time>
      </trkpt>
      <trkpt lat="51.590320989489555" lon="10.956765990704298">
        <ele>389.47000000000003</ele>
        <time>2017-05-22T10:11:57Z</time>
      </trkpt>
      <trkpt lat="51.58996501006186" lon="10.95717896707356">
        <ele>388.02999999999997</ele>
        <time>2017-05-22T10:11:59Z</time>
      </trkpt>
      <trkpt lat="51.589787984266877" lon="10.957333026453853">
        <ele>387.06999999999999</ele>
        <time>2017-05-22T10:12:00Z</time>
      </trkpt>
      <trkpt lat="51.589591009542346" lon="10.95750099979341">
        <ele>387.06999999999999</ele>
        <time>2017-05-22T10:12:01Z</time>
      </trkpt>
      <trkpt lat="51.589389005675912" lon="10.957621028646827">
        <ele>386.11000000000001</ele>
        <time>2017-05-22T10:12:02Z</time>
      </trkpt>
      <trkpt lat="51.589175015687943" lon="10.957725970074534">
        <ele>385.63</ele>
        <time>2017-05-22T10:12:03Z</time>
      </trkpt>
      <trkpt lat="51.588129960000515" lon="10.95816501416266">
        <ele>379.86000000000001</ele>
        <time>2017-05-22T10:12:08Z</time>
      </trkpt>
      <trkpt lat="51.587942959740758" lon="10.958345979452133">
        <ele>378.89999999999998</ele>
        <time>2017-05-22T10:12:09Z</time>
      </trkpt>
      <trkpt lat="51.586814001202583" lon="10.959779033437371">
        <ele>372.17000000000002</ele>
        <time>2017-05-22T10:12:16Z</time>
      </trkpt>
      <trkpt lat="51.586189968511462" lon="10.960139036178589">
        <ele>368.80000000000001</ele>
        <time>2017-05-22T10:12:20Z</time>
      </trkpt>
      <trkpt lat="51.586068011820316" lon="10.959881963208318">
        <ele>368.80000000000001</ele>
        <time>2017-05-22T10:12:21Z</time>
      </trkpt>
      <trkpt lat="51.585929039865732" lon="10.959507962688804">
        <ele>367.83999999999997</ele>
        <time>2017-05-22T10:12:22Z</time>
      </trkpt>
      <trkpt lat="51.584851965308189" lon="10.957854967564344">
        <ele>359.19</ele>
        <time>2017-05-22T10:12:29Z</time>
      </trkpt>
      <trkpt lat="51.583271976560354" lon="10.955772986635566">
        <ele>346.69</ele>
        <time>2017-05-22T10:12:39Z</time>
      </trkpt>
      <trkpt lat="51.582195991650224" lon="10.954469013959169">
        <ele>341.41000000000003</ele>
        <time>2017-05-22T10:12:46Z</time>
      </trkpt>
      <trkpt lat="51.581100979819894" lon="10.953022968024015">
        <ele>336.60000000000002</ele>
        <time>2017-05-22T10:12:55Z</time>
      </trkpt>
      <trkpt lat="51.580777019262314" lon="10.952572021633387">
        <ele>334.19999999999999</ele>
        <time>2017-05-22T10:12:58Z</time>
      </trkpt>
      <trkpt lat="51.580605022609234" lon="10.952488034963608">
        <ele>333.23000000000002</ele>
        <time>2017-05-22T10:12:59Z</time>
      </trkpt>
      <trkpt lat="51.579198958352208" lon="10.951919993385673">
        <ele>326.01999999999998</ele>
        <time>2017-05-22T10:13:08Z</time>
      </trkpt>
      <trkpt lat="51.578230010345578" lon="10.951702985912561">
        <ele>320.74000000000001</ele>
        <time>2017-05-22T10:13:15Z</time>
      </trkpt>
      <trkpt lat="51.578096989542246" lon="10.951707009226084">
        <ele>320.25999999999999</ele>
        <time>2017-05-22T10:13:16Z</time>
      </trkpt>
      <trkpt lat="51.577965980395675" lon="10.951731987297535">
        <ele>319.77999999999997</ele>
        <time>2017-05-22T10:13:17Z</time>
      </trkpt>
      <trkpt lat="51.577838994562626" lon="10.951780015602708">
        <ele>319.30000000000001</ele>
        <time>2017-05-22T10:13:18Z</time>
      </trkpt>
      <trkpt lat="51.577714020386338" lon="10.951856961473823">
        <ele>318.81</ele>
        <time>2017-05-22T10:13:19Z</time>
      </trkpt>
      <trkpt lat="51.577604971826077" lon="10.951951006427407">
        <ele>318.32999999999998</ele>
        <time>2017-05-22T10:13:20Z</time>
      </trkpt>
      <trkpt lat="51.577501958236098" lon="10.952059971168637">
        <ele>318.32999999999998</ele>
        <time>2017-05-22T10:13:21Z</time>
      </trkpt>
      <trkpt lat="51.577389976009727" lon="10.952185029163957">
        <ele>317.85000000000002</ele>
        <time>2017-05-22T10:13:22Z</time>
      </trkpt>
      <trkpt lat="51.577222002670169" lon="10.95243196003139">
        <ele>317.37</ele>
        <time>2017-05-22T10:13:24Z</time>
      </trkpt>
      <trkpt lat="51.576848002150655" lon="10.953077031299472">
        <ele>315.93000000000001</ele>
        <time>2017-05-22T10:13:29Z</time>
      </trkpt>
      <trkpt lat="51.576774995774031" lon="10.953213991597295">
        <ele>315.93000000000001</ele>
        <time>2017-05-22T10:13:30Z</time>
      </trkpt>
      <trkpt lat="51.576112993061543" lon="10.954473959282041">
        <ele>314.97000000000003</ele>
        <time>2017-05-22T10:13:40Z</time>
      </trkpt>
      <trkpt lat="51.576038980856538" lon="10.954631958156824">
        <ele>314.97000000000003</ele>
        <time>2017-05-22T10:13:42Z</time>
      </trkpt>
      <trkpt lat="51.576032023876905" lon="10.954709993675351">
        <ele>314.97000000000003</ele>
        <time>2017-05-22T10:13:43Z</time>
      </trkpt>
      <trkpt lat="51.576026994735003" lon="10.954794986173511">
        <ele>314.97000000000003</ele>
        <time>2017-05-22T10:13:44Z</time>
      </trkpt>
      <trkpt lat="51.5760219655931" lon="10.95485701225698">
        <ele>314.97000000000003</ele>
        <time>2017-05-22T10:13:45Z</time>
      </trkpt>
      <trkpt lat="51.576012996956706" lon="10.954919038340449">
        <ele>315.44999999999999</ele>
        <time>2017-05-22T10:13:46Z</time>
      </trkpt>
      <trkpt lat="51.575991036370397" lon="10.955001013353467">
        <ele>316.41000000000003</ele>
        <time>2017-05-22T10:13:49Z</time>
      </trkpt>
      <trkpt lat="51.575982989743352" lon="10.955031020566821">
        <ele>317.37</ele>
        <time>2017-05-22T10:13:50Z</time>
      </trkpt>
      <trkpt lat="51.575928004458547" lon="10.955032026395202">
        <ele>319.30000000000001</ele>
        <time>2017-05-22T10:14:02Z</time>
      </trkpt>
      <trkpt lat="51.575835971161723" lon="10.955025991424918">
        <ele>322.18000000000001</ele>
        <time>2017-05-22T10:14:38Z</time>
      </trkpt>
      <trkpt lat="51.575813004747033" lon="10.955033032223582">
        <ele>323.13999999999999</ele>
        <time>2017-05-22T10:15:12Z</time>
      </trkpt>
      <trkpt lat="51.5758700016886" lon="10.955028003081679">
        <ele>324.57999999999998</ele>
        <time>2017-05-22T10:15:38Z</time>
      </trkpt>
      <trkpt lat="51.575920041650534" lon="10.954907974228263">
        <ele>334.68000000000001</ele>
        <time>2017-05-22T10:16:22Z</time>
      </trkpt>
      <trkpt lat="51.57591300085187" lon="10.954905040562153">
        <ele>335.16000000000003</ele>
        <time>2017-05-22T10:16:24Z</time>
      </trkpt>
      <trkpt lat="51.575887016952038" lon="10.954923983663321">
        <ele>335.16000000000003</ele>
        <time>2017-05-22T10:16:25Z</time>
      </trkpt>
      <trkpt lat="51.575752990320325" lon="10.955038983374834">
        <ele>333.23000000000002</ele>
        <time>2017-05-22T10:16:28Z</time>
      </trkpt>
      <trkpt lat="51.575724994763732" lon="10.955080976709723">
        <ele>332.75</ele>
        <time>2017-05-22T10:16:29Z</time>
      </trkpt>
      <trkpt lat="51.575701022520661" lon="10.955124981701374">
        <ele>332.75</ele>
        <time>2017-05-22T10:16:30Z</time>
      </trkpt>
      <trkpt lat="51.575681995600462" lon="10.955168986693025">
        <ele>332.26999999999998</ele>
        <time>2017-05-22T10:16:31Z</time>
      </trkpt>
      <trkpt lat="51.575664980337024" lon="10.955213997513056">
        <ele>332.26999999999998</ele>
        <time>2017-05-22T10:16:32Z</time>
      </trkpt>
      <trkpt lat="51.575488960370421" lon="10.955528989434242">
        <ele>329.87</ele>
        <time>2017-05-22T10:16:38Z</time>
      </trkpt>
      <trkpt lat="51.575243035331368" lon="10.955926962196827">
        <ele>326.5</ele>
        <time>2017-05-22T10:16:47Z</time>
      </trkpt>
      <trkpt lat="51.574880015105009" lon="10.956377992406487">
        <ele>317.85000000000002</ele>
        <time>2017-05-22T10:16:57Z</time>
      </trkpt>
      <trkpt lat="51.574835004284978" lon="10.956385033205152">
        <ele>317.37</ele>
        <time>2017-05-22T10:16:58Z</time>
      </trkpt>
      <trkpt lat="51.574500985443592" lon="10.95640598796308">
        <ele>306.80000000000001</ele>
        <time>2017-05-22T10:17:08Z</time>
      </trkpt>
      <trkpt lat="51.574321025982499" lon="10.956195015460253">
        <ele>303.91000000000003</ele>
        <time>2017-05-22T10:17:15Z</time>
      </trkpt>
      <trkpt lat="51.574306022375822" lon="10.95614698715508">
        <ele>303.91000000000003</ele>
        <time>2017-05-22T10:17:16Z</time>
      </trkpt>
      <trkpt lat="51.5741500351578" lon="10.955490013584495">
        <ele>299.58999999999997</ele>
        <time>2017-05-22T10:17:28Z</time>
      </trkpt>
      <trkpt lat="51.573659023270011" lon="10.955093968659639">
        <ele>294.77999999999997</ele>
        <time>2017-05-22T10:17:39Z</time>
      </trkpt>
      <trkpt lat="51.573388958349824" lon="10.954873021692038">
        <ele>293.81999999999999</ele>
        <time>2017-05-22T10:17:49Z</time>
      </trkpt>
      <trkpt lat="51.573397004976869" lon="10.954825999215245">
        <ele>293.81999999999999</ele>
        <time>2017-05-22T10:17:50Z</time>
      </trkpt>
      <trkpt lat="51.573393987491727" lon="10.954795992001891">
        <ele>293.81999999999999</ele>
        <time>2017-05-22T10:17:51Z</time>
      </trkpt>
      <trkpt lat="51.573382001370192" lon="10.954418973997235">
        <ele>294.30000000000001</ele>
        <time>2017-05-22T10:18:02Z</time>
      </trkpt>
      <trkpt lat="51.573574030771852" lon="10.953884040936828">
        <ele>290.94</ele>
        <time>2017-05-22T10:18:16Z</time>
      </trkpt>
      <trkpt lat="51.573789026588202" lon="10.953187001869082">
        <ele>288.05000000000001</ele>
        <time>2017-05-22T10:18:31Z</time>
      </trkpt>
      <trkpt lat="51.57415104098618" lon="10.952435983344913">
        <ele>283.73000000000002</ele>
        <time>2017-05-22T10:18:47Z</time>
      </trkpt>
      <trkpt lat="51.574397971853614" lon="10.952132977545261">
        <ele>292.86000000000001</ele>
        <time>2017-05-22T10:19:00Z</time>
      </trkpt>
      <trkpt lat="51.57438900321722" lon="10.95210699364543">
        <ele>294.77999999999997</ele>
        <time>2017-05-22T10:19:10Z</time>
      </trkpt>
      <trkpt lat="51.57415104098618" lon="10.952460039407015">
        <ele>296.22000000000003</ele>
        <time>2017-05-22T10:19:20Z</time>
      </trkpt>
      <trkpt lat="51.574122039601207" lon="10.952503960579634">
        <ele>296.69999999999999</ele>
        <time>2017-05-22T10:19:21Z</time>
      </trkpt>
      <trkpt lat="51.574032017961144" lon="10.952633963897824">
        <ele>297.18000000000001</ele>
        <time>2017-05-22T10:19:24Z</time>
      </trkpt>
      <trkpt lat="51.574007961899042" lon="10.952682998031378">
        <ele>297.67000000000002</ele>
        <time>2017-05-22T10:19:25Z</time>
      </trkpt>
      <trkpt lat="51.573762036859989" lon="10.953367967158556">
        <ele>301.02999999999997</ele>
        <time>2017-05-22T10:19:39Z</time>
      </trkpt>
      <trkpt lat="51.573687018826604" lon="10.953715983778238">
        <ele>303.91000000000003</ele>
        <time>2017-05-22T10:19:48Z</time>
      </trkpt>
      <trkpt lat="51.573667991906404" lon="10.953748002648354">
        <ele>304.88</ele>
        <time>2017-05-22T10:19:49Z</time>
      </trkpt>
      <trkpt lat="51.573652988299727" lon="10.953773986548185">
        <ele>304.88</ele>
        <time>2017-05-22T10:19:50Z</time>
      </trkpt>
      <trkpt lat="51.573644019663334" lon="10.953809022903442">
        <ele>305.36000000000001</ele>
        <time>2017-05-22T10:19:51Z</time>
      </trkpt>
      <trkpt lat="51.573632033541799" lon="10.95384799875319">
        <ele>305.83999999999997</ele>
        <time>2017-05-22T10:19:52Z</time>
      </trkpt>
      <trkpt lat="51.5734420157969" lon="10.954488962888718">
        <ele>311.12</ele>
        <time>2017-05-22T10:20:05Z</time>
      </trkpt>
      <trkpt lat="51.573046976700425" lon="10.955139985308051">
        <ele>305.36000000000001</ele>
        <time>2017-05-22T10:20:20Z</time>
      </trkpt>
      <trkpt lat="51.572894006967545" lon="10.95552303828299">
        <ele>303.43000000000001</ele>
        <time>2017-05-22T10:20:28Z</time>
      </trkpt>
      <trkpt lat="51.572887971997261" lon="10.955566959455609">
        <ele>303.43000000000001</ele>
        <time>2017-05-22T10:20:29Z</time>
      </trkpt>
      <trkpt lat="51.572872968390584" lon="10.955613981932402">
        <ele>303.43000000000001</ele>
        <time>2017-05-22T10:20:30Z</time>
      </trkpt>
      <trkpt lat="51.572852013632655" lon="10.955650024116039">
        <ele>303.43000000000001</ele>
        <time>2017-05-22T10:20:31Z</time>
      </trkpt>
      <trkpt lat="51.572823012247682" lon="10.955680031329393">
        <ele>302.94999999999999</ele>
        <time>2017-05-22T10:20:32Z</time>
      </trkpt>
      <trkpt lat="51.572796022519469" lon="10.955712972208858">
        <ele>302.94999999999999</ele>
        <time>2017-05-22T10:20:33Z</time>
      </trkpt>
      <trkpt lat="51.572460997849703" lon="10.955922016873956">
        <ele>298.14999999999998</ele>
        <time>2017-05-22T10:20:43Z</time>
      </trkpt>
      <trkpt lat="51.572106024250388" lon="10.956151010468602">
        <ele>293.81999999999999</ele>
        <time>2017-05-22T10:20:55Z</time>
      </trkpt>
      <trkpt lat="51.571679972112179" lon="10.95636198297143">
        <ele>293.33999999999997</ele>
        <time>2017-05-22T10:21:07Z</time>
      </trkpt>
      <trkpt lat="51.571367997676134" lon="10.956701030954719">
        <ele>289.49000000000001</ele>
        <time>2017-05-22T10:21:23Z</time>
      </trkpt>
      <trkpt lat="51.571366991847754" lon="10.956725003197789">
        <ele>289.49000000000001</ele>
        <time>2017-05-22T10:21:24Z</time>
      </trkpt>
      <trkpt lat="51.571416025981307" lon="10.956754004582763">
        <ele>285.64999999999998</ele>
        <time>2017-05-22T10:21:31Z</time>
      </trkpt>
      <trkpt lat="51.571614006534219" lon="10.956488968804479">
        <ele>280.83999999999997</ele>
        <time>2017-05-22T10:21:43Z</time>
      </trkpt>
      <trkpt lat="51.571634039282799" lon="10.956402970477939">
        <ele>278.44</ele>
        <time>2017-05-22T10:21:47Z</time>
      </trkpt>
      <trkpt lat="51.571680977940559" lon="10.956356031820178">
        <ele>285.64999999999998</ele>
        <time>2017-05-22T10:22:05Z</time>
      </trkpt>
      <trkpt lat="51.571685001254082" lon="10.956353014335036">
        <ele>286.13</ele>
        <time>2017-05-22T10:23:33Z</time>
      </trkpt>
      <trkpt lat="51.571691958233714" lon="10.956347985193133">
        <ele>286.61000000000001</ele>
        <time>2017-05-22T10:25:21Z</time>
      </trkpt>
      <trkpt lat="51.571696987375617" lon="10.956344967707992">
        <ele>286.61000000000001</ele>
        <time>2017-05-22T10:27:08Z</time>
      </trkpt>
      <trkpt lat="51.571700004860759" lon="10.956329964101315">
        <ele>287.08999999999997</ele>
        <time>2017-05-22T10:28:14Z</time>
      </trkpt>
      <trkpt lat="51.571715008467436" lon="10.956308003515005">
        <ele>286.13</ele>
        <time>2017-05-22T10:28:16Z</time>
      </trkpt>
      <trkpt lat="51.571730012074113" lon="10.956369023770094">
        <ele>285.64999999999998</ele>
        <time>2017-05-22T10:28:24Z</time>
      </trkpt>
      <trkpt lat="51.571723977103829" lon="10.956387966871262">
        <ele>285.17000000000002</ele>
        <time>2017-05-22T10:28:25Z</time>
      </trkpt>
      <trkpt lat="51.571711990982294" lon="10.95640598796308">
        <ele>284.69</ele>
        <time>2017-05-22T10:28:26Z</time>
      </trkpt>
      <trkpt lat="51.571692964062095" lon="10.95642501488328">
        <ele>284.20999999999998</ele>
        <time>2017-05-22T10:28:27Z</time>
      </trkpt>
      <trkpt lat="51.57165901735425" lon="10.956452004611492">
        <ele>284.20999999999998</ele>
        <time>2017-05-22T10:28:28Z</time>
      </trkpt>
      <trkpt lat="51.571438992395997" lon="10.956674041226506">
        <ele>282.27999999999997</ele>
        <time>2017-05-22T10:28:35Z</time>
      </trkpt>
      <trkpt lat="51.57140102237463" lon="10.956709999591112">
        <ele>282.27999999999997</ele>
        <time>2017-05-22T10:28:36Z</time>
      </trkpt>
      <trkpt lat="51.571357017382979" lon="10.956743024289608">
        <ele>281.80000000000001</ele>
        <time>2017-05-22T10:28:37Z</time>
      </trkpt>
      <trkpt lat="51.571189966052771" lon="10.956843020394444">
        <ele>280.36000000000001</ele>
        <time>2017-05-22T10:28:41Z</time>
      </trkpt>
      <trkpt lat="51.571147972717881" lon="10.95685601234436">
        <ele>279.88</ele>
        <time>2017-05-22T10:28:42Z</time>
      </trkpt>
      <trkpt lat="51.570460991933942" lon="10.956929018720984">
        <ele>275.56</ele>
        <time>2017-05-22T10:28:55Z</time>
      </trkpt>
      <trkpt lat="51.57024197280407" lon="10.957031026482582">
        <ele>275.56</ele>
        <time>2017-05-22T10:28:59Z</time>
      </trkpt>
      <trkpt lat="51.570137031376362" lon="10.9570939745754">
        <ele>275.06999999999999</ele>
        <time>2017-05-22T10:29:01Z</time>
      </trkpt>
      <trkpt lat="51.56994097866118" lon="10.957224983721972">
        <ele>273.63</ele>
        <time>2017-05-22T10:29:05Z</time>
      </trkpt>
      <trkpt lat="51.56946798786521" lon="10.957420030608773">
        <ele>275.06999999999999</ele>
        <time>2017-05-22T10:29:13Z</time>
      </trkpt>
      <trkpt lat="51.568947974592447" lon="10.957636032253504">
        <ele>272.67000000000002</ele>
        <time>2017-05-22T10:29:21Z</time>
      </trkpt>
      <trkpt lat="51.568883014842868" lon="10.9576500300318">
        <ele>272.67000000000002</ele>
        <time>2017-05-22T10:29:22Z</time>
      </trkpt>
      <trkpt lat="51.568819982931018" lon="10.957654975354671">
        <ele>272.67000000000002</ele>
        <time>2017-05-22T10:29:23Z</time>
      </trkpt>
      <trkpt lat="51.567818010225892" lon="10.957511980086565">
        <ele>270.26999999999998</ele>
        <time>2017-05-22T10:29:38Z</time>
      </trkpt>
      <trkpt lat="51.567746009677649" lon="10.957528995350003">
        <ele>270.26999999999998</ele>
        <time>2017-05-22T10:29:39Z</time>
      </trkpt>
      <trkpt lat="51.566831041127443" lon="10.957709038630128">
        <ele>271.70999999999998</ele>
        <time>2017-05-22T10:29:49Z</time>
      </trkpt>
      <trkpt lat="51.56519397161901" lon="10.958035010844469">
        <ele>268.82999999999998</ele>
        <time>2017-05-22T10:30:03Z</time>
      </trkpt>
      <trkpt lat="51.564008016139269" lon="10.957793025299907">
        <ele>268.82999999999998</ele>
        <time>2017-05-22T10:30:13Z</time>
      </trkpt>
      <trkpt lat="51.563005037605762" lon="10.957466969266534">
        <ele>268.82999999999998</ele>
        <time>2017-05-22T10:30:20Z</time>
      </trkpt>
      <trkpt lat="51.562133990228176" lon="10.957152983173728">
        <ele>268.35000000000002</ele>
        <time>2017-05-22T10:30:25Z</time>
      </trkpt>
      <trkpt lat="51.56199099496007" lon="10.957053992897272">
        <ele>268.35000000000002</ele>
        <time>2017-05-22T10:30:26Z</time>
      </trkpt>
      <trkpt lat="51.561868032440543" lon="10.956928012892604">
        <ele>268.35000000000002</ele>
        <time>2017-05-22T10:30:27Z</time>
      </trkpt>
      <trkpt lat="51.561765018850565" lon="10.956782000139356">
        <ele>268.35000000000002</ele>
        <time>2017-05-22T10:30:28Z</time>
      </trkpt>
      <trkpt lat="51.56166703440249" lon="10.95662098377943">
        <ele>267.86000000000001</ele>
        <time>2017-05-22T10:30:29Z</time>
      </trkpt>
      <trkpt lat="51.56147601082921" lon="10.956317977979779">
        <ele>267.86000000000001</ele>
        <time>2017-05-22T10:30:31Z</time>
      </trkpt>
      <trkpt lat="51.561358999460936" lon="10.956224016845226">
        <ele>268.35000000000002</ele>
        <time>2017-05-22T10:30:32Z</time>
      </trkpt>
      <trkpt lat="51.561233019456267" lon="10.956166014075279">
        <ele>268.35000000000002</ele>
        <time>2017-05-22T10:30:33Z</time>
      </trkpt>
      <trkpt lat="51.561097986996174" lon="10.956150004640222">
        <ele>268.35000000000002</ele>
        <time>2017-05-22T10:30:34Z</time>
      </trkpt>
      <trkpt lat="51.560961026698351" lon="10.956172971054912">
        <ele>268.35000000000002</ele>
        <time>2017-05-22T10:30:35Z</time>
      </trkpt>
      <trkpt lat="51.560827000066638" lon="10.956250000745058">
        <ele>268.35000000000002</ele>
        <time>2017-05-22T10:30:36Z</time>
      </trkpt>
      <trkpt lat="51.560690039768815" lon="10.956358965486288">
        <ele>268.82999999999998</ele>
        <time>2017-05-22T10:30:37Z</time>
      </trkpt>
      <trkpt lat="51.560547966510057" lon="10.956487962976098">
        <ele>268.35000000000002</ele>
        <time>2017-05-22T10:30:38Z</time>
      </trkpt>
      <trkpt lat="51.559303002431989" lon="10.957319028675556">
        <ele>266.42000000000002</ele>
        <time>2017-05-22T10:30:46Z</time>
      </trkpt>
      <trkpt lat="51.558997984975576" lon="10.957417013123631">
        <ele>266.42000000000002</ele>
        <time>2017-05-22T10:30:48Z</time>
      </trkpt>
      <trkpt lat="51.558843003585935" lon="10.957430005073547">
        <ele>266.42000000000002</ele>
        <time>2017-05-22T10:30:49Z</time>
      </trkpt>
      <trkpt lat="51.558685004711151" lon="10.957425981760025">
        <ele>266.42000000000002</ele>
        <time>2017-05-22T10:30:50Z</time>
      </trkpt>
      <trkpt lat="51.55853102914989" lon="10.957399997860193">
        <ele>266.42000000000002</ele>
        <time>2017-05-22T10:30:51Z</time>
      </trkpt>
      <trkpt lat="51.558387028053403" lon="10.957341995090246">
        <ele>266.42000000000002</ele>
        <time>2017-05-22T10:30:52Z</time>
      </trkpt>
      <trkpt lat="51.558248978108168" lon="10.957259014248848">
        <ele>265.94</ele>
        <time>2017-05-22T10:30:53Z</time>
      </trkpt>
      <trkpt lat="51.558121992275119" lon="10.957146026194096">
        <ele>265.45999999999998</ele>
        <time>2017-05-22T10:30:54Z</time>
      </trkpt>
      <trkpt lat="51.558004980906844" lon="10.956999007612467">
        <ele>264.98000000000002</ele>
        <time>2017-05-22T10:30:55Z</time>
      </trkpt>
      <trkpt lat="51.557918982580304" lon="10.956799015402794">
        <ele>264.98000000000002</ele>
        <time>2017-05-22T10:30:56Z</time>
      </trkpt>
      <trkpt lat="51.557828960940242" lon="10.956590976566076">
        <ele>265.45999999999998</ele>
        <time>2017-05-22T10:30:57Z</time>
      </trkpt>
      <trkpt lat="51.557727036997676" lon="10.956400036811829">
        <ele>265.45999999999998</ele>
        <time>2017-05-22T10:30:58Z</time>
      </trkpt>
      <trkpt lat="51.557599967345595" lon="10.956228040158749">
        <ele>264.98000000000002</ele>
        <time>2017-05-22T10:30:59Z</time>
      </trkpt>
      <trkpt lat="51.557446997612715" lon="10.956087978556752">
        <ele>264.98000000000002</ele>
        <time>2017-05-22T10:31:00Z</time>
      </trkpt>
      <trkpt lat="51.557278018444777" lon="10.955956969410181">
        <ele>265.45999999999998</ele>
        <time>2017-05-22T10:31:01Z</time>
      </trkpt>
      <trkpt lat="51.557104010134935" lon="10.955851022154093">
        <ele>264.98000000000002</ele>
        <time>2017-05-22T10:31:02Z</time>
      </trkpt>
      <trkpt lat="51.556927990168333" lon="10.955750020220876">
        <ele>265.45999999999998</ele>
        <time>2017-05-22T10:31:03Z</time>
      </trkpt>
      <trkpt lat="51.556122992187738" lon="10.955015011131763">
        <ele>266.89999999999998</ele>
        <time>2017-05-22T10:31:08Z</time>
      </trkpt>
      <trkpt lat="51.555037032812834" lon="10.953663010150194">
        <ele>268.35000000000002</ele>
        <time>2017-05-22T10:31:15Z</time>
      </trkpt>
      <trkpt lat="51.554875010624528" lon="10.953561002388597">
        <ele>268.82999999999998</ele>
        <time>2017-05-22T10:31:16Z</time>
      </trkpt>
      <trkpt lat="51.554710976779461" lon="10.953493025153875">
        <ele>268.82999999999998</ele>
        <time>2017-05-22T10:31:17Z</time>
      </trkpt>
      <trkpt lat="51.554554989561439" lon="10.953494030982256">
        <ele>268.82999999999998</ele>
        <time>2017-05-22T10:31:18Z</time>
      </trkpt>
      <trkpt lat="51.554387016221881" lon="10.9535470046103">
        <ele>269.79000000000002</ele>
        <time>2017-05-22T10:31:19Z</time>
      </trkpt>
      <trkpt lat="51.55421401374042" lon="10.953616993501782">
        <ele>269.79000000000002</ele>
        <time>2017-05-22T10:31:20Z</time>
      </trkpt>
      <trkpt lat="51.554032964631915" lon="10.953699974343181">
        <ele>270.26999999999998</ele>
        <time>2017-05-22T10:31:21Z</time>
      </trkpt>
      <trkpt lat="51.552814990282059" lon="10.954319983720779">
        <ele>272.67000000000002</ele>
        <time>2017-05-22T10:31:28Z</time>
      </trkpt>
      <trkpt lat="51.552164973691106" lon="10.954478988423944">
        <ele>269.79000000000002</ele>
        <time>2017-05-22T10:31:32Z</time>
      </trkpt>
      <trkpt lat="51.552018960937858" lon="10.954426014795899">
        <ele>268.82999999999998</ele>
        <time>2017-05-22T10:31:33Z</time>
      </trkpt>
      <trkpt lat="51.55193698592484" lon="10.95416902564466">
        <ele>269.31</ele>
        <time>2017-05-22T10:31:34Z</time>
      </trkpt>
      <trkpt lat="51.551455026492476" lon="10.95331097021699">
        <ele>272.19</ele>
        <time>2017-05-22T10:31:38Z</time>
      </trkpt>
      <trkpt lat="51.551299961283803" lon="10.953130004927516">
        <ele>272.67000000000002</ele>
        <time>2017-05-22T10:31:39Z</time>
      </trkpt>
      <trkpt lat="51.550681963562965" lon="10.95251795835793">
        <ele>272.67000000000002</ele>
        <time>2017-05-22T10:31:43Z</time>
      </trkpt>
      <trkpt lat="51.550477026030421" lon="10.952434977516532">
        <ele>272.19</ele>
        <time>2017-05-22T10:31:44Z</time>
      </trkpt>
      <trkpt lat="51.549205994233489" lon="10.952075980603695">
        <ele>267.86000000000001</ele>
        <time>2017-05-22T10:31:50Z</time>
      </trkpt>
      <trkpt lat="51.547950971871614" lon="10.951179033145308">
        <ele>268.35000000000002</ele>
        <time>2017-05-22T10:31:56Z</time>
      </trkpt>
      <trkpt lat="51.546894013881683" lon="10.950480988249183">
        <ele>269.79000000000002</ele>
        <time>2017-05-22T10:32:02Z</time>
      </trkpt>
      <trkpt lat="51.546753030270338" lon="10.950441006571054">
        <ele>269.79000000000002</ele>
        <time>2017-05-22T10:32:03Z</time>
      </trkpt>
      <trkpt lat="51.545593980699778" lon="10.95013003796339">
        <ele>269.31</ele>
        <time>2017-05-22T10:32:12Z</time>
      </trkpt>
      <trkpt lat="51.545473029837012" lon="10.949992993846536">
        <ele>268.82999999999998</ele>
        <time>2017-05-22T10:32:13Z</time>
      </trkpt>
      <trkpt lat="51.544814966619015" lon="10.94965604133904">
        <ele>268.82999999999998</ele>
        <time>2017-05-22T10:32:18Z</time>
      </trkpt>
      <trkpt lat="51.544702984392643" lon="10.949639026075602">
        <ele>267.86000000000001</ele>
        <time>2017-05-22T10:32:19Z</time>
      </trkpt>
      <trkpt lat="51.544593013823032" lon="10.949640031903982">
        <ele>267.38</ele>
        <time>2017-05-22T10:32:20Z</time>
      </trkpt>
      <trkpt lat="51.544478014111519" lon="10.949686970561743">
        <ele>267.38</ele>
        <time>2017-05-22T10:32:21Z</time>
      </trkpt>
      <trkpt lat="51.544363014400005" lon="10.949764000251889">
        <ele>267.38</ele>
        <time>2017-05-22T10:32:22Z</time>
      </trkpt>
      <trkpt lat="51.544237034395337" lon="10.949863996356726">
        <ele>267.38</ele>
        <time>2017-05-22T10:32:23Z</time>
      </trkpt>
      <trkpt lat="51.54411599971354" lon="10.950027024373412">
        <ele>267.38</ele>
        <time>2017-05-22T10:32:24Z</time>
      </trkpt>
      <trkpt lat="51.543989013880491" lon="10.95017597079277">
        <ele>265.94</ele>
        <time>2017-05-22T10:32:25Z</time>
      </trkpt>
      <trkpt lat="51.54368500225246" lon="10.950481994077563">
        <ele>264.01999999999998</ele>
        <time>2017-05-22T10:32:27Z</time>
      </trkpt>
      <trkpt lat="51.543469000607729" lon="10.950628006830812">
        <ele>263.54000000000002</ele>
        <time>2017-05-22T10:32:28Z</time>
      </trkpt>
      <trkpt lat="51.543230032548308" lon="10.950747029855847">
        <ele>263.06</ele>
        <time>2017-05-22T10:32:29Z</time>
      </trkpt>
      <trkpt lat="51.542985029518604" lon="10.95083998516202">
        <ele>262.57999999999998</ele>
        <time>2017-05-22T10:32:30Z</time>
      </trkpt>
      <trkpt lat="51.542748995125294" lon="10.950895976275206">
        <ele>261.62</ele>
        <time>2017-05-22T10:32:31Z</time>
      </trkpt>
      <trkpt lat="51.542522013187408" lon="10.950933024287224">
        <ele>261.13999999999999</ele>
        <time>2017-05-22T10:32:32Z</time>
      </trkpt>
      <trkpt lat="51.542303999885917" lon="10.951008964329958">
        <ele>261.13999999999999</ele>
        <time>2017-05-22T10:32:33Z</time>
      </trkpt>
      <trkpt lat="51.542093027383089" lon="10.951128993183374">
        <ele>260.64999999999998</ele>
        <time>2017-05-22T10:32:34Z</time>
      </trkpt>
      <trkpt lat="51.541884988546371" lon="10.951294032856822">
        <ele>260.64999999999998</ele>
        <time>2017-05-22T10:32:35Z</time>
      </trkpt>
      <trkpt lat="51.540374988690019" lon="10.9524280205369">
        <ele>263.54000000000002</ele>
        <time>2017-05-22T10:32:42Z</time>
      </trkpt>
      <trkpt lat="51.539335967972875" lon="10.953837018460035">
        <ele>264.5</ele>
        <time>2017-05-22T10:32:48Z</time>
      </trkpt>
      <trkpt lat="51.538414964452386" lon="10.954874027520418">
        <ele>267.38</ele>
        <time>2017-05-22T10:32:53Z</time>
      </trkpt>
      <trkpt lat="51.537456996738911" lon="10.955400997772813">
        <ele>271.70999999999998</ele>
        <time>2017-05-22T10:32:58Z</time>
      </trkpt>
      <trkpt lat="51.537278965115547" lon="10.955540975555778">
        <ele>272.19</ele>
        <time>2017-05-22T10:32:59Z</time>
      </trkpt>
      <trkpt lat="51.536541022360325" lon="10.956110022962093">
        <ele>272.19</ele>
        <time>2017-05-22T10:33:03Z</time>
      </trkpt>
      <trkpt lat="51.536349998787045" lon="10.956199960783124">
        <ele>272.19</ele>
        <time>2017-05-22T10:33:04Z</time>
      </trkpt>
      <trkpt lat="51.53614598326385" lon="10.956271039322019">
        <ele>272.19</ele>
        <time>2017-05-22T10:33:05Z</time>
      </trkpt>
      <trkpt lat="51.535986978560686" lon="10.956142041832209">
        <ele>271.70999999999998</ele>
        <time>2017-05-22T10:33:06Z</time>
      </trkpt>
      <trkpt lat="51.535805007442832" lon="10.956080015748739">
        <ele>271.70999999999998</ele>
        <time>2017-05-22T10:33:07Z</time>
      </trkpt>
      <trkpt lat="51.535610966384411" lon="10.956083033233881">
        <ele>271.70999999999998</ele>
        <time>2017-05-22T10:33:08Z</time>
      </trkpt>
      <trkpt lat="51.535426983609796" lon="10.956095019355416">
        <ele>271.23000000000002</ele>
        <time>2017-05-22T10:33:09Z</time>
      </trkpt>
      <trkpt lat="51.534909987822175" lon="10.956123014912009">
        <ele>270.75</ele>
        <time>2017-05-22T10:33:12Z</time>
      </trkpt>
      <trkpt lat="51.534716030582786" lon="10.956195015460253">
        <ele>270.75</ele>
        <time>2017-05-22T10:33:13Z</time>
      </trkpt>
      <trkpt lat="51.534517966210842" lon="10.95629601739347">
        <ele>271.23000000000002</ele>
        <time>2017-05-22T10:33:14Z</time>
      </trkpt>
      <trkpt lat="51.532955998554826" lon="10.957163963466883">
        <ele>270.75</ele>
        <time>2017-05-22T10:33:22Z</time>
      </trkpt>
      <trkpt lat="51.532760029658675" lon="10.957139991223812">
        <ele>270.26999999999998</ele>
        <time>2017-05-22T10:33:23Z</time>
      </trkpt>
      <trkpt lat="51.531621012836695" lon="10.957126999273896">
        <ele>265.94</ele>
        <time>2017-05-22T10:33:29Z</time>
      </trkpt>
      <trkpt lat="51.531487992033362" lon="10.956978974863887">
        <ele>264.98000000000002</ele>
        <time>2017-05-22T10:33:30Z</time>
      </trkpt>
      <trkpt lat="51.531363017857075" lon="10.956816030666232">
        <ele>264.01999999999998</ele>
        <time>2017-05-22T10:33:31Z</time>
      </trkpt>
      <trkpt lat="51.531241983175278" lon="10.956539008766413">
        <ele>263.06</ele>
        <time>2017-05-22T10:33:32Z</time>
      </trkpt>
      <trkpt lat="51.531114997342229" lon="10.956280007958412">
        <ele>262.10000000000002</ele>
        <time>2017-05-22T10:33:33Z</time>
      </trkpt>
      <trkpt lat="51.530109001323581" lon="10.954530034214258">
        <ele>249.59999999999999</ele>
        <time>2017-05-22T10:33:40Z</time>
      </trkpt>
      <trkpt lat="51.529387990012765" lon="10.952883996069431">
        <ele>239.99000000000001</ele>
        <time>2017-05-22T10:33:49Z</time>
      </trkpt>
      <trkpt lat="51.528494982048869" lon="10.951151959598064">
        <ele>226.53</ele>
        <time>2017-05-22T10:34:01Z</time>
      </trkpt>
      <trkpt lat="51.528384005650878" lon="10.951035032048821">
        <ele>226.53</ele>
        <time>2017-05-22T10:34:02Z</time>
      </trkpt>
      <trkpt lat="51.528275040909648" lon="10.950934030115604">
        <ele>226.05000000000001</ele>
        <time>2017-05-22T10:34:03Z</time>
      </trkpt>
      <trkpt lat="51.528159035369754" lon="10.950851971283555">
        <ele>225.56999999999999</ele>
        <time>2017-05-22T10:34:04Z</time>
      </trkpt>
      <trkpt lat="51.526979031041265" lon="10.95004596747458">
        <ele>220.28</ele>
        <time>2017-05-22T10:34:13Z</time>
      </trkpt>
      <trkpt lat="51.526438985019922" lon="10.949494019150734">
        <ele>218.84</ele>
        <time>2017-05-22T10:34:20Z</time>
      </trkpt>
      <trkpt lat="51.526300013065338" lon="10.949354963377118">
        <ele>216.91</ele>
        <time>2017-05-22T10:34:30Z</time>
      </trkpt>
      <trkpt lat="51.526108989492059" lon="10.949146002531052">
        <ele>216.43000000000001</ele>
        <time>2017-05-22T10:34:44Z</time>
      </trkpt>
      <trkpt lat="51.525525022298098" lon="10.948493974283338">
        <ele>216.91</ele>
        <time>2017-05-22T10:34:55Z</time>
      </trkpt>
      <trkpt lat="51.524963015690446" lon="10.947900032624602">
        <ele>217.40000000000001</ele>
        <time>2017-05-22T10:35:03Z</time>
      </trkpt>
      <trkpt lat="51.524706026539207" lon="10.947588980197906">
        <ele>216.91</ele>
        <time>2017-05-22T10:35:07Z</time>
      </trkpt>
      <trkpt lat="51.524659004062414" lon="10.947500970214605">
        <ele>216.91</ele>
        <time>2017-05-22T10:35:08Z</time>
      </trkpt>
      <trkpt lat="51.524622961878777" lon="10.947413966059685">
        <ele>216.91</ele>
        <time>2017-05-22T10:35:09Z</time>
      </trkpt>
      <trkpt lat="51.52460603043437" lon="10.947296032682061">
        <ele>215.94999999999999</ele>
        <time>2017-05-22T10:35:10Z</time>
      </trkpt>
      <trkpt lat="51.524607958272099" lon="10.947143984958529">
        <ele>215.94999999999999</ele>
        <time>2017-05-22T10:35:11Z</time>
      </trkpt>
      <trkpt lat="51.524622039869428" lon="10.946966037154198">
        <ele>215.94999999999999</ele>
        <time>2017-05-22T10:35:12Z</time>
      </trkpt>
      <trkpt lat="51.524770986288786" lon="10.944065982475877">
        <ele>215.47</ele>
        <time>2017-05-22T10:35:26Z</time>
      </trkpt>
      <trkpt lat="51.524847010150552" lon="10.941861039027572">
        <ele>217.40000000000001</ele>
        <time>2017-05-22T10:35:34Z</time>
      </trkpt>
      <trkpt lat="51.524954969063401" lon="10.940507026389241">
        <ele>218.84</ele>
        <time>2017-05-22T10:35:38Z</time>
      </trkpt>
      <trkpt lat="51.525025963783264" lon="10.940156998112798">
        <ele>219.31999999999999</ele>
        <time>2017-05-22T10:35:39Z</time>
      </trkpt>
      <trkpt lat="51.52574404142797" lon="10.937008000910282">
        <ele>221.72</ele>
        <time>2017-05-22T10:35:47Z</time>
      </trkpt>
      <trkpt lat="51.526851039379835" lon="10.932128978893161">
        <ele>224.61000000000001</ele>
        <time>2017-05-22T10:35:58Z</time>
      </trkpt>
      <trkpt lat="51.527676992118359" lon="10.928425015881658">
        <ele>222.68000000000001</ele>
        <time>2017-05-22T10:36:07Z</time>
      </trkpt>
      <trkpt lat="51.528021991252899" lon="10.926909986883402">
        <ele>223.63999999999999</ele>
        <time>2017-05-22T10:36:13Z</time>
      </trkpt>
      <trkpt lat="51.52840998955071" lon="10.925288004800677">
        <ele>222.68000000000001</ele>
        <time>2017-05-22T10:36:23Z</time>
      </trkpt>
      <trkpt lat="51.528427004814148" lon="10.925139980390668">
        <ele>222.68000000000001</ele>
        <time>2017-05-22T10:36:24Z</time>
      </trkpt>
      <trkpt lat="51.528524989262223" lon="10.924257030710578">
        <ele>221.72</ele>
        <time>2017-05-22T10:36:30Z</time>
      </trkpt>
      <trkpt lat="51.528570000082254" lon="10.924104982987046">
        <ele>221.72</ele>
        <time>2017-05-22T10:36:31Z</time>
      </trkpt>
      <trkpt lat="51.528620040044188" lon="10.923963999375701">
        <ele>221.72</ele>
        <time>2017-05-22T10:36:32Z</time>
      </trkpt>
      <trkpt lat="51.528680976480246" lon="10.923837013542652">
        <ele>221.72</ele>
        <time>2017-05-22T10:36:33Z</time>
      </trkpt>
      <trkpt lat="51.528746020048857" lon="10.923716984689236">
        <ele>221.72</ele>
        <time>2017-05-22T10:36:34Z</time>
      </trkpt>
      <trkpt lat="51.528820032253861" lon="10.923611037433147">
        <ele>221.24000000000001</ele>
        <time>2017-05-22T10:36:35Z</time>
      </trkpt>
      <trkpt lat="51.528901001438498" lon="10.923515986651182">
        <ele>221.24000000000001</ele>
        <time>2017-05-22T10:36:36Z</time>
      </trkpt>
      <trkpt lat="51.528981970623136" lon="10.92342403717339">
        <ele>221.24000000000001</ele>
        <time>2017-05-22T10:36:37Z</time>
      </trkpt>
      <trkpt lat="51.529215993359685" lon="10.923099992796779">
        <ele>220.75999999999999</ele>
        <time>2017-05-22T10:36:40Z</time>
      </trkpt>
      <trkpt lat="51.529284976422787" lon="10.922935036942363">
        <ele>221.24000000000001</ele>
        <time>2017-05-22T10:36:41Z</time>
      </trkpt>
      <trkpt lat="51.529339961707592" lon="10.922731021419168">
        <ele>221.72</ele>
        <time>2017-05-22T10:36:42Z</time>
      </trkpt>
      <trkpt lat="51.529770959168673" lon="10.920842997729778">
        <ele>225.09</ele>
        <time>2017-05-22T10:36:49Z</time>
      </trkpt>
      <trkpt lat="51.530229030176997" lon="10.91899897903204">
        <ele>225.56999999999999</ele>
        <time>2017-05-22T10:36:55Z</time>
      </trkpt>
      <trkpt lat="51.530358027666807" lon="10.918736038729548">
        <ele>226.05000000000001</ele>
        <time>2017-05-22T10:36:56Z</time>
      </trkpt>
      <trkpt lat="51.530518960207701" lon="10.918493969365954">
        <ele>227.00999999999999</ele>
        <time>2017-05-22T10:36:57Z</time>
      </trkpt>
      <trkpt lat="51.531838020309806" lon="10.916799986734986">
        <ele>227.97</ele>
        <time>2017-05-22T10:37:05Z</time>
      </trkpt>
      <trkpt lat="51.532743014395237" lon="10.915714027360082">
        <ele>227.00999999999999</ele>
        <time>2017-05-22T10:37:11Z</time>
      </trkpt>
      <trkpt lat="51.533572990447283" lon="10.9143350366503">
        <ele>226.53</ele>
        <time>2017-05-22T10:37:16Z</time>
      </trkpt>
      <trkpt lat="51.534603964537382" lon="10.912336958572268">
        <ele>230.37</ele>
        <time>2017-05-22T10:37:23Z</time>
      </trkpt>
      <trkpt lat="51.534796999767423" lon="10.911748968064785">
        <ele>230.84999999999999</ele>
        <time>2017-05-22T10:37:25Z</time>
      </trkpt>
      <trkpt lat="51.534863971173763" lon="10.91141302138567">
        <ele>231.33000000000001</ele>
        <time>2017-05-22T10:37:26Z</time>
      </trkpt>
      <trkpt lat="51.534905964508653" lon="10.91105000115931">
        <ele>231.81</ele>
        <time>2017-05-22T10:37:27Z</time>
      </trkpt>
      <trkpt lat="51.534989029169083" lon="10.909301033243537">
        <ele>233.74000000000001</ele>
        <time>2017-05-22T10:37:32Z</time>
      </trkpt>
      <trkpt lat="51.534974025562406" lon="10.90900800190866">
        <ele>234.22</ele>
        <time>2017-05-22T10:37:33Z</time>
      </trkpt>
      <trkpt lat="51.534817032516003" lon="10.907151997089386">
        <ele>239.02000000000001</ele>
        <time>2017-05-22T10:37:38Z</time>
      </trkpt>
      <trkpt lat="51.53470697812736" lon="10.905524985864758">
        <ele>244.78999999999999</ele>
        <time>2017-05-22T10:37:43Z</time>
      </trkpt>
      <trkpt lat="51.534718964248896" lon="10.905223991721869">
        <ele>246.22999999999999</ele>
        <time>2017-05-22T10:37:44Z</time>
      </trkpt>
      <trkpt lat="51.534754000604153" lon="10.904959039762616">
        <ele>247.19999999999999</ele>
        <time>2017-05-22T10:37:45Z</time>
      </trkpt>
      <trkpt lat="51.53481300920248" lon="10.904719987884164">
        <ele>248.63999999999999</ele>
        <time>2017-05-22T10:37:46Z</time>
      </trkpt>
      <trkpt lat="51.534890960901976" lon="10.90449501760304">
        <ele>250.08000000000001</ele>
        <time>2017-05-22T10:37:47Z</time>
      </trkpt>
      <trkpt lat="51.534967990592122" lon="10.90425998903811">
        <ele>250.56</ele>
        <time>2017-05-22T10:37:48Z</time>
      </trkpt>
      <trkpt lat="51.535043008625507" lon="10.904011968523264">
        <ele>251.03999999999999</ele>
        <time>2017-05-22T10:37:49Z</time>
      </trkpt>
      <trkpt lat="51.535097993910313" lon="10.90374399907887">
        <ele>251.52000000000001</ele>
        <time>2017-05-22T10:37:50Z</time>
      </trkpt>
      <trkpt lat="51.535269990563393" lon="10.902889966964722">
        <ele>253.93000000000001</ele>
        <time>2017-05-22T10:37:53Z</time>
      </trkpt>
      <trkpt lat="51.535367975011468" lon="10.902633983641863">
        <ele>253.93000000000001</ele>
        <time>2017-05-22T10:37:54Z</time>
      </trkpt>
      <trkpt lat="51.535600991919637" lon="10.902091003954411">
        <ele>253.93000000000001</ele>
        <time>2017-05-22T10:37:56Z</time>
      </trkpt>
      <trkpt lat="51.535683972761035" lon="10.901797972619534">
        <ele>253.93000000000001</ele>
        <time>2017-05-22T10:37:57Z</time>
      </trkpt>
      <trkpt lat="51.535919001325965" lon="10.900985011830926">
        <ele>254.88999999999999</ele>
        <time>2017-05-22T10:38:00Z</time>
      </trkpt>
      <trkpt lat="51.536013968288898" lon="10.900774039328098">
        <ele>254.88999999999999</ele>
        <time>2017-05-22T10:38:01Z</time>
      </trkpt>
      <trkpt lat="51.536131985485554" lon="10.900612017139792">
        <ele>254.88999999999999</ele>
        <time>2017-05-22T10:38:02Z</time>
      </trkpt>
      <trkpt lat="51.536270035430789" lon="10.900495005771518">
        <ele>254.88999999999999</ele>
        <time>2017-05-22T10:38:03Z</time>
      </trkpt>
      <trkpt lat="51.536449994891882" lon="10.900443037971854">
        <ele>255.84999999999999</ele>
        <time>2017-05-22T10:38:04Z</time>
      </trkpt>
      <trkpt lat="51.53661897405982" lon="10.900403978303075">
        <ele>255.84999999999999</ele>
        <time>2017-05-22T10:38:05Z</time>
      </trkpt>
      <trkpt lat="51.536943018436432" lon="10.900325020775199">
        <ele>254.88999999999999</ele>
        <time>2017-05-22T10:38:07Z</time>
      </trkpt>
      <trkpt lat="51.53708903118968" lon="10.900237010791898">
        <ele>254.41</ele>
        <time>2017-05-22T10:38:08Z</time>
      </trkpt>
      <trkpt lat="51.537223979830742" lon="10.900104995816946">
        <ele>253.93000000000001</ele>
        <time>2017-05-22T10:38:09Z</time>
      </trkpt>
      <trkpt lat="51.537333028391004" lon="10.899925958365202">
        <ele>253.44</ele>
        <time>2017-05-22T10:38:10Z</time>
      </trkpt>
      <trkpt lat="51.537421038374305" lon="10.899716997519135">
        <ele>252.96000000000001</ele>
        <time>2017-05-22T10:38:11Z</time>
      </trkpt>
      <trkpt lat="51.537478035315871" lon="10.899477023631334">
        <ele>252.96000000000001</ele>
        <time>2017-05-22T10:38:12Z</time>
      </trkpt>
      <trkpt lat="51.537493960931897" lon="10.899215005338192">
        <ele>252</ele>
        <time>2017-05-22T10:38:13Z</time>
      </trkpt>
      <trkpt lat="51.537478035315871" lon="10.898948041722178">
        <ele>251.03999999999999</ele>
        <time>2017-05-22T10:38:14Z</time>
      </trkpt>
      <trkpt lat="51.537421960383654" lon="10.89867202565074">
        <ele>250.56</ele>
        <time>2017-05-22T10:38:15Z</time>
      </trkpt>
      <trkpt lat="51.537358006462455" lon="10.898397015407681">
        <ele>250.08000000000001</ele>
        <time>2017-05-22T10:38:16Z</time>
      </trkpt>
      <trkpt lat="51.537310983985662" lon="10.898105995729566">
        <ele>250.08000000000001</ele>
        <time>2017-05-22T10:38:17Z</time>
      </trkpt>
      <trkpt lat="51.536818966269493" lon="10.894921962171793">
        <ele>256.81</ele>
        <time>2017-05-22T10:38:27Z</time>
      </trkpt>
      <trkpt lat="51.536714024841785" lon="10.893991990014911">
        <ele>259.69</ele>
        <time>2017-05-22T10:38:30Z</time>
      </trkpt>
      <trkpt lat="51.536732967942953" lon="10.893676998093724">
        <ele>260.64999999999998</ele>
        <time>2017-05-22T10:38:31Z</time>
      </trkpt>
      <trkpt lat="51.536784013733268" lon="10.893354965373874">
        <ele>261.62</ele>
        <time>2017-05-22T10:38:32Z</time>
      </trkpt>
      <trkpt lat="51.537474012002349" lon="10.890491036698222">
        <ele>264.98000000000002</ele>
        <time>2017-05-22T10:38:41Z</time>
      </trkpt>
      <trkpt lat="51.537896962836385" lon="10.888631008565426">
        <ele>269.31</ele>
        <time>2017-05-22T10:38:47Z</time>
      </trkpt>
      <trkpt lat="51.537934010848403" lon="10.888278968632221">
        <ele>271.23000000000002</ele>
        <time>2017-05-22T10:38:48Z</time>
      </trkpt>
      <trkpt lat="51.537943985313177" lon="10.887917038053274">
        <ele>272.67000000000002</ele>
        <time>2017-05-22T10:38:49Z</time>
      </trkpt>
      <trkpt lat="51.537924958392978" lon="10.887552006170154">
        <ele>273.63</ele>
        <time>2017-05-22T10:38:50Z</time>
      </trkpt>
      <trkpt lat="51.537896962836385" lon="10.88717901147902">
        <ele>274.58999999999997</ele>
        <time>2017-05-22T10:38:51Z</time>
      </trkpt>
      <trkpt lat="51.537479963153601" lon="10.882411971688271">
        <ele>286.61000000000001</ele>
        <time>2017-05-22T10:39:03Z</time>
      </trkpt>
      <trkpt lat="51.537382984533906" lon="10.881026023998857">
        <ele>291.42000000000002</ele>
        <time>2017-05-22T10:39:07Z</time>
      </trkpt>
      <trkpt lat="51.537398993968964" lon="10.880683958530426">
        <ele>292.38</ele>
        <time>2017-05-22T10:39:08Z</time>
      </trkpt>
      <trkpt lat="51.537437969818711" lon="10.880348011851311">
        <ele>293.33999999999997</ele>
        <time>2017-05-22T10:39:09Z</time>
      </trkpt>
      <trkpt lat="51.537504019215703" lon="10.879992032423615">
        <ele>294.77999999999997</ele>
        <time>2017-05-22T10:39:10Z</time>
      </trkpt>
      <trkpt lat="51.537578031420708" lon="10.879632029682398">
        <ele>296.22000000000003</ele>
        <time>2017-05-22T10:39:11Z</time>
      </trkpt>
      <trkpt lat="51.538409013301134" lon="10.875332029536366">
        <ele>298.63</ele>
        <time>2017-05-22T10:39:22Z</time>
      </trkpt>
      <trkpt lat="51.539433030411601" lon="10.870174979791045">
        <ele>307.75999999999999</ele>
        <time>2017-05-22T10:39:36Z</time>
      </trkpt>
      <trkpt lat="51.539529003202915" lon="10.869932994246483">
        <ele>309.19999999999999</ele>
        <time>2017-05-22T10:39:37Z</time>
      </trkpt>
      <trkpt lat="51.539630005136132" lon="10.869721015915275">
        <ele>310.16000000000003</ele>
        <time>2017-05-22T10:39:38Z</time>
      </trkpt>
      <trkpt lat="51.539827985689044" lon="10.869353972375393">
        <ele>311.12</ele>
        <time>2017-05-22T10:39:40Z</time>
      </trkpt>
      <trkpt lat="51.540355961769819" lon="10.868518967181444">
        <ele>312.08999999999997</ele>
        <time>2017-05-22T10:39:47Z</time>
      </trkpt>
      <trkpt lat="51.540469033643603" lon="10.868321992456913">
        <ele>312.08999999999997</ele>
        <time>2017-05-22T10:39:49Z</time>
      </trkpt>
      <trkpt lat="51.540518989786506" lon="10.868213027715683">
        <ele>312.08999999999997</ele>
        <time>2017-05-22T10:39:50Z</time>
      </trkpt>
      <trkpt lat="51.540555031970143" lon="10.86807900108397">
        <ele>312.56999999999999</ele>
        <time>2017-05-22T10:39:51Z</time>
      </trkpt>
      <trkpt lat="51.54057296924293" lon="10.867939023301005">
        <ele>312.08999999999997</ele>
        <time>2017-05-22T10:39:52Z</time>
      </trkpt>
      <trkpt lat="51.540575986728072" lon="10.867793010547757">
        <ele>312.08999999999997</ele>
        <time>2017-05-22T10:39:53Z</time>
      </trkpt>
      <trkpt lat="51.540568023920059" lon="10.867644986137748">
        <ele>312.08999999999997</ele>
        <time>2017-05-22T10:39:54Z</time>
      </trkpt>
      <trkpt lat="51.540543967857957" lon="10.867508025839925">
        <ele>311.60000000000002</ele>
        <time>2017-05-22T10:39:55Z</time>
      </trkpt>
      <trkpt lat="51.540518989786506" lon="10.867363018915057">
        <ele>311.60000000000002</ele>
        <time>2017-05-22T10:39:56Z</time>
      </trkpt>
      <trkpt lat="51.540531981736422" lon="10.867073005065322">
        <ele>311.60000000000002</ele>
        <time>2017-05-22T10:39:58Z</time>
      </trkpt>
      <trkpt lat="51.540834987536073" lon="10.865122033283114">
        <ele>314.00999999999999</ele>
        <time>2017-05-22T10:40:10Z</time>
      </trkpt>
      <trkpt lat="51.541142016649246" lon="10.864059962332249">
        <ele>317.37</ele>
        <time>2017-05-22T10:40:18Z</time>
      </trkpt>
      <trkpt lat="51.541158026084304" lon="10.863913027569652">
        <ele>317.85000000000002</ele>
        <time>2017-05-22T10:40:19Z</time>
      </trkpt>
      <trkpt lat="51.541333040222526" lon="10.862093986943364">
        <ele>324.10000000000002</ele>
        <time>2017-05-22T10:40:32Z</time>
      </trkpt>
      <trkpt lat="51.541347038000822" lon="10.86146199144423">
        <ele>326.99000000000001</ele>
        <time>2017-05-22T10:40:36Z</time>
      </trkpt>
      <trkpt lat="51.541337985545397" lon="10.861303992569447">
        <ele>328.43000000000001</ele>
        <time>2017-05-22T10:40:37Z</time>
      </trkpt>
      <trkpt lat="51.541318958625197" lon="10.861155968159437">
        <ele>329.38999999999999</ele>
        <time>2017-05-22T10:40:38Z</time>
      </trkpt>
      <trkpt lat="51.541290963068604" lon="10.861020013689995">
        <ele>330.35000000000002</ele>
        <time>2017-05-22T10:40:39Z</time>
      </trkpt>
      <trkpt lat="51.541256010532379" lon="10.860883975401521">
        <ele>331.79000000000002</ele>
        <time>2017-05-22T10:40:40Z</time>
      </trkpt>
      <trkpt lat="51.541210999712348" lon="10.860742991790175">
        <ele>333.23000000000002</ele>
        <time>2017-05-22T10:40:41Z</time>
      </trkpt>
      <trkpt lat="51.541155008599162" lon="10.86060200817883">
        <ele>334.19999999999999</ele>
        <time>2017-05-22T10:40:42Z</time>
      </trkpt>
      <trkpt lat="51.541077978909016" lon="10.860464964061975">
        <ele>334.19999999999999</ele>
        <time>2017-05-22T10:40:43Z</time>
      </trkpt>
      <trkpt lat="51.541001033037901" lon="10.860310988500714">
        <ele>335.16000000000003</ele>
        <time>2017-05-22T10:40:44Z</time>
      </trkpt>
      <trkpt lat="51.54005597345531" lon="10.858449032530189">
        <ele>341.41000000000003</ele>
        <time>2017-05-22T10:40:54Z</time>
      </trkpt>
      <trkpt lat="51.538925003260374" lon="10.856224978342652">
        <ele>345.73000000000002</ele>
        <time>2017-05-22T10:41:03Z</time>
      </trkpt>
      <trkpt lat="51.538758035749197" lon="10.856019034981728">
        <ele>345.25</ele>
        <time>2017-05-22T10:41:04Z</time>
      </trkpt>
      <trkpt lat="51.53844497166574" lon="10.855601029470563">
        <ele>343.32999999999998</ele>
        <time>2017-05-22T10:41:06Z</time>
      </trkpt>
      <trkpt lat="51.538311028853059" lon="10.855369018390775">
        <ele>341.88999999999999</ele>
        <time>2017-05-22T10:41:07Z</time>
      </trkpt>
      <trkpt lat="51.538197034969926" lon="10.855099037289619">
        <ele>340.44</ele>
        <time>2017-05-22T10:41:08Z</time>
      </trkpt>
      <trkpt lat="51.538098966702819" lon="10.854789996519685">
        <ele>339</ele>
        <time>2017-05-22T10:41:09Z</time>
      </trkpt>
      <trkpt lat="51.538002993911505" lon="10.854451032355428">
        <ele>337.56</ele>
        <time>2017-05-22T10:41:10Z</time>
      </trkpt>
      <trkpt lat="51.536926003172994" lon="10.850636009126902">
        <ele>318.32999999999998</ele>
        <time>2017-05-22T10:41:21Z</time>
      </trkpt>
      <trkpt lat="51.535938028246164" lon="10.847196998074651">
        <ele>294.30000000000001</ele>
        <time>2017-05-22T10:41:31Z</time>
      </trkpt>
      <trkpt lat="51.535710962489247" lon="10.846522003412247">
        <ele>289.49000000000001</ele>
        <time>2017-05-22T10:41:33Z</time>
      </trkpt>
      <trkpt lat="51.535574002191424" lon="10.846223020926118">
        <ele>288.05000000000001</ele>
        <time>2017-05-22T10:41:34Z</time>
      </trkpt>
      <trkpt lat="51.535419020801783" lon="10.845947004854679">
        <ele>286.61000000000001</ele>
        <time>2017-05-22T10:41:35Z</time>
      </trkpt>
      <trkpt lat="51.534590972587466" lon="10.844640014693141">
        <ele>283.73000000000002</ele>
        <time>2017-05-22T10:41:40Z</time>
      </trkpt>
      <trkpt lat="51.53449198231101" lon="10.844384031370282">
        <ele>284.69</ele>
        <time>2017-05-22T10:41:41Z</time>
      </trkpt>
      <trkpt lat="51.534418975934386" lon="10.844112960621715">
        <ele>286.13</ele>
        <time>2017-05-22T10:41:42Z</time>
      </trkpt>
      <trkpt lat="51.533897034823895" lon="10.841526975855231">
        <ele>284.69</ele>
        <time>2017-05-22T10:41:50Z</time>
      </trkpt>
      <trkpt lat="51.532938983291388" lon="10.836881976574659">
        <ele>286.13</ele>
        <time>2017-05-22T10:42:03Z</time>
      </trkpt>
      <trkpt lat="51.532663973048329" lon="10.834658006206155">
        <ele>287.08999999999997</ele>
        <time>2017-05-22T10:42:10Z</time>
      </trkpt>
      <trkpt lat="51.532580992206931" lon="10.834031961858273">
        <ele>286.61000000000001</ele>
        <time>2017-05-22T10:42:12Z</time>
      </trkpt>
      <trkpt lat="51.532493988052011" lon="10.833720993250608">
        <ele>287.56999999999999</ele>
        <time>2017-05-22T10:42:13Z</time>
      </trkpt>
      <trkpt lat="51.531641967594624" lon="10.831951992586255">
        <ele>293.81999999999999</ele>
        <time>2017-05-22T10:42:20Z</time>
      </trkpt>
      <trkpt lat="51.531444992870092" lon="10.831544967368245">
        <ele>293.81999999999999</ele>
        <time>2017-05-22T10:42:22Z</time>
      </trkpt>
      <trkpt lat="51.531372992321849" lon="10.831328965723515">
        <ele>293.33999999999997</ele>
        <time>2017-05-22T10:42:23Z</time>
      </trkpt>
      <trkpt lat="51.531136035919189" lon="10.830353982746601">
        <ele>291.89999999999998</ele>
        <time>2017-05-22T10:42:29Z</time>
      </trkpt>
      <trkpt lat="51.530694980174303" lon="10.828347019851208">
        <ele>288.05000000000001</ele>
        <time>2017-05-22T10:42:44Z</time>
      </trkpt>
      <trkpt lat="51.530724987387657" lon="10.82674004137516">
        <ele>286.13</ele>
        <time>2017-05-22T10:42:56Z</time>
      </trkpt>
      <trkpt lat="51.530702020972967" lon="10.826638033613563">
        <ele>286.13</ele>
        <time>2017-05-22T10:42:57Z</time>
      </trkpt>
      <trkpt lat="51.530657010152936" lon="10.826572990044951">
        <ele>285.64999999999998</ele>
        <time>2017-05-22T10:42:58Z</time>
      </trkpt>
      <trkpt lat="51.530594984069467" lon="10.826541977003217">
        <ele>284.69</ele>
        <time>2017-05-22T10:42:59Z</time>
      </trkpt>
      <trkpt lat="51.530518038198352" lon="10.82652403973043">
        <ele>283.73000000000002</ele>
        <time>2017-05-22T10:43:00Z</time>
      </trkpt>
      <trkpt lat="51.529632993042469" lon="10.826164036989212">
        <ele>279.88</ele>
        <time>2017-05-22T10:43:10Z</time>
      </trkpt>
      <trkpt lat="51.529405005276203" lon="10.826038978993893">
        <ele>278.92000000000002</ele>
        <time>2017-05-22T10:43:13Z</time>
      </trkpt>
      <trkpt lat="51.52935597114265" lon="10.825952980667353">
        <ele>278.92000000000002</ele>
        <time>2017-05-22T10:43:14Z</time>
      </trkpt>
      <trkpt lat="51.529325963929296" lon="10.825845021754503">
        <ele>278.92000000000002</ele>
        <time>2017-05-22T10:43:15Z</time>
      </trkpt>
      <trkpt lat="51.529318001121283" lon="10.825718035921454">
        <ele>278.92000000000002</ele>
        <time>2017-05-22T10:43:16Z</time>
      </trkpt>
      <trkpt lat="51.529321018606424" lon="10.8255809918046">
        <ele>279.39999999999998</ele>
        <time>2017-05-22T10:43:17Z</time>
      </trkpt>
      <trkpt lat="51.529246000573039" lon="10.825227024033666">
        <ele>281.31999999999999</ele>
        <time>2017-05-22T10:43:20Z</time>
      </trkpt>
      <trkpt lat="51.529123960062861" lon="10.825078999623656">
        <ele>281.31999999999999</ele>
        <time>2017-05-22T10:43:22Z</time>
      </trkpt>
      <trkpt lat="51.528534963726997" lon="10.824682032689452">
        <ele>279.39999999999998</ele>
        <time>2017-05-22T10:43:29Z</time>
      </trkpt>
      <trkpt lat="51.528439996764064" lon="10.824655964970589">
        <ele>278.92000000000002</ele>
        <time>2017-05-22T10:43:30Z</time>
      </trkpt>
      <trkpt lat="51.527732983231544" lon="10.824526967480779">
        <ele>283.25</ele>
        <time>2017-05-22T10:43:37Z</time>
      </trkpt>
      <trkpt lat="51.526310993358493" lon="10.823935037478805">
        <ele>295.74000000000001</ele>
        <time>2017-05-22T10:43:50Z</time>
      </trkpt>
      <trkpt lat="51.525665000081062" lon="10.823548967018723">
        <ele>297.18000000000001</ele>
        <time>2017-05-22T10:43:56Z</time>
      </trkpt>
      <trkpt lat="51.525568021461368" lon="10.823441008105874">
        <ele>296.22000000000003</ele>
        <time>2017-05-22T10:43:57Z</time>
      </trkpt>
      <trkpt lat="51.525473976507783" lon="10.823311004787683">
        <ele>295.74000000000001</ele>
        <time>2017-05-22T10:43:58Z</time>
      </trkpt>
      <trkpt lat="51.524723041802645" lon="10.821994040161371">
        <ele>288.52999999999997</ele>
        <time>2017-05-22T10:44:05Z</time>
      </trkpt>
      <trkpt lat="51.523580001667142" lon="10.820148009806871">
        <ele>276.51999999999998</ele>
        <time>2017-05-22T10:44:13Z</time>
      </trkpt>
      <trkpt lat="51.5223060362041" lon="10.81819100305438">
        <ele>264.01999999999998</ele>
        <time>2017-05-22T10:44:22Z</time>
      </trkpt>
      <trkpt lat="51.521026035770774" lon="10.815970972180367">
        <ele>249.59999999999999</ele>
        <time>2017-05-22T10:44:32Z</time>
      </trkpt>
      <trkpt lat="51.52018298394978" lon="10.813754964619875">
        <ele>242.38999999999999</ele>
        <time>2017-05-22T10:44:40Z</time>
      </trkpt>
      <trkpt lat="51.519350996240973" lon="10.811942964792252">
        <ele>233.74000000000001</ele>
        <time>2017-05-22T10:44:47Z</time>
      </trkpt>
      <trkpt lat="51.517813000828028" lon="10.809293026104569">
        <ele>239.99000000000001</ele>
        <time>2017-05-22T10:44:59Z</time>
      </trkpt>
      <trkpt lat="51.51723800227046" lon="10.808087037876248">
        <ele>241.91</ele>
        <time>2017-05-22T10:45:05Z</time>
      </trkpt>
      <trkpt lat="51.516383970156312" lon="10.807019015774131">
        <ele>242.38999999999999</ele>
        <time>2017-05-22T10:45:12Z</time>
      </trkpt>
      <trkpt lat="51.516281040385365" lon="10.8068220410496">
        <ele>242.38999999999999</ele>
        <time>2017-05-22T10:45:13Z</time>
      </trkpt>
      <trkpt lat="51.515657007694244" lon="10.805411031469703">
        <ele>247.19999999999999</ele>
        <time>2017-05-22T10:45:21Z</time>
      </trkpt>
      <trkpt lat="51.515445029363036" lon="10.804778030142188">
        <ele>252</ele>
        <time>2017-05-22T10:45:26Z</time>
      </trkpt>
      <trkpt lat="51.515419967472553" lon="10.80465498380363">
        <ele>252</ele>
        <time>2017-05-22T10:45:27Z</time>
      </trkpt>
      <trkpt lat="51.51541200466454" lon="10.804520035162568">
        <ele>252.96000000000001</ele>
        <time>2017-05-22T10:45:28Z</time>
      </trkpt>
      <trkpt lat="51.515265991911292" lon="10.803468022495508">
        <ele>253.44</ele>
        <time>2017-05-22T10:45:36Z</time>
      </trkpt>
      <trkpt lat="51.515227016061544" lon="10.803338019177318">
        <ele>253.93000000000001</ele>
        <time>2017-05-22T10:45:37Z</time>
      </trkpt>
      <trkpt lat="51.51517597027123" lon="10.803226958960295">
        <ele>253.93000000000001</ele>
        <time>2017-05-22T10:45:38Z</time>
      </trkpt>
      <trkpt lat="51.515118973329663" lon="10.803125035017729">
        <ele>253.93000000000001</ele>
        <time>2017-05-22T10:45:39Z</time>
      </trkpt>
      <trkpt lat="51.515055019408464" lon="10.803033001720905">
        <ele>253.93000000000001</ele>
        <time>2017-05-22T10:45:40Z</time>
      </trkpt>
      <trkpt lat="51.514978995546699" lon="10.802958989515901">
        <ele>253.44</ele>
        <time>2017-05-22T10:45:41Z</time>
      </trkpt>
      <trkpt lat="51.514900960028172" lon="10.802890006452799">
        <ele>252.96000000000001</ele>
        <time>2017-05-22T10:45:42Z</time>
      </trkpt>
      <trkpt lat="51.514679007232189" lon="10.802723960950971">
        <ele>252.96000000000001</ele>
        <time>2017-05-22T10:45:45Z</time>
      </trkpt>
      <trkpt lat="51.514626033604145" lon="10.802660007029772">
        <ele>252.47999999999999</ele>
        <time>2017-05-22T10:45:46Z</time>
      </trkpt>
      <trkpt lat="51.514586973935366" lon="10.802582977339625">
        <ele>252</ele>
        <time>2017-05-22T10:45:47Z</time>
      </trkpt>
      <trkpt lat="51.514543974772096" lon="10.802524974569678">
        <ele>251.52000000000001</ele>
        <time>2017-05-22T10:45:48Z</time>
      </trkpt>
      <trkpt lat="51.514484966173768" lon="10.802509970963001">
        <ele>251.03999999999999</ele>
        <time>2017-05-22T10:45:49Z</time>
      </trkpt>
      <trkpt lat="51.514405002817512" lon="10.802518017590046">
        <ele>250.56</ele>
        <time>2017-05-22T10:45:50Z</time>
      </trkpt>
      <trkpt lat="51.514324033632874" lon="10.802511982619762">
        <ele>250.08000000000001</ele>
        <time>2017-05-22T10:45:51Z</time>
      </trkpt>
      <trkpt lat="51.514133010059595" lon="10.802417015656829">
        <ele>249.12</ele>
        <time>2017-05-22T10:45:53Z</time>
      </trkpt>
      <trkpt lat="51.513087032362819" lon="10.801823996007442">
        <ele>247.19999999999999</ele>
        <time>2017-05-22T10:46:04Z</time>
      </trkpt>
      <trkpt lat="51.511350972577929" lon="10.801470028236508">
        <ele>243.34999999999999</ele>
        <time>2017-05-22T10:46:25Z</time>
      </trkpt>
      <trkpt lat="51.510733980685472" lon="10.801351005211473">
        <ele>242.87</ele>
        <time>2017-05-22T10:46:33Z</time>
      </trkpt>
      <trkpt lat="51.509698983281851" lon="10.801230976358056">
        <ele>235.66</ele>
        <time>2017-05-22T10:46:48Z</time>
      </trkpt>
      <trkpt lat="51.508770016953349" lon="10.801121005788445">
        <ele>234.22</ele>
        <time>2017-05-22T10:46:59Z</time>
      </trkpt>
      <trkpt lat="51.508313035592437" lon="10.801084963604808">
        <ele>232.78</ele>
        <time>2017-05-22T10:47:04Z</time>
      </trkpt>
      <trkpt lat="51.506344964727759" lon="10.801005000248551">
        <ele>219.31999999999999</ele>
        <time>2017-05-22T10:47:25Z</time>
      </trkpt>
      <trkpt lat="51.505452962592244" lon="10.800899975001812">
        <ele>214.03</ele>
        <time>2017-05-22T10:47:37Z</time>
      </trkpt>
      <trkpt lat="51.505275014787912" lon="10.800899975001812">
        <ele>211.15000000000001</ele>
        <time>2017-05-22T10:47:46Z</time>
      </trkpt>
      <trkpt lat="51.50525095872581" lon="10.800892012193799">
        <ele>212.11000000000001</ele>
        <time>2017-05-22T10:48:31Z</time>
      </trkpt>
      <trkpt lat="51.504966979846358" lon="10.800857981666923">
        <ele>209.69999999999999</ele>
        <time>2017-05-22T10:48:38Z</time>
      </trkpt>
      <trkpt lat="51.504901014268398" lon="10.80083099193871">
        <ele>210.19</ele>
        <time>2017-05-22T10:48:39Z</time>
      </trkpt>
      <trkpt lat="51.503990991041064" lon="10.800594035536051">
        <ele>207.30000000000001</ele>
        <time>2017-05-22T10:48:51Z</time>
      </trkpt>
      <trkpt lat="51.503727966919541" lon="10.800546007230878">
        <ele>205.38</ele>
        <time>2017-05-22T10:48:58Z</time>
      </trkpt>
      <trkpt lat="51.503684967756271" lon="10.800523962825537">
        <ele>206.34</ele>
        <time>2017-05-22T10:49:10Z</time>
      </trkpt>
      <trkpt lat="51.503635011613369" lon="10.800481969490647">
        <ele>207.30000000000001</ele>
        <time>2017-05-22T10:49:17Z</time>
      </trkpt>
      <trkpt lat="51.50348698720336" lon="10.800438970327377">
        <ele>207.78</ele>
        <time>2017-05-22T10:49:20Z</time>
      </trkpt>
      <trkpt lat="51.503225974738598" lon="10.800402006134391">
        <ele>207.78</ele>
        <time>2017-05-22T10:49:24Z</time>
      </trkpt>
      <trkpt lat="51.503176018595695" lon="10.80039999447763">
        <ele>207.78</ele>
        <time>2017-05-22T10:49:25Z</time>
      </trkpt>
      <trkpt lat="51.503098988905549" lon="10.800328999757767">
        <ele>207.30000000000001</ele>
        <time>2017-05-22T10:49:27Z</time>
      </trkpt>
      <trkpt lat="51.50307996198535" lon="10.800252975896001">
        <ele>207.78</ele>
        <time>2017-05-22T10:49:28Z</time>
      </trkpt>
      <trkpt lat="51.50307702831924" lon="10.800153985619545">
        <ele>207.30000000000001</ele>
        <time>2017-05-22T10:49:29Z</time>
      </trkpt>
      <trkpt lat="51.503060013055801" lon="10.799700021743774">
        <ele>208.74000000000001</ele>
        <time>2017-05-22T10:49:33Z</time>
      </trkpt>
      <trkpt lat="51.503048026934266" lon="10.799230970442295">
        <ele>208.25999999999999</ele>
        <time>2017-05-22T10:49:37Z</time>
      </trkpt>
      <trkpt lat="51.503029000014067" lon="10.799128962680697">
        <ele>207.78</ele>
        <time>2017-05-22T10:49:38Z</time>
      </trkpt>
      <trkpt lat="51.502940990030766" lon="10.798850012943149">
        <ele>207.78</ele>
        <time>2017-05-22T10:49:41Z</time>
      </trkpt>
      <trkpt lat="51.502831019461155" lon="10.798408035188913">
        <ele>210.66999999999999</ele>
        <time>2017-05-22T10:49:48Z</time>
      </trkpt>
      <trkpt lat="51.502826996147633" lon="10.798318013548851">
        <ele>212.11000000000001</ele>
        <time>2017-05-22T10:49:49Z</time>
      </trkpt>
      <trkpt lat="51.50267100892961" lon="10.797331966459751">
        <ele>213.55000000000001</ele>
        <time>2017-05-22T10:49:58Z</time>
      </trkpt>
      <trkpt lat="51.50267000310123" lon="10.795732028782368">
        <ele>220.75999999999999</ele>
        <time>2017-05-22T10:50:10Z</time>
      </trkpt>
      <trkpt lat="51.502719959244132" lon="10.795541005209088">
        <ele>219.31999999999999</ele>
        <time>2017-05-22T10:50:17Z</time>
      </trkpt>
      <trkpt lat="51.502802018076181" lon="10.795206986367702">
        <ele>220.75999999999999</ele>
        <time>2017-05-22T10:50:24Z</time>
      </trkpt>
      <trkpt lat="51.50284300558269" lon="10.79500699415803">
        <ele>221.24000000000001</ele>
        <time>2017-05-22T10:50:27Z</time>
      </trkpt>
      <trkpt lat="51.502834036946297" lon="10.79494496807456">
        <ele>220.75999999999999</ele>
        <time>2017-05-22T10:50:28Z</time>
      </trkpt>
      <trkpt lat="51.502817021682858" lon="10.79490196891129">
        <ele>220.28</ele>
        <time>2017-05-22T10:50:29Z</time>
      </trkpt>
      <trkpt lat="51.50280000641942" lon="10.794871961697936">
        <ele>219.80000000000001</ele>
        <time>2017-05-22T10:50:30Z</time>
      </trkpt>
      <trkpt lat="51.502781985327601" lon="10.794866010546684">
        <ele>219.80000000000001</ele>
        <time>2017-05-22T10:50:31Z</time>
      </trkpt>
      <trkpt lat="51.502754995599389" lon="10.794866010546684">
        <ele>218.84</ele>
        <time>2017-05-22T10:50:32Z</time>
      </trkpt>
      <trkpt lat="51.502727000042796" lon="10.794851006940007">
        <ele>218.36000000000001</ele>
        <time>2017-05-22T10:50:33Z</time>
      </trkpt>
      <trkpt lat="51.502684000879526" lon="10.794808007776737">
        <ele>217.40000000000001</ele>
        <time>2017-05-22T10:50:34Z</time>
      </trkpt>
      <trkpt lat="51.502491971477866" lon="10.79466300085187">
        <ele>214.50999999999999</ele>
        <time>2017-05-22T10:50:38Z</time>
      </trkpt>
      <trkpt lat="51.5024349745363" lon="10.79464003443718">
        <ele>213.55000000000001</ele>
        <time>2017-05-22T10:50:39Z</time>
      </trkpt>
      <trkpt lat="51.501620002090931" lon="10.794396959245205">
        <ele>201.05000000000001</ele>
        <time>2017-05-22T10:50:52Z</time>
      </trkpt>
      <trkpt lat="51.500741997733712" lon="10.794199984520674">
        <ele>199.13</ele>
        <time>2017-05-22T10:51:04Z</time>
      </trkpt>
      <trkpt lat="51.499669030308723" lon="10.794043997302651">
        <ele>198.16999999999999</ele>
        <time>2017-05-22T10:51:18Z</time>
      </trkpt>
      <trkpt lat="51.498777028173208" lon="10.793381994590163">
        <ele>184.22999999999999</ele>
        <time>2017-05-22T10:51:31Z</time>
      </trkpt>
      <trkpt lat="51.498504029586911" lon="10.793108996003866">
        <ele>182.78999999999999</ele>
        <time>2017-05-22T10:51:35Z</time>
      </trkpt>
      <trkpt lat="51.498358016833663" lon="10.792947979643941">
        <ele>182.31</ele>
        <time>2017-05-22T10:51:38Z</time>
      </trkpt>
      <trkpt lat="51.498299008235335" lon="10.79292300157249">
        <ele>182.31</ele>
        <time>2017-05-22T10:51:39Z</time>
      </trkpt>
      <trkpt lat="51.498048976063728" lon="10.79281403683126">
        <ele>181.34999999999999</ele>
        <time>2017-05-22T10:51:42Z</time>
      </trkpt>
      <trkpt lat="51.497524017468095" lon="10.792432995513082">
        <ele>179.41999999999999</ele>
        <time>2017-05-22T10:51:50Z</time>
      </trkpt>
      <trkpt lat="51.497309021651745" lon="10.792234009131789">
        <ele>178.46000000000001</ele>
        <time>2017-05-22T10:51:58Z</time>
      </trkpt>
      <trkpt lat="51.497283037751913" lon="10.792195033282042">
        <ele>181.83000000000001</ele>
        <time>2017-05-22T10:52:08Z</time>
      </trkpt>
      <trkpt lat="51.497027976438403" lon="10.79195799306035">
        <ele>188.56</ele>
        <time>2017-05-22T10:52:17Z</time>
      </trkpt>
      <trkpt lat="51.497048009186983" lon="10.791912982240319">
        <ele>193.36000000000001</ele>
        <time>2017-05-22T10:52:39Z</time>
      </trkpt>
      <trkpt lat="51.497024958953261" lon="10.79189202748239">
        <ele>193.84</ele>
        <time>2017-05-22T10:52:42Z</time>
      </trkpt>
      <trkpt lat="51.497004004195333" lon="10.791865959763527">
        <ele>193.84</ele>
        <time>2017-05-22T10:52:43Z</time>
      </trkpt>
      <trkpt lat="51.496887998655438" lon="10.791755989193916">
        <ele>192.88</ele>
        <time>2017-05-22T10:52:47Z</time>
      </trkpt>
      <trkpt lat="51.496868971735239" lon="10.79172003082931">
        <ele>192.40000000000001</ele>
        <time>2017-05-22T10:52:48Z</time>
      </trkpt>
      <trkpt lat="51.49686997756362" lon="10.791665967553854">
        <ele>192.40000000000001</ele>
        <time>2017-05-22T10:52:49Z</time>
      </trkpt>
      <trkpt lat="51.496881041675806" lon="10.791581980884075">
        <ele>191.44</ele>
        <time>2017-05-22T10:52:50Z</time>
      </trkpt>
      <trkpt lat="51.496904008090496" lon="10.791487013921142">
        <ele>190.96000000000001</ele>
        <time>2017-05-22T10:52:51Z</time>
      </trkpt>
      <trkpt lat="51.496938038617373" lon="10.791391041129827">
        <ele>191.91999999999999</ele>
        <time>2017-05-22T10:52:52Z</time>
      </trkpt>
      <trkpt lat="51.496972991153598" lon="10.791305964812636">
        <ele>191.91999999999999</ele>
        <time>2017-05-22T10:52:53Z</time>
      </trkpt>
      <trkpt lat="51.497454028576612" lon="10.790398959070444">
        <ele>190.96000000000001</ele>
        <time>2017-05-22T10:53:02Z</time>
      </trkpt>
      <trkpt lat="51.497761979699135" lon="10.789909958839417">
        <ele>191.91999999999999</ele>
        <time>2017-05-22T10:53:09Z</time>
      </trkpt>
      <trkpt lat="51.497940011322498" lon="10.789644001051784">
        <ele>189.52000000000001</ele>
        <time>2017-05-22T10:53:18Z</time>
      </trkpt>
      <trkpt lat="51.497930958867073" lon="10.789603013545275">
        <ele>189.03999999999999</ele>
        <time>2017-05-22T10:53:26Z</time>
      </trkpt>
      <trkpt lat="51.497940011322498" lon="10.789565965533257">
        <ele>188.56</ele>
        <time>2017-05-22T10:53:27Z</time>
      </trkpt>
      <trkpt lat="51.497971024364233" lon="10.789519026875496">
        <ele>188.56</ele>
        <time>2017-05-22T10:53:28Z</time>
      </trkpt>
      <trkpt lat="51.49807202629745" lon="10.789405032992363">
        <ele>189.03999999999999</ele>
        <time>2017-05-22T10:53:36Z</time>
      </trkpt>
      <trkpt lat="51.498100021854043" lon="10.789343006908894">
        <ele>189.52000000000001</ele>
        <time>2017-05-22T10:53:41Z</time>
      </trkpt>
      <trkpt lat="51.498120976611972" lon="10.789273018017411">
        <ele>189.52000000000001</ele>
        <time>2017-05-22T10:53:42Z</time>
      </trkpt>
      <trkpt lat="51.49813799187541" lon="10.789189031347632">
        <ele>189.52000000000001</ele>
        <time>2017-05-22T10:53:43Z</time>
      </trkpt>
      <trkpt lat="51.498142015188932" lon="10.789092974737287">
        <ele>188.56</ele>
        <time>2017-05-22T10:53:44Z</time>
      </trkpt>
      <trkpt lat="51.498142015188932" lon="10.789001025259495">
        <ele>188.56</ele>
        <time>2017-05-22T10:53:45Z</time>
      </trkpt>
      <trkpt lat="51.49813799187541" lon="10.788913015276194">
        <ele>188.56</ele>
        <time>2017-05-22T10:53:46Z</time>
      </trkpt>
      <trkpt lat="51.498124999925494" lon="10.788808995857835">
        <ele>189.03999999999999</ele>
        <time>2017-05-22T10:53:47Z</time>
      </trkpt>
      <trkpt lat="51.498103039339185" lon="10.78869198448956">
        <ele>189.03999999999999</ele>
        <time>2017-05-22T10:53:48Z</time>
      </trkpt>
      <trkpt lat="51.498070014640689" lon="10.788572961464524">
        <ele>188.08000000000001</ele>
        <time>2017-05-22T10:53:49Z</time>
      </trkpt>
      <trkpt lat="51.497672041878104" lon="10.786766996607184">
        <ele>189.52000000000001</ele>
        <time>2017-05-22T10:54:02Z</time>
      </trkpt>
      <trkpt lat="51.497571961954236" lon="10.786312026903033">
        <ele>189.03999999999999</ele>
        <time>2017-05-22T10:54:05Z</time>
      </trkpt>
      <trkpt lat="51.49727800861001" lon="10.784945022314787">
        <ele>191.44</ele>
        <time>2017-05-22T10:54:14Z</time>
      </trkpt>
      <trkpt lat="51.496958993375301" lon="10.783523032441735">
        <ele>191.44</ele>
        <time>2017-05-22T10:54:25Z</time>
      </trkpt>
      <trkpt lat="51.49691398255527" lon="10.783323962241411">
        <ele>190.47999999999999</ele>
        <time>2017-05-22T10:54:30Z</time>
      </trkpt>
      <trkpt lat="51.49693401530385" lon="10.783322034403682">
        <ele>189.52000000000001</ele>
        <time>2017-05-22T10:54:47Z</time>
      </trkpt>
      <trkpt lat="51.496921023353934" lon="10.783292027190328">
        <ele>189.52000000000001</ele>
        <time>2017-05-22T10:55:04Z</time>
      </trkpt>
      <trkpt lat="51.496708039194345" lon="10.782565986737609">
        <ele>190</ele>
        <time>2017-05-22T10:55:13Z</time>
      </trkpt>
      <trkpt lat="51.496673002839088" lon="10.782468002289534">
        <ele>190.47999999999999</ele>
        <time>2017-05-22T10:55:14Z</time>
      </trkpt>
      <trkpt lat="51.496304031461477" lon="10.781096974387765">
        <ele>191.91999999999999</ele>
        <time>2017-05-22T10:55:28Z</time>
      </trkpt>
      <trkpt lat="51.495957020670176" lon="10.779901966452599">
        <ele>186.15000000000001</ele>
        <time>2017-05-22T10:55:39Z</time>
      </trkpt>
      <trkpt lat="51.49560104124248" lon="10.778524987399578">
        <ele>185.66999999999999</ele>
        <time>2017-05-22T10:55:49Z</time>
      </trkpt>
      <trkpt lat="51.495255958288908" lon="10.777355041354895">
        <ele>186.15000000000001</ele>
        <time>2017-05-22T10:56:01Z</time>
      </trkpt>
      <trkpt lat="51.495125032961369" lon="10.776855982840061">
        <ele>184.71000000000001</ele>
        <time>2017-05-22T10:56:11Z</time>
      </trkpt>
      <trkpt lat="51.495085973292589" lon="10.776683986186981">
        <ele>185.19</ele>
        <time>2017-05-22T10:56:20Z</time>
      </trkpt>
      <trkpt lat="51.495085973292589" lon="10.776334041729569">
        <ele>184.71000000000001</ele>
        <time>2017-05-22T10:56:26Z</time>
      </trkpt>
      <trkpt lat="51.495057977735996" lon="10.776267992332578">
        <ele>184.22999999999999</ele>
        <time>2017-05-22T10:56:27Z</time>
      </trkpt>
      <trkpt lat="51.495019001886249" lon="10.776202026754618">
        <ele>184.22999999999999</ele>
        <time>2017-05-22T10:56:28Z</time>
      </trkpt>
      <trkpt lat="51.494897967204452" lon="10.775913018733263">
        <ele>185.19</ele>
        <time>2017-05-22T10:56:31Z</time>
      </trkpt>
      <trkpt lat="51.494535030797124" lon="10.774548025801778">
        <ele>189.52000000000001</ele>
        <time>2017-05-22T10:56:40Z</time>
      </trkpt>
      <trkpt lat="51.494179973378778" lon="10.773405991494656">
        <ele>183.27000000000001</ele>
        <time>2017-05-22T10:56:50Z</time>
      </trkpt>
      <trkpt lat="51.49414200335741" lon="10.773365003988147">
        <ele>182.31</ele>
        <time>2017-05-22T10:56:51Z</time>
      </trkpt>
      <trkpt lat="51.494101015850902" lon="10.77337296679616">
        <ele>181.83000000000001</ele>
        <time>2017-05-22T10:56:52Z</time>
      </trkpt>
      <trkpt lat="51.494067991152406" lon="10.773410014808178">
        <ele>181.83000000000001</ele>
        <time>2017-05-22T10:56:53Z</time>
      </trkpt>
      <trkpt lat="51.494049970060587" lon="10.773472962900996">
        <ele>182.31</ele>
        <time>2017-05-22T10:56:54Z</time>
      </trkpt>
      <trkpt lat="51.494047036394477" lon="10.773552004247904">
        <ele>181.83000000000001</ele>
        <time>2017-05-22T10:56:55Z</time>
      </trkpt>
      <trkpt lat="51.494051981717348" lon="10.773640014231205">
        <ele>181.34999999999999</ele>
        <time>2017-05-22T10:56:56Z</time>
      </trkpt>
      <trkpt lat="51.494074026122689" lon="10.773735987022519">
        <ele>181.83000000000001</ele>
        <time>2017-05-22T10:56:57Z</time>
      </trkpt>
      <trkpt lat="51.494096992537379" lon="10.773820979520679">
        <ele>180.87</ele>
        <time>2017-05-22T10:56:58Z</time>
      </trkpt>
      <trkpt lat="51.494106967002153" lon="10.773959029465914">
        <ele>179.90000000000001</ele>
        <time>2017-05-22T10:57:00Z</time>
      </trkpt>
      <trkpt lat="51.494096992537379" lon="10.774354990571737">
        <ele>184.71000000000001</ele>
        <time>2017-05-22T10:57:12Z</time>
      </trkpt>
      <trkpt lat="51.494092969223857" lon="10.774392960593104">
        <ele>185.19</ele>
        <time>2017-05-22T10:57:43Z</time>
      </trkpt>
      <trkpt lat="51.494092969223857" lon="10.774388015270233">
        <ele>185.19</ele>
        <time>2017-05-22T10:59:05Z</time>
      </trkpt>
      <trkpt lat="51.494091041386127" lon="10.77438298612833">
        <ele>184.71000000000001</ele>
        <time>2017-05-22T11:00:36Z</time>
      </trkpt>
      <trkpt lat="51.494091963395476" lon="10.774379968643188">
        <ele>184.71000000000001</ele>
        <time>2017-05-22T11:02:19Z</time>
      </trkpt>
      <trkpt lat="51.494094980880618" lon="10.774380974471569">
        <ele>184.22999999999999</ele>
        <time>2017-05-22T11:04:08Z</time>
      </trkpt>
      <trkpt lat="51.494100010022521" lon="10.774380974471569">
        <ele>184.22999999999999</ele>
        <time>2017-05-22T11:05:50Z</time>
      </trkpt>
      <trkpt lat="51.494104033336043" lon="10.774377034977078">
        <ele>184.22999999999999</ele>
        <time>2017-05-22T11:07:35Z</time>
      </trkpt>
      <trkpt lat="51.494177961722016" lon="10.774430008605123">
        <ele>183.27000000000001</ele>
        <time>2017-05-22T11:07:43Z</time>
      </trkpt>
      <trkpt lat="51.494428999722004" lon="10.774550037458539">
        <ele>185.19</ele>
        <time>2017-05-22T11:07:51Z</time>
      </trkpt>
      <trkpt lat="51.494449032470584" lon="10.774537967517972">
        <ele>185.66999999999999</ele>
        <time>2017-05-22T11:07:52Z</time>
      </trkpt>
      <trkpt lat="51.494460012763739" lon="10.774522041901946">
        <ele>186.15000000000001</ele>
        <time>2017-05-22T11:07:53Z</time>
      </trkpt>
      <trkpt lat="51.494477028027177" lon="10.774515001103282">
        <ele>188.56</ele>
        <time>2017-05-22T11:08:07Z</time>
      </trkpt>
      <trkpt lat="51.494487002491951" lon="10.774493962526321">
        <ele>188.56</ele>
        <time>2017-05-22T11:08:26Z</time>
      </trkpt>
      <trkpt lat="51.494495971128345" lon="10.774450963363051">
        <ele>188.08000000000001</ele>
        <time>2017-05-22T11:08:27Z</time>
      </trkpt>
      <trkpt lat="51.494494965299964" lon="10.774378040805459">
        <ele>188.08000000000001</ele>
        <time>2017-05-22T11:08:28Z</time>
      </trkpt>
      <trkpt lat="51.494483985006809" lon="10.774281984195113">
        <ele>188.08000000000001</ele>
        <time>2017-05-22T11:08:29Z</time>
      </trkpt>
      <trkpt lat="51.494461018592119" lon="10.774168996140361">
        <ele>188.08000000000001</ele>
        <time>2017-05-22T11:08:30Z</time>
      </trkpt>
      <trkpt lat="51.494432017207146" lon="10.774046033620834">
        <ele>187.59</ele>
        <time>2017-05-22T11:08:31Z</time>
      </trkpt>
      <trkpt lat="51.49439999833703" lon="10.773917036131024">
        <ele>187.59</ele>
        <time>2017-05-22T11:08:32Z</time>
      </trkpt>
      <trkpt lat="51.493844026699662" lon="10.771917030215263">
        <ele>187.59</ele>
        <time>2017-05-22T11:08:46Z</time>
      </trkpt>
      <trkpt lat="51.493530040606856" lon="10.770848002284765">
        <ele>187.11000000000001</ele>
        <time>2017-05-22T11:08:53Z</time>
      </trkpt>
      <trkpt lat="51.493481006473303" lon="10.770693020895123">
        <ele>186.63</ele>
        <time>2017-05-22T11:08:54Z</time>
      </trkpt>
      <trkpt lat="51.493026036769152" lon="10.769019993022084">
        <ele>183.75</ele>
        <time>2017-05-22T11:09:05Z</time>
      </trkpt>
      <trkpt lat="51.492004031315446" lon="10.765319969505072">
        <ele>180.87</ele>
        <time>2017-05-22T11:09:29Z</time>
      </trkpt>
      <trkpt lat="51.491539003327489" lon="10.763413002714515">
        <ele>180.87</ele>
        <time>2017-05-22T11:09:41Z</time>
      </trkpt>
      <trkpt lat="51.491531962528825" lon="10.763292973861098">
        <ele>180.87</ele>
        <time>2017-05-22T11:09:42Z</time>
      </trkpt>
      <trkpt lat="51.491545038297772" lon="10.763184009119868">
        <ele>181.34999999999999</ele>
        <time>2017-05-22T11:09:43Z</time>
      </trkpt>
      <trkpt lat="51.491585019975901" lon="10.763082001358271">
        <ele>181.83000000000001</ele>
        <time>2017-05-22T11:09:44Z</time>
      </trkpt>
      <trkpt lat="51.491646962240338" lon="10.762988962233067">
        <ele>181.34999999999999</ele>
        <time>2017-05-22T11:09:45Z</time>
      </trkpt>
      <trkpt lat="51.491731032729149" lon="10.762906987220049">
        <ele>181.34999999999999</ele>
        <time>2017-05-22T11:09:46Z</time>
      </trkpt>
      <trkpt lat="51.491832034662366" lon="10.762829035520554">
        <ele>181.34999999999999</ele>
        <time>2017-05-22T11:09:47Z</time>
      </trkpt>
      <trkpt lat="51.491943011060357" lon="10.762754017487168">
        <ele>180.87</ele>
        <time>2017-05-22T11:09:48Z</time>
      </trkpt>
      <trkpt lat="51.493312027305365" lon="10.761822033673525">
        <ele>181.83000000000001</ele>
        <time>2017-05-22T11:09:58Z</time>
      </trkpt>
      <trkpt lat="51.494890004396439" lon="10.76067597605288">
        <ele>182.78999999999999</ele>
        <time>2017-05-22T11:10:06Z</time>
      </trkpt>
      <trkpt lat="51.495318990200758" lon="10.760280014947057">
        <ele>183.75</ele>
        <time>2017-05-22T11:10:08Z</time>
      </trkpt>
      <trkpt lat="51.495513031259179" lon="10.760022019967437">
        <ele>184.71000000000001</ele>
        <time>2017-05-22T11:10:09Z</time>
      </trkpt>
      <trkpt lat="51.495690979063511" lon="10.759719014167786">
        <ele>185.66999999999999</ele>
        <time>2017-05-22T11:10:10Z</time>
      </trkpt>
      <trkpt lat="51.497044991701841" lon="10.756919961422682">
        <ele>189.52000000000001</ele>
        <time>2017-05-22T11:10:18Z</time>
      </trkpt>
      <trkpt lat="51.497585959732533" lon="10.755034033209085">
        <ele>187.59</ele>
        <time>2017-05-22T11:10:23Z</time>
      </trkpt>
      <trkpt lat="51.497625019401312" lon="10.754642011597753">
        <ele>187.11000000000001</ele>
        <time>2017-05-22T11:10:24Z</time>
      </trkpt>
      <trkpt lat="51.497612027451396" lon="10.752086034044623">
        <ele>183.75</ele>
        <time>2017-05-22T11:10:30Z</time>
      </trkpt>
      <trkpt lat="51.497459979727864" lon="10.749655030667782">
        <ele>183.27000000000001</ele>
        <time>2017-05-22T11:10:36Z</time>
      </trkpt>
      <trkpt lat="51.497503984719515" lon="10.749315982684493">
        <ele>184.71000000000001</ele>
        <time>2017-05-22T11:10:37Z</time>
      </trkpt>
      <trkpt lat="51.4975790027529" lon="10.749003002420068">
        <ele>185.66999999999999</ele>
        <time>2017-05-22T11:10:38Z</time>
      </trkpt>
      <trkpt lat="51.497688973322511" lon="10.748710976913571">
        <ele>185.66999999999999</ele>
        <time>2017-05-22T11:10:39Z</time>
      </trkpt>
      <trkpt lat="51.497820988297462" lon="10.748423980548978">
        <ele>185.66999999999999</ele>
        <time>2017-05-22T11:10:40Z</time>
      </trkpt>
      <trkpt lat="51.497970018535852" lon="10.748135978356004">
        <ele>185.66999999999999</ele>
        <time>2017-05-22T11:10:41Z</time>
      </trkpt>
      <trkpt lat="51.499258987605572" lon="10.745831038802862">
        <ele>182.78999999999999</ele>
        <time>2017-05-22T11:10:49Z</time>
      </trkpt>
      <trkpt lat="51.499418998137116" lon="10.745652001351118">
        <ele>182.78999999999999</ele>
        <time>2017-05-22T11:10:50Z</time>
      </trkpt>
      <trkpt lat="51.499590994790196" lon="10.745531972497702">
        <ele>182.31</ele>
        <time>2017-05-22T11:10:51Z</time>
      </trkpt>
      <trkpt lat="51.499774977564812" lon="10.7454439625144">
        <ele>182.31</ele>
        <time>2017-05-22T11:10:52Z</time>
      </trkpt>
      <trkpt lat="51.499967006966472" lon="10.745359975844622">
        <ele>182.78999999999999</ele>
        <time>2017-05-22T11:10:53Z</time>
      </trkpt>
      <trkpt lat="51.50015601888299" lon="10.745256040245295">
        <ele>183.27000000000001</ele>
        <time>2017-05-22T11:10:54Z</time>
      </trkpt>
      <trkpt lat="51.50032801553607" lon="10.745112961158156">
        <ele>183.75</ele>
        <time>2017-05-22T11:10:55Z</time>
      </trkpt>
      <trkpt lat="51.500482996925712" lon="10.744949011132121">
        <ele>183.75</ele>
        <time>2017-05-22T11:10:56Z</time>
      </trkpt>
      <trkpt lat="51.50123099796474" lon="10.743735982105136">
        <ele>184.22999999999999</ele>
        <time>2017-05-22T11:11:03Z</time>
      </trkpt>
      <trkpt lat="51.50189601816237" lon="10.742386998608708">
        <ele>183.75</ele>
        <time>2017-05-22T11:11:11Z</time>
      </trkpt>
      <trkpt lat="51.501958966255188" lon="10.742194969207048">
        <ele>183.27000000000001</ele>
        <time>2017-05-22T11:11:12Z</time>
      </trkpt>
      <trkpt lat="51.50200598873198" lon="10.741987014189363">
        <ele>182.78999999999999</ele>
        <time>2017-05-22T11:11:13Z</time>
      </trkpt>
      <trkpt lat="51.502038007602096" lon="10.741774030029774">
        <ele>182.31</ele>
        <time>2017-05-22T11:11:14Z</time>
      </trkpt>
      <trkpt lat="51.502059968188405" lon="10.741554005071521">
        <ele>181.34999999999999</ele>
        <time>2017-05-22T11:11:15Z</time>
      </trkpt>
      <trkpt lat="51.502380995079875" lon="10.737811988219619">
        <ele>181.83000000000001</ele>
        <time>2017-05-22T11:11:32Z</time>
      </trkpt>
      <trkpt lat="51.502362973988056" lon="10.737592969089746">
        <ele>181.34999999999999</ele>
        <time>2017-05-22T11:11:33Z</time>
      </trkpt>
      <trkpt lat="51.502330033108592" lon="10.737383002415299">
        <ele>180.87</ele>
        <time>2017-05-22T11:11:34Z</time>
      </trkpt>
      <trkpt lat="51.50228401646018" lon="10.737182004377246">
        <ele>181.34999999999999</ele>
        <time>2017-05-22T11:11:35Z</time>
      </trkpt>
      <trkpt lat="51.502222996205091" lon="10.737000033259392">
        <ele>180.38</ele>
        <time>2017-05-22T11:11:36Z</time>
      </trkpt>
      <trkpt lat="51.502149989828467" lon="10.736833987757564">
        <ele>179.41999999999999</ele>
        <time>2017-05-22T11:11:37Z</time>
      </trkpt>
      <trkpt lat="51.502066003158689" lon="10.73667598888278">
        <ele>179.41999999999999</ele>
        <time>2017-05-22T11:11:38Z</time>
      </trkpt>
      <trkpt lat="51.501971958205104" lon="10.736535005271435">
        <ele>179.41999999999999</ele>
        <time>2017-05-22T11:11:39Z</time>
      </trkpt>
      <trkpt lat="51.501872967928648" lon="10.736407013610005">
        <ele>178.46000000000001</ele>
        <time>2017-05-22T11:11:40Z</time>
      </trkpt>
      <trkpt lat="51.501435013487935" lon="10.735679967328906">
        <ele>177.97999999999999</ele>
        <time>2017-05-22T11:11:45Z</time>
      </trkpt>
      <trkpt lat="51.501374999061227" lon="10.735509982332587">
        <ele>178.94</ele>
        <time>2017-05-22T11:11:46Z</time>
      </trkpt>
      <trkpt lat="51.501329988241196" lon="10.735325999557972">
        <ele>179.41999999999999</ele>
        <time>2017-05-22T11:11:47Z</time>
      </trkpt>
      <trkpt lat="51.50129796937108" lon="10.735134975984693">
        <ele>179.90000000000001</ele>
        <time>2017-05-22T11:11:48Z</time>
      </trkpt>
      <trkpt lat="51.501279026269913" lon="10.734941018745303">
        <ele>179.90000000000001</ele>
        <time>2017-05-22T11:11:49Z</time>
      </trkpt>
      <trkpt lat="51.501281959936023" lon="10.734747983515263">
        <ele>179.90000000000001</ele>
        <time>2017-05-22T11:11:50Z</time>
      </trkpt>
      <trkpt lat="51.501308027654886" lon="10.734566012397408">
        <ele>179.90000000000001</ele>
        <time>2017-05-22T11:11:51Z</time>
      </trkpt>
      <trkpt lat="51.501344991847873" lon="10.734370965510607">
        <ele>180.38</ele>
        <time>2017-05-22T11:11:52Z</time>
      </trkpt>
      <trkpt lat="51.501698959618807" lon="10.731338979676366">
        <ele>184.71000000000001</ele>
        <time>2017-05-22T11:12:07Z</time>
      </trkpt>
      <trkpt lat="51.501988973468542" lon="10.728647969663143">
        <ele>185.19</ele>
        <time>2017-05-22T11:12:18Z</time>
      </trkpt>
      <trkpt lat="51.502354005351663" lon="10.726484013721347">
        <ele>185.19</ele>
        <time>2017-05-22T11:12:25Z</time>
      </trkpt>
      <trkpt lat="51.502444026991725" lon="10.726185031235218">
        <ele>185.66999999999999</ele>
        <time>2017-05-22T11:12:26Z</time>
      </trkpt>
      <trkpt lat="51.502561960369349" lon="10.725903986021876">
        <ele>186.15000000000001</ele>
        <time>2017-05-22T11:12:27Z</time>
      </trkpt>
      <trkpt lat="51.502703027799726" lon="10.725639034062624">
        <ele>187.11000000000001</ele>
        <time>2017-05-22T11:12:28Z</time>
      </trkpt>
      <trkpt lat="51.502855997532606" lon="10.725380033254623">
        <ele>187.59</ele>
        <time>2017-05-22T11:12:29Z</time>
      </trkpt>
      <trkpt lat="51.503855958580971" lon="10.723452027887106">
        <ele>189.03999999999999</ele>
        <time>2017-05-22T11:12:37Z</time>
      </trkpt>
      <trkpt lat="51.503971964120865" lon="10.723254969343543">
        <ele>188.56</ele>
        <time>2017-05-22T11:12:38Z</time>
      </trkpt>
      <trkpt lat="51.504100039601326" lon="10.723078027367592">
        <ele>186.63</ele>
        <time>2017-05-22T11:12:39Z</time>
      </trkpt>
      <trkpt lat="51.504243034869432" lon="10.722919022664428">
        <ele>185.19</ele>
        <time>2017-05-22T11:12:40Z</time>
      </trkpt>
      <trkpt lat="51.504512010142207" lon="10.722631020471454">
        <ele>184.22999999999999</ele>
        <time>2017-05-22T11:12:42Z</time>
      </trkpt>
      <trkpt lat="51.504617035388947" lon="10.722461035475135">
        <ele>185.19</ele>
        <time>2017-05-22T11:12:43Z</time>
      </trkpt>
      <trkpt lat="51.504694987088442" lon="10.722271017730236">
        <ele>185.19</ele>
        <time>2017-05-22T11:12:44Z</time>
      </trkpt>
      <trkpt lat="51.504745027050376" lon="10.722053004428744">
        <ele>185.19</ele>
        <time>2017-05-22T11:12:45Z</time>
      </trkpt>
      <trkpt lat="51.50475500151515" lon="10.72182996198535">
        <ele>185.19</ele>
        <time>2017-05-22T11:12:46Z</time>
      </trkpt>
      <trkpt lat="51.504727005958557" lon="10.72161303833127">
        <ele>184.22999999999999</ele>
        <time>2017-05-22T11:12:47Z</time>
      </trkpt>
      <trkpt lat="51.504677971825004" lon="10.721396030858159">
        <ele>184.22999999999999</ele>
        <time>2017-05-22T11:12:48Z</time>
      </trkpt>
      <trkpt lat="51.504634972661734" lon="10.721177011728287">
        <ele>184.22999999999999</ele>
        <time>2017-05-22T11:12:49Z</time>
      </trkpt>
      <trkpt lat="51.504617035388947" lon="10.720957992598414">
        <ele>185.19</ele>
        <time>2017-05-22T11:12:50Z</time>
      </trkpt>
      <trkpt lat="51.504616029560566" lon="10.720731010660529">
        <ele>185.19</ele>
        <time>2017-05-22T11:12:51Z</time>
      </trkpt>
      <trkpt lat="51.504631033167243" lon="10.720502017065883">
        <ele>185.19</ele>
        <time>2017-05-22T11:12:52Z</time>
      </trkpt>
      <trkpt lat="51.504649976268411" lon="10.720041012391448">
        <ele>185.66999999999999</ele>
        <time>2017-05-22T11:12:54Z</time>
      </trkpt>
      <trkpt lat="51.504638995975256" lon="10.719821993261576">
        <ele>185.66999999999999</ele>
        <time>2017-05-22T11:12:55Z</time>
      </trkpt>
      <trkpt lat="51.504616029560566" lon="10.719602974131703">
        <ele>185.66999999999999</ele>
        <time>2017-05-22T11:12:56Z</time>
      </trkpt>
      <trkpt lat="51.504580993205309" lon="10.719389989972115">
        <ele>186.15000000000001</ele>
        <time>2017-05-22T11:12:57Z</time>
      </trkpt>
      <trkpt lat="51.504534976556897" lon="10.719171976670623">
        <ele>186.15000000000001</ele>
        <time>2017-05-22T11:12:58Z</time>
      </trkpt>
      <trkpt lat="51.504279999062419" lon="10.716690011322498">
        <ele>186.63</ele>
        <time>2017-05-22T11:13:09Z</time>
      </trkpt>
      <trkpt lat="51.504358034580946" lon="10.715328035876155">
        <ele>186.63</ele>
        <time>2017-05-22T11:13:14Z</time>
      </trkpt>
      <trkpt lat="51.504415031522512" lon="10.715046990662813">
        <ele>187.59</ele>
        <time>2017-05-22T11:13:15Z</time>
      </trkpt>
      <trkpt lat="51.504961028695107" lon="10.712535018101335">
        <ele>185.66999999999999</ele>
        <time>2017-05-22T11:13:23Z</time>
      </trkpt>
      <trkpt lat="51.505234027281404" lon="10.711275972425938">
        <ele>183.75</ele>
        <time>2017-05-22T11:13:27Z</time>
      </trkpt>
      <trkpt lat="51.505343997851014" lon="10.710987970232964">
        <ele>183.27000000000001</ele>
        <time>2017-05-22T11:13:28Z</time>
      </trkpt>
      <trkpt lat="51.505467966198921" lon="10.710709020495415">
        <ele>182.78999999999999</ele>
        <time>2017-05-22T11:13:29Z</time>
      </trkpt>
      <trkpt lat="51.506094010546803" lon="10.709363976493478">
        <ele>182.31</ele>
        <time>2017-05-22T11:13:35Z</time>
      </trkpt>
      <trkpt lat="51.506708990782499" lon="10.7077999971807">
        <ele>182.78999999999999</ele>
        <time>2017-05-22T11:13:41Z</time>
      </trkpt>
      <trkpt lat="51.50746101513505" lon="10.705975005403161">
        <ele>184.71000000000001</ele>
        <time>2017-05-22T11:13:48Z</time>
      </trkpt>
      <trkpt lat="51.508253021165729" lon="10.703895036131144">
        <ele>186.63</ele>
        <time>2017-05-22T11:13:55Z</time>
      </trkpt>
      <trkpt lat="51.509456997737288" lon="10.701102018356323">
        <ele>187.59</ele>
        <time>2017-05-22T11:14:05Z</time>
      </trkpt>
      <trkpt lat="51.510044988244772" lon="10.698307994753122">
        <ele>189.52000000000001</ele>
        <time>2017-05-22T11:14:14Z</time>
      </trkpt>
      <trkpt lat="51.51061998680234" lon="10.69585301913321">
        <ele>188.56</ele>
        <time>2017-05-22T11:14:23Z</time>
      </trkpt>
      <trkpt lat="51.511285006999969" lon="10.694030961021781">
        <ele>188.08000000000001</ele>
        <time>2017-05-22T11:14:30Z</time>
      </trkpt>
      <trkpt lat="51.511966036632657" lon="10.691527035087347">
        <ele>188.56</ele>
        <time>2017-05-22T11:14:37Z</time>
      </trkpt>
      <trkpt lat="51.512758964672685" lon="10.689498027786613">
        <ele>187.59</ele>
        <time>2017-05-22T11:14:42Z</time>
      </trkpt>
      <trkpt lat="51.514070983976126" lon="10.685952985659242">
        <ele>187.11000000000001</ele>
        <time>2017-05-22T11:14:51Z</time>
      </trkpt>
      <trkpt lat="51.514987964183092" lon="10.683238003402948">
        <ele>188.08000000000001</ele>
        <time>2017-05-22T11:14:59Z</time>
      </trkpt>
      <trkpt lat="51.516175009310246" lon="10.679969983175397">
        <ele>188.08000000000001</ele>
        <time>2017-05-22T11:15:09Z</time>
      </trkpt>
      <trkpt lat="51.517388038337231" lon="10.676629962399602">
        <ele>189.03999999999999</ele>
        <time>2017-05-22T11:15:18Z</time>
      </trkpt>
      <trkpt lat="51.518368972465396" lon="10.673697972670197">
        <ele>190</ele>
        <time>2017-05-22T11:15:27Z</time>
      </trkpt>
      <trkpt lat="51.519134994596243" lon="10.672237006947398">
        <ele>190.96000000000001</ele>
        <time>2017-05-22T11:15:34Z</time>
      </trkpt>
      <trkpt lat="51.5200109872967" lon="10.670508993789554">
        <ele>192.40000000000001</ele>
        <time>2017-05-22T11:15:46Z</time>
      </trkpt>
      <trkpt lat="51.520744990557432" lon="10.668528014793992">
        <ele>195.77000000000001</ele>
        <time>2017-05-22T11:15:57Z</time>
      </trkpt>
      <trkpt lat="51.521550994366407" lon="10.666289962828159">
        <ele>198.65000000000001</ele>
        <time>2017-05-22T11:16:12Z</time>
      </trkpt>
      <trkpt lat="51.521918959915638" lon="10.664351982995868">
        <ele>200.09</ele>
        <time>2017-05-22T11:16:25Z</time>
      </trkpt>
      <trkpt lat="51.521951984614134" lon="10.664269002154469">
        <ele>200.09</ele>
        <time>2017-05-22T11:16:26Z</time>
      </trkpt>
      <trkpt lat="51.521995989605784" lon="10.664230026304722">
        <ele>200.09</ele>
        <time>2017-05-22T11:16:27Z</time>
      </trkpt>
      <trkpt lat="51.52204804122448" lon="10.664241006597877">
        <ele>200.56999999999999</ele>
        <time>2017-05-22T11:16:28Z</time>
      </trkpt>
      <trkpt lat="51.522099003195763" lon="10.664264978840947">
        <ele>201.05000000000001</ele>
        <time>2017-05-22T11:16:29Z</time>
      </trkpt>
      <trkpt lat="51.522148037329316" lon="10.664296997711062">
        <ele>201.53</ele>
        <time>2017-05-22T11:16:30Z</time>
      </trkpt>
      <trkpt lat="51.522204028442502" lon="10.664338991045952">
        <ele>202.00999999999999</ele>
        <time>2017-05-22T11:16:31Z</time>
      </trkpt>
      <trkpt lat="51.522264964878559" lon="10.664402022957802">
        <ele>202.97999999999999</ele>
        <time>2017-05-22T11:16:32Z</time>
      </trkpt>
      <trkpt lat="51.52233000844717" lon="10.664486009627581">
        <ele>203.94</ele>
        <time>2017-05-22T11:16:33Z</time>
      </trkpt>
      <trkpt lat="51.522398991510272" lon="10.664597991853952">
        <ele>204.41999999999999</ele>
        <time>2017-05-22T11:16:34Z</time>
      </trkpt>
      <trkpt lat="51.522915987297893" lon="10.665779002010822">
        <ele>210.19</ele>
        <time>2017-05-22T11:16:41Z</time>
      </trkpt>
      <trkpt lat="51.523024030029774" lon="10.666256016120315">
        <ele>212.59</ele>
        <time>2017-05-22T11:16:43Z</time>
      </trkpt>
      <trkpt lat="51.523046996444464" lon="10.66650403663516">
        <ele>214.03</ele>
        <time>2017-05-22T11:16:44Z</time>
      </trkpt>
      <trkpt lat="51.523043978959322" lon="10.6667610257864">
        <ele>214.99000000000001</ele>
        <time>2017-05-22T11:16:45Z</time>
      </trkpt>
      <trkpt lat="51.52299402281642" lon="10.667543979361653">
        <ele>217.88</ele>
        <time>2017-05-22T11:16:48Z</time>
      </trkpt>
      <trkpt lat="51.523005003109574" lon="10.667812032625079">
        <ele>218.84</ele>
        <time>2017-05-22T11:16:49Z</time>
      </trkpt>
      <trkpt lat="51.523039033636451" lon="10.668072961270809">
        <ele>219.31999999999999</ele>
        <time>2017-05-22T11:16:50Z</time>
      </trkpt>
      <trkpt lat="51.523087983950973" lon="10.668333973735571">
        <ele>220.75999999999999</ele>
        <time>2017-05-22T11:16:51Z</time>
      </trkpt>
      <trkpt lat="51.523155961185694" lon="10.668584005907178">
        <ele>221.72</ele>
        <time>2017-05-22T11:16:52Z</time>
      </trkpt>
      <trkpt lat="51.523235002532601" lon="10.668801013380289">
        <ele>222.68000000000001</ele>
        <time>2017-05-22T11:16:53Z</time>
      </trkpt>
      <trkpt lat="51.523327035829425" lon="10.668966975063086">
        <ele>223.63999999999999</ele>
        <time>2017-05-22T11:16:54Z</time>
      </trkpt>
      <trkpt lat="51.523429965600371" lon="10.669066971167922">
        <ele>224.12</ele>
        <time>2017-05-22T11:16:55Z</time>
      </trkpt>
      <trkpt lat="51.523535996675491" lon="10.669092033058405">
        <ele>224.61000000000001</ele>
        <time>2017-05-22T11:16:56Z</time>
      </trkpt>
      <trkpt lat="51.523643033578992" lon="10.669050961732864">
        <ele>225.09</ele>
        <time>2017-05-22T11:16:57Z</time>
      </trkpt>
      <trkpt lat="51.52374504134059" lon="10.668948031961918">
        <ele>226.05000000000001</ele>
        <time>2017-05-22T11:16:58Z</time>
      </trkpt>
      <trkpt lat="51.523848976939917" lon="10.668800007551908">
        <ele>227.00999999999999</ele>
        <time>2017-05-22T11:16:59Z</time>
      </trkpt>
      <trkpt lat="51.523958025500178" lon="10.668642008677125">
        <ele>227.97</ele>
        <time>2017-05-22T11:17:00Z</time>
      </trkpt>
      <trkpt lat="51.524076964706182" lon="10.668487027287483">
        <ele>228.93000000000001</ele>
        <time>2017-05-22T11:17:01Z</time>
      </trkpt>
      <trkpt lat="51.524214008823037" lon="10.668355012312531">
        <ele>229.88999999999999</ele>
        <time>2017-05-22T11:17:02Z</time>
      </trkpt>
      <trkpt lat="51.524365972727537" lon="10.668247975409031">
        <ele>231.33000000000001</ele>
        <time>2017-05-22T11:17:03Z</time>
      </trkpt>
      <trkpt lat="51.524533024057746" lon="10.668170023709536">
        <ele>233.25999999999999</ele>
        <time>2017-05-22T11:17:04Z</time>
      </trkpt>
      <trkpt lat="51.524708038195968" lon="10.66811403259635">
        <ele>234.22</ele>
        <time>2017-05-22T11:17:05Z</time>
      </trkpt>
      <trkpt lat="51.52488699182868" lon="10.668082013726234">
        <ele>235.66</ele>
        <time>2017-05-22T11:17:06Z</time>
      </trkpt>
      <trkpt lat="51.525074997916818" lon="10.668064998462796">
        <ele>237.09999999999999</ele>
        <time>2017-05-22T11:17:07Z</time>
      </trkpt>
      <trkpt lat="51.525834985077381" lon="10.667997021228075">
        <ele>242.38999999999999</ele>
        <time>2017-05-22T11:17:11Z</time>
      </trkpt>
      <trkpt lat="51.526017040014267" lon="10.667925020679832">
        <ele>243.83000000000001</ele>
        <time>2017-05-22T11:17:12Z</time>
      </trkpt>
      <trkpt lat="51.526193981990218" lon="10.667811026796699">
        <ele>245.27000000000001</ele>
        <time>2017-05-22T11:17:13Z</time>
      </trkpt>
      <trkpt lat="51.526965033262968" lon="10.667271986603737">
        <ele>251.03999999999999</ele>
        <time>2017-05-22T11:17:18Z</time>
      </trkpt>
      <trkpt lat="51.527095958590508" lon="10.667251031845808">
        <ele>251.52000000000001</ele>
        <time>2017-05-22T11:17:19Z</time>
      </trkpt>
      <trkpt lat="51.527227973565459" lon="10.667276009917259">
        <ele>252.47999999999999</ele>
        <time>2017-05-22T11:17:20Z</time>
      </trkpt>
      <trkpt lat="51.527364011853933" lon="10.6673429813236">
        <ele>252.96000000000001</ele>
        <time>2017-05-22T11:17:21Z</time>
      </trkpt>
      <trkpt lat="51.527501977980137" lon="10.66744901239872">
        <ele>254.41</ele>
        <time>2017-05-22T11:17:22Z</time>
      </trkpt>
      <trkpt lat="51.527640027925372" lon="10.667571974918246">
        <ele>255.84999999999999</ele>
        <time>2017-05-22T11:17:23Z</time>
      </trkpt>
      <trkpt lat="51.528223995119333" lon="10.668145967647433">
        <ele>260.64999999999998</ele>
        <time>2017-05-22T11:17:27Z</time>
      </trkpt>
      <trkpt lat="51.528341006487608" lon="10.668316036462784">
        <ele>262.10000000000002</ele>
        <time>2017-05-22T11:17:28Z</time>
      </trkpt>
      <trkpt lat="51.528441002592444" lon="10.668515022844076">
        <ele>263.54000000000002</ele>
        <time>2017-05-22T11:17:29Z</time>
      </trkpt>
      <trkpt lat="51.528522977605462" lon="10.668745022267103">
        <ele>264.5</ele>
        <time>2017-05-22T11:17:30Z</time>
      </trkpt>
      <trkpt lat="51.528597995638847" lon="10.669002011418343">
        <ele>265.94</ele>
        <time>2017-05-22T11:17:31Z</time>
      </trkpt>
      <trkpt lat="51.529306014999747" lon="10.671706013381481">
        <ele>267.86000000000001</ele>
        <time>2017-05-22T11:17:40Z</time>
      </trkpt>
      <trkpt lat="51.530135991051793" lon="10.673859994858503">
        <ele>265.94</ele>
        <time>2017-05-22T11:17:47Z</time>
      </trkpt>
      <trkpt lat="51.530267000198364" lon="10.674114972352982">
        <ele>265.94</ele>
        <time>2017-05-22T11:17:48Z</time>
      </trkpt>
      <trkpt lat="51.530419969931245" lon="10.67434798926115">
        <ele>266.89999999999998</ele>
        <time>2017-05-22T11:17:49Z</time>
      </trkpt>
      <trkpt lat="51.530592972412705" lon="10.674572037532926">
        <ele>267.38</ele>
        <time>2017-05-22T11:17:50Z</time>
      </trkpt>
      <trkpt lat="51.531684966757894" lon="10.675734020769596">
        <ele>274.58999999999997</ele>
        <time>2017-05-22T11:17:56Z</time>
      </trkpt>
      <trkpt lat="51.531883031129837" lon="10.675843991339207">
        <ele>276.51999999999998</ele>
        <time>2017-05-22T11:17:57Z</time>
      </trkpt>
      <trkpt lat="51.533385990187526" lon="10.676620993763208">
        <ele>282.76999999999998</ele>
        <time>2017-05-22T11:18:05Z</time>
      </trkpt>
      <trkpt lat="51.533557986840606" lon="10.676660975441337">
        <ele>281.31999999999999</ele>
        <time>2017-05-22T11:18:06Z</time>
      </trkpt>
      <trkpt lat="51.535067986696959" lon="10.67701100371778">
        <ele>269.79000000000002</ele>
        <time>2017-05-22T11:18:13Z</time>
      </trkpt>
      <trkpt lat="51.537809036672115" lon="10.677849026396871">
        <ele>272.19</ele>
        <time>2017-05-22T11:18:25Z</time>
      </trkpt>
      <trkpt lat="51.539203030988574" lon="10.677881967276335">
        <ele>265.94</ele>
        <time>2017-05-22T11:18:31Z</time>
      </trkpt>
      <trkpt lat="51.540444977581501" lon="10.677814995869994">
        <ele>268.35000000000002</ele>
        <time>2017-05-22T11:18:36Z</time>
      </trkpt>
      <trkpt lat="51.54226703569293" lon="10.678264014422894">
        <ele>282.27999999999997</ele>
        <time>2017-05-22T11:18:44Z</time>
      </trkpt>
      <trkpt lat="51.542432997375727" lon="10.678327968344092">
        <ele>282.76999999999998</ele>
        <time>2017-05-22T11:18:45Z</time>
      </trkpt>
      <trkpt lat="51.542571969330311" lon="10.678408015519381">
        <ele>282.76999999999998</ele>
        <time>2017-05-22T11:18:46Z</time>
      </trkpt>
      <trkpt lat="51.542695015668869" lon="10.678514968603849">
        <ele>282.27999999999997</ele>
        <time>2017-05-22T11:18:47Z</time>
      </trkpt>
      <trkpt lat="51.543423989787698" lon="10.679206978529692">
        <ele>275.56</ele>
        <time>2017-05-22T11:18:52Z</time>
      </trkpt>
      <trkpt lat="51.54353303834796" lon="10.679372018203139">
        <ele>274.58999999999997</ele>
        <time>2017-05-22T11:18:53Z</time>
      </trkpt>
      <trkpt lat="51.543619958683848" lon="10.67954602651298">
        <ele>273.14999999999998</ele>
        <time>2017-05-22T11:18:54Z</time>
      </trkpt>
      <trkpt lat="51.543687013909221" lon="10.679759010672569">
        <ele>272.67000000000002</ele>
        <time>2017-05-22T11:18:55Z</time>
      </trkpt>
      <trkpt lat="51.543746022507548" lon="10.680004013702273">
        <ele>271.70999999999998</ele>
        <time>2017-05-22T11:18:56Z</time>
      </trkpt>
      <trkpt lat="51.543800001963973" lon="10.680267959833145">
        <ele>270.75</ele>
        <time>2017-05-22T11:18:57Z</time>
      </trkpt>
      <trkpt lat="51.544429985806346" lon="10.682672979310155">
        <ele>257.76999999999998</ele>
        <time>2017-05-22T11:19:07Z</time>
      </trkpt>
      <trkpt lat="51.544931977987289" lon="10.684161018580198">
        <ele>249.59999999999999</ele>
        <time>2017-05-22T11:19:15Z</time>
      </trkpt>
      <trkpt lat="51.544956034049392" lon="10.684322034940124">
        <ele>249.12</ele>
        <time>2017-05-22T11:19:16Z</time>
      </trkpt>
      <trkpt lat="51.544966008514166" lon="10.684475004673004">
        <ele>248.63999999999999</ele>
        <time>2017-05-22T11:19:17Z</time>
      </trkpt>
      <trkpt lat="51.544958967715502" lon="10.685578985139728">
        <ele>243.34999999999999</ele>
        <time>2017-05-22T11:19:25Z</time>
      </trkpt>
      <trkpt lat="51.544983023777604" lon="10.685703037306666">
        <ele>242.87</ele>
        <time>2017-05-22T11:19:26Z</time>
      </trkpt>
      <trkpt lat="51.545023005455732" lon="10.685829017311335">
        <ele>242.38999999999999</ele>
        <time>2017-05-22T11:19:27Z</time>
      </trkpt>
      <trkpt lat="51.545072961598635" lon="10.6859499681741">
        <ele>241.91</ele>
        <time>2017-05-22T11:19:28Z</time>
      </trkpt>
      <trkpt lat="51.545124007388949" lon="10.686071002855897">
        <ele>241.43000000000001</ele>
        <time>2017-05-22T11:19:29Z</time>
      </trkpt>
      <trkpt lat="51.545751979574561" lon="10.687056966125965">
        <ele>238.53999999999999</ele>
        <time>2017-05-22T11:19:40Z</time>
      </trkpt>
      <trkpt lat="51.546793011948466" lon="10.687992973253131">
        <ele>239.02000000000001</ele>
        <time>2017-05-22T11:19:53Z</time>
      </trkpt>
      <trkpt lat="51.547025023028255" lon="10.688148038461804">
        <ele>237.58000000000001</ele>
        <time>2017-05-22T11:19:56Z</time>
      </trkpt>
      <trkpt lat="51.547118984162807" lon="10.688178967684507">
        <ele>238.06</ele>
        <time>2017-05-22T11:19:57Z</time>
      </trkpt>
      <trkpt lat="51.548044010996819" lon="10.688291033729911">
        <ele>239.99000000000001</ele>
        <time>2017-05-22T11:20:04Z</time>
      </trkpt>
      <trkpt lat="51.549826003611088" lon="10.688509969040751">
        <ele>234.22</ele>
        <time>2017-05-22T11:20:15Z</time>
      </trkpt>
      <trkpt lat="51.552347028627992" lon="10.688842982053757">
        <ele>219.80000000000001</ele>
        <time>2017-05-22T11:20:29Z</time>
      </trkpt>
      <trkpt lat="51.553675979375839" lon="10.68902101367712">
        <ele>219.31999999999999</ele>
        <time>2017-05-22T11:20:37Z</time>
      </trkpt>
      <trkpt lat="51.554032964631915" lon="10.689074993133545">
        <ele>219.31999999999999</ele>
        <time>2017-05-22T11:20:43Z</time>
      </trkpt>
      <trkpt lat="51.554074035957456" lon="10.689056972041726">
        <ele>219.31999999999999</ele>
        <time>2017-05-22T11:20:45Z</time>
      </trkpt>
      <trkpt lat="51.554103037342429" lon="10.689010033383965">
        <ele>219.80000000000001</ele>
        <time>2017-05-22T11:20:46Z</time>
      </trkpt>
      <trkpt lat="51.554132960736752" lon="10.6889340095222">
        <ele>219.80000000000001</ele>
        <time>2017-05-22T11:20:47Z</time>
      </trkpt>
      <trkpt lat="51.554160034283996" lon="10.688833007588983">
        <ele>219.31999999999999</ele>
        <time>2017-05-22T11:20:48Z</time>
      </trkpt>
      <trkpt lat="51.554181994870305" lon="10.688722031190991">
        <ele>219.31999999999999</ele>
        <time>2017-05-22T11:20:49Z</time>
      </trkpt>
      <trkpt lat="51.554404031485319" lon="10.687460973858833">
        <ele>220.28</ele>
        <time>2017-05-22T11:20:57Z</time>
      </trkpt>
      <trkpt lat="51.554754981771111" lon="10.685459962114692">
        <ele>222.68000000000001</ele>
        <time>2017-05-22T11:21:11Z</time>
      </trkpt>
      <trkpt lat="51.554750958457589" lon="10.685335993766785">
        <ele>222.68000000000001</ele>
        <time>2017-05-22T11:21:12Z</time>
      </trkpt>
      <trkpt lat="51.554606035351753" lon="10.683416035026312">
        <ele>224.12</ele>
        <time>2017-05-22T11:21:26Z</time>
      </trkpt>
      <trkpt lat="51.554575022310019" lon="10.682839024811983">
        <ele>224.12</ele>
        <time>2017-05-22T11:21:31Z</time>
      </trkpt>
      <trkpt lat="51.55460000038147" lon="10.682765012606978">
        <ele>224.61000000000001</ele>
        <time>2017-05-22T11:21:32Z</time>
      </trkpt>
      <trkpt lat="51.554637970402837" lon="10.682715978473425">
        <ele>224.61000000000001</ele>
        <time>2017-05-22T11:21:33Z</time>
      </trkpt>
      <trkpt lat="51.554697984829545" lon="10.682679014280438">
        <ele>224.61000000000001</ele>
        <time>2017-05-22T11:21:34Z</time>
      </trkpt>
      <trkpt lat="51.554762022569776" lon="10.682645989581943">
        <ele>224.61000000000001</ele>
        <time>2017-05-22T11:21:35Z</time>
      </trkpt>
      <trkpt lat="51.554834023118019" lon="10.682630985975266">
        <ele>225.09</ele>
        <time>2017-05-22T11:21:36Z</time>
      </trkpt>
      <trkpt lat="51.554907029494643" lon="10.68263802677393">
        <ele>225.56999999999999</ele>
        <time>2017-05-22T11:21:37Z</time>
      </trkpt>
      <trkpt lat="51.555215986445546" lon="10.682693012058735">
        <ele>227.00999999999999</ele>
        <time>2017-05-22T11:21:41Z</time>
      </trkpt>
      <trkpt lat="51.555295027792454" lon="10.682678008452058">
        <ele>227.00999999999999</ele>
        <time>2017-05-22T11:21:42Z</time>
      </trkpt>
      <trkpt lat="51.555369039997458" lon="10.682631991803646">
        <ele>227.49000000000001</ele>
        <time>2017-05-22T11:21:43Z</time>
      </trkpt>
      <trkpt lat="51.555427964776754" lon="10.682546999305487">
        <ele>227.00999999999999</ele>
        <time>2017-05-22T11:21:44Z</time>
      </trkpt>
      <trkpt lat="51.555475993081927" lon="10.682439040392637">
        <ele>227.49000000000001</ele>
        <time>2017-05-22T11:21:45Z</time>
      </trkpt>
      <trkpt lat="51.555516980588436" lon="10.682321023195982">
        <ele>227.49000000000001</ele>
        <time>2017-05-22T11:21:46Z</time>
      </trkpt>
      <trkpt lat="51.555624017491937" lon="10.682137962430716">
        <ele>229.41</ele>
        <time>2017-05-22T11:21:48Z</time>
      </trkpt>
      <trkpt lat="51.555694006383419" lon="10.682108039036393">
        <ele>229.41</ele>
        <time>2017-05-22T11:21:49Z</time>
      </trkpt>
      <trkpt lat="51.555766006931663" lon="10.68210200406611">
        <ele>229.41</ele>
        <time>2017-05-22T11:21:50Z</time>
      </trkpt>
      <trkpt lat="51.555904978886247" lon="10.682093035429716">
        <ele>228.93000000000001</ele>
        <time>2017-05-22T11:21:52Z</time>
      </trkpt>
      <trkpt lat="51.55597597360611" lon="10.682033021003008">
        <ele>228.93000000000001</ele>
        <time>2017-05-22T11:21:53Z</time>
      </trkpt>
      <trkpt lat="51.556028025224805" lon="10.681921038776636">
        <ele>228.93000000000001</ele>
        <time>2017-05-22T11:21:54Z</time>
      </trkpt>
      <trkpt lat="51.556552983820438" lon="10.680281035602093">
        <ele>231.33000000000001</ele>
        <time>2017-05-22T11:22:05Z</time>
      </trkpt>
      <trkpt lat="51.557123037055135" lon="10.678365016356111">
        <ele>236.13999999999999</ele>
        <time>2017-05-22T11:22:17Z</time>
      </trkpt>
      <trkpt lat="51.557431994006038" lon="10.677540991455317">
        <ele>238.53999999999999</ele>
        <time>2017-05-22T11:22:23Z</time>
      </trkpt>
      <trkpt lat="51.557503994554281" lon="10.677434960380197">
        <ele>238.53999999999999</ele>
        <time>2017-05-22T11:22:24Z</time>
      </trkpt>
      <trkpt lat="51.557582030072808" lon="10.67733395844698">
        <ele>239.02000000000001</ele>
        <time>2017-05-22T11:22:25Z</time>
      </trkpt>
      <trkpt lat="51.558030964806676" lon="10.676899021491408">
        <ele>240.47</ele>
        <time>2017-05-22T11:22:30Z</time>
      </trkpt>
      <trkpt lat="51.559079959988594" lon="10.676308013498783">
        <ele>243.83000000000001</ele>
        <time>2017-05-22T11:22:38Z</time>
      </trkpt>
      <trkpt lat="51.559247011318803" lon="10.67632201127708">
        <ele>244.31</ele>
        <time>2017-05-22T11:22:39Z</time>
      </trkpt>
      <trkpt lat="51.560782995074987" lon="10.676681008189917">
        <ele>254.41</ele>
        <time>2017-05-22T11:22:47Z</time>
      </trkpt>
      <trkpt lat="51.56113201752305" lon="10.676764994859695">
        <ele>255.37</ele>
        <time>2017-05-22T11:22:49Z</time>
      </trkpt>
      <trkpt lat="51.561265960335732" lon="10.676845964044333">
        <ele>255.84999999999999</ele>
        <time>2017-05-22T11:22:50Z</time>
      </trkpt>
      <trkpt lat="51.561374003067613" lon="10.676974961534142">
        <ele>256.81</ele>
        <time>2017-05-22T11:22:51Z</time>
      </trkpt>
      <trkpt lat="51.561463018879294" lon="10.677150981500745">
        <ele>257.29000000000002</ele>
        <time>2017-05-22T11:22:52Z</time>
      </trkpt>
      <trkpt lat="51.561553040519357" lon="10.67735399119556">
        <ele>258.25</ele>
        <time>2017-05-22T11:22:53Z</time>
      </trkpt>
      <trkpt lat="51.561813969165087" lon="10.677942987531424">
        <ele>260.17000000000002</ele>
        <time>2017-05-22T11:22:56Z</time>
      </trkpt>
      <trkpt lat="51.561911031603813" lon="10.678047006949782">
        <ele>260.64999999999998</ele>
        <time>2017-05-22T11:22:57Z</time>
      </trkpt>
      <trkpt lat="51.562030976638198" lon="10.678095035254955">
        <ele>261.13999999999999</ele>
        <time>2017-05-22T11:22:58Z</time>
      </trkpt>
      <trkpt lat="51.562172966077924" lon="10.678100986406207">
        <ele>262.10000000000002</ele>
        <time>2017-05-22T11:22:59Z</time>
      </trkpt>
      <trkpt lat="51.562326019629836" lon="10.678093023598194">
        <ele>262.10000000000002</ele>
        <time>2017-05-22T11:23:00Z</time>
      </trkpt>
      <trkpt lat="51.563706016167998" lon="10.678022028878331">
        <ele>264.01999999999998</ele>
        <time>2017-05-22T11:23:07Z</time>
      </trkpt>
      <trkpt lat="51.566124027594924" lon="10.677976012229919">
        <ele>258.25</ele>
        <time>2017-05-22T11:23:17Z</time>
      </trkpt>
      <trkpt lat="51.567139998078346" lon="10.677900994196534">
        <ele>264.98000000000002</ele>
        <time>2017-05-22T11:23:22Z</time>
      </trkpt>
      <trkpt lat="51.567313000559807" lon="10.677826981991529">
        <ele>264.5</ele>
        <time>2017-05-22T11:23:23Z</time>
      </trkpt>
      <trkpt lat="51.568967001512647" lon="10.676931040361524">
        <ele>262.10000000000002</ele>
        <time>2017-05-22T11:23:32Z</time>
      </trkpt>
      <trkpt lat="51.570919984951615" lon="10.674907984212041">
        <ele>264.5</ele>
        <time>2017-05-22T11:23:42Z</time>
      </trkpt>
      <trkpt lat="51.572869028896093" lon="10.672658029943705">
        <ele>264.98000000000002</ele>
        <time>2017-05-22T11:23:52Z</time>
      </trkpt>
      <trkpt lat="51.574010979384184" lon="10.671474002301693">
        <ele>269.31</ele>
        <time>2017-05-22T11:24:00Z</time>
      </trkpt>
      <trkpt lat="51.574159003794193" lon="10.671437038108706">
        <ele>269.79000000000002</ele>
        <time>2017-05-22T11:24:01Z</time>
      </trkpt>
      <trkpt lat="51.57432203181088" lon="10.671438965946436">
        <ele>270.75</ele>
        <time>2017-05-22T11:24:02Z</time>
      </trkpt>
      <trkpt lat="51.574487993493676" lon="10.671469978988171">
        <ele>271.23000000000002</ele>
        <time>2017-05-22T11:24:03Z</time>
      </trkpt>
      <trkpt lat="51.57466895878315" lon="10.671535022556782">
        <ele>271.70999999999998</ele>
        <time>2017-05-22T11:24:04Z</time>
      </trkpt>
      <trkpt lat="51.574845984578133" lon="10.671621020883322">
        <ele>271.23000000000002</ele>
        <time>2017-05-22T11:24:05Z</time>
      </trkpt>
      <trkpt lat="51.57554604113102" lon="10.671927966177464">
        <ele>268.82999999999998</ele>
        <time>2017-05-22T11:24:09Z</time>
      </trkpt>
      <trkpt lat="51.575693981721997" lon="10.671993009746075">
        <ele>267.38</ele>
        <time>2017-05-22T11:24:10Z</time>
      </trkpt>
      <trkpt lat="51.5758509747684" lon="10.672072973102331">
        <ele>266.89999999999998</ele>
        <time>2017-05-22T11:24:11Z</time>
      </trkpt>
      <trkpt lat="51.575988018885255" lon="10.672213034704328">
        <ele>265.94</ele>
        <time>2017-05-22T11:24:12Z</time>
      </trkpt>
      <trkpt lat="51.576093966141343" lon="10.672368016093969">
        <ele>264.5</ele>
        <time>2017-05-22T11:24:13Z</time>
      </trkpt>
      <trkpt lat="51.576163033023477" lon="10.672548981383443">
        <ele>262.57999999999998</ele>
        <time>2017-05-22T11:24:14Z</time>
      </trkpt>
      <trkpt lat="51.576204020529985" lon="10.672746961936355">
        <ele>261.62</ele>
        <time>2017-05-22T11:24:15Z</time>
      </trkpt>
      <trkpt lat="51.576219024136662" lon="10.67295198328793">
        <ele>261.13999999999999</ele>
        <time>2017-05-22T11:24:16Z</time>
      </trkpt>
      <trkpt lat="51.57619496807456" lon="10.673205032944679">
        <ele>260.64999999999998</ele>
        <time>2017-05-22T11:24:17Z</time>
      </trkpt>
      <trkpt lat="51.576175019145012" lon="10.673438971862197">
        <ele>259.69</ele>
        <time>2017-05-22T11:24:18Z</time>
      </trkpt>
      <trkpt lat="51.576168984174728" lon="10.673667965456843">
        <ele>259.20999999999998</ele>
        <time>2017-05-22T11:24:19Z</time>
      </trkpt>
      <trkpt lat="51.576182981953025" lon="10.673885978758335">
        <ele>257.76999999999998</ele>
        <time>2017-05-22T11:24:20Z</time>
      </trkpt>
      <trkpt lat="51.576217012479901" lon="10.674070967361331">
        <ele>256.81</ele>
        <time>2017-05-22T11:24:21Z</time>
      </trkpt>
      <trkpt lat="51.576267974451184" lon="10.674211028963327">
        <ele>256.32999999999998</ele>
        <time>2017-05-22T11:24:22Z</time>
      </trkpt>
      <trkpt lat="51.576325977221131" lon="10.674300966784358">
        <ele>255.84999999999999</ele>
        <time>2017-05-22T11:24:23Z</time>
      </trkpt>
      <trkpt lat="51.576381968334317" lon="10.674320999532938">
        <ele>254.88999999999999</ele>
        <time>2017-05-22T11:24:24Z</time>
      </trkpt>
      <trkpt lat="51.576436031609774" lon="10.674293003976345">
        <ele>254.41</ele>
        <time>2017-05-22T11:24:25Z</time>
      </trkpt>
      <trkpt lat="51.576486993581057" lon="10.674205999821424">
        <ele>252.96000000000001</ele>
        <time>2017-05-22T11:24:26Z</time>
      </trkpt>
      <trkpt lat="51.576529992744327" lon="10.674106003716588">
        <ele>252.47999999999999</ele>
        <time>2017-05-22T11:24:27Z</time>
      </trkpt>
      <trkpt lat="51.576561005786061" lon="10.673983041197062">
        <ele>252</ele>
        <time>2017-05-22T11:24:28Z</time>
      </trkpt>
      <trkpt lat="51.576592018827796" lon="10.673855971544981">
        <ele>251.03999999999999</ele>
        <time>2017-05-22T11:24:29Z</time>
      </trkpt>
      <trkpt lat="51.576673993840814" lon="10.6735959649086">
        <ele>250.08000000000001</ele>
        <time>2017-05-22T11:24:31Z</time>
      </trkpt>
      <trkpt lat="51.576743982732296" lon="10.673482976853848">
        <ele>248.63999999999999</ele>
        <time>2017-05-22T11:24:32Z</time>
      </trkpt>
      <trkpt lat="51.576895024627447" lon="10.673327995464206">
        <ele>247.19999999999999</ele>
        <time>2017-05-22T11:24:34Z</time>
      </trkpt>
      <trkpt lat="51.576983034610748" lon="10.673282984644175">
        <ele>246.22999999999999</ele>
        <time>2017-05-22T11:24:35Z</time>
      </trkpt>
      <trkpt lat="51.577073978260159" lon="10.673233028501272">
        <ele>245.27000000000001</ele>
        <time>2017-05-22T11:24:36Z</time>
      </trkpt>
      <trkpt lat="51.577170034870505" lon="10.673207966610789">
        <ele>244.31</ele>
        <time>2017-05-22T11:24:37Z</time>
      </trkpt>
      <trkpt lat="51.577266007661819" lon="10.673192963004112">
        <ele>243.83000000000001</ele>
        <time>2017-05-22T11:24:38Z</time>
      </trkpt>
      <trkpt lat="51.578425979241729" lon="10.673327995464206">
        <ele>240.94999999999999</ele>
        <time>2017-05-22T11:24:49Z</time>
      </trkpt>
      <trkpt lat="51.579428035765886" lon="10.673418017104268">
        <ele>240.47</ele>
        <time>2017-05-22T11:24:59Z</time>
      </trkpt>
      <trkpt lat="51.580355996266007" lon="10.673536034300923">
        <ele>240.94999999999999</ele>
        <time>2017-05-22T11:25:13Z</time>
      </trkpt>
      <trkpt lat="51.580448029562831" lon="10.673372000455856">
        <ele>240.94999999999999</ele>
        <time>2017-05-22T11:25:19Z</time>
      </trkpt>
      <trkpt lat="51.580465966835618" lon="10.673245014622808">
        <ele>240.94999999999999</ele>
        <time>2017-05-22T11:25:20Z</time>
      </trkpt>
      <trkpt lat="51.580472001805902" lon="10.673102019354701">
        <ele>239.99000000000001</ele>
        <time>2017-05-22T11:25:21Z</time>
      </trkpt>
      <trkpt lat="51.580656990408897" lon="10.671528987586498">
        <ele>239.02000000000001</ele>
        <time>2017-05-22T11:25:30Z</time>
      </trkpt>
      <trkpt lat="51.581100979819894" lon="10.669541973620653">
        <ele>239.99000000000001</ele>
        <time>2017-05-22T11:25:42Z</time>
      </trkpt>
      <trkpt lat="51.581687964498997" lon="10.6678800098598">
        <ele>241.43000000000001</ele>
        <time>2017-05-22T11:25:53Z</time>
      </trkpt>
      <trkpt lat="51.582204038277268" lon="10.666850041598082">
        <ele>241.43000000000001</ele>
        <time>2017-05-22T11:26:01Z</time>
      </trkpt>
      <trkpt lat="51.582277966663241" lon="10.666763037443161">
        <ele>241.43000000000001</ele>
        <time>2017-05-22T11:26:02Z</time>
      </trkpt>
      <trkpt lat="51.58235801383853" lon="10.666701011359692">
        <ele>241.43000000000001</ele>
        <time>2017-05-22T11:26:03Z</time>
      </trkpt>
      <trkpt lat="51.582448035478592" lon="10.666648037731647">
        <ele>241.91</ele>
        <time>2017-05-22T11:26:04Z</time>
      </trkpt>
      <trkpt lat="51.582547025755048" lon="10.666601015254855">
        <ele>241.91</ele>
        <time>2017-05-22T11:26:05Z</time>
      </trkpt>
      <trkpt lat="51.583831971511245" lon="10.66603004001081">
        <ele>244.78999999999999</ele>
        <time>2017-05-22T11:26:18Z</time>
      </trkpt>
      <trkpt lat="51.583943031728268" lon="10.665975976735353">
        <ele>246.72</ele>
        <time>2017-05-22T11:26:20Z</time>
      </trkpt>
      <trkpt lat="51.583982007578015" lon="10.665982011705637">
        <ele>247.19999999999999</ele>
        <time>2017-05-22T11:26:21Z</time>
      </trkpt>
      <trkpt lat="51.584019977599382" lon="10.666011013090611">
        <ele>245.75</ele>
        <time>2017-05-22T11:26:22Z</time>
      </trkpt>
      <trkpt lat="51.584036992862821" lon="10.666046971455216">
        <ele>245.27000000000001</ele>
        <time>2017-05-22T11:26:23Z</time>
      </trkpt>
      <trkpt lat="51.584040010347962" lon="10.66611897200346">
        <ele>244.31</ele>
        <time>2017-05-22T11:26:24Z</time>
      </trkpt>
      <trkpt lat="51.584042022004724" lon="10.66620203666389">
        <ele>243.83000000000001</ele>
        <time>2017-05-22T11:26:25Z</time>
      </trkpt>
      <trkpt lat="51.584069011732936" lon="10.666524991393089">
        <ele>242.38999999999999</ele>
        <time>2017-05-22T11:26:28Z</time>
      </trkpt>
      <trkpt lat="51.584203038364649" lon="10.667324960231781">
        <ele>244.31</ele>
        <time>2017-05-22T11:26:34Z</time>
      </trkpt>
      <trkpt lat="51.584244025871158" lon="10.667422022670507">
        <ele>244.78999999999999</ele>
        <time>2017-05-22T11:26:35Z</time>
      </trkpt>
      <trkpt lat="51.584303034469485" lon="10.667488994076848">
        <ele>244.78999999999999</ele>
        <time>2017-05-22T11:26:36Z</time>
      </trkpt>
      <trkpt lat="51.584386015310884" lon="10.667525958269835">
        <ele>245.75</ele>
        <time>2017-05-22T11:26:37Z</time>
      </trkpt>
      <trkpt lat="51.584476036950946" lon="10.667525958269835">
        <ele>247.19999999999999</ele>
        <time>2017-05-22T11:26:38Z</time>
      </trkpt>
      <trkpt lat="51.584578966721892" lon="10.667519001290202">
        <ele>248.16</ele>
        <time>2017-05-22T11:26:39Z</time>
      </trkpt>
      <trkpt lat="51.586088966578245" lon="10.667549008503556">
        <ele>250.08000000000001</ele>
        <time>2017-05-22T11:26:52Z</time>
      </trkpt>
      <trkpt lat="51.587426969781518" lon="10.667658979073167">
        <ele>253.93000000000001</ele>
        <time>2017-05-22T11:27:05Z</time>
      </trkpt>
      <trkpt lat="51.587492013350129" lon="10.66768798045814">
        <ele>254.41</ele>
        <time>2017-05-22T11:27:06Z</time>
      </trkpt>
      <trkpt lat="51.587617993354797" lon="10.667696027085185">
        <ele>254.41</ele>
        <time>2017-05-22T11:27:12Z</time>
      </trkpt>
      <trkpt lat="51.587640037760139" lon="10.667660990729928">
        <ele>254.41</ele>
        <time>2017-05-22T11:27:13Z</time>
      </trkpt>
      <trkpt lat="51.587659986689687" lon="10.667584966868162">
        <ele>254.41</ele>
        <time>2017-05-22T11:27:14Z</time>
      </trkpt>
      <trkpt lat="51.587669039145112" lon="10.667470972985029">
        <ele>253.93000000000001</ele>
        <time>2017-05-22T11:27:15Z</time>
      </trkpt>
      <trkpt lat="51.587667027488351" lon="10.667341975495219">
        <ele>253.93000000000001</ele>
        <time>2017-05-22T11:27:16Z</time>
      </trkpt>
      <trkpt lat="51.587664010003209" lon="10.667195962741971">
        <ele>253.93000000000001</ele>
        <time>2017-05-22T11:27:17Z</time>
      </trkpt>
      <trkpt lat="51.587626039981842" lon="10.665475996211171">
        <ele>253.44</ele>
        <time>2017-05-22T11:27:28Z</time>
      </trkpt>
      <trkpt lat="51.587595026940107" lon="10.663529969751835">
        <ele>251.03999999999999</ele>
        <time>2017-05-22T11:27:42Z</time>
      </trkpt>
      <trkpt lat="51.587523026391864" lon="10.662554986774921">
        <ele>249.12</ele>
        <time>2017-05-22T11:27:50Z</time>
      </trkpt>
      <trkpt lat="51.587501987814903" lon="10.66244401037693">
        <ele>249.12</ele>
        <time>2017-05-22T11:27:51Z</time>
      </trkpt>
      <trkpt lat="51.587427975609899" lon="10.662118038162589">
        <ele>248.16</ele>
        <time>2017-05-22T11:27:54Z</time>
      </trkpt>
      <trkpt lat="51.587418001145124" lon="10.661997003480792">
        <ele>248.16</ele>
        <time>2017-05-22T11:27:55Z</time>
      </trkpt>
      <trkpt lat="51.587422024458647" lon="10.661872029304504">
        <ele>248.63999999999999</ele>
        <time>2017-05-22T11:27:56Z</time>
      </trkpt>
      <trkpt lat="51.587431998923421" lon="10.661747977137566">
        <ele>248.63999999999999</ele>
        <time>2017-05-22T11:27:57Z</time>
      </trkpt>
      <trkpt lat="51.587444990873337" lon="10.661624008789659">
        <ele>248.63999999999999</ele>
        <time>2017-05-22T11:27:58Z</time>
      </trkpt>
      <trkpt lat="51.587462006136775" lon="10.661383029073477">
        <ele>248.63999999999999</ele>
        <time>2017-05-22T11:28:00Z</time>
      </trkpt>
      <trkpt lat="51.587461000308394" lon="10.661256965249777">
        <ele>248.63999999999999</ele>
        <time>2017-05-22T11:28:01Z</time>
      </trkpt>
      <trkpt lat="51.587452031672001" lon="10.661128973588347">
        <ele>249.12</ele>
        <time>2017-05-22T11:28:02Z</time>
      </trkpt>
      <trkpt lat="51.587427975609899" lon="10.660999976098537">
        <ele>248.63999999999999</ele>
        <time>2017-05-22T11:28:03Z</time>
      </trkpt>
      <trkpt lat="51.587406015023589" lon="10.660865027457476">
        <ele>248.63999999999999</ele>
        <time>2017-05-22T11:28:04Z</time>
      </trkpt>
      <trkpt lat="51.587307024747133" lon="10.660244012251496">
        <ele>250.08000000000001</ele>
        <time>2017-05-22T11:28:11Z</time>
      </trkpt>
      <trkpt lat="51.587154977023602" lon="10.658987984061241">
        <ele>251.52000000000001</ele>
        <time>2017-05-22T11:28:20Z</time>
      </trkpt>
      <trkpt lat="51.586645022034645" lon="10.656343996524811">
        <ele>251.52000000000001</ele>
        <time>2017-05-22T11:28:36Z</time>
      </trkpt>
      <trkpt lat="51.586608979851007" lon="10.655920039862394">
        <ele>251.52000000000001</ele>
        <time>2017-05-22T11:28:38Z</time>
      </trkpt>
      <trkpt lat="51.586607974022627" lon="10.655695991590619">
        <ele>251.52000000000001</ele>
        <time>2017-05-22T11:28:39Z</time>
      </trkpt>
      <trkpt lat="51.586620965972543" lon="10.655471021309495">
        <ele>251.52000000000001</ele>
        <time>2017-05-22T11:28:40Z</time>
      </trkpt>
      <trkpt lat="51.586910979822278" lon="10.653145965188742">
        <ele>252.96000000000001</ele>
        <time>2017-05-22T11:28:49Z</time>
      </trkpt>
      <trkpt lat="51.58747399225831" lon="10.649486007168889">
        <ele>259.69</ele>
        <time>2017-05-22T11:29:01Z</time>
      </trkpt>
      <trkpt lat="51.587642971426249" lon="10.645808028057218">
        <ele>266.42000000000002</ele>
        <time>2017-05-22T11:29:10Z</time>
      </trkpt>
      <trkpt lat="51.587712038308382" lon="10.641213990747929">
        <ele>270.75</ele>
        <time>2017-05-22T11:29:21Z</time>
      </trkpt>
      <trkpt lat="51.587640959769487" lon="10.639045005664229">
        <ele>273.14999999999998</ele>
        <time>2017-05-22T11:29:27Z</time>
      </trkpt>
      <trkpt lat="51.58760198391974" lon="10.638761026784778">
        <ele>273.63</ele>
        <time>2017-05-22T11:29:28Z</time>
      </trkpt>
      <trkpt lat="51.587324040010571" lon="10.6366409920156">
        <ele>277.95999999999998</ele>
        <time>2017-05-22T11:29:35Z</time>
      </trkpt>
      <trkpt lat="51.587453037500381" lon="10.634483993053436">
        <ele>279.88</ele>
        <time>2017-05-22T11:29:41Z</time>
      </trkpt>
      <trkpt lat="51.588040022179484" lon="10.630315002053976">
        <ele>280.83999999999997</ele>
        <time>2017-05-22T11:29:52Z</time>
      </trkpt>
      <trkpt lat="51.588919032365084" lon="10.627601025626063">
        <ele>276.51999999999998</ele>
        <time>2017-05-22T11:30:00Z</time>
      </trkpt>
      <trkpt lat="51.589608024805784" lon="10.625575035810471">
        <ele>272.19</ele>
        <time>2017-05-22T11:30:08Z</time>
      </trkpt>
      <trkpt lat="51.589711960405111" lon="10.625130962580442">
        <ele>271.23000000000002</ele>
        <time>2017-05-22T11:30:10Z</time>
      </trkpt>
      <trkpt lat="51.589737022295594" lon="10.624901968985796">
        <ele>270.75</ele>
        <time>2017-05-22T11:30:11Z</time>
      </trkpt>
      <trkpt lat="51.590039022266865" lon="10.622817976400256">
        <ele>269.79000000000002</ele>
        <time>2017-05-22T11:30:20Z</time>
      </trkpt>
      <trkpt lat="51.590218981727958" lon="10.62056802213192">
        <ele>268.82999999999998</ele>
        <time>2017-05-22T11:30:30Z</time>
      </trkpt>
      <trkpt lat="51.589997028931975" lon="10.6183120328933">
        <ele>267.86000000000001</ele>
        <time>2017-05-22T11:30:42Z</time>
      </trkpt>
      <trkpt lat="51.589913964271545" lon="10.617637960240245">
        <ele>267.38</ele>
        <time>2017-05-22T11:30:46Z</time>
      </trkpt>
      <trkpt lat="51.589915975928307" lon="10.617489013820887">
        <ele>267.38</ele>
        <time>2017-05-22T11:30:47Z</time>
      </trkpt>
      <trkpt lat="51.589936008676887" lon="10.617355993017554">
        <ele>267.38</ele>
        <time>2017-05-22T11:30:48Z</time>
      </trkpt>
      <trkpt lat="51.589982025325298" lon="10.617017028853297">
        <ele>267.86000000000001</ele>
        <time>2017-05-22T11:30:54Z</time>
      </trkpt>
      <trkpt lat="51.589982025325298" lon="10.616990961134434">
        <ele>268.35000000000002</ele>
        <time>2017-05-22T11:31:01Z</time>
      </trkpt>
      <trkpt lat="51.589946988970041" lon="10.61693899333477">
        <ele>267.86000000000001</ele>
        <time>2017-05-22T11:31:02Z</time>
      </trkpt>
      <trkpt lat="51.589893009513617" lon="10.616903034970164">
        <ele>267.38</ele>
        <time>2017-05-22T11:31:03Z</time>
      </trkpt>
      <trkpt lat="51.589826960116625" lon="10.616881996393204">
        <ele>266.89999999999998</ele>
        <time>2017-05-22T11:31:04Z</time>
      </trkpt>
      <trkpt lat="51.589752025902271" lon="10.616866992786527">
        <ele>266.42000000000002</ele>
        <time>2017-05-22T11:31:05Z</time>
      </trkpt>
      <trkpt lat="51.588744018226862" lon="10.616688039153814">
        <ele>264.98000000000002</ele>
        <time>2017-05-22T11:31:15Z</time>
      </trkpt>
      <trkpt lat="51.587255978956819" lon="10.616499027237296">
        <ele>262.10000000000002</ele>
        <time>2017-05-22T11:31:31Z</time>
      </trkpt>
      <trkpt lat="51.586115034297109" lon="10.616854000836611">
        <ele>261.62</ele>
        <time>2017-05-22T11:31:43Z</time>
      </trkpt>
      <trkpt lat="51.585167041048408" lon="10.617492031306028">
        <ele>261.62</ele>
        <time>2017-05-22T11:31:54Z</time>
      </trkpt>
      <trkpt lat="51.585095962509513" lon="10.617522960528731">
        <ele>261.62</ele>
        <time>2017-05-22T11:31:55Z</time>
      </trkpt>
      <trkpt lat="51.585027985274792" lon="10.617532012984157">
        <ele>261.13999999999999</ele>
        <time>2017-05-22T11:31:56Z</time>
      </trkpt>
      <trkpt lat="51.584960008040071" lon="10.617506029084325">
        <ele>261.62</ele>
        <time>2017-05-22T11:31:57Z</time>
      </trkpt>
      <trkpt lat="51.584893958643079" lon="10.617436040192842">
        <ele>261.13999999999999</ele>
        <time>2017-05-22T11:31:58Z</time>
      </trkpt>
      <trkpt lat="51.584835033863783" lon="10.617336966097355">
        <ele>261.13999999999999</ele>
        <time>2017-05-22T11:31:59Z</time>
      </trkpt>
      <trkpt lat="51.584779964759946" lon="10.61721601523459">
        <ele>260.17000000000002</ele>
        <time>2017-05-22T11:32:00Z</time>
      </trkpt>
      <trkpt lat="51.584729002788663" lon="10.617084000259638">
        <ele>259.69</ele>
        <time>2017-05-22T11:32:01Z</time>
      </trkpt>
      <trkpt lat="51.584676029160619" lon="10.616939999163151">
        <ele>259.69</ele>
        <time>2017-05-22T11:32:02Z</time>
      </trkpt>
      <trkpt lat="51.584605034440756" lon="10.616653002798557">
        <ele>259.20999999999998</ele>
        <time>2017-05-22T11:32:04Z</time>
      </trkpt>
      <trkpt lat="51.584446029737592" lon="10.615174015983939">
        <ele>264.98000000000002</ele>
        <time>2017-05-22T11:32:14Z</time>
      </trkpt>
      <trkpt lat="51.584260035306215" lon="10.614326018840075">
        <ele>268.82999999999998</ele>
        <time>2017-05-22T11:32:21Z</time>
      </trkpt>
      <trkpt lat="51.584234973415732" lon="10.614173971116543">
        <ele>268.82999999999998</ele>
        <time>2017-05-22T11:32:22Z</time>
      </trkpt>
      <trkpt lat="51.584223993122578" lon="10.614012032747269">
        <ele>268.82999999999998</ele>
        <time>2017-05-22T11:32:23Z</time>
      </trkpt>
      <trkpt lat="51.584232961758971" lon="10.613841963931918">
        <ele>269.31</ele>
        <time>2017-05-22T11:32:24Z</time>
      </trkpt>
      <trkpt lat="51.584237990900874" lon="10.613669967278838">
        <ele>269.31</ele>
        <time>2017-05-22T11:32:25Z</time>
      </trkpt>
      <trkpt lat="51.584419040009379" lon="10.610912991687655">
        <ele>266.89999999999998</ele>
        <time>2017-05-22T11:32:40Z</time>
      </trkpt>
      <trkpt lat="51.584462039172649" lon="10.610000034794211">
        <ele>265.45999999999998</ele>
        <time>2017-05-22T11:32:45Z</time>
      </trkpt>
      <trkpt lat="51.584410993382335" lon="10.60956702567637">
        <ele>264.5</ele>
        <time>2017-05-22T11:32:48Z</time>
      </trkpt>
      <trkpt lat="51.584369000047445" lon="10.60943802818656">
        <ele>264.5</ele>
        <time>2017-05-22T11:32:49Z</time>
      </trkpt>
      <trkpt lat="51.584310997277498" lon="10.609306013211608">
        <ele>264.01999999999998</ele>
        <time>2017-05-22T11:32:50Z</time>
      </trkpt>
      <trkpt lat="51.584231033921242" lon="10.609170980751514">
        <ele>263.54000000000002</ele>
        <time>2017-05-22T11:32:51Z</time>
      </trkpt>
      <trkpt lat="51.584130031988025" lon="10.609024967998266">
        <ele>263.06</ele>
        <time>2017-05-22T11:32:52Z</time>
      </trkpt>
      <trkpt lat="51.584010003134608" lon="10.608893036842346">
        <ele>262.57999999999998</ele>
        <time>2017-05-22T11:32:53Z</time>
      </trkpt>
      <trkpt lat="51.583873964846134" lon="10.608759010210633">
        <ele>262.10000000000002</ele>
        <time>2017-05-22T11:32:54Z</time>
      </trkpt>
      <trkpt lat="51.582599999383092" lon="10.607402985915542">
        <ele>262.10000000000002</ele>
        <time>2017-05-22T11:33:02Z</time>
      </trkpt>
      <trkpt lat="51.582474019378424" lon="10.607136022299528">
        <ele>263.06</ele>
        <time>2017-05-22T11:33:03Z</time>
      </trkpt>
      <trkpt lat="51.581807993352413" lon="10.604728991165757">
        <ele>270.26999999999998</ele>
        <time>2017-05-22T11:33:10Z</time>
      </trkpt>
      <trkpt lat="51.581230983138084" lon="10.603043977171183">
        <ele>275.56</ele>
        <time>2017-05-22T11:33:15Z</time>
      </trkpt>
      <trkpt lat="51.580997966229916" lon="10.602510971948504">
        <ele>276.51999999999998</ele>
        <time>2017-05-22T11:33:17Z</time>
      </trkpt>
      <trkpt lat="51.58094197511673" lon="10.602253982797265">
        <ele>277.48000000000002</ele>
        <time>2017-05-22T11:33:18Z</time>
      </trkpt>
      <trkpt lat="51.580927977338433" lon="10.601991964504123">
        <ele>278.44</ele>
        <time>2017-05-22T11:33:19Z</time>
      </trkpt>
      <trkpt lat="51.580933006480336" lon="10.60170597396791">
        <ele>278.92000000000002</ele>
        <time>2017-05-22T11:33:20Z</time>
      </trkpt>
      <trkpt lat="51.580928983166814" lon="10.601398022845387">
        <ele>279.39999999999998</ele>
        <time>2017-05-22T11:33:21Z</time>
      </trkpt>
      <trkpt lat="51.58092001453042" lon="10.60108101926744">
        <ele>279.88</ele>
        <time>2017-05-22T11:33:22Z</time>
      </trkpt>
      <trkpt lat="51.580885984003544" lon="10.600484982132912">
        <ele>281.31999999999999</ele>
        <time>2017-05-22T11:33:24Z</time>
      </trkpt>
      <trkpt lat="51.580847008153796" lon="10.600222963839769">
        <ele>281.31999999999999</ele>
        <time>2017-05-22T11:33:25Z</time>
      </trkpt>
      <trkpt lat="51.580783976241946" lon="10.600002016872168">
        <ele>281.80000000000001</ele>
        <time>2017-05-22T11:33:26Z</time>
      </trkpt>
      <trkpt lat="51.580719016492367" lon="10.599803030490875">
        <ele>284.20999999999998</ele>
        <time>2017-05-22T11:33:27Z</time>
      </trkpt>
      <trkpt lat="51.580613991245627" lon="10.599618963897228">
        <ele>284.69</ele>
        <time>2017-05-22T11:33:28Z</time>
      </trkpt>
      <trkpt lat="51.580505026504397" lon="10.599437998607755">
        <ele>285.64999999999998</ele>
        <time>2017-05-22T11:33:29Z</time>
      </trkpt>
      <trkpt lat="51.580418022349477" lon="10.599244041368365">
        <ele>286.13</ele>
        <time>2017-05-22T11:33:30Z</time>
      </trkpt>
      <trkpt lat="51.580372005701065" lon="10.599027033895254">
        <ele>286.61000000000001</ele>
        <time>2017-05-22T11:33:31Z</time>
      </trkpt>
      <trkpt lat="51.580369994044304" lon="10.598812960088253">
        <ele>287.56999999999999</ele>
        <time>2017-05-22T11:33:32Z</time>
      </trkpt>
      <trkpt lat="51.580370999872684" lon="10.598562005907297">
        <ele>288.05000000000001</ele>
        <time>2017-05-22T11:33:33Z</time>
      </trkpt>
      <trkpt lat="51.580389020964503" lon="10.598305016756058">
        <ele>288.52999999999997</ele>
        <time>2017-05-22T11:33:34Z</time>
      </trkpt>
      <trkpt lat="51.580387009307742" lon="10.59805003926158">
        <ele>289.00999999999999</ele>
        <time>2017-05-22T11:33:35Z</time>
      </trkpt>
      <trkpt lat="51.58036395907402" lon="10.597788020968437">
        <ele>289.49000000000001</ele>
        <time>2017-05-22T11:33:36Z</time>
      </trkpt>
      <trkpt lat="51.580304028466344" lon="10.597291979938745">
        <ele>290.94</ele>
        <time>2017-05-22T11:33:38Z</time>
      </trkpt>
      <trkpt lat="51.580279972404242" lon="10.597101962193847">
        <ele>292.86000000000001</ele>
        <time>2017-05-22T11:33:39Z</time>
      </trkpt>
      <trkpt lat="51.580228004604578" lon="10.596924014389515">
        <ele>293.33999999999997</ele>
        <time>2017-05-22T11:33:40Z</time>
      </trkpt>
      <trkpt lat="51.580173019319773" lon="10.596747994422913">
        <ele>294.30000000000001</ele>
        <time>2017-05-22T11:33:41Z</time>
      </trkpt>
      <trkpt lat="51.580088026821613" lon="10.596578009426594">
        <ele>293.81999999999999</ele>
        <time>2017-05-22T11:33:42Z</time>
      </trkpt>
      <trkpt lat="51.579980989918113" lon="10.596443982794881">
        <ele>294.77999999999997</ele>
        <time>2017-05-22T11:33:43Z</time>
      </trkpt>
      <trkpt lat="51.579857021570206" lon="10.596323031932116">
        <ele>295.74000000000001</ele>
        <time>2017-05-22T11:33:44Z</time>
      </trkpt>
      <trkpt lat="51.579733975231647" lon="10.596228986978531">
        <ele>295.25999999999999</ele>
        <time>2017-05-22T11:33:45Z</time>
      </trkpt>
      <trkpt lat="51.579603971913457" lon="10.596157992258668">
        <ele>296.22000000000003</ele>
        <time>2017-05-22T11:33:46Z</time>
      </trkpt>
      <trkpt lat="51.579475980252028" lon="10.596110969781876">
        <ele>297.67000000000002</ele>
        <time>2017-05-22T11:33:47Z</time>
      </trkpt>
      <trkpt lat="51.579099968075752" lon="10.595984989777207">
        <ele>299.11000000000001</ele>
        <time>2017-05-22T11:33:50Z</time>
      </trkpt>
      <trkpt lat="51.578951021656394" lon="10.595988007262349">
        <ele>297.67000000000002</ele>
        <time>2017-05-22T11:33:51Z</time>
      </trkpt>
      <trkpt lat="51.57881498336792" lon="10.596021031960845">
        <ele>298.14999999999998</ele>
        <time>2017-05-22T11:33:52Z</time>
      </trkpt>
      <trkpt lat="51.578683974221349" lon="10.596082974225283">
        <ele>298.63</ele>
        <time>2017-05-22T11:33:53Z</time>
      </trkpt>
      <trkpt lat="51.578551959246397" lon="10.596167966723442">
        <ele>299.11000000000001</ele>
        <time>2017-05-22T11:33:54Z</time>
      </trkpt>
      <trkpt lat="51.577378995716572" lon="10.596741959452629">
        <ele>303.91000000000003</ele>
        <time>2017-05-22T11:34:02Z</time>
      </trkpt>
      <trkpt lat="51.577213034033775" lon="10.596750006079674">
        <ele>302.94999999999999</ele>
        <time>2017-05-22T11:34:03Z</time>
      </trkpt>
      <trkpt lat="51.577037014067173" lon="10.596723016351461">
        <ele>301.99000000000001</ele>
        <time>2017-05-22T11:34:04Z</time>
      </trkpt>
      <trkpt lat="51.576864011585712" lon="10.596665013581514">
        <ele>301.02999999999997</ele>
        <time>2017-05-22T11:34:05Z</time>
      </trkpt>
      <trkpt lat="51.576694026589394" lon="10.596583038568497">
        <ele>300.55000000000001</ele>
        <time>2017-05-22T11:34:06Z</time>
      </trkpt>
      <trkpt lat="51.576534016057849" lon="10.596460998058319">
        <ele>299.58999999999997</ele>
        <time>2017-05-22T11:34:07Z</time>
      </trkpt>
      <trkpt lat="51.576391020789742" lon="10.596316996961832">
        <ele>299.11000000000001</ele>
        <time>2017-05-22T11:34:08Z</time>
      </trkpt>
      <trkpt lat="51.576252970844507" lon="10.596149023622274">
        <ele>297.18000000000001</ele>
        <time>2017-05-22T11:34:09Z</time>
      </trkpt>
      <trkpt lat="51.576126990839839" lon="10.595944002270699">
        <ele>296.22000000000003</ele>
        <time>2017-05-22T11:34:10Z</time>
      </trkpt>
      <trkpt lat="51.57602297142148" lon="10.595744010061026">
        <ele>294.77999999999997</ele>
        <time>2017-05-22T11:34:11Z</time>
      </trkpt>
      <trkpt lat="51.575924986973405" lon="10.595520967617631">
        <ele>293.81999999999999</ele>
        <time>2017-05-22T11:34:12Z</time>
      </trkpt>
      <trkpt lat="51.575833959504962" lon="10.595273030921817">
        <ele>293.33999999999997</ele>
        <time>2017-05-22T11:34:13Z</time>
      </trkpt>
      <trkpt lat="51.575745027512312" lon="10.595007995143533">
        <ele>292.86000000000001</ele>
        <time>2017-05-22T11:34:14Z</time>
      </trkpt>
      <trkpt lat="51.574913961812854" lon="10.592397032305598">
        <ele>283.25</ele>
        <time>2017-05-22T11:34:23Z</time>
      </trkpt>
      <trkpt lat="51.573807969689369" lon="10.58939203619957">
        <ele>265.45999999999998</ele>
        <time>2017-05-22T11:34:34Z</time>
      </trkpt>
      <trkpt lat="51.57280096784234" lon="10.587555980309844">
        <ele>258.73000000000002</ele>
        <time>2017-05-22T11:34:42Z</time>
      </trkpt>
      <trkpt lat="51.57178801484406" lon="10.586444037035108">
        <ele>254.88999999999999</ele>
        <time>2017-05-22T11:34:50Z</time>
      </trkpt>
      <trkpt lat="51.570578003302217" lon="10.585207035765052">
        <ele>254.88999999999999</ele>
        <time>2017-05-22T11:35:03Z</time>
      </trkpt>
      <trkpt lat="51.570469038560987" lon="10.585147021338344">
        <ele>255.37</ele>
        <time>2017-05-22T11:35:04Z</time>
      </trkpt>
      <trkpt lat="51.570356972515583" lon="10.585099998861551">
        <ele>254.88999999999999</ele>
        <time>2017-05-22T11:35:05Z</time>
      </trkpt>
      <trkpt lat="51.570238033309579" lon="10.585073009133339">
        <ele>255.37</ele>
        <time>2017-05-22T11:35:06Z</time>
      </trkpt>
      <trkpt lat="51.570122027769685" lon="10.585046019405127">
        <ele>254.88999999999999</ele>
        <time>2017-05-22T11:35:07Z</time>
      </trkpt>
      <trkpt lat="51.569896973669529" lon="10.584975024685264">
        <ele>255.37</ele>
        <time>2017-05-22T11:35:09Z</time>
      </trkpt>
      <trkpt lat="51.569792032241821" lon="10.584911992773414">
        <ele>255.37</ele>
        <time>2017-05-22T11:35:10Z</time>
      </trkpt>
      <trkpt lat="51.569702010601759" lon="10.584815014153719">
        <ele>255.84999999999999</ele>
        <time>2017-05-22T11:35:11Z</time>
      </trkpt>
      <trkpt lat="51.569619029760361" lon="10.584685010835528">
        <ele>256.32999999999998</ele>
        <time>2017-05-22T11:35:12Z</time>
      </trkpt>
      <trkpt lat="51.569549040868878" lon="10.584517037495971">
        <ele>256.81</ele>
        <time>2017-05-22T11:35:13Z</time>
      </trkpt>
      <trkpt lat="51.56948802061379" lon="10.584329031407833">
        <ele>256.81</ele>
        <time>2017-05-22T11:35:14Z</time>
      </trkpt>
      <trkpt lat="51.569422977045178" lon="10.58413096703589">
        <ele>256.81</ele>
        <time>2017-05-22T11:35:15Z</time>
      </trkpt>
      <trkpt lat="51.569022992625833" lon="10.58208997361362">
        <ele>258.25</ele>
        <time>2017-05-22T11:35:23Z</time>
      </trkpt>
      <trkpt lat="51.569023998454213" lon="10.581776993349195">
        <ele>258.25</ele>
        <time>2017-05-22T11:35:24Z</time>
      </trkpt>
      <trkpt lat="51.569047970697284" lon="10.581457978114486">
        <ele>258.25</ele>
        <time>2017-05-22T11:35:25Z</time>
      </trkpt>
      <trkpt lat="51.569092981517315" lon="10.581132005900145">
        <ele>258.73000000000002</ele>
        <time>2017-05-22T11:35:26Z</time>
      </trkpt>
      <trkpt lat="51.569156013429165" lon="10.580803016200662">
        <ele>259.20999999999998</ele>
        <time>2017-05-22T11:35:27Z</time>
      </trkpt>
      <trkpt lat="51.569636967033148" lon="10.577268032357097">
        <ele>268.82999999999998</ele>
        <time>2017-05-22T11:35:37Z</time>
      </trkpt>
      <trkpt lat="51.569785997271538" lon="10.573880989104509">
        <ele>275.56</ele>
        <time>2017-05-22T11:35:46Z</time>
      </trkpt>
      <trkpt lat="51.569720031693578" lon="10.571661964058876">
        <ele>277.95999999999998</ele>
        <time>2017-05-22T11:35:52Z</time>
      </trkpt>
      <trkpt lat="51.569751966744661" lon="10.571298021823168">
        <ele>278.44</ele>
        <time>2017-05-22T11:35:53Z</time>
      </trkpt>
      <trkpt lat="51.570014990866184" lon="10.568745983764529">
        <ele>285.64999999999998</ele>
        <time>2017-05-22T11:36:00Z</time>
      </trkpt>
      <trkpt lat="51.569869983941317" lon="10.565713997930288">
        <ele>289.97000000000003</ele>
        <time>2017-05-22T11:36:08Z</time>
      </trkpt>
      <trkpt lat="51.569740986451507" lon="10.561909032985568">
        <ele>295.25999999999999</ele>
        <time>2017-05-22T11:36:18Z</time>
      </trkpt>
      <trkpt lat="51.569588016718626" lon="10.559065975248814">
        <ele>297.67000000000002</ele>
        <time>2017-05-22T11:36:27Z</time>
      </trkpt>
      <trkpt lat="51.569482991471887" lon="10.558490976691246">
        <ele>296.69999999999999</ele>
        <time>2017-05-22T11:36:29Z</time>
      </trkpt>
      <trkpt lat="51.56940302811563" lon="10.558203980326653">
        <ele>296.22000000000003</ele>
        <time>2017-05-22T11:36:30Z</time>
      </trkpt>
      <trkpt lat="51.569304959848523" lon="10.55791899561882">
        <ele>295.74000000000001</ele>
        <time>2017-05-22T11:36:31Z</time>
      </trkpt>
      <trkpt lat="51.569192977622151" lon="10.55764096789062">
        <ele>294.77999999999997</ele>
        <time>2017-05-22T11:36:32Z</time>
      </trkpt>
      <trkpt lat="51.569070015102625" lon="10.557368975132704">
        <ele>294.30000000000001</ele>
        <time>2017-05-22T11:36:33Z</time>
      </trkpt>
      <trkpt lat="51.568214977160096" lon="10.555656971409917">
        <ele>290.94</ele>
        <time>2017-05-22T11:36:41Z</time>
      </trkpt>
      <trkpt lat="51.567694963887334" lon="10.554694980382919">
        <ele>289.00999999999999</ele>
        <time>2017-05-22T11:36:49Z</time>
      </trkpt>
      <trkpt lat="51.567417019978166" lon="10.554174967110157">
        <ele>287.56999999999999</ele>
        <time>2017-05-22T11:36:59Z</time>
      </trkpt>
      <trkpt lat="51.56740796752274" lon="10.554156024008989">
        <ele>286.61000000000001</ele>
        <time>2017-05-22T11:37:12Z</time>
      </trkpt>
      <trkpt lat="51.566846966743469" lon="10.552946012467146">
        <ele>285.64999999999998</ele>
        <time>2017-05-22T11:46:39Z</time>
      </trkpt>
      <trkpt lat="51.566543038934469" lon="10.551897017285228">
        <ele>287.56999999999999</ele>
        <time>2017-05-22T11:46:54Z</time>
      </trkpt>
      <trkpt lat="51.566313039511442" lon="10.550847016274929">
        <ele>291.89999999999998</ele>
        <time>2017-05-22T11:47:04Z</time>
      </trkpt>
      <trkpt lat="51.566265011206269" lon="10.550759006291628">
        <ele>291.89999999999998</ele>
        <time>2017-05-22T11:47:05Z</time>
      </trkpt>
      <trkpt lat="51.5662029851228" lon="10.550692034885287">
        <ele>292.38</ele>
        <time>2017-05-22T11:47:06Z</time>
      </trkpt>
      <trkpt lat="51.566126961261034" lon="10.550653981044888">
        <ele>292.38</ele>
        <time>2017-05-22T11:47:07Z</time>
      </trkpt>
      <trkpt lat="51.566041968762875" lon="10.55063595995307">
        <ele>292.38</ele>
        <time>2017-05-22T11:47:08Z</time>
      </trkpt>
      <trkpt lat="51.565954964607954" lon="10.55063403211534">
        <ele>291.89999999999998</ele>
        <time>2017-05-22T11:47:09Z</time>
      </trkpt>
      <trkpt lat="51.565705016255379" lon="10.550589021295309">
        <ele>290.94</ele>
        <time>2017-05-22T11:47:12Z</time>
      </trkpt>
      <trkpt lat="51.565436040982604" lon="10.55050796829164">
        <ele>289.00999999999999</ele>
        <time>2017-05-22T11:47:15Z</time>
      </trkpt>
      <trkpt lat="51.565345013514161" lon="10.550496987998486">
        <ele>288.52999999999997</ele>
        <time>2017-05-22T11:47:16Z</time>
      </trkpt>
      <trkpt lat="51.565248034894466" lon="10.55050402879715">
        <ele>288.05000000000001</ele>
        <time>2017-05-22T11:47:17Z</time>
      </trkpt>
      <trkpt lat="51.563808023929596" lon="10.550865037366748">
        <ele>283.25</ele>
        <time>2017-05-22T11:47:30Z</time>
      </trkpt>
      <trkpt lat="51.562766991555691" lon="10.55093502625823">
        <ele>273.14999999999998</ele>
        <time>2017-05-22T11:47:41Z</time>
      </trkpt>
      <trkpt lat="51.562718041241169" lon="10.550920022651553">
        <ele>272.67000000000002</ele>
        <time>2017-05-22T11:47:42Z</time>
      </trkpt>
      <trkpt lat="51.562681999057531" lon="10.550897978246212">
        <ele>273.14999999999998</ele>
        <time>2017-05-22T11:47:43Z</time>
      </trkpt>
      <trkpt lat="51.562658026814461" lon="10.550876017659903">
        <ele>273.14999999999998</ele>
        <time>2017-05-22T11:47:44Z</time>
      </trkpt>
      <trkpt lat="51.562642017379403" lon="10.550851039588451">
        <ele>273.14999999999998</ele>
        <time>2017-05-22T11:47:45Z</time>
      </trkpt>
      <trkpt lat="51.562623996287584" lon="10.55082798935473">
        <ele>272.67000000000002</ele>
        <time>2017-05-22T11:47:46Z</time>
      </trkpt>
      <trkpt lat="51.562604969367385" lon="10.550787001848221">
        <ele>272.19</ele>
        <time>2017-05-22T11:47:47Z</time>
      </trkpt>
      <trkpt lat="51.562588037922978" lon="10.55072296410799">
        <ele>271.70999999999998</ele>
        <time>2017-05-22T11:47:48Z</time>
      </trkpt>
      <trkpt lat="51.562577979639173" lon="10.55063696578145">
        <ele>271.70999999999998</ele>
        <time>2017-05-22T11:47:49Z</time>
      </trkpt>
      <trkpt lat="51.562577979639173" lon="10.550535963848233">
        <ele>271.70999999999998</ele>
        <time>2017-05-22T11:47:50Z</time>
      </trkpt>
      <trkpt lat="51.562578985467553" lon="10.550411995500326">
        <ele>271.70999999999998</ele>
        <time>2017-05-22T11:47:51Z</time>
      </trkpt>
      <trkpt lat="51.562569011002779" lon="10.54893895983696">
        <ele>269.79000000000002</ele>
        <time>2017-05-22T11:47:59Z</time>
      </trkpt>
      <trkpt lat="51.562558030709624" lon="10.546406032517552">
        <ele>262.57999999999998</ele>
        <time>2017-05-22T11:48:09Z</time>
      </trkpt>
      <trkpt lat="51.562697002664208" lon="10.543235996738076">
        <ele>256.81</ele>
        <time>2017-05-22T11:48:19Z</time>
      </trkpt>
      <trkpt lat="51.562783000990748" lon="10.542313987389207">
        <ele>255.84999999999999</ele>
        <time>2017-05-22T11:48:22Z</time>
      </trkpt>
      <trkpt lat="51.562838992103934" lon="10.54202196188271">
        <ele>256.32999999999998</ele>
        <time>2017-05-22T11:48:23Z</time>
      </trkpt>
      <trkpt lat="51.563490014523268" lon="10.538705997169018">
        <ele>258.25</ele>
        <time>2017-05-22T11:48:34Z</time>
      </trkpt>
      <trkpt lat="51.564059983938932" lon="10.534744961187243">
        <ele>263.06</ele>
        <time>2017-05-22T11:48:48Z</time>
      </trkpt>
      <trkpt lat="51.56472098082304" lon="10.531566040590405">
        <ele>265.45999999999998</ele>
        <time>2017-05-22T11:49:00Z</time>
      </trkpt>
      <trkpt lat="51.565043013542891" lon="10.529931988567114">
        <ele>265.45999999999998</ele>
        <time>2017-05-22T11:49:08Z</time>
      </trkpt>
      <trkpt lat="51.56510503962636" lon="10.529427984729409">
        <ele>264.98000000000002</ele>
        <time>2017-05-22T11:49:15Z</time>
      </trkpt>
      <trkpt lat="51.565191959962249" lon="10.528663974255323">
        <ele>264.98000000000002</ele>
        <time>2017-05-22T11:49:29Z</time>
      </trkpt>
      <trkpt lat="51.565275024622679" lon="10.527986967936158">
        <ele>264.98000000000002</ele>
        <time>2017-05-22T11:49:40Z</time>
      </trkpt>
      <trkpt lat="51.565292961895466" lon="10.527928965166211">
        <ele>264.5</ele>
        <time>2017-05-22T11:49:41Z</time>
      </trkpt>
      <trkpt lat="51.565315006300807" lon="10.527870962396264">
        <ele>264.5</ele>
        <time>2017-05-22T11:49:42Z</time>
      </trkpt>
      <trkpt lat="51.565338978543878" lon="10.52781798876822">
        <ele>264.5</ele>
        <time>2017-05-22T11:49:43Z</time>
      </trkpt>
      <trkpt lat="51.565366974100471" lon="10.527768032625318">
        <ele>264.5</ele>
        <time>2017-05-22T11:49:44Z</time>
      </trkpt>
      <trkpt lat="51.565467976033688" lon="10.527576003223658">
        <ele>264.98000000000002</ele>
        <time>2017-05-22T11:49:48Z</time>
      </trkpt>
      <trkpt lat="51.565484991297126" lon="10.527515988796949">
        <ele>265.45999999999998</ele>
        <time>2017-05-22T11:49:49Z</time>
      </trkpt>
      <trkpt lat="51.565502006560564" lon="10.527455974370241">
        <ele>265.45999999999998</ele>
        <time>2017-05-22T11:49:50Z</time>
      </trkpt>
      <trkpt lat="51.565513992682099" lon="10.527392020449042">
        <ele>265.45999999999998</ele>
        <time>2017-05-22T11:49:51Z</time>
      </trkpt>
      <trkpt lat="51.565522039309144" lon="10.527327982708812">
        <ele>265.45999999999998</ele>
        <time>2017-05-22T11:49:52Z</time>
      </trkpt>
      <trkpt lat="51.565574007108808" lon="10.52611998282373">
        <ele>266.42000000000002</ele>
        <time>2017-05-22T11:50:08Z</time>
      </trkpt>
      <trkpt lat="51.565448027104139" lon="10.525127984583378">
        <ele>262.10000000000002</ele>
        <time>2017-05-22T11:50:14Z</time>
      </trkpt>
      <trkpt lat="51.565452972427011" lon="10.524951964616776">
        <ele>261.13999999999999</ele>
        <time>2017-05-22T11:50:15Z</time>
      </trkpt>
      <trkpt lat="51.565470993518829" lon="10.524786002933979">
        <ele>260.17000000000002</ele>
        <time>2017-05-22T11:50:16Z</time>
      </trkpt>
      <trkpt lat="51.565496977418661" lon="10.524634039029479">
        <ele>259.20999999999998</ele>
        <time>2017-05-22T11:50:17Z</time>
      </trkpt>
      <trkpt lat="51.565530002117157" lon="10.52448702044785">
        <ele>258.73000000000002</ele>
        <time>2017-05-22T11:50:18Z</time>
      </trkpt>
      <trkpt lat="51.565931998193264" lon="10.523028988391161">
        <ele>252.96000000000001</ele>
        <time>2017-05-22T11:50:29Z</time>
      </trkpt>
      <trkpt lat="51.56609502620995" lon="10.522616012021899">
        <ele>253.44</ele>
        <time>2017-05-22T11:50:34Z</time>
      </trkpt>
      <trkpt lat="51.566185969859362" lon="10.522486008703709">
        <ele>252.96000000000001</ele>
        <time>2017-05-22T11:50:37Z</time>
      </trkpt>
      <trkpt lat="51.566228969022632" lon="10.522448038682342">
        <ele>252.96000000000001</ele>
        <time>2017-05-22T11:50:38Z</time>
      </trkpt>
      <trkpt lat="51.566284960135818" lon="10.52240596152842">
        <ele>252.96000000000001</ele>
        <time>2017-05-22T11:50:39Z</time>
      </trkpt>
      <trkpt lat="51.567016029730439" lon="10.521977981552482">
        <ele>254.41</ele>
        <time>2017-05-22T11:50:47Z</time>
      </trkpt>
      <trkpt lat="51.568464003503323" lon="10.52128697745502">
        <ele>261.13999999999999</ele>
        <time>2017-05-22T11:50:59Z</time>
      </trkpt>
      <trkpt lat="51.569315018132329" lon="10.520603014156222">
        <ele>264.01999999999998</ele>
        <time>2017-05-22T11:51:05Z</time>
      </trkpt>
      <trkpt lat="51.57075896859169" lon="10.518833007663488">
        <ele>269.79000000000002</ele>
        <time>2017-05-22T11:51:14Z</time>
      </trkpt>
      <trkpt lat="51.57095099799335" lon="10.518662016838789">
        <ele>270.26999999999998</ele>
        <time>2017-05-22T11:51:15Z</time>
      </trkpt>
      <trkpt lat="51.572187999263406" lon="10.517970006912947">
        <ele>273.14999999999998</ele>
        <time>2017-05-22T11:51:21Z</time>
      </trkpt>
      <trkpt lat="51.574042998254299" lon="10.516965016722679">
        <ele>276.51999999999998</ele>
        <time>2017-05-22T11:51:32Z</time>
      </trkpt>
      <trkpt lat="51.576307034119964" lon="10.515735978260636">
        <ele>279.88</ele>
        <time>2017-05-22T11:51:45Z</time>
      </trkpt>
      <trkpt lat="51.578080980107188" lon="10.515066012740135">
        <ele>286.13</ele>
        <time>2017-05-22T11:51:54Z</time>
      </trkpt>
      <trkpt lat="51.580723039805889" lon="10.514051970094442">
        <ele>303.43000000000001</ele>
        <time>2017-05-22T11:52:05Z</time>
      </trkpt>
      <trkpt lat="51.583063015714288" lon="10.512986965477467">
        <ele>314.97000000000003</ele>
        <time>2017-05-22T11:52:15Z</time>
      </trkpt>
      <trkpt lat="51.584837967529893" lon="10.511171026155353">
        <ele>322.18000000000001</ele>
        <time>2017-05-22T11:52:23Z</time>
      </trkpt>
      <trkpt lat="51.586247971281409" lon="10.508726025000215">
        <ele>327.94999999999999</ele>
        <time>2017-05-22T11:52:30Z</time>
      </trkpt>
      <trkpt lat="51.588607979938388" lon="10.503230011090636">
        <ele>332.75</ele>
        <time>2017-05-22T11:52:43Z</time>
      </trkpt>
      <trkpt lat="51.591344000771642" lon="10.496864961460233">
        <ele>332.75</ele>
        <time>2017-05-22T11:52:57Z</time>
      </trkpt>
      <trkpt lat="51.593937026336789" lon="10.49150800332427">
        <ele>327.94999999999999</ele>
        <time>2017-05-22T11:53:09Z</time>
      </trkpt>
      <trkpt lat="51.596537008881569" lon="10.487518971785903">
        <ele>325.06</ele>
        <time>2017-05-22T11:53:19Z</time>
      </trkpt>
      <trkpt lat="51.599344024434686" lon="10.484151039272547">
        <ele>320.74000000000001</ele>
        <time>2017-05-22T11:53:29Z</time>
      </trkpt>
      <trkpt lat="51.603298019617796" lon="10.480684032663703">
        <ele>323.62</ele>
        <time>2017-05-22T11:53:42Z</time>
      </trkpt>
      <trkpt lat="51.605137009173632" lon="10.478548994287848">
        <ele>325.54000000000002</ele>
        <time>2017-05-22T11:53:49Z</time>
      </trkpt>
      <trkpt lat="51.60648699849844" lon="10.475991005077958">
        <ele>326.5</ele>
        <time>2017-05-22T11:53:56Z</time>
      </trkpt>
      <trkpt lat="51.608262034133077" lon="10.471389004960656">
        <ele>328.91000000000003</ele>
        <time>2017-05-22T11:54:07Z</time>
      </trkpt>
      <trkpt lat="51.609381018206477" lon="10.468034986406565">
        <ele>333.23000000000002</ele>
        <time>2017-05-22T11:54:16Z</time>
      </trkpt>
      <trkpt lat="51.609943024814129" lon="10.466250982135534">
        <ele>336.60000000000002</ele>
        <time>2017-05-22T11:54:23Z</time>
      </trkpt>
      <trkpt lat="51.61001100204885" lon="10.466059036552906">
        <ele>337.56</ele>
        <time>2017-05-22T11:54:24Z</time>
      </trkpt>
      <trkpt lat="51.610089037567377" lon="10.46589600853622">
        <ele>338.04000000000002</ele>
        <time>2017-05-22T11:54:25Z</time>
      </trkpt>
      <trkpt lat="51.610178975388408" lon="10.465745972469449">
        <ele>338.04000000000002</ele>
        <time>2017-05-22T11:54:26Z</time>
      </trkpt>
      <trkpt lat="51.610280983150005" lon="10.46561798080802">
        <ele>338.04000000000002</ele>
        <time>2017-05-22T11:54:27Z</time>
      </trkpt>
      <trkpt lat="51.610386008396745" lon="10.465530976653099">
        <ele>338.04000000000002</ele>
        <time>2017-05-22T11:54:28Z</time>
      </trkpt>
      <trkpt lat="51.610498996451497" lon="10.465486971661448">
        <ele>337.56</ele>
        <time>2017-05-22T11:54:29Z</time>
      </trkpt>
      <trkpt lat="51.610610978677869" lon="10.465494012460113">
        <ele>336.60000000000002</ele>
        <time>2017-05-22T11:54:30Z</time>
      </trkpt>
      <trkpt lat="51.610707035288215" lon="10.465560983866453">
        <ele>336.12</ele>
        <time>2017-05-22T11:54:31Z</time>
      </trkpt>
      <trkpt lat="51.610796973109245" lon="10.465667014941573">
        <ele>334.68000000000001</ele>
        <time>2017-05-22T11:54:32Z</time>
      </trkpt>
      <trkpt lat="51.610880959779024" lon="10.465809004381299">
        <ele>334.19999999999999</ele>
        <time>2017-05-22T11:54:33Z</time>
      </trkpt>
      <trkpt lat="51.610949020832777" lon="10.465984018519521">
        <ele>333.70999999999998</ele>
        <time>2017-05-22T11:54:34Z</time>
      </trkpt>
      <trkpt lat="51.610998976975679" lon="10.466162972152233">
        <ele>333.70999999999998</ele>
        <time>2017-05-22T11:54:35Z</time>
      </trkpt>
      <trkpt lat="51.611038036644459" lon="10.466341003775597">
        <ele>332.75</ele>
        <time>2017-05-22T11:54:36Z</time>
      </trkpt>
      <trkpt lat="51.611141972243786" lon="10.466822041198611">
        <ele>332.26999999999998</ele>
        <time>2017-05-22T11:54:39Z</time>
      </trkpt>
      <trkpt lat="51.611140966415405" lon="10.466956989839673">
        <ele>332.75</ele>
        <time>2017-05-22T11:54:40Z</time>
      </trkpt>
      <trkpt lat="51.611122023314238" lon="10.467074001207948">
        <ele>332.26999999999998</ele>
        <time>2017-05-22T11:54:41Z</time>
      </trkpt>
      <trkpt lat="51.611125040799379" lon="10.467309029772878">
        <ele>331.79000000000002</ele>
        <time>2017-05-22T11:54:43Z</time>
      </trkpt>
      <trkpt lat="51.611166028305888" lon="10.467399973422289">
        <ele>332.26999999999998</ele>
        <time>2017-05-22T11:54:44Z</time>
      </trkpt>
      <trkpt lat="51.611226964741945" lon="10.467441966757178">
        <ele>332.26999999999998</ele>
        <time>2017-05-22T11:54:45Z</time>
      </trkpt>
      <trkpt lat="51.611294019967318" lon="10.467428974807262">
        <ele>332.75</ele>
        <time>2017-05-22T11:54:46Z</time>
      </trkpt>
      <trkpt lat="51.611355962231755" lon="10.467363009229302">
        <ele>332.75</ele>
        <time>2017-05-22T11:54:47Z</time>
      </trkpt>
      <trkpt lat="51.611416982486844" lon="10.467251027002931">
        <ele>333.70999999999998</ele>
        <time>2017-05-22T11:54:48Z</time>
      </trkpt>
      <trkpt lat="51.61160197108984" lon="10.467051034793258">
        <ele>335.63999999999999</ele>
        <time>2017-05-22T11:54:50Z</time>
      </trkpt>
      <trkpt lat="51.61172904074192" lon="10.466979034245014">
        <ele>336.60000000000002</ele>
        <time>2017-05-22T11:54:51Z</time>
      </trkpt>
      <trkpt lat="51.613072995096445" lon="10.466274032369256">
        <ele>347.17000000000002</ele>
        <time>2017-05-22T11:54:59Z</time>
      </trkpt>
      <trkpt lat="51.614894969388843" lon="10.465492000803351">
        <ele>352.45999999999998</ele>
        <time>2017-05-22T11:55:09Z</time>
      </trkpt>
      <trkpt lat="51.615078030154109" lon="10.465492000803351">
        <ele>351.01999999999998</ele>
        <time>2017-05-22T11:55:10Z</time>
      </trkpt>
      <trkpt lat="51.615261007100344" lon="10.46550901606679">
        <ele>349.57999999999998</ele>
        <time>2017-05-22T11:55:11Z</time>
      </trkpt>
      <trkpt lat="51.615448007360101" lon="10.465554026886821">
        <ele>349.10000000000002</ele>
        <time>2017-05-22T11:55:12Z</time>
      </trkpt>
      <trkpt lat="51.615627966821194" lon="10.465605994686484">
        <ele>348.13</ele>
        <time>2017-05-22T11:55:13Z</time>
      </trkpt>
      <trkpt lat="51.616298016160727" lon="10.465786037966609">
        <ele>343.81</ele>
        <time>2017-05-22T11:55:17Z</time>
      </trkpt>
      <trkpt lat="51.617311974987388" lon="10.46576801687479">
        <ele>338.04000000000002</ele>
        <time>2017-05-22T11:55:23Z</time>
      </trkpt>
      <trkpt lat="51.617850009351969" lon="10.465873964130878">
        <ele>334.68000000000001</ele>
        <time>2017-05-22T11:55:26Z</time>
      </trkpt>
      <trkpt lat="51.618029968813062" lon="10.465857032686472">
        <ele>334.19999999999999</ele>
        <time>2017-05-22T11:55:27Z</time>
      </trkpt>
      <trkpt lat="51.618225015699863" lon="10.465786959975958">
        <ele>333.70999999999998</ele>
        <time>2017-05-22T11:55:28Z</time>
      </trkpt>
      <trkpt lat="51.619158005341887" lon="10.465200981125236">
        <ele>327.47000000000003</ele>
        <time>2017-05-22T11:55:33Z</time>
      </trkpt>
      <trkpt lat="51.619318015873432" lon="10.465019010007381">
        <ele>326.01999999999998</ele>
        <time>2017-05-22T11:55:34Z</time>
      </trkpt>
      <trkpt lat="51.619461011141539" lon="10.464816000312567">
        <ele>325.06</ele>
        <time>2017-05-22T11:55:35Z</time>
      </trkpt>
      <trkpt lat="51.619857978075743" lon="10.464219963178039">
        <ele>321.22000000000003</ele>
        <time>2017-05-22T11:55:38Z</time>
      </trkpt>
      <trkpt lat="51.619998961687088" lon="10.464074034243822">
        <ele>320.25999999999999</ele>
        <time>2017-05-22T11:55:39Z</time>
      </trkpt>
      <trkpt lat="51.62015100941062" lon="10.463969008997083">
        <ele>319.77999999999997</ele>
        <time>2017-05-22T11:55:40Z</time>
      </trkpt>
      <trkpt lat="51.620315965265036" lon="10.463911006227136">
        <ele>318.81</ele>
        <time>2017-05-22T11:55:41Z</time>
      </trkpt>
      <trkpt lat="51.620487961918116" lon="10.463902959600091">
        <ele>317.85000000000002</ele>
        <time>2017-05-22T11:55:42Z</time>
      </trkpt>
      <trkpt lat="51.620656019076705" lon="10.463955011218786">
        <ele>316.88999999999999</ele>
        <time>2017-05-22T11:55:43Z</time>
      </trkpt>
      <trkpt lat="51.620829021558166" lon="10.464023994281888">
        <ele>315.93000000000001</ele>
        <time>2017-05-22T11:55:44Z</time>
      </trkpt>
      <trkpt lat="51.621783971786499" lon="10.464592035859823">
        <ele>308.72000000000003</ele>
        <time>2017-05-22T11:55:50Z</time>
      </trkpt>
      <trkpt lat="51.62191498093307" lon="10.464741988107562">
        <ele>307.27999999999997</ele>
        <time>2017-05-22T11:55:51Z</time>
      </trkpt>
      <trkpt lat="51.622032998129725" lon="10.464901998639107">
        <ele>306.31999999999999</ele>
        <time>2017-05-22T11:55:52Z</time>
      </trkpt>
      <trkpt lat="51.622245982289314" lon="10.465198969468474">
        <ele>304.38999999999999</ele>
        <time>2017-05-22T11:55:54Z</time>
      </trkpt>
      <trkpt lat="51.62236500531435" lon="10.465300977230072">
        <ele>303.91000000000003</ele>
        <time>2017-05-22T11:55:55Z</time>
      </trkpt>
      <trkpt lat="51.62249299697578" lon="10.465368032455444">
        <ele>302.94999999999999</ele>
        <time>2017-05-22T11:55:56Z</time>
      </trkpt>
      <trkpt lat="51.623444007709622" lon="10.465769022703171">
        <ele>297.67000000000002</ele>
        <time>2017-05-22T11:56:04Z</time>
      </trkpt>
      <trkpt lat="51.624983008950949" lon="10.466166995465755">
        <ele>286.61000000000001</ele>
        <time>2017-05-22T11:56:18Z</time>
      </trkpt>
      <trkpt lat="51.6256969794631" lon="10.466378973796964">
        <ele>287.56999999999999</ele>
        <time>2017-05-22T11:56:25Z</time>
      </trkpt>
      <trkpt lat="51.62578297778964" lon="10.466366987675428">
        <ele>288.05000000000001</ele>
        <time>2017-05-22T11:56:26Z</time>
      </trkpt>
      <trkpt lat="51.625878028571606" lon="10.466353995725513">
        <ele>288.05000000000001</ele>
        <time>2017-05-22T11:56:27Z</time>
      </trkpt>
      <trkpt lat="51.625967966392636" lon="10.4663270059973">
        <ele>288.05000000000001</ele>
        <time>2017-05-22T11:56:28Z</time>
      </trkpt>
      <trkpt lat="51.626056982204318" lon="10.466287024319172">
        <ele>287.56999999999999</ele>
        <time>2017-05-22T11:56:29Z</time>
      </trkpt>
      <trkpt lat="51.626139963045716" lon="10.466232961043715">
        <ele>288.05000000000001</ele>
        <time>2017-05-22T11:56:30Z</time>
      </trkpt>
      <trkpt lat="51.626222021877766" lon="10.466169007122517">
        <ele>287.56999999999999</ele>
        <time>2017-05-22T11:56:31Z</time>
      </trkpt>
      <trkpt lat="51.626297039911151" lon="10.466099018231034">
        <ele>287.56999999999999</ele>
        <time>2017-05-22T11:56:32Z</time>
      </trkpt>
      <trkpt lat="51.62664002738893" lon="10.46574798412621">
        <ele>286.61000000000001</ele>
        <time>2017-05-22T11:56:40Z</time>
      </trkpt>
      <trkpt lat="51.626612031832337" lon="10.4657899774611">
        <ele>287.56999999999999</ele>
        <time>2017-05-22T11:57:09Z</time>
      </trkpt>
      <trkpt lat="51.626617982983589" lon="10.465764999389648">
        <ele>287.08999999999997</ele>
        <time>2017-05-22T11:57:10Z</time>
      </trkpt>
      <trkpt lat="51.626628041267395" lon="10.465734992176294">
        <ele>287.08999999999997</ele>
        <time>2017-05-22T11:57:11Z</time>
      </trkpt>
      <trkpt lat="51.626674979925156" lon="10.465651005506516">
        <ele>286.13</ele>
        <time>2017-05-22T11:57:23Z</time>
      </trkpt>
      <trkpt lat="51.626684032380581" lon="10.465576993301511">
        <ele>285.64999999999998</ele>
        <time>2017-05-22T11:57:24Z</time>
      </trkpt>
      <trkpt lat="51.62668202072382" lon="10.465485965833068">
        <ele>285.64999999999998</ele>
        <time>2017-05-22T11:57:25Z</time>
      </trkpt>
      <trkpt lat="51.626651007682085" lon="10.465398039668798">
        <ele>285.17000000000002</ele>
        <time>2017-05-22T11:57:26Z</time>
      </trkpt>
      <trkpt lat="51.62633903324604" lon="10.464579965919256">
        <ele>284.20999999999998</ele>
        <time>2017-05-22T11:57:34Z</time>
      </trkpt>
      <trkpt lat="51.626263009384274" lon="10.464471001178026">
        <ele>283.73000000000002</ele>
        <time>2017-05-22T11:57:38Z</time>
      </trkpt>
      <trkpt lat="51.626225961372256" lon="10.464482987299562">
        <ele>283.73000000000002</ele>
        <time>2017-05-22T11:57:39Z</time>
      </trkpt>
      <trkpt lat="51.62618899717927" lon="10.464514000341296">
        <ele>283.25</ele>
        <time>2017-05-22T11:57:40Z</time>
      </trkpt>
      <trkpt lat="51.626152032986283" lon="10.464551970362663">
        <ele>282.76999999999998</ele>
        <time>2017-05-22T11:57:41Z</time>
      </trkpt>
      <trkpt lat="51.626112973317504" lon="10.464596981182694">
        <ele>283.25</ele>
        <time>2017-05-22T11:57:42Z</time>
      </trkpt>
      <trkpt lat="51.626009959727526" lon="10.46465003862977">
        <ele>283.73000000000002</ele>
        <time>2017-05-22T11:57:45Z</time>
      </trkpt>
      <trkpt lat="51.625992022454739" lon="10.464633023366332">
        <ele>283.25</ele>
        <time>2017-05-22T11:57:46Z</time>
      </trkpt>
      <trkpt lat="51.625977018848062" lon="10.464603016152978">
        <ele>283.25</ele>
        <time>2017-05-22T11:57:47Z</time>
      </trkpt>
      <trkpt lat="51.625964026898146" lon="10.46456697396934">
        <ele>283.25</ele>
        <time>2017-05-22T11:57:48Z</time>
      </trkpt>
      <trkpt lat="51.62595103494823" lon="10.46452104113996">
        <ele>283.25</ele>
        <time>2017-05-22T11:57:49Z</time>
      </trkpt>
      <trkpt lat="51.625906024128199" lon="10.464361030608416">
        <ele>282.76999999999998</ele>
        <time>2017-05-22T11:57:54Z</time>
      </trkpt>
      <trkpt lat="51.625892026349902" lon="10.464365975931287">
        <ele>282.27999999999997</ele>
        <time>2017-05-22T11:57:55Z</time>
      </trkpt>
      <trkpt lat="51.625880962237716" lon="10.464468989521265">
        <ele>279.88</ele>
        <time>2017-05-22T11:58:11Z</time>
      </trkpt>
      <trkpt lat="51.625842992216349" lon="10.464495979249477">
        <ele>271.70999999999998</ele>
        <time>2017-05-22T12:07:41Z</time>
      </trkpt>
      <trkpt lat="51.625896971672773" lon="10.464455997571349">
        <ele>279.39999999999998</ele>
        <time>2017-05-22T12:09:06Z</time>
      </trkpt>
      <trkpt lat="51.625961009413004" lon="10.464575020596385">
        <ele>280.83999999999997</ele>
        <time>2017-05-22T12:09:10Z</time>
      </trkpt>
      <trkpt lat="51.626008031889796" lon="10.464583989232779">
        <ele>280.83999999999997</ele>
        <time>2017-05-22T12:09:11Z</time>
      </trkpt>
      <trkpt lat="51.626064023002982" lon="10.464572003111243">
        <ele>280.83999999999997</ele>
        <time>2017-05-22T12:09:12Z</time>
      </trkpt>
      <trkpt lat="51.626120014116168" lon="10.464551970362663">
        <ele>281.31999999999999</ele>
        <time>2017-05-22T12:09:13Z</time>
      </trkpt>
      <trkpt lat="51.626269966363907" lon="10.464536966755986">
        <ele>281.80000000000001</ele>
        <time>2017-05-22T12:09:17Z</time>
      </trkpt>
      <trkpt lat="51.62629502825439" lon="10.464582983404398">
        <ele>281.80000000000001</ele>
        <time>2017-05-22T12:09:18Z</time>
      </trkpt>
      <trkpt lat="51.62631900049746" lon="10.464641992002726">
        <ele>281.80000000000001</ele>
        <time>2017-05-22T12:09:19Z</time>
      </trkpt>
      <trkpt lat="51.626508012413979" lon="10.465227970853448">
        <ele>283.73000000000002</ele>
        <time>2017-05-22T12:09:33Z</time>
      </trkpt>
      <trkpt lat="51.626633992418647" lon="10.465571964159608">
        <ele>285.17000000000002</ele>
        <time>2017-05-22T12:09:41Z</time>
      </trkpt>
      <trkpt lat="51.62668596021831" lon="10.465648993849754">
        <ele>285.64999999999998</ele>
        <time>2017-05-22T12:09:42Z</time>
      </trkpt>
      <trkpt lat="51.626739017665386" lon="10.46572401188314">
        <ele>285.64999999999998</ele>
        <time>2017-05-22T12:09:43Z</time>
      </trkpt>
      <trkpt lat="51.627540998160839" lon="10.466617019847035">
        <ele>286.13</ele>
        <time>2017-05-22T12:09:55Z</time>
      </trkpt>
      <trkpt lat="51.628407016396523" lon="10.467458982020617">
        <ele>289.00999999999999</ele>
        <time>2017-05-22T12:10:07Z</time>
      </trkpt>
      <trkpt lat="51.629231963306665" lon="10.468422984704375">
        <ele>292.38</ele>
        <time>2017-05-22T12:10:19Z</time>
      </trkpt>
      <trkpt lat="51.629831017926335" lon="10.469283973798156">
        <ele>290.45999999999998</ele>
        <time>2017-05-22T12:10:30Z</time>
      </trkpt>
      <trkpt lat="51.630214992910624" lon="10.46983097679913">
        <ele>294.30000000000001</ele>
        <time>2017-05-22T12:10:37Z</time>
      </trkpt>
      <trkpt lat="51.630656970664859" lon="10.470431037247181">
        <ele>297.18000000000001</ele>
        <time>2017-05-22T12:10:46Z</time>
      </trkpt>
      <trkpt lat="51.630707010626793" lon="10.470476970076561">
        <ele>297.18000000000001</ele>
        <time>2017-05-22T12:10:47Z</time>
      </trkpt>
      <trkpt lat="51.630899962037802" lon="10.470604039728642">
        <ele>297.67000000000002</ele>
        <time>2017-05-22T12:10:50Z</time>
      </trkpt>
      <trkpt lat="51.630985038354993" lon="10.470629017800093">
        <ele>298.14999999999998</ele>
        <time>2017-05-22T12:10:51Z</time>
      </trkpt>
      <trkpt lat="51.631072964519262" lon="10.470631029456854">
        <ele>298.14999999999998</ele>
        <time>2017-05-22T12:10:52Z</time>
      </trkpt>
      <trkpt lat="51.631159968674183" lon="10.470619965344667">
        <ele>298.14999999999998</ele>
        <time>2017-05-22T12:10:53Z</time>
      </trkpt>
      <trkpt lat="51.631241021677852" lon="10.470599010586739">
        <ele>298.14999999999998</ele>
        <time>2017-05-22T12:10:54Z</time>
      </trkpt>
      <trkpt lat="51.631548972800374" lon="10.47056196257472">
        <ele>299.58999999999997</ele>
        <time>2017-05-22T12:11:02Z</time>
      </trkpt>
      <trkpt lat="51.631686016917229" lon="10.470628011971712">
        <ele>297.67000000000002</ele>
        <time>2017-05-22T12:11:20Z</time>
      </trkpt>
      <trkpt lat="51.631746031343937" lon="10.470677968114614">
        <ele>297.67000000000002</ele>
        <time>2017-05-22T12:11:21Z</time>
      </trkpt>
      <trkpt lat="51.631805961951613" lon="10.470745023339987">
        <ele>297.67000000000002</ele>
        <time>2017-05-22T12:11:22Z</time>
      </trkpt>
      <trkpt lat="51.631867988035083" lon="10.470835966989398">
        <ele>299.11000000000001</ele>
        <time>2017-05-22T12:11:23Z</time>
      </trkpt>
      <trkpt lat="51.631933031603694" lon="10.470935041084886">
        <ele>299.11000000000001</ele>
        <time>2017-05-22T12:11:24Z</time>
      </trkpt>
      <trkpt lat="51.63272000849247" lon="10.472554005682468">
        <ele>301.02999999999997</ele>
        <time>2017-05-22T12:11:36Z</time>
      </trkpt>
      <trkpt lat="51.633202973753214" lon="10.474664987996221">
        <ele>303.91000000000003</ele>
        <time>2017-05-22T12:11:48Z</time>
      </trkpt>
      <trkpt lat="51.633714018389583" lon="10.476499032229185">
        <ele>305.36000000000001</ele>
        <time>2017-05-22T12:12:00Z</time>
      </trkpt>
      <trkpt lat="51.634067986160517" lon="10.478876978158951">
        <ele>306.31999999999999</ele>
        <time>2017-05-22T12:12:14Z</time>
      </trkpt>
      <trkpt lat="51.634067986160517" lon="10.479810973629355">
        <ele>308.24000000000001</ele>
        <time>2017-05-22T12:12:19Z</time>
      </trkpt>
      <trkpt lat="51.634089024737477" lon="10.480003003031015">
        <ele>308.24000000000001</ele>
        <time>2017-05-22T12:12:20Z</time>
      </trkpt>
      <trkpt lat="51.634198995307088" lon="10.482185985893011">
        <ele>309.19999999999999</ele>
        <time>2017-05-22T12:12:31Z</time>
      </trkpt>
      <trkpt lat="51.634204024448991" lon="10.483992034569383">
        <ele>308.72000000000003</ele>
        <time>2017-05-22T12:12:40Z</time>
      </trkpt>
      <trkpt lat="51.634233025833964" lon="10.48422303982079">
        <ele>309.19999999999999</ele>
        <time>2017-05-22T12:12:41Z</time>
      </trkpt>
      <trkpt lat="51.63469897583127" lon="10.486357994377613">
        <ele>314.97000000000003</ele>
        <time>2017-05-22T12:12:49Z</time>
      </trkpt>
      <trkpt lat="51.635195016860962" lon="10.487982993945479">
        <ele>316.41000000000003</ele>
        <time>2017-05-22T12:12:55Z</time>
      </trkpt>
      <trkpt lat="51.635309010744095" lon="10.488190026953816">
        <ele>315.93000000000001</ele>
        <time>2017-05-22T12:12:56Z</time>
      </trkpt>
      <trkpt lat="51.635440019890666" lon="10.488371998071671">
        <ele>315.44999999999999</ele>
        <time>2017-05-22T12:12:57Z</time>
      </trkpt>
      <trkpt lat="51.635600030422211" lon="10.488519016653299">
        <ele>314.49000000000001</ele>
        <time>2017-05-22T12:12:58Z</time>
      </trkpt>
      <trkpt lat="51.635772027075291" lon="10.488625969737768">
        <ele>314.00999999999999</ele>
        <time>2017-05-22T12:12:59Z</time>
      </trkpt>
      <trkpt lat="51.635945029556751" lon="10.488668968901038">
        <ele>313.05000000000001</ele>
        <time>2017-05-22T12:13:00Z</time>
      </trkpt>
      <trkpt lat="51.636119959875941" lon="10.488652037456632">
        <ele>312.08999999999997</ele>
        <time>2017-05-22T12:13:01Z</time>
      </trkpt>
      <trkpt lat="51.636283993721008" lon="10.488582970574498">
        <ele>311.12</ele>
        <time>2017-05-22T12:13:02Z</time>
      </trkpt>
      <trkpt lat="51.636437969282269" lon="10.488455984741449">
        <ele>310.16000000000003</ele>
        <time>2017-05-22T12:13:03Z</time>
      </trkpt>
      <trkpt lat="51.636590017005801" lon="10.488277031108737">
        <ele>309.68000000000001</ele>
        <time>2017-05-22T12:13:04Z</time>
      </trkpt>
      <trkpt lat="51.636741980910301" lon="10.488038985058665">
        <ele>308.72000000000003</ele>
        <time>2017-05-22T12:13:05Z</time>
      </trkpt>
      <trkpt lat="51.636881958693266" lon="10.487789958715439">
        <ele>307.75999999999999</ele>
        <time>2017-05-22T12:13:06Z</time>
      </trkpt>
      <trkpt lat="51.63809297606349" lon="10.485455011948943">
        <ele>307.75999999999999</ele>
        <time>2017-05-22T12:13:14Z</time>
      </trkpt>
      <trkpt lat="51.639287983998656" lon="10.483361966907978">
        <ele>310.16000000000003</ele>
        <time>2017-05-22T12:13:23Z</time>
      </trkpt>
      <trkpt lat="51.639796011149883" lon="10.482563003897667">
        <ele>311.12</ele>
        <time>2017-05-22T12:13:28Z</time>
      </trkpt>
      <trkpt lat="51.639912016689777" lon="10.482458984479308">
        <ele>311.12</ele>
        <time>2017-05-22T12:13:29Z</time>
      </trkpt>
      <trkpt lat="51.640042020007968" lon="10.482383966445923">
        <ele>311.60000000000002</ele>
        <time>2017-05-22T12:13:30Z</time>
      </trkpt>
      <trkpt lat="51.640187026932836" lon="10.482358988374472">
        <ele>312.08999999999997</ele>
        <time>2017-05-22T12:13:31Z</time>
      </trkpt>
      <trkpt lat="51.640324993059039" lon="10.482378015294671">
        <ele>312.56999999999999</ele>
        <time>2017-05-22T12:13:32Z</time>
      </trkpt>
      <trkpt lat="51.640459019690752" lon="10.48243903554976">
        <ele>313.05000000000001</ele>
        <time>2017-05-22T12:13:33Z</time>
      </trkpt>
      <trkpt lat="51.64058499969542" lon="10.482542971149087">
        <ele>313.05000000000001</ele>
        <time>2017-05-22T12:13:34Z</time>
      </trkpt>
      <trkpt lat="51.640702011063695" lon="10.482684960588813">
        <ele>313.52999999999997</ele>
        <time>2017-05-22T12:13:35Z</time>
      </trkpt>
      <trkpt lat="51.640808964148164" lon="10.482862992212176">
        <ele>314.00999999999999</ele>
        <time>2017-05-22T12:13:36Z</time>
      </trkpt>
      <trkpt lat="51.640910971909761" lon="10.48306399025023">
        <ele>314.00999999999999</ele>
        <time>2017-05-22T12:13:37Z</time>
      </trkpt>
      <trkpt lat="51.641010968014598" lon="10.483284015208483">
        <ele>314.49000000000001</ele>
        <time>2017-05-22T12:13:38Z</time>
      </trkpt>
      <trkpt lat="51.642188038676977" lon="10.486219022423029">
        <ele>317.37</ele>
        <time>2017-05-22T12:13:50Z</time>
      </trkpt>
      <trkpt lat="51.643387991935015" lon="10.489175990223885">
        <ele>322.66000000000003</ele>
        <time>2017-05-22T12:14:03Z</time>
      </trkpt>
      <trkpt lat="51.643503997474909" lon="10.489356033504009">
        <ele>322.66000000000003</ele>
        <time>2017-05-22T12:14:04Z</time>
      </trkpt>
      <trkpt lat="51.643642969429493" lon="10.489533981308341">
        <ele>322.18000000000001</ele>
        <time>2017-05-22T12:14:05Z</time>
      </trkpt>
      <trkpt lat="51.643803985789418" lon="10.489663984626532">
        <ele>322.66000000000003</ele>
        <time>2017-05-22T12:14:06Z</time>
      </trkpt>
      <trkpt lat="51.643976988270879" lon="10.489778984338045">
        <ele>322.66000000000003</ele>
        <time>2017-05-22T12:14:07Z</time>
      </trkpt>
      <trkpt lat="51.645263023674488" lon="10.490607032552361">
        <ele>326.01999999999998</ele>
        <time>2017-05-22T12:14:15Z</time>
      </trkpt>
      <trkpt lat="51.645667031407356" lon="10.490984972566366">
        <ele>327.94999999999999</ele>
        <time>2017-05-22T12:14:18Z</time>
      </trkpt>
      <trkpt lat="51.64578496478498" lon="10.491159986704588">
        <ele>329.38999999999999</ele>
        <time>2017-05-22T12:14:19Z</time>
      </trkpt>
      <trkpt lat="51.645884038880467" lon="10.4913579672575">
        <ele>330.82999999999998</ele>
        <time>2017-05-22T12:14:20Z</time>
      </trkpt>
      <trkpt lat="51.645966013893485" lon="10.491572041064501">
        <ele>331.79000000000002</ele>
        <time>2017-05-22T12:14:21Z</time>
      </trkpt>
      <trkpt lat="51.64604002609849" lon="10.49178502522409">
        <ele>333.23000000000002</ele>
        <time>2017-05-22T12:14:22Z</time>
      </trkpt>
      <trkpt lat="51.646877964958549" lon="10.494306972250342">
        <ele>345.73000000000002</ele>
        <time>2017-05-22T12:14:34Z</time>
      </trkpt>
      <trkpt lat="51.64748196490109" lon="10.495823007076979">
        <ele>352.94</ele>
        <time>2017-05-22T12:14:41Z</time>
      </trkpt>
      <trkpt lat="51.647523958235979" lon="10.496071027591825">
        <ele>353.89999999999998</ele>
        <time>2017-05-22T12:14:42Z</time>
      </trkpt>
      <trkpt lat="51.647533010691404" lon="10.496327010914683">
        <ele>354.86000000000001</ele>
        <time>2017-05-22T12:14:43Z</time>
      </trkpt>
      <trkpt lat="51.647511972114444" lon="10.496588023379445">
        <ele>355.33999999999997</ele>
        <time>2017-05-22T12:14:44Z</time>
      </trkpt>
      <trkpt lat="51.647468972951174" lon="10.496855992823839">
        <ele>355.82999999999998</ele>
        <time>2017-05-22T12:14:45Z</time>
      </trkpt>
      <trkpt lat="51.647413987666368" lon="10.497121028602123">
        <ele>356.79000000000002</ele>
        <time>2017-05-22T12:14:46Z</time>
      </trkpt>
      <trkpt lat="51.6473070345819" lon="10.497714970260859">
        <ele>358.70999999999998</ele>
        <time>2017-05-22T12:14:48Z</time>
      </trkpt>
      <trkpt lat="51.647275015711784" lon="10.498043037950993">
        <ele>359.67000000000002</ele>
        <time>2017-05-22T12:14:49Z</time>
      </trkpt>
      <trkpt lat="51.647259006276727" lon="10.498387031257153">
        <ele>360.63</ele>
        <time>2017-05-22T12:14:50Z</time>
      </trkpt>
      <trkpt lat="51.64726403541863" lon="10.499107036739588">
        <ele>363.51999999999998</ele>
        <time>2017-05-22T12:14:52Z</time>
      </trkpt>
      <trkpt lat="51.647425973787904" lon="10.500832032412291">
        <ele>368.80000000000001</ele>
        <time>2017-05-22T12:14:57Z</time>
      </trkpt>
      <trkpt lat="51.647428991273046" lon="10.501149035990238">
        <ele>368.80000000000001</ele>
        <time>2017-05-22T12:14:58Z</time>
      </trkpt>
      <trkpt lat="51.647405019029975" lon="10.501461010426283">
        <ele>369.27999999999997</ele>
        <time>2017-05-22T12:14:59Z</time>
      </trkpt>
      <trkpt lat="51.647254982963204" lon="10.50295801833272">
        <ele>373.13</ele>
        <time>2017-05-22T12:15:05Z</time>
      </trkpt>
      <trkpt lat="51.647253977134824" lon="10.503177037462592">
        <ele>373.61000000000001</ele>
        <time>2017-05-22T12:15:06Z</time>
      </trkpt>
      <trkpt lat="51.647260012105107" lon="10.503396978601813">
        <ele>374.56999999999999</ele>
        <time>2017-05-22T12:15:07Z</time>
      </trkpt>
      <trkpt lat="51.64726696908474" lon="10.503621026873589">
        <ele>376.97000000000003</ele>
        <time>2017-05-22T12:15:08Z</time>
      </trkpt>
      <trkpt lat="51.647507026791573" lon="10.505176959559321">
        <ele>382.74000000000001</ele>
        <time>2017-05-22T12:15:16Z</time>
      </trkpt>
      <trkpt lat="51.6475660353899" lon="10.505359014496207">
        <ele>382.74000000000001</ele>
        <time>2017-05-22T12:15:17Z</time>
      </trkpt>
      <trkpt lat="51.647645998746157" lon="10.50553796812892">
        <ele>383.22000000000003</ele>
        <time>2017-05-22T12:15:18Z</time>
      </trkpt>
      <trkpt lat="51.647747000679374" lon="10.505709964782">
        <ele>383.69999999999999</ele>
        <time>2017-05-22T12:15:19Z</time>
      </trkpt>
      <trkpt lat="51.647864012047648" lon="10.505871986970305">
        <ele>384.18000000000001</ele>
        <time>2017-05-22T12:15:20Z</time>
      </trkpt>
      <trkpt lat="51.647994015365839" lon="10.506035014986992">
        <ele>384.18000000000001</ele>
        <time>2017-05-22T12:15:21Z</time>
      </trkpt>
      <trkpt lat="51.649064971134067" lon="10.507186017930508">
        <ele>384.18000000000001</ele>
        <time>2017-05-22T12:15:28Z</time>
      </trkpt>
      <trkpt lat="51.649601999670267" lon="10.507984980940819">
        <ele>385.63</ele>
        <time>2017-05-22T12:15:32Z</time>
      </trkpt>
      <trkpt lat="51.64969596080482" lon="10.508221015334129">
        <ele>385.63</ele>
        <time>2017-05-22T12:15:33Z</time>
      </trkpt>
      <trkpt lat="51.649768967181444" lon="10.508466018363833">
        <ele>385.63</ele>
        <time>2017-05-22T12:15:34Z</time>
      </trkpt>
      <trkpt lat="51.649824036285281" lon="10.508726025000215">
        <ele>386.11000000000001</ele>
        <time>2017-05-22T12:15:35Z</time>
      </trkpt>
      <trkpt lat="51.649868041276932" lon="10.509000029414892">
        <ele>386.58999999999997</ele>
        <time>2017-05-22T12:15:36Z</time>
      </trkpt>
      <trkpt lat="51.649921014904976" lon="10.509275961667299">
        <ele>386.58999999999997</ele>
        <time>2017-05-22T12:15:37Z</time>
      </trkpt>
      <trkpt lat="51.650008019059896" lon="10.509521970525384">
        <ele>386.58999999999997</ele>
        <time>2017-05-22T12:15:38Z</time>
      </trkpt>
      <trkpt lat="51.650130981579423" lon="10.509734032675624">
        <ele>386.58999999999997</ele>
        <time>2017-05-22T12:15:39Z</time>
      </trkpt>
      <trkpt lat="51.650280011817813" lon="10.509922038763762">
        <ele>387.06999999999999</ele>
        <time>2017-05-22T12:15:40Z</time>
      </trkpt>
      <trkpt lat="51.650429964065552" lon="10.510109961032867">
        <ele>387.06999999999999</ele>
        <time>2017-05-22T12:15:41Z</time>
      </trkpt>
      <trkpt lat="51.6505759768188" lon="10.510310037061572">
        <ele>387.06999999999999</ele>
        <time>2017-05-22T12:15:42Z</time>
      </trkpt>
      <trkpt lat="51.650705980136991" lon="10.510523021221161">
        <ele>387.06999999999999</ele>
        <time>2017-05-22T12:15:43Z</time>
      </trkpt>
      <trkpt lat="51.650820979848504" lon="10.510744974017143">
        <ele>387.06999999999999</ele>
        <time>2017-05-22T12:15:44Z</time>
      </trkpt>
      <trkpt lat="51.650905972346663" lon="10.511001963168383">
        <ele>387.06999999999999</ele>
        <time>2017-05-22T12:15:45Z</time>
      </trkpt>
      <trkpt lat="51.650969004258513" lon="10.511283008381724">
        <ele>386.58999999999997</ele>
        <time>2017-05-22T12:15:46Z</time>
      </trkpt>
      <trkpt lat="51.651020972058177" lon="10.511577967554331">
        <ele>386.58999999999997</ele>
        <time>2017-05-22T12:15:47Z</time>
      </trkpt>
      <trkpt lat="51.651076041162014" lon="10.511879967525601">
        <ele>386.11000000000001</ele>
        <time>2017-05-22T12:15:48Z</time>
      </trkpt>
      <trkpt lat="51.651147035881877" lon="10.512164030224085">
        <ele>387.06999999999999</ele>
        <time>2017-05-22T12:15:49Z</time>
      </trkpt>
      <trkpt lat="51.651219958439469" lon="10.512418001890182">
        <ele>387.06999999999999</ele>
        <time>2017-05-22T12:15:50Z</time>
      </trkpt>
      <trkpt lat="51.651315009221435" lon="10.512620005756617">
        <ele>387.06999999999999</ele>
        <time>2017-05-22T12:15:51Z</time>
      </trkpt>
      <trkpt lat="51.651435038074851" lon="10.512780016288161">
        <ele>387.06999999999999</ele>
        <time>2017-05-22T12:15:52Z</time>
      </trkpt>
      <trkpt lat="51.651577027514577" lon="10.512911025434732">
        <ele>387.06999999999999</ele>
        <time>2017-05-22T12:15:53Z</time>
      </trkpt>
      <trkpt lat="51.651729997247458" lon="10.513045974075794">
        <ele>388.02999999999997</ele>
        <time>2017-05-22T12:15:54Z</time>
      </trkpt>
      <trkpt lat="51.651861006394029" lon="10.51322802901268">
        <ele>388.02999999999997</ele>
        <time>2017-05-22T12:15:55Z</time>
      </trkpt>
      <trkpt lat="51.65197198279202" lon="10.513456016778946">
        <ele>388.02999999999997</ele>
        <time>2017-05-22T12:15:56Z</time>
      </trkpt>
      <trkpt lat="51.652091005817056" lon="10.513692973181605">
        <ele>388.50999999999999</ele>
        <time>2017-05-22T12:15:57Z</time>
      </trkpt>
      <trkpt lat="51.652586041018367" lon="10.514652030542493">
        <ele>389.47000000000003</ele>
        <time>2017-05-22T12:16:01Z</time>
      </trkpt>
      <trkpt lat="51.653552977368236" lon="10.515907974913716">
        <ele>389.47000000000003</ele>
        <time>2017-05-22T12:16:07Z</time>
      </trkpt>
      <trkpt lat="51.653682980686426" lon="10.516100004315376">
        <ele>389.94999999999999</ele>
        <time>2017-05-22T12:16:08Z</time>
      </trkpt>
      <trkpt lat="51.653779959306121" lon="10.516298990696669">
        <ele>390.43000000000001</ele>
        <time>2017-05-22T12:16:09Z</time>
      </trkpt>
      <trkpt lat="51.653845002874732" lon="10.516514992341399">
        <ele>391.38999999999999</ele>
        <time>2017-05-22T12:16:10Z</time>
      </trkpt>
      <trkpt lat="51.653894037008286" lon="10.516755972057581">
        <ele>391.38999999999999</ele>
        <time>2017-05-22T12:16:11Z</time>
      </trkpt>
      <trkpt lat="51.653965031728148" lon="10.516985971480608">
        <ele>391.87</ele>
        <time>2017-05-22T12:16:12Z</time>
      </trkpt>
      <trkpt lat="51.654173992574215" lon="10.517484024167061">
        <ele>391.87</ele>
        <time>2017-05-22T12:16:14Z</time>
      </trkpt>
      <trkpt lat="51.655143024399877" lon="10.519129978492856">
        <ele>390.43000000000001</ele>
        <time>2017-05-22T12:16:21Z</time>
      </trkpt>
      <trkpt lat="51.655276967212558" lon="10.519250007346272">
        <ele>389.94999999999999</ele>
        <time>2017-05-22T12:16:22Z</time>
      </trkpt>
      <trkpt lat="51.655435971915722" lon="10.519325025379658">
        <ele>389.94999999999999</ele>
        <time>2017-05-22T12:16:23Z</time>
      </trkpt>
      <trkpt lat="51.655596988275647" lon="10.519386967644095">
        <ele>389.47000000000003</ele>
        <time>2017-05-22T12:16:24Z</time>
      </trkpt>
      <trkpt lat="51.655740989372134" lon="10.519488975405693">
        <ele>389.47000000000003</ele>
        <time>2017-05-22T12:16:25Z</time>
      </trkpt>
      <trkpt lat="51.655868981033564" lon="10.519623002037406">
        <ele>388.50999999999999</ele>
        <time>2017-05-22T12:16:26Z</time>
      </trkpt>
      <trkpt lat="51.655994961038232" lon="10.519810002297163">
        <ele>389.94999999999999</ele>
        <time>2017-05-22T12:16:27Z</time>
      </trkpt>
      <trkpt lat="51.656109960749745" lon="10.520029021427035">
        <ele>390.43000000000001</ele>
        <time>2017-05-22T12:16:28Z</time>
      </trkpt>
      <trkpt lat="51.656365022063255" lon="10.520484996959567">
        <ele>390.91000000000003</ele>
        <time>2017-05-22T12:16:30Z</time>
      </trkpt>
      <trkpt lat="51.656514974310994" lon="10.520680965855718">
        <ele>390.43000000000001</ele>
        <time>2017-05-22T12:16:31Z</time>
      </trkpt>
      <trkpt lat="51.65665696375072" lon="10.520863020792603">
        <ele>390.91000000000003</ele>
        <time>2017-05-22T12:16:32Z</time>
      </trkpt>
      <trkpt lat="51.656789984554052" lon="10.521078016608953">
        <ele>390.91000000000003</ele>
        <time>2017-05-22T12:16:33Z</time>
      </trkpt>
      <trkpt lat="51.656892998144031" lon="10.521336011588573">
        <ele>390.91000000000003</ele>
        <time>2017-05-22T12:16:34Z</time>
      </trkpt>
      <trkpt lat="51.656963992863894" lon="10.521614039316773">
        <ele>391.38999999999999</ele>
        <time>2017-05-22T12:16:35Z</time>
      </trkpt>
      <trkpt lat="51.657038005068898" lon="10.521881002932787">
        <ele>391.38999999999999</ele>
        <time>2017-05-22T12:16:36Z</time>
      </trkpt>
      <trkpt lat="51.657147975638509" lon="10.52212399430573">
        <ele>391.38999999999999</ele>
        <time>2017-05-22T12:16:37Z</time>
      </trkpt>
      <trkpt lat="51.657300023362041" lon="10.522331027314067">
        <ele>392.36000000000001</ele>
        <time>2017-05-22T12:16:38Z</time>
      </trkpt>
      <trkpt lat="51.657476965337992" lon="10.522506041452289">
        <ele>392.83999999999997</ele>
        <time>2017-05-22T12:16:39Z</time>
      </trkpt>
      <trkpt lat="51.657666983082891" lon="10.522647025063634">
        <ele>393.31999999999999</ele>
        <time>2017-05-22T12:16:40Z</time>
      </trkpt>
      <trkpt lat="51.657864041626453" lon="10.522752972319722">
        <ele>393.31999999999999</ele>
        <time>2017-05-22T12:16:41Z</time>
      </trkpt>
      <trkpt lat="51.658236030489206" lon="10.522937038913369">
        <ele>392.83999999999997</ele>
        <time>2017-05-22T12:16:43Z</time>
      </trkpt>
      <trkpt lat="51.658433005213737" lon="10.52298498339951">
        <ele>392.36000000000001</ele>
        <time>2017-05-22T12:16:44Z</time>
      </trkpt>
      <trkpt lat="51.658641966059804" lon="10.522979032248259">
        <ele>391.38999999999999</ele>
        <time>2017-05-22T12:16:45Z</time>
      </trkpt>
      <trkpt lat="51.658859979361296" lon="10.522924968972802">
        <ele>391.38999999999999</ele>
        <time>2017-05-22T12:16:46Z</time>
      </trkpt>
      <trkpt lat="51.659073969349265" lon="10.522841988131404">
        <ele>391.87</ele>
        <time>2017-05-22T12:16:47Z</time>
      </trkpt>
      <trkpt lat="51.659281002357602" lon="10.52274702116847">
        <ele>391.38999999999999</ele>
        <time>2017-05-22T12:16:48Z</time>
      </trkpt>
      <trkpt lat="51.659852983430028" lon="10.522551974281669">
        <ele>390.91000000000003</ele>
        <time>2017-05-22T12:16:51Z</time>
      </trkpt>
      <trkpt lat="51.660043001174927" lon="10.52257401868701">
        <ele>390.91000000000003</ele>
        <time>2017-05-22T12:16:52Z</time>
      </trkpt>
      <trkpt lat="51.660225978121161" lon="10.52261802367866">
        <ele>390.91000000000003</ele>
        <time>2017-05-22T12:16:53Z</time>
      </trkpt>
      <trkpt lat="51.660399986431003" lon="10.522688012570143">
        <ele>390.91000000000003</ele>
        <time>2017-05-22T12:16:54Z</time>
      </trkpt>
      <trkpt lat="51.660566031932831" lon="10.522819021716714">
        <ele>390.43000000000001</ele>
        <time>2017-05-22T12:16:55Z</time>
      </trkpt>
      <trkpt lat="51.660734005272388" lon="10.522989006713033">
        <ele>390.43000000000001</ele>
        <time>2017-05-22T12:16:56Z</time>
      </trkpt>
      <trkpt lat="51.660878006368876" lon="10.523221017792821">
        <ele>391.38999999999999</ele>
        <time>2017-05-22T12:16:57Z</time>
      </trkpt>
      <trkpt lat="51.661009015515447" lon="10.523494016379118">
        <ele>391.87</ele>
        <time>2017-05-22T12:16:58Z</time>
      </trkpt>
      <trkpt lat="51.66235095821321" lon="10.526328021660447">
        <ele>392.83999999999997</ele>
        <time>2017-05-22T12:17:08Z</time>
      </trkpt>
      <trkpt lat="51.662691012024879" lon="10.527178030461073">
        <ele>392.83999999999997</ele>
        <time>2017-05-22T12:17:11Z</time>
      </trkpt>
      <trkpt lat="51.662766030058265" lon="10.527469972148538">
        <ele>392.36000000000001</ele>
        <time>2017-05-22T12:17:12Z</time>
      </trkpt>
      <trkpt lat="51.662874994799495" lon="10.528091993182898">
        <ele>391.87</ele>
        <time>2017-05-22T12:17:14Z</time>
      </trkpt>
      <trkpt lat="51.662954036146402" lon="10.528399022296071">
        <ele>392.83999999999997</ele>
        <time>2017-05-22T12:17:15Z</time>
      </trkpt>
      <trkpt lat="51.663076998665929" lon="10.528688030317426">
        <ele>392.83999999999997</ele>
        <time>2017-05-22T12:17:16Z</time>
      </trkpt>
      <trkpt lat="51.664424976333976" lon="10.531204026192427">
        <ele>392.83999999999997</ele>
        <time>2017-05-22T12:17:25Z</time>
      </trkpt>
      <trkpt lat="51.665294012054801" lon="10.533205959945917">
        <ele>394.27999999999997</ele>
        <time>2017-05-22T12:17:32Z</time>
      </trkpt>
      <trkpt lat="51.666360022500157" lon="10.536107020452619">
        <ele>394.27999999999997</ele>
        <time>2017-05-22T12:17:41Z</time>
      </trkpt>
      <trkpt lat="51.667311033234" lon="10.538885034620762">
        <ele>394.27999999999997</ele>
        <time>2017-05-22T12:17:50Z</time>
      </trkpt>
      <trkpt lat="51.66739895939827" lon="10.539142023772001">
        <ele>394.27999999999997</ele>
        <time>2017-05-22T12:17:51Z</time>
      </trkpt>
      <trkpt lat="51.667513037100434" lon="10.53937797434628">
        <ele>393.80000000000001</ele>
        <time>2017-05-22T12:17:52Z</time>
      </trkpt>
      <trkpt lat="51.667658966034651" lon="10.539607973769307">
        <ele>394.27999999999997</ele>
        <time>2017-05-22T12:17:53Z</time>
      </trkpt>
      <trkpt lat="51.667814031243324" lon="10.539841996505857">
        <ele>394.27999999999997</ele>
        <time>2017-05-22T12:17:54Z</time>
      </trkpt>
      <trkpt lat="51.667960966005921" lon="10.540102003142238">
        <ele>394.27999999999997</ele>
        <time>2017-05-22T12:17:55Z</time>
      </trkpt>
      <trkpt lat="51.668091975152493" lon="10.540365027263761">
        <ele>393.80000000000001</ele>
        <time>2017-05-22T12:17:56Z</time>
      </trkpt>
      <trkpt lat="51.668226001784205" lon="10.540608018636703">
        <ele>393.31999999999999</ele>
        <time>2017-05-22T12:17:57Z</time>
      </trkpt>
      <trkpt lat="51.668377965688705" lon="10.540813039988279">
        <ele>392.83999999999997</ele>
        <time>2017-05-22T12:17:58Z</time>
      </trkpt>
      <trkpt lat="51.668553985655308" lon="10.540979001671076">
        <ele>392.36000000000001</ele>
        <time>2017-05-22T12:17:59Z</time>
      </trkpt>
      <trkpt lat="51.668733023107052" lon="10.541131971403956">
        <ele>392.36000000000001</ele>
        <time>2017-05-22T12:18:00Z</time>
      </trkpt>
      <trkpt lat="51.668898984789848" lon="10.541316960006952">
        <ele>392.83999999999997</ele>
        <time>2017-05-22T12:18:01Z</time>
      </trkpt>
      <trkpt lat="51.669052038341761" lon="10.54154796525836">
        <ele>392.36000000000001</ele>
        <time>2017-05-22T12:18:02Z</time>
      </trkpt>
      <trkpt lat="51.66920299641788" lon="10.541807971894741">
        <ele>392.83999999999997</ele>
        <time>2017-05-22T12:18:03Z</time>
      </trkpt>
      <trkpt lat="51.670198012143373" lon="10.543706975877285">
        <ele>394.27999999999997</ele>
        <time>2017-05-22T12:18:10Z</time>
      </trkpt>
      <trkpt lat="51.670755995437503" lon="10.546100009232759">
        <ele>396.68000000000001</ele>
        <time>2017-05-22T12:18:17Z</time>
      </trkpt>
      <trkpt lat="51.671142987906933" lon="10.548525983467698">
        <ele>394.75999999999999</ele>
        <time>2017-05-22T12:18:24Z</time>
      </trkpt>
      <trkpt lat="51.671238960698247" lon="10.548856984823942">
        <ele>394.75999999999999</ele>
        <time>2017-05-22T12:18:25Z</time>
      </trkpt>
      <trkpt lat="51.671597035601735" lon="10.549798021093011">
        <ele>394.75999999999999</ele>
        <time>2017-05-22T12:18:28Z</time>
      </trkpt>
      <trkpt lat="51.671751011162996" lon="10.55007797665894">
        <ele>394.75999999999999</ele>
        <time>2017-05-22T12:18:29Z</time>
      </trkpt>
      <trkpt lat="51.67304802685976" lon="10.552437985315919">
        <ele>395.24000000000001</ele>
        <time>2017-05-22T12:18:37Z</time>
      </trkpt>
      <trkpt lat="51.673859981819987" lon="10.554620968177915">
        <ele>393.80000000000001</ele>
        <time>2017-05-22T12:18:44Z</time>
      </trkpt>
      <trkpt lat="51.674284022301435" lon="10.55617899633944">
        <ele>394.75999999999999</ele>
        <time>2017-05-22T12:18:50Z</time>
      </trkpt>
      <trkpt lat="51.674887016415596" lon="10.558517966419458">
        <ele>394.75999999999999</ele>
        <time>2017-05-22T12:18:57Z</time>
      </trkpt>
      <trkpt lat="51.676181014627218" lon="10.562163004651666">
        <ele>397.16000000000003</ele>
        <time>2017-05-22T12:19:07Z</time>
      </trkpt>
      <trkpt lat="51.677874997258186" lon="10.566925015300512">
        <ele>402.93000000000001</ele>
        <time>2017-05-22T12:19:20Z</time>
      </trkpt>
      <trkpt lat="51.678717965260148" lon="10.568538028746843">
        <ele>403.88999999999999</ele>
        <time>2017-05-22T12:19:26Z</time>
      </trkpt>
      <trkpt lat="51.679646009579301" lon="10.569699006155133">
        <ele>405.32999999999998</ele>
        <time>2017-05-22T12:19:33Z</time>
      </trkpt>
      <trkpt lat="51.681136982515454" lon="10.570967020466924">
        <ele>407.74000000000001</ele>
        <time>2017-05-22T12:19:41Z</time>
      </trkpt>
      <trkpt lat="51.682240040972829" lon="10.572408037260175">
        <ele>412.54000000000002</ele>
        <time>2017-05-22T12:19:47Z</time>
      </trkpt>
      <trkpt lat="51.683357013389468" lon="10.574288014322519">
        <ele>414.94999999999999</ele>
        <time>2017-05-22T12:19:54Z</time>
      </trkpt>
      <trkpt lat="51.684148013591766" lon="10.575139028951526">
        <ele>414.47000000000003</ele>
        <time>2017-05-22T12:19:58Z</time>
      </trkpt>
      <trkpt lat="51.684368960559368" lon="10.575265008956194">
        <ele>413.98000000000002</ele>
        <time>2017-05-22T12:19:59Z</time>
      </trkpt>
      <trkpt lat="51.684611029922962" lon="10.575324017554522">
        <ele>413.5</ele>
        <time>2017-05-22T12:20:00Z</time>
      </trkpt>
      <trkpt lat="51.684862989932299" lon="10.575330974534154">
        <ele>413.01999999999998</ele>
        <time>2017-05-22T12:20:01Z</time>
      </trkpt>
      <trkpt lat="51.685108998790383" lon="10.575309013947845">
        <ele>411.57999999999998</ele>
        <time>2017-05-22T12:20:02Z</time>
      </trkpt>
      <trkpt lat="51.685348972678185" lon="10.575227038934827">
        <ele>410.62</ele>
        <time>2017-05-22T12:20:03Z</time>
      </trkpt>
      <trkpt lat="51.685575032606721" lon="10.575115978717804">
        <ele>410.13999999999999</ele>
        <time>2017-05-22T12:20:04Z</time>
      </trkpt>
      <trkpt lat="51.685808971524239" lon="10.574964014813304">
        <ele>410.13999999999999</ele>
        <time>2017-05-22T12:20:05Z</time>
      </trkpt>
      <trkpt lat="51.68789497576654" lon="10.573313031345606">
        <ele>411.10000000000002</ele>
        <time>2017-05-22T12:20:14Z</time>
      </trkpt>
      <trkpt lat="51.688095973804593" lon="10.573085965588689">
        <ele>411.10000000000002</ele>
        <time>2017-05-22T12:20:15Z</time>
      </trkpt>
      <trkpt lat="51.689660036936402" lon="10.571439005434513">
        <ele>413.01999999999998</ele>
        <time>2017-05-22T12:20:22Z</time>
      </trkpt>
      <trkpt lat="51.692648017778993" lon="10.5688960198313">
        <ele>415.91000000000003</ele>
        <time>2017-05-22T12:20:35Z</time>
      </trkpt>
      <trkpt lat="51.693768007680774" lon="10.568070989102125">
        <ele>419.75</ele>
        <time>2017-05-22T12:20:41Z</time>
      </trkpt>
      <trkpt lat="51.694762017577887" lon="10.567935034632683">
        <ele>426.48000000000002</ele>
        <time>2017-05-22T12:20:46Z</time>
      </trkpt>
      <trkpt lat="51.695550000295043" lon="10.568135026842356">
        <ele>429.85000000000002</ele>
        <time>2017-05-22T12:20:51Z</time>
      </trkpt>
      <trkpt lat="51.695732977241278" lon="10.568214990198612">
        <ele>430.32999999999998</ele>
        <time>2017-05-22T12:20:53Z</time>
      </trkpt>
      <trkpt lat="51.695795003324747" lon="10.56821197271347">
        <ele>430.32999999999998</ele>
        <time>2017-05-22T12:20:54Z</time>
      </trkpt>
      <trkpt lat="51.695857029408216" lon="10.5681689735502">
        <ele>430.32999999999998</ele>
        <time>2017-05-22T12:20:55Z</time>
      </trkpt>
      <trkpt lat="51.695893993601203" lon="10.568086998537183">
        <ele>429.37</ele>
        <time>2017-05-22T12:20:56Z</time>
      </trkpt>
      <trkpt lat="51.695903968065977" lon="10.567982979118824">
        <ele>428.39999999999998</ele>
        <time>2017-05-22T12:20:57Z</time>
      </trkpt>
      <trkpt lat="51.695900028571486" lon="10.567840989679098">
        <ele>427.92000000000002</ele>
        <time>2017-05-22T12:20:58Z</time>
      </trkpt>
      <trkpt lat="51.695891981944442" lon="10.566514972597361">
        <ele>420.70999999999998</ele>
        <time>2017-05-22T12:21:05Z</time>
      </trkpt>
      <trkpt lat="51.695867003872991" lon="10.566328978165984">
        <ele>420.23000000000002</ele>
        <time>2017-05-22T12:21:06Z</time>
      </trkpt>
      <trkpt lat="51.695825010538101" lon="10.566150024533272">
        <ele>420.23000000000002</ele>
        <time>2017-05-22T12:21:07Z</time>
      </trkpt>
      <trkpt lat="51.695767007768154" lon="10.565978027880192">
        <ele>419.75</ele>
        <time>2017-05-22T12:21:08Z</time>
      </trkpt>
      <trkpt lat="51.695688972249627" lon="10.56582598015666">
        <ele>419.75</ele>
        <time>2017-05-22T12:21:09Z</time>
      </trkpt>
      <trkpt lat="51.695596016943455" lon="10.565689019858837">
        <ele>420.23000000000002</ele>
        <time>2017-05-22T12:21:10Z</time>
      </trkpt>
      <trkpt lat="51.695495015010238" lon="10.565568991005421">
        <ele>420.23000000000002</ele>
        <time>2017-05-22T12:21:11Z</time>
      </trkpt>
      <trkpt lat="51.695389989763498" lon="10.56545801460743">
        <ele>420.70999999999998</ele>
        <time>2017-05-22T12:21:12Z</time>
      </trkpt>
      <trkpt lat="51.695277001708746" lon="10.565362041816115">
        <ele>421.19</ele>
        <time>2017-05-22T12:21:13Z</time>
      </trkpt>
      <trkpt lat="51.694950023666024" lon="10.56502802297473">
        <ele>423.60000000000002</ele>
        <time>2017-05-22T12:21:16Z</time>
      </trkpt>
      <trkpt lat="51.694870982319117" lon="10.564867006614804">
        <ele>424.56</ele>
        <time>2017-05-22T12:21:17Z</time>
      </trkpt>
      <trkpt lat="51.694821026176214" lon="10.564688974991441">
        <ele>425.51999999999998</ele>
        <time>2017-05-22T12:21:18Z</time>
      </trkpt>
      <trkpt lat="51.694801999256015" lon="10.564499963074923">
        <ele>426.95999999999998</ele>
        <time>2017-05-22T12:21:19Z</time>
      </trkpt>
      <trkpt lat="51.694820020347834" lon="10.564318997785449">
        <ele>427.92000000000002</ele>
        <time>2017-05-22T12:21:20Z</time>
      </trkpt>
      <trkpt lat="51.694865031167865" lon="10.564158987253904">
        <ele>427.92000000000002</ele>
        <time>2017-05-22T12:21:21Z</time>
      </trkpt>
      <trkpt lat="51.694930996745825" lon="10.56401900947094">
        <ele>428.88999999999999</ele>
        <time>2017-05-22T12:21:22Z</time>
      </trkpt>
      <trkpt lat="51.695010038092732" lon="10.563908033072948">
        <ele>429.37</ele>
        <time>2017-05-22T12:21:23Z</time>
      </trkpt>
      <trkpt lat="51.695103999227285" lon="10.563832009211183">
        <ele>429.85000000000002</ele>
        <time>2017-05-22T12:21:24Z</time>
      </trkpt>
      <trkpt lat="51.695213969796896" lon="10.563766965642571">
        <ele>431.76999999999998</ele>
        <time>2017-05-22T12:21:25Z</time>
      </trkpt>
      <trkpt lat="51.695317989215255" lon="10.56369898840785">
        <ele>432.25</ele>
        <time>2017-05-22T12:21:26Z</time>
      </trkpt>
      <trkpt lat="51.695702970027924" lon="10.563433030620217">
        <ele>434.64999999999998</ele>
        <time>2017-05-22T12:21:30Z</time>
      </trkpt>
      <trkpt lat="51.695870021358132" lon="10.56324603036046">
        <ele>435.61000000000001</ele>
        <time>2017-05-22T12:21:32Z</time>
      </trkpt>
      <trkpt lat="51.696032965555787" lon="10.563026005402207">
        <ele>437.54000000000002</ele>
        <time>2017-05-22T12:21:34Z</time>
      </trkpt>
      <trkpt lat="51.696466980502009" lon="10.561931999400258">
        <ele>444.26999999999998</ele>
        <time>2017-05-22T12:21:42Z</time>
      </trkpt>
      <trkpt lat="51.69676898047328" lon="10.560788037255406">
        <ele>448.11000000000001</ele>
        <time>2017-05-22T12:21:48Z</time>
      </trkpt>
      <trkpt lat="51.696846010163426" lon="10.560643030330539">
        <ele>448.58999999999997</ele>
        <time>2017-05-22T12:21:49Z</time>
      </trkpt>
      <trkpt lat="51.697215987369418" lon="10.560004999861121">
        <ele>451.95999999999998</ele>
        <time>2017-05-22T12:21:54Z</time>
      </trkpt>
      <trkpt lat="51.697239959612489" lon="10.559850018471479">
        <ele>452.92000000000002</ele>
        <time>2017-05-22T12:21:55Z</time>
      </trkpt>
      <trkpt lat="51.697235014289618" lon="10.559677015990019">
        <ele>453.88</ele>
        <time>2017-05-22T12:21:56Z</time>
      </trkpt>
      <trkpt lat="51.697216993197799" lon="10.559494961053133">
        <ele>454.36000000000001</ele>
        <time>2017-05-22T12:21:57Z</time>
      </trkpt>
      <trkpt lat="51.697178017348051" lon="10.559308966621757">
        <ele>455.31999999999999</ele>
        <time>2017-05-22T12:21:58Z</time>
      </trkpt>
      <trkpt lat="51.697116997092962" lon="10.559133030474186">
        <ele>455.80000000000001</ele>
        <time>2017-05-22T12:21:59Z</time>
      </trkpt>
      <trkpt lat="51.697046002373099" lon="10.558953993022442">
        <ele>456.27999999999997</ele>
        <time>2017-05-22T12:22:00Z</time>
      </trkpt>
      <trkpt lat="51.696958998218179" lon="10.558806974440813">
        <ele>456.75999999999999</ele>
        <time>2017-05-22T12:22:01Z</time>
      </trkpt>
      <trkpt lat="51.69685497879982" lon="10.558687029406428">
        <ele>457.24000000000001</ele>
        <time>2017-05-22T12:22:02Z</time>
      </trkpt>
      <trkpt lat="51.696724975481629" lon="10.558592984452844">
        <ele>459.64999999999998</ele>
        <time>2017-05-22T12:22:03Z</time>
      </trkpt>
      <trkpt lat="51.696537975221872" lon="10.558266006410122">
        <ele>462.52999999999997</ele>
        <time>2017-05-22T12:22:06Z</time>
      </trkpt>
      <trkpt lat="51.696534035727382" lon="10.558140026405454">
        <ele>464.93000000000001</ele>
        <time>2017-05-22T12:22:07Z</time>
      </trkpt>
      <trkpt lat="51.696564964950085" lon="10.558041958138347">
        <ele>465.42000000000002</ele>
        <time>2017-05-22T12:22:08Z</time>
      </trkpt>
      <trkpt lat="51.696633026003838" lon="10.557949002832174">
        <ele>466.86000000000001</ele>
        <time>2017-05-22T12:22:09Z</time>
      </trkpt>
      <trkpt lat="51.696744002401829" lon="10.557886976748705">
        <ele>467.33999999999997</ele>
        <time>2017-05-22T12:22:10Z</time>
      </trkpt>
      <trkpt lat="51.696864031255245" lon="10.55785596370697">
        <ele>468.30000000000001</ele>
        <time>2017-05-22T12:22:11Z</time>
      </trkpt>
      <trkpt lat="51.696995962411165" lon="10.557854035869241">
        <ele>469.25999999999999</ele>
        <time>2017-05-22T12:22:12Z</time>
      </trkpt>
      <trkpt lat="51.697124959900975" lon="10.557904997840524">
        <ele>470.69999999999999</ele>
        <time>2017-05-22T12:22:13Z</time>
      </trkpt>
      <trkpt lat="51.697269966825843" lon="10.557965012267232">
        <ele>471.66000000000003</ele>
        <time>2017-05-22T12:22:14Z</time>
      </trkpt>
      <trkpt lat="51.697393013164401" lon="10.558074982836843">
        <ele>473.11000000000001</ele>
        <time>2017-05-22T12:22:15Z</time>
      </trkpt>
      <trkpt lat="51.697503989562392" lon="10.558235999196768">
        <ele>474.55000000000001</ele>
        <time>2017-05-22T12:22:16Z</time>
      </trkpt>
      <trkpt lat="51.697624018415809" lon="10.558403972536325">
        <ele>475.99000000000001</ele>
        <time>2017-05-22T12:22:17Z</time>
      </trkpt>
      <trkpt lat="51.697726026177406" lon="10.558588961139321">
        <ele>477.43000000000001</ele>
        <time>2017-05-22T12:22:18Z</time>
      </trkpt>
      <trkpt lat="51.697812024503946" lon="10.558775961399078">
        <ele>479.35000000000002</ele>
        <time>2017-05-22T12:22:19Z</time>
      </trkpt>
      <trkpt lat="51.697888970375061" lon="10.558954998850822">
        <ele>481.27999999999997</ele>
        <time>2017-05-22T12:22:20Z</time>
      </trkpt>
      <trkpt lat="51.69794999063015" lon="10.559117021039128">
        <ele>481.75999999999999</ele>
        <time>2017-05-22T12:22:21Z</time>
      </trkpt>
      <trkpt lat="51.698153000324965" lon="10.559623036533594">
        <ele>484.16000000000003</ele>
        <time>2017-05-22T12:22:25Z</time>
      </trkpt>
      <trkpt lat="51.698220977559686" lon="10.559660000726581">
        <ele>485.12</ele>
        <time>2017-05-22T12:22:26Z</time>
      </trkpt>
      <trkpt lat="51.698313010856509" lon="10.559623036533594">
        <ele>485.12</ele>
        <time>2017-05-22T12:22:27Z</time>
      </trkpt>
      <trkpt lat="51.69840001501143" lon="10.559536032378674">
        <ele>485.60000000000002</ele>
        <time>2017-05-22T12:22:28Z</time>
      </trkpt>
      <trkpt lat="51.698479978367686" lon="10.559402005746961">
        <ele>485.60000000000002</ele>
        <time>2017-05-22T12:22:29Z</time>
      </trkpt>
      <trkpt lat="51.698546027764678" lon="10.559238977730274">
        <ele>486.07999999999998</ele>
        <time>2017-05-22T12:22:30Z</time>
      </trkpt>
      <trkpt lat="51.698607970029116" lon="10.559037979692221">
        <ele>487.52999999999997</ele>
        <time>2017-05-22T12:22:31Z</time>
      </trkpt>
      <trkpt lat="51.698634959757328" lon="10.55882097221911">
        <ele>488.97000000000003</ele>
        <time>2017-05-22T12:22:32Z</time>
      </trkpt>
      <trkpt lat="51.698649963364005" lon="10.55858300998807">
        <ele>489.93000000000001</ele>
        <time>2017-05-22T12:22:33Z</time>
      </trkpt>
      <trkpt lat="51.69868198223412" lon="10.558097027242184">
        <ele>492.81</ele>
        <time>2017-05-22T12:22:35Z</time>
      </trkpt>
      <trkpt lat="51.698726993054152" lon="10.557850012555718">
        <ele>494.74000000000001</ele>
        <time>2017-05-22T12:22:36Z</time>
      </trkpt>
      <trkpt lat="51.698836963623762" lon="10.557191027328372">
        <ele>498.10000000000002</ele>
        <time>2017-05-22T12:22:39Z</time>
      </trkpt>
      <trkpt lat="51.698844004422426" lon="10.556974019855261">
        <ele>499.54000000000002</ele>
        <time>2017-05-22T12:22:40Z</time>
      </trkpt>
      <trkpt lat="51.69880997389555" lon="10.556767992675304">
        <ele>500.5</ele>
        <time>2017-05-22T12:22:41Z</time>
      </trkpt>
      <trkpt lat="51.698746019974351" lon="10.55656498298049">
        <ele>500.98000000000002</ele>
        <time>2017-05-22T12:22:42Z</time>
      </trkpt>
      <trkpt lat="51.698662033304572" lon="10.556369014084339">
        <ele>501.94999999999999</ele>
        <time>2017-05-22T12:22:43Z</time>
      </trkpt>
      <trkpt lat="51.698562037199736" lon="10.556189976632595">
        <ele>503.38999999999999</ele>
        <time>2017-05-22T12:22:44Z</time>
      </trkpt>
      <trkpt lat="51.698464974761009" lon="10.556015968322754">
        <ele>504.35000000000002</ele>
        <time>2017-05-22T12:22:45Z</time>
      </trkpt>
      <trkpt lat="51.698034983128309" lon="10.555050959810615">
        <ele>509.16000000000003</ele>
        <time>2017-05-22T12:22:50Z</time>
      </trkpt>
      <trkpt lat="51.697573978453875" lon="10.552977025508881">
        <ele>518.76999999999998</ele>
        <time>2017-05-22T12:22:59Z</time>
      </trkpt>
      <trkpt lat="51.697553023695946" lon="10.552748031914234">
        <ele>519.73000000000002</ele>
        <time>2017-05-22T12:23:00Z</time>
      </trkpt>
      <trkpt lat="51.697554029524326" lon="10.552523983642459">
        <ele>520.69000000000005</ele>
        <time>2017-05-22T12:23:01Z</time>
      </trkpt>
      <trkpt lat="51.697584958747029" lon="10.552294990047812">
        <ele>521.64999999999998</ele>
        <time>2017-05-22T12:23:02Z</time>
      </trkpt>
      <trkpt lat="51.697745975106955" lon="10.551727032288909">
        <ele>523.09000000000003</ele>
        <time>2017-05-22T12:23:05Z</time>
      </trkpt>
      <trkpt lat="51.697815963998437" lon="10.551629969850183">
        <ele>523.09000000000003</ele>
        <time>2017-05-22T12:23:06Z</time>
      </trkpt>
      <trkpt lat="51.697901040315628" lon="10.551583031192422">
        <ele>523.58000000000004</ele>
        <time>2017-05-22T12:23:07Z</time>
      </trkpt>
      <trkpt lat="51.697987960651517" lon="10.551578002050519">
        <ele>524.05999999999995</ele>
        <time>2017-05-22T12:23:08Z</time>
      </trkpt>
      <trkpt lat="51.69809902086854" lon="10.551608009263873">
        <ele>524.53999999999996</ele>
        <time>2017-05-22T12:23:09Z</time>
      </trkpt>
      <trkpt lat="51.698197005316615" lon="10.551609015092254">
        <ele>525.5</ele>
        <time>2017-05-22T12:23:10Z</time>
      </trkpt>
      <trkpt lat="51.69831401668489" lon="10.551560986787081">
        <ele>526.46000000000004</ele>
        <time>2017-05-22T12:23:11Z</time>
      </trkpt>
      <trkpt lat="51.698435973376036" lon="10.551453027874231">
        <ele>527.41999999999996</ele>
        <time>2017-05-22T12:23:12Z</time>
      </trkpt>
      <trkpt lat="51.698534963652492" lon="10.551303997635841">
        <ele>527.89999999999998</ele>
        <time>2017-05-22T12:23:13Z</time>
      </trkpt>
      <trkpt lat="51.698632026091218" lon="10.551132000982761">
        <ele>527.89999999999998</ele>
        <time>2017-05-22T12:23:14Z</time>
      </trkpt>
      <trkpt lat="51.698731016367674" lon="10.550933014601469">
        <ele>528.38</ele>
        <time>2017-05-22T12:23:15Z</time>
      </trkpt>
      <trkpt lat="51.698922961950302" lon="10.550486007705331">
        <ele>529.34000000000003</ele>
        <time>2017-05-22T12:23:17Z</time>
      </trkpt>
      <trkpt lat="51.69898297637701" lon="10.55024997331202">
        <ele>529.34000000000003</ele>
        <time>2017-05-22T12:23:18Z</time>
      </trkpt>
      <trkpt lat="51.699014995247126" lon="10.55001201108098">
        <ele>529.34000000000003</ele>
        <time>2017-05-22T12:23:19Z</time>
      </trkpt>
      <trkpt lat="51.699027987197042" lon="10.54977597668767">
        <ele>529.82000000000005</ele>
        <time>2017-05-22T12:23:20Z</time>
      </trkpt>
      <trkpt lat="51.699023963883519" lon="10.549542037770152">
        <ele>531.26999999999998</ele>
        <time>2017-05-22T12:23:21Z</time>
      </trkpt>
      <trkpt lat="51.699029998853803" lon="10.549347996711731">
        <ele>531.75</ele>
        <time>2017-05-22T12:23:22Z</time>
      </trkpt>
      <trkpt lat="51.699090013280511" lon="10.549073992297053">
        <ele>532.71000000000004</ele>
        <time>2017-05-22T12:23:24Z</time>
      </trkpt>
      <trkpt lat="51.699143992736936" lon="10.548993023112416">
        <ele>533.66999999999996</ele>
        <time>2017-05-22T12:23:25Z</time>
      </trkpt>
      <trkpt lat="51.699234014376998" lon="10.548985982313752">
        <ele>534.14999999999998</ele>
        <time>2017-05-22T12:23:26Z</time>
      </trkpt>
      <trkpt lat="51.699318001046777" lon="10.549055971205235">
        <ele>535.59000000000003</ele>
        <time>2017-05-22T12:23:27Z</time>
      </trkpt>
      <trkpt lat="51.699393019080162" lon="10.549178011715412">
        <ele>536.07000000000005</ele>
        <time>2017-05-22T12:23:28Z</time>
      </trkpt>
      <trkpt lat="51.699468037113547" lon="10.549339028075337">
        <ele>537.02999999999997</ele>
        <time>2017-05-22T12:23:29Z</time>
      </trkpt>
      <trkpt lat="51.699534002691507" lon="10.549533991143107">
        <ele>537.99000000000001</ele>
        <time>2017-05-22T12:23:30Z</time>
      </trkpt>
      <trkpt lat="51.699601979926229" lon="10.549771031364799">
        <ele>539.44000000000005</ele>
        <time>2017-05-22T12:23:31Z</time>
      </trkpt>
      <trkpt lat="51.699660988524556" lon="10.550017962232232">
        <ele>540.39999999999998</ele>
        <time>2017-05-22T12:23:32Z</time>
      </trkpt>
      <trkpt lat="51.699715973809361" lon="10.550274029374123">
        <ele>542.32000000000005</ele>
        <time>2017-05-22T12:23:33Z</time>
      </trkpt>
      <trkpt lat="51.699735000729561" lon="10.550531018525362">
        <ele>543.75999999999999</ele>
        <time>2017-05-22T12:23:34Z</time>
      </trkpt>
      <trkpt lat="51.699729971587658" lon="10.550803011283278">
        <ele>544.72000000000003</ele>
        <time>2017-05-22T12:23:35Z</time>
      </trkpt>
      <trkpt lat="51.699708011001348" lon="10.551068969070911">
        <ele>546.16999999999996</ele>
        <time>2017-05-22T12:23:36Z</time>
      </trkpt>
      <trkpt lat="51.69967096298933" lon="10.551349008455873">
        <ele>546.64999999999998</ele>
        <time>2017-05-22T12:23:37Z</time>
      </trkpt>
      <trkpt lat="51.699651014059782" lon="10.551626030355692">
        <ele>547.61000000000001</ele>
        <time>2017-05-22T12:23:38Z</time>
      </trkpt>
      <trkpt lat="51.699650008231401" lon="10.55190397426486">
        <ele>548.09000000000003</ele>
        <time>2017-05-22T12:23:39Z</time>
      </trkpt>
      <trkpt lat="51.699650008231401" lon="10.552192982286215">
        <ele>549.04999999999995</ele>
        <time>2017-05-22T12:23:40Z</time>
      </trkpt>
      <trkpt lat="51.699683032929897" lon="10.55246002972126">
        <ele>550.49000000000001</ele>
        <time>2017-05-22T12:23:41Z</time>
      </trkpt>
      <trkpt lat="51.699750004336238" lon="10.552707966417074">
        <ele>551.45000000000005</ele>
        <time>2017-05-22T12:23:42Z</time>
      </trkpt>
      <trkpt lat="51.699829967692494" lon="10.552928997203708">
        <ele>551.92999999999995</ele>
        <time>2017-05-22T12:23:43Z</time>
      </trkpt>
      <trkpt lat="51.699924012646079" lon="10.553138041868806">
        <ele>552.40999999999997</ele>
        <time>2017-05-22T12:23:44Z</time>
      </trkpt>
      <trkpt lat="51.700025014579296" lon="10.553326969966292">
        <ele>553.38</ele>
        <time>2017-05-22T12:23:45Z</time>
      </trkpt>
      <trkpt lat="51.700129033997655" lon="10.553495027124882">
        <ele>554.82000000000005</ele>
        <time>2017-05-22T12:23:46Z</time>
      </trkpt>
      <trkpt lat="51.700234981253743" lon="10.553652020171285">
        <ele>554.82000000000005</ele>
        <time>2017-05-22T12:23:47Z</time>
      </trkpt>
      <trkpt lat="51.700431033968925" lon="10.553914960473776">
        <ele>556.25999999999999</ele>
        <time>2017-05-22T12:23:49Z</time>
      </trkpt>
      <trkpt lat="51.700543016195297" lon="10.553996013477445">
        <ele>556.74000000000001</ele>
        <time>2017-05-22T12:23:50Z</time>
      </trkpt>
      <trkpt lat="51.700663967058063" lon="10.554052004590631">
        <ele>557.70000000000005</ele>
        <time>2017-05-22T12:23:51Z</time>
      </trkpt>
      <trkpt lat="51.70078500173986" lon="10.554080000147223">
        <ele>558.17999999999995</ele>
        <time>2017-05-22T12:23:52Z</time>
      </trkpt>
      <trkpt lat="51.700904024764895" lon="10.554068014025688">
        <ele>559.13999999999999</ele>
        <time>2017-05-22T12:23:53Z</time>
      </trkpt>
      <trkpt lat="51.701031010597944" lon="10.554031971842051">
        <ele>559.62</ele>
        <time>2017-05-22T12:23:54Z</time>
      </trkpt>
      <trkpt lat="51.701163025572896" lon="10.553972963243723">
        <ele>560.59000000000003</ele>
        <time>2017-05-22T12:23:55Z</time>
      </trkpt>
      <trkpt lat="51.701287999749184" lon="10.553902974352241">
        <ele>560.59000000000003</ele>
        <time>2017-05-22T12:23:56Z</time>
      </trkpt>
      <trkpt lat="51.701932987198234" lon="10.553466025739908">
        <ele>563.95000000000005</ele>
        <time>2017-05-22T12:24:01Z</time>
      </trkpt>
      <trkpt lat="51.702114036306739" lon="10.553402993828058">
        <ele>565.38999999999999</ele>
        <time>2017-05-22T12:24:02Z</time>
      </trkpt>
      <trkpt lat="51.702299024909735" lon="10.553367035463452">
        <ele>566.35000000000002</ele>
        <time>2017-05-22T12:24:03Z</time>
      </trkpt>
      <trkpt lat="51.702475966885686" lon="10.553357983008027">
        <ele>567.32000000000005</ele>
        <time>2017-05-22T12:24:04Z</time>
      </trkpt>
      <trkpt lat="51.702632959932089" lon="10.553364017978311">
        <ele>568.27999999999997</ele>
        <time>2017-05-22T12:24:05Z</time>
      </trkpt>
      <trkpt lat="51.702924985438585" lon="10.55329998023808">
        <ele>569.72000000000003</ele>
        <time>2017-05-22T12:24:07Z</time>
      </trkpt>
      <trkpt lat="51.703048031777143" lon="10.553186992183328">
        <ele>569.72000000000003</ele>
        <time>2017-05-22T12:24:08Z</time>
      </trkpt>
      <trkpt lat="51.703165965154767" lon="10.553022958338261">
        <ele>569.72000000000003</ele>
        <time>2017-05-22T12:24:09Z</time>
      </trkpt>
      <trkpt lat="51.70353502035141" lon="10.552446031942964">
        <ele>570.67999999999995</ele>
        <time>2017-05-22T12:24:12Z</time>
      </trkpt>
      <trkpt lat="51.703682960942388" lon="10.552281998097897">
        <ele>571.63999999999999</ele>
        <time>2017-05-22T12:24:13Z</time>
      </trkpt>
      <trkpt lat="51.705312989652157" lon="10.550777027383447">
        <ele>581.25</ele>
        <time>2017-05-22T12:24:23Z</time>
      </trkpt>
      <trkpt lat="51.706574968993664" lon="10.550194988027215">
        <ele>595.66999999999996</ele>
        <time>2017-05-22T12:24:30Z</time>
      </trkpt>
      <trkpt lat="51.707182992249727" lon="10.549807995557785">
        <ele>600.96000000000004</ele>
        <time>2017-05-22T12:24:34Z</time>
      </trkpt>
      <trkpt lat="51.707326993346214" lon="10.549655025824904">
        <ele>601.91999999999996</ele>
        <time>2017-05-22T12:24:35Z</time>
      </trkpt>
      <trkpt lat="51.707470994442701" lon="10.549479005858302">
        <ele>603.36000000000001</ele>
        <time>2017-05-22T12:24:36Z</time>
      </trkpt>
      <trkpt lat="51.708506997674704" lon="10.547977974638343">
        <ele>612.98000000000002</ele>
        <time>2017-05-22T12:24:43Z</time>
      </trkpt>
      <trkpt lat="51.708656027913094" lon="10.547819975763559">
        <ele>613.94000000000005</ele>
        <time>2017-05-22T12:24:44Z</time>
      </trkpt>
      <trkpt lat="51.70882198959589" lon="10.547716962173581">
        <ele>614.89999999999998</ele>
        <time>2017-05-22T12:24:45Z</time>
      </trkpt>
      <trkpt lat="51.709003960713744" lon="10.547644961625338">
        <ele>616.34000000000003</ele>
        <time>2017-05-22T12:24:46Z</time>
      </trkpt>
      <trkpt lat="51.709187021479011" lon="10.547568015754223">
        <ele>616.82000000000005</ele>
        <time>2017-05-22T12:24:47Z</time>
      </trkpt>
      <trkpt lat="51.709550963714719" lon="10.54736802354455">
        <ele>617.77999999999997</ele>
        <time>2017-05-22T12:24:49Z</time>
      </trkpt>
      <trkpt lat="51.709696976467967" lon="10.54719896055758">
        <ele>617.77999999999997</ele>
        <time>2017-05-22T12:24:50Z</time>
      </trkpt>
      <trkpt lat="51.709817005321383" lon="10.546980025246739">
        <ele>618.75</ele>
        <time>2017-05-22T12:24:51Z</time>
      </trkpt>
      <trkpt lat="51.709913983941078" lon="10.546721024438739">
        <ele>619.23000000000002</ele>
        <time>2017-05-22T12:24:52Z</time>
      </trkpt>
      <trkpt lat="51.710010040551424" lon="10.546434028074145">
        <ele>621.14999999999998</ele>
        <time>2017-05-22T12:24:53Z</time>
      </trkpt>
      <trkpt lat="51.710366019979119" lon="10.545014971867204">
        <ele>627.39999999999998</ele>
        <time>2017-05-22T12:24:58Z</time>
      </trkpt>
      <trkpt lat="51.710438020527363" lon="10.544801987707615">
        <ele>627.88</ele>
        <time>2017-05-22T12:24:59Z</time>
      </trkpt>
      <trkpt lat="51.710527036339045" lon="10.544624039903283">
        <ele>628.84000000000003</ele>
        <time>2017-05-22T12:25:00Z</time>
      </trkpt>
      <trkpt lat="51.71064798720181" lon="10.544485989958048">
        <ele>629.79999999999995</ele>
        <time>2017-05-22T12:25:01Z</time>
      </trkpt>
      <trkpt lat="51.710791988298297" lon="10.544368978589773">
        <ele>630.75999999999999</ele>
        <time>2017-05-22T12:25:02Z</time>
      </trkpt>
      <trkpt lat="51.710938001051545" lon="10.544246016070247">
        <ele>631.72000000000003</ele>
        <time>2017-05-22T12:25:03Z</time>
      </trkpt>
      <trkpt lat="51.711713997647166" lon="10.543540008366108">
        <ele>636.52999999999997</ele>
        <time>2017-05-22T12:25:08Z</time>
      </trkpt>
      <trkpt lat="51.711854981258512" lon="10.543358959257603">
        <ele>637.49000000000001</ele>
        <time>2017-05-22T12:25:09Z</time>
      </trkpt>
      <trkpt lat="51.711964029818773" lon="10.543138012290001">
        <ele>638.92999999999995</ele>
        <time>2017-05-22T12:25:10Z</time>
      </trkpt>
      <trkpt lat="51.712047010660172" lon="10.542869959026575">
        <ele>639.88999999999999</ele>
        <time>2017-05-22T12:25:11Z</time>
      </trkpt>
      <trkpt lat="51.712111970409751" lon="10.542583968490362">
        <ele>640.86000000000001</ele>
        <time>2017-05-22T12:25:12Z</time>
      </trkpt>
      <trkpt lat="51.712608011439443" lon="10.540183978155255">
        <ele>653.35000000000002</ele>
        <time>2017-05-22T12:25:20Z</time>
      </trkpt>
      <trkpt lat="51.712717982009053" lon="10.539941992610693">
        <ele>654.79999999999995</ele>
        <time>2017-05-22T12:25:21Z</time>
      </trkpt>
      <trkpt lat="51.712851002812386" lon="10.539733031764627">
        <ele>656.24000000000001</ele>
        <time>2017-05-22T12:25:22Z</time>
      </trkpt>
      <trkpt lat="51.713001960888505" lon="10.539568997919559">
        <ele>657.20000000000005</ele>
        <time>2017-05-22T12:25:23Z</time>
      </trkpt>
      <trkpt lat="51.713160965591669" lon="10.539430025964975">
        <ele>658.15999999999997</ele>
        <time>2017-05-22T12:25:24Z</time>
      </trkpt>
      <trkpt lat="51.713323993608356" lon="10.539302034303546">
        <ele>659.60000000000002</ele>
        <time>2017-05-22T12:25:25Z</time>
      </trkpt>
      <trkpt lat="51.71498604118824" lon="10.538421012461185">
        <ele>661.51999999999998</ele>
        <time>2017-05-22T12:25:34Z</time>
      </trkpt>
      <trkpt lat="51.715146973729134" lon="10.538297966122627">
        <ele>661.03999999999996</ele>
        <time>2017-05-22T12:25:35Z</time>
      </trkpt>
      <trkpt lat="51.715285023674369" lon="10.538133010268211">
        <ele>660.55999999999995</ele>
        <time>2017-05-22T12:25:36Z</time>
      </trkpt>
      <trkpt lat="51.715390970930457" lon="10.537909967824817">
        <ele>660.08000000000004</ele>
        <time>2017-05-22T12:25:37Z</time>
      </trkpt>
      <trkpt lat="51.715476969256997" lon="10.537635963410139">
        <ele>660.08000000000004</ele>
        <time>2017-05-22T12:25:38Z</time>
      </trkpt>
      <trkpt lat="51.715542012825608" lon="10.537331029772758">
        <ele>659.60000000000002</ele>
        <time>2017-05-22T12:25:39Z</time>
      </trkpt>
      <trkpt lat="51.715594986453652" lon="10.536994999274611">
        <ele>659.60000000000002</ele>
        <time>2017-05-22T12:25:40Z</time>
      </trkpt>
      <trkpt lat="51.715646032243967" lon="10.53664899431169">
        <ele>659.12</ele>
        <time>2017-05-22T12:25:41Z</time>
      </trkpt>
      <trkpt lat="51.715958006680012" lon="10.534092010930181">
        <ele>654.79999999999995</ele>
        <time>2017-05-22T12:25:49Z</time>
      </trkpt>
      <trkpt lat="51.716008968651295" lon="10.532118994742632">
        <ele>650.95000000000005</ele>
        <time>2017-05-22T12:25:57Z</time>
      </trkpt>
      <trkpt lat="51.71604098752141" lon="10.531703000888228">
        <ele>649.99000000000001</ele>
        <time>2017-05-22T12:25:59Z</time>
      </trkpt>
      <trkpt lat="51.716076023876667" lon="10.531484987586737">
        <ele>649.50999999999999</ele>
        <time>2017-05-22T12:26:00Z</time>
      </trkpt>
      <trkpt lat="51.716127991676331" lon="10.531258005648851">
        <ele>649.02999999999997</ele>
        <time>2017-05-22T12:26:01Z</time>
      </trkpt>
      <trkpt lat="51.716194963082671" lon="10.531025994569063">
        <ele>648.54999999999995</ele>
        <time>2017-05-22T12:26:02Z</time>
      </trkpt>
      <trkpt lat="51.716275010257959" lon="10.530791971832514">
        <ele>648.07000000000005</ele>
        <time>2017-05-22T12:26:03Z</time>
      </trkpt>
      <trkpt lat="51.716368971392512" lon="10.530561972409487">
        <ele>647.59000000000003</ele>
        <time>2017-05-22T12:26:04Z</time>
      </trkpt>
      <trkpt lat="51.716477014124393" lon="10.530334990471601">
        <ele>647.10000000000002</ele>
        <time>2017-05-22T12:26:05Z</time>
      </trkpt>
      <trkpt lat="51.716894013807178" lon="10.52932396531105">
        <ele>644.22000000000003</ele>
        <time>2017-05-22T12:26:09Z</time>
      </trkpt>
      <trkpt lat="51.716961991041899" lon="10.529040992259979">
        <ele>643.25999999999999</ele>
        <time>2017-05-22T12:26:10Z</time>
      </trkpt>
      <trkpt lat="51.716998033225536" lon="10.528755001723766">
        <ele>642.29999999999995</ele>
        <time>2017-05-22T12:26:11Z</time>
      </trkpt>
      <trkpt lat="51.71700800769031" lon="10.528472028672695">
        <ele>641.82000000000005</ele>
        <time>2017-05-22T12:26:12Z</time>
      </trkpt>
      <trkpt lat="51.71698504127562" lon="10.528200035914779">
        <ele>640.86000000000001</ele>
        <time>2017-05-22T12:26:13Z</time>
      </trkpt>
      <trkpt lat="51.71694103628397" lon="10.527945980429649">
        <ele>640.38</ele>
        <time>2017-05-22T12:26:14Z</time>
      </trkpt>
      <trkpt lat="51.716883033514023" lon="10.527721010148525">
        <ele>639.88999999999999</ele>
        <time>2017-05-22T12:26:15Z</time>
      </trkpt>
      <trkpt lat="51.71681497246027" lon="10.527523029595613">
        <ele>639.88999999999999</ele>
        <time>2017-05-22T12:26:16Z</time>
      </trkpt>
      <trkpt lat="51.716741966083646" lon="10.527349021285772">
        <ele>639.40999999999997</ele>
        <time>2017-05-22T12:26:17Z</time>
      </trkpt>
      <trkpt lat="51.716667031869292" lon="10.527194961905479">
        <ele>638.92999999999995</ele>
        <time>2017-05-22T12:26:18Z</time>
      </trkpt>
      <trkpt lat="51.715777041390538" lon="10.525522017851472">
        <ele>636.52999999999997</ele>
        <time>2017-05-22T12:26:31Z</time>
      </trkpt>
      <trkpt lat="51.715241018682718" lon="10.524632027372718">
        <ele>633.16999999999996</ele>
        <time>2017-05-22T12:26:39Z</time>
      </trkpt>
      <trkpt lat="51.715204976499081" lon="10.524502024054527">
        <ele>632.67999999999995</ele>
        <time>2017-05-22T12:26:40Z</time>
      </trkpt>
      <trkpt lat="51.715187961235642" lon="10.52435701712966">
        <ele>632.67999999999995</ele>
        <time>2017-05-22T12:26:41Z</time>
      </trkpt>
      <trkpt lat="51.715178992599249" lon="10.524213016033173">
        <ele>633.16999999999996</ele>
        <time>2017-05-22T12:26:42Z</time>
      </trkpt>
      <trkpt lat="51.715179998427629" lon="10.524073038250208">
        <ele>633.64999999999998</ele>
        <time>2017-05-22T12:26:43Z</time>
      </trkpt>
      <trkpt lat="51.715184021741152" lon="10.523932976648211">
        <ele>634.13</ele>
        <time>2017-05-22T12:26:44Z</time>
      </trkpt>
      <trkpt lat="51.715150997042656" lon="10.523460991680622">
        <ele>633.16999999999996</ele>
        <time>2017-05-22T12:26:51Z</time>
      </trkpt>
      <trkpt lat="51.715089976787567" lon="10.523432996124029">
        <ele>634.13</ele>
        <time>2017-05-22T12:26:55Z</time>
      </trkpt>
      <trkpt lat="51.71472997404635" lon="10.523469960317016">
        <ele>631.24000000000001</ele>
        <time>2017-05-22T12:27:00Z</time>
      </trkpt>
      <trkpt lat="51.714666020125151" lon="10.5234569683671">
        <ele>631.24000000000001</ele>
        <time>2017-05-22T12:27:01Z</time>
      </trkpt>
      <trkpt lat="51.714554037898779" lon="10.523475995287299">
        <ele>630.75999999999999</ele>
        <time>2017-05-22T12:27:03Z</time>
      </trkpt>
      <trkpt lat="51.714513972401619" lon="10.523555036634207">
        <ele>630.75999999999999</ele>
        <time>2017-05-22T12:27:04Z</time>
      </trkpt>
      <trkpt lat="51.714477008208632" lon="10.52364899776876">
        <ele>630.75999999999999</ele>
        <time>2017-05-22T12:27:05Z</time>
      </trkpt>
      <trkpt lat="51.714388998225331" lon="10.52382099442184">
        <ele>629.79999999999995</ele>
        <time>2017-05-22T12:27:07Z</time>
      </trkpt>
      <trkpt lat="51.714333007112145" lon="10.523860976099968">
        <ele>628.36000000000001</ele>
        <time>2017-05-22T12:27:08Z</time>
      </trkpt>
      <trkpt lat="51.714267963543534" lon="10.523857036605477">
        <ele>628.36000000000001</ele>
        <time>2017-05-22T12:27:09Z</time>
      </trkpt>
      <trkpt lat="51.714197974652052" lon="10.523824011906981">
        <ele>627.88</ele>
        <time>2017-05-22T12:27:10Z</time>
      </trkpt>
      <trkpt lat="51.714129997417331" lon="10.523785036057234">
        <ele>627.39999999999998</ele>
        <time>2017-05-22T12:27:11Z</time>
      </trkpt>
      <trkpt lat="51.713083013892174" lon="10.5231530405581">
        <ele>624.02999999999997</ele>
        <time>2017-05-22T12:27:24Z</time>
      </trkpt>
      <trkpt lat="51.712653022259474" lon="10.522806029766798">
        <ele>621.63</ele>
        <time>2017-05-22T12:27:30Z</time>
      </trkpt>
      <trkpt lat="51.711756996810436" lon="10.521677993237972">
        <ele>619.23000000000002</ele>
        <time>2017-05-22T12:27:43Z</time>
      </trkpt>
      <trkpt lat="51.711577959358692" lon="10.521364007145166">
        <ele>618.75</ele>
        <time>2017-05-22T12:27:46Z</time>
      </trkpt>
      <trkpt lat="51.710913022980094" lon="10.519671030342579">
        <ele>618.75</ele>
        <time>2017-05-22T12:28:01Z</time>
      </trkpt>
      <trkpt lat="51.710614962503314" lon="10.518980026245117">
        <ele>613.94000000000005</ele>
        <time>2017-05-22T12:28:07Z</time>
      </trkpt>
      <trkpt lat="51.710555031895638" lon="10.518888998776674">
        <ele>612.98000000000002</ele>
        <time>2017-05-22T12:28:08Z</time>
      </trkpt>
      <trkpt lat="51.710484959185123" lon="10.518805012106895">
        <ele>612.5</ele>
        <time>2017-05-22T12:28:09Z</time>
      </trkpt>
      <trkpt lat="51.709622964262962" lon="10.518109984695911">
        <ele>606.73000000000002</ele>
        <time>2017-05-22T12:28:21Z</time>
      </trkpt>
      <trkpt lat="51.709377039223909" lon="10.517988028004766">
        <ele>604.80999999999995</ele>
        <time>2017-05-22T12:28:24Z</time>
      </trkpt>
      <trkpt lat="51.709075039252639" lon="10.517920972779393">
        <ele>602.88</ele>
        <time>2017-05-22T12:28:28Z</time>
      </trkpt>
      <trkpt lat="51.709030028432608" lon="10.517907980829477">
        <ele>601.91999999999996</ele>
        <time>2017-05-22T12:28:29Z</time>
      </trkpt>
      <trkpt lat="51.709002032876015" lon="10.517855007201433">
        <ele>601.91999999999996</ele>
        <time>2017-05-22T12:28:30Z</time>
      </trkpt>
      <trkpt lat="51.708990968763828" lon="10.517779989168048">
        <ele>602.39999999999998</ele>
        <time>2017-05-22T12:28:31Z</time>
      </trkpt>
      <trkpt lat="51.708994992077351" lon="10.517699019983411">
        <ele>601.91999999999996</ele>
        <time>2017-05-22T12:28:32Z</time>
      </trkpt>
      <trkpt lat="51.709008989855647" lon="10.517608998343349">
        <ele>601.91999999999996</ele>
        <time>2017-05-22T12:28:33Z</time>
      </trkpt>
      <trkpt lat="51.709026005119085" lon="10.517507996410131">
        <ele>601.44000000000005</ele>
        <time>2017-05-22T12:28:34Z</time>
      </trkpt>
      <trkpt lat="51.709063975140452" lon="10.517227035015821">
        <ele>596.14999999999998</ele>
        <time>2017-05-22T12:28:36Z</time>
      </trkpt>
      <trkpt lat="51.709067998453975" lon="10.51707599312067">
        <ele>595.19000000000005</ele>
        <time>2017-05-22T12:28:37Z</time>
      </trkpt>
      <trkpt lat="51.709061041474342" lon="10.516914976760745">
        <ele>594.71000000000004</ele>
        <time>2017-05-22T12:28:38Z</time>
      </trkpt>
      <trkpt lat="51.708982000127435" lon="10.515371030196548">
        <ele>585.10000000000002</ele>
        <time>2017-05-22T12:28:46Z</time>
      </trkpt>
      <trkpt lat="51.709064980968833" lon="10.513287037611008">
        <ele>565.38999999999999</ele>
        <time>2017-05-22T12:28:59Z</time>
      </trkpt>
      <trkpt lat="51.709032040089369" lon="10.51271497271955">
        <ele>562.50999999999999</ele>
        <time>2017-05-22T12:29:03Z</time>
      </trkpt>
      <trkpt lat="51.709042014554143" lon="10.512592010200024">
        <ele>561.54999999999995</ele>
        <time>2017-05-22T12:29:04Z</time>
      </trkpt>
      <trkpt lat="51.709065986797214" lon="10.512463012710214">
        <ele>561.54999999999995</ele>
        <time>2017-05-22T12:29:05Z</time>
      </trkpt>
      <trkpt lat="51.709102028980851" lon="10.512337032705545">
        <ele>561.07000000000005</ele>
        <time>2017-05-22T12:29:06Z</time>
      </trkpt>
      <trkpt lat="51.70914301648736" lon="10.512213986366987">
        <ele>560.59000000000003</ele>
        <time>2017-05-22T12:29:07Z</time>
      </trkpt>
      <trkpt lat="51.709189033135772" lon="10.512105021625757">
        <ele>560.11000000000001</ele>
        <time>2017-05-22T12:29:08Z</time>
      </trkpt>
      <trkpt lat="51.709287017583847" lon="10.512071996927261">
        <ele>558.65999999999997</ele>
        <time>2017-05-22T12:29:09Z</time>
      </trkpt>
      <trkpt lat="51.709371004253626" lon="10.512059004977345">
        <ele>557.22000000000003</ele>
        <time>2017-05-22T12:29:10Z</time>
      </trkpt>
      <trkpt lat="51.709457002580166" lon="10.51204601302743">
        <ele>556.25999999999999</ele>
        <time>2017-05-22T12:29:11Z</time>
      </trkpt>
      <trkpt lat="51.710439026355743" lon="10.511887008324265">
        <ele>542.79999999999995</ele>
        <time>2017-05-22T12:29:22Z</time>
      </trkpt>
      <trkpt lat="51.710571963340044" lon="10.511802015826106">
        <ele>540.39999999999998</ele>
        <time>2017-05-22T12:29:27Z</time>
      </trkpt>
      <trkpt lat="51.71060498803854" lon="10.511729009449482">
        <ele>539.44000000000005</ele>
        <time>2017-05-22T12:29:28Z</time>
      </trkpt>
      <trkpt lat="51.710974965244532" lon="10.510723013430834">
        <ele>531.26999999999998</ele>
        <time>2017-05-22T12:29:36Z</time>
      </trkpt>
      <trkpt lat="51.711643002927303" lon="10.50869501195848">
        <ele>515.88</ele>
        <time>2017-05-22T12:29:48Z</time>
      </trkpt>
      <trkpt lat="51.712003005668521" lon="10.506146997213364">
        <ele>502.43000000000001</ele>
        <time>2017-05-22T12:29:59Z</time>
      </trkpt>
      <trkpt lat="51.711931005120277" lon="10.503591019660234">
        <ele>490.88999999999999</ele>
        <time>2017-05-22T12:30:09Z</time>
      </trkpt>
      <trkpt lat="51.712098978459835" lon="10.501898964866996">
        <ele>486.07999999999998</ele>
        <time>2017-05-22T12:30:15Z</time>
      </trkpt>
      <trkpt lat="51.712078023701906" lon="10.501620015129447">
        <ele>485.12</ele>
        <time>2017-05-22T12:30:16Z</time>
      </trkpt>
      <trkpt lat="51.712039969861507" lon="10.501351961866021">
        <ele>484.16000000000003</ele>
        <time>2017-05-22T12:30:17Z</time>
      </trkpt>
      <trkpt lat="51.711985990405083" lon="10.501094972714782">
        <ele>482.72000000000003</ele>
        <time>2017-05-22T12:30:18Z</time>
      </trkpt>
      <trkpt lat="51.711925975978374" lon="10.500842006877065">
        <ele>481.75999999999999</ele>
        <time>2017-05-22T12:30:19Z</time>
      </trkpt>
      <trkpt lat="51.71146497130394" lon="10.499436026439071">
        <ele>478.87</ele>
        <time>2017-05-22T12:30:25Z</time>
      </trkpt>
      <trkpt lat="51.711353994905949" lon="10.499226981773973">
        <ele>478.38999999999999</ele>
        <time>2017-05-22T12:30:26Z</time>
      </trkpt>
      <trkpt lat="51.711232960224152" lon="10.499022966250777">
        <ele>477.91000000000003</ele>
        <time>2017-05-22T12:30:27Z</time>
      </trkpt>
      <trkpt lat="51.710280021652579" lon="10.497782025486231">
        <ele>473.11000000000001</ele>
        <time>2017-05-22T12:30:34Z</time>
      </trkpt>
      <trkpt lat="51.710101990029216" lon="10.497709019109607">
        <ele>472.63</ele>
        <time>2017-05-22T12:30:35Z</time>
      </trkpt>
      <trkpt lat="51.709912978112698" lon="10.497678006067872">
        <ele>472.63</ele>
        <time>2017-05-22T12:30:36Z</time>
      </trkpt>
      <trkpt lat="51.70972203835845" lon="10.497682029381394">
        <ele>472.63</ele>
        <time>2017-05-22T12:30:37Z</time>
      </trkpt>
      <trkpt lat="51.709535038098693" lon="10.4977370146662">
        <ele>472.63</ele>
        <time>2017-05-22T12:30:38Z</time>
      </trkpt>
      <trkpt lat="51.709342002868652" lon="10.497818989679217">
        <ele>472.13999999999999</ele>
        <time>2017-05-22T12:30:39Z</time>
      </trkpt>
      <trkpt lat="51.709152990952134" lon="10.497928038239479">
        <ele>472.13999999999999</ele>
        <time>2017-05-22T12:30:40Z</time>
      </trkpt>
      <trkpt lat="51.708960961550474" lon="10.498048989102244">
        <ele>472.13999999999999</ele>
        <time>2017-05-22T12:30:41Z</time>
      </trkpt>
      <trkpt lat="51.707349959760904" lon="10.499300993978977">
        <ele>467.33999999999997</ele>
        <time>2017-05-22T12:30:49Z</time>
      </trkpt>
      <trkpt lat="51.706385035067797" lon="10.500726001337171">
        <ele>463.00999999999999</ele>
        <time>2017-05-22T12:30:55Z</time>
      </trkpt>
      <trkpt lat="51.705379961058497" lon="10.502483015879989">
        <ele>459.17000000000002</ele>
        <time>2017-05-22T12:31:03Z</time>
      </trkpt>
      <trkpt lat="51.705003026872873" lon="10.502841006964445">
        <ele>458.69</ele>
        <time>2017-05-22T12:31:06Z</time>
      </trkpt>
      <trkpt lat="51.70486799441278" lon="10.502859028056264">
        <ele>458.20999999999998</ele>
        <time>2017-05-22T12:31:07Z</time>
      </trkpt>
      <trkpt lat="51.704726004973054" lon="10.502867996692657">
        <ele>458.20999999999998</ele>
        <time>2017-05-22T12:31:08Z</time>
      </trkpt>
      <trkpt lat="51.704591978341341" lon="10.502836983650923">
        <ele>458.20999999999998</ele>
        <time>2017-05-22T12:31:09Z</time>
      </trkpt>
      <trkpt lat="51.704473961144686" lon="10.502826003357768">
        <ele>459.64999999999998</ele>
        <time>2017-05-22T12:31:10Z</time>
      </trkpt>
      <trkpt lat="51.70439500361681" lon="10.502760037779808">
        <ele>459.64999999999998</ele>
        <time>2017-05-22T12:31:11Z</time>
      </trkpt>
      <trkpt lat="51.704335995018482" lon="10.502641014754772">
        <ele>459.17000000000002</ele>
        <time>2017-05-22T12:31:12Z</time>
      </trkpt>
      <trkpt lat="51.704280003905296" lon="10.502493996173143">
        <ele>458.20999999999998</ele>
        <time>2017-05-22T12:31:13Z</time>
      </trkpt>
      <trkpt lat="51.704022008925676" lon="10.502196019515395">
        <ele>458.69</ele>
        <time>2017-05-22T12:31:16Z</time>
      </trkpt>
      <trkpt lat="51.70377398841083" lon="10.50210096873343">
        <ele>459.17000000000002</ele>
        <time>2017-05-22T12:31:18Z</time>
      </trkpt>
      <trkpt lat="51.703645996749401" lon="10.501983035355806">
        <ele>459.17000000000002</ele>
        <time>2017-05-22T12:31:19Z</time>
      </trkpt>
      <trkpt lat="51.703518005087972" lon="10.501837022602558">
        <ele>459.64999999999998</ele>
        <time>2017-05-22T12:31:20Z</time>
      </trkpt>
      <trkpt lat="51.703068986535072" lon="10.501386998221278">
        <ele>460.13</ele>
        <time>2017-05-22T12:31:23Z</time>
      </trkpt>
      <trkpt lat="51.702879974618554" lon="10.501307034865022">
        <ele>460.13</ele>
        <time>2017-05-22T12:31:24Z</time>
      </trkpt>
      <trkpt lat="51.702706972137094" lon="10.501213995739818">
        <ele>460.61000000000001</ele>
        <time>2017-05-22T12:31:25Z</time>
      </trkpt>
      <trkpt lat="51.702542016282678" lon="10.501137971878052">
        <ele>461.08999999999997</ele>
        <time>2017-05-22T12:31:26Z</time>
      </trkpt>
      <trkpt lat="51.702377982437611" lon="10.501080974936485">
        <ele>462.05000000000001</ele>
        <time>2017-05-22T12:31:27Z</time>
      </trkpt>
      <trkpt lat="51.702238004654646" lon="10.501006040722132">
        <ele>462.05000000000001</ele>
        <time>2017-05-22T12:31:28Z</time>
      </trkpt>
      <trkpt lat="51.702138008549809" lon="10.500915013253689">
        <ele>462.05000000000001</ele>
        <time>2017-05-22T12:31:29Z</time>
      </trkpt>
      <trkpt lat="51.702077994123101" lon="10.50081099383533">
        <ele>462.52999999999997</ele>
        <time>2017-05-22T12:31:30Z</time>
      </trkpt>
      <trkpt lat="51.702085034921765" lon="10.500687025487423">
        <ele>462.52999999999997</ele>
        <time>2017-05-22T12:31:31Z</time>
      </trkpt>
      <trkpt lat="51.702113030478358" lon="10.500558027997613">
        <ele>463.49000000000001</ele>
        <time>2017-05-22T12:31:32Z</time>
      </trkpt>
      <trkpt lat="51.702148988842964" lon="10.500425007194281">
        <ele>463.97000000000003</ele>
        <time>2017-05-22T12:31:33Z</time>
      </trkpt>
      <trkpt lat="51.702275974676013" lon="10.500124013051391">
        <ele>464.44999999999999</ele>
        <time>2017-05-22T12:31:35Z</time>
      </trkpt>
      <trkpt lat="51.702702026814222" lon="10.49926302395761">
        <ele>468.30000000000001</ele>
        <time>2017-05-22T12:31:40Z</time>
      </trkpt>
      <trkpt lat="51.702737985178828" lon="10.499122962355614">
        <ele>468.77999999999997</ele>
        <time>2017-05-22T12:31:41Z</time>
      </trkpt>
      <trkpt lat="51.70271803624928" lon="10.498972004279494">
        <ele>468.77999999999997</ele>
        <time>2017-05-22T12:31:42Z</time>
      </trkpt>
      <trkpt lat="51.702684005722404" lon="10.498842000961304">
        <ele>469.74000000000001</ele>
        <time>2017-05-22T12:31:43Z</time>
      </trkpt>
      <trkpt lat="51.702609993517399" lon="10.49874703399837">
        <ele>469.74000000000001</ele>
        <time>2017-05-22T12:31:44Z</time>
      </trkpt>
      <trkpt lat="51.702499017119408" lon="10.498720966279507">
        <ele>468.77999999999997</ele>
        <time>2017-05-22T12:31:45Z</time>
      </trkpt>
      <trkpt lat="51.702369013801217" lon="10.498719038441777">
        <ele>468.77999999999997</ele>
        <time>2017-05-22T12:31:46Z</time>
      </trkpt>
      <trkpt lat="51.702232975512743" lon="10.49874996766448">
        <ele>469.25999999999999</ele>
        <time>2017-05-22T12:31:47Z</time>
      </trkpt>
      <trkpt lat="51.702094003558159" lon="10.498819034546614">
        <ele>469.74000000000001</ele>
        <time>2017-05-22T12:31:48Z</time>
      </trkpt>
      <trkpt lat="51.701962994411588" lon="10.498922970145941">
        <ele>470.22000000000003</ele>
        <time>2017-05-22T12:31:49Z</time>
      </trkpt>
      <trkpt lat="51.701840031892061" lon="10.499038975685835">
        <ele>470.69999999999999</ele>
        <time>2017-05-22T12:31:50Z</time>
      </trkpt>
      <trkpt lat="51.701627969741821" lon="10.499189011752605">
        <ele>471.66000000000003</ele>
        <time>2017-05-22T12:31:52Z</time>
      </trkpt>
      <trkpt lat="51.701540965586901" lon="10.499160010367632">
        <ele>472.13999999999999</ele>
        <time>2017-05-22T12:31:53Z</time>
      </trkpt>
      <trkpt lat="51.701482040807605" lon="10.49911399371922">
        <ele>472.63</ele>
        <time>2017-05-22T12:31:54Z</time>
      </trkpt>
      <trkpt lat="51.701456978917122" lon="10.499018020927906">
        <ele>473.58999999999997</ele>
        <time>2017-05-22T12:31:55Z</time>
      </trkpt>
      <trkpt lat="51.701443986967206" lon="10.498882988467813">
        <ele>474.06999999999999</ele>
        <time>2017-05-22T12:31:56Z</time>
      </trkpt>
      <trkpt lat="51.701455973088741" lon="10.498731024563313">
        <ele>475.50999999999999</ele>
        <time>2017-05-22T12:31:57Z</time>
      </trkpt>
      <trkpt lat="51.701461002230644" lon="10.49855500459671">
        <ele>476.94999999999999</ele>
        <time>2017-05-22T12:31:58Z</time>
      </trkpt>
      <trkpt lat="51.701691001653671" lon="10.496910978108644">
        <ele>484.16000000000003</ele>
        <time>2017-05-22T12:32:05Z</time>
      </trkpt>
      <trkpt lat="51.701962994411588" lon="10.495183970779181">
        <ele>488.49000000000001</ele>
        <time>2017-05-22T12:32:11Z</time>
      </trkpt>
      <trkpt lat="51.701865009963512" lon="10.493166027590632">
        <ele>494.74000000000001</ele>
        <time>2017-05-22T12:32:17Z</time>
      </trkpt>
      <trkpt lat="51.701683038845658" lon="10.491602970287204">
        <ele>501.94999999999999</ele>
        <time>2017-05-22T12:32:22Z</time>
      </trkpt>
      <trkpt lat="51.701498972252011" lon="10.490781040862203">
        <ele>503.87</ele>
        <time>2017-05-22T12:32:26Z</time>
      </trkpt>
      <trkpt lat="51.701424038037658" lon="10.490607032552361">
        <ele>503.38999999999999</ele>
        <time>2017-05-22T12:32:27Z</time>
      </trkpt>
      <trkpt lat="51.701310966163874" lon="10.490447022020817">
        <ele>503.38999999999999</ele>
        <time>2017-05-22T12:32:28Z</time>
      </trkpt>
      <trkpt lat="51.701183980330825" lon="10.490292040631175">
        <ele>502.91000000000003</ele>
        <time>2017-05-22T12:32:29Z</time>
      </trkpt>
      <trkpt lat="51.70104400254786" lon="10.490137981250882">
        <ele>502.91000000000003</ele>
        <time>2017-05-22T12:32:30Z</time>
      </trkpt>
      <trkpt lat="51.700772009789944" lon="10.48978803679347">
        <ele>502.43000000000001</ele>
        <time>2017-05-22T12:32:32Z</time>
      </trkpt>
      <trkpt lat="51.700652986764908" lon="10.489577986299992">
        <ele>501.94999999999999</ele>
        <time>2017-05-22T12:32:33Z</time>
      </trkpt>
      <trkpt lat="51.700251996517181" lon="10.488711968064308">
        <ele>499.54000000000002</ele>
        <time>2017-05-22T12:32:37Z</time>
      </trkpt>
      <trkpt lat="51.70020597986877" lon="10.488490015268326">
        <ele>498.57999999999998</ele>
        <time>2017-05-22T12:32:38Z</time>
      </trkpt>
      <trkpt lat="51.700190976262093" lon="10.488256998360157">
        <ele>498.57999999999998</ele>
        <time>2017-05-22T12:32:39Z</time>
      </trkpt>
      <trkpt lat="51.700202040374279" lon="10.488030016422272">
        <ele>497.62</ele>
        <time>2017-05-22T12:32:40Z</time>
      </trkpt>
      <trkpt lat="51.700212014839053" lon="10.4877919703722">
        <ele>497.62</ele>
        <time>2017-05-22T12:32:41Z</time>
      </trkpt>
      <trkpt lat="51.700213020667434" lon="10.487545039504766">
        <ele>497.13999999999999</ele>
        <time>2017-05-22T12:32:42Z</time>
      </trkpt>
      <trkpt lat="51.700201034545898" lon="10.487292995676398">
        <ele>496.66000000000003</ele>
        <time>2017-05-22T12:32:43Z</time>
      </trkpt>
      <trkpt lat="51.700178990140557" lon="10.487039024010301">
        <ele>495.69999999999999</ele>
        <time>2017-05-22T12:32:44Z</time>
      </trkpt>
      <trkpt lat="51.700145965442061" lon="10.486533008515835">
        <ele>494.74000000000001</ele>
        <time>2017-05-22T12:32:46Z</time>
      </trkpt>
      <trkpt lat="51.700157029554248" lon="10.486298985779285">
        <ele>494.25999999999999</ele>
        <time>2017-05-22T12:32:47Z</time>
      </trkpt>
      <trkpt lat="51.700187036767602" lon="10.486069992184639">
        <ele>492.32999999999998</ele>
        <time>2017-05-22T12:32:48Z</time>
      </trkpt>
      <trkpt lat="51.700218971818686" lon="10.485852984711528">
        <ele>491.85000000000002</ele>
        <time>2017-05-22T12:32:49Z</time>
      </trkpt>
      <trkpt lat="51.70022701844573" lon="10.485647041350603">
        <ele>489.93000000000001</ele>
        <time>2017-05-22T12:32:50Z</time>
      </trkpt>
      <trkpt lat="51.700207991525531" lon="10.485433973371983">
        <ele>489.44999999999999</ele>
        <time>2017-05-22T12:32:51Z</time>
      </trkpt>
      <trkpt lat="51.700173960998654" lon="10.485224006697536">
        <ele>488.97000000000003</ele>
        <time>2017-05-22T12:32:52Z</time>
      </trkpt>
      <trkpt lat="51.700116964057088" lon="10.485015967860818">
        <ele>488.00999999999999</ele>
        <time>2017-05-22T12:32:53Z</time>
      </trkpt>
      <trkpt lat="51.700047980993986" lon="10.484808012843132">
        <ele>486.07999999999998</ele>
        <time>2017-05-22T12:32:54Z</time>
      </trkpt>
      <trkpt lat="51.699970029294491" lon="10.484595028683543">
        <ele>486.56</ele>
        <time>2017-05-22T12:32:55Z</time>
      </trkpt>
      <trkpt lat="51.699888976290822" lon="10.48439403064549">
        <ele>486.07999999999998</ele>
        <time>2017-05-22T12:32:56Z</time>
      </trkpt>
      <trkpt lat="51.699798032641411" lon="10.484213987365365">
        <ele>485.60000000000002</ele>
        <time>2017-05-22T12:32:57Z</time>
      </trkpt>
      <trkpt lat="51.699704993516207" lon="10.484067974612117">
        <ele>484.63999999999999</ele>
        <time>2017-05-22T12:32:58Z</time>
      </trkpt>
      <trkpt lat="51.699613966047764" lon="10.483964961022139">
        <ele>483.68000000000001</ele>
        <time>2017-05-22T12:32:59Z</time>
      </trkpt>
      <trkpt lat="51.699531991034746" lon="10.483907964080572">
        <ele>483.68000000000001</ele>
        <time>2017-05-22T12:33:00Z</time>
      </trkpt>
      <trkpt lat="51.699450016021729" lon="10.483894972130656">
        <ele>484.16000000000003</ele>
        <time>2017-05-22T12:33:01Z</time>
      </trkpt>
      <trkpt lat="51.69936896301806" lon="10.483925985172391">
        <ele>483.68000000000001</ele>
        <time>2017-05-22T12:33:02Z</time>
      </trkpt>
      <trkpt lat="51.69928103685379" lon="10.483994968235493">
        <ele>483.68000000000001</ele>
        <time>2017-05-22T12:33:03Z</time>
      </trkpt>
      <trkpt lat="51.699184980243444" lon="10.484079960733652">
        <ele>483.19999999999999</ele>
        <time>2017-05-22T12:33:04Z</time>
      </trkpt>
      <trkpt lat="51.699076015502214" lon="10.484157996252179">
        <ele>483.19999999999999</ele>
        <time>2017-05-22T12:33:05Z</time>
      </trkpt>
      <trkpt lat="51.698976019397378" lon="10.484190015122294">
        <ele>482.72000000000003</ele>
        <time>2017-05-22T12:33:06Z</time>
      </trkpt>
      <trkpt lat="51.698898989707232" lon="10.48413896933198">
        <ele>481.75999999999999</ele>
        <time>2017-05-22T12:33:07Z</time>
      </trkpt>
      <trkpt lat="51.698854984715581" lon="10.484042996540666">
        <ele>481.27999999999997</ele>
        <time>2017-05-22T12:33:08Z</time>
      </trkpt>
      <trkpt lat="51.698820032179356" lon="10.483907964080572">
        <ele>480.80000000000001</ele>
        <time>2017-05-22T12:33:09Z</time>
      </trkpt>
      <trkpt lat="51.698784995824099" lon="10.483746025711298">
        <ele>480.31999999999999</ele>
        <time>2017-05-22T12:33:10Z</time>
      </trkpt>
      <trkpt lat="51.698558013886213" lon="10.482989978045225">
        <ele>477.43000000000001</ele>
        <time>2017-05-22T12:33:14Z</time>
      </trkpt>
      <trkpt lat="51.698471009731293" lon="10.482861986383796">
        <ele>476.94999999999999</ele>
        <time>2017-05-22T12:33:15Z</time>
      </trkpt>
      <trkpt lat="51.698359027504921" lon="10.48278302885592">
        <ele>476.47000000000003</ele>
        <time>2017-05-22T12:33:16Z</time>
      </trkpt>
      <trkpt lat="51.69775896705687" lon="10.482397964224219">
        <ele>475.50999999999999</ele>
        <time>2017-05-22T12:33:21Z</time>
      </trkpt>
      <trkpt lat="51.69769300147891" lon="10.482281958684325">
        <ele>475.02999999999997</ele>
        <time>2017-05-22T12:33:22Z</time>
      </trkpt>
      <trkpt lat="51.69767196290195" lon="10.482163019478321">
        <ele>474.06999999999999</ele>
        <time>2017-05-22T12:33:23Z</time>
      </trkpt>
      <trkpt lat="51.697689983993769" lon="10.482031004503369">
        <ele>474.06999999999999</ele>
        <time>2017-05-22T12:33:24Z</time>
      </trkpt>
      <trkpt lat="51.697728037834167" lon="10.481888009235263">
        <ele>473.58999999999997</ele>
        <time>2017-05-22T12:33:25Z</time>
      </trkpt>
      <trkpt lat="51.697784028947353" lon="10.481740990653634">
        <ele>472.63</ele>
        <time>2017-05-22T12:33:26Z</time>
      </trkpt>
      <trkpt lat="51.697856029495597" lon="10.481569999828935">
        <ele>471.66000000000003</ele>
        <time>2017-05-22T12:33:27Z</time>
      </trkpt>
      <trkpt lat="51.698027020320296" lon="10.48119499348104">
        <ele>469.74000000000001</ele>
        <time>2017-05-22T12:33:29Z</time>
      </trkpt>
      <trkpt lat="51.69814202003181" lon="10.481001958250999">
        <ele>469.25999999999999</ele>
        <time>2017-05-22T12:33:30Z</time>
      </trkpt>
      <trkpt lat="51.698261965066195" lon="10.480842031538486">
        <ele>468.77999999999997</ele>
        <time>2017-05-22T12:33:31Z</time>
      </trkpt>
      <trkpt lat="51.698392974212766" lon="10.480712028220296">
        <ele>467.81999999999999</ele>
        <time>2017-05-22T12:33:32Z</time>
      </trkpt>
      <trkpt lat="51.698505962267518" lon="10.480594011023641">
        <ele>464.44999999999999</ele>
        <time>2017-05-22T12:33:33Z</time>
      </trkpt>
      <trkpt lat="51.698612999171019" lon="10.480481022968888">
        <ele>463.00999999999999</ele>
        <time>2017-05-22T12:33:34Z</time>
      </trkpt>
      <trkpt lat="51.698690028861165" lon="10.480360994115472">
        <ele>461.56999999999999</ele>
        <time>2017-05-22T12:33:35Z</time>
      </trkpt>
      <trkpt lat="51.698734033852816" lon="10.480219004675746">
        <ele>460.61000000000001</ele>
        <time>2017-05-22T12:33:36Z</time>
      </trkpt>
      <trkpt lat="51.698746019974351" lon="10.480052959173918">
        <ele>459.17000000000002</ele>
        <time>2017-05-22T12:33:37Z</time>
      </trkpt>
      <trkpt lat="51.698726993054152" lon="10.47986201941967">
        <ele>458.20999999999998</ele>
        <time>2017-05-22T12:33:38Z</time>
      </trkpt>
      <trkpt lat="51.698690028861165" lon="10.479655992239714">
        <ele>457.24000000000001</ele>
        <time>2017-05-22T12:33:39Z</time>
      </trkpt>
      <trkpt lat="51.698639988899231" lon="10.479448959231377">
        <ele>455.80000000000001</ele>
        <time>2017-05-22T12:33:40Z</time>
      </trkpt>
      <trkpt lat="51.698580980300903" lon="10.479261036962271">
        <ele>454.83999999999997</ele>
        <time>2017-05-22T12:33:41Z</time>
      </trkpt>
      <trkpt lat="51.698506968095899" lon="10.4791110008955">
        <ele>452.92000000000002</ele>
        <time>2017-05-22T12:33:42Z</time>
      </trkpt>
      <trkpt lat="51.698412001132965" lon="10.479007987305522">
        <ele>451.48000000000002</ele>
        <time>2017-05-22T12:33:43Z</time>
      </trkpt>
      <trkpt lat="51.698309993371367" lon="10.478936992585659">
        <ele>451</ele>
        <time>2017-05-22T12:33:44Z</time>
      </trkpt>
      <trkpt lat="51.698180995881557" lon="10.478913020342588">
        <ele>450.02999999999997</ele>
        <time>2017-05-22T12:33:45Z</time>
      </trkpt>
      <trkpt lat="51.698048980906606" lon="10.478913020342588">
        <ele>449.06999999999999</ele>
        <time>2017-05-22T12:33:46Z</time>
      </trkpt>
      <trkpt lat="51.697814036160707" lon="10.478876978158951">
        <ele>448.11000000000001</ele>
        <time>2017-05-22T12:33:48Z</time>
      </trkpt>
      <trkpt lat="51.697723008692265" lon="10.478805983439088">
        <ele>447.63</ele>
        <time>2017-05-22T12:33:49Z</time>
      </trkpt>
      <trkpt lat="51.697665005922318" lon="10.478713028132915">
        <ele>446.67000000000002</ele>
        <time>2017-05-22T12:33:50Z</time>
      </trkpt>
      <trkpt lat="51.697644973173738" lon="10.478585958480835">
        <ele>446.67000000000002</ele>
        <time>2017-05-22T12:33:51Z</time>
      </trkpt>
      <trkpt lat="51.697656959295273" lon="10.478415973484516">
        <ele>448.58999999999997</ele>
        <time>2017-05-22T12:33:52Z</time>
      </trkpt>
      <trkpt lat="51.697696018964052" lon="10.478255962952971">
        <ele>446.19</ele>
        <time>2017-05-22T12:33:53Z</time>
      </trkpt>
      <trkpt lat="51.697744969278574" lon="10.478096958249807">
        <ele>445.70999999999998</ele>
        <time>2017-05-22T12:33:54Z</time>
      </trkpt>
      <trkpt lat="51.697832979261875" lon="10.477595971897244">
        <ele>443.79000000000002</ele>
        <time>2017-05-22T12:33:57Z</time>
      </trkpt>
      <trkpt lat="51.697829039767385" lon="10.477429004386067">
        <ele>443.31</ele>
        <time>2017-05-22T12:33:58Z</time>
      </trkpt>
      <trkpt lat="51.697803977876902" lon="10.477267988026142">
        <ele>441.86000000000001</ele>
        <time>2017-05-22T12:33:59Z</time>
      </trkpt>
      <trkpt lat="51.697729965671897" lon="10.476950984448195">
        <ele>439.45999999999998</ele>
        <time>2017-05-22T12:34:01Z</time>
      </trkpt>
      <trkpt lat="51.697679003700614" lon="10.476818969473243">
        <ele>438.98000000000002</ele>
        <time>2017-05-22T12:34:02Z</time>
      </trkpt>
      <trkpt lat="51.697614965960383" lon="10.476722996681929">
        <ele>438.01999999999998</ele>
        <time>2017-05-22T12:34:03Z</time>
      </trkpt>
      <trkpt lat="51.697541959583759" lon="10.47666298225522">
        <ele>437.54000000000002</ele>
        <time>2017-05-22T12:34:04Z</time>
      </trkpt>
      <trkpt lat="51.697461996227503" lon="10.476638004183769">
        <ele>437.54000000000002</ele>
        <time>2017-05-22T12:34:05Z</time>
      </trkpt>
      <trkpt lat="51.69736803509295" lon="10.476663988083601">
        <ele>436.57999999999998</ele>
        <time>2017-05-22T12:34:06Z</time>
      </trkpt>
      <trkpt lat="51.697266027331352" lon="10.476741017773747">
        <ele>436.57999999999998</ele>
        <time>2017-05-22T12:34:07Z</time>
      </trkpt>
      <trkpt lat="51.697144992649555" lon="10.476859034970403">
        <ele>434.64999999999998</ele>
        <time>2017-05-22T12:34:08Z</time>
      </trkpt>
      <trkpt lat="51.696846010163426" lon="10.477103032171726">
        <ele>432.73000000000002</ele>
        <time>2017-05-22T12:34:10Z</time>
      </trkpt>
      <trkpt lat="51.696014022454619" lon="10.477497987449169">
        <ele>427.92000000000002</ele>
        <time>2017-05-22T12:34:15Z</time>
      </trkpt>
      <trkpt lat="51.695872033014894" lon="10.477513996884227">
        <ele>426.95999999999998</ele>
        <time>2017-05-22T12:34:16Z</time>
      </trkpt>
      <trkpt lat="51.69575996696949" lon="10.477510979399085">
        <ele>426.48000000000002</ele>
        <time>2017-05-22T12:34:17Z</time>
      </trkpt>
      <trkpt lat="51.69567396864295" lon="10.477470997720957">
        <ele>426.48000000000002</ele>
        <time>2017-05-22T12:34:18Z</time>
      </trkpt>
      <trkpt lat="51.695617977529764" lon="10.477396985515952">
        <ele>426.48000000000002</ele>
        <time>2017-05-22T12:34:19Z</time>
      </trkpt>
      <trkpt lat="51.695599034428596" lon="10.477300006896257">
        <ele>426</ele>
        <time>2017-05-22T12:34:20Z</time>
      </trkpt>
      <trkpt lat="51.695604985579848" lon="10.477190958335996">
        <ele>426</ele>
        <time>2017-05-22T12:34:21Z</time>
      </trkpt>
      <trkpt lat="51.695653013885021" lon="10.477075958624482">
        <ele>425.51999999999998</ele>
        <time>2017-05-22T12:34:22Z</time>
      </trkpt>
      <trkpt lat="51.695733983069658" lon="10.476980991661549">
        <ele>425.51999999999998</ele>
        <time>2017-05-22T12:34:23Z</time>
      </trkpt>
      <trkpt lat="51.695832973346114" lon="10.476882001385093">
        <ele>425.51999999999998</ele>
        <time>2017-05-22T12:34:24Z</time>
      </trkpt>
      <trkpt lat="51.695947973057628" lon="10.47676800750196">
        <ele>425.04000000000002</ele>
        <time>2017-05-22T12:34:25Z</time>
      </trkpt>
      <trkpt lat="51.696229018270969" lon="10.476471036672592">
        <ele>422.63999999999999</ele>
        <time>2017-05-22T12:34:27Z</time>
      </trkpt>
      <trkpt lat="51.697194026783109" lon="10.475075030699372">
        <ele>412.06</ele>
        <time>2017-05-22T12:34:34Z</time>
      </trkpt>
      <trkpt lat="51.697321012616158" lon="10.474896999076009">
        <ele>411.57999999999998</ele>
        <time>2017-05-22T12:34:35Z</time>
      </trkpt>
      <trkpt lat="51.69741497375071" lon="10.474707987159491">
        <ele>409.18000000000001</ele>
        <time>2017-05-22T12:34:36Z</time>
      </trkpt>
      <trkpt lat="51.69747699983418" lon="10.474505983293056">
        <ele>407.25999999999999</ele>
        <time>2017-05-22T12:34:37Z</time>
      </trkpt>
      <trkpt lat="51.697501977905631" lon="10.474288975819945">
        <ele>404.85000000000002</ele>
        <time>2017-05-22T12:34:38Z</time>
      </trkpt>
      <trkpt lat="51.697506001219153" lon="10.474054031074047">
        <ele>403.88999999999999</ele>
        <time>2017-05-22T12:34:39Z</time>
      </trkpt>
      <trkpt lat="51.697488985955715" lon="10.473793018609285">
        <ele>402.44999999999999</ele>
        <time>2017-05-22T12:34:40Z</time>
      </trkpt>
      <trkpt lat="51.697449004277587" lon="10.473504010587931">
        <ele>401.49000000000001</ele>
        <time>2017-05-22T12:34:41Z</time>
      </trkpt>
      <trkpt lat="51.697400975972414" lon="10.473207961767912">
        <ele>399.56999999999999</ele>
        <time>2017-05-22T12:34:42Z</time>
      </trkpt>
      <trkpt lat="51.697224033996463" lon="10.470793973654509">
        <ele>391.38999999999999</ele>
        <time>2017-05-22T12:34:50Z</time>
      </trkpt>
      <trkpt lat="51.69721900485456" lon="10.469280034303665">
        <ele>386.11000000000001</ele>
        <time>2017-05-22T12:34:55Z</time>
      </trkpt>
      <trkpt lat="51.697267033159733" lon="10.468988008797169">
        <ele>385.14999999999998</ele>
        <time>2017-05-22T12:34:56Z</time>
      </trkpt>
      <trkpt lat="51.697334004566073" lon="10.468706963583827">
        <ele>385.14999999999998</ele>
        <time>2017-05-22T12:34:57Z</time>
      </trkpt>
      <trkpt lat="51.697416985407472" lon="10.468443017452955">
        <ele>384.18000000000001</ele>
        <time>2017-05-22T12:34:58Z</time>
      </trkpt>
      <trkpt lat="51.697524022310972" lon="10.468186028301716">
        <ele>383.69999999999999</ele>
        <time>2017-05-22T12:34:59Z</time>
      </trkpt>
      <trkpt lat="51.697638016194105" lon="10.467920992523432">
        <ele>381.77999999999997</ele>
        <time>2017-05-22T12:35:00Z</time>
      </trkpt>
      <trkpt lat="51.697742035612464" lon="10.467636007815599">
        <ele>380.81999999999999</ele>
        <time>2017-05-22T12:35:01Z</time>
      </trkpt>
      <trkpt lat="51.697827028110623" lon="10.467326967045665">
        <ele>378.89999999999998</ele>
        <time>2017-05-22T12:35:02Z</time>
      </trkpt>
      <trkpt lat="51.69788796454668" lon="10.466997977346182">
        <ele>377.94</ele>
        <time>2017-05-22T12:35:03Z</time>
      </trkpt>
      <trkpt lat="51.69792803004384" lon="10.466654989868402">
        <ele>376.00999999999999</ele>
        <time>2017-05-22T12:35:04Z</time>
      </trkpt>
      <trkpt lat="51.697932975366712" lon="10.46630596742034">
        <ele>375.05000000000001</ele>
        <time>2017-05-22T12:35:05Z</time>
      </trkpt>
      <trkpt lat="51.697916965931654" lon="10.465955017134547">
        <ele>374.56999999999999</ele>
        <time>2017-05-22T12:35:06Z</time>
      </trkpt>
      <trkpt lat="51.697888970375061" lon="10.465607000514865">
        <ele>373.61000000000001</ele>
        <time>2017-05-22T12:35:07Z</time>
      </trkpt>
      <trkpt lat="51.69784496538341" lon="10.465262001380324">
        <ele>373.13</ele>
        <time>2017-05-22T12:35:08Z</time>
      </trkpt>
      <trkpt lat="51.69777799397707" lon="10.464913984760642">
        <ele>372.17000000000002</ele>
        <time>2017-05-22T12:35:09Z</time>
      </trkpt>
      <trkpt lat="51.69769300147891" lon="10.464564962312579">
        <ele>371.69</ele>
        <time>2017-05-22T12:35:10Z</time>
      </trkpt>
      <trkpt lat="51.697598034515977" lon="10.464223986491561">
        <ele>371.20999999999998</ele>
        <time>2017-05-22T12:35:11Z</time>
      </trkpt>
      <trkpt lat="51.696741990745068" lon="10.461662979796529">
        <ele>365.92000000000002</ele>
        <time>2017-05-22T12:35:19Z</time>
      </trkpt>
      <trkpt lat="51.696568988263607" lon="10.461213961243629">
        <ele>364.48000000000002</ele>
        <time>2017-05-22T12:35:21Z</time>
      </trkpt>
      <trkpt lat="51.696529006585479" lon="10.460980022326112">
        <ele>363.51999999999998</ele>
        <time>2017-05-22T12:35:22Z</time>
      </trkpt>
      <trkpt lat="51.69651098549366" lon="10.460726972669363">
        <ele>362.55000000000001</ele>
        <time>2017-05-22T12:35:23Z</time>
      </trkpt>
      <trkpt lat="51.696503022685647" lon="10.460462020710111">
        <ele>361.58999999999997</ele>
        <time>2017-05-22T12:35:24Z</time>
      </trkpt>
      <trkpt lat="51.696496987715364" lon="10.460193967446685">
        <ele>361.11000000000001</ele>
        <time>2017-05-22T12:35:25Z</time>
      </trkpt>
      <trkpt lat="51.696511991322041" lon="10.459893979132175">
        <ele>360.14999999999998</ele>
        <time>2017-05-22T12:35:26Z</time>
      </trkpt>
      <trkpt lat="51.696625985205173" lon="10.458983033895493">
        <ele>359.19</ele>
        <time>2017-05-22T12:35:29Z</time>
      </trkpt>
      <trkpt lat="51.696705026552081" lon="10.458711041137576">
        <ele>358.23000000000002</ele>
        <time>2017-05-22T12:35:30Z</time>
      </trkpt>
      <trkpt lat="51.696797981858253" lon="10.458448017016053">
        <ele>357.26999999999998</ele>
        <time>2017-05-22T12:35:31Z</time>
      </trkpt>
      <trkpt lat="51.697833985090256" lon="10.456135030835867">
        <ele>351.5</ele>
        <time>2017-05-22T12:35:39Z</time>
      </trkpt>
      <trkpt lat="51.698634037747979" lon="10.454198978841305">
        <ele>347.64999999999998</ele>
        <time>2017-05-22T12:35:46Z</time>
      </trkpt>
      <trkpt lat="51.698862025514245" lon="10.453688018023968">
        <ele>346.69</ele>
        <time>2017-05-22T12:35:48Z</time>
      </trkpt>
      <trkpt lat="51.699181040748954" lon="10.453165993094444">
        <ele>347.17000000000002</ele>
        <time>2017-05-22T12:35:50Z</time>
      </trkpt>
      <trkpt lat="51.700688023120165" lon="10.451405961066484">
        <ele>343.81</ele>
        <time>2017-05-22T12:35:58Z</time>
      </trkpt>
      <trkpt lat="51.701247012242675" lon="10.450715962797403">
        <ele>343.32999999999998</ele>
        <time>2017-05-22T12:36:01Z</time>
      </trkpt>
      <trkpt lat="51.701426971703768" lon="10.450455034151673">
        <ele>343.32999999999998</ele>
        <time>2017-05-22T12:36:02Z</time>
      </trkpt>
      <trkpt lat="51.701596034690738" lon="10.450178012251854">
        <ele>343.32999999999998</ele>
        <time>2017-05-22T12:36:03Z</time>
      </trkpt>
      <trkpt lat="51.701747998595238" lon="10.449867965653539">
        <ele>344.29000000000002</ele>
        <time>2017-05-22T12:36:04Z</time>
      </trkpt>
      <trkpt lat="51.701880013570189" lon="10.44954601675272">
        <ele>343.81</ele>
        <time>2017-05-22T12:36:05Z</time>
      </trkpt>
      <trkpt lat="51.70213901437819" lon="10.448865992948413">
        <ele>344.29000000000002</ele>
        <time>2017-05-22T12:36:07Z</time>
      </trkpt>
      <trkpt lat="51.702232975512743" lon="10.448511019349098">
        <ele>343.32999999999998</ele>
        <time>2017-05-22T12:36:08Z</time>
      </trkpt>
      <trkpt lat="51.702301036566496" lon="10.448138024657965">
        <ele>341.41000000000003</ele>
        <time>2017-05-22T12:36:09Z</time>
      </trkpt>
      <trkpt lat="51.702341018244624" lon="10.447748014703393">
        <ele>340.92000000000002</ele>
        <time>2017-05-22T12:36:10Z</time>
      </trkpt>
      <trkpt lat="51.702356021851301" lon="10.447344006970525">
        <ele>341.41000000000003</ele>
        <time>2017-05-22T12:36:11Z</time>
      </trkpt>
      <trkpt lat="51.702356021851301" lon="10.446932036429644">
        <ele>342.37</ele>
        <time>2017-05-22T12:36:12Z</time>
      </trkpt>
      <trkpt lat="51.702335989102721" lon="10.446521993726492">
        <ele>342.85000000000002</ele>
        <time>2017-05-22T12:36:13Z</time>
      </trkpt>
      <trkpt lat="51.702301036566496" lon="10.446119997650385">
        <ele>343.32999999999998</ele>
        <time>2017-05-22T12:36:14Z</time>
      </trkpt>
      <trkpt lat="51.702254014089704" lon="10.445728981867433">
        <ele>343.81</ele>
        <time>2017-05-22T12:36:15Z</time>
      </trkpt>
      <trkpt lat="51.701824022457004" lon="10.443534012883902">
        <ele>345.25</ele>
        <time>2017-05-22T12:36:21Z</time>
      </trkpt>
      <trkpt lat="51.701794015243649" lon="10.443219020962715">
        <ele>345.25</ele>
        <time>2017-05-22T12:36:22Z</time>
      </trkpt>
      <trkpt lat="51.701793009415269" lon="10.442903023213148">
        <ele>345.25</ele>
        <time>2017-05-22T12:36:23Z</time>
      </trkpt>
      <trkpt lat="51.701801978051662" lon="10.442567998543382">
        <ele>344.76999999999998</ele>
        <time>2017-05-22T12:36:24Z</time>
      </trkpt>
      <trkpt lat="51.701825028285384" lon="10.442210007458925">
        <ele>344.76999999999998</ele>
        <time>2017-05-22T12:36:25Z</time>
      </trkpt>
      <trkpt lat="51.702111018821597" lon="10.437630973756313">
        <ele>340.44</ele>
        <time>2017-05-22T12:36:37Z</time>
      </trkpt>
      <trkpt lat="51.702038012444973" lon="10.436348961666226">
        <ele>340.44</ele>
        <time>2017-05-22T12:36:42Z</time>
      </trkpt>
      <trkpt lat="51.701902979984879" lon="10.434846002608538">
        <ele>339.48000000000002</ele>
        <time>2017-05-22T12:36:51Z</time>
      </trkpt>
      <trkpt lat="51.701562004163861" lon="10.432699983939528">
        <ele>339</ele>
        <time>2017-05-22T12:37:05Z</time>
      </trkpt>
      <trkpt lat="51.701163025572896" lon="10.43126399628818">
        <ele>340.44</ele>
        <time>2017-05-22T12:37:16Z</time>
      </trkpt>
      <trkpt lat="51.700535975396633" lon="10.430122967809439">
        <ele>339.48000000000002</ele>
        <time>2017-05-22T12:37:25Z</time>
      </trkpt>
      <trkpt lat="51.700470009818673" lon="10.429997993633151">
        <ele>339.48000000000002</ele>
        <time>2017-05-22T12:37:26Z</time>
      </trkpt>
      <trkpt lat="51.700412007048726" lon="10.429863967001438">
        <ele>339.48000000000002</ele>
        <time>2017-05-22T12:37:27Z</time>
      </trkpt>
      <trkpt lat="51.700371019542217" lon="10.429718038067222">
        <ele>339.48000000000002</ele>
        <time>2017-05-22T12:37:28Z</time>
      </trkpt>
      <trkpt lat="51.700330032035708" lon="10.429560961201787">
        <ele>339.95999999999998</ele>
        <time>2017-05-22T12:37:29Z</time>
      </trkpt>
      <trkpt lat="51.700294995680451" lon="10.429401034489274">
        <ele>339.48000000000002</ele>
        <time>2017-05-22T12:37:30Z</time>
      </trkpt>
      <trkpt lat="51.700264988467097" lon="10.429241023957729">
        <ele>339</ele>
        <time>2017-05-22T12:37:31Z</time>
      </trkpt>
      <trkpt lat="51.700072037056088" lon="10.428453963249922">
        <ele>338.04000000000002</ele>
        <time>2017-05-22T12:37:36Z</time>
      </trkpt>
      <trkpt lat="51.700015962123871" lon="10.428317002952099">
        <ele>338.04000000000002</ele>
        <time>2017-05-22T12:37:37Z</time>
      </trkpt>
      <trkpt lat="51.699954019859433" lon="10.428188005462289">
        <ele>337.56</ele>
        <time>2017-05-22T12:37:38Z</time>
      </trkpt>
      <trkpt lat="51.699477005749941" lon="10.427356017753482">
        <ele>338.51999999999998</ele>
        <time>2017-05-22T12:37:46Z</time>
      </trkpt>
      <trkpt lat="51.699438029900193" lon="10.427251998335123">
        <ele>338.51999999999998</ele>
        <time>2017-05-22T12:37:47Z</time>
      </trkpt>
      <trkpt lat="51.69913100078702" lon="10.426318002864718">
        <ele>339.48000000000002</ele>
        <time>2017-05-22T12:37:57Z</time>
      </trkpt>
      <trkpt lat="51.699093030765653" lon="10.426243990659714">
        <ele>339.48000000000002</ele>
        <time>2017-05-22T12:37:58Z</time>
      </trkpt>
      <trkpt lat="51.698778960853815" lon="10.42567502707243">
        <ele>339.95999999999998</ele>
        <time>2017-05-22T12:38:05Z</time>
      </trkpt>
      <trkpt lat="51.698536975309253" lon="10.425293985754251">
        <ele>339</ele>
        <time>2017-05-22T12:38:10Z</time>
      </trkpt>
      <trkpt lat="51.698473021388054" lon="10.425256015732884">
        <ele>339</ele>
        <time>2017-05-22T12:38:11Z</time>
      </trkpt>
      <trkpt lat="51.698177978396416" lon="10.425093993544579">
        <ele>338.51999999999998</ele>
        <time>2017-05-22T12:38:15Z</time>
      </trkpt>
      <trkpt lat="51.698104972019792" lon="10.425004977732897">
        <ele>339</ele>
        <time>2017-05-22T12:38:16Z</time>
      </trkpt>
      <trkpt lat="51.698047975078225" lon="10.424919985234737">
        <ele>338.51999999999998</ele>
        <time>2017-05-22T12:38:17Z</time>
      </trkpt>
      <trkpt lat="51.698001036420465" lon="10.424822000786662">
        <ele>338.51999999999998</ele>
        <time>2017-05-22T12:38:18Z</time>
      </trkpt>
      <trkpt lat="51.697958037257195" lon="10.424719993025064">
        <ele>338.04000000000002</ele>
        <time>2017-05-22T12:38:19Z</time>
      </trkpt>
      <trkpt lat="51.697920989245176" lon="10.424607004970312">
        <ele>338.04000000000002</ele>
        <time>2017-05-22T12:38:20Z</time>
      </trkpt>
      <trkpt lat="51.697757039219141" lon="10.423994958400726">
        <ele>337.07999999999998</ele>
        <time>2017-05-22T12:38:25Z</time>
      </trkpt>
      <trkpt lat="51.69773600064218" lon="10.42384902946651">
        <ele>336.60000000000002</ele>
        <time>2017-05-22T12:38:26Z</time>
      </trkpt>
      <trkpt lat="51.697725020349026" lon="10.423690024763346">
        <ele>336.60000000000002</ele>
        <time>2017-05-22T12:38:27Z</time>
      </trkpt>
      <trkpt lat="51.697529973462224" lon="10.422340035438538">
        <ele>334.68000000000001</ele>
        <time>2017-05-22T12:38:36Z</time>
      </trkpt>
      <trkpt lat="51.697314977645874" lon="10.421793032437563">
        <ele>333.70999999999998</ele>
        <time>2017-05-22T12:38:40Z</time>
      </trkpt>
      <trkpt lat="51.696448037400842" lon="10.420031994581223">
        <ele>330.82999999999998</ele>
        <time>2017-05-22T12:38:51Z</time>
      </trkpt>
      <trkpt lat="51.69567103497684" lon="10.418384028598666">
        <ele>329.87</ele>
        <time>2017-05-22T12:39:02Z</time>
      </trkpt>
      <trkpt lat="51.695451010018587" lon="10.418012039735913">
        <ele>330.35000000000002</ele>
        <time>2017-05-22T12:39:05Z</time>
      </trkpt>
      <trkpt lat="51.695260992273688" lon="10.417665028944612">
        <ele>331.31</ele>
        <time>2017-05-22T12:39:08Z</time>
      </trkpt>
      <trkpt lat="51.695211958140135" lon="10.417540976777673">
        <ele>331.31</ele>
        <time>2017-05-22T12:39:09Z</time>
      </trkpt>
      <trkpt lat="51.695173988118768" lon="10.417408961802721">
        <ele>331.31</ele>
        <time>2017-05-22T12:39:10Z</time>
      </trkpt>
      <trkpt lat="51.695138029754162" lon="10.417266972362995">
        <ele>331.31</ele>
        <time>2017-05-22T12:39:11Z</time>
      </trkpt>
      <trkpt lat="51.695103999227285" lon="10.417119031772017">
        <ele>330.82999999999998</ele>
        <time>2017-05-22T12:39:12Z</time>
      </trkpt>
      <trkpt lat="51.694967038929462" lon="10.416565993800759">
        <ele>329.87</ele>
        <time>2017-05-22T12:39:16Z</time>
      </trkpt>
      <trkpt lat="51.694950023666024" lon="10.416422998532653">
        <ele>329.87</ele>
        <time>2017-05-22T12:39:17Z</time>
      </trkpt>
      <trkpt lat="51.694927979260683" lon="10.416257958859205">
        <ele>329.38999999999999</ele>
        <time>2017-05-22T12:39:18Z</time>
      </trkpt>
      <trkpt lat="51.694895038381219" lon="10.416086968034506">
        <ele>329.38999999999999</ele>
        <time>2017-05-22T12:39:19Z</time>
      </trkpt>
      <trkpt lat="51.694847010076046" lon="10.415914971381426">
        <ele>329.38999999999999</ele>
        <time>2017-05-22T12:39:20Z</time>
      </trkpt>
      <trkpt lat="51.694786995649338" lon="10.415742974728346">
        <ele>329.38999999999999</ele>
        <time>2017-05-22T12:39:21Z</time>
      </trkpt>
      <trkpt lat="51.694717006757855" lon="10.415580030530691">
        <ele>329.38999999999999</ele>
        <time>2017-05-22T12:39:22Z</time>
      </trkpt>
      <trkpt lat="51.694262037053704" lon="10.414608987048268">
        <ele>330.35000000000002</ele>
        <time>2017-05-22T12:39:28Z</time>
      </trkpt>
      <trkpt lat="51.694173021242023" lon="10.414484012871981">
        <ele>330.35000000000002</ele>
        <time>2017-05-22T12:39:29Z</time>
      </trkpt>
      <trkpt lat="51.694088028743863" lon="10.414385022595525">
        <ele>330.35000000000002</ele>
        <time>2017-05-22T12:39:30Z</time>
      </trkpt>
      <trkpt lat="51.693990966305137" lon="10.41433397680521">
        <ele>330.82999999999998</ele>
        <time>2017-05-22T12:39:31Z</time>
      </trkpt>
      <trkpt lat="51.693862974643707" lon="10.414346968755126">
        <ele>331.79000000000002</ele>
        <time>2017-05-22T12:39:32Z</time>
      </trkpt>
      <trkpt lat="51.693767001852393" lon="10.414343029260635">
        <ele>332.26999999999998</ele>
        <time>2017-05-22T12:39:33Z</time>
      </trkpt>
      <trkpt lat="51.693590981885791" lon="10.41431000456214">
        <ele>333.23000000000002</ele>
        <time>2017-05-22T12:39:35Z</time>
      </trkpt>
      <trkpt lat="51.693418985232711" lon="10.414211014285684">
        <ele>333.23000000000002</ele>
        <time>2017-05-22T12:39:37Z</time>
      </trkpt>
      <trkpt lat="51.69333097524941" lon="10.41413901373744">
        <ele>333.70999999999998</ele>
        <time>2017-05-22T12:39:38Z</time>
      </trkpt>
      <trkpt lat="51.69324598275125" lon="10.41405200958252">
        <ele>333.70999999999998</ele>
        <time>2017-05-22T12:39:39Z</time>
      </trkpt>
      <trkpt lat="51.692380970343947" lon="10.412921961396933">
        <ele>332.26999999999998</ele>
        <time>2017-05-22T12:39:51Z</time>
      </trkpt>
      <trkpt lat="51.691530961543322" lon="10.411843964830041">
        <ele>331.31</ele>
        <time>2017-05-22T12:40:01Z</time>
      </trkpt>
      <trkpt lat="51.690582968294621" lon="10.410592965781689">
        <ele>327.94999999999999</ele>
        <time>2017-05-22T12:40:09Z</time>
      </trkpt>
      <trkpt lat="51.689835973083973" lon="10.408894037827849">
        <ele>326.01999999999998</ele>
        <time>2017-05-22T12:40:16Z</time>
      </trkpt>
      <trkpt lat="51.688616992905736" lon="10.405839001759887">
        <ele>321.69999999999999</ele>
        <time>2017-05-22T12:40:26Z</time>
      </trkpt>
      <trkpt lat="51.687619965523481" lon="10.403583012521267">
        <ele>320.74000000000001</ele>
        <time>2017-05-22T12:40:33Z</time>
      </trkpt>
      <trkpt lat="51.686323033645749" lon="10.400749007239938">
        <ele>318.32999999999998</ele>
        <time>2017-05-22T12:40:42Z</time>
      </trkpt>
      <trkpt lat="51.685311002656817" lon="10.398815972730517">
        <ele>314.97000000000003</ele>
        <time>2017-05-22T12:40:49Z</time>
      </trkpt>
      <trkpt lat="51.685138000175357" lon="10.398658979684114">
        <ele>313.52999999999997</ele>
        <time>2017-05-22T12:40:50Z</time>
      </trkpt>
      <trkpt lat="51.684961980208755" lon="10.398556971922517">
        <ele>312.08999999999997</ele>
        <time>2017-05-22T12:40:51Z</time>
      </trkpt>
      <trkpt lat="51.684756958857179" lon="10.398514978587627">
        <ele>311.60000000000002</ele>
        <time>2017-05-22T12:40:52Z</time>
      </trkpt>
      <trkpt lat="51.684546992182732" lon="10.398482959717512">
        <ele>311.12</ele>
        <time>2017-05-22T12:40:53Z</time>
      </trkpt>
      <trkpt lat="51.682897014543414" lon="10.398244997486472">
        <ele>305.83999999999997</ele>
        <time>2017-05-22T12:41:01Z</time>
      </trkpt>
      <trkpt lat="51.681874003261328" lon="10.397867979481816">
        <ele>301.99000000000001</ele>
        <time>2017-05-22T12:41:07Z</time>
      </trkpt>
      <trkpt lat="51.681742994114757" lon="10.39776798337698">
        <ele>301.50999999999999</ele>
        <time>2017-05-22T12:41:08Z</time>
      </trkpt>
      <trkpt lat="51.681605027988553" lon="10.39763898588717">
        <ele>301.50999999999999</ele>
        <time>2017-05-22T12:41:09Z</time>
      </trkpt>
      <trkpt lat="51.681478964164853" lon="10.39746799506247">
        <ele>300.55000000000001</ele>
        <time>2017-05-22T12:41:10Z</time>
      </trkpt>
      <trkpt lat="51.681367987766862" lon="10.397254005074501">
        <ele>299.58999999999997</ele>
        <time>2017-05-22T12:41:11Z</time>
      </trkpt>
      <trkpt lat="51.681261034682393" lon="10.397020988166332">
        <ele>299.11000000000001</ele>
        <time>2017-05-22T12:41:12Z</time>
      </trkpt>
      <trkpt lat="51.681162966415286" lon="10.396763999015093">
        <ele>298.14999999999998</ele>
        <time>2017-05-22T12:41:13Z</time>
      </trkpt>
      <trkpt lat="51.680264007300138" lon="10.394392004236579">
        <ele>293.33999999999997</ele>
        <time>2017-05-22T12:41:22Z</time>
      </trkpt>
      <trkpt lat="51.679918002337217" lon="10.392594002187252">
        <ele>292.38</ele>
        <time>2017-05-22T12:41:29Z</time>
      </trkpt>
      <trkpt lat="51.679417015984654" lon="10.390112036839128">
        <ele>289.49000000000001</ele>
        <time>2017-05-22T12:41:39Z</time>
      </trkpt>
      <trkpt lat="51.679393965750933" lon="10.389815988019109">
        <ele>289.49000000000001</ele>
        <time>2017-05-22T12:41:40Z</time>
      </trkpt>
      <trkpt lat="51.6793870087713" lon="10.389511976391077">
        <ele>289.49000000000001</ele>
        <time>2017-05-22T12:41:41Z</time>
      </trkpt>
      <trkpt lat="51.679512988775969" lon="10.386897996068001">
        <ele>286.61000000000001</ele>
        <time>2017-05-22T12:41:48Z</time>
      </trkpt>
      <trkpt lat="51.679694959893823" lon="10.382524989545345">
        <ele>285.17000000000002</ele>
        <time>2017-05-22T12:41:58Z</time>
      </trkpt>
      <trkpt lat="51.679551964625716" lon="10.379699030891061">
        <ele>283.25</ele>
        <time>2017-05-22T12:42:05Z</time>
      </trkpt>
      <trkpt lat="51.678995992988348" lon="10.377108016982675">
        <ele>281.80000000000001</ele>
        <time>2017-05-22T12:42:12Z</time>
      </trkpt>
      <trkpt lat="51.678305994719267" lon="10.374669972807169">
        <ele>280.36000000000001</ele>
        <time>2017-05-22T12:42:20Z</time>
      </trkpt>
      <trkpt lat="51.677124984562397" lon="10.371934035792947">
        <ele>279.39999999999998</ele>
        <time>2017-05-22T12:42:29Z</time>
      </trkpt>
      <trkpt lat="51.675970964133739" lon="10.370456976816058">
        <ele>278.92000000000002</ele>
        <time>2017-05-22T12:42:35Z</time>
      </trkpt>
      <trkpt lat="51.674244040623307" lon="10.369448969140649">
        <ele>277.48000000000002</ele>
        <time>2017-05-22T12:42:42Z</time>
      </trkpt>
      <trkpt lat="51.672653993591666" lon="10.368420006707311">
        <ele>272.67000000000002</ele>
        <time>2017-05-22T12:42:49Z</time>
      </trkpt>
      <trkpt lat="51.670955987647176" lon="10.366718983277678">
        <ele>268.35000000000002</ele>
        <time>2017-05-22T12:42:57Z</time>
      </trkpt>
      <trkpt lat="51.669391002506018" lon="10.365641992539167">
        <ele>264.01999999999998</ele>
        <time>2017-05-22T12:43:04Z</time>
      </trkpt>
      <trkpt lat="51.667769020423293" lon="10.36439904011786">
        <ele>260.17000000000002</ele>
        <time>2017-05-22T12:43:12Z</time>
      </trkpt>
      <trkpt lat="51.666609970852733" lon="10.363207971677184">
        <ele>259.20999999999998</ele>
        <time>2017-05-22T12:43:19Z</time>
      </trkpt>
      <trkpt lat="51.666326997801661" lon="10.362862972542644">
        <ele>258.73000000000002</ele>
        <time>2017-05-22T12:43:21Z</time>
      </trkpt>
      <trkpt lat="51.666196994483471" lon="10.362658035010099">
        <ele>258.73000000000002</ele>
        <time>2017-05-22T12:43:22Z</time>
      </trkpt>
      <trkpt lat="51.66608702391386" lon="10.362408002838492">
        <ele>258.25</ele>
        <time>2017-05-22T12:43:23Z</time>
      </trkpt>
      <trkpt lat="51.66600001975894" lon="10.362120000645518">
        <ele>258.25</ele>
        <time>2017-05-22T12:43:24Z</time>
      </trkpt>
      <trkpt lat="51.66591796092689" lon="10.361826969310641">
        <ele>258.25</ele>
        <time>2017-05-22T12:43:25Z</time>
      </trkpt>
      <trkpt lat="51.665454022586346" lon="10.360026033595204">
        <ele>259.69</ele>
        <time>2017-05-22T12:43:32Z</time>
      </trkpt>
      <trkpt lat="51.665159985423088" lon="10.359018025919795">
        <ele>260.17000000000002</ele>
        <time>2017-05-22T12:43:38Z</time>
      </trkpt>
      <trkpt lat="51.665101982653141" lon="10.3589659743011">
        <ele>261.13999999999999</ele>
        <time>2017-05-22T12:43:39Z</time>
      </trkpt>
      <trkpt lat="51.665036017075181" lon="10.35894401371479">
        <ele>261.62</ele>
        <time>2017-05-22T12:43:40Z</time>
      </trkpt>
      <trkpt lat="51.664957981556654" lon="10.358946025371552">
        <ele>261.62</ele>
        <time>2017-05-22T12:43:41Z</time>
      </trkpt>
      <trkpt lat="51.664880029857159" lon="10.35900603979826">
        <ele>261.62</ele>
        <time>2017-05-22T12:43:42Z</time>
      </trkpt>
      <trkpt lat="51.66479897685349" lon="10.3590920381248">
        <ele>261.62</ele>
        <time>2017-05-22T12:43:43Z</time>
      </trkpt>
      <trkpt lat="51.664721025153995" lon="10.359213994815946">
        <ele>261.13999999999999</ele>
        <time>2017-05-22T12:43:44Z</time>
      </trkpt>
      <trkpt lat="51.664140997454524" lon="10.359799973666668">
        <ele>262.57999999999998</ele>
        <time>2017-05-22T12:43:51Z</time>
      </trkpt>
      <trkpt lat="51.664068996906281" lon="10.359793016687036">
        <ele>263.06</ele>
        <time>2017-05-22T12:43:52Z</time>
      </trkpt>
      <trkpt lat="51.664010994136333" lon="10.359742976725101">
        <ele>263.06</ele>
        <time>2017-05-22T12:43:53Z</time>
      </trkpt>
      <trkpt lat="51.663885014131665" lon="10.359559999778867">
        <ele>262.10000000000002</ele>
        <time>2017-05-22T12:43:55Z</time>
      </trkpt>
      <trkpt lat="51.663814019411802" lon="10.359428990632296">
        <ele>262.57999999999998</ele>
        <time>2017-05-22T12:43:56Z</time>
      </trkpt>
      <trkpt lat="51.663191998377442" lon="10.3576569724828">
        <ele>263.06</ele>
        <time>2017-05-22T12:44:07Z</time>
      </trkpt>
      <trkpt lat="51.662365039810538" lon="10.355301992967725">
        <ele>260.17000000000002</ele>
        <time>2017-05-22T12:44:20Z</time>
      </trkpt>
      <trkpt lat="51.661098031327128" lon="10.352663034573197">
        <ele>256.81</ele>
        <time>2017-05-22T12:44:35Z</time>
      </trkpt>
      <trkpt lat="51.660989988595247" lon="10.352536970749497">
        <ele>256.81</ele>
        <time>2017-05-22T12:44:36Z</time>
      </trkpt>
      <trkpt lat="51.660871971398592" lon="10.352427000179887">
        <ele>257.29000000000002</ele>
        <time>2017-05-22T12:44:37Z</time>
      </trkpt>
      <trkpt lat="51.660320023074746" lon="10.351887037977576">
        <ele>256.32999999999998</ele>
        <time>2017-05-22T12:44:42Z</time>
      </trkpt>
      <trkpt lat="51.659648967906833" lon="10.350544005632401">
        <ele>255.37</ele>
        <time>2017-05-22T12:44:51Z</time>
      </trkpt>
      <trkpt lat="51.659514019265771" lon="10.350324986502528">
        <ele>254.41</ele>
        <time>2017-05-22T12:44:53Z</time>
      </trkpt>
      <trkpt lat="51.659430032595992" lon="10.350259020924568">
        <ele>254.41</ele>
        <time>2017-05-22T12:44:54Z</time>
      </trkpt>
      <trkpt lat="51.659331964328885" lon="10.350236976519227">
        <ele>254.41</ele>
        <time>2017-05-22T12:44:55Z</time>
      </trkpt>
      <trkpt lat="51.659225011244416" lon="10.350253991782665">
        <ele>253.44</ele>
        <time>2017-05-22T12:44:56Z</time>
      </trkpt>
      <trkpt lat="51.659114034846425" lon="10.350279975682497">
        <ele>253.44</ele>
        <time>2017-05-22T12:44:57Z</time>
      </trkpt>
      <trkpt lat="51.659006997942924" lon="10.350311994552612">
        <ele>252.96000000000001</ele>
        <time>2017-05-22T12:44:58Z</time>
      </trkpt>
      <trkpt lat="51.657985998317599" lon="10.350639978423715">
        <ele>254.88999999999999</ele>
        <time>2017-05-22T12:45:08Z</time>
      </trkpt>
      <trkpt lat="51.656841030344367" lon="10.350957987830043">
        <ele>255.37</ele>
        <time>2017-05-22T12:45:19Z</time>
      </trkpt>
      <trkpt lat="51.65652796626091" lon="10.350986989215016">
        <ele>256.32999999999998</ele>
        <time>2017-05-22T12:45:23Z</time>
      </trkpt>
      <trkpt lat="51.656451020389795" lon="10.350966034457088">
        <ele>256.32999999999998</ele>
        <time>2017-05-22T12:45:24Z</time>
      </trkpt>
      <trkpt lat="51.656370973214507" lon="10.350919011980295">
        <ele>256.81</ele>
        <time>2017-05-22T12:45:25Z</time>
      </trkpt>
      <trkpt lat="51.656286986544728" lon="10.350846005603671">
        <ele>256.81</ele>
        <time>2017-05-22T12:45:26Z</time>
      </trkpt>
      <trkpt lat="51.656199982389808" lon="10.350752966478467">
        <ele>256.81</ele>
        <time>2017-05-22T12:45:27Z</time>
      </trkpt>
      <trkpt lat="51.656106021255255" lon="10.350646013393998">
        <ele>256.81</ele>
        <time>2017-05-22T12:45:28Z</time>
      </trkpt>
      <trkpt lat="51.654858039692044" lon="10.349085973575711">
        <ele>254.41</ele>
        <time>2017-05-22T12:45:40Z</time>
      </trkpt>
      <trkpt lat="51.653900993987918" lon="10.347998002544045">
        <ele>252.47999999999999</ele>
        <time>2017-05-22T12:45:50Z</time>
      </trkpt>
      <trkpt lat="51.652582017704844" lon="10.34652697853744">
        <ele>250.56</ele>
        <time>2017-05-22T12:46:04Z</time>
      </trkpt>
      <trkpt lat="51.651926971971989" lon="10.345775038003922">
        <ele>249.59999999999999</ele>
        <time>2017-05-22T12:46:11Z</time>
      </trkpt>
      <trkpt lat="51.651850026100874" lon="10.34564302302897">
        <ele>249.59999999999999</ele>
        <time>2017-05-22T12:46:12Z</time>
      </trkpt>
      <trkpt lat="51.651791017502546" lon="10.345487035810947">
        <ele>249.12</ele>
        <time>2017-05-22T12:46:13Z</time>
      </trkpt>
      <trkpt lat="51.651747012510896" lon="10.345329036936164">
        <ele>248.63999999999999</ele>
        <time>2017-05-22T12:46:14Z</time>
      </trkpt>
      <trkpt lat="51.65171499364078" lon="10.34517296589911">
        <ele>248.16</ele>
        <time>2017-05-22T12:46:15Z</time>
      </trkpt>
      <trkpt lat="51.651690015569329" lon="10.345016978681087">
        <ele>248.16</ele>
        <time>2017-05-22T12:46:16Z</time>
      </trkpt>
      <trkpt lat="51.651674006134272" lon="10.344868032261729">
        <ele>248.16</ele>
        <time>2017-05-22T12:46:17Z</time>
      </trkpt>
      <trkpt lat="51.65147602558136" lon="10.343736978247762">
        <ele>248.16</ele>
        <time>2017-05-22T12:46:26Z</time>
      </trkpt>
      <trkpt lat="51.651443000882864" lon="10.343636982142925">
        <ele>247.68000000000001</ele>
        <time>2017-05-22T12:46:27Z</time>
      </trkpt>
      <trkpt lat="51.651403019204736" lon="10.343541009351611">
        <ele>247.68000000000001</ele>
        <time>2017-05-22T12:46:28Z</time>
      </trkpt>
      <trkpt lat="51.651359014213085" lon="10.343448976054788">
        <ele>247.68000000000001</ele>
        <time>2017-05-22T12:46:29Z</time>
      </trkpt>
      <trkpt lat="51.651315009221435" lon="10.343375969678164">
        <ele>247.19999999999999</ele>
        <time>2017-05-22T12:46:30Z</time>
      </trkpt>
      <trkpt lat="51.651279972866178" lon="10.343327019363642">
        <ele>246.72</ele>
        <time>2017-05-22T12:46:31Z</time>
      </trkpt>
      <trkpt lat="51.651236973702908" lon="10.343246972188354">
        <ele>247.68000000000001</ele>
        <time>2017-05-22T12:46:33Z</time>
      </trkpt>
      <trkpt lat="51.651215013116598" lon="10.343187041580677">
        <ele>247.68000000000001</ele>
        <time>2017-05-22T12:46:44Z</time>
      </trkpt>
      <trkpt lat="51.651095990091562" lon="10.342971039935946">
        <ele>248.16</ele>
        <time>2017-05-22T12:47:02Z</time>
      </trkpt>
      <trkpt lat="51.65106900036335" lon="10.34287397749722">
        <ele>247.68000000000001</ele>
        <time>2017-05-22T12:47:03Z</time>
      </trkpt>
      <trkpt lat="51.651058020070195" lon="10.342763001099229">
        <ele>247.19999999999999</ele>
        <time>2017-05-22T12:47:04Z</time>
      </trkpt>
      <trkpt lat="51.651067994534969" lon="10.342640038579702">
        <ele>246.72</ele>
        <time>2017-05-22T12:47:05Z</time>
      </trkpt>
      <trkpt lat="51.651085009798408" lon="10.34250701777637">
        <ele>246.22999999999999</ele>
        <time>2017-05-22T12:47:06Z</time>
      </trkpt>
      <trkpt lat="51.651189029216766" lon="10.340773975476623">
        <ele>245.75</ele>
        <time>2017-05-22T12:47:16Z</time>
      </trkpt>
      <trkpt lat="51.650993982329965" lon="10.33833802677691">
        <ele>245.75</ele>
        <time>2017-05-22T12:47:28Z</time>
      </trkpt>
      <trkpt lat="51.650866996496916" lon="10.336812017485499">
        <ele>245.75</ele>
        <time>2017-05-22T12:47:39Z</time>
      </trkpt>
      <trkpt lat="51.650858027860522" lon="10.336689976975322">
        <ele>245.75</ele>
        <time>2017-05-22T12:47:40Z</time>
      </trkpt>
      <trkpt lat="51.650864984840155" lon="10.336581012234092">
        <ele>245.75</ele>
        <time>2017-05-22T12:47:41Z</time>
      </trkpt>
      <trkpt lat="51.650886023417115" lon="10.336485039442778">
        <ele>245.27000000000001</ele>
        <time>2017-05-22T12:47:42Z</time>
      </trkpt>
      <trkpt lat="51.65096003562212" lon="10.336430976167321">
        <ele>245.27000000000001</ele>
        <time>2017-05-22T12:47:43Z</time>
      </trkpt>
      <trkpt lat="51.651061037555337" lon="10.336410021409392">
        <ele>244.78999999999999</ele>
        <time>2017-05-22T12:47:44Z</time>
      </trkpt>
      <trkpt lat="51.651147035881877" lon="10.336388982832432">
        <ele>243.34999999999999</ele>
        <time>2017-05-22T12:47:45Z</time>
      </trkpt>
      <trkpt lat="51.651233034208417" lon="10.336371967568994">
        <ele>242.87</ele>
        <time>2017-05-22T12:47:46Z</time>
      </trkpt>
      <trkpt lat="51.652340032160282" lon="10.336220003664494">
        <ele>238.06</ele>
        <time>2017-05-22T12:47:57Z</time>
      </trkpt>
      <trkpt lat="51.652579000219703" lon="10.336146997287869">
        <ele>238.06</ele>
        <time>2017-05-22T12:48:03Z</time>
      </trkpt>
      <trkpt lat="51.652634991332889" lon="10.336135011166334">
        <ele>239.50999999999999</ele>
        <time>2017-05-22T12:48:14Z</time>
      </trkpt>
      <trkpt lat="51.652828026562929" lon="10.336052030324936">
        <ele>239.99000000000001</ele>
        <time>2017-05-22T12:48:42Z</time>
      </trkpt>
      <trkpt lat="51.653736038133502" lon="10.335368989035487">
        <ele>242.87</ele>
        <time>2017-05-22T12:48:51Z</time>
      </trkpt>
      <trkpt lat="51.654757959768176" lon="10.334483021870255">
        <ele>239.99000000000001</ele>
        <time>2017-05-22T12:49:02Z</time>
      </trkpt>
      <trkpt lat="51.655566981062293" lon="10.334132993593812">
        <ele>236.62</ele>
        <time>2017-05-22T12:49:10Z</time>
      </trkpt>
      <trkpt lat="51.656694011762738" lon="10.334007013589144">
        <ele>236.62</ele>
        <time>2017-05-22T12:49:20Z</time>
      </trkpt>
      <trkpt lat="51.657280996441841" lon="10.333929983898997">
        <ele>238.53999999999999</ele>
        <time>2017-05-22T12:49:27Z</time>
      </trkpt>
      <trkpt lat="51.658065961673856" lon="10.333798974752426">
        <ele>239.50999999999999</ele>
        <time>2017-05-22T12:49:36Z</time>
      </trkpt>
      <trkpt lat="51.65981400758028" lon="10.333566963672638">
        <ele>243.34999999999999</ele>
        <time>2017-05-22T12:49:51Z</time>
      </trkpt>
      <trkpt lat="51.661136001348495" lon="10.333177959546447">
        <ele>243.83000000000001</ele>
        <time>2017-05-22T12:50:01Z</time>
      </trkpt>
      <trkpt lat="51.662242999300361" lon="10.332220997661352">
        <ele>243.83000000000001</ele>
        <time>2017-05-22T12:50:07Z</time>
      </trkpt>
      <trkpt lat="51.663293000310659" lon="10.330231972038746">
        <ele>246.22999999999999</ele>
        <time>2017-05-22T12:50:13Z</time>
      </trkpt>
      <trkpt lat="51.664423970505595" lon="10.326692964881659">
        <ele>246.72</ele>
        <time>2017-05-22T12:50:21Z</time>
      </trkpt>
      <trkpt lat="51.665769014507532" lon="10.32345000654459">
        <ele>241.43000000000001</ele>
        <time>2017-05-22T12:50:29Z</time>
      </trkpt>
      <trkpt lat="51.667571039870381" lon="10.320375021547079">
        <ele>231.81</ele>
        <time>2017-05-22T12:50:37Z</time>
      </trkpt>
      <trkpt lat="51.669302992522717" lon="10.317100966349244">
        <ele>225.09</ele>
        <time>2017-05-22T12:50:44Z</time>
      </trkpt>
      <trkpt lat="51.671256981790066" lon="10.314011983573437">
        <ele>222.19999999999999</ele>
        <time>2017-05-22T12:50:51Z</time>
      </trkpt>
      <trkpt lat="51.673560999333858" lon="10.311658009886742">
        <ele>223.16</ele>
        <time>2017-05-22T12:50:58Z</time>
      </trkpt>
      <trkpt lat="51.675739958882332" lon="10.310284970328212">
        <ele>230.37</ele>
        <time>2017-05-22T12:51:04Z</time>
      </trkpt>
      <trkpt lat="51.679158015176654" lon="10.309043023735285">
        <ele>234.69999999999999</ele>
        <time>2017-05-22T12:51:13Z</time>
      </trkpt>
      <trkpt lat="51.682570958510041" lon="10.30750603415072">
        <ele>237.09999999999999</ele>
        <time>2017-05-22T12:51:22Z</time>
      </trkpt>
      <trkpt lat="51.68505996465683" lon="10.305586997419596">
        <ele>239.50999999999999</ele>
        <time>2017-05-22T12:51:29Z</time>
      </trkpt>
      <trkpt lat="51.687287036329508" lon="10.303009981289506">
        <ele>243.83000000000001</ele>
        <time>2017-05-22T12:51:36Z</time>
      </trkpt>
      <trkpt lat="51.689468007534742" lon="10.299679012969136">
        <ele>248.63999999999999</ele>
        <time>2017-05-22T12:51:44Z</time>
      </trkpt>
      <trkpt lat="51.691747969016433" lon="10.294858999550343">
        <ele>253.44</ele>
        <time>2017-05-22T12:51:54Z</time>
      </trkpt>
      <trkpt lat="51.693927012383938" lon="10.290801990777254">
        <ele>256.32999999999998</ele>
        <time>2017-05-22T12:52:03Z</time>
      </trkpt>
      <trkpt lat="51.695976974442601" lon="10.288313990458846">
        <ele>258.25</ele>
        <time>2017-05-22T12:52:10Z</time>
      </trkpt>
      <trkpt lat="51.697618989273906" lon="10.286711035296321">
        <ele>255.37</ele>
        <time>2017-05-22T12:52:16Z</time>
      </trkpt>
      <trkpt lat="51.699750004336238" lon="10.284667024388909">
        <ele>253.93000000000001</ele>
        <time>2017-05-22T12:52:25Z</time>
      </trkpt>
      <trkpt lat="51.701744981110096" lon="10.282740024849772">
        <ele>252</ele>
        <time>2017-05-22T12:52:35Z</time>
      </trkpt>
      <trkpt lat="51.703533008694649" lon="10.281003965064883">
        <ele>249.59999999999999</ele>
        <time>2017-05-22T12:52:46Z</time>
      </trkpt>
      <trkpt lat="51.705154990777373" lon="10.279402015730739">
        <ele>246.22999999999999</ele>
        <time>2017-05-22T12:52:56Z</time>
      </trkpt>
      <trkpt lat="51.706718970090151" lon="10.278091002255678">
        <ele>243.83000000000001</ele>
        <time>2017-05-22T12:53:06Z</time>
      </trkpt>
      <trkpt lat="51.708053033798933" lon="10.277427993714809">
        <ele>242.87</ele>
        <time>2017-05-22T12:53:14Z</time>
      </trkpt>
      <trkpt lat="51.70976503752172" lon="10.277003031224012">
        <ele>242.87</ele>
        <time>2017-05-22T12:53:23Z</time>
      </trkpt>
      <trkpt lat="51.71054002828896" lon="10.27693597599864">
        <ele>239.02000000000001</ele>
        <time>2017-05-22T12:53:29Z</time>
      </trkpt>
      <trkpt lat="51.710890978574753" lon="10.276873027905822">
        <ele>238.06</ele>
        <time>2017-05-22T12:53:33Z</time>
      </trkpt>
      <trkpt lat="51.711908960714936" lon="10.276832040399313">
        <ele>233.25999999999999</ele>
        <time>2017-05-22T12:53:40Z</time>
      </trkpt>
      <trkpt lat="51.712886961176991" lon="10.276543032377958">
        <ele>236.62</ele>
        <time>2017-05-22T12:53:47Z</time>
      </trkpt>
      <trkpt lat="51.712991986423731" lon="10.276449993252754">
        <ele>237.09999999999999</ele>
        <time>2017-05-22T12:53:48Z</time>
      </trkpt>
      <trkpt lat="51.714048022404313" lon="10.275403009727597">
        <ele>237.09999999999999</ele>
        <time>2017-05-22T12:53:58Z</time>
      </trkpt>
      <trkpt lat="51.715648965910077" lon="10.273827966302633">
        <ele>236.13999999999999</ele>
        <time>2017-05-22T12:54:14Z</time>
      </trkpt>
      <trkpt lat="51.717003984376788" lon="10.272471019998193">
        <ele>235.66</ele>
        <time>2017-05-22T12:54:28Z</time>
      </trkpt>
      <trkpt lat="51.718371994793415" lon="10.271752020344138">
        <ele>236.13999999999999</ele>
        <time>2017-05-22T12:54:40Z</time>
      </trkpt>
      <trkpt lat="51.719354018568993" lon="10.270777959376574">
        <ele>240.47</ele>
        <time>2017-05-22T12:54:49Z</time>
      </trkpt>
      <trkpt lat="51.72001400962472" lon="10.269141979515553">
        <ele>238.06</ele>
        <time>2017-05-22T12:54:58Z</time>
      </trkpt>
      <trkpt lat="51.721011959016323" lon="10.266348039731383">
        <ele>235.18000000000001</ele>
        <time>2017-05-22T12:55:13Z</time>
      </trkpt>
      <trkpt lat="51.721788961440325" lon="10.264094984158874">
        <ele>239.50999999999999</ele>
        <time>2017-05-22T12:55:26Z</time>
      </trkpt>
      <trkpt lat="51.722232028841972" lon="10.262772990390658">
        <ele>240.94999999999999</ele>
        <time>2017-05-22T12:55:34Z</time>
      </trkpt>
      <trkpt lat="51.722985981032252" lon="10.260849008336663">
        <ele>232.78</ele>
        <time>2017-05-22T12:55:47Z</time>
      </trkpt>
      <trkpt lat="51.723177004605532" lon="10.260306028649211">
        <ele>229.88999999999999</ele>
        <time>2017-05-22T12:55:51Z</time>
      </trkpt>
      <trkpt lat="51.723212040960789" lon="10.260138977319002">
        <ele>230.37</ele>
        <time>2017-05-22T12:55:52Z</time>
      </trkpt>
      <trkpt lat="51.723243976011872" lon="10.259972009807825">
        <ele>228.93000000000001</ele>
        <time>2017-05-22T12:55:53Z</time>
      </trkpt>
      <trkpt lat="51.723257973790169" lon="10.259800013154745">
        <ele>229.41</ele>
        <time>2017-05-22T12:55:54Z</time>
      </trkpt>
      <trkpt lat="51.723272977396846" lon="10.259627010673285">
        <ele>228.93000000000001</ele>
        <time>2017-05-22T12:55:55Z</time>
      </trkpt>
      <trkpt lat="51.723350007086992" lon="10.258789993822575">
        <ele>228.44999999999999</ele>
        <time>2017-05-22T12:56:00Z</time>
      </trkpt>
      <trkpt lat="51.723525021225214" lon="10.256865005940199">
        <ele>230.84999999999999</ele>
        <time>2017-05-22T12:56:13Z</time>
      </trkpt>
      <trkpt lat="51.723546981811523" lon="10.256727961823344">
        <ele>231.33000000000001</ele>
        <time>2017-05-22T12:56:14Z</time>
      </trkpt>
      <trkpt lat="51.723580006510019" lon="10.25660902261734">
        <ele>231.81</ele>
        <time>2017-05-22T12:56:15Z</time>
      </trkpt>
      <trkpt lat="51.723626023158431" lon="10.256516989320517">
        <ele>232.30000000000001</ele>
        <time>2017-05-22T12:56:16Z</time>
      </trkpt>
      <trkpt lat="51.723687965422869" lon="10.256438031792641">
        <ele>232.30000000000001</ele>
        <time>2017-05-22T12:56:17Z</time>
      </trkpt>
      <trkpt lat="51.723759965971112" lon="10.256385980173945">
        <ele>233.25999999999999</ele>
        <time>2017-05-22T12:56:18Z</time>
      </trkpt>
      <trkpt lat="51.723843030631542" lon="10.256365025416017">
        <ele>233.74000000000001</ele>
        <time>2017-05-22T12:56:19Z</time>
      </trkpt>
      <trkpt lat="51.723919976502657" lon="10.256362007930875">
        <ele>233.25999999999999</ele>
        <time>2017-05-22T12:56:20Z</time>
      </trkpt>
      <trkpt lat="51.72399097122252" lon="10.256362007930875">
        <ele>233.74000000000001</ele>
        <time>2017-05-22T12:56:21Z</time>
      </trkpt>
      <trkpt lat="51.724535040557384" lon="10.256410958245397">
        <ele>238.06</ele>
        <time>2017-05-22T12:56:28Z</time>
      </trkpt>
      <trkpt lat="51.72478599473834" lon="10.256422022357583">
        <ele>242.87</ele>
        <time>2017-05-22T12:56:32Z</time>
      </trkpt>
      <trkpt lat="51.724829999729991" lon="10.256384974345565">
        <ele>244.31</ele>
        <time>2017-05-22T12:56:33Z</time>
      </trkpt>
      <trkpt lat="51.724852966144681" lon="10.256314985454082">
        <ele>244.31</ele>
        <time>2017-05-22T12:56:34Z</time>
      </trkpt>
      <trkpt lat="51.724867969751358" lon="10.256234016269445">
        <ele>244.31</ele>
        <time>2017-05-22T12:56:35Z</time>
      </trkpt>
      <trkpt lat="51.72487199306488" lon="10.256142988801003">
        <ele>243.34999999999999</ele>
        <time>2017-05-22T12:56:36Z</time>
      </trkpt>
      <trkpt lat="51.72489202581346" lon="10.255969986319542">
        <ele>241.91</ele>
        <time>2017-05-22T12:56:38Z</time>
      </trkpt>
      <trkpt lat="51.724923038855195" lon="10.255907038226724">
        <ele>241.43000000000001</ele>
        <time>2017-05-22T12:56:39Z</time>
      </trkpt>
      <trkpt lat="51.724965032190084" lon="10.25587996467948">
        <ele>241.43000000000001</ele>
        <time>2017-05-22T12:56:40Z</time>
      </trkpt>
      <trkpt lat="51.725005013868213" lon="10.255874013528228">
        <ele>241.43000000000001</ele>
        <time>2017-05-22T12:56:41Z</time>
      </trkpt>
      <trkpt lat="51.725038038566709" lon="10.255881976336241">
        <ele>240.94999999999999</ele>
        <time>2017-05-22T12:56:42Z</time>
      </trkpt>
      <trkpt lat="51.72508698888123" lon="10.255908966064453">
        <ele>240.47</ele>
        <time>2017-05-22T12:56:43Z</time>
      </trkpt>
      <trkpt lat="51.725137028843164" lon="10.255926987156272">
        <ele>239.99000000000001</ele>
        <time>2017-05-22T12:56:44Z</time>
      </trkpt>
      <trkpt lat="51.725197965279222" lon="10.255946014076471">
        <ele>239.02000000000001</ele>
        <time>2017-05-22T12:56:45Z</time>
      </trkpt>
      <trkpt lat="51.725313970819116" lon="10.255959006026387">
        <ele>237.58000000000001</ele>
        <time>2017-05-22T12:56:47Z</time>
      </trkpt>
      <trkpt lat="51.725395023822784" lon="10.255951965227723">
        <ele>236.13999999999999</ele>
        <time>2017-05-22T12:56:48Z</time>
      </trkpt>
      <trkpt lat="51.725483033806086" lon="10.255916006863117">
        <ele>234.69999999999999</ele>
        <time>2017-05-22T12:56:49Z</time>
      </trkpt>
      <trkpt lat="51.725568026304245" lon="10.2558340318501">
        <ele>233.74000000000001</ele>
        <time>2017-05-22T12:56:50Z</time>
      </trkpt>
      <trkpt lat="51.725652012974024" lon="10.255733029916883">
        <ele>232.78</ele>
        <time>2017-05-22T12:56:51Z</time>
      </trkpt>
      <trkpt lat="51.725727031007409" lon="10.25561903603375">
        <ele>232.30000000000001</ele>
        <time>2017-05-22T12:56:52Z</time>
      </trkpt>
      <trkpt lat="51.725891986861825" lon="10.255412003025413">
        <ele>230.37</ele>
        <time>2017-05-22T12:56:54Z</time>
      </trkpt>
      <trkpt lat="51.725981002673507" lon="10.25534201413393">
        <ele>229.41</ele>
        <time>2017-05-22T12:56:55Z</time>
      </trkpt>
      <trkpt lat="51.726057026535273" lon="10.25532097555697">
        <ele>228.93000000000001</ele>
        <time>2017-05-22T12:56:56Z</time>
      </trkpt>
      <trkpt lat="51.726130032911897" lon="10.255344025790691">
        <ele>228.44999999999999</ele>
        <time>2017-05-22T12:56:57Z</time>
      </trkpt>
      <trkpt lat="51.726208990439773" lon="10.255389958620071">
        <ele>227.97</ele>
        <time>2017-05-22T12:56:58Z</time>
      </trkpt>
      <trkpt lat="51.72629096545279" lon="10.255445027723908">
        <ele>227.97</ele>
        <time>2017-05-22T12:56:59Z</time>
      </trkpt>
      <trkpt lat="51.726348968222737" lon="10.255496995523572">
        <ele>227.49000000000001</ele>
        <time>2017-05-22T12:57:00Z</time>
      </trkpt>
      <trkpt lat="51.726462040096521" lon="10.255567990243435">
        <ele>227.00999999999999</ele>
        <time>2017-05-22T12:57:02Z</time>
      </trkpt>
      <trkpt lat="51.726612998172641" lon="10.255663963034749">
        <ele>226.05000000000001</ele>
        <time>2017-05-22T12:57:05Z</time>
      </trkpt>
      <trkpt lat="51.72680301591754" lon="10.255820034071803">
        <ele>227.00999999999999</ele>
        <time>2017-05-22T12:57:08Z</time>
      </trkpt>
      <trkpt lat="51.726980041712523" lon="10.255991024896502">
        <ele>227.00999999999999</ele>
        <time>2017-05-22T12:57:11Z</time>
      </trkpt>
      <trkpt lat="51.727033015340567" lon="10.256064031273127">
        <ele>226.53</ele>
        <time>2017-05-22T12:57:12Z</time>
      </trkpt>
      <trkpt lat="51.727095963433385" lon="10.256120022386312">
        <ele>226.05000000000001</ele>
        <time>2017-05-22T12:57:13Z</time>
      </trkpt>
      <trkpt lat="51.727152038365602" lon="10.25615899823606">
        <ele>226.05000000000001</ele>
        <time>2017-05-22T12:57:14Z</time>
      </trkpt>
      <trkpt lat="51.727214986458421" lon="10.256190011277795">
        <ele>225.56999999999999</ele>
        <time>2017-05-22T12:57:15Z</time>
      </trkpt>
      <trkpt lat="51.727313976734877" lon="10.256249019876122">
        <ele>225.56999999999999</ele>
        <time>2017-05-22T12:57:17Z</time>
      </trkpt>
      <trkpt lat="51.727336021140218" lon="10.256300987675786">
        <ele>224.61000000000001</ele>
        <time>2017-05-22T12:57:18Z</time>
      </trkpt>
      <trkpt lat="51.727351024746895" lon="10.25635102763772">
        <ele>225.09</ele>
        <time>2017-05-22T12:57:19Z</time>
      </trkpt>
      <trkpt lat="51.727344989776611" lon="10.256409030407667">
        <ele>224.61000000000001</ele>
        <time>2017-05-22T12:57:20Z</time>
      </trkpt>
      <trkpt lat="51.72736301086843" lon="10.256457980722189">
        <ele>222.19999999999999</ele>
        <time>2017-05-22T12:57:28Z</time>
      </trkpt>
      <trkpt lat="51.72736301086843" lon="10.256468039005995">
        <ele>221.72</ele>
        <time>2017-05-22T12:57:33Z</time>
      </trkpt>
      <trkpt lat="51.727348007261753" lon="10.256520006805658">
        <ele>221.72</ele>
        <time>2017-05-22T12:57:34Z</time>
      </trkpt>
      <trkpt lat="51.727266032248735" lon="10.256779007613659">
        <ele>221.24000000000001</ele>
        <time>2017-05-22T12:57:37Z</time>
      </trkpt>
      <trkpt lat="51.726835034787655" lon="10.257838983088732">
        <ele>221.72</ele>
        <time>2017-05-22T12:57:47Z</time>
      </trkpt>
      <trkpt lat="51.726807961240411" lon="10.2579649630934">
        <ele>221.72</ele>
        <time>2017-05-22T12:57:48Z</time>
      </trkpt>
      <trkpt lat="51.726484000682831" lon="10.25953103788197">
        <ele>221.24000000000001</ele>
        <time>2017-05-22T12:58:00Z</time>
      </trkpt>
      <trkpt lat="51.72641702927649" lon="10.25961996987462">
        <ele>221.24000000000001</ele>
        <time>2017-05-22T12:58:01Z</time>
      </trkpt>
      <trkpt lat="51.726357014849782" lon="10.259729018434882">
        <ele>223.16</ele>
        <time>2017-05-22T12:58:02Z</time>
      </trkpt>
      <trkpt lat="51.72628995962441" lon="10.259817028418183">
        <ele>223.63999999999999</ele>
        <time>2017-05-22T12:58:03Z</time>
      </trkpt>
      <trkpt lat="51.726233968511224" lon="10.259886011481285">
        <ele>224.61000000000001</ele>
        <time>2017-05-22T12:58:04Z</time>
      </trkpt>
      <trkpt lat="51.726188035681844" lon="10.259913001209497">
        <ele>225.09</ele>
        <time>2017-05-22T12:58:05Z</time>
      </trkpt>
      <trkpt lat="51.726152999326587" lon="10.259925993159413">
        <ele>225.09</ele>
        <time>2017-05-22T12:58:06Z</time>
      </trkpt>
      <trkpt lat="51.726130032911897" lon="10.259932028129697">
        <ele>225.56999999999999</ele>
        <time>2017-05-22T12:58:07Z</time>
      </trkpt>
      <trkpt lat="51.726080998778343" lon="10.260011991485953">
        <ele>225.56999999999999</ele>
        <time>2017-05-22T12:58:15Z</time>
      </trkpt>
      <trkpt lat="51.72607203014195" lon="10.260083992034197">
        <ele>226.05000000000001</ele>
        <time>2017-05-22T12:58:16Z</time>
      </trkpt>
      <trkpt lat="51.726078987121582" lon="10.260164961218834">
        <ele>226.05000000000001</ele>
        <time>2017-05-22T12:58:17Z</time>
      </trkpt>
      <trkpt lat="51.726195998489857" lon="10.260769966989756">
        <ele>227.00999999999999</ele>
        <time>2017-05-22T12:58:26Z</time>
      </trkpt>
      <trkpt lat="51.726200021803379" lon="10.260834004729986">
        <ele>227.97</ele>
        <time>2017-05-22T12:58:39Z</time>
      </trkpt>
      <trkpt lat="51.726198010146618" lon="10.26120699942112">
        <ele>228.44999999999999</ele>
        <time>2017-05-22T12:58:50Z</time>
      </trkpt>
      <trkpt lat="51.726176971569657" lon="10.261539006605744">
        <ele>228.93000000000001</ele>
        <time>2017-05-22T12:58:53Z</time>
      </trkpt>
      <trkpt lat="51.726187029853463" lon="10.261642020195723">
        <ele>229.41</ele>
        <time>2017-05-22T12:58:54Z</time>
      </trkpt>
      <trkpt lat="51.726211002096534" lon="10.261727012693882">
        <ele>229.41</ele>
        <time>2017-05-22T12:58:55Z</time>
      </trkpt>
      <trkpt lat="51.726254001259804" lon="10.261792978271842">
        <ele>229.41</ele>
        <time>2017-05-22T12:58:56Z</time>
      </trkpt>
      <trkpt lat="51.726312004029751" lon="10.261838994920254">
        <ele>229.41</ele>
        <time>2017-05-22T12:58:57Z</time>
      </trkpt>
      <trkpt lat="51.726375035941601" lon="10.261889034882188">
        <ele>229.41</ele>
        <time>2017-05-22T12:58:58Z</time>
      </trkpt>
      <trkpt lat="51.726604029536247" lon="10.262027001008391">
        <ele>229.41</ele>
        <time>2017-05-22T12:59:01Z</time>
      </trkpt>
      <trkpt lat="51.727604996412992" lon="10.26247400790453">
        <ele>228.93000000000001</ele>
        <time>2017-05-22T12:59:13Z</time>
      </trkpt>
      <trkpt lat="51.727928034961224" lon="10.262627983465791">
        <ele>227.97</ele>
        <time>2017-05-22T12:59:19Z</time>
      </trkpt>
      <trkpt lat="51.727976985275745" lon="10.262736026197672">
        <ele>228.44999999999999</ele>
        <time>2017-05-22T12:59:20Z</time>
      </trkpt>
      <trkpt lat="51.728000035509467" lon="10.262844990938902">
        <ele>228.44999999999999</ele>
        <time>2017-05-22T12:59:21Z</time>
      </trkpt>
      <trkpt lat="51.728010009974241" lon="10.263131987303495">
        <ele>228.93000000000001</ele>
        <time>2017-05-22T12:59:23Z</time>
      </trkpt>
      <trkpt lat="51.727902973070741" lon="10.265057981014252">
        <ele>228.93000000000001</ele>
        <time>2017-05-22T12:59:35Z</time>
      </trkpt>
      <trkpt lat="51.727846981957555" lon="10.265524014830589">
        <ele>230.84999999999999</ele>
        <time>2017-05-22T12:59:38Z</time>
      </trkpt>
      <trkpt lat="51.727727958932519" lon="10.267226966097951">
        <ele>232.30000000000001</ele>
        <time>2017-05-22T12:59:47Z</time>
      </trkpt>
      <trkpt lat="51.727525033056736" lon="10.270160967484117">
        <ele>234.69999999999999</ele>
        <time>2017-05-22T13:00:00Z</time>
      </trkpt>
      <trkpt lat="51.727536013349891" lon="10.272864969447255">
        <ele>234.22</ele>
        <time>2017-05-22T13:00:10Z</time>
      </trkpt>
      <trkpt lat="51.727651013061404" lon="10.277267983183265">
        <ele>237.09999999999999</ele>
        <time>2017-05-22T13:00:24Z</time>
      </trkpt>
      <trkpt lat="51.727746985852718" lon="10.280840015038848">
        <ele>240.47</ele>
        <time>2017-05-22T13:00:36Z</time>
      </trkpt>
      <trkpt lat="51.728054014965892" lon="10.284065958112478">
        <ele>243.34999999999999</ele>
        <time>2017-05-22T13:00:47Z</time>
      </trkpt>
      <trkpt lat="51.728719035163522" lon="10.287061985582113">
        <ele>246.72</ele>
        <time>2017-05-22T13:00:55Z</time>
      </trkpt>
      <trkpt lat="51.728844009339809" lon="10.287451995536685">
        <ele>246.72</ele>
        <time>2017-05-22T13:00:56Z</time>
      </trkpt>
      <trkpt lat="51.728990022093058" lon="10.287825996056199">
        <ele>247.19999999999999</ele>
        <time>2017-05-22T13:00:57Z</time>
      </trkpt>
      <trkpt lat="51.730339005589485" lon="10.290505019947886">
        <ele>251.03999999999999</ele>
        <time>2017-05-22T13:01:05Z</time>
      </trkpt>
      <trkpt lat="51.732103982940316" lon="10.293503981083632">
        <ele>254.41</ele>
        <time>2017-05-22T13:01:15Z</time>
      </trkpt>
      <trkpt lat="51.733518010005355" lon="10.295729041099548">
        <ele>254.88999999999999</ele>
        <time>2017-05-22T13:01:23Z</time>
      </trkpt>
      <trkpt lat="51.734722992405295" lon="10.298182005062699">
        <ele>252.47999999999999</ele>
        <time>2017-05-22T13:01:31Z</time>
      </trkpt>
      <trkpt lat="51.734830029308796" lon="10.298492973670363">
        <ele>252</ele>
        <time>2017-05-22T13:01:32Z</time>
      </trkpt>
      <trkpt lat="51.734956009313464" lon="10.29878600500524">
        <ele>251.52000000000001</ele>
        <time>2017-05-22T13:01:33Z</time>
      </trkpt>
      <trkpt lat="51.735113002359867" lon="10.299074007198215">
        <ele>251.52000000000001</ele>
        <time>2017-05-22T13:01:34Z</time>
      </trkpt>
      <trkpt lat="51.735263038426638" lon="10.299350023269653">
        <ele>251.52000000000001</ele>
        <time>2017-05-22T13:01:35Z</time>
      </trkpt>
      <trkpt lat="51.735433023422956" lon="10.299620004370809">
        <ele>251.52000000000001</ele>
        <time>2017-05-22T13:01:36Z</time>
      </trkpt>
      <trkpt lat="51.735666040331125" lon="10.29979501850903">
        <ele>252</ele>
        <time>2017-05-22T13:01:37Z</time>
      </trkpt>
      <trkpt lat="51.735867960378528" lon="10.300001967698336">
        <ele>252</ele>
        <time>2017-05-22T13:01:38Z</time>
      </trkpt>
      <trkpt lat="51.736845038831234" lon="10.30106496065855">
        <ele>252</ele>
        <time>2017-05-22T13:01:44Z</time>
      </trkpt>
      <trkpt lat="51.736974958330393" lon="10.301239974796772">
        <ele>252</ele>
        <time>2017-05-22T13:01:45Z</time>
      </trkpt>
      <trkpt lat="51.737089036032557" lon="10.301446001976728">
        <ele>251.52000000000001</ele>
        <time>2017-05-22T13:01:46Z</time>
      </trkpt>
      <trkpt lat="51.738096037879586" lon="10.303654968738556">
        <ele>255.84999999999999</ele>
        <time>2017-05-22T13:01:56Z</time>
      </trkpt>
      <trkpt lat="51.738667013123631" lon="10.305001018568873">
        <ele>259.69</ele>
        <time>2017-05-22T13:02:02Z</time>
      </trkpt>
      <trkpt lat="51.738807996734977" lon="10.305536035448313">
        <ele>261.13999999999999</ele>
        <time>2017-05-22T13:02:04Z</time>
      </trkpt>
      <trkpt lat="51.739044031128287" lon="10.306661976501346">
        <ele>263.54000000000002</ele>
        <time>2017-05-22T13:02:08Z</time>
      </trkpt>
      <trkpt lat="51.739076972007751" lon="10.306921983137727">
        <ele>264.01999999999998</ele>
        <time>2017-05-22T13:02:09Z</time>
      </trkpt>
      <trkpt lat="51.739083006978035" lon="10.307181989774108">
        <ele>264.98000000000002</ele>
        <time>2017-05-22T13:02:10Z</time>
      </trkpt>
      <trkpt lat="51.739087030291557" lon="10.307430010288954">
        <ele>266.42000000000002</ele>
        <time>2017-05-22T13:02:11Z</time>
      </trkpt>
      <trkpt lat="51.739066997542977" lon="10.307677024975419">
        <ele>267.86000000000001</ele>
        <time>2017-05-22T13:02:12Z</time>
      </trkpt>
      <trkpt lat="51.739034978672862" lon="10.307921022176743">
        <ele>268.82999999999998</ele>
        <time>2017-05-22T13:02:13Z</time>
      </trkpt>
      <trkpt lat="51.739025004208088" lon="10.308123026043177">
        <ele>269.79000000000002</ele>
        <time>2017-05-22T13:02:14Z</time>
      </trkpt>
      <trkpt lat="51.739022992551327" lon="10.308322012424469">
        <ele>270.75</ele>
        <time>2017-05-22T13:02:15Z</time>
      </trkpt>
      <trkpt lat="51.73903196118772" lon="10.308524016290903">
        <ele>270.75</ele>
        <time>2017-05-22T13:02:16Z</time>
      </trkpt>
      <trkpt lat="51.739063980057836" lon="10.308724008500576">
        <ele>270.75</ele>
        <time>2017-05-22T13:02:17Z</time>
      </trkpt>
      <trkpt lat="51.73913799226284" lon="10.308881001546979">
        <ele>271.23000000000002</ele>
        <time>2017-05-22T13:02:18Z</time>
      </trkpt>
      <trkpt lat="51.739245029166341" lon="10.309015028178692">
        <ele>273.14999999999998</ele>
        <time>2017-05-22T13:02:19Z</time>
      </trkpt>
      <trkpt lat="51.739370003342628" lon="10.309084011241794">
        <ele>274.58999999999997</ele>
        <time>2017-05-22T13:02:20Z</time>
      </trkpt>
      <trkpt lat="51.739519033581018" lon="10.309051992371678">
        <ele>274.58999999999997</ele>
        <time>2017-05-22T13:02:21Z</time>
      </trkpt>
      <trkpt lat="51.739651970565319" lon="10.308959959074855">
        <ele>275.06999999999999</ele>
        <time>2017-05-22T13:02:22Z</time>
      </trkpt>
      <trkpt lat="51.73975900746882" lon="10.3088160417974">
        <ele>275.56</ele>
        <time>2017-05-22T13:02:23Z</time>
      </trkpt>
      <trkpt lat="51.73980301246047" lon="10.308637004345655">
        <ele>276.04000000000002</ele>
        <time>2017-05-22T13:02:24Z</time>
      </trkpt>
      <trkpt lat="51.739794965833426" lon="10.30843198299408">
        <ele>277</ele>
        <time>2017-05-22T13:02:25Z</time>
      </trkpt>
      <trkpt lat="51.739766970276833" lon="10.308193014934659">
        <ele>277.95999999999998</ele>
        <time>2017-05-22T13:02:26Z</time>
      </trkpt>
      <trkpt lat="51.739704022184014" lon="10.307956980541348">
        <ele>278.44</ele>
        <time>2017-05-22T13:02:27Z</time>
      </trkpt>
      <trkpt lat="51.739623975008726" lon="10.307708038017154">
        <ele>278.92000000000002</ele>
        <time>2017-05-22T13:02:28Z</time>
      </trkpt>
      <trkpt lat="51.739446027204394" lon="10.307172015309334">
        <ele>280.83999999999997</ele>
        <time>2017-05-22T13:02:30Z</time>
      </trkpt>
      <trkpt lat="51.739060962572694" lon="10.304884007200599">
        <ele>286.61000000000001</ele>
        <time>2017-05-22T13:02:37Z</time>
      </trkpt>
      <trkpt lat="51.739044031128287" lon="10.304568009451032">
        <ele>287.08999999999997</ele>
        <time>2017-05-22T13:02:38Z</time>
      </trkpt>
      <trkpt lat="51.738997008651495" lon="10.303968032822013">
        <ele>288.52999999999997</ele>
        <time>2017-05-22T13:02:40Z</time>
      </trkpt>
      <trkpt lat="51.738933976739645" lon="10.303670978173614">
        <ele>289.49000000000001</ele>
        <time>2017-05-22T13:02:41Z</time>
      </trkpt>
      <trkpt lat="51.738756028935313" lon="10.302848964929581">
        <ele>292.86000000000001</ele>
        <time>2017-05-22T13:02:44Z</time>
      </trkpt>
      <trkpt lat="51.738744964823127" lon="10.302602034062147">
        <ele>293.81999999999999</ele>
        <time>2017-05-22T13:02:45Z</time>
      </trkpt>
      <trkpt lat="51.738764997571707" lon="10.302370022982359">
        <ele>295.74000000000001</ele>
        <time>2017-05-22T13:02:46Z</time>
      </trkpt>
      <trkpt lat="51.738804979249835" lon="10.302189979702234">
        <ele>296.22000000000003</ele>
        <time>2017-05-22T13:02:47Z</time>
      </trkpt>
      <trkpt lat="51.738855019211769" lon="10.302036004140973">
        <ele>297.18000000000001</ele>
        <time>2017-05-22T13:02:48Z</time>
      </trkpt>
      <trkpt lat="51.738930037245154" lon="10.301927961409092">
        <ele>297.67000000000002</ele>
        <time>2017-05-22T13:02:49Z</time>
      </trkpt>
      <trkpt lat="51.739020980894566" lon="10.301849003881216">
        <ele>298.63</ele>
        <time>2017-05-22T13:02:50Z</time>
      </trkpt>
      <trkpt lat="51.739102033898234" lon="10.301786977797747">
        <ele>299.11000000000001</ele>
        <time>2017-05-22T13:02:51Z</time>
      </trkpt>
      <trkpt lat="51.739246034994721" lon="10.301830982789397">
        <ele>299.58999999999997</ele>
        <time>2017-05-22T13:02:52Z</time>
      </trkpt>
      <trkpt lat="51.739456001669168" lon="10.301984958350658">
        <ele>299.58999999999997</ele>
        <time>2017-05-22T13:02:53Z</time>
      </trkpt>
      <trkpt lat="51.739494977518916" lon="10.30220196582377">
        <ele>299.58999999999997</ele>
        <time>2017-05-22T13:02:54Z</time>
      </trkpt>
      <trkpt lat="51.739546023309231" lon="10.302404975518584">
        <ele>300.06999999999999</ele>
        <time>2017-05-22T13:02:55Z</time>
      </trkpt>
      <trkpt lat="51.739596985280514" lon="10.302612008526921">
        <ele>300.55000000000001</ele>
        <time>2017-05-22T13:02:56Z</time>
      </trkpt>
      <trkpt lat="51.739589022472501" lon="10.302828010171652">
        <ele>301.02999999999997</ele>
        <time>2017-05-22T13:02:57Z</time>
      </trkpt>
      <trkpt lat="51.739549040794373" lon="10.303043005988002">
        <ele>301.02999999999997</ele>
        <time>2017-05-22T13:02:58Z</time>
      </trkpt>
      <trkpt lat="51.739522973075509" lon="10.303218020126224">
        <ele>301.50999999999999</ele>
        <time>2017-05-22T13:02:59Z</time>
      </trkpt>
      <trkpt lat="51.739506963640451" lon="10.303365960717201">
        <ele>302.94999999999999</ele>
        <time>2017-05-22T13:03:00Z</time>
      </trkpt>
      <trkpt lat="51.739425994455814" lon="10.303636025637388">
        <ele>303.43000000000001</ele>
        <time>2017-05-22T13:03:02Z</time>
      </trkpt>
      <trkpt lat="51.739393975585699" lon="10.303780026733875">
        <ele>303.43000000000001</ele>
        <time>2017-05-22T13:03:03Z</time>
      </trkpt>
      <trkpt lat="51.739327004179358" lon="10.304273972287774">
        <ele>305.36000000000001</ele>
        <time>2017-05-22T13:03:08Z</time>
      </trkpt>
      <trkpt lat="51.739328010007739" lon="10.304353013634682">
        <ele>305.36000000000001</ele>
        <time>2017-05-22T13:03:09Z</time>
      </trkpt>
      <trkpt lat="51.739333039149642" lon="10.304444041103125">
        <ele>306.80000000000001</ele>
        <time>2017-05-22T13:03:17Z</time>
      </trkpt>
      <trkpt lat="51.739338990300894" lon="10.304504977539182">
        <ele>306.80000000000001</ele>
        <time>2017-05-22T13:03:46Z</time>
      </trkpt>
      <trkpt lat="51.739420965313911" lon="10.30516698025167">
        <ele>307.75999999999999</ele>
        <time>2017-05-22T13:03:51Z</time>
      </trkpt>
      <trkpt lat="51.739890016615391" lon="10.306545970961452">
        <ele>308.72000000000003</ele>
        <time>2017-05-22T13:03:59Z</time>
      </trkpt>
      <trkpt lat="51.739967968314886" lon="10.306724002584815">
        <ele>308.72000000000003</ele>
        <time>2017-05-22T13:04:00Z</time>
      </trkpt>
      <trkpt lat="51.740666013211012" lon="10.307943988591433">
        <ele>308.24000000000001</ele>
        <time>2017-05-22T13:04:08Z</time>
      </trkpt>
      <trkpt lat="51.740717981010675" lon="10.308101987466216">
        <ele>307.75999999999999</ele>
        <time>2017-05-22T13:04:09Z</time>
      </trkpt>
      <trkpt lat="51.740802973508835" lon="10.308365011587739">
        <ele>308.24000000000001</ele>
        <time>2017-05-22T13:04:11Z</time>
      </trkpt>
      <trkpt lat="51.74081102013588" lon="10.308470958843827">
        <ele>309.19999999999999</ele>
        <time>2017-05-22T13:04:12Z</time>
      </trkpt>
      <trkpt lat="51.740798028185964" lon="10.308557962998748">
        <ele>308.72000000000003</ele>
        <time>2017-05-22T13:04:13Z</time>
      </trkpt>
      <trkpt lat="51.740783024579287" lon="10.308634992688894">
        <ele>308.72000000000003</ele>
        <time>2017-05-22T13:04:14Z</time>
      </trkpt>
      <trkpt lat="51.740779001265764" lon="10.308702969923615">
        <ele>308.24000000000001</ele>
        <time>2017-05-22T13:04:15Z</time>
      </trkpt>
      <trkpt lat="51.740777995437384" lon="10.308841019868851">
        <ele>307.75999999999999</ele>
        <time>2017-05-22T13:04:17Z</time>
      </trkpt>
      <trkpt lat="51.740767015144229" lon="10.309079987928271">
        <ele>309.19999999999999</ele>
        <time>2017-05-22T13:04:20Z</time>
      </trkpt>
      <trkpt lat="51.740767015144229" lon="10.309151988476515">
        <ele>309.68000000000001</ele>
        <time>2017-05-22T13:04:21Z</time>
      </trkpt>
      <trkpt lat="51.740829963237047" lon="10.309758000075817">
        <ele>313.52999999999997</ele>
        <time>2017-05-22T13:04:33Z</time>
      </trkpt>
      <trkpt lat="51.740815965458751" lon="10.309840980917215">
        <ele>315.44999999999999</ele>
        <time>2017-05-22T13:04:44Z</time>
      </trkpt>
      <trkpt lat="51.740799034014344" lon="10.308848982676864">
        <ele>318.81</ele>
        <time>2017-05-22T13:17:25Z</time>
      </trkpt>
      <trkpt lat="51.740817977115512" lon="10.308740017935634">
        <ele>318.81</ele>
        <time>2017-05-22T13:17:27Z</time>
      </trkpt>
      <trkpt lat="51.740892995148897" lon="10.30873297713697">
        <ele>317.37</ele>
        <time>2017-05-22T13:17:30Z</time>
      </trkpt>
      <trkpt lat="51.740918979048729" lon="10.308788968250155">
        <ele>316.88999999999999</ele>
        <time>2017-05-22T13:17:31Z</time>
      </trkpt>
      <trkpt lat="51.74094102345407" lon="10.30886298045516">
        <ele>316.88999999999999</ele>
        <time>2017-05-22T13:17:32Z</time>
      </trkpt>
      <trkpt lat="51.740953009575605" lon="10.308959037065506">
        <ele>317.85000000000002</ele>
        <time>2017-05-22T13:17:33Z</time>
      </trkpt>
      <trkpt lat="51.741014029830694" lon="10.309154000133276">
        <ele>317.37</ele>
        <time>2017-05-22T13:17:35Z</time>
      </trkpt>
      <trkpt lat="51.741064991801977" lon="10.309251984581351">
        <ele>317.37</ele>
        <time>2017-05-22T13:17:36Z</time>
      </trkpt>
      <trkpt lat="51.741128023713827" lon="10.30935600399971">
        <ele>317.37</ele>
        <time>2017-05-22T13:17:37Z</time>
      </trkpt>
      <trkpt lat="51.741196000948548" lon="10.309447031468153">
        <ele>317.37</ele>
        <time>2017-05-22T13:17:38Z</time>
      </trkpt>
      <trkpt lat="51.741277975961566" lon="10.309518026188016">
        <ele>317.37</ele>
        <time>2017-05-22T13:17:39Z</time>
      </trkpt>
      <trkpt lat="51.741363974288106" lon="10.309564964845777">
        <ele>317.37</ele>
        <time>2017-05-22T13:17:40Z</time>
      </trkpt>
      <trkpt lat="51.741460030898452" lon="10.309592038393021">
        <ele>317.37</ele>
        <time>2017-05-22T13:17:41Z</time>
      </trkpt>
      <trkpt lat="51.741562960669398" lon="10.309596983715892">
        <ele>317.37</ele>
        <time>2017-05-22T13:17:42Z</time>
      </trkpt>
      <trkpt lat="51.741691036149859" lon="10.309547027572989">
        <ele>317.85000000000002</ele>
        <time>2017-05-22T13:17:43Z</time>
      </trkpt>
      <trkpt lat="51.741802012547851" lon="10.309498999267817">
        <ele>318.32999999999998</ele>
        <time>2017-05-22T13:17:44Z</time>
      </trkpt>
      <trkpt lat="51.741916006430984" lon="10.309447031468153">
        <ele>318.32999999999998</ele>
        <time>2017-05-22T13:17:45Z</time>
      </trkpt>
      <trkpt lat="51.742440965026617" lon="10.309286015108228">
        <ele>320.25999999999999</ele>
        <time>2017-05-22T13:17:49Z</time>
      </trkpt>
      <trkpt lat="51.74257499165833" lon="10.309284003451467">
        <ele>320.74000000000001</ele>
        <time>2017-05-22T13:17:50Z</time>
      </trkpt>
      <trkpt lat="51.742715975269675" lon="10.309330020099878">
        <ele>321.22000000000003</ele>
        <time>2017-05-22T13:17:51Z</time>
      </trkpt>
      <trkpt lat="51.742980005219579" lon="10.309465974569321">
        <ele>321.22000000000003</ele>
        <time>2017-05-22T13:17:53Z</time>
      </trkpt>
      <trkpt lat="51.744007039815187" lon="10.310069974511862">
        <ele>321.69999999999999</ele>
        <time>2017-05-22T13:18:01Z</time>
      </trkpt>
      <trkpt lat="51.744097983464599" lon="10.310183968394995">
        <ele>321.69999999999999</ele>
        <time>2017-05-22T13:18:02Z</time>
      </trkpt>
      <trkpt lat="51.744137965142727" lon="10.310354037210345">
        <ele>321.22000000000003</ele>
        <time>2017-05-22T13:18:03Z</time>
      </trkpt>
      <trkpt lat="51.744168978184462" lon="10.310540031641722">
        <ele>321.22000000000003</ele>
        <time>2017-05-22T13:18:04Z</time>
      </trkpt>
      <trkpt lat="51.744190016761422" lon="10.310716973617673">
        <ele>321.22000000000003</ele>
        <time>2017-05-22T13:18:05Z</time>
      </trkpt>
      <trkpt lat="51.744195967912674" lon="10.310901962220669">
        <ele>321.22000000000003</ele>
        <time>2017-05-22T13:18:06Z</time>
      </trkpt>
      <trkpt lat="51.744190016761422" lon="10.311078988015652">
        <ele>321.22000000000003</ele>
        <time>2017-05-22T13:18:07Z</time>
      </trkpt>
      <trkpt lat="51.744138970971107" lon="10.311395991593599">
        <ele>321.22000000000003</ele>
        <time>2017-05-22T13:18:09Z</time>
      </trkpt>
      <trkpt lat="51.7440340295434" lon="10.311539992690086">
        <ele>321.22000000000003</ele>
        <time>2017-05-22T13:18:10Z</time>
      </trkpt>
      <trkpt lat="51.743883993476629" lon="10.311680976301432">
        <ele>321.22000000000003</ele>
        <time>2017-05-22T13:18:11Z</time>
      </trkpt>
      <trkpt lat="51.743494989350438" lon="10.312138041481376">
        <ele>321.22000000000003</ele>
        <time>2017-05-22T13:18:14Z</time>
      </trkpt>
      <trkpt lat="51.743342019617558" lon="10.312273995950818">
        <ele>321.22000000000003</ele>
        <time>2017-05-22T13:18:15Z</time>
      </trkpt>
      <trkpt lat="51.743179997429252" lon="10.312382038682699">
        <ele>321.22000000000003</ele>
        <time>2017-05-22T13:18:16Z</time>
      </trkpt>
      <trkpt lat="51.743005989119411" lon="10.312462002038956">
        <ele>321.22000000000003</ele>
        <time>2017-05-22T13:18:17Z</time>
      </trkpt>
      <trkpt lat="51.742793004959822" lon="10.312542971223593">
        <ele>321.22000000000003</ele>
        <time>2017-05-22T13:18:18Z</time>
      </trkpt>
      <trkpt lat="51.742261005565524" lon="10.31279400922358">
        <ele>321.69999999999999</ele>
        <time>2017-05-22T13:18:21Z</time>
      </trkpt>
      <trkpt lat="51.742098983377218" lon="10.312933987006545">
        <ele>322.18000000000001</ele>
        <time>2017-05-22T13:18:22Z</time>
      </trkpt>
      <trkpt lat="51.74195003695786" lon="10.313105983659625">
        <ele>323.13999999999999</ele>
        <time>2017-05-22T13:18:23Z</time>
      </trkpt>
      <trkpt lat="51.74145701341331" lon="10.3136339597404">
        <ele>326.01999999999998</ele>
        <time>2017-05-22T13:18:27Z</time>
      </trkpt>
      <trkpt lat="51.741372020915151" lon="10.313797993585467">
        <ele>326.5</ele>
        <time>2017-05-22T13:18:28Z</time>
      </trkpt>
      <trkpt lat="51.741314018145204" lon="10.313994968309999">
        <ele>326.99000000000001</ele>
        <time>2017-05-22T13:18:29Z</time>
      </trkpt>
      <trkpt lat="51.741270013153553" lon="10.314204012975097">
        <ele>326.99000000000001</ele>
        <time>2017-05-22T13:18:30Z</time>
      </trkpt>
      <trkpt lat="51.741262972354889" lon="10.314420014619827">
        <ele>326.99000000000001</ele>
        <time>2017-05-22T13:18:31Z</time>
      </trkpt>
      <trkpt lat="51.741281999275088" lon="10.314636016264558">
        <ele>326.01999999999998</ele>
        <time>2017-05-22T13:18:32Z</time>
      </trkpt>
      <trkpt lat="51.741318963468075" lon="10.314842965453863">
        <ele>325.54000000000002</ele>
        <time>2017-05-22T13:18:33Z</time>
      </trkpt>
      <trkpt lat="51.741375038400292" lon="10.315047986805439">
        <ele>325.06</ele>
        <time>2017-05-22T13:18:34Z</time>
      </trkpt>
      <trkpt lat="51.741470005363226" lon="10.315225012600422">
        <ele>324.57999999999998</ele>
        <time>2017-05-22T13:18:35Z</time>
      </trkpt>
      <trkpt lat="51.741579975932837" lon="10.31539298593998">
        <ele>324.10000000000002</ele>
        <time>2017-05-22T13:18:36Z</time>
      </trkpt>
      <trkpt lat="51.741704028099775" lon="10.315550984814763">
        <ele>323.13999999999999</ele>
        <time>2017-05-22T13:18:37Z</time>
      </trkpt>
      <trkpt lat="51.742610028013587" lon="10.316656976938248">
        <ele>317.85000000000002</ele>
        <time>2017-05-22T13:18:43Z</time>
      </trkpt>
      <trkpt lat="51.743379989638925" lon="10.317503968253732">
        <ele>315.93000000000001</ele>
        <time>2017-05-22T13:18:48Z</time>
      </trkpt>
      <trkpt lat="51.743508987128735" lon="10.317589966580272">
        <ele>315.44999999999999</ele>
        <time>2017-05-22T13:18:49Z</time>
      </trkpt>
      <trkpt lat="51.743642007932067" lon="10.317631959915161">
        <ele>314.97000000000003</ele>
        <time>2017-05-22T13:18:50Z</time>
      </trkpt>
      <trkpt lat="51.743771005421877" lon="10.317623997107148">
        <ele>314.49000000000001</ele>
        <time>2017-05-22T13:18:51Z</time>
      </trkpt>
      <trkpt lat="51.743903020396829" lon="10.317560965195298">
        <ele>313.52999999999997</ele>
        <time>2017-05-22T13:18:52Z</time>
      </trkpt>
      <trkpt lat="51.744006033986807" lon="10.317471027374268">
        <ele>313.05000000000001</ele>
        <time>2017-05-22T13:18:53Z</time>
      </trkpt>
      <trkpt lat="51.74410100094974" lon="10.317384023219347">
        <ele>312.08999999999997</ele>
        <time>2017-05-22T13:18:54Z</time>
      </trkpt>
      <trkpt lat="51.744202002882957" lon="10.317324008792639">
        <ele>311.12</ele>
        <time>2017-05-22T13:18:55Z</time>
      </trkpt>
      <trkpt lat="51.744325971230865" lon="10.317298024892807">
        <ele>310.63999999999999</ele>
        <time>2017-05-22T13:18:56Z</time>
      </trkpt>
      <trkpt lat="51.744432002305984" lon="10.317319985479116">
        <ele>310.16000000000003</ele>
        <time>2017-05-22T13:18:57Z</time>
      </trkpt>
      <trkpt lat="51.74455102533102" lon="10.317354016005993">
        <ele>309.68000000000001</ele>
        <time>2017-05-22T13:18:58Z</time>
      </trkpt>
      <trkpt lat="51.744654960930347" lon="10.317428028210998">
        <ele>309.68000000000001</ele>
        <time>2017-05-22T13:18:59Z</time>
      </trkpt>
      <trkpt lat="51.744742970913649" lon="10.317532969638705">
        <ele>308.72000000000003</ele>
        <time>2017-05-22T13:19:00Z</time>
      </trkpt>
      <trkpt lat="51.744795022532344" lon="10.317681999877095">
        <ele>308.24000000000001</ele>
        <time>2017-05-22T13:19:01Z</time>
      </trkpt>
      <trkpt lat="51.744840033352375" lon="10.317851984873414">
        <ele>307.75999999999999</ele>
        <time>2017-05-22T13:19:02Z</time>
      </trkpt>
      <trkpt lat="51.744849001988769" lon="10.318077960982919">
        <ele>307.75999999999999</ele>
        <time>2017-05-22T13:19:03Z</time>
      </trkpt>
      <trkpt lat="51.744868028908968" lon="10.318293962627649">
        <ele>306.80000000000001</ele>
        <time>2017-05-22T13:19:04Z</time>
      </trkpt>
      <trkpt lat="51.74489501863718" lon="10.318522034212947">
        <ele>306.31999999999999</ele>
        <time>2017-05-22T13:19:05Z</time>
      </trkpt>
      <trkpt lat="51.744951009750366" lon="10.318739041686058">
        <ele>305.83999999999997</ele>
        <time>2017-05-22T13:19:06Z</time>
      </trkpt>
      <trkpt lat="51.745029967278242" lon="10.318949008360505">
        <ele>305.83999999999997</ele>
        <time>2017-05-22T13:19:07Z</time>
      </trkpt>
      <trkpt lat="51.745115965604782" lon="10.319118993356824">
        <ele>305.36000000000001</ele>
        <time>2017-05-22T13:19:08Z</time>
      </trkpt>
      <trkpt lat="51.745176985859871" lon="10.3193049877882">
        <ele>304.88</ele>
        <time>2017-05-22T13:19:09Z</time>
      </trkpt>
      <trkpt lat="51.74521503970027" lon="10.31949701718986">
        <ele>304.88</ele>
        <time>2017-05-22T13:19:10Z</time>
      </trkpt>
      <trkpt lat="51.745224008336663" lon="10.319714024662971">
        <ele>305.83999999999997</ele>
        <time>2017-05-22T13:19:11Z</time>
      </trkpt>
      <trkpt lat="51.745216967537999" lon="10.319908987730742">
        <ele>305.36000000000001</ele>
        <time>2017-05-22T13:19:12Z</time>
      </trkpt>
      <trkpt lat="51.745190983638167" lon="10.320091964676976">
        <ele>304.88</ele>
        <time>2017-05-22T13:19:13Z</time>
      </trkpt>
      <trkpt lat="51.745151001960039" lon="10.320253986865282">
        <ele>303.91000000000003</ele>
        <time>2017-05-22T13:19:14Z</time>
      </trkpt>
      <trkpt lat="51.745095010846853" lon="10.320403017103672">
        <ele>303.43000000000001</ele>
        <time>2017-05-22T13:19:15Z</time>
      </trkpt>
      <trkpt lat="51.744944974780083" lon="10.320476023480296">
        <ele>303.43000000000001</ele>
        <time>2017-05-22T13:19:16Z</time>
      </trkpt>
      <trkpt lat="51.744820000603795" lon="10.320545006543398">
        <ele>303.43000000000001</ele>
        <time>2017-05-22T13:19:17Z</time>
      </trkpt>
      <trkpt lat="51.744694020599127" lon="10.320575013756752">
        <ele>303.91000000000003</ele>
        <time>2017-05-22T13:19:18Z</time>
      </trkpt>
      <trkpt lat="51.74455102533102" lon="10.3205949626863">
        <ele>303.91000000000003</ele>
        <time>2017-05-22T13:19:19Z</time>
      </trkpt>
      <trkpt lat="51.743173962458968" lon="10.320427995175123">
        <ele>305.83999999999997</ele>
        <time>2017-05-22T13:19:27Z</time>
      </trkpt>
      <trkpt lat="51.742305010557175" lon="10.320229008793831">
        <ele>308.24000000000001</ele>
        <time>2017-05-22T13:19:33Z</time>
      </trkpt>
      <trkpt lat="51.742115998640656" lon="10.320242000743747">
        <ele>308.72000000000003</ele>
        <time>2017-05-22T13:19:34Z</time>
      </trkpt>
      <trkpt lat="51.741932015866041" lon="10.320278964936733">
        <ele>309.19999999999999</ele>
        <time>2017-05-22T13:19:35Z</time>
      </trkpt>
      <trkpt lat="51.741779968142509" lon="10.320354988798499">
        <ele>309.68000000000001</ele>
        <time>2017-05-22T13:19:36Z</time>
      </trkpt>
      <trkpt lat="51.741637978702784" lon="10.320425983518362">
        <ele>310.16000000000003</ele>
        <time>2017-05-22T13:19:37Z</time>
      </trkpt>
      <trkpt lat="51.741533037275076" lon="10.320542994886637">
        <ele>309.68000000000001</ele>
        <time>2017-05-22T13:19:38Z</time>
      </trkpt>
      <trkpt lat="51.741446033120155" lon="10.320688001811504">
        <ele>310.63999999999999</ele>
        <time>2017-05-22T13:19:39Z</time>
      </trkpt>
      <trkpt lat="51.741375038400292" lon="10.320861004292965">
        <ele>310.63999999999999</ele>
        <time>2017-05-22T13:19:40Z</time>
      </trkpt>
      <trkpt lat="51.741301026195288" lon="10.321056973189116">
        <ele>312.08999999999997</ele>
        <time>2017-05-22T13:19:41Z</time>
      </trkpt>
      <trkpt lat="51.741234976798296" lon="10.321287978440523">
        <ele>312.08999999999997</ele>
        <time>2017-05-22T13:19:42Z</time>
      </trkpt>
      <trkpt lat="51.740779001265764" lon="10.323001993820071">
        <ele>315.93000000000001</ele>
        <time>2017-05-22T13:19:49Z</time>
      </trkpt>
      <trkpt lat="51.740731978788972" lon="10.323244985193014">
        <ele>317.37</ele>
        <time>2017-05-22T13:19:50Z</time>
      </trkpt>
      <trkpt lat="51.74072502180934" lon="10.323485964909196">
        <ele>318.32999999999998</ele>
        <time>2017-05-22T13:19:51Z</time>
      </trkpt>
      <trkpt lat="51.740758968517184" lon="10.323731973767281">
        <ele>318.81</ele>
        <time>2017-05-22T13:19:52Z</time>
      </trkpt>
      <trkpt lat="51.740789981558919" lon="10.323985023424029">
        <ele>318.81</ele>
        <time>2017-05-22T13:19:53Z</time>
      </trkpt>
      <trkpt lat="51.74081102013588" lon="10.324246035888791">
        <ele>318.81</ele>
        <time>2017-05-22T13:19:54Z</time>
      </trkpt>
      <trkpt lat="51.741187032312155" lon="10.327244997024536">
        <ele>318.32999999999998</ele>
        <time>2017-05-22T13:20:04Z</time>
      </trkpt>
      <trkpt lat="51.741304965689778" lon="10.329175014048815">
        <ele>317.37</ele>
        <time>2017-05-22T13:20:11Z</time>
      </trkpt>
      <trkpt lat="51.741298008710146" lon="10.329466033726931">
        <ele>316.88999999999999</ele>
        <time>2017-05-22T13:20:12Z</time>
      </trkpt>
      <trkpt lat="51.741308989003301" lon="10.329761998727918">
        <ele>316.41000000000003</ele>
        <time>2017-05-22T13:20:13Z</time>
      </trkpt>
      <trkpt lat="51.741324998438358" lon="10.33004698343575">
        <ele>316.41000000000003</ele>
        <time>2017-05-22T13:20:14Z</time>
      </trkpt>
      <trkpt lat="51.741835037246346" lon="10.332683008164167">
        <ele>316.88999999999999</ele>
        <time>2017-05-22T13:20:23Z</time>
      </trkpt>
      <trkpt lat="51.742786969989538" lon="10.33576101064682">
        <ele>313.52999999999997</ele>
        <time>2017-05-22T13:20:34Z</time>
      </trkpt>
      <trkpt lat="51.743510998785496" lon="10.3377790376544">
        <ele>310.63999999999999</ele>
        <time>2017-05-22T13:20:41Z</time>
      </trkpt>
      <trkpt lat="51.744563011452556" lon="10.340569959953427">
        <ele>310.63999999999999</ele>
        <time>2017-05-22T13:20:51Z</time>
      </trkpt>
      <trkpt lat="51.74590696580708" lon="10.343893971294165">
        <ele>314.49000000000001</ele>
        <time>2017-05-22T13:21:04Z</time>
      </trkpt>
      <trkpt lat="51.746533010154963" lon="10.345277991145849">
        <ele>317.85000000000002</ele>
        <time>2017-05-22T13:21:10Z</time>
      </trkpt>
      <trkpt lat="51.746610961854458" lon="10.345540009438992">
        <ele>317.85000000000002</ele>
        <time>2017-05-22T13:21:11Z</time>
      </trkpt>
      <trkpt lat="51.747315041720867" lon="10.34852203913033">
        <ele>315.93000000000001</ele>
        <time>2017-05-22T13:21:21Z</time>
      </trkpt>
      <trkpt lat="51.747738998383284" lon="10.350430011749268">
        <ele>315.93000000000001</ele>
        <time>2017-05-22T13:21:29Z</time>
      </trkpt>
      <trkpt lat="51.747759031131864" lon="10.350636038929224">
        <ele>315.93000000000001</ele>
        <time>2017-05-22T13:21:30Z</time>
      </trkpt>
      <trkpt lat="51.747760036960244" lon="10.350837958976626">
        <ele>315.93000000000001</ele>
        <time>2017-05-22T13:21:31Z</time>
      </trkpt>
      <trkpt lat="51.7477519903332" lon="10.351026970893145">
        <ele>316.41000000000003</ele>
        <time>2017-05-22T13:21:32Z</time>
      </trkpt>
      <trkpt lat="51.747732041403651" lon="10.351197961717844">
        <ele>316.41000000000003</ele>
        <time>2017-05-22T13:21:33Z</time>
      </trkpt>
      <trkpt lat="51.747691975906491" lon="10.351356966421008">
        <ele>315.93000000000001</ele>
        <time>2017-05-22T13:21:34Z</time>
      </trkpt>
      <trkpt lat="51.747653000056744" lon="10.351486969739199">
        <ele>316.41000000000003</ele>
        <time>2017-05-22T13:21:35Z</time>
      </trkpt>
      <trkpt lat="51.747612012550235" lon="10.351600963622332">
        <ele>316.88999999999999</ele>
        <time>2017-05-22T13:21:36Z</time>
      </trkpt>
      <trkpt lat="51.747574964538217" lon="10.351716969162226">
        <ele>318.32999999999998</ele>
        <time>2017-05-22T13:21:37Z</time>
      </trkpt>
      <trkpt lat="51.747518973425031" lon="10.351813025772572">
        <ele>318.32999999999998</ele>
        <time>2017-05-22T13:21:38Z</time>
      </trkpt>
      <trkpt lat="51.747457031160593" lon="10.35189600661397">
        <ele>318.32999999999998</ele>
        <time>2017-05-22T13:21:39Z</time>
      </trkpt>
      <trkpt lat="51.747384024783969" lon="10.351972030475736">
        <ele>318.32999999999998</ele>
        <time>2017-05-22T13:21:40Z</time>
      </trkpt>
      <trkpt lat="51.74730003811419" lon="10.352035984396935">
        <ele>318.81</ele>
        <time>2017-05-22T13:21:41Z</time>
      </trkpt>
      <trkpt lat="51.747203981503844" lon="10.352087030187249">
        <ele>319.30000000000001</ele>
        <time>2017-05-22T13:21:42Z</time>
      </trkpt>
      <trkpt lat="51.747101973742247" lon="10.352140003815293">
        <ele>319.77999999999997</ele>
        <time>2017-05-22T13:21:43Z</time>
      </trkpt>
      <trkpt lat="51.745503963902593" lon="10.352693041786551">
        <ele>322.66000000000003</ele>
        <time>2017-05-22T13:21:56Z</time>
      </trkpt>
      <trkpt lat="51.745102973654866" lon="10.35288498736918">
        <ele>324.10000000000002</ele>
        <time>2017-05-22T13:21:59Z</time>
      </trkpt>
      <trkpt lat="51.74498001113534" lon="10.35299202427268">
        <ele>325.06</ele>
        <time>2017-05-22T13:22:00Z</time>
      </trkpt>
      <trkpt lat="51.744862999767065" lon="10.353132002055645">
        <ele>325.54000000000002</ele>
        <time>2017-05-22T13:22:01Z</time>
      </trkpt>
      <trkpt lat="51.744755962863564" lon="10.353317996487021">
        <ele>324.57999999999998</ele>
        <time>2017-05-22T13:22:02Z</time>
      </trkpt>
      <trkpt lat="51.744666025042534" lon="10.353523017838597">
        <ele>324.57999999999998</ele>
        <time>2017-05-22T13:22:03Z</time>
      </trkpt>
      <trkpt lat="51.74459402449429" lon="10.353751005604863">
        <ele>324.57999999999998</ele>
        <time>2017-05-22T13:22:04Z</time>
      </trkpt>
      <trkpt lat="51.744547002017498" lon="10.35400103777647">
        <ele>324.10000000000002</ele>
        <time>2017-05-22T13:22:05Z</time>
      </trkpt>
      <trkpt lat="51.744527975097299" lon="10.354265989735723">
        <ele>324.57999999999998</ele>
        <time>2017-05-22T13:22:06Z</time>
      </trkpt>
      <trkpt lat="51.744537027552724" lon="10.354537982493639">
        <ele>324.10000000000002</ele>
        <time>2017-05-22T13:22:07Z</time>
      </trkpt>
      <trkpt lat="51.744580026715994" lon="10.354802012443542">
        <ele>324.10000000000002</ele>
        <time>2017-05-22T13:22:08Z</time>
      </trkpt>
      <trkpt lat="51.744652027264237" lon="10.35505497828126">
        <ele>324.10000000000002</ele>
        <time>2017-05-22T13:22:09Z</time>
      </trkpt>
      <trkpt lat="51.744748000055552" lon="10.355295035988092">
        <ele>324.10000000000002</ele>
        <time>2017-05-22T13:22:10Z</time>
      </trkpt>
      <trkpt lat="51.744856964796782" lon="10.355532998219132">
        <ele>324.10000000000002</ele>
        <time>2017-05-22T13:22:11Z</time>
      </trkpt>
      <trkpt lat="51.74498001113534" lon="10.355759980157018">
        <ele>324.10000000000002</ele>
        <time>2017-05-22T13:22:12Z</time>
      </trkpt>
      <trkpt lat="51.745541011914611" lon="10.357061019167304">
        <ele>324.10000000000002</ele>
        <time>2017-05-22T13:22:17Z</time>
      </trkpt>
      <trkpt lat="51.745617035776377" lon="10.35737500526011">
        <ele>324.10000000000002</ele>
        <time>2017-05-22T13:22:18Z</time>
      </trkpt>
      <trkpt lat="51.74566799774766" lon="10.357710029929876">
        <ele>323.62</ele>
        <time>2017-05-22T13:22:19Z</time>
      </trkpt>
      <trkpt lat="51.745699010789394" lon="10.358059974387288">
        <ele>323.13999999999999</ele>
        <time>2017-05-22T13:22:20Z</time>
      </trkpt>
      <trkpt lat="51.745719965547323" lon="10.358411008492112">
        <ele>322.66000000000003</ele>
        <time>2017-05-22T13:22:21Z</time>
      </trkpt>
      <trkpt lat="51.745733041316271" lon="10.358768999576569">
        <ele>322.66000000000003</ele>
        <time>2017-05-22T13:22:22Z</time>
      </trkpt>
      <trkpt lat="51.745915012434125" lon="10.360236000269651">
        <ele>322.66000000000003</ele>
        <time>2017-05-22T13:22:26Z</time>
      </trkpt>
      <trkpt lat="51.746006039902568" lon="10.360594997182488">
        <ele>322.18000000000001</ele>
        <time>2017-05-22T13:22:27Z</time>
      </trkpt>
      <trkpt lat="51.74612196162343" lon="10.360930021852255">
        <ele>322.18000000000001</ele>
        <time>2017-05-22T13:22:28Z</time>
      </trkpt>
      <trkpt lat="51.746261017397046" lon="10.36126303486526">
        <ele>322.66000000000003</ele>
        <time>2017-05-22T13:22:29Z</time>
      </trkpt>
      <trkpt lat="51.746417004615068" lon="10.361576015129685">
        <ele>322.66000000000003</ele>
        <time>2017-05-22T13:22:30Z</time>
      </trkpt>
      <trkpt lat="51.746597969904542" lon="10.361860999837518">
        <ele>322.18000000000001</ele>
        <time>2017-05-22T13:22:31Z</time>
      </trkpt>
      <trkpt lat="51.746782036498189" lon="10.362140033394098">
        <ele>322.18000000000001</ele>
        <time>2017-05-22T13:22:32Z</time>
      </trkpt>
      <trkpt lat="51.747968997806311" lon="10.364345982670784">
        <ele>324.10000000000002</ele>
        <time>2017-05-22T13:22:39Z</time>
      </trkpt>
      <trkpt lat="51.748957978561521" lon="10.367724979296327">
        <ele>334.19999999999999</ele>
        <time>2017-05-22T13:22:48Z</time>
      </trkpt>
      <trkpt lat="51.750189028680325" lon="10.371324000880122">
        <ele>336.60000000000002</ele>
        <time>2017-05-22T13:22:58Z</time>
      </trkpt>
      <trkpt lat="51.750991009175777" lon="10.372486989945173">
        <ele>332.26999999999998</ele>
        <time>2017-05-22T13:23:03Z</time>
      </trkpt>
      <trkpt lat="51.751113971695304" lon="10.372614981606603">
        <ele>331.79000000000002</ele>
        <time>2017-05-22T13:23:04Z</time>
      </trkpt>
      <trkpt lat="51.752167996019125" lon="10.373484017327428">
        <ele>334.68000000000001</ele>
        <time>2017-05-22T13:23:13Z</time>
      </trkpt>
      <trkpt lat="51.752517018467188" lon="10.373993972316384">
        <ele>336.12</ele>
        <time>2017-05-22T13:23:17Z</time>
      </trkpt>
      <trkpt lat="51.752592958509922" lon="10.374138979241252">
        <ele>337.07999999999998</ele>
        <time>2017-05-22T13:23:18Z</time>
      </trkpt>
      <trkpt lat="51.752659007906914" lon="10.374297983944416">
        <ele>338.04000000000002</ele>
        <time>2017-05-22T13:23:19Z</time>
      </trkpt>
      <trkpt lat="51.752723967656493" lon="10.374454976990819">
        <ele>338.04000000000002</ele>
        <time>2017-05-22T13:23:20Z</time>
      </trkpt>
      <trkpt lat="51.752777025103569" lon="10.374636026099324">
        <ele>338.04000000000002</ele>
        <time>2017-05-22T13:23:21Z</time>
      </trkpt>
      <trkpt lat="51.752823041751981" lon="10.374811040237546">
        <ele>338.04000000000002</ele>
        <time>2017-05-22T13:23:22Z</time>
      </trkpt>
      <trkpt lat="51.752854976803064" lon="10.374987982213497">
        <ele>338.04000000000002</ele>
        <time>2017-05-22T13:23:23Z</time>
      </trkpt>
      <trkpt lat="51.752879032865167" lon="10.375167019665241">
        <ele>338.51999999999998</ele>
        <time>2017-05-22T13:23:24Z</time>
      </trkpt>
      <trkpt lat="51.752890013158321" lon="10.375344967469573">
        <ele>338.04000000000002</ele>
        <time>2017-05-22T13:23:25Z</time>
      </trkpt>
      <trkpt lat="51.752903005108237" lon="10.375512018799782">
        <ele>338.51999999999998</ele>
        <time>2017-05-22T13:23:26Z</time>
      </trkpt>
      <trkpt lat="51.75292999483645" lon="10.376046029850841">
        <ele>339.95999999999998</ele>
        <time>2017-05-22T13:23:32Z</time>
      </trkpt>
      <trkpt lat="51.752938963472843" lon="10.376580962911248">
        <ele>341.88999999999999</ele>
        <time>2017-05-22T13:23:39Z</time>
      </trkpt>
      <trkpt lat="51.75282396376133" lon="10.377754010260105">
        <ele>343.81</ele>
        <time>2017-05-22T13:23:46Z</time>
      </trkpt>
      <trkpt lat="51.752833016216755" lon="10.377912009134889">
        <ele>342.85000000000002</ele>
        <time>2017-05-22T13:23:47Z</time>
      </trkpt>
      <trkpt lat="51.752854976803064" lon="10.378090962767601">
        <ele>343.32999999999998</ele>
        <time>2017-05-22T13:23:48Z</time>
      </trkpt>
      <trkpt lat="51.752899987623096" lon="10.378265976905823">
        <ele>343.32999999999998</ele>
        <time>2017-05-22T13:23:49Z</time>
      </trkpt>
      <trkpt lat="51.752956984564662" lon="10.378446020185947">
        <ele>343.81</ele>
        <time>2017-05-22T13:23:50Z</time>
      </trkpt>
      <trkpt lat="51.753107020631433" lon="10.379025964066386">
        <ele>344.76999999999998</ele>
        <time>2017-05-22T13:23:53Z</time>
      </trkpt>
      <trkpt lat="51.753134010359645" lon="10.379234002903104">
        <ele>345.25</ele>
        <time>2017-05-22T13:23:54Z</time>
      </trkpt>
      <trkpt lat="51.753131998702884" lon="10.379436006769538">
        <ele>345.73000000000002</ele>
        <time>2017-05-22T13:23:55Z</time>
      </trkpt>
      <trkpt lat="51.753110038116574" lon="10.379648990929127">
        <ele>345.73000000000002</ele>
        <time>2017-05-22T13:23:56Z</time>
      </trkpt>
      <trkpt lat="51.753075001761317" lon="10.3798489831388">
        <ele>346.20999999999998</ele>
        <time>2017-05-22T13:23:57Z</time>
      </trkpt>
      <trkpt lat="51.753030996769667" lon="10.380049981176853">
        <ele>346.69</ele>
        <time>2017-05-22T13:23:58Z</time>
      </trkpt>
      <trkpt lat="51.752956984564662" lon="10.380712989717722">
        <ele>347.17000000000002</ele>
        <time>2017-05-22T13:24:01Z</time>
      </trkpt>
      <trkpt lat="51.752962013706565" lon="10.380949024111032">
        <ele>347.17000000000002</ele>
        <time>2017-05-22T13:24:02Z</time>
      </trkpt>
      <trkpt lat="51.752981962636113" lon="10.381181035190821">
        <ele>347.17000000000002</ele>
        <time>2017-05-22T13:24:03Z</time>
      </trkpt>
      <trkpt lat="51.753024039790034" lon="10.381404999643564">
        <ele>347.64999999999998</ele>
        <time>2017-05-22T13:24:04Z</time>
      </trkpt>
      <trkpt lat="51.753063015639782" lon="10.38163298740983">
        <ele>348.13</ele>
        <time>2017-05-22T13:24:05Z</time>
      </trkpt>
      <trkpt lat="51.753632985055447" lon="10.384677965193987">
        <ele>351.5</ele>
        <time>2017-05-22T13:24:19Z</time>
      </trkpt>
      <trkpt lat="51.75428400747478" lon="10.388070037588477">
        <ele>356.31</ele>
        <time>2017-05-22T13:24:36Z</time>
      </trkpt>
      <trkpt lat="51.754350978881121" lon="10.388276986777782">
        <ele>356.31</ele>
        <time>2017-05-22T13:24:37Z</time>
      </trkpt>
      <trkpt lat="51.75443303771317" lon="10.388486031442881">
        <ele>356.79000000000002</ele>
        <time>2017-05-22T13:24:38Z</time>
      </trkpt>
      <trkpt lat="51.754523981362581" lon="10.388685017824173">
        <ele>356.79000000000002</ele>
        <time>2017-05-22T13:24:39Z</time>
      </trkpt>
      <trkpt lat="51.755300983786583" lon="10.389713980257511">
        <ele>358.70999999999998</ele>
        <time>2017-05-22T13:24:46Z</time>
      </trkpt>
      <trkpt lat="51.75555101595819" lon="10.389897963032126">
        <ele>359.67000000000002</ele>
        <time>2017-05-22T13:24:48Z</time>
      </trkpt>
      <trkpt lat="51.755682025104761" lon="10.389965018257499">
        <ele>360.14999999999998</ele>
        <time>2017-05-22T13:24:49Z</time>
      </trkpt>
      <trkpt lat="51.755815967917442" lon="10.390016986057162">
        <ele>360.63</ele>
        <time>2017-05-22T13:24:50Z</time>
      </trkpt>
      <trkpt lat="51.757108960300684" lon="10.390119999647141">
        <ele>364.48000000000002</ele>
        <time>2017-05-22T13:25:00Z</time>
      </trkpt>
      <trkpt lat="51.758891036733985" lon="10.390026038512588">
        <ele>370.24000000000001</ele>
        <time>2017-05-22T13:25:15Z</time>
      </trkpt>
      <trkpt lat="51.760761039331555" lon="10.389953032135963">
        <ele>376.00999999999999</ele>
        <time>2017-05-22T13:25:31Z</time>
      </trkpt>
      <trkpt lat="51.76199896261096" lon="10.389950014650822">
        <ele>382.25999999999999</ele>
        <time>2017-05-22T13:25:42Z</time>
      </trkpt>
      <trkpt lat="51.762084038928151" lon="10.389984967187047">
        <ele>382.74000000000001</ele>
        <time>2017-05-22T13:25:43Z</time>
      </trkpt>
      <trkpt lat="51.762183029204607" lon="10.390030983835459">
        <ele>383.22000000000003</ele>
        <time>2017-05-22T13:25:44Z</time>
      </trkpt>
      <trkpt lat="51.762285958975554" lon="10.390098039060831">
        <ele>384.18000000000001</ele>
        <time>2017-05-22T13:25:45Z</time>
      </trkpt>
      <trkpt lat="51.762386038899422" lon="10.390192000195384">
        <ele>385.14999999999998</ele>
        <time>2017-05-22T13:25:46Z</time>
      </trkpt>
      <trkpt lat="51.762478994205594" lon="10.390317980200052">
        <ele>384.66000000000003</ele>
        <time>2017-05-22T13:25:47Z</time>
      </trkpt>
      <trkpt lat="51.762569015845656" lon="10.390426022931933">
        <ele>385.14999999999998</ele>
        <time>2017-05-22T13:25:48Z</time>
      </trkpt>
      <trkpt lat="51.762671023607254" lon="10.390518978238106">
        <ele>385.14999999999998</ele>
        <time>2017-05-22T13:25:49Z</time>
      </trkpt>
      <trkpt lat="51.762803038582206" lon="10.390589972957969">
        <ele>386.58999999999997</ele>
        <time>2017-05-22T13:25:50Z</time>
      </trkpt>
      <trkpt lat="51.763767041265965" lon="10.391565961763263">
        <ele>386.58999999999997</ele>
        <time>2017-05-22T13:25:58Z</time>
      </trkpt>
      <trkpt lat="51.76491997204721" lon="10.393093982711434">
        <ele>388.50999999999999</ele>
        <time>2017-05-22T13:26:06Z</time>
      </trkpt>
      <trkpt lat="51.766415974125266" lon="10.395273026078939">
        <ele>395.72000000000003</ele>
        <time>2017-05-22T13:26:14Z</time>
      </trkpt>
      <trkpt lat="51.767943995073438" lon="10.397976022213697">
        <ele>403.88999999999999</ele>
        <time>2017-05-22T13:26:22Z</time>
      </trkpt>
      <trkpt lat="51.769228018820286" lon="10.400074012577534">
        <ele>406.29000000000002</ele>
        <time>2017-05-22T13:26:29Z</time>
      </trkpt>
      <trkpt lat="51.770365023985505" lon="10.40114002302289">
        <ele>410.62</ele>
        <time>2017-05-22T13:26:34Z</time>
      </trkpt>
      <trkpt lat="51.771376971155405" lon="10.402688998728991">
        <ele>413.98000000000002</ele>
        <time>2017-05-22T13:26:39Z</time>
      </trkpt>
      <trkpt lat="51.771818026900291" lon="10.403629029169679">
        <ele>414.47000000000003</ele>
        <time>2017-05-22T13:26:42Z</time>
      </trkpt>
      <trkpt lat="51.771933026611805" lon="10.403970004990697">
        <ele>414.94999999999999</ele>
        <time>2017-05-22T13:26:43Z</time>
      </trkpt>
      <trkpt lat="51.772032016888261" lon="10.404323972761631">
        <ele>414.94999999999999</ele>
        <time>2017-05-22T13:26:44Z</time>
      </trkpt>
      <trkpt lat="51.772104017436504" lon="10.404703002423048">
        <ele>414.94999999999999</ele>
        <time>2017-05-22T13:26:45Z</time>
      </trkpt>
      <trkpt lat="51.772151039913297" lon="10.405089994892478">
        <ele>414.47000000000003</ele>
        <time>2017-05-22T13:26:46Z</time>
      </trkpt>
      <trkpt lat="51.772186998277903" lon="10.405449997633696">
        <ele>413.98000000000002</ele>
        <time>2017-05-22T13:26:47Z</time>
      </trkpt>
      <trkpt lat="51.772512970492244" lon="10.407497026026249">
        <ele>415.91000000000003</ele>
        <time>2017-05-22T13:26:53Z</time>
      </trkpt>
      <trkpt lat="51.773022003471851" lon="10.40874601341784">
        <ele>419.26999999999998</ele>
        <time>2017-05-22T13:26:57Z</time>
      </trkpt>
      <trkpt lat="51.77361804060638" lon="10.409958958625793">
        <ele>428.88999999999999</ele>
        <time>2017-05-22T13:27:01Z</time>
      </trkpt>
      <trkpt lat="51.773716025054455" lon="10.410289037972689">
        <ele>429.85000000000002</ele>
        <time>2017-05-22T13:27:02Z</time>
      </trkpt>
      <trkpt lat="51.774542983621359" lon="10.412414018064737">
        <ele>439.94</ele>
        <time>2017-05-22T13:27:09Z</time>
      </trkpt>
      <trkpt lat="51.77484598942101" lon="10.413784040138125">
        <ele>446.19</ele>
        <time>2017-05-22T13:27:13Z</time>
      </trkpt>
      <trkpt lat="51.774959983304143" lon="10.414115963503718">
        <ele>448.58999999999997</ele>
        <time>2017-05-22T13:27:14Z</time>
      </trkpt>
      <trkpt lat="51.775215966627002" lon="10.414723986759782">
        <ele>451.48000000000002</ele>
        <time>2017-05-22T13:27:16Z</time>
      </trkpt>
      <trkpt lat="51.775345969945192" lon="10.415000002831221">
        <ele>454.36000000000001</ele>
        <time>2017-05-22T13:27:17Z</time>
      </trkpt>
      <trkpt lat="51.775416964665055" lon="10.415291022509336">
        <ele>455.31999999999999</ele>
        <time>2017-05-22T13:27:18Z</time>
      </trkpt>
      <trkpt lat="51.775504974648356" lon="10.415552034974098">
        <ele>457.24000000000001</ele>
        <time>2017-05-22T13:27:19Z</time>
      </trkpt>
      <trkpt lat="51.775606982409954" lon="10.415764013305306">
        <ele>458.69</ele>
        <time>2017-05-22T13:27:20Z</time>
      </trkpt>
      <trkpt lat="51.775731034576893" lon="10.415904996916652">
        <ele>460.13</ele>
        <time>2017-05-22T13:27:21Z</time>
      </trkpt>
      <trkpt lat="51.77587604150176" lon="10.415974985808134">
        <ele>461.56999999999999</ele>
        <time>2017-05-22T13:27:22Z</time>
      </trkpt>
      <trkpt lat="51.776033034548163" lon="10.415974985808134">
        <ele>462.52999999999997</ele>
        <time>2017-05-22T13:27:23Z</time>
      </trkpt>
      <trkpt lat="51.776207964867353" lon="10.415898039937019">
        <ele>463.97000000000003</ele>
        <time>2017-05-22T13:27:24Z</time>
      </trkpt>
      <trkpt lat="51.776377027854323" lon="10.415814975276589">
        <ele>464.93000000000001</ele>
        <time>2017-05-22T13:27:25Z</time>
      </trkpt>
      <trkpt lat="51.77658699452877" lon="10.415725959464908">
        <ele>467.81999999999999</ele>
        <time>2017-05-22T13:27:26Z</time>
      </trkpt>
      <trkpt lat="51.776796039193869" lon="10.415691006928682">
        <ele>469.25999999999999</ele>
        <time>2017-05-22T13:27:27Z</time>
      </trkpt>
      <trkpt lat="51.777000976726413" lon="10.415702993050218">
        <ele>470.69999999999999</ele>
        <time>2017-05-22T13:27:28Z</time>
      </trkpt>
      <trkpt lat="51.777664991095662" lon="10.415698969736695">
        <ele>475.02999999999997</ele>
        <time>2017-05-22T13:27:31Z</time>
      </trkpt>
      <trkpt lat="51.778274020180106" lon="10.415714979171753">
        <ele>480.31999999999999</ele>
        <time>2017-05-22T13:27:34Z</time>
      </trkpt>
      <trkpt lat="51.778384996578097" lon="10.415802989155054">
        <ele>482.24000000000001</ele>
        <time>2017-05-22T13:27:35Z</time>
      </trkpt>
      <trkpt lat="51.778622036799788" lon="10.41596501134336">
        <ele>487.05000000000001</ele>
        <time>2017-05-22T13:27:37Z</time>
      </trkpt>
      <trkpt lat="51.778782969340682" lon="10.416017984971404">
        <ele>489.44999999999999</ele>
        <time>2017-05-22T13:27:38Z</time>
      </trkpt>
      <trkpt lat="51.778956977650523" lon="10.416017984971404">
        <ele>490.88999999999999</ele>
        <time>2017-05-22T13:27:39Z</time>
      </trkpt>
      <trkpt lat="51.779806986451149" lon="10.415983032435179">
        <ele>499.06</ele>
        <time>2017-05-22T13:27:43Z</time>
      </trkpt>
      <trkpt lat="51.779984012246132" lon="10.416072970256209">
        <ele>501.45999999999998</ele>
        <time>2017-05-22T13:27:44Z</time>
      </trkpt>
      <trkpt lat="51.780129019171" lon="10.41624597273767">
        <ele>502.43000000000001</ele>
        <time>2017-05-22T13:27:45Z</time>
      </trkpt>
      <trkpt lat="51.78045297972858" lon="10.41654503904283">
        <ele>506.75</ele>
        <time>2017-05-22T13:27:47Z</time>
      </trkpt>
      <trkpt lat="51.780597986653447" lon="10.416657021269202">
        <ele>508.67000000000002</ele>
        <time>2017-05-22T13:27:48Z</time>
      </trkpt>
      <trkpt lat="51.781297959387302" lon="10.417091036215425">
        <ele>524.05999999999995</ele>
        <time>2017-05-22T13:27:53Z</time>
      </trkpt>
      <trkpt lat="51.78137700073421" lon="10.417176028713584">
        <ele>525.5</ele>
        <time>2017-05-22T13:27:54Z</time>
      </trkpt>
      <trkpt lat="51.781446989625692" lon="10.417259009554982">
        <ele>526.94000000000005</ele>
        <time>2017-05-22T13:27:55Z</time>
      </trkpt>
      <trkpt lat="51.781496023759246" lon="10.417351964861155">
        <ele>527.89999999999998</ele>
        <time>2017-05-22T13:27:56Z</time>
      </trkpt>
      <trkpt lat="51.781514966860414" lon="10.417505018413067">
        <ele>530.29999999999995</ele>
        <time>2017-05-22T13:27:57Z</time>
      </trkpt>
      <trkpt lat="51.781484959647059" lon="10.417647007852793">
        <ele>531.26999999999998</ele>
        <time>2017-05-22T13:27:58Z</time>
      </trkpt>
      <trkpt lat="51.781412959098816" lon="10.417799977585673">
        <ele>531.75</ele>
        <time>2017-05-22T13:27:59Z</time>
      </trkpt>
      <trkpt lat="51.781316986307502" lon="10.417969040572643">
        <ele>531.75</ele>
        <time>2017-05-22T13:28:00Z</time>
      </trkpt>
      <trkpt lat="51.780515005812049" lon="10.41925398632884">
        <ele>533.19000000000005</ele>
        <time>2017-05-22T13:28:06Z</time>
      </trkpt>
      <trkpt lat="51.779468022286892" lon="10.420816037803888">
        <ele>536.54999999999995</ele>
        <time>2017-05-22T13:28:14Z</time>
      </trkpt>
      <trkpt lat="51.778468983247876" lon="10.422279015183449">
        <ele>543.27999999999997</ele>
        <time>2017-05-22T13:28:23Z</time>
      </trkpt>
      <trkpt lat="51.777581004425883" lon="10.422767009586096">
        <ele>552.40999999999997</ele>
        <time>2017-05-22T13:28:31Z</time>
      </trkpt>
      <trkpt lat="51.777107007801533" lon="10.422820989042521">
        <ele>556.74000000000001</ele>
        <time>2017-05-22T13:28:35Z</time>
      </trkpt>
      <trkpt lat="51.776981027796865" lon="10.422810008749366">
        <ele>557.70000000000005</ele>
        <time>2017-05-22T13:28:36Z</time>
      </trkpt>
      <trkpt lat="51.776852030307055" lon="10.422781007364392">
        <ele>558.65999999999997</ele>
        <time>2017-05-22T13:28:37Z</time>
      </trkpt>
      <trkpt lat="51.7767149861902" lon="10.422732979059219">
        <ele>559.13999999999999</ele>
        <time>2017-05-22T13:28:38Z</time>
      </trkpt>
      <trkpt lat="51.776569979265332" lon="10.422674976289272">
        <ele>560.11000000000001</ele>
        <time>2017-05-22T13:28:39Z</time>
      </trkpt>
      <trkpt lat="51.775894984602928" lon="10.42247598990798">
        <ele>565.87</ele>
        <time>2017-05-22T13:28:44Z</time>
      </trkpt>
      <trkpt lat="51.775786019861698" lon="10.422494010999799">
        <ele>566.83000000000004</ele>
        <time>2017-05-22T13:28:45Z</time>
      </trkpt>
      <trkpt lat="51.775707984343171" lon="10.422529969364405">
        <ele>566.83000000000004</ele>
        <time>2017-05-22T13:28:46Z</time>
      </trkpt>
      <trkpt lat="51.775659034028649" lon="10.422605993226171">
        <ele>566.35000000000002</ele>
        <time>2017-05-22T13:28:47Z</time>
      </trkpt>
      <trkpt lat="51.77561704069376" lon="10.422710012644529">
        <ele>565.87</ele>
        <time>2017-05-22T13:28:48Z</time>
      </trkpt>
      <trkpt lat="51.775592984631658" lon="10.422834986820817">
        <ele>565.38999999999999</ele>
        <time>2017-05-22T13:28:49Z</time>
      </trkpt>
      <trkpt lat="51.775596002116799" lon="10.423011006787419">
        <ele>563.95000000000005</ele>
        <time>2017-05-22T13:28:50Z</time>
      </trkpt>
      <trkpt lat="51.775617962703109" lon="10.423203958198428">
        <ele>563.47000000000003</ele>
        <time>2017-05-22T13:28:51Z</time>
      </trkpt>
      <trkpt lat="51.775674037635326" lon="10.423917006701231">
        <ele>561.07000000000005</ele>
        <time>2017-05-22T13:28:54Z</time>
      </trkpt>
      <trkpt lat="51.775732962414622" lon="10.424171984195709">
        <ele>560.11000000000001</ele>
        <time>2017-05-22T13:28:55Z</time>
      </trkpt>
      <trkpt lat="51.775819966569543" lon="10.424435008317232">
        <ele>559.62</ele>
        <time>2017-05-22T13:28:56Z</time>
      </trkpt>
      <trkpt lat="51.776597974821925" lon="10.426658978685737">
        <ele>558.65999999999997</ele>
        <time>2017-05-22T13:29:04Z</time>
      </trkpt>
      <trkpt lat="51.777057973667979" lon="10.428054984658957">
        <ele>558.17999999999995</ele>
        <time>2017-05-22T13:29:09Z</time>
      </trkpt>
      <trkpt lat="51.777108013629913" lon="10.428343992680311">
        <ele>558.17999999999995</ele>
        <time>2017-05-22T13:29:10Z</time>
      </trkpt>
      <trkpt lat="51.777140032500029" lon="10.428635012358427">
        <ele>558.17999999999995</ele>
        <time>2017-05-22T13:29:11Z</time>
      </trkpt>
      <trkpt lat="51.777172973379493" lon="10.42894103564322">
        <ele>559.13999999999999</ele>
        <time>2017-05-22T13:29:12Z</time>
      </trkpt>
      <trkpt lat="51.777229970321059" lon="10.429225014522672">
        <ele>559.13999999999999</ele>
        <time>2017-05-22T13:29:13Z</time>
      </trkpt>
      <trkpt lat="51.777313034981489" lon="10.429487032815814">
        <ele>559.13999999999999</ele>
        <time>2017-05-22T13:29:14Z</time>
      </trkpt>
      <trkpt lat="51.777412025257945" lon="10.429735975340009">
        <ele>561.07000000000005</ele>
        <time>2017-05-22T13:29:15Z</time>
      </trkpt>
      <trkpt lat="51.777516966685653" lon="10.429943008348346">
        <ele>561.54999999999995</ele>
        <time>2017-05-22T13:29:16Z</time>
      </trkpt>
      <trkpt lat="51.777641018852592" lon="10.430101007223129">
        <ele>562.02999999999997</ele>
        <time>2017-05-22T13:29:17Z</time>
      </trkpt>
      <trkpt lat="51.77778803743422" lon="10.430208966135979">
        <ele>562.02999999999997</ele>
        <time>2017-05-22T13:29:18Z</time>
      </trkpt>
      <trkpt lat="51.777937989681959" lon="10.430298987776041">
        <ele>562.50999999999999</ele>
        <time>2017-05-22T13:29:19Z</time>
      </trkpt>
      <trkpt lat="51.778076961636543" lon="10.430395966395736">
        <ele>562.50999999999999</ele>
        <time>2017-05-22T13:29:20Z</time>
      </trkpt>
      <trkpt lat="51.778188021853566" lon="10.430558994412422">
        <ele>562.99000000000001</ele>
        <time>2017-05-22T13:29:21Z</time>
      </trkpt>
      <trkpt lat="51.778279971331358" lon="10.430773990228772">
        <ele>563.95000000000005</ele>
        <time>2017-05-22T13:29:22Z</time>
      </trkpt>
      <trkpt lat="51.778353983536363" lon="10.43102896772325">
        <ele>564.42999999999995</ele>
        <time>2017-05-22T13:29:23Z</time>
      </trkpt>
      <trkpt lat="51.778430007398129" lon="10.431288974359632">
        <ele>564.42999999999995</ele>
        <time>2017-05-22T13:29:24Z</time>
      </trkpt>
      <trkpt lat="51.778490021824837" lon="10.431554010137916">
        <ele>564.42999999999995</ele>
        <time>2017-05-22T13:29:25Z</time>
      </trkpt>
      <trkpt lat="51.778542995452881" lon="10.431827008724213">
        <ele>564.42999999999995</ele>
        <time>2017-05-22T13:29:26Z</time>
      </trkpt>
      <trkpt lat="51.778611978515983" lon="10.432076035067439">
        <ele>564.42999999999995</ele>
        <time>2017-05-22T13:29:27Z</time>
      </trkpt>
      <trkpt lat="51.778714992105961" lon="10.432290025055408">
        <ele>564.42999999999995</ele>
        <time>2017-05-22T13:29:28Z</time>
      </trkpt>
      <trkpt lat="51.779490988701582" lon="10.43373104184866">
        <ele>564.42999999999995</ele>
        <time>2017-05-22T13:29:34Z</time>
      </trkpt>
      <trkpt lat="51.780171012505889" lon="10.435654018074274">
        <ele>564.90999999999997</ele>
        <time>2017-05-22T13:29:41Z</time>
      </trkpt>
      <trkpt lat="51.780265979468822" lon="10.435856021940708">
        <ele>563.95000000000005</ele>
        <time>2017-05-22T13:29:42Z</time>
      </trkpt>
      <trkpt lat="51.780386008322239" lon="10.436012009158731">
        <ele>563.95000000000005</ele>
        <time>2017-05-22T13:29:43Z</time>
      </trkpt>
      <trkpt lat="51.780532021075487" lon="10.43611703440547">
        <ele>563.47000000000003</ele>
        <time>2017-05-22T13:29:44Z</time>
      </trkpt>
      <trkpt lat="51.780701000243425" lon="10.43618299998343">
        <ele>562.99000000000001</ele>
        <time>2017-05-22T13:29:45Z</time>
      </trkpt>
      <trkpt lat="51.780888000503182" lon="10.436238991096616">
        <ele>562.99000000000001</ele>
        <time>2017-05-22T13:29:46Z</time>
      </trkpt>
      <trkpt lat="51.781083969399333" lon="10.436274027451873">
        <ele>562.99000000000001</ele>
        <time>2017-05-22T13:29:47Z</time>
      </trkpt>
      <trkpt lat="51.782086025923491" lon="10.436190040782094">
        <ele>563.95000000000005</ele>
        <time>2017-05-22T13:29:52Z</time>
      </trkpt>
      <trkpt lat="51.782267997041345" lon="10.436115022748709">
        <ele>564.42999999999995</ele>
        <time>2017-05-22T13:29:53Z</time>
      </trkpt>
      <trkpt lat="51.782969981431961" lon="10.435676984488964">
        <ele>562.50999999999999</ele>
        <time>2017-05-22T13:29:57Z</time>
      </trkpt>
      <trkpt lat="51.783129991963506" lon="10.435505993664265">
        <ele>562.99000000000001</ele>
        <time>2017-05-22T13:29:58Z</time>
      </trkpt>
      <trkpt lat="51.783258989453316" lon="10.435319999232888">
        <ele>562.50999999999999</ele>
        <time>2017-05-22T13:29:59Z</time>
      </trkpt>
      <trkpt lat="51.783349011093378" lon="10.435107015073299">
        <ele>562.50999999999999</ele>
        <time>2017-05-22T13:30:00Z</time>
      </trkpt>
      <trkpt lat="51.783444983884692" lon="10.434887995943427">
        <ele>562.99000000000001</ele>
        <time>2017-05-22T13:30:01Z</time>
      </trkpt>
      <trkpt lat="51.783549003303051" lon="10.434691021218896">
        <ele>562.50999999999999</ele>
        <time>2017-05-22T13:30:02Z</time>
      </trkpt>
      <trkpt lat="51.783683029934764" lon="10.434520030394197">
        <ele>562.02999999999997</ele>
        <time>2017-05-22T13:30:03Z</time>
      </trkpt>
      <trkpt lat="51.783841028809547" lon="10.434392038732767">
        <ele>562.02999999999997</ele>
        <time>2017-05-22T13:30:04Z</time>
      </trkpt>
      <trkpt lat="51.78399802185595" lon="10.434332024306059">
        <ele>561.07000000000005</ele>
        <time>2017-05-22T13:30:05Z</time>
      </trkpt>
      <trkpt lat="51.78414998576045" lon="10.434311991557479">
        <ele>559.62</ele>
        <time>2017-05-22T13:30:06Z</time>
      </trkpt>
      <trkpt lat="51.784319970756769" lon="10.434318026527762">
        <ele>559.13999999999999</ele>
        <time>2017-05-22T13:30:07Z</time>
      </trkpt>
      <trkpt lat="51.784499008208513" lon="10.434355996549129">
        <ele>558.65999999999997</ele>
        <time>2017-05-22T13:30:08Z</time>
      </trkpt>
      <trkpt lat="51.784693971276283" lon="10.434432020410895">
        <ele>558.65999999999997</ele>
        <time>2017-05-22T13:30:09Z</time>
      </trkpt>
      <trkpt lat="51.784870997071266" lon="10.434518018737435">
        <ele>558.65999999999997</ele>
        <time>2017-05-22T13:30:10Z</time>
      </trkpt>
      <trkpt lat="51.785219013690948" lon="10.434626983478665">
        <ele>558.65999999999997</ele>
        <time>2017-05-22T13:30:12Z</time>
      </trkpt>
      <trkpt lat="51.78539402782917" lon="10.434609968215227">
        <ele>558.17999999999995</ele>
        <time>2017-05-22T13:30:13Z</time>
      </trkpt>
      <trkpt lat="51.785563006997108" lon="10.43455196544528">
        <ele>557.70000000000005</ele>
        <time>2017-05-22T13:30:14Z</time>
      </trkpt>
      <trkpt lat="51.785727040842175" lon="10.434453980997205">
        <ele>557.70000000000005</ele>
        <time>2017-05-22T13:30:15Z</time>
      </trkpt>
      <trkpt lat="51.785882022231817" lon="10.434346022084355">
        <ele>557.22000000000003</ele>
        <time>2017-05-22T13:30:16Z</time>
      </trkpt>
      <trkpt lat="51.786072039976716" lon="10.434248959645629">
        <ele>556.25999999999999</ele>
        <time>2017-05-22T13:30:17Z</time>
      </trkpt>
      <trkpt lat="51.786262979730964" lon="10.434183999896049">
        <ele>556.74000000000001</ele>
        <time>2017-05-22T13:30:18Z</time>
      </trkpt>
      <trkpt lat="51.786442017182708" lon="10.434151981025934">
        <ele>556.74000000000001</ele>
        <time>2017-05-22T13:30:19Z</time>
      </trkpt>
      <trkpt lat="51.78659699857235" lon="10.434160027652979">
        <ele>556.25999999999999</ele>
        <time>2017-05-22T13:30:20Z</time>
      </trkpt>
      <trkpt lat="51.786744017153978" lon="10.434192968532443">
        <ele>556.25999999999999</ele>
        <time>2017-05-22T13:30:21Z</time>
      </trkpt>
      <trkpt lat="51.786849964410067" lon="10.434317020699382">
        <ele>555.77999999999997</ele>
        <time>2017-05-22T13:30:22Z</time>
      </trkpt>
      <trkpt lat="51.786987008526921" lon="10.434482982382178">
        <ele>555.29999999999995</ele>
        <time>2017-05-22T13:30:23Z</time>
      </trkpt>
      <trkpt lat="51.787127992138267" lon="10.434668976813555">
        <ele>554.82000000000005</ele>
        <time>2017-05-22T13:30:24Z</time>
      </trkpt>
      <trkpt lat="51.787234023213387" lon="10.434900987893343">
        <ele>554.34000000000003</ele>
        <time>2017-05-22T13:30:25Z</time>
      </trkpt>
      <trkpt lat="51.787344999611378" lon="10.435149008408189">
        <ele>553.86000000000001</ele>
        <time>2017-05-22T13:30:26Z</time>
      </trkpt>
      <trkpt lat="51.787409959360957" lon="10.435393005609512">
        <ele>552.89999999999998</ele>
        <time>2017-05-22T13:30:27Z</time>
      </trkpt>
      <trkpt lat="51.787592014297843" lon="10.435847975313663">
        <ele>551.45000000000005</ele>
        <time>2017-05-22T13:30:29Z</time>
      </trkpt>
      <trkpt lat="51.787697039544582" lon="10.436000023037195">
        <ele>550.49000000000001</ele>
        <time>2017-05-22T13:30:30Z</time>
      </trkpt>
      <trkpt lat="51.787792006507516" lon="10.4360740352422">
        <ele>550.00999999999999</ele>
        <time>2017-05-22T13:30:31Z</time>
      </trkpt>
      <trkpt lat="51.787936007604003" lon="10.436045033857226">
        <ele>548.09000000000003</ele>
        <time>2017-05-22T13:30:32Z</time>
      </trkpt>
      <trkpt lat="51.788057964295149" lon="10.435991976410151">
        <ele>548.09000000000003</ele>
        <time>2017-05-22T13:30:33Z</time>
      </trkpt>
      <trkpt lat="51.788189979270101" lon="10.435883011668921">
        <ele>547.13</ele>
        <time>2017-05-22T13:30:34Z</time>
      </trkpt>
      <trkpt lat="51.788292992860079" lon="10.435738004744053">
        <ele>546.64999999999998</ele>
        <time>2017-05-22T13:30:35Z</time>
      </trkpt>
      <trkpt lat="51.788417967036366" lon="10.435629962012172">
        <ele>546.16999999999996</ele>
        <time>2017-05-22T13:30:36Z</time>
      </trkpt>
      <trkpt lat="51.788591975346208" lon="10.435523008927703">
        <ele>545.69000000000005</ele>
        <time>2017-05-22T13:30:37Z</time>
      </trkpt>
      <trkpt lat="51.788751985877752" lon="10.435469029471278">
        <ele>545.20000000000005</ele>
        <time>2017-05-22T13:30:38Z</time>
      </trkpt>
      <trkpt lat="51.788905039429665" lon="10.435466011986136">
        <ele>544.72000000000003</ele>
        <time>2017-05-22T13:30:39Z</time>
      </trkpt>
      <trkpt lat="51.78909002803266" lon="10.435514040291309">
        <ele>543.75999999999999</ele>
        <time>2017-05-22T13:30:40Z</time>
      </trkpt>
      <trkpt lat="51.789274010807276" lon="10.435566008090973">
        <ele>543.27999999999997</ele>
        <time>2017-05-22T13:30:41Z</time>
      </trkpt>
      <trkpt lat="51.789837023243308" lon="10.435829032212496">
        <ele>540.88</ele>
        <time>2017-05-22T13:30:44Z</time>
      </trkpt>
      <trkpt lat="51.789984041824937" lon="10.43596800416708">
        <ele>539.44000000000005</ele>
        <time>2017-05-22T13:30:45Z</time>
      </trkpt>
      <trkpt lat="51.790131982415915" lon="10.436146035790443">
        <ele>537.50999999999999</ele>
        <time>2017-05-22T13:30:46Z</time>
      </trkpt>
      <trkpt lat="51.790654007345438" lon="10.437010964378715">
        <ele>530.78999999999996</ele>
        <time>2017-05-22T13:30:50Z</time>
      </trkpt>
      <trkpt lat="51.790748974308372" lon="10.437269965186715">
        <ele>528.86000000000001</ele>
        <time>2017-05-22T13:30:51Z</time>
      </trkpt>
      <trkpt lat="51.790828015655279" lon="10.437555033713579">
        <ele>527.89999999999998</ele>
        <time>2017-05-22T13:30:52Z</time>
      </trkpt>
      <trkpt lat="51.791236968711019" lon="10.439886962994933">
        <ele>513.96000000000004</ele>
        <time>2017-05-22T13:30:59Z</time>
      </trkpt>
      <trkpt lat="51.791312992572784" lon="10.441033020615578">
        <ele>507.70999999999998</ele>
        <time>2017-05-22T13:31:03Z</time>
      </trkpt>
      <trkpt lat="51.791350962594151" lon="10.441278023645282">
        <ele>506.26999999999998</ele>
        <time>2017-05-22T13:31:04Z</time>
      </trkpt>
      <trkpt lat="51.791422963142395" lon="10.441487990319729">
        <ele>505.79000000000002</ele>
        <time>2017-05-22T13:31:05Z</time>
      </trkpt>
      <trkpt lat="51.791524970903993" lon="10.441664010286331">
        <ele>505.31</ele>
        <time>2017-05-22T13:31:06Z</time>
      </trkpt>
      <trkpt lat="51.79166603833437" lon="10.441823014989495">
        <ele>504.82999999999998</ele>
        <time>2017-05-22T13:31:07Z</time>
      </trkpt>
      <trkpt lat="51.79183904081583" lon="10.441952012479305">
        <ele>504.35000000000002</ele>
        <time>2017-05-22T13:31:08Z</time>
      </trkpt>
      <trkpt lat="51.792008019983768" lon="10.442071035504341">
        <ele>504.35000000000002</ele>
        <time>2017-05-22T13:31:09Z</time>
      </trkpt>
      <trkpt lat="51.792574971914291" lon="10.442460961639881">
        <ele>505.31</ele>
        <time>2017-05-22T13:31:13Z</time>
      </trkpt>
      <trkpt lat="51.792681002989411" lon="10.442590964958072">
        <ele>505.79000000000002</ele>
        <time>2017-05-22T13:31:14Z</time>
      </trkpt>
      <trkpt lat="51.792750991880894" lon="10.442735971882939">
        <ele>505.79000000000002</ele>
        <time>2017-05-22T13:31:15Z</time>
      </trkpt>
      <trkpt lat="51.792917959392071" lon="10.443285992369056">
        <ele>507.23000000000002</ele>
        <time>2017-05-22T13:31:18Z</time>
      </trkpt>
      <trkpt lat="51.792950984090567" lon="10.443498976528645">
        <ele>507.70999999999998</ele>
        <time>2017-05-22T13:31:19Z</time>
      </trkpt>
      <trkpt lat="51.79295701906085" lon="10.443727970123291">
        <ele>507.70999999999998</ele>
        <time>2017-05-22T13:31:20Z</time>
      </trkpt>
      <trkpt lat="51.792925000190735" lon="10.443974984809756">
        <ele>507.23000000000002</ele>
        <time>2017-05-22T13:31:21Z</time>
      </trkpt>
      <trkpt lat="51.792907984927297" lon="10.444205990061164">
        <ele>507.23000000000002</ele>
        <time>2017-05-22T13:31:22Z</time>
      </trkpt>
      <trkpt lat="51.7929130140692" lon="10.444640005007386">
        <ele>506.75</ele>
        <time>2017-05-22T13:31:24Z</time>
      </trkpt>
      <trkpt lat="51.792942015454173" lon="10.444849971681833">
        <ele>506.75</ele>
        <time>2017-05-22T13:31:25Z</time>
      </trkpt>
      <trkpt lat="51.792989037930965" lon="10.44505700469017">
        <ele>506.75</ele>
        <time>2017-05-22T13:31:26Z</time>
      </trkpt>
      <trkpt lat="51.793047040700912" lon="10.445250039920211">
        <ele>507.23000000000002</ele>
        <time>2017-05-22T13:31:27Z</time>
      </trkpt>
      <trkpt lat="51.793127004057169" lon="10.445431005209684">
        <ele>507.23000000000002</ele>
        <time>2017-05-22T13:31:28Z</time>
      </trkpt>
      <trkpt lat="51.793238986283541" lon="10.445583974942565">
        <ele>507.23000000000002</ele>
        <time>2017-05-22T13:31:29Z</time>
      </trkpt>
      <trkpt lat="51.793354991823435" lon="10.445713978260756">
        <ele>507.70999999999998</ele>
        <time>2017-05-22T13:31:30Z</time>
      </trkpt>
      <trkpt lat="51.793482983484864" lon="10.445805005729198">
        <ele>507.23000000000002</ele>
        <time>2017-05-22T13:31:31Z</time>
      </trkpt>
      <trkpt lat="51.793612986803055" lon="10.445867031812668">
        <ele>507.70999999999998</ele>
        <time>2017-05-22T13:31:32Z</time>
      </trkpt>
      <trkpt lat="51.793754976242781" lon="10.445896033197641">
        <ele>508.19</ele>
        <time>2017-05-22T13:31:33Z</time>
      </trkpt>
      <trkpt lat="51.793881040066481" lon="10.445906007662416">
        <ele>509.16000000000003</ele>
        <time>2017-05-22T13:31:34Z</time>
      </trkpt>
      <trkpt lat="51.793997967615724" lon="10.445910030975938">
        <ele>509.16000000000003</ele>
        <time>2017-05-22T13:31:35Z</time>
      </trkpt>
      <trkpt lat="51.794459978118539" lon="10.446031987667084">
        <ele>511.56</ele>
        <time>2017-05-22T13:31:39Z</time>
      </trkpt>
      <trkpt lat="51.794545976445079" lon="10.446100970730186">
        <ele>511.56</ele>
        <time>2017-05-22T13:31:40Z</time>
      </trkpt>
      <trkpt lat="51.794642033055425" lon="10.446172971278429">
        <ele>512.51999999999998</ele>
        <time>2017-05-22T13:31:41Z</time>
      </trkpt>
      <trkpt lat="51.79566596634686" lon="10.447218026965857">
        <ele>517.80999999999995</ele>
        <time>2017-05-22T13:31:53Z</time>
      </trkpt>
      <trkpt lat="51.796654025092721" lon="10.448053032159805">
        <ele>509.63999999999999</ele>
        <time>2017-05-22T13:32:04Z</time>
      </trkpt>
      <trkpt lat="51.796786962077022" lon="10.448177000507712">
        <ele>507.70999999999998</ele>
        <time>2017-05-22T13:32:06Z</time>
      </trkpt>
      <trkpt lat="51.796842031180859" lon="10.448249001055956">
        <ele>507.23000000000002</ele>
        <time>2017-05-22T13:32:07Z</time>
      </trkpt>
      <trkpt lat="51.796892993152142" lon="10.448333993554115">
        <ele>506.75</ele>
        <time>2017-05-22T13:32:08Z</time>
      </trkpt>
      <trkpt lat="51.796920988708735" lon="10.448456034064293">
        <ele>507.23000000000002</ele>
        <time>2017-05-22T13:32:09Z</time>
      </trkpt>
      <trkpt lat="51.796934986487031" lon="10.4485800024122">
        <ele>506.75</ele>
        <time>2017-05-22T13:32:10Z</time>
      </trkpt>
      <trkpt lat="51.796927023679018" lon="10.448718974366784">
        <ele>506.26999999999998</ele>
        <time>2017-05-22T13:32:11Z</time>
      </trkpt>
      <trkpt lat="51.796884024515748" lon="10.448839003220201">
        <ele>505.79000000000002</ele>
        <time>2017-05-22T13:32:12Z</time>
      </trkpt>
      <trkpt lat="51.79682401008904" lon="10.448962971568108">
        <ele>505.31</ele>
        <time>2017-05-22T13:32:13Z</time>
      </trkpt>
      <trkpt lat="51.796745974570513" lon="10.449083000421524">
        <ele>504.82999999999998</ele>
        <time>2017-05-22T13:32:14Z</time>
      </trkpt>
      <trkpt lat="51.796656036749482" lon="10.449206968769431">
        <ele>504.82999999999998</ele>
        <time>2017-05-22T13:32:15Z</time>
      </trkpt>
      <trkpt lat="51.795625984668732" lon="10.450546983629465">
        <ele>502.43000000000001</ele>
        <time>2017-05-22T13:32:25Z</time>
      </trkpt>
      <trkpt lat="51.795411994680762" lon="10.450867004692554">
        <ele>501.94999999999999</ele>
        <time>2017-05-22T13:32:28Z</time>
      </trkpt>
      <trkpt lat="51.795370001345873" lon="10.450996002182364">
        <ele>501.45999999999998</ele>
        <time>2017-05-22T13:32:29Z</time>
      </trkpt>
      <trkpt lat="51.795348962768912" lon="10.451141009107232">
        <ele>500.98000000000002</ele>
        <time>2017-05-22T13:32:30Z</time>
      </trkpt>
      <trkpt lat="51.795350974425673" lon="10.451294984668493">
        <ele>500.5</ele>
        <time>2017-05-22T13:32:31Z</time>
      </trkpt>
      <trkpt lat="51.795374024659395" lon="10.451440997421741">
        <ele>500.5</ele>
        <time>2017-05-22T13:32:32Z</time>
      </trkpt>
      <trkpt lat="51.795419035479426" lon="10.451575024053454">
        <ele>500.01999999999998</ele>
        <time>2017-05-22T13:32:33Z</time>
      </trkpt>
      <trkpt lat="51.795483995229006" lon="10.451689017936587">
        <ele>499.54000000000002</ele>
        <time>2017-05-22T13:32:34Z</time>
      </trkpt>
      <trkpt lat="51.795564964413643" lon="10.45177903957665">
        <ele>499.06</ele>
        <time>2017-05-22T13:32:35Z</time>
      </trkpt>
      <trkpt lat="51.795654986053705" lon="10.451835030689836">
        <ele>498.57999999999998</ele>
        <time>2017-05-22T13:32:36Z</time>
      </trkpt>
      <trkpt lat="51.795761017128825" lon="10.451849028468132">
        <ele>497.62</ele>
        <time>2017-05-22T13:32:37Z</time>
      </trkpt>
      <trkpt lat="51.795893032103777" lon="10.451813992112875">
        <ele>496.66000000000003</ele>
        <time>2017-05-22T13:32:38Z</time>
      </trkpt>
      <trkpt lat="51.79603099822998" lon="10.451741991564631">
        <ele>496.18000000000001</ele>
        <time>2017-05-22T13:32:39Z</time>
      </trkpt>
      <trkpt lat="51.796183967962861" lon="10.451649958267808">
        <ele>495.69999999999999</ele>
        <time>2017-05-22T13:32:40Z</time>
      </trkpt>
      <trkpt lat="51.797671001404524" lon="10.450746975839138">
        <ele>486.07999999999998</ele>
        <time>2017-05-22T13:32:50Z</time>
      </trkpt>
      <trkpt lat="51.798943039029837" lon="10.449885986745358">
        <ele>478.87</ele>
        <time>2017-05-22T13:33:00Z</time>
      </trkpt>
      <trkpt lat="51.799044040963054" lon="10.449751960113645">
        <ele>478.38999999999999</ele>
        <time>2017-05-22T13:33:01Z</time>
      </trkpt>
      <trkpt lat="51.799131967127323" lon="10.449597984552383">
        <ele>477.43000000000001</ele>
        <time>2017-05-22T13:33:02Z</time>
      </trkpt>
      <trkpt lat="51.79918896406889" lon="10.449420958757401">
        <ele>477.43000000000001</ele>
        <time>2017-05-22T13:33:03Z</time>
      </trkpt>
      <trkpt lat="51.799263982102275" lon="10.449256002902985">
        <ele>476.47000000000003</ele>
        <time>2017-05-22T13:33:04Z</time>
      </trkpt>
      <trkpt lat="51.799409994855523" lon="10.448948973789811">
        <ele>475.02999999999997</ele>
        <time>2017-05-22T13:33:06Z</time>
      </trkpt>
      <trkpt lat="51.799657009541988" lon="10.448543960228562">
        <ele>472.63</ele>
        <time>2017-05-22T13:33:09Z</time>
      </trkpt>
      <trkpt lat="51.799754993990064" lon="10.448436001315713">
        <ele>472.13999999999999</ele>
        <time>2017-05-22T13:33:10Z</time>
      </trkpt>
      <trkpt lat="51.799863958731294" lon="10.448351008817554">
        <ele>471.66000000000003</ele>
        <time>2017-05-22T13:33:11Z</time>
      </trkpt>
      <trkpt lat="51.799976024776697" lon="10.448281019926071">
        <ele>471.18000000000001</ele>
        <time>2017-05-22T13:33:12Z</time>
      </trkpt>
      <trkpt lat="51.800082977861166" lon="10.448225028812885">
        <ele>470.69999999999999</ele>
        <time>2017-05-22T13:33:13Z</time>
      </trkpt>
      <trkpt lat="51.800909014418721" lon="10.447994023561478">
        <ele>470.22000000000003</ele>
        <time>2017-05-22T13:33:21Z</time>
      </trkpt>
      <trkpt lat="51.800996018573642" lon="10.447997963055968">
        <ele>471.18000000000001</ele>
        <time>2017-05-22T13:33:22Z</time>
      </trkpt>
      <trkpt lat="51.801474960520864" lon="10.447980025783181">
        <ele>475.02999999999997</ele>
        <time>2017-05-22T13:33:28Z</time>
      </trkpt>
      <trkpt lat="51.801484012976289" lon="10.447945995256305">
        <ele>475.02999999999997</ele>
        <time>2017-05-22T13:33:29Z</time>
      </trkpt>
      <trkpt lat="51.801900006830692" lon="10.447854967787862">
        <ele>475.99000000000001</ele>
        <time>2017-05-22T13:33:35Z</time>
      </trkpt>
      <trkpt lat="51.801974019035697" lon="10.447834013029933">
        <ele>475.99000000000001</ele>
        <time>2017-05-22T13:33:36Z</time>
      </trkpt>
      <trkpt lat="51.802053982391953" lon="10.447800988331437">
        <ele>476.47000000000003</ele>
        <time>2017-05-22T13:33:37Z</time>
      </trkpt>
      <trkpt lat="51.802125982940197" lon="10.447760000824928">
        <ele>476.94999999999999</ele>
        <time>2017-05-22T13:33:38Z</time>
      </trkpt>
      <trkpt lat="51.802193038165569" lon="10.447692023590207">
        <ele>475.99000000000001</ele>
        <time>2017-05-22T13:33:39Z</time>
      </trkpt>
      <trkpt lat="51.802270989865065" lon="10.447632009163499">
        <ele>475.99000000000001</ele>
        <time>2017-05-22T13:33:40Z</time>
      </trkpt>
      <trkpt lat="51.802418008446693" lon="10.447547016665339">
        <ele>476.47000000000003</ele>
        <time>2017-05-22T13:33:42Z</time>
      </trkpt>
      <trkpt lat="51.803370025008917" lon="10.447364961728454">
        <ele>475.99000000000001</ele>
        <time>2017-05-22T13:33:53Z</time>
      </trkpt>
      <trkpt lat="51.803504973649979" lon="10.447302013635635">
        <ele>471.66000000000003</ele>
        <time>2017-05-22T13:33:54Z</time>
      </trkpt>
      <trkpt lat="51.803569011390209" lon="10.447240993380547">
        <ele>471.18000000000001</ele>
        <time>2017-05-22T13:33:55Z</time>
      </trkpt>
      <trkpt lat="51.803600024431944" lon="10.447152983397245">
        <ele>469.25999999999999</ele>
        <time>2017-05-22T13:33:56Z</time>
      </trkpt>
      <trkpt lat="51.803625002503395" lon="10.44705399312079">
        <ele>468.77999999999997</ele>
        <time>2017-05-22T13:33:57Z</time>
      </trkpt>
      <trkpt lat="51.803579991683364" lon="10.446913009509444">
        <ele>465.42000000000002</ele>
        <time>2017-05-22T13:33:58Z</time>
      </trkpt>
      <trkpt lat="51.803716029971838" lon="10.446287970989943">
        <ele>461.56999999999999</ele>
        <time>2017-05-22T13:34:03Z</time>
      </trkpt>
      <trkpt lat="51.803747965022922" lon="10.445627979934216">
        <ele>459.17000000000002</ele>
        <time>2017-05-22T13:34:08Z</time>
      </trkpt>
      <trkpt lat="51.803734973073006" lon="10.445513986051083">
        <ele>457.24000000000001</ele>
        <time>2017-05-22T13:34:09Z</time>
      </trkpt>
      <trkpt lat="51.803720975294709" lon="10.445393035188317">
        <ele>457.24000000000001</ele>
        <time>2017-05-22T13:34:10Z</time>
      </trkpt>
      <trkpt lat="51.80363598279655" lon="10.444946028292179">
        <ele>453.39999999999998</ele>
        <time>2017-05-22T13:34:14Z</time>
      </trkpt>
      <trkpt lat="51.803647968918085" lon="10.444848965853453">
        <ele>452.44</ele>
        <time>2017-05-22T13:34:15Z</time>
      </trkpt>
      <trkpt lat="51.803709995001554" lon="10.444766990840435">
        <ele>452.44</ele>
        <time>2017-05-22T13:34:16Z</time>
      </trkpt>
      <trkpt lat="51.804167982190847" lon="10.443262020125985">
        <ele>448.58999999999997</ele>
        <time>2017-05-22T13:34:28Z</time>
      </trkpt>
      <trkpt lat="51.804405022412539" lon="10.442402036860585">
        <ele>446.67000000000002</ele>
        <time>2017-05-22T13:34:34Z</time>
      </trkpt>
      <trkpt lat="51.804718002676964" lon="10.441610030829906">
        <ele>445.23000000000002</ele>
        <time>2017-05-22T13:34:39Z</time>
      </trkpt>
      <trkpt lat="51.804995024576783" lon="10.441140979528427">
        <ele>443.79000000000002</ele>
        <time>2017-05-22T13:34:42Z</time>
      </trkpt>
      <trkpt lat="51.805104995146394" lon="10.440997984260321">
        <ele>443.31</ele>
        <time>2017-05-22T13:34:43Z</time>
      </trkpt>
      <trkpt lat="51.80522502399981" lon="10.440865969285369">
        <ele>443.31</ele>
        <time>2017-05-22T13:34:44Z</time>
      </trkpt>
      <trkpt lat="51.806134041398764" lon="10.4398990329355">
        <ele>442.81999999999999</ele>
        <time>2017-05-22T13:34:52Z</time>
      </trkpt>
      <trkpt lat="51.807348998263478" lon="10.438691033050418">
        <ele>445.23000000000002</ele>
        <time>2017-05-22T13:35:03Z</time>
      </trkpt>
      <trkpt lat="51.808346025645733" lon="10.437634997069836">
        <ele>446.67000000000002</ele>
        <time>2017-05-22T13:35:12Z</time>
      </trkpt>
      <trkpt lat="51.808846006169915" lon="10.437298966571689">
        <ele>447.63</ele>
        <time>2017-05-22T13:35:16Z</time>
      </trkpt>
      <trkpt lat="51.808984978124499" lon="10.43727901764214">
        <ele>447.63</ele>
        <time>2017-05-22T13:35:17Z</time>
      </trkpt>
      <trkpt lat="51.809145994484425" lon="10.437288992106915">
        <ele>447.63</ele>
        <time>2017-05-22T13:35:18Z</time>
      </trkpt>
      <trkpt lat="51.810721959918737" lon="10.437483033165336">
        <ele>446.19</ele>
        <time>2017-05-22T13:35:28Z</time>
      </trkpt>
      <trkpt lat="51.812150990590453" lon="10.437651006504893">
        <ele>446.19</ele>
        <time>2017-05-22T13:35:38Z</time>
      </trkpt>
      <trkpt lat="51.813521012663841" lon="10.437962980940938">
        <ele>445.23000000000002</ele>
        <time>2017-05-22T13:35:47Z</time>
      </trkpt>
      <trkpt lat="51.814643014222383" lon="10.438453992828727">
        <ele>442.81999999999999</ele>
        <time>2017-05-22T13:35:54Z</time>
      </trkpt>
      <trkpt lat="51.814789026975632" lon="10.438451981171966">
        <ele>442.81999999999999</ele>
        <time>2017-05-22T13:35:55Z</time>
      </trkpt>
      <trkpt lat="51.814932022243738" lon="10.438420968130231">
        <ele>442.81999999999999</ele>
        <time>2017-05-22T13:35:56Z</time>
      </trkpt>
      <trkpt lat="51.816519973799586" lon="10.438358020037413">
        <ele>441.38</ele>
        <time>2017-05-22T13:36:06Z</time>
      </trkpt>
      <trkpt lat="51.818390982225537" lon="10.438708970323205">
        <ele>439.45999999999998</ele>
        <time>2017-05-22T13:36:15Z</time>
      </trkpt>
      <trkpt lat="51.819954961538315" lon="10.438900999724865">
        <ele>442.33999999999997</ele>
        <time>2017-05-22T13:36:22Z</time>
      </trkpt>
      <trkpt lat="51.820131987333298" lon="10.439006024971604">
        <ele>441.38</ele>
        <time>2017-05-22T13:36:23Z</time>
      </trkpt>
      <trkpt lat="51.8203080072999" lon="10.439158994704485">
        <ele>440.89999999999998</ele>
        <time>2017-05-22T13:36:24Z</time>
      </trkpt>
      <trkpt lat="51.820460977032781" lon="10.439371978864074">
        <ele>440.42000000000002</ele>
        <time>2017-05-22T13:36:25Z</time>
      </trkpt>
      <trkpt lat="51.820612018927932" lon="10.439595021307468">
        <ele>439.45999999999998</ele>
        <time>2017-05-22T13:36:26Z</time>
      </trkpt>
      <trkpt lat="51.820759959518909" lon="10.439829966053367">
        <ele>439.45999999999998</ele>
        <time>2017-05-22T13:36:27Z</time>
      </trkpt>
      <trkpt lat="51.82198497466743" lon="10.441843969747424">
        <ele>434.17000000000002</ele>
        <time>2017-05-22T13:36:35Z</time>
      </trkpt>
      <trkpt lat="51.822078013792634" lon="10.442173965275288">
        <ele>434.17000000000002</ele>
        <time>2017-05-22T13:36:36Z</time>
      </trkpt>
      <trkpt lat="51.822152025997639" lon="10.442503038793802">
        <ele>433.69</ele>
        <time>2017-05-22T13:36:37Z</time>
      </trkpt>
      <trkpt lat="51.822209022939205" lon="10.442869998514652">
        <ele>433.20999999999998</ele>
        <time>2017-05-22T13:36:38Z</time>
      </trkpt>
      <trkpt lat="51.822268031537533" lon="10.443236958235502">
        <ele>432.73000000000002</ele>
        <time>2017-05-22T13:36:39Z</time>
      </trkpt>
      <trkpt lat="51.822658963501453" lon="10.445032026618719">
        <ele>429.37</ele>
        <time>2017-05-22T13:36:44Z</time>
      </trkpt>
      <trkpt lat="51.822784021496773" lon="10.445311982184649">
        <ele>428.39999999999998</ele>
        <time>2017-05-22T13:36:45Z</time>
      </trkpt>
      <trkpt lat="51.822931040078402" lon="10.445537958294153">
        <ele>428.39999999999998</ele>
        <time>2017-05-22T13:36:46Z</time>
      </trkpt>
      <trkpt lat="51.823084009811282" lon="10.445723030716181">
        <ele>428.39999999999998</ele>
        <time>2017-05-22T13:36:47Z</time>
      </trkpt>
      <trkpt lat="51.823246031999588" lon="10.445867031812668">
        <ele>427.92000000000002</ele>
        <time>2017-05-22T13:36:48Z</time>
      </trkpt>
      <trkpt lat="51.823420962318778" lon="10.445969039574265">
        <ele>428.39999999999998</ele>
        <time>2017-05-22T13:36:49Z</time>
      </trkpt>
      <trkpt lat="51.823604023084044" lon="10.446041040122509">
        <ele>428.39999999999998</ele>
        <time>2017-05-22T13:36:50Z</time>
      </trkpt>
      <trkpt lat="51.823795968666673" lon="10.446084961295128">
        <ele>428.39999999999998</ele>
        <time>2017-05-22T13:36:51Z</time>
      </trkpt>
      <trkpt lat="51.823997972533107" lon="10.446101976558566">
        <ele>428.39999999999998</ele>
        <time>2017-05-22T13:36:52Z</time>
      </trkpt>
      <trkpt lat="51.824203999713063" lon="10.446107005700469">
        <ele>428.88999999999999</ele>
        <time>2017-05-22T13:36:53Z</time>
      </trkpt>
      <trkpt lat="51.824638014659286" lon="10.446165008470416">
        <ele>429.37</ele>
        <time>2017-05-22T13:36:55Z</time>
      </trkpt>
      <trkpt lat="51.824849992990494" lon="10.446270033717155">
        <ele>428.88999999999999</ele>
        <time>2017-05-22T13:36:56Z</time>
      </trkpt>
      <trkpt lat="51.827050996944308" lon="10.447624968364835">
        <ele>420.70999999999998</ele>
        <time>2017-05-22T13:37:06Z</time>
      </trkpt>
      <trkpt lat="51.827478976920247" lon="10.447954041883349">
        <ele>419.75</ele>
        <time>2017-05-22T13:37:08Z</time>
      </trkpt>
      <trkpt lat="51.82767896912992" lon="10.448158979415894">
        <ele>418.79000000000002</ele>
        <time>2017-05-22T13:37:09Z</time>
      </trkpt>
      <trkpt lat="51.827872004359961" lon="10.448395013809204">
        <ele>418.31</ele>
        <time>2017-05-22T13:37:10Z</time>
      </trkpt>
      <trkpt lat="51.828915970399976" lon="10.45008597895503">
        <ele>420.23000000000002</ele>
        <time>2017-05-22T13:37:17Z</time>
      </trkpt>
      <trkpt lat="51.829531034454703" lon="10.451908959075809">
        <ele>426.48000000000002</ele>
        <time>2017-05-22T13:37:25Z</time>
      </trkpt>
      <trkpt lat="51.829630024731159" lon="10.452628964558244">
        <ele>426.48000000000002</ele>
        <time>2017-05-22T13:37:28Z</time>
      </trkpt>
      <trkpt lat="51.829695990309119" lon="10.453548040241003">
        <ele>428.88999999999999</ele>
        <time>2017-05-22T13:37:31Z</time>
      </trkpt>
      <trkpt lat="51.829716023057699" lon="10.455718031153083">
        <ele>430.32999999999998</ele>
        <time>2017-05-22T13:37:38Z</time>
      </trkpt>
      <trkpt lat="51.829748963937163" lon="10.455952975898981">
        <ele>430.32999999999998</ele>
        <time>2017-05-22T13:37:39Z</time>
      </trkpt>
      <trkpt lat="51.829808978363872" lon="10.456146011129022">
        <ele>428.39999999999998</ele>
        <time>2017-05-22T13:37:40Z</time>
      </trkpt>
      <trkpt lat="51.82988902553916" lon="10.456325970590115">
        <ele>427.92000000000002</ele>
        <time>2017-05-22T13:37:41Z</time>
      </trkpt>
      <trkpt lat="51.829987009987235" lon="10.456473995000124">
        <ele>426.95999999999998</ele>
        <time>2017-05-22T13:37:42Z</time>
      </trkpt>
      <trkpt lat="51.83010402135551" lon="10.456560999155045">
        <ele>426</ele>
        <time>2017-05-22T13:37:43Z</time>
      </trkpt>
      <trkpt lat="51.830241987481713" lon="10.456611961126328">
        <ele>426</ele>
        <time>2017-05-22T13:37:44Z</time>
      </trkpt>
      <trkpt lat="51.8303859885782" lon="10.456625958904624">
        <ele>426</ele>
        <time>2017-05-22T13:37:45Z</time>
      </trkpt>
      <trkpt lat="51.830545999109745" lon="10.456613972783089">
        <ele>426</ele>
        <time>2017-05-22T13:37:46Z</time>
      </trkpt>
      <trkpt lat="51.831306992098689" lon="10.45655001886189">
        <ele>426</ele>
        <time>2017-05-22T13:37:50Z</time>
      </trkpt>
      <trkpt lat="51.831514025107026" lon="10.45659301802516">
        <ele>426</ele>
        <time>2017-05-22T13:37:51Z</time>
      </trkpt>
      <trkpt lat="51.831719968467951" lon="10.456662001088262">
        <ele>426.48000000000002</ele>
        <time>2017-05-22T13:37:52Z</time>
      </trkpt>
      <trkpt lat="51.833322001621127" lon="10.457243034616113">
        <ele>429.37</ele>
        <time>2017-05-22T13:38:01Z</time>
      </trkpt>
      <trkpt lat="51.835375986993313" lon="10.457590967416763">
        <ele>431.76999999999998</ele>
        <time>2017-05-22T13:38:13Z</time>
      </trkpt>
      <trkpt lat="51.83554002083838" lon="10.45764796435833">
        <ele>431.76999999999998</ele>
        <time>2017-05-22T13:38:14Z</time>
      </trkpt>
      <trkpt lat="51.835696008056402" lon="10.457741003483534">
        <ele>431.76999999999998</ele>
        <time>2017-05-22T13:38:15Z</time>
      </trkpt>
      <trkpt lat="51.835849983617663" lon="10.457870000973344">
        <ele>431.29000000000002</ele>
        <time>2017-05-22T13:38:16Z</time>
      </trkpt>
      <trkpt lat="51.83599398471415" lon="10.458017019554973">
        <ele>430.81</ele>
        <time>2017-05-22T13:38:17Z</time>
      </trkpt>
      <trkpt lat="51.836144020780921" lon="10.45818398706615">
        <ele>430.32999999999998</ele>
        <time>2017-05-22T13:38:18Z</time>
      </trkpt>
      <trkpt lat="51.836578035727143" lon="10.458649015054107">
        <ele>429.37</ele>
        <time>2017-05-22T13:38:21Z</time>
      </trkpt>
      <trkpt lat="51.836732011288404" lon="10.458735013380647">
        <ele>428.39999999999998</ele>
        <time>2017-05-22T13:38:22Z</time>
      </trkpt>
      <trkpt lat="51.836895039305091" lon="10.458750016987324">
        <ele>426.95999999999998</ele>
        <time>2017-05-22T13:38:23Z</time>
      </trkpt>
      <trkpt lat="51.837057983502746" lon="10.458706011995673">
        <ele>426.48000000000002</ele>
        <time>2017-05-22T13:38:24Z</time>
      </trkpt>
      <trkpt lat="51.837186980992556" lon="10.458620013669133">
        <ele>426.48000000000002</ele>
        <time>2017-05-22T13:38:25Z</time>
      </trkpt>
      <trkpt lat="51.837273985147476" lon="10.458469977602363">
        <ele>426</ele>
        <time>2017-05-22T13:38:26Z</time>
      </trkpt>
      <trkpt lat="51.837358977645636" lon="10.458281971514225">
        <ele>424.56</ele>
        <time>2017-05-22T13:38:27Z</time>
      </trkpt>
      <trkpt lat="51.837396025657654" lon="10.458046020939946">
        <ele>423.12</ele>
        <time>2017-05-22T13:38:28Z</time>
      </trkpt>
      <trkpt lat="51.837429972365499" lon="10.457815015688539">
        <ele>422.16000000000003</ele>
        <time>2017-05-22T13:38:29Z</time>
      </trkpt>
      <trkpt lat="51.837457967922091" lon="10.45756297186017">
        <ele>421.68000000000001</ele>
        <time>2017-05-22T13:38:30Z</time>
      </trkpt>
      <trkpt lat="51.837661983445287" lon="10.45524001121521">
        <ele>420.23000000000002</ele>
        <time>2017-05-22T13:38:38Z</time>
      </trkpt>
      <trkpt lat="51.837983010336757" lon="10.452978992834687">
        <ele>420.23000000000002</ele>
        <time>2017-05-22T13:38:47Z</time>
      </trkpt>
      <trkpt lat="51.8382069747895" lon="10.451737968251109">
        <ele>419.26999999999998</ele>
        <time>2017-05-22T13:38:52Z</time>
      </trkpt>
      <trkpt lat="51.838306970894337" lon="10.451518027111888">
        <ele>419.26999999999998</ele>
        <time>2017-05-22T13:38:53Z</time>
      </trkpt>
      <trkpt lat="51.838423982262611" lon="10.451334966346622">
        <ele>418.79000000000002</ele>
        <time>2017-05-22T13:38:54Z</time>
      </trkpt>
      <trkpt lat="51.838578041642904" lon="10.451188031584024">
        <ele>419.26999999999998</ele>
        <time>2017-05-22T13:38:55Z</time>
      </trkpt>
      <trkpt lat="51.838731011375785" lon="10.451070014387369">
        <ele>419.75</ele>
        <time>2017-05-22T13:38:56Z</time>
      </trkpt>
      <trkpt lat="51.838884986937046" lon="10.450976975262165">
        <ele>419.75</ele>
        <time>2017-05-22T13:38:57Z</time>
      </trkpt>
      <trkpt lat="51.839030999690294" lon="10.450910003855824">
        <ele>420.23000000000002</ele>
        <time>2017-05-22T13:38:58Z</time>
      </trkpt>
      <trkpt lat="51.840401021763682" lon="10.450244983658195">
        <ele>420.23000000000002</ele>
        <time>2017-05-22T13:39:07Z</time>
      </trkpt>
      <trkpt lat="51.84185603633523" lon="10.449533024802804">
        <ele>419.26999999999998</ele>
        <time>2017-05-22T13:39:17Z</time>
      </trkpt>
      <trkpt lat="51.842167004942894" lon="10.449367985129356">
        <ele>418.79000000000002</ele>
        <time>2017-05-22T13:39:21Z</time>
      </trkpt>
      <trkpt lat="51.842198017984629" lon="10.449286010116339">
        <ele>418.31</ele>
        <time>2017-05-22T13:39:22Z</time>
      </trkpt>
      <trkpt lat="51.842195000499487" lon="10.449185008183122">
        <ele>418.79000000000002</ele>
        <time>2017-05-22T13:39:23Z</time>
      </trkpt>
      <trkpt lat="51.842176979407668" lon="10.449076965451241">
        <ele>419.75</ele>
        <time>2017-05-22T13:39:24Z</time>
      </trkpt>
      <trkpt lat="51.842141021043062" lon="10.448977975174785">
        <ele>420.70999999999998</ele>
        <time>2017-05-22T13:39:25Z</time>
      </trkpt>
      <trkpt lat="51.842069020494819" lon="10.448861969634891">
        <ele>421.19</ele>
        <time>2017-05-22T13:39:26Z</time>
      </trkpt>
      <trkpt lat="51.841441970318556" lon="10.447923028841615">
        <ele>422.16000000000003</ele>
        <time>2017-05-22T13:39:32Z</time>
      </trkpt>
      <trkpt lat="51.84132001362741" lon="10.447704009711742">
        <ele>421.19</ele>
        <time>2017-05-22T13:39:33Z</time>
      </trkpt>
      <trkpt lat="51.841225968673825" lon="10.447479961439967">
        <ele>420.70999999999998</ele>
        <time>2017-05-22T13:39:34Z</time>
      </trkpt>
      <trkpt lat="51.841156985610723" lon="10.447252979502082">
        <ele>420.23000000000002</ele>
        <time>2017-05-22T13:39:35Z</time>
      </trkpt>
      <trkpt lat="51.841117003932595" lon="10.447030020877719">
        <ele>420.23000000000002</ele>
        <time>2017-05-22T13:39:36Z</time>
      </trkpt>
      <trkpt lat="51.841104011982679" lon="10.446817958727479">
        <ele>420.23000000000002</ele>
        <time>2017-05-22T13:39:37Z</time>
      </trkpt>
      <trkpt lat="51.841077022254467" lon="10.446610003709793">
        <ele>420.70999999999998</ele>
        <time>2017-05-22T13:39:38Z</time>
      </trkpt>
      <trkpt lat="51.840815003961325" lon="10.444039022549987">
        <ele>422.16000000000003</ele>
        <time>2017-05-22T13:39:50Z</time>
      </trkpt>
      <trkpt lat="51.840543011203408" lon="10.441535012796521">
        <ele>418.31</ele>
        <time>2017-05-22T13:39:59Z</time>
      </trkpt>
      <trkpt lat="51.840458018705249" lon="10.441293027251959">
        <ele>418.31</ele>
        <time>2017-05-22T13:40:00Z</time>
      </trkpt>
      <trkpt lat="51.840391969308257" lon="10.441088005900383">
        <ele>418.31</ele>
        <time>2017-05-22T13:40:01Z</time>
      </trkpt>
      <trkpt lat="51.84029096737504" lon="10.440920032560825">
        <ele>418.31</ele>
        <time>2017-05-22T13:40:02Z</time>
      </trkpt>
      <trkpt lat="51.840172028169036" lon="10.440776031464338">
        <ele>418.31</ele>
        <time>2017-05-22T13:40:03Z</time>
      </trkpt>
      <trkpt lat="51.840027021244168" lon="10.440645022317767">
        <ele>418.31</ele>
        <time>2017-05-22T13:40:04Z</time>
      </trkpt>
      <trkpt lat="51.838779961690307" lon="10.439644977450371">
        <ele>422.16000000000003</ele>
        <time>2017-05-22T13:40:11Z</time>
      </trkpt>
      <trkpt lat="51.837558969855309" lon="10.438784994184971">
        <ele>422.63999999999999</ele>
        <time>2017-05-22T13:40:17Z</time>
      </trkpt>
      <trkpt lat="51.837337017059326" lon="10.438732020556927">
        <ele>422.63999999999999</ele>
        <time>2017-05-22T13:40:18Z</time>
      </trkpt>
      <trkpt lat="51.837125960737467" lon="10.438737971708179">
        <ele>422.16000000000003</ele>
        <time>2017-05-22T13:40:19Z</time>
      </trkpt>
      <trkpt lat="51.836912976577878" lon="10.438809972256422">
        <ele>420.23000000000002</ele>
        <time>2017-05-22T13:40:20Z</time>
      </trkpt>
      <trkpt lat="51.836708039045334" lon="10.438924971967936">
        <ele>420.23000000000002</ele>
        <time>2017-05-22T13:40:21Z</time>
      </trkpt>
      <trkpt lat="51.836511986330152" lon="10.439087999984622">
        <ele>419.75</ele>
        <time>2017-05-22T13:40:22Z</time>
      </trkpt>
      <trkpt lat="51.83631400577724" lon="10.439301989972591">
        <ele>418.79000000000002</ele>
        <time>2017-05-22T13:40:23Z</time>
      </trkpt>
      <trkpt lat="51.836117031052709" lon="10.439542969688773">
        <ele>416.87</ele>
        <time>2017-05-22T13:40:24Z</time>
      </trkpt>
      <trkpt lat="51.83493903838098" lon="10.441033020615578">
        <ele>415.91000000000003</ele>
        <time>2017-05-22T13:40:31Z</time>
      </trkpt>
      <trkpt lat="51.834784979000688" lon="10.441156988963485">
        <ele>415.43000000000001</ele>
        <time>2017-05-22T13:40:32Z</time>
      </trkpt>
      <trkpt lat="51.834647012874484" lon="10.441240975633264">
        <ele>415.43000000000001</ele>
        <time>2017-05-22T13:40:33Z</time>
      </trkpt>
      <trkpt lat="51.834496976807714" lon="10.441253967583179">
        <ele>415.91000000000003</ele>
        <time>2017-05-22T13:40:34Z</time>
      </trkpt>
      <trkpt lat="51.834364039823413" lon="10.441223038360476">
        <ele>415.43000000000001</ele>
        <time>2017-05-22T13:40:35Z</time>
      </trkpt>
      <trkpt lat="51.834243005141616" lon="10.441142991185188">
        <ele>415.43000000000001</ele>
        <time>2017-05-22T13:40:36Z</time>
      </trkpt>
      <trkpt lat="51.834115013480186" lon="10.441012987866998">
        <ele>414.94999999999999</ele>
        <time>2017-05-22T13:40:37Z</time>
      </trkpt>
      <trkpt lat="51.834007976576686" lon="10.440837973728776">
        <ele>414.94999999999999</ele>
        <time>2017-05-22T13:40:38Z</time>
      </trkpt>
      <trkpt lat="51.833899011835456" lon="10.440622977912426">
        <ele>414.47000000000003</ele>
        <time>2017-05-22T13:40:39Z</time>
      </trkpt>
      <trkpt lat="51.833789041265845" lon="10.440381998196244">
        <ele>414.47000000000003</ele>
        <time>2017-05-22T13:40:40Z</time>
      </trkpt>
      <trkpt lat="51.832860996946692" lon="10.438314015045762">
        <ele>411.10000000000002</ele>
        <time>2017-05-22T13:40:47Z</time>
      </trkpt>
      <trkpt lat="51.831726003438234" lon="10.435081031173468">
        <ele>413.5</ele>
        <time>2017-05-22T13:40:56Z</time>
      </trkpt>
      <trkpt lat="51.830970961600542" lon="10.432779025286436">
        <ele>418.31</ele>
        <time>2017-05-22T13:41:03Z</time>
      </trkpt>
      <trkpt lat="51.8308159802109" lon="10.432201009243727">
        <ele>418.31</ele>
        <time>2017-05-22T13:41:05Z</time>
      </trkpt>
      <trkpt lat="51.830779016017914" lon="10.431910995393991">
        <ele>418.31</ele>
        <time>2017-05-22T13:41:06Z</time>
      </trkpt>
      <trkpt lat="51.830782033503056" lon="10.431611007079482">
        <ele>418.31</ele>
        <time>2017-05-22T13:41:07Z</time>
      </trkpt>
      <trkpt lat="51.830811034888029" lon="10.431309007108212">
        <ele>418.31</ele>
        <time>2017-05-22T13:41:08Z</time>
      </trkpt>
      <trkpt lat="51.830839030444622" lon="10.431000972166657">
        <ele>418.79000000000002</ele>
        <time>2017-05-22T13:41:09Z</time>
      </trkpt>
      <trkpt lat="51.830936009064317" lon="10.429747039452195">
        <ele>418.79000000000002</ele>
        <time>2017-05-22T13:41:13Z</time>
      </trkpt>
      <trkpt lat="51.830895021557808" lon="10.429464988410473">
        <ele>418.31</ele>
        <time>2017-05-22T13:41:14Z</time>
      </trkpt>
      <trkpt lat="51.83083601295948" lon="10.429202970117331">
        <ele>418.31</ele>
        <time>2017-05-22T13:41:15Z</time>
      </trkpt>
      <trkpt lat="51.830681031569839" lon="10.428956961259246">
        <ele>416.38999999999999</ele>
        <time>2017-05-22T13:41:16Z</time>
      </trkpt>
      <trkpt lat="51.830585980787873" lon="10.42872897349298">
        <ele>417.35000000000002</ele>
        <time>2017-05-22T13:41:17Z</time>
      </trkpt>
      <trkpt lat="51.830439968034625" lon="10.428521018475294">
        <ele>417.82999999999998</ele>
        <time>2017-05-22T13:41:18Z</time>
      </trkpt>
      <trkpt lat="51.830309964716434" lon="10.428321026265621">
        <ele>419.26999999999998</ele>
        <time>2017-05-22T13:41:19Z</time>
      </trkpt>
      <trkpt lat="51.828744979575276" lon="10.426340969279408">
        <ele>423.60000000000002</ele>
        <time>2017-05-22T13:41:29Z</time>
      </trkpt>
      <trkpt lat="51.827159039676189" lon="10.424651009961963">
        <ele>424.56</ele>
        <time>2017-05-22T13:41:39Z</time>
      </trkpt>
      <trkpt lat="51.82580896653235" lon="10.423223990947008">
        <ele>427.44</ele>
        <time>2017-05-22T13:41:47Z</time>
      </trkpt>
      <trkpt lat="51.825692960992455" lon="10.422940012067556">
        <ele>426.48000000000002</ele>
        <time>2017-05-22T13:41:48Z</time>
      </trkpt>
      <trkpt lat="51.82559103704989" lon="10.42262502014637">
        <ele>425.04000000000002</ele>
        <time>2017-05-22T13:41:49Z</time>
      </trkpt>
      <trkpt lat="51.825491040945053" lon="10.422292007133365">
        <ele>423.60000000000002</ele>
        <time>2017-05-22T13:41:50Z</time>
      </trkpt>
      <trkpt lat="51.825404958799481" lon="10.421952037140727">
        <ele>422.63999999999999</ele>
        <time>2017-05-22T13:41:51Z</time>
      </trkpt>
      <trkpt lat="51.824729964137077" lon="10.418531969189644">
        <ele>423.12</ele>
        <time>2017-05-22T13:42:00Z</time>
      </trkpt>
      <trkpt lat="51.824758965522051" lon="10.415585981681943">
        <ele>426.48000000000002</ele>
        <time>2017-05-22T13:42:07Z</time>
      </trkpt>
      <trkpt lat="51.824998017400503" lon="10.412260964512825">
        <ele>433.20999999999998</ele>
        <time>2017-05-22T13:42:15Z</time>
      </trkpt>
      <trkpt lat="51.825049985200167" lon="10.411860980093479">
        <ele>433.20999999999998</ele>
        <time>2017-05-22T13:42:16Z</time>
      </trkpt>
      <trkpt lat="51.825376963242888" lon="10.409847982227802">
        <ele>437.54000000000002</ele>
        <time>2017-05-22T13:42:21Z</time>
      </trkpt>
      <trkpt lat="51.82546597905457" lon="10.409461995586753">
        <ele>438.01999999999998</ele>
        <time>2017-05-22T13:42:22Z</time>
      </trkpt>
      <trkpt lat="51.826053969562054" lon="10.407831966876984">
        <ele>440.42000000000002</ele>
        <time>2017-05-22T13:42:27Z</time>
      </trkpt>
      <trkpt lat="51.826449008658528" lon="10.407280018553138">
        <ele>442.81999999999999</ele>
        <time>2017-05-22T13:42:30Z</time>
      </trkpt>
      <trkpt lat="51.826609019190073" lon="10.40715403854847">
        <ele>443.79000000000002</ele>
        <time>2017-05-22T13:42:31Z</time>
      </trkpt>
      <trkpt lat="51.826789984479547" lon="10.407057981938124">
        <ele>444.26999999999998</ele>
        <time>2017-05-22T13:42:32Z</time>
      </trkpt>
      <trkpt lat="51.827004980295897" lon="10.407025963068008">
        <ele>445.23000000000002</ele>
        <time>2017-05-22T13:42:33Z</time>
      </trkpt>
      <trkpt lat="51.827250989153981" lon="10.407014982774854">
        <ele>445.70999999999998</ele>
        <time>2017-05-22T13:42:34Z</time>
      </trkpt>
      <trkpt lat="51.827475037425756" lon="10.407041972503066">
        <ele>446.19</ele>
        <time>2017-05-22T13:42:35Z</time>
      </trkpt>
      <trkpt lat="51.827940987423062" lon="10.407354030758142">
        <ele>447.63</ele>
        <time>2017-05-22T13:42:36Z</time>
      </trkpt>
      <trkpt lat="51.828258996829391" lon="10.407493002712727">
        <ele>448.58999999999997</ele>
        <time>2017-05-22T13:42:37Z</time>
      </trkpt>
      <trkpt lat="51.829164996743202" lon="10.407677991315722">
        <ele>451.48000000000002</ele>
        <time>2017-05-22T13:42:41Z</time>
      </trkpt>
      <trkpt lat="51.829362977296114" lon="10.407638009637594">
        <ele>451.95999999999998</ele>
        <time>2017-05-22T13:42:42Z</time>
      </trkpt>
      <trkpt lat="51.829542014747858" lon="10.407597022131085">
        <ele>452.92000000000002</ele>
        <time>2017-05-22T13:42:43Z</time>
      </trkpt>
      <trkpt lat="51.829664977267385" lon="10.40754203684628">
        <ele>455.31999999999999</ele>
        <time>2017-05-22T13:42:44Z</time>
      </trkpt>
      <trkpt lat="51.829801015555859" lon="10.407409016042948">
        <ele>455.80000000000001</ele>
        <time>2017-05-22T13:42:45Z</time>
      </trkpt>
      <trkpt lat="51.829901011660695" lon="10.40722000412643">
        <ele>456.75999999999999</ele>
        <time>2017-05-22T13:42:46Z</time>
      </trkpt>
      <trkpt lat="51.829965971410275" lon="10.406994028016925">
        <ele>458.20999999999998</ele>
        <time>2017-05-22T13:42:47Z</time>
      </trkpt>
      <trkpt lat="51.830006958916783" lon="10.406732009723783">
        <ele>459.17000000000002</ele>
        <time>2017-05-22T13:42:48Z</time>
      </trkpt>
      <trkpt lat="51.829993966966867" lon="10.406439984217286">
        <ele>459.64999999999998</ele>
        <time>2017-05-22T13:42:49Z</time>
      </trkpt>
      <trkpt lat="51.829991033300757" lon="10.406122980639338">
        <ele>460.13</ele>
        <time>2017-05-22T13:42:50Z</time>
      </trkpt>
      <trkpt lat="51.829958008602262" lon="10.403863973915577">
        <ele>461.56999999999999</ele>
        <time>2017-05-22T13:42:56Z</time>
      </trkpt>
      <trkpt lat="51.829915009438992" lon="10.401716027408838">
        <ele>463.97000000000003</ele>
        <time>2017-05-22T13:43:03Z</time>
      </trkpt>
      <trkpt lat="51.830031014978886" lon="10.399783998727798">
        <ele>468.30000000000001</ele>
        <time>2017-05-22T13:43:10Z</time>
      </trkpt>
      <trkpt lat="51.83006496168673" lon="10.399521980434656">
        <ele>469.25999999999999</ele>
        <time>2017-05-22T13:43:11Z</time>
      </trkpt>
      <trkpt lat="51.830196976661682" lon="10.397332040593028">
        <ele>470.69999999999999</ele>
        <time>2017-05-22T13:43:19Z</time>
      </trkpt>
      <trkpt lat="51.830181973055005" lon="10.397058958187699">
        <ele>471.18000000000001</ele>
        <time>2017-05-22T13:43:20Z</time>
      </trkpt>
      <trkpt lat="51.830136962234974" lon="10.396787971258163">
        <ele>471.66000000000003</ele>
        <time>2017-05-22T13:43:21Z</time>
      </trkpt>
      <trkpt lat="51.829965971410275" lon="10.395937040448189">
        <ele>475.99000000000001</ele>
        <time>2017-05-22T13:43:24Z</time>
      </trkpt>
      <trkpt lat="51.829961026087403" lon="10.395643003284931">
        <ele>477.91000000000003</ele>
        <time>2017-05-22T13:43:25Z</time>
      </trkpt>
      <trkpt lat="51.830003019422293" lon="10.395351983606815">
        <ele>480.31999999999999</ele>
        <time>2017-05-22T13:43:26Z</time>
      </trkpt>
      <trkpt lat="51.830180967226624" lon="10.394124034792185">
        <ele>487.52999999999997</ele>
        <time>2017-05-22T13:43:30Z</time>
      </trkpt>
      <trkpt lat="51.83019001968205" lon="10.393808959051967">
        <ele>489.44999999999999</ele>
        <time>2017-05-22T13:43:31Z</time>
      </trkpt>
      <trkpt lat="51.83017099276185" lon="10.393488015979528">
        <ele>491.37</ele>
        <time>2017-05-22T13:43:32Z</time>
      </trkpt>
      <trkpt lat="51.830106033012271" lon="10.392842022702098">
        <ele>495.22000000000003</ele>
        <time>2017-05-22T13:43:34Z</time>
      </trkpt>
      <trkpt lat="51.830072002485394" lon="10.392529964447021">
        <ele>497.13999999999999</ele>
        <time>2017-05-22T13:43:35Z</time>
      </trkpt>
      <trkpt lat="51.830034032464027" lon="10.389736024662852">
        <ele>512.51999999999998</ele>
        <time>2017-05-22T13:43:44Z</time>
      </trkpt>
      <trkpt lat="51.829982986673713" lon="10.38908701390028">
        <ele>515.88</ele>
        <time>2017-05-22T13:43:46Z</time>
      </trkpt>
      <trkpt lat="51.829642010852695" lon="10.387221034616232">
        <ele>523.09000000000003</ele>
        <time>2017-05-22T13:43:52Z</time>
      </trkpt>
      <trkpt lat="51.82956799864769" lon="10.386933032423258">
        <ele>524.53999999999996</ele>
        <time>2017-05-22T13:43:53Z</time>
      </trkpt>
      <trkpt lat="51.828994005918503" lon="10.384863037616014">
        <ele>537.02999999999997</ele>
        <time>2017-05-22T13:43:59Z</time>
      </trkpt>
      <trkpt lat="51.828588992357254" lon="10.382525995373726">
        <ele>542.32000000000005</ele>
        <time>2017-05-22T13:44:05Z</time>
      </trkpt>
      <trkpt lat="51.827831016853452" lon="10.378459012135863">
        <ele>556.25999999999999</ele>
        <time>2017-05-22T13:44:15Z</time>
      </trkpt>
      <trkpt lat="51.826834995299578" lon="10.373894982039928">
        <ele>575.97000000000003</ele>
        <time>2017-05-22T13:44:26Z</time>
      </trkpt>
      <trkpt lat="51.826281035318971" lon="10.370763000100851">
        <ele>583.17999999999995</ele>
        <time>2017-05-22T13:44:35Z</time>
      </trkpt>
      <trkpt lat="51.825778959318995" lon="10.367969982326031">
        <ele>590.87</ele>
        <time>2017-05-22T13:44:43Z</time>
      </trkpt>
      <trkpt lat="51.824784027412534" lon="10.364198964089155">
        <ele>595.66999999999996</ele>
        <time>2017-05-22T13:44:53Z</time>
      </trkpt>
      <trkpt lat="51.823769984766841" lon="10.360309006646276">
        <ele>602.39999999999998</ele>
        <time>2017-05-22T13:45:04Z</time>
      </trkpt>
      <trkpt lat="51.82267002761364" lon="10.356164993718266">
        <ele>605.76999999999998</ele>
        <time>2017-05-22T13:45:15Z</time>
      </trkpt>
      <trkpt lat="51.822261996567249" lon="10.35355101339519">
        <ele>604.80999999999995</ele>
        <time>2017-05-22T13:45:22Z</time>
      </trkpt>
      <trkpt lat="51.821787999942899" lon="10.35120902583003">
        <ele>602.39999999999998</ele>
        <time>2017-05-22T13:45:29Z</time>
      </trkpt>
      <trkpt lat="51.821526987478137" lon="10.348664028570056">
        <ele>598.08000000000004</ele>
        <time>2017-05-22T13:45:37Z</time>
      </trkpt>
      <trkpt lat="51.821567974984646" lon="10.346658993512392">
        <ele>594.71000000000004</ele>
        <time>2017-05-22T13:45:45Z</time>
      </trkpt>
      <trkpt lat="51.821564035490155" lon="10.344830984249711">
        <ele>590.38999999999999</ele>
        <time>2017-05-22T13:45:55Z</time>
      </trkpt>
      <trkpt lat="51.821540985256433" lon="10.344658987596631">
        <ele>589.90999999999997</ele>
        <time>2017-05-22T13:45:56Z</time>
      </trkpt>
      <trkpt lat="51.821507960557938" lon="10.344491014257073">
        <ele>589.42999999999995</ele>
        <time>2017-05-22T13:45:57Z</time>
      </trkpt>
      <trkpt lat="51.821459010243416" lon="10.34431398846209">
        <ele>588.95000000000005</ele>
        <time>2017-05-22T13:45:58Z</time>
      </trkpt>
      <trkpt lat="51.821408970281482" lon="10.344152972102165">
        <ele>588.46000000000004</ele>
        <time>2017-05-22T13:45:59Z</time>
      </trkpt>
      <trkpt lat="51.821363037452102" lon="10.34399002790451">
        <ele>587.98000000000002</ele>
        <time>2017-05-22T13:46:00Z</time>
      </trkpt>
      <trkpt lat="51.820888034999371" lon="10.341845015063882">
        <ele>586.05999999999995</ele>
        <time>2017-05-22T13:46:13Z</time>
      </trkpt>
      <trkpt lat="51.820891974493861" lon="10.341737978160381">
        <ele>585.58000000000004</ele>
        <time>2017-05-22T13:46:14Z</time>
      </trkpt>
      <trkpt lat="51.820913013070822" lon="10.341653991490602">
        <ele>585.58000000000004</ele>
        <time>2017-05-22T13:46:15Z</time>
      </trkpt>
      <trkpt lat="51.820957018062472" lon="10.341605041176081">
        <ele>584.62</ele>
        <time>2017-05-22T13:46:16Z</time>
      </trkpt>
      <trkpt lat="51.821012003347278" lon="10.341588025912642">
        <ele>584.62</ele>
        <time>2017-05-22T13:46:17Z</time>
      </trkpt>
      <trkpt lat="51.821077968925238" lon="10.341593977063894">
        <ele>585.10000000000002</ele>
        <time>2017-05-22T13:46:18Z</time>
      </trkpt>
      <trkpt lat="51.821146029978991" lon="10.341640999540687">
        <ele>585.10000000000002</ele>
        <time>2017-05-22T13:46:19Z</time>
      </trkpt>
      <trkpt lat="51.821216018870473" lon="10.341709982603788">
        <ele>585.10000000000002</ele>
        <time>2017-05-22T13:46:20Z</time>
      </trkpt>
      <trkpt lat="51.821277039125562" lon="10.341803021728992">
        <ele>584.62</ele>
        <time>2017-05-22T13:46:21Z</time>
      </trkpt>
      <trkpt lat="51.821345016360283" lon="10.34190502949059">
        <ele>584.62</ele>
        <time>2017-05-22T13:46:22Z</time>
      </trkpt>
      <trkpt lat="51.821983968839049" lon="10.342772975564003">
        <ele>581.25</ele>
        <time>2017-05-22T13:46:29Z</time>
      </trkpt>
      <trkpt lat="51.823093984276056" lon="10.34427098929882">
        <ele>575.00999999999999</ele>
        <time>2017-05-22T13:46:37Z</time>
      </trkpt>
      <trkpt lat="51.823885990306735" lon="10.346000008285046">
        <ele>567.32000000000005</ele>
        <time>2017-05-22T13:46:43Z</time>
      </trkpt>
      <trkpt lat="51.824973961338401" lon="10.348532013595104">
        <ele>557.70000000000005</ele>
        <time>2017-05-22T13:46:51Z</time>
      </trkpt>
      <trkpt lat="51.825629007071257" lon="10.349701037630439">
        <ele>556.25999999999999</ele>
        <time>2017-05-22T13:46:55Z</time>
      </trkpt>
      <trkpt lat="51.825778037309647" lon="10.350051987916231">
        <ele>557.22000000000003</ele>
        <time>2017-05-22T13:46:56Z</time>
      </trkpt>
      <trkpt lat="51.825911980122328" lon="10.350418025627732">
        <ele>558.17999999999995</ele>
        <time>2017-05-22T13:46:57Z</time>
      </trkpt>
      <trkpt lat="51.826374996453524" lon="10.351744964718819">
        <ele>558.65999999999997</ele>
        <time>2017-05-22T13:47:01Z</time>
      </trkpt>
      <trkpt lat="51.826499970629811" lon="10.351967001333833">
        <ele>558.17999999999995</ele>
        <time>2017-05-22T13:47:02Z</time>
      </trkpt>
      <trkpt lat="51.826627040281892" lon="10.352140003815293">
        <ele>558.65999999999997</ele>
        <time>2017-05-22T13:47:03Z</time>
      </trkpt>
      <trkpt lat="51.826750002801418" lon="10.352234970778227">
        <ele>558.17999999999995</ele>
        <time>2017-05-22T13:47:04Z</time>
      </trkpt>
      <trkpt lat="51.826886041089892" lon="10.352235976606607">
        <ele>558.17999999999995</ele>
        <time>2017-05-22T13:47:05Z</time>
      </trkpt>
      <trkpt lat="51.827028030529618" lon="10.352183002978563">
        <ele>558.17999999999995</ele>
        <time>2017-05-22T13:47:06Z</time>
      </trkpt>
      <trkpt lat="51.827158033847809" lon="10.352052999660373">
        <ele>557.70000000000005</ele>
        <time>2017-05-22T13:47:07Z</time>
      </trkpt>
      <trkpt lat="51.827292982488871" lon="10.351864993572235">
        <ele>558.17999999999995</ele>
        <time>2017-05-22T13:47:08Z</time>
      </trkpt>
      <trkpt lat="51.827413011342287" lon="10.351633988320827">
        <ele>558.65999999999997</ele>
        <time>2017-05-22T13:47:09Z</time>
      </trkpt>
      <trkpt lat="51.827529016882181" lon="10.351399965584278">
        <ele>560.59000000000003</ele>
        <time>2017-05-22T13:47:10Z</time>
      </trkpt>
      <trkpt lat="51.828041989356279" lon="10.350053999572992">
        <ele>563.95000000000005</ele>
        <time>2017-05-22T13:47:17Z</time>
      </trkpt>
      <trkpt lat="51.828355975449085" lon="10.349426027387381">
        <ele>566.35000000000002</ele>
        <time>2017-05-22T13:47:21Z</time>
      </trkpt>
      <trkpt lat="51.828455971553922" lon="10.349321002140641">
        <ele>566.35000000000002</ele>
        <time>2017-05-22T13:47:22Z</time>
      </trkpt>
      <trkpt lat="51.828574994578958" lon="10.349259981885552">
        <ele>566.35000000000002</ele>
        <time>2017-05-22T13:47:23Z</time>
      </trkpt>
      <trkpt lat="51.828702986240387" lon="10.349251013249159">
        <ele>565.87</ele>
        <time>2017-05-22T13:47:24Z</time>
      </trkpt>
      <trkpt lat="51.828809017315507" lon="10.349287977442145">
        <ele>564.90999999999997</ele>
        <time>2017-05-22T13:47:25Z</time>
      </trkpt>
      <trkpt lat="51.828936003148556" lon="10.349314967170358">
        <ele>565.38999999999999</ele>
        <time>2017-05-22T13:47:26Z</time>
      </trkpt>
      <trkpt lat="51.829851977527142" lon="10.349709000438452">
        <ele>563.95000000000005</ele>
        <time>2017-05-22T13:47:33Z</time>
      </trkpt>
      <trkpt lat="51.829964965581894" lon="10.34983498044312">
        <ele>563.47000000000003</ele>
        <time>2017-05-22T13:47:34Z</time>
      </trkpt>
      <trkpt lat="51.83006102219224" lon="10.350005971267819">
        <ele>562.02999999999997</ele>
        <time>2017-05-22T13:47:35Z</time>
      </trkpt>
      <trkpt lat="51.830236036330462" lon="10.350432023406029">
        <ele>561.54999999999995</ele>
        <time>2017-05-22T13:47:37Z</time>
      </trkpt>
      <trkpt lat="51.830290015786886" lon="10.350695969536901">
        <ele>561.54999999999995</ele>
        <time>2017-05-22T13:47:38Z</time>
      </trkpt>
      <trkpt lat="51.830304013565183" lon="10.35099403001368">
        <ele>561.54999999999995</ele>
        <time>2017-05-22T13:47:39Z</time>
      </trkpt>
      <trkpt lat="51.830308958888054" lon="10.351310027763247">
        <ele>562.02999999999997</ele>
        <time>2017-05-22T13:47:40Z</time>
      </trkpt>
      <trkpt lat="51.830309964716434" lon="10.351626025512815">
        <ele>562.02999999999997</ele>
        <time>2017-05-22T13:47:41Z</time>
      </trkpt>
      <trkpt lat="51.830374002456665" lon="10.353418998420238">
        <ele>562.50999999999999</ele>
        <time>2017-05-22T13:47:47Z</time>
      </trkpt>
      <trkpt lat="51.830439968034625" lon="10.353687973693013">
        <ele>562.02999999999997</ele>
        <time>2017-05-22T13:47:48Z</time>
      </trkpt>
      <trkpt lat="51.830529989674687" lon="10.353935994207859">
        <ele>561.54999999999995</ele>
        <time>2017-05-22T13:47:49Z</time>
      </trkpt>
      <trkpt lat="51.830648006871343" lon="10.354170016944408">
        <ele>561.54999999999995</ele>
        <time>2017-05-22T13:47:50Z</time>
      </trkpt>
      <trkpt lat="51.830783039331436" lon="10.354390041902661">
        <ele>561.54999999999995</ele>
        <time>2017-05-22T13:47:51Z</time>
      </trkpt>
      <trkpt lat="51.830919999629259" lon="10.354608977213502">
        <ele>561.54999999999995</ele>
        <time>2017-05-22T13:47:52Z</time>
      </trkpt>
      <trkpt lat="51.831929013133049" lon="10.356364985927939">
        <ele>557.70000000000005</ele>
        <time>2017-05-22T13:48:00Z</time>
      </trkpt>
      <trkpt lat="51.832012999802828" lon="10.356600014492869">
        <ele>557.70000000000005</ele>
        <time>2017-05-22T13:48:01Z</time>
      </trkpt>
      <trkpt lat="51.832077959552407" lon="10.356865972280502">
        <ele>557.70000000000005</ele>
        <time>2017-05-22T13:48:02Z</time>
      </trkpt>
      <trkpt lat="51.832110984250903" lon="10.357142994180322">
        <ele>556.74000000000001</ele>
        <time>2017-05-22T13:48:03Z</time>
      </trkpt>
      <trkpt lat="51.832109978422523" lon="10.357420016080141">
        <ele>555.77999999999997</ele>
        <time>2017-05-22T13:48:04Z</time>
      </trkpt>
      <trkpt lat="51.832109978422523" lon="10.357672981917858">
        <ele>555.77999999999997</ele>
        <time>2017-05-22T13:48:05Z</time>
      </trkpt>
      <trkpt lat="51.832063039764762" lon="10.358333978801966">
        <ele>553.86000000000001</ele>
        <time>2017-05-22T13:48:08Z</time>
      </trkpt>
      <trkpt lat="51.832083994522691" lon="10.35849398933351">
        <ele>554.34000000000003</ele>
        <time>2017-05-22T13:48:09Z</time>
      </trkpt>
      <trkpt lat="51.832138979807496" lon="10.358615024015307">
        <ele>554.34000000000003</ele>
        <time>2017-05-22T13:48:10Z</time>
      </trkpt>
      <trkpt lat="51.832224978134036" lon="10.358680989593267">
        <ele>553.38</ele>
        <time>2017-05-22T13:48:11Z</time>
      </trkpt>
      <trkpt lat="51.832336960360408" lon="10.358712002635002">
        <ele>552.89999999999998</ele>
        <time>2017-05-22T13:48:12Z</time>
      </trkpt>
      <trkpt lat="51.832488002255559" lon="10.35868601873517">
        <ele>552.40999999999997</ele>
        <time>2017-05-22T13:48:13Z</time>
      </trkpt>
      <trkpt lat="51.832648012787104" lon="10.358603959903121">
        <ele>552.40999999999997</ele>
        <time>2017-05-22T13:48:14Z</time>
      </trkpt>
      <trkpt lat="51.832752032205462" lon="10.358448978513479">
        <ele>552.40999999999997</ele>
        <time>2017-05-22T13:48:15Z</time>
      </trkpt>
      <trkpt lat="51.83283400721848" lon="10.358247980475426">
        <ele>551.92999999999995</ele>
        <time>2017-05-22T13:48:16Z</time>
      </trkpt>
      <trkpt lat="51.832913970574737" lon="10.35804103128612">
        <ele>552.40999999999997</ele>
        <time>2017-05-22T13:48:17Z</time>
      </trkpt>
      <trkpt lat="51.833373969420791" lon="10.357077028602362">
        <ele>551.45000000000005</ele>
        <time>2017-05-22T13:48:22Z</time>
      </trkpt>
      <trkpt lat="51.833442030474544" lon="10.356980971992016">
        <ele>551.45000000000005</ele>
        <time>2017-05-22T13:48:23Z</time>
      </trkpt>
      <trkpt lat="51.833556024357677" lon="10.356946019455791">
        <ele>551.45000000000005</ele>
        <time>2017-05-22T13:48:24Z</time>
      </trkpt>
      <trkpt lat="51.833683010190725" lon="10.356927998363972">
        <ele>551.45000000000005</ele>
        <time>2017-05-22T13:48:25Z</time>
      </trkpt>
      <trkpt lat="51.833942010998726" lon="10.356983989477158">
        <ele>551.45000000000005</ele>
        <time>2017-05-22T13:48:26Z</time>
      </trkpt>
      <trkpt lat="51.834125993773341" lon="10.356991030275822">
        <ele>551.92999999999995</ele>
        <time>2017-05-22T13:48:27Z</time>
      </trkpt>
      <trkpt lat="51.8346600048244" lon="10.357084991410375">
        <ele>551.92999999999995</ele>
        <time>2017-05-22T13:48:30Z</time>
      </trkpt>
      <trkpt lat="51.834833007305861" lon="10.357170989736915">
        <ele>551.92999999999995</ele>
        <time>2017-05-22T13:48:31Z</time>
      </trkpt>
      <trkpt lat="51.835009027272463" lon="10.357278026640415">
        <ele>552.40999999999997</ele>
        <time>2017-05-22T13:48:32Z</time>
      </trkpt>
      <trkpt lat="51.835228968411684" lon="10.357448011636734">
        <ele>551.92999999999995</ele>
        <time>2017-05-22T13:48:33Z</time>
      </trkpt>
      <trkpt lat="51.835395013913512" lon="10.357601987197995">
        <ele>552.40999999999997</ele>
        <time>2017-05-22T13:48:34Z</time>
      </trkpt>
      <trkpt lat="51.835546977818012" lon="10.357780018821359">
        <ele>552.40999999999997</ele>
        <time>2017-05-22T13:48:35Z</time>
      </trkpt>
      <trkpt lat="51.835683016106486" lon="10.357971964403987">
        <ele>552.89999999999998</ele>
        <time>2017-05-22T13:48:36Z</time>
      </trkpt>
      <trkpt lat="51.835803966969252" lon="10.358174974098802">
        <ele>552.89999999999998</ele>
        <time>2017-05-22T13:48:37Z</time>
      </trkpt>
      <trkpt lat="51.835921984165907" lon="10.358392987400293">
        <ele>553.38</ele>
        <time>2017-05-22T13:48:38Z</time>
      </trkpt>
      <trkpt lat="51.836653975769877" lon="10.360217979177833">
        <ele>557.22000000000003</ele>
        <time>2017-05-22T13:48:46Z</time>
      </trkpt>
      <trkpt lat="51.837024036794901" lon="10.361384991556406">
        <ele>559.62</ele>
        <time>2017-05-22T13:48:51Z</time>
      </trkpt>
      <trkpt lat="51.837144987657666" lon="10.361557994037867">
        <ele>560.11000000000001</ele>
        <time>2017-05-22T13:48:52Z</time>
      </trkpt>
      <trkpt lat="51.83728002011776" lon="10.36169202066958">
        <ele>561.07000000000005</ele>
        <time>2017-05-22T13:48:53Z</time>
      </trkpt>
      <trkpt lat="51.837423015385866" lon="10.361767960712314">
        <ele>560.59000000000003</ele>
        <time>2017-05-22T13:48:54Z</time>
      </trkpt>
      <trkpt lat="51.837572967633605" lon="10.361771984025836">
        <ele>561.54999999999995</ele>
        <time>2017-05-22T13:48:55Z</time>
      </trkpt>
      <trkpt lat="51.837716968730092" lon="10.361708030104637">
        <ele>562.02999999999997</ele>
        <time>2017-05-22T13:48:56Z</time>
      </trkpt>
      <trkpt lat="51.83783900924027" lon="10.361592024564743">
        <ele>562.02999999999997</ele>
        <time>2017-05-22T13:48:57Z</time>
      </trkpt>
      <trkpt lat="51.837954008951783" lon="10.361408041790128">
        <ele>562.99000000000001</ele>
        <time>2017-05-22T13:48:58Z</time>
      </trkpt>
      <trkpt lat="51.838052999228239" lon="10.361175024881959">
        <ele>564.42999999999995</ele>
        <time>2017-05-22T13:48:59Z</time>
      </trkpt>
      <trkpt lat="51.838109996169806" lon="10.360916024073958">
        <ele>565.87</ele>
        <time>2017-05-22T13:49:00Z</time>
      </trkpt>
      <trkpt lat="51.838127011433244" lon="10.360627016052604">
        <ele>567.32000000000005</ele>
        <time>2017-05-22T13:49:01Z</time>
      </trkpt>
      <trkpt lat="51.838118964806199" lon="10.360329039394855">
        <ele>568.75999999999999</ele>
        <time>2017-05-22T13:49:02Z</time>
      </trkpt>
      <trkpt lat="51.838091975077987" lon="10.360027039423585">
        <ele>569.72000000000003</ele>
        <time>2017-05-22T13:49:03Z</time>
      </trkpt>
      <trkpt lat="51.838048975914717" lon="10.359714981168509">
        <ele>570.20000000000005</ele>
        <time>2017-05-22T13:49:04Z</time>
      </trkpt>
      <trkpt lat="51.837791986763477" lon="10.356826996430755">
        <ele>575.97000000000003</ele>
        <time>2017-05-22T13:49:12Z</time>
      </trkpt>
      <trkpt lat="51.837605992332101" lon="10.354290967807174">
        <ele>583.17999999999995</ele>
        <time>2017-05-22T13:49:19Z</time>
      </trkpt>
      <trkpt lat="51.837645974010229" lon="10.354018975049257">
        <ele>583.65999999999997</ele>
        <time>2017-05-22T13:49:20Z</time>
      </trkpt>
      <trkpt lat="51.837688973173499" lon="10.353777995333076">
        <ele>584.13999999999999</ele>
        <time>2017-05-22T13:49:21Z</time>
      </trkpt>
      <trkpt lat="51.837760973721743" lon="10.353576997295022">
        <ele>584.62</ele>
        <time>2017-05-22T13:49:22Z</time>
      </trkpt>
      <trkpt lat="51.837828028947115" lon="10.353397037833929">
        <ele>584.62</ele>
        <time>2017-05-22T13:49:23Z</time>
      </trkpt>
      <trkpt lat="51.837935987859964" lon="10.353270974010229">
        <ele>584.62</ele>
        <time>2017-05-22T13:49:24Z</time>
      </trkpt>
      <trkpt lat="51.838026009500027" lon="10.353184975683689">
        <ele>584.62</ele>
        <time>2017-05-22T13:49:25Z</time>
      </trkpt>
      <trkpt lat="51.838122988119721" lon="10.353132002055645">
        <ele>584.13999999999999</ele>
        <time>2017-05-22T13:49:26Z</time>
      </trkpt>
      <trkpt lat="51.838349970057607" lon="10.353222023695707">
        <ele>584.13999999999999</ele>
        <time>2017-05-22T13:49:27Z</time>
      </trkpt>
      <trkpt lat="51.838509980589151" lon="10.353320008143783">
        <ele>584.13999999999999</ele>
        <time>2017-05-22T13:49:28Z</time>
      </trkpt>
      <trkpt lat="51.838680971413851" lon="10.353426961228251">
        <ele>584.13999999999999</ele>
        <time>2017-05-22T13:49:29Z</time>
      </trkpt>
      <trkpt lat="51.840275041759014" lon="10.354141015559435">
        <ele>585.10000000000002</ele>
        <time>2017-05-22T13:49:36Z</time>
      </trkpt>
      <trkpt lat="51.842340007424355" lon="10.354690030217171">
        <ele>586.53999999999996</ele>
        <time>2017-05-22T13:49:46Z</time>
      </trkpt>
      <trkpt lat="51.84254796244204" lon="10.354716014117002">
        <ele>587.01999999999998</ele>
        <time>2017-05-22T13:49:47Z</time>
      </trkpt>
      <trkpt lat="51.84273898601532" lon="10.354672009125352">
        <ele>586.53999999999996</ele>
        <time>2017-05-22T13:49:48Z</time>
      </trkpt>
      <trkpt lat="51.842915005981922" lon="10.354580981656909">
        <ele>587.01999999999998</ele>
        <time>2017-05-22T13:49:49Z</time>
      </trkpt>
      <trkpt lat="51.843080967664719" lon="10.354445027187467">
        <ele>588.46000000000004</ele>
        <time>2017-05-22T13:49:50Z</time>
      </trkpt>
      <trkpt lat="51.843253970146179" lon="10.354233970865607">
        <ele>589.42999999999995</ele>
        <time>2017-05-22T13:49:51Z</time>
      </trkpt>
      <trkpt lat="51.843349020928144" lon="10.35396097227931">
        <ele>590.38999999999999</ele>
        <time>2017-05-22T13:49:52Z</time>
      </trkpt>
      <trkpt lat="51.843456979840994" lon="10.353680010885">
        <ele>590.87</ele>
        <time>2017-05-22T13:49:53Z</time>
      </trkpt>
      <trkpt lat="51.844104984775186" lon="10.351985022425652">
        <ele>594.23000000000002</ele>
        <time>2017-05-22T13:50:00Z</time>
      </trkpt>
      <trkpt lat="51.844318974763155" lon="10.351614961400628">
        <ele>594.23000000000002</ele>
        <time>2017-05-22T13:50:02Z</time>
      </trkpt>
      <trkpt lat="51.844430034980178" lon="10.351473977789283">
        <ele>594.23000000000002</ele>
        <time>2017-05-22T13:50:03Z</time>
      </trkpt>
      <trkpt lat="51.844531958922744" lon="10.35136098973453">
        <ele>594.23000000000002</ele>
        <time>2017-05-22T13:50:04Z</time>
      </trkpt>
      <trkpt lat="51.844622986391187" lon="10.351278008893132">
        <ele>594.71000000000004</ele>
        <time>2017-05-22T13:50:05Z</time>
      </trkpt>
      <trkpt lat="51.844699010252953" lon="10.351213971152902">
        <ele>594.71000000000004</ele>
        <time>2017-05-22T13:50:06Z</time>
      </trkpt>
      <trkpt lat="51.844747038558125" lon="10.351139036938548">
        <ele>595.19000000000005</ele>
        <time>2017-05-22T13:50:07Z</time>
      </trkpt>
      <trkpt lat="51.844785008579493" lon="10.351038035005331">
        <ele>595.19000000000005</ele>
        <time>2017-05-22T13:50:08Z</time>
      </trkpt>
      <trkpt lat="51.844985000789165" lon="10.349992979317904">
        <ele>593.26999999999998</ele>
        <time>2017-05-22T13:50:15Z</time>
      </trkpt>
      <trkpt lat="51.844902019947767" lon="10.348613988608122">
        <ele>590.87</ele>
        <time>2017-05-22T13:50:22Z</time>
      </trkpt>
      <trkpt lat="51.844402039423585" lon="10.346651030704379">
        <ele>586.05999999999995</ele>
        <time>2017-05-22T13:50:29Z</time>
      </trkpt>
      <trkpt lat="51.843973975628614" lon="10.343874022364616">
        <ele>587.5</ele>
        <time>2017-05-22T13:50:37Z</time>
      </trkpt>
      <trkpt lat="51.843903986737132" lon="10.342812035232782">
        <ele>588.46000000000004</ele>
        <time>2017-05-22T13:50:40Z</time>
      </trkpt>
      <trkpt lat="51.843945980072021" lon="10.342504000291228">
        <ele>589.42999999999995</ele>
        <time>2017-05-22T13:50:41Z</time>
      </trkpt>
      <trkpt lat="51.844014041125774" lon="10.342218009755015">
        <ele>588.95000000000005</ele>
        <time>2017-05-22T13:50:42Z</time>
      </trkpt>
      <trkpt lat="51.844098027795553" lon="10.341949034482241">
        <ele>588.46000000000004</ele>
        <time>2017-05-22T13:50:43Z</time>
      </trkpt>
      <trkpt lat="51.84420196339488" lon="10.34169003367424">
        <ele>588.46000000000004</ele>
        <time>2017-05-22T13:50:44Z</time>
      </trkpt>
      <trkpt lat="51.844503041356802" lon="10.340827032923698">
        <ele>587.01999999999998</ele>
        <time>2017-05-22T13:50:47Z</time>
      </trkpt>
      <trkpt lat="51.844556014984846" lon="10.340499971061945">
        <ele>586.05999999999995</ele>
        <time>2017-05-22T13:50:48Z</time>
      </trkpt>
      <trkpt lat="51.844589039683342" lon="10.340152960270643">
        <ele>585.10000000000002</ele>
        <time>2017-05-22T13:50:49Z</time>
      </trkpt>
      <trkpt lat="51.844602031633258" lon="10.339795975014567">
        <ele>584.62</ele>
        <time>2017-05-22T13:50:50Z</time>
      </trkpt>
      <trkpt lat="51.84460898861289" lon="10.33943597227335">
        <ele>584.13999999999999</ele>
        <time>2017-05-22T13:50:51Z</time>
      </trkpt>
      <trkpt lat="51.844569006934762" lon="10.33836199901998">
        <ele>582.70000000000005</ele>
        <time>2017-05-22T13:50:54Z</time>
      </trkpt>
      <trkpt lat="51.844439003616571" lon="10.336769018322229">
        <ele>578.85000000000002</ele>
        <time>2017-05-22T13:50:59Z</time>
      </trkpt>
      <trkpt lat="51.844461970031261" lon="10.336475986987352">
        <ele>577.88999999999999</ele>
        <time>2017-05-22T13:51:00Z</time>
      </trkpt>
      <trkpt lat="51.844523996114731" lon="10.336193013936281">
        <ele>576.92999999999995</ele>
        <time>2017-05-22T13:51:01Z</time>
      </trkpt>
      <trkpt lat="51.844612006098032" lon="10.335924038663507">
        <ele>575.97000000000003</ele>
        <time>2017-05-22T13:51:02Z</time>
      </trkpt>
      <trkpt lat="51.844724994152784" lon="10.335677023977041">
        <ele>574.52999999999997</ele>
        <time>2017-05-22T13:51:03Z</time>
      </trkpt>
      <trkpt lat="51.844857009127736" lon="10.335464961826801">
        <ele>573.08000000000004</ele>
        <time>2017-05-22T13:51:04Z</time>
      </trkpt>
      <trkpt lat="51.845017019659281" lon="10.335282990708947">
        <ele>571.63999999999999</ele>
        <time>2017-05-22T13:51:05Z</time>
      </trkpt>
      <trkpt lat="51.845192033797503" lon="10.335120968520641">
        <ele>570.67999999999995</ele>
        <time>2017-05-22T13:51:06Z</time>
      </trkpt>
      <trkpt lat="51.845392026007175" lon="10.334999011829495">
        <ele>569.24000000000001</ele>
        <time>2017-05-22T13:51:07Z</time>
      </trkpt>
      <trkpt lat="51.845579026266932" lon="10.334885017946362">
        <ele>567.79999999999995</ele>
        <time>2017-05-22T13:51:08Z</time>
      </trkpt>
      <trkpt lat="51.846495000645518" lon="10.334379002451897">
        <ele>563.95000000000005</ele>
        <time>2017-05-22T13:51:14Z</time>
      </trkpt>
      <trkpt lat="51.846605977043509" lon="10.334259979426861">
        <ele>563.47000000000003</ele>
        <time>2017-05-22T13:51:15Z</time>
      </trkpt>
      <trkpt lat="51.846695998683572" lon="10.334120001643896">
        <ele>562.50999999999999</ele>
        <time>2017-05-22T13:51:16Z</time>
      </trkpt>
      <trkpt lat="51.846795994788408" lon="10.333967031911016">
        <ele>562.02999999999997</ele>
        <time>2017-05-22T13:51:17Z</time>
      </trkpt>
      <trkpt lat="51.846873024478555" lon="10.333795035257936">
        <ele>561.54999999999995</ele>
        <time>2017-05-22T13:51:18Z</time>
      </trkpt>
      <trkpt lat="51.846939995884895" lon="10.333600994199514">
        <ele>560.59000000000003</ele>
        <time>2017-05-22T13:51:19Z</time>
      </trkpt>
      <trkpt lat="51.846987018361688" lon="10.333388010039926">
        <ele>558.65999999999997</ele>
        <time>2017-05-22T13:51:20Z</time>
      </trkpt>
      <trkpt lat="51.847032029181719" lon="10.333149963989854">
        <ele>558.17999999999995</ele>
        <time>2017-05-22T13:51:21Z</time>
      </trkpt>
      <trkpt lat="51.847066981717944" lon="10.332898003980517">
        <ele>558.17999999999995</ele>
        <time>2017-05-22T13:51:22Z</time>
      </trkpt>
      <trkpt lat="51.847086008638144" lon="10.332634979858994">
        <ele>557.22000000000003</ele>
        <time>2017-05-22T13:51:23Z</time>
      </trkpt>
      <trkpt lat="51.847101012244821" lon="10.332375979050994">
        <ele>556.25999999999999</ele>
        <time>2017-05-22T13:51:24Z</time>
      </trkpt>
      <trkpt lat="51.847227998077869" lon="10.331211984157562">
        <ele>551.92999999999995</ele>
        <time>2017-05-22T13:51:29Z</time>
      </trkpt>
      <trkpt lat="51.847278960049152" lon="10.331022972241044">
        <ele>551.45000000000005</ele>
        <time>2017-05-22T13:51:30Z</time>
      </trkpt>
      <trkpt lat="51.847336962819099" lon="10.330864973366261">
        <ele>549.52999999999997</ele>
        <time>2017-05-22T13:51:31Z</time>
      </trkpt>
      <trkpt lat="51.847424972802401" lon="10.330760031938553">
        <ele>548.57000000000005</ele>
        <time>2017-05-22T13:51:32Z</time>
      </trkpt>
      <trkpt lat="51.847523041069508" lon="10.3306919708848">
        <ele>548.09000000000003</ele>
        <time>2017-05-22T13:51:33Z</time>
      </trkpt>
      <trkpt lat="51.847619013860822" lon="10.330666992813349">
        <ele>547.13</ele>
        <time>2017-05-22T13:51:34Z</time>
      </trkpt>
      <trkpt lat="51.847713980823755" lon="10.330673027783632">
        <ele>546.16999999999996</ele>
        <time>2017-05-22T13:51:35Z</time>
      </trkpt>
      <trkpt lat="51.847805008292198" lon="10.330697000026703">
        <ele>545.20000000000005</ele>
        <time>2017-05-22T13:51:36Z</time>
      </trkpt>
      <trkpt lat="51.847914978861809" lon="10.330742010846734">
        <ele>545.20000000000005</ele>
        <time>2017-05-22T13:51:37Z</time>
      </trkpt>
      <trkpt lat="51.848018998280168" lon="10.330795990303159">
        <ele>543.75999999999999</ele>
        <time>2017-05-22T13:51:38Z</time>
      </trkpt>
      <trkpt lat="51.848459970206022" lon="10.330899003893137">
        <ele>541.36000000000001</ele>
        <time>2017-05-22T13:51:42Z</time>
      </trkpt>
      <trkpt lat="51.848560972139239" lon="10.330895986407995">
        <ele>540.88</ele>
        <time>2017-05-22T13:51:43Z</time>
      </trkpt>
      <trkpt lat="51.848660968244076" lon="10.330877965316176">
        <ele>540.88</ele>
        <time>2017-05-22T13:51:44Z</time>
      </trkpt>
      <trkpt lat="51.848775967955589" lon="10.330870002508163">
        <ele>543.27999999999997</ele>
        <time>2017-05-22T13:51:45Z</time>
      </trkpt>
      <trkpt lat="51.848877975717187" lon="10.330829015001655">
        <ele>544.24000000000001</ele>
        <time>2017-05-22T13:51:46Z</time>
      </trkpt>
      <trkpt lat="51.84946496039629" lon="10.330369016155601">
        <ele>548.57000000000005</ele>
        <time>2017-05-22T13:51:53Z</time>
      </trkpt>
      <trkpt lat="51.849510977044702" lon="10.330287041142583">
        <ele>549.52999999999997</ele>
        <time>2017-05-22T13:51:54Z</time>
      </trkpt>
      <trkpt lat="51.849559005349874" lon="10.330191990360618">
        <ele>549.52999999999997</ele>
        <time>2017-05-22T13:51:55Z</time>
      </trkpt>
      <trkpt lat="51.849610973149538" lon="10.330084031447768">
        <ele>550.00999999999999</ele>
        <time>2017-05-22T13:51:56Z</time>
      </trkpt>
      <trkpt lat="51.84968096204102" lon="10.329959979280829">
        <ele>553.38</ele>
        <time>2017-05-22T13:51:57Z</time>
      </trkpt>
      <trkpt lat="51.849733013659716" lon="10.329812038689852">
        <ele>553.86000000000001</ele>
        <time>2017-05-22T13:51:58Z</time>
      </trkpt>
      <trkpt lat="51.849795961752534" lon="10.329651022329926">
        <ele>555.29999999999995</ele>
        <time>2017-05-22T13:51:59Z</time>
      </trkpt>
      <trkpt lat="51.849961001425982" lon="10.329070994630456">
        <ele>557.70000000000005</ele>
        <time>2017-05-22T13:52:02Z</time>
      </trkpt>
      <trkpt lat="51.849985979497433" lon="10.328836971893907">
        <ele>558.17999999999995</ele>
        <time>2017-05-22T13:52:03Z</time>
      </trkpt>
      <trkpt lat="51.849992014467716" lon="10.328593980520964">
        <ele>559.62</ele>
        <time>2017-05-22T13:52:04Z</time>
      </trkpt>
      <trkpt lat="51.85000198893249" lon="10.327915968373418">
        <ele>562.50999999999999</ele>
        <time>2017-05-22T13:52:07Z</time>
      </trkpt>
      <trkpt lat="51.850037025287747" lon="10.327741960063577">
        <ele>562.99000000000001</ele>
        <time>2017-05-22T13:52:08Z</time>
      </trkpt>
      <trkpt lat="51.850089998915792" lon="10.327600976452231">
        <ele>562.99000000000001</ele>
        <time>2017-05-22T13:52:09Z</time>
      </trkpt>
      <trkpt lat="51.850157976150513" lon="10.327506009489298">
        <ele>563.47000000000003</ele>
        <time>2017-05-22T13:52:10Z</time>
      </trkpt>
      <trkpt lat="51.85019301250577" lon="10.32746896147728">
        <ele>562.50999999999999</ele>
        <time>2017-05-22T13:52:11Z</time>
      </trkpt>
      <trkpt lat="51.850241040810943" lon="10.327455969527364">
        <ele>562.50999999999999</ele>
        <time>2017-05-22T13:52:12Z</time>
      </trkpt>
      <trkpt lat="51.850421000272036" lon="10.32746896147728">
        <ele>562.02999999999997</ele>
        <time>2017-05-22T13:52:16Z</time>
      </trkpt>
      <trkpt lat="51.850498029962182" lon="10.32751196064055">
        <ele>562.02999999999997</ele>
        <time>2017-05-22T13:52:17Z</time>
      </trkpt>
      <trkpt lat="51.850584028288722" lon="10.327578010037541">
        <ele>562.02999999999997</ele>
        <time>2017-05-22T13:52:18Z</time>
      </trkpt>
      <trkpt lat="51.851038997992873" lon="10.327931977808475">
        <ele>562.02999999999997</ele>
        <time>2017-05-22T13:52:22Z</time>
      </trkpt>
      <trkpt lat="51.85133496299386" lon="10.328008001670241">
        <ele>562.02999999999997</ele>
        <time>2017-05-22T13:52:24Z</time>
      </trkpt>
      <trkpt lat="51.851496985182166" lon="10.327991992235184">
        <ele>562.02999999999997</ele>
        <time>2017-05-22T13:52:25Z</time>
      </trkpt>
      <trkpt lat="51.852585040032864" lon="10.327663002535701">
        <ele>562.02999999999997</ele>
        <time>2017-05-22T13:52:31Z</time>
      </trkpt>
      <trkpt lat="51.852828031405807" lon="10.32772502861917">
        <ele>562.50999999999999</ele>
        <time>2017-05-22T13:52:32Z</time>
      </trkpt>
      <trkpt lat="51.853015031665564" lon="10.327799040824175">
        <ele>562.50999999999999</ele>
        <time>2017-05-22T13:52:33Z</time>
      </trkpt>
      <trkpt lat="51.853174036368728" lon="10.327941030263901">
        <ele>562.99000000000001</ele>
        <time>2017-05-22T13:52:34Z</time>
      </trkpt>
      <trkpt lat="51.853334968909621" lon="10.328130964189768">
        <ele>563.47000000000003</ele>
        <time>2017-05-22T13:52:35Z</time>
      </trkpt>
      <trkpt lat="51.853492967784405" lon="10.328345037996769">
        <ele>563.95000000000005</ele>
        <time>2017-05-22T13:52:36Z</time>
      </trkpt>
      <trkpt lat="51.853636968880892" lon="10.328612001612782">
        <ele>563.95000000000005</ele>
        <time>2017-05-22T13:52:37Z</time>
      </trkpt>
      <trkpt lat="51.853869985789061" lon="10.329213989898562">
        <ele>564.90999999999997</ele>
        <time>2017-05-22T13:52:39Z</time>
      </trkpt>
      <trkpt lat="51.854579010978341" lon="10.332186967134476">
        <ele>566.83000000000004</ele>
        <time>2017-05-22T13:52:47Z</time>
      </trkpt>
      <trkpt lat="51.854966003447771" lon="10.333524970337749">
        <ele>567.32000000000005</ele>
        <time>2017-05-22T13:52:51Z</time>
      </trkpt>
      <trkpt lat="51.855104975402355" lon="10.333801992237568">
        <ele>566.83000000000004</ele>
        <time>2017-05-22T13:52:52Z</time>
      </trkpt>
      <trkpt lat="51.855270015075803" lon="10.334055963903666">
        <ele>566.83000000000004</ele>
        <time>2017-05-22T13:52:53Z</time>
      </trkpt>
      <trkpt lat="51.85603997670114" lon="10.335336970165372">
        <ele>569.24000000000001</ele>
        <time>2017-05-22T13:52:59Z</time>
      </trkpt>
      <trkpt lat="51.856420012190938" lon="10.336217992007732">
        <ele>574.52999999999997</ele>
        <time>2017-05-22T13:53:06Z</time>
      </trkpt>
      <trkpt lat="51.856582034379244" lon="10.336594004184008">
        <ele>572.60000000000002</ele>
        <time>2017-05-22T13:53:15Z</time>
      </trkpt>
      <trkpt lat="51.85670399107039" lon="10.336707998067141">
        <ele>568.27999999999997</ele>
        <time>2017-05-22T13:53:19Z</time>
      </trkpt>
      <trkpt lat="51.857308996841311" lon="10.337635036557913">
        <ele>562.50999999999999</ele>
        <time>2017-05-22T13:53:30Z</time>
      </trkpt>
      <trkpt lat="51.857805037871003" lon="10.338313970714808">
        <ele>561.54999999999995</ele>
        <time>2017-05-22T13:53:39Z</time>
      </trkpt>
      <trkpt lat="51.858184989541769" lon="10.338844964280725">
        <ele>556.74000000000001</ele>
        <time>2017-05-22T13:53:47Z</time>
      </trkpt>
      <trkpt lat="51.858366960659623" lon="10.338972033932805">
        <ele>559.62</ele>
        <time>2017-05-22T13:53:50Z</time>
      </trkpt>
      <trkpt lat="51.858576005324721" lon="10.339079992845654">
        <ele>558.17999999999995</ele>
        <time>2017-05-22T13:53:54Z</time>
      </trkpt>
      <trkpt lat="51.858629984781146" lon="10.339088039472699">
        <ele>558.17999999999995</ele>
        <time>2017-05-22T13:53:55Z</time>
      </trkpt>
      <trkpt lat="51.85868295840919" lon="10.339088961482048">
        <ele>558.65999999999997</ele>
        <time>2017-05-22T13:53:56Z</time>
      </trkpt>
      <trkpt lat="51.859085960313678" lon="10.338991982862353">
        <ele>557.70000000000005</ele>
        <time>2017-05-22T13:54:04Z</time>
      </trkpt>
      <trkpt lat="51.859145974740386" lon="10.338964993134141">
        <ele>558.17999999999995</ele>
        <time>2017-05-22T13:54:05Z</time>
      </trkpt>
      <trkpt lat="51.859985003247857" lon="10.338631980121136">
        <ele>561.07000000000005</ele>
        <time>2017-05-22T13:54:15Z</time>
      </trkpt>
      <trkpt lat="51.860935008153319" lon="10.338292010128498">
        <ele>568.75999999999999</ele>
        <time>2017-05-22T13:54:26Z</time>
      </trkpt>
      <trkpt lat="51.861227033659816" lon="10.338368033990264">
        <ele>568.75999999999999</ele>
        <time>2017-05-22T13:54:31Z</time>
      </trkpt>
      <trkpt lat="51.862149965018034" lon="10.338394017890096">
        <ele>572.60000000000002</ele>
        <time>2017-05-22T13:54:43Z</time>
      </trkpt>
      <trkpt lat="51.863271966576576" lon="10.33836199901998">
        <ele>575.97000000000003</ele>
        <time>2017-05-22T13:54:55Z</time>
      </trkpt>
      <trkpt lat="51.864053998142481" lon="10.338501976802945">
        <ele>580.76999999999998</ele>
        <time>2017-05-22T13:55:04Z</time>
      </trkpt>
      <trkpt lat="51.864967960864305" lon="10.338674979284406">
        <ele>584.62</ele>
        <time>2017-05-22T13:55:14Z</time>
      </trkpt>
      <trkpt lat="51.865155966952443" lon="10.338714960962534">
        <ele>584.62</ele>
        <time>2017-05-22T13:55:17Z</time>
      </trkpt>
      <trkpt lat="51.865187985822558" lon="10.338743962347507">
        <ele>584.13999999999999</ele>
        <time>2017-05-22T13:55:18Z</time>
      </trkpt>
      <trkpt lat="51.8652100302279" lon="10.338796013966203">
        <ele>583.65999999999997</ele>
        <time>2017-05-22T13:55:19Z</time>
      </trkpt>
      <trkpt lat="51.865220004692674" lon="10.33885502256453">
        <ele>583.65999999999997</ele>
        <time>2017-05-22T13:55:20Z</time>
      </trkpt>
      <trkpt lat="51.865230984985828" lon="10.338934985920787">
        <ele>585.10000000000002</ele>
        <time>2017-05-22T13:55:21Z</time>
      </trkpt>
      <trkpt lat="51.865214975550771" lon="10.338988965377212">
        <ele>585.10000000000002</ele>
        <time>2017-05-22T13:55:22Z</time>
      </trkpt>
      <trkpt lat="51.865185974165797" lon="10.339045040309429">
        <ele>585.10000000000002</ele>
        <time>2017-05-22T13:55:23Z</time>
      </trkpt>
      <trkpt lat="51.865153033286333" lon="10.339105976745486">
        <ele>584.13999999999999</ele>
        <time>2017-05-22T13:55:24Z</time>
      </trkpt>
      <trkpt lat="51.864857990294695" lon="10.339721962809563">
        <ele>584.13999999999999</ele>
        <time>2017-05-22T13:55:32Z</time>
      </trkpt>
      <trkpt lat="51.864725975319743" lon="10.339954979717731">
        <ele>583.17999999999995</ele>
        <time>2017-05-22T13:55:35Z</time>
      </trkpt>
      <trkpt lat="51.86467400752008" lon="10.340013988316059">
        <ele>583.65999999999997</ele>
        <time>2017-05-22T13:55:36Z</time>
      </trkpt>
      <trkpt lat="51.864616004750133" lon="10.340062016621232">
        <ele>583.65999999999997</ele>
        <time>2017-05-22T13:55:37Z</time>
      </trkpt>
      <trkpt lat="51.864560013636947" lon="10.34010199829936">
        <ele>583.65999999999997</ele>
        <time>2017-05-22T13:55:38Z</time>
      </trkpt>
      <trkpt lat="51.864505028352141" lon="10.340141979977489">
        <ele>583.17999999999995</ele>
        <time>2017-05-22T13:55:39Z</time>
      </trkpt>
      <trkpt lat="51.86342803761363" lon="10.340765006840229">
        <ele>580.28999999999996</ele>
        <time>2017-05-22T13:55:57Z</time>
      </trkpt>
      <trkpt lat="51.862700991332531" lon="10.341130960732698">
        <ele>573.55999999999995</ele>
        <time>2017-05-22T13:56:10Z</time>
      </trkpt>
      <trkpt lat="51.862600995227695" lon="10.341159962117672">
        <ele>572.60000000000002</ele>
        <time>2017-05-22T13:56:12Z</time>
      </trkpt>
      <trkpt lat="51.861804965883493" lon="10.341334976255894">
        <ele>562.50999999999999</ele>
        <time>2017-05-22T13:56:26Z</time>
      </trkpt>
      <trkpt lat="51.861701030284166" lon="10.341270016506314">
        <ele>555.77999999999997</ele>
        <time>2017-05-22T13:56:34Z</time>
      </trkpt>
      <trkpt lat="51.861682003363967" lon="10.341276973485947">
        <ele>552.40999999999997</ele>
        <time>2017-05-22T13:56:50Z</time>
      </trkpt>
      <trkpt lat="51.861654007807374" lon="10.341265993192792">
        <ele>552.40999999999997</ele>
        <time>2017-05-22T13:56:51Z</time>
      </trkpt>
      <trkpt lat="51.861600028350949" lon="10.341234980151057">
        <ele>553.38</ele>
        <time>2017-05-22T13:56:52Z</time>
      </trkpt>
      <trkpt lat="51.861298028379679" lon="10.3410479798913">
        <ele>554.34000000000003</ele>
        <time>2017-05-22T13:56:57Z</time>
      </trkpt>
      <trkpt lat="51.860967027023435" lon="10.340903978794813">
        <ele>555.77999999999997</ele>
        <time>2017-05-22T13:57:06Z</time>
      </trkpt>
      <trkpt lat="51.860728980973363" lon="10.340795014053583">
        <ele>555.77999999999997</ele>
        <time>2017-05-22T13:57:11Z</time>
      </trkpt>
      <trkpt lat="51.860684975981712" lon="10.340779004618526">
        <ele>555.77999999999997</ele>
        <time>2017-05-22T13:57:12Z</time>
      </trkpt>
      <trkpt lat="51.860321033746004" lon="10.340555962175131">
        <ele>560.11000000000001</ele>
        <time>2017-05-22T13:57:25Z</time>
      </trkpt>
      <trkpt lat="51.860088016837835" lon="10.340528972446918">
        <ele>561.07000000000005</ele>
        <time>2017-05-22T13:57:41Z</time>
      </trkpt>
      <trkpt lat="51.859363988041878" lon="10.340537019073963">
        <ele>556.74000000000001</ele>
        <time>2017-05-22T13:57:58Z</time>
      </trkpt>
      <trkpt lat="51.858754958957434" lon="10.340523021295667">
        <ele>565.38999999999999</ele>
        <time>2017-05-22T13:58:14Z</time>
      </trkpt>
      <trkpt lat="51.858222959563136" lon="10.340360999107361">
        <ele>566.35000000000002</ele>
        <time>2017-05-22T13:58:28Z</time>
      </trkpt>
      <trkpt lat="51.857637986540794" lon="10.340284975245595">
        <ele>575.00999999999999</ele>
        <time>2017-05-22T13:58:43Z</time>
      </trkpt>
      <trkpt lat="51.85760697349906" lon="10.340265026316047">
        <ele>575.00999999999999</ele>
        <time>2017-05-22T13:58:50Z</time>
      </trkpt>
      <trkpt lat="51.857581995427608" lon="10.340228984132409">
        <ele>575.49000000000001</ele>
        <time>2017-05-22T13:58:54Z</time>
      </trkpt>
      <trkpt lat="51.857587024569511" lon="10.340149020776153">
        <ele>575.97000000000003</ele>
        <time>2017-05-22T13:58:56Z</time>
      </trkpt>
      <trkpt lat="51.857571015134454" lon="10.340095963329077">
        <ele>576.45000000000005</ele>
        <time>2017-05-22T13:58:57Z</time>
      </trkpt>
      <trkpt lat="51.857547964900732" lon="10.340052964165807">
        <ele>576.45000000000005</ele>
        <time>2017-05-22T13:58:58Z</time>
      </trkpt>
      <trkpt lat="51.857507983222604" lon="10.340026980265975">
        <ele>575.97000000000003</ele>
        <time>2017-05-22T13:58:59Z</time>
      </trkpt>
      <trkpt lat="51.85747797600925" lon="10.340010970830917">
        <ele>576.45000000000005</ele>
        <time>2017-05-22T13:59:00Z</time>
      </trkpt>
      <trkpt lat="51.857383009046316" lon="10.340065034106374">
        <ele>573.08000000000004</ele>
        <time>2017-05-22T13:59:08Z</time>
      </trkpt>
      <trkpt lat="51.85739298351109" lon="10.340084983035922">
        <ele>573.08000000000004</ele>
        <time>2017-05-22T13:59:09Z</time>
      </trkpt>
      <trkpt lat="51.857532039284706" lon="10.340279024094343">
        <ele>568.75999999999999</ele>
        <time>2017-05-22T13:59:15Z</time>
      </trkpt>
      <trkpt lat="51.857552994042635" lon="10.34029696136713">
        <ele>566.35000000000002</ele>
        <time>2017-05-22T13:59:31Z</time>
      </trkpt>
      <trkpt lat="51.857657013460994" lon="10.340286986902356">
        <ele>567.32000000000005</ele>
        <time>2017-05-22T14:11:27Z</time>
      </trkpt>
      <trkpt lat="51.857636980712414" lon="10.34029696136713">
        <ele>564.42999999999995</ele>
        <time>2017-05-22T14:13:35Z</time>
      </trkpt>
      <trkpt lat="51.857666987925768" lon="10.340310959145427">
        <ele>564.42999999999995</ele>
        <time>2017-05-22T14:13:39Z</time>
      </trkpt>
      <trkpt lat="51.857661958783865" lon="10.340120019391179">
        <ele>564.42999999999995</ele>
        <time>2017-05-22T14:13:44Z</time>
      </trkpt>
      <trkpt lat="51.857578977942467" lon="10.339729003608227">
        <ele>565.38999999999999</ele>
        <time>2017-05-22T14:13:50Z</time>
      </trkpt>
      <trkpt lat="51.857302039861679" lon="10.338612031191587">
        <ele>565.87</ele>
        <time>2017-05-22T14:14:01Z</time>
      </trkpt>
      <trkpt lat="51.857258034870028" lon="10.338488984853029">
        <ele>565.87</ele>
        <time>2017-05-22T14:14:02Z</time>
      </trkpt>
      <trkpt lat="51.857210006564856" lon="10.338357975706458">
        <ele>566.35000000000002</ele>
        <time>2017-05-22T14:14:03Z</time>
      </trkpt>
      <trkpt lat="51.856671972200274" lon="10.337109994143248">
        <ele>559.62</ele>
        <time>2017-05-22T14:14:14Z</time>
      </trkpt>
      <trkpt lat="51.856068978086114" lon="10.335724968463182">
        <ele>558.17999999999995</ele>
        <time>2017-05-22T14:14:23Z</time>
      </trkpt>
      <trkpt lat="51.855246964842081" lon="10.33410700969398">
        <ele>558.65999999999997</ele>
        <time>2017-05-22T14:14:30Z</time>
      </trkpt>
      <trkpt lat="51.854758970439434" lon="10.333359008654952">
        <ele>557.70000000000005</ele>
        <time>2017-05-22T14:14:33Z</time>
      </trkpt>
      <trkpt lat="51.854638019576669" lon="10.333046028390527">
        <ele>557.22000000000003</ele>
        <time>2017-05-22T14:14:34Z</time>
      </trkpt>
      <trkpt lat="51.854544980451465" lon="10.332714021205902">
        <ele>556.74000000000001</ele>
        <time>2017-05-22T14:14:35Z</time>
      </trkpt>
      <trkpt lat="51.853772001340985" lon="10.329331001266837">
        <ele>553.86000000000001</ele>
        <time>2017-05-22T14:14:44Z</time>
      </trkpt>
      <trkpt lat="51.853442005813122" lon="10.328403962776065">
        <ele>552.40999999999997</ele>
        <time>2017-05-22T14:14:47Z</time>
      </trkpt>
      <trkpt lat="51.853290041908622" lon="10.328145967796445">
        <ele>551.92999999999995</ele>
        <time>2017-05-22T14:14:48Z</time>
      </trkpt>
      <trkpt lat="51.853116033598781" lon="10.327917980030179">
        <ele>551.92999999999995</ele>
        <time>2017-05-22T14:14:49Z</time>
      </trkpt>
      <trkpt lat="51.852939007803798" lon="10.327729973942041">
        <ele>551.92999999999995</ele>
        <time>2017-05-22T14:14:50Z</time>
      </trkpt>
      <trkpt lat="51.852762987837195" lon="10.327586978673935">
        <ele>551.45000000000005</ele>
        <time>2017-05-22T14:14:51Z</time>
      </trkpt>
      <trkpt lat="51.852590991184115" lon="10.327502992004156">
        <ele>550.97000000000003</ele>
        <time>2017-05-22T14:14:52Z</time>
      </trkpt>
      <trkpt lat="51.852412037551403" lon="10.327464016154408">
        <ele>550.49000000000001</ele>
        <time>2017-05-22T14:14:53Z</time>
      </trkpt>
      <trkpt lat="51.852230988442898" lon="10.327546996995807">
        <ele>550.49000000000001</ele>
        <time>2017-05-22T14:14:54Z</time>
      </trkpt>
      <trkpt lat="51.85204197652638" lon="10.32761799171567">
        <ele>550.49000000000001</ele>
        <time>2017-05-22T14:14:55Z</time>
      </trkpt>
      <trkpt lat="51.851324988529086" lon="10.327822007238865">
        <ele>548.57000000000005</ele>
        <time>2017-05-22T14:14:59Z</time>
      </trkpt>
      <trkpt lat="51.851173024624586" lon="10.327862994745374">
        <ele>548.09000000000003</ele>
        <time>2017-05-22T14:15:00Z</time>
      </trkpt>
      <trkpt lat="51.851021982729435" lon="10.327895013615489">
        <ele>549.04999999999995</ele>
        <time>2017-05-22T14:15:01Z</time>
      </trkpt>
      <trkpt lat="51.850915029644966" lon="10.327856037765741">
        <ele>549.04999999999995</ele>
        <time>2017-05-22T14:15:02Z</time>
      </trkpt>
      <trkpt lat="51.850836994126439" lon="10.327816978096962">
        <ele>549.04999999999995</ele>
        <time>2017-05-22T14:15:03Z</time>
      </trkpt>
      <trkpt lat="51.850771028548479" lon="10.327744977548718">
        <ele>549.52999999999997</ele>
        <time>2017-05-22T14:15:04Z</time>
      </trkpt>
      <trkpt lat="51.85072903521359" lon="10.32768496312201">
        <ele>549.04999999999995</ele>
        <time>2017-05-22T14:15:05Z</time>
      </trkpt>
      <trkpt lat="51.850691987201571" lon="10.327604999765754">
        <ele>548.57000000000005</ele>
        <time>2017-05-22T14:15:06Z</time>
      </trkpt>
      <trkpt lat="51.850673966109753" lon="10.32751003280282">
        <ele>548.09000000000003</ele>
        <time>2017-05-22T14:15:07Z</time>
      </trkpt>
      <trkpt lat="51.85068603605032" lon="10.327433003112674">
        <ele>548.09000000000003</ele>
        <time>2017-05-22T14:15:08Z</time>
      </trkpt>
      <trkpt lat="51.85073004104197" lon="10.327352033928037">
        <ele>546.16999999999996</ele>
        <time>2017-05-22T14:15:09Z</time>
      </trkpt>
      <trkpt lat="51.850800029933453" lon="10.327266035601497">
        <ele>544.72000000000003</ele>
        <time>2017-05-22T14:15:10Z</time>
      </trkpt>
      <trkpt lat="51.850896002724767" lon="10.327222030609846">
        <ele>544.72000000000003</ele>
        <time>2017-05-22T14:15:11Z</time>
      </trkpt>
      <trkpt lat="51.851007984951138" lon="10.327178025618196">
        <ele>544.24000000000001</ele>
        <time>2017-05-22T14:15:12Z</time>
      </trkpt>
      <trkpt lat="51.851601004600525" lon="10.326882982626557">
        <ele>539.44000000000005</ele>
        <time>2017-05-22T14:15:16Z</time>
      </trkpt>
      <trkpt lat="51.852205004543066" lon="10.326405968517065">
        <ele>536.54999999999995</ele>
        <time>2017-05-22T14:15:20Z</time>
      </trkpt>
      <trkpt lat="51.852542962878942" lon="10.326288035139441">
        <ele>536.07000000000005</ele>
        <time>2017-05-22T14:15:22Z</time>
      </trkpt>
      <trkpt lat="51.852734992280602" lon="10.326298009604216">
        <ele>536.07000000000005</ele>
        <time>2017-05-22T14:15:23Z</time>
      </trkpt>
      <trkpt lat="51.853280989453197" lon="10.326346037909389">
        <ele>533.19000000000005</ele>
        <time>2017-05-22T14:15:26Z</time>
      </trkpt>
      <trkpt lat="51.853400012478232" lon="10.326287029311061">
        <ele>533.19000000000005</ele>
        <time>2017-05-22T14:15:27Z</time>
      </trkpt>
      <trkpt lat="51.853491961956024" lon="10.326171023771167">
        <ele>532.23000000000002</ele>
        <time>2017-05-22T14:15:28Z</time>
      </trkpt>
      <trkpt lat="51.853562034666538" lon="10.326015958562493">
        <ele>531.75</ele>
        <time>2017-05-22T14:15:29Z</time>
      </trkpt>
      <trkpt lat="51.853616014122963" lon="10.32581496052444">
        <ele>531.26999999999998</ele>
        <time>2017-05-22T14:15:30Z</time>
      </trkpt>
      <trkpt lat="51.853651972487569" lon="10.325587978586555">
        <ele>531.26999999999998</ele>
        <time>2017-05-22T14:15:31Z</time>
      </trkpt>
      <trkpt lat="51.853689020499587" lon="10.325336018577218">
        <ele>531.75</ele>
        <time>2017-05-22T14:15:32Z</time>
      </trkpt>
      <trkpt lat="51.853869985789061" lon="10.32387999817729">
        <ele>535.11000000000001</ele>
        <time>2017-05-22T14:15:37Z</time>
      </trkpt>
      <trkpt lat="51.853942992165685" lon="10.323595013469458">
        <ele>536.07000000000005</ele>
        <time>2017-05-22T14:15:38Z</time>
      </trkpt>
      <trkpt lat="51.854041982442141" lon="10.323336012661457">
        <ele>537.02999999999997</ele>
        <time>2017-05-22T14:15:39Z</time>
      </trkpt>
      <trkpt lat="51.854159999638796" lon="10.323101989924908">
        <ele>538.48000000000002</ele>
        <time>2017-05-22T14:15:40Z</time>
      </trkpt>
      <trkpt lat="51.854296959936619" lon="10.322894034907222">
        <ele>539.91999999999996</ele>
        <time>2017-05-22T14:15:41Z</time>
      </trkpt>
      <trkpt lat="51.854464011266828" lon="10.322717009112239">
        <ele>540.39999999999998</ele>
        <time>2017-05-22T14:15:42Z</time>
      </trkpt>
      <trkpt lat="51.854648999869823" lon="10.322581976652145">
        <ele>541.36000000000001</ele>
        <time>2017-05-22T14:15:43Z</time>
      </trkpt>
      <trkpt lat="51.854843962937593" lon="10.322465971112251">
        <ele>542.79999999999995</ele>
        <time>2017-05-22T14:15:44Z</time>
      </trkpt>
      <trkpt lat="51.855061976239085" lon="10.322371004149318">
        <ele>544.24000000000001</ele>
        <time>2017-05-22T14:15:45Z</time>
      </trkpt>
      <trkpt lat="51.855269009247422" lon="10.322306966409087">
        <ele>544.24000000000001</ele>
        <time>2017-05-22T14:15:46Z</time>
      </trkpt>
      <trkpt lat="51.855681985616684" lon="10.32211602665484">
        <ele>548.09000000000003</ele>
        <time>2017-05-22T14:15:48Z</time>
      </trkpt>
      <trkpt lat="51.855874015018344" lon="10.321974037215114">
        <ele>549.52999999999997</ele>
        <time>2017-05-22T14:15:49Z</time>
      </trkpt>
      <trkpt lat="51.856064032763243" lon="10.321786031126976">
        <ele>550.97000000000003</ele>
        <time>2017-05-22T14:15:50Z</time>
      </trkpt>
      <trkpt lat="51.856217002496123" lon="10.321546979248524">
        <ele>551.92999999999995</ele>
        <time>2017-05-22T14:15:51Z</time>
      </trkpt>
      <trkpt lat="51.856358991935849" lon="10.321261994540691">
        <ele>552.89999999999998</ele>
        <time>2017-05-22T14:15:52Z</time>
      </trkpt>
      <trkpt lat="51.856493018567562" lon="10.320959994569421">
        <ele>553.38</ele>
        <time>2017-05-22T14:15:53Z</time>
      </trkpt>
      <trkpt lat="51.85670399107039" lon="10.320373009890318">
        <ele>554.82000000000005</ele>
        <time>2017-05-22T14:15:55Z</time>
      </trkpt>
      <trkpt lat="51.856749001890421" lon="10.320047037675977">
        <ele>555.77999999999997</ele>
        <time>2017-05-22T14:15:56Z</time>
      </trkpt>
      <trkpt lat="51.856760988011956" lon="10.319698015227914">
        <ele>557.22000000000003</ele>
        <time>2017-05-22T14:15:57Z</time>
      </trkpt>
      <trkpt lat="51.856756964698434" lon="10.319336000829935">
        <ele>558.65999999999997</ele>
        <time>2017-05-22T14:15:58Z</time>
      </trkpt>
      <trkpt lat="51.856744978576899" lon="10.318971974775195">
        <ele>559.13999999999999</ele>
        <time>2017-05-22T14:15:59Z</time>
      </trkpt>
      <trkpt lat="51.856707008555532" lon="10.317122004926205">
        <ele>561.54999999999995</ele>
        <time>2017-05-22T14:16:04Z</time>
      </trkpt>
      <trkpt lat="51.856745984405279" lon="10.316805001348257">
        <ele>561.07000000000005</ele>
        <time>2017-05-22T14:16:05Z</time>
      </trkpt>
      <trkpt lat="51.856817984953523" lon="10.31655203551054">
        <ele>560.59000000000003</ele>
        <time>2017-05-22T14:16:06Z</time>
      </trkpt>
      <trkpt lat="51.856914963573217" lon="10.316349025815725">
        <ele>560.59000000000003</ele>
        <time>2017-05-22T14:16:07Z</time>
      </trkpt>
      <trkpt lat="51.857043039053679" lon="10.316206030547619">
        <ele>560.59000000000003</ele>
        <time>2017-05-22T14:16:08Z</time>
      </trkpt>
      <trkpt lat="51.857188967987895" lon="10.316103016957641">
        <ele>560.59000000000003</ele>
        <time>2017-05-22T14:16:09Z</time>
      </trkpt>
      <trkpt lat="51.857365993782878" lon="10.316041996702552">
        <ele>560.11000000000001</ele>
        <time>2017-05-22T14:16:10Z</time>
      </trkpt>
      <trkpt lat="51.857556011527777" lon="10.316007966175675">
        <ele>560.59000000000003</ele>
        <time>2017-05-22T14:16:11Z</time>
      </trkpt>
      <trkpt lat="51.857946021482348" lon="10.315905958414078">
        <ele>560.11000000000001</ele>
        <time>2017-05-22T14:16:13Z</time>
      </trkpt>
      <trkpt lat="51.858112988993526" lon="10.315813003107905">
        <ele>560.11000000000001</ele>
        <time>2017-05-22T14:16:14Z</time>
      </trkpt>
      <trkpt lat="51.858266964554787" lon="10.315674031153321">
        <ele>560.11000000000001</ele>
        <time>2017-05-22T14:16:15Z</time>
      </trkpt>
      <trkpt lat="51.858404008671641" lon="10.3154990170151">
        <ele>559.62</ele>
        <time>2017-05-22T14:16:16Z</time>
      </trkpt>
      <trkpt lat="51.858520014211535" lon="10.315302964299917">
        <ele>558.65999999999997</ele>
        <time>2017-05-22T14:16:17Z</time>
      </trkpt>
      <trkpt lat="51.858629984781146" lon="10.315114036202431">
        <ele>558.17999999999995</ele>
        <time>2017-05-22T14:16:18Z</time>
      </trkpt>
      <trkpt lat="51.858746996149421" lon="10.314945979043841">
        <ele>557.22000000000003</ele>
        <time>2017-05-22T14:16:19Z</time>
      </trkpt>
      <trkpt lat="51.858869958668947" lon="10.314815975725651">
        <ele>556.74000000000001</ele>
        <time>2017-05-22T14:16:20Z</time>
      </trkpt>
      <trkpt lat="51.858998034149408" lon="10.314745986834168">
        <ele>556.25999999999999</ele>
        <time>2017-05-22T14:16:21Z</time>
      </trkpt>
      <trkpt lat="51.859140023589134" lon="10.314753027632833">
        <ele>554.82000000000005</ele>
        <time>2017-05-22T14:16:22Z</time>
      </trkpt>
      <trkpt lat="51.85926198028028" lon="10.314831985160708">
        <ele>554.34000000000003</ele>
        <time>2017-05-22T14:16:23Z</time>
      </trkpt>
      <trkpt lat="51.859353007748723" lon="10.314973974600434">
        <ele>553.38</ele>
        <time>2017-05-22T14:16:24Z</time>
      </trkpt>
      <trkpt lat="51.859425008296967" lon="10.315157035365701">
        <ele>551.92999999999995</ele>
        <time>2017-05-22T14:16:25Z</time>
      </trkpt>
      <trkpt lat="51.859467001631856" lon="10.315387034788728">
        <ele>550.49000000000001</ele>
        <time>2017-05-22T14:16:26Z</time>
      </trkpt>
      <trkpt lat="51.859504971653223" lon="10.315657015889883">
        <ele>549.52999999999997</ele>
        <time>2017-05-22T14:16:27Z</time>
      </trkpt>
      <trkpt lat="51.859533973038197" lon="10.315962033346295">
        <ele>549.52999999999997</ele>
        <time>2017-05-22T14:16:28Z</time>
      </trkpt>
      <trkpt lat="51.85982096940279" lon="10.318264961242676">
        <ele>536.54999999999995</ele>
        <time>2017-05-22T14:16:35Z</time>
      </trkpt>
      <trkpt lat="51.860135961323977" lon="10.319345975294709">
        <ele>531.75</ele>
        <time>2017-05-22T14:16:39Z</time>
      </trkpt>
      <trkpt lat="51.860234029591084" lon="10.319543033838272">
        <ele>530.78999999999996</ele>
        <time>2017-05-22T14:16:40Z</time>
      </trkpt>
      <trkpt lat="51.860352968797088" lon="10.319687034934759">
        <ele>530.29999999999995</ele>
        <time>2017-05-22T14:16:41Z</time>
      </trkpt>
      <trkpt lat="51.860478026792407" lon="10.31977697275579">
        <ele>529.82000000000005</ele>
        <time>2017-05-22T14:16:42Z</time>
      </trkpt>
      <trkpt lat="51.860595960170031" lon="10.319807985797524">
        <ele>528.86000000000001</ele>
        <time>2017-05-22T14:16:43Z</time>
      </trkpt>
      <trkpt lat="51.860709032043815" lon="10.319759035483003">
        <ele>527.89999999999998</ele>
        <time>2017-05-22T14:16:44Z</time>
      </trkpt>
      <trkpt lat="51.860827971249819" lon="10.319639006629586">
        <ele>526.94000000000005</ele>
        <time>2017-05-22T14:16:45Z</time>
      </trkpt>
      <trkpt lat="51.860929979011416" lon="10.319470027461648">
        <ele>525.98000000000002</ele>
        <time>2017-05-22T14:16:46Z</time>
      </trkpt>
      <trkpt lat="51.861014971509576" lon="10.319257965311408">
        <ele>525.5</ele>
        <time>2017-05-22T14:16:47Z</time>
      </trkpt>
      <trkpt lat="51.861075991764665" lon="10.318999970331788">
        <ele>525.01999999999998</ele>
        <time>2017-05-22T14:16:48Z</time>
      </trkpt>
      <trkpt lat="51.861124020069838" lon="10.318700987845659">
        <ele>524.53999999999996</ele>
        <time>2017-05-22T14:16:49Z</time>
      </trkpt>
      <trkpt lat="51.861472958698869" lon="10.315906964242458">
        <ele>521.16999999999996</ele>
        <time>2017-05-22T14:16:57Z</time>
      </trkpt>
      <trkpt lat="51.861987020820379" lon="10.313084023073316">
        <ele>501.94999999999999</ele>
        <time>2017-05-22T14:17:05Z</time>
      </trkpt>
      <trkpt lat="51.862304024398327" lon="10.312109040096402">
        <ele>494.74000000000001</ele>
        <time>2017-05-22T14:17:09Z</time>
      </trkpt>
      <trkpt lat="51.862407959997654" lon="10.311966966837645">
        <ele>493.76999999999998</ele>
        <time>2017-05-22T14:17:10Z</time>
      </trkpt>
      <trkpt lat="51.86252698302269" lon="10.31187099404633">
        <ele>493.29000000000002</ele>
        <time>2017-05-22T14:17:11Z</time>
      </trkpt>
      <trkpt lat="51.862657992169261" lon="10.31180796213448">
        <ele>492.32999999999998</ele>
        <time>2017-05-22T14:17:12Z</time>
      </trkpt>
      <trkpt lat="51.862790007144213" lon="10.311738979071379">
        <ele>491.85000000000002</ele>
        <time>2017-05-22T14:17:13Z</time>
      </trkpt>
      <trkpt lat="51.862911963835359" lon="10.311645017936826">
        <ele>490.88999999999999</ele>
        <time>2017-05-22T14:17:14Z</time>
      </trkpt>
      <trkpt lat="51.863012965768576" lon="10.311501016840339">
        <ele>490.41000000000003</ele>
        <time>2017-05-22T14:17:15Z</time>
      </trkpt>
      <trkpt lat="51.86308697797358" lon="10.311309993267059">
        <ele>489.44999999999999</ele>
        <time>2017-05-22T14:17:16Z</time>
      </trkpt>
      <trkpt lat="51.863132994621992" lon="10.311078988015652">
        <ele>488.97000000000003</ele>
        <time>2017-05-22T14:17:17Z</time>
      </trkpt>
      <trkpt lat="51.863155039027333" lon="10.31081797555089">
        <ele>488.00999999999999</ele>
        <time>2017-05-22T14:17:18Z</time>
      </trkpt>
      <trkpt lat="51.863169958814979" lon="10.310541959479451">
        <ele>487.05000000000001</ele>
        <time>2017-05-22T14:17:19Z</time>
      </trkpt>
      <trkpt lat="51.86321496963501" lon="10.309999985620379">
        <ele>486.07999999999998</ele>
        <time>2017-05-22T14:17:21Z</time>
      </trkpt>
      <trkpt lat="51.863260986283422" lon="10.30976302921772">
        <ele>485.12</ele>
        <time>2017-05-22T14:17:22Z</time>
      </trkpt>
      <trkpt lat="51.863405993208289" lon="10.309342006221414">
        <ele>483.19999999999999</ele>
        <time>2017-05-22T14:17:24Z</time>
      </trkpt>
      <trkpt lat="51.863543959334493" lon="10.309178978204727">
        <ele>482.24000000000001</ele>
        <time>2017-05-22T14:17:25Z</time>
      </trkpt>
      <trkpt lat="51.864168997853994" lon="10.308447992429137">
        <ele>476.94999999999999</ele>
        <time>2017-05-22T14:17:30Z</time>
      </trkpt>
      <trkpt lat="51.864209985360503" lon="10.308311032131314">
        <ele>476.47000000000003</ele>
        <time>2017-05-22T14:17:31Z</time>
      </trkpt>
      <trkpt lat="51.864218031987548" lon="10.308162001892924">
        <ele>475.99000000000001</ele>
        <time>2017-05-22T14:17:32Z</time>
      </trkpt>
      <trkpt lat="51.864173021167517" lon="10.308007020503283">
        <ele>475.02999999999997</ele>
        <time>2017-05-22T14:17:33Z</time>
      </trkpt>
      <trkpt lat="51.864143013954163" lon="10.307889003306627">
        <ele>474.55000000000001</ele>
        <time>2017-05-22T14:17:34Z</time>
      </trkpt>
      <trkpt lat="51.864076964557171" lon="10.307912975549698">
        <ele>472.63</ele>
        <time>2017-05-22T14:17:35Z</time>
      </trkpt>
      <trkpt lat="51.863870015367866" lon="10.308140041306615">
        <ele>471.18000000000001</ele>
        <time>2017-05-22T14:17:37Z</time>
      </trkpt>
      <trkpt lat="51.86379499733448" lon="10.308298040181398">
        <ele>470.22000000000003</ele>
        <time>2017-05-22T14:17:38Z</time>
      </trkpt>
      <trkpt lat="51.863683015108109" lon="10.308465007692575">
        <ele>469.74000000000001</ele>
        <time>2017-05-22T14:17:39Z</time>
      </trkpt>
      <trkpt lat="51.863548988476396" lon="10.308619989082217">
        <ele>468.77999999999997</ele>
        <time>2017-05-22T14:17:40Z</time>
      </trkpt>
      <trkpt lat="51.863390989601612" lon="10.30875300988555">
        <ele>467.81999999999999</ele>
        <time>2017-05-22T14:17:41Z</time>
      </trkpt>
      <trkpt lat="51.863202983513474" lon="10.308865997940302">
        <ele>466.86000000000001</ele>
        <time>2017-05-22T14:17:42Z</time>
      </trkpt>
      <trkpt lat="51.861807983368635" lon="10.310051031410694">
        <ele>460.13</ele>
        <time>2017-05-22T14:17:50Z</time>
      </trkpt>
      <trkpt lat="51.861354019492865" lon="10.310453027486801">
        <ele>458.20999999999998</ele>
        <time>2017-05-22T14:17:54Z</time>
      </trkpt>
      <trkpt lat="51.861271960660815" lon="10.31040801666677">
        <ele>457.72000000000003</ele>
        <time>2017-05-22T14:17:55Z</time>
      </trkpt>
      <trkpt lat="51.861257962882519" lon="10.310263009741902">
        <ele>457.24000000000001</ele>
        <time>2017-05-22T14:17:56Z</time>
      </trkpt>
      <trkpt lat="51.861250000074506" lon="10.31010702252388">
        <ele>456.75999999999999</ele>
        <time>2017-05-22T14:17:57Z</time>
      </trkpt>
      <trkpt lat="51.86125704087317" lon="10.309911975637078">
        <ele>455.80000000000001</ele>
        <time>2017-05-22T14:17:58Z</time>
      </trkpt>
      <trkpt lat="51.861260980367661" lon="10.309696979820728">
        <ele>455.31999999999999</ele>
        <time>2017-05-22T14:17:59Z</time>
      </trkpt>
      <trkpt lat="51.861338010057807" lon="10.309267994016409">
        <ele>453.88</ele>
        <time>2017-05-22T14:18:01Z</time>
      </trkpt>
      <trkpt lat="51.861368017271161" lon="10.309047969058156">
        <ele>453.88</ele>
        <time>2017-05-22T14:18:02Z</time>
      </trkpt>
      <trkpt lat="51.861478993669152" lon="10.308802966028452">
        <ele>452.44</ele>
        <time>2017-05-22T14:18:03Z</time>
      </trkpt>
      <trkpt lat="51.861629029735923" lon="10.308212041854858">
        <ele>451</ele>
        <time>2017-05-22T14:18:05Z</time>
      </trkpt>
      <trkpt lat="51.861694995313883" lon="10.307910963892937">
        <ele>450.51999999999998</ele>
        <time>2017-05-22T14:18:06Z</time>
      </trkpt>
      <trkpt lat="51.862043011933565" lon="10.306854005903006">
        <ele>446.19</ele>
        <time>2017-05-22T14:18:10Z</time>
      </trkpt>
      <trkpt lat="51.862066984176636" lon="10.30621899291873">
        <ele>445.23000000000002</ele>
        <time>2017-05-22T14:18:12Z</time>
      </trkpt>
      <trkpt lat="51.862100008875132" lon="10.304626012220979">
        <ele>439.45999999999998</ele>
        <time>2017-05-22T14:18:17Z</time>
      </trkpt>
      <trkpt lat="51.862617004662752" lon="10.301756970584393">
        <ele>407.74000000000001</ele>
        <time>2017-05-22T14:18:26Z</time>
      </trkpt>
      <trkpt lat="51.863216981291771" lon="10.299427974969149">
        <ele>390.43000000000001</ele>
        <time>2017-05-22T14:18:33Z</time>
      </trkpt>
      <trkpt lat="51.86334103345871" lon="10.299170985817909">
        <ele>388.50999999999999</ele>
        <time>2017-05-22T14:18:34Z</time>
      </trkpt>
      <trkpt lat="51.863452009856701" lon="10.298925982788205">
        <ele>387.55000000000001</ele>
        <time>2017-05-22T14:18:35Z</time>
      </trkpt>
      <trkpt lat="51.863544965162873" lon="10.298668993636966">
        <ele>386.11000000000001</ele>
        <time>2017-05-22T14:18:36Z</time>
      </trkpt>
      <trkpt lat="51.863627023994923" lon="10.298394989222288">
        <ele>384.18000000000001</ele>
        <time>2017-05-22T14:18:37Z</time>
      </trkpt>
      <trkpt lat="51.863710004836321" lon="10.298102041706443">
        <ele>381.77999999999997</ele>
        <time>2017-05-22T14:18:38Z</time>
      </trkpt>
      <trkpt lat="51.863806983456016" lon="10.297795012593269">
        <ele>379.86000000000001</ele>
        <time>2017-05-22T14:18:39Z</time>
      </trkpt>
      <trkpt lat="51.863925000652671" lon="10.297515979036689">
        <ele>378.42000000000002</ele>
        <time>2017-05-22T14:18:40Z</time>
      </trkpt>
      <trkpt lat="51.864044023677707" lon="10.297253038734198">
        <ele>376.97000000000003</ele>
        <time>2017-05-22T14:18:41Z</time>
      </trkpt>
      <trkpt lat="51.864651963114738" lon="10.29603598639369">
        <ele>360.63</ele>
        <time>2017-05-22T14:18:47Z</time>
      </trkpt>
      <trkpt lat="51.865133000537753" lon="10.294594969600439">
        <ele>347.17000000000002</ele>
        <time>2017-05-22T14:18:55Z</time>
      </trkpt>
      <trkpt lat="51.865183962509036" lon="10.294441999867558">
        <ele>345.73000000000002</ele>
        <time>2017-05-22T14:18:56Z</time>
      </trkpt>
      <trkpt lat="51.865244982764125" lon="10.294300010427833">
        <ele>345.25</ele>
        <time>2017-05-22T14:18:57Z</time>
      </trkpt>
      <trkpt lat="51.866041012108326" lon="10.292600998654962">
        <ele>330.35000000000002</ele>
        <time>2017-05-22T14:19:10Z</time>
      </trkpt>
      <trkpt lat="51.866486007347703" lon="10.291159981861711">
        <ele>322.66000000000003</ele>
        <time>2017-05-22T14:19:21Z</time>
      </trkpt>
      <trkpt lat="51.866879034787416" lon="10.289892973378301">
        <ele>316.41000000000003</ele>
        <time>2017-05-22T14:19:32Z</time>
      </trkpt>
      <trkpt lat="51.8670370336622" lon="10.289229964837432">
        <ele>313.05000000000001</ele>
        <time>2017-05-22T14:19:37Z</time>
      </trkpt>
      <trkpt lat="51.867081960663199" lon="10.289111025631428">
        <ele>312.56999999999999</ele>
        <time>2017-05-22T14:19:38Z</time>
      </trkpt>
      <trkpt lat="51.867132000625134" lon="10.289000971242785">
        <ele>312.08999999999997</ele>
        <time>2017-05-22T14:19:39Z</time>
      </trkpt>
      <trkpt lat="51.867187991738319" lon="10.288900975137949">
        <ele>311.60000000000002</ele>
        <time>2017-05-22T14:19:40Z</time>
      </trkpt>
      <trkpt lat="51.867249011993408" lon="10.288812965154648">
        <ele>311.60000000000002</ele>
        <time>2017-05-22T14:19:41Z</time>
      </trkpt>
      <trkpt lat="51.867315983399749" lon="10.288738030940294">
        <ele>311.60000000000002</ele>
        <time>2017-05-22T14:19:42Z</time>
      </trkpt>
      <trkpt lat="51.867385972291231" lon="10.288671981543303">
        <ele>311.60000000000002</ele>
        <time>2017-05-22T14:19:43Z</time>
      </trkpt>
      <trkpt lat="51.867517987266183" lon="10.288552036508918">
        <ele>312.56999999999999</ele>
        <time>2017-05-22T14:19:45Z</time>
      </trkpt>
      <trkpt lat="51.868319967761636" lon="10.28817099519074">
        <ele>311.12</ele>
        <time>2017-05-22T14:19:56Z</time>
      </trkpt>
      <trkpt lat="51.868381993845105" lon="10.288122966885567">
        <ele>311.60000000000002</ele>
        <time>2017-05-22T14:19:57Z</time>
      </trkpt>
      <trkpt lat="51.868578968569636" lon="10.287910988554358">
        <ele>310.16000000000003</ele>
        <time>2017-05-22T14:20:01Z</time>
      </trkpt>
      <trkpt lat="51.868644012138247" lon="10.287862960249186">
        <ele>309.19999999999999</ele>
        <time>2017-05-22T14:20:02Z</time>
      </trkpt>
      <trkpt lat="51.869056988507509" lon="10.287319980561733">
        <ele>305.83999999999997</ele>
        <time>2017-05-22T14:20:10Z</time>
      </trkpt>
      <trkpt lat="51.869331998750567" lon="10.286754034459591">
        <ele>301.99000000000001</ele>
        <time>2017-05-22T14:20:19Z</time>
      </trkpt>
      <trkpt lat="51.869322024285793" lon="10.286680022254586">
        <ele>302.47000000000003</ele>
        <time>2017-05-22T14:20:20Z</time>
      </trkpt>
      <trkpt lat="51.869282964617014" lon="10.286588994786143">
        <ele>301.99000000000001</ele>
        <time>2017-05-22T14:20:21Z</time>
      </trkpt>
      <trkpt lat="51.869226973503828" lon="10.28649503365159">
        <ele>302.94999999999999</ele>
        <time>2017-05-22T14:20:22Z</time>
      </trkpt>
      <trkpt lat="51.868545021861792" lon="10.285754995420575">
        <ele>302.47000000000003</ele>
        <time>2017-05-22T14:20:30Z</time>
      </trkpt>
      <trkpt lat="51.867018006742001" lon="10.284643974155188">
        <ele>305.36000000000001</ele>
        <time>2017-05-22T14:20:46Z</time>
      </trkpt>
      <trkpt lat="51.865858035162091" lon="10.283832019194961">
        <ele>307.75999999999999</ele>
        <time>2017-05-22T14:20:55Z</time>
      </trkpt>
      <trkpt lat="51.864510979503393" lon="10.283114025369287">
        <ele>310.16000000000003</ele>
        <time>2017-05-22T14:21:04Z</time>
      </trkpt>
      <trkpt lat="51.864380976185203" lon="10.282970024272799">
        <ele>310.16000000000003</ele>
        <time>2017-05-22T14:21:05Z</time>
      </trkpt>
      <trkpt lat="51.864253990352154" lon="10.282770032063127">
        <ele>309.68000000000001</ele>
        <time>2017-05-22T14:21:06Z</time>
      </trkpt>
      <trkpt lat="51.863093012943864" lon="10.281341001391411">
        <ele>309.68000000000001</ele>
        <time>2017-05-22T14:21:14Z</time>
      </trkpt>
      <trkpt lat="51.861938992515206" lon="10.280561987310648">
        <ele>310.63999999999999</ele>
        <time>2017-05-22T14:21:21Z</time>
      </trkpt>
      <trkpt lat="51.861185962334275" lon="10.279841981828213">
        <ele>312.56999999999999</ele>
        <time>2017-05-22T14:21:27Z</time>
      </trkpt>
      <trkpt lat="51.860345005989075" lon="10.278423009440303">
        <ele>313.05000000000001</ele>
        <time>2017-05-22T14:21:34Z</time>
      </trkpt>
      <trkpt lat="51.859569009393454" lon="10.276674041524529">
        <ele>313.52999999999997</ele>
        <time>2017-05-22T14:21:40Z</time>
      </trkpt>
      <trkpt lat="51.859491979703307" lon="10.276324013248086">
        <ele>313.52999999999997</ele>
        <time>2017-05-22T14:21:41Z</time>
      </trkpt>
      <trkpt lat="51.859430037438869" lon="10.275952024385333">
        <ele>314.00999999999999</ele>
        <time>2017-05-22T14:21:42Z</time>
      </trkpt>
      <trkpt lat="51.859016977250576" lon="10.272957002744079">
        <ele>316.88999999999999</ele>
        <time>2017-05-22T14:21:50Z</time>
      </trkpt>
      <trkpt lat="51.858940031379461" lon="10.272690039128065">
        <ele>317.37</ele>
        <time>2017-05-22T14:21:51Z</time>
      </trkpt>
      <trkpt lat="51.858829976990819" lon="10.272456016391516">
        <ele>318.32999999999998</ele>
        <time>2017-05-22T14:21:52Z</time>
      </trkpt>
      <trkpt lat="51.85790897347033" lon="10.270723979920149">
        <ele>322.66000000000003</ele>
        <time>2017-05-22T14:21:59Z</time>
      </trkpt>
      <trkpt lat="51.85777897015214" lon="10.270556006580591">
        <ele>323.13999999999999</ele>
        <time>2017-05-22T14:22:00Z</time>
      </trkpt>
      <trkpt lat="51.857642009854317" lon="10.270451987162232">
        <ele>323.13999999999999</ele>
        <time>2017-05-22T14:22:01Z</time>
      </trkpt>
      <trkpt lat="51.857493985444307" lon="10.270380992442369">
        <ele>323.13999999999999</ele>
        <time>2017-05-22T14:22:02Z</time>
      </trkpt>
      <trkpt lat="51.857336992397904" lon="10.270375963300467">
        <ele>323.13999999999999</ele>
        <time>2017-05-22T14:22:03Z</time>
      </trkpt>
      <trkpt lat="51.85717798769474" lon="10.2704450301826">
        <ele>323.13999999999999</ele>
        <time>2017-05-22T14:22:04Z</time>
      </trkpt>
      <trkpt lat="51.857028035447001" lon="10.270575033500791">
        <ele>323.13999999999999</ele>
        <time>2017-05-22T14:22:05Z</time>
      </trkpt>
      <trkpt lat="51.856899037957191" lon="10.270758010447025">
        <ele>323.13999999999999</ele>
        <time>2017-05-22T14:22:06Z</time>
      </trkpt>
      <trkpt lat="51.856792001053691" lon="10.270989015698433">
        <ele>323.13999999999999</ele>
        <time>2017-05-22T14:22:07Z</time>
      </trkpt>
      <trkpt lat="51.856698961928487" lon="10.271277017891407">
        <ele>323.13999999999999</ele>
        <time>2017-05-22T14:22:08Z</time>
      </trkpt>
      <trkpt lat="51.856620004400611" lon="10.271591003984213">
        <ele>323.13999999999999</ele>
        <time>2017-05-22T14:22:09Z</time>
      </trkpt>
      <trkpt lat="51.856355974450707" lon="10.272495998069644">
        <ele>323.62</ele>
        <time>2017-05-22T14:22:12Z</time>
      </trkpt>
      <trkpt lat="51.856249021366239" lon="10.272725997492671">
        <ele>324.10000000000002</ele>
        <time>2017-05-22T14:22:13Z</time>
      </trkpt>
      <trkpt lat="51.856112983077765" lon="10.272910986095667">
        <ele>325.06</ele>
        <time>2017-05-22T14:22:14Z</time>
      </trkpt>
      <trkpt lat="51.855949033051729" lon="10.273054987192154">
        <ele>325.54000000000002</ele>
        <time>2017-05-22T14:22:15Z</time>
      </trkpt>
      <trkpt lat="51.855766978114843" lon="10.273164035752416">
        <ele>326.01999999999998</ele>
        <time>2017-05-22T14:22:16Z</time>
      </trkpt>
      <trkpt lat="51.855562962591648" lon="10.273259002715349">
        <ele>326.5</ele>
        <time>2017-05-22T14:22:17Z</time>
      </trkpt>
      <trkpt lat="51.855147974565625" lon="10.273510040715337">
        <ele>327.47000000000003</ele>
        <time>2017-05-22T14:22:19Z</time>
      </trkpt>
      <trkpt lat="51.853731013834476" lon="10.274663977324963">
        <ele>330.35000000000002</ele>
        <time>2017-05-22T14:22:26Z</time>
      </trkpt>
      <trkpt lat="51.852887962013483" lon="10.274935970082879">
        <ele>330.35000000000002</ele>
        <time>2017-05-22T14:22:30Z</time>
      </trkpt>
      <trkpt lat="51.852442966774106" lon="10.27482801117003">
        <ele>330.82999999999998</ele>
        <time>2017-05-22T14:22:32Z</time>
      </trkpt>
      <trkpt lat="51.852227970957756" lon="10.274706976488233">
        <ele>331.31</ele>
        <time>2017-05-22T14:22:33Z</time>
      </trkpt>
      <trkpt lat="51.85043198056519" lon="10.273225978016853">
        <ele>337.07999999999998</ele>
        <time>2017-05-22T14:22:42Z</time>
      </trkpt>
      <trkpt lat="51.850050017237663" lon="10.272849965840578">
        <ele>337.07999999999998</ele>
        <time>2017-05-22T14:22:44Z</time>
      </trkpt>
      <trkpt lat="51.849879026412964" lon="10.272608986124396">
        <ele>338.04000000000002</ele>
        <time>2017-05-22T14:22:45Z</time>
      </trkpt>
      <trkpt lat="51.849726978689432" lon="10.272326013073325">
        <ele>338.04000000000002</ele>
        <time>2017-05-22T14:22:46Z</time>
      </trkpt>
      <trkpt lat="51.849580965936184" lon="10.271999035030603">
        <ele>338.51999999999998</ele>
        <time>2017-05-22T14:22:47Z</time>
      </trkpt>
      <trkpt lat="51.849438976496458" lon="10.271665016189218">
        <ele>339</ele>
        <time>2017-05-22T14:22:48Z</time>
      </trkpt>
      <trkpt lat="51.848213039338589" lon="10.268703019246459">
        <ele>340.92000000000002</ele>
        <time>2017-05-22T14:22:57Z</time>
      </trkpt>
      <trkpt lat="51.848096027970314" lon="10.268429014831781">
        <ele>341.88999999999999</ele>
        <time>2017-05-22T14:22:58Z</time>
      </trkpt>
      <trkpt lat="51.847957978025079" lon="10.268208989873528">
        <ele>341.88999999999999</ele>
        <time>2017-05-22T14:22:59Z</time>
      </trkpt>
      <trkpt lat="51.847796961665154" lon="10.268048979341984">
        <ele>340.92000000000002</ele>
        <time>2017-05-22T14:23:00Z</time>
      </trkpt>
      <trkpt lat="51.84761599637568" lon="10.267927022650838">
        <ele>341.41000000000003</ele>
        <time>2017-05-22T14:23:01Z</time>
      </trkpt>
      <trkpt lat="51.847406029701233" lon="10.267829038202763">
        <ele>341.88999999999999</ele>
        <time>2017-05-22T14:23:02Z</time>
      </trkpt>
      <trkpt lat="51.846105996519327" lon="10.267263008281589">
        <ele>345.73000000000002</ele>
        <time>2017-05-22T14:23:08Z</time>
      </trkpt>
      <trkpt lat="51.845897035673261" lon="10.267260996624827">
        <ele>345.73000000000002</ele>
        <time>2017-05-22T14:23:09Z</time>
      </trkpt>
      <trkpt lat="51.84568002820015" lon="10.26730902493">
        <ele>346.20999999999998</ele>
        <time>2017-05-22T14:23:10Z</time>
      </trkpt>
      <trkpt lat="51.844310006126761" lon="10.26801997795701">
        <ele>347.17000000000002</ele>
        <time>2017-05-22T14:23:16Z</time>
      </trkpt>
      <trkpt lat="51.842945013195276" lon="10.268438989296556">
        <ele>348.62</ele>
        <time>2017-05-22T14:23:22Z</time>
      </trkpt>
      <trkpt lat="51.842725994065404" lon="10.268436977639794">
        <ele>348.62</ele>
        <time>2017-05-22T14:23:23Z</time>
      </trkpt>
      <trkpt lat="51.842504041269422" lon="10.268394984304905">
        <ele>348.62</ele>
        <time>2017-05-22T14:23:24Z</time>
      </trkpt>
      <trkpt lat="51.842282004654408" lon="10.268305968493223">
        <ele>349.10000000000002</ele>
        <time>2017-05-22T14:23:25Z</time>
      </trkpt>
      <trkpt lat="51.841486981138587" lon="10.267876982688904">
        <ele>351.5</ele>
        <time>2017-05-22T14:23:29Z</time>
      </trkpt>
      <trkpt lat="51.841330993920565" lon="10.267703980207443">
        <ele>351.98000000000002</ele>
        <time>2017-05-22T14:23:30Z</time>
      </trkpt>
      <trkpt lat="51.841196967288852" lon="10.267496025189757">
        <ele>352.45999999999998</ele>
        <time>2017-05-22T14:23:31Z</time>
      </trkpt>
      <trkpt lat="51.841091020032763" lon="10.267249010503292">
        <ele>352.94</ele>
        <time>2017-05-22T14:23:32Z</time>
      </trkpt>
      <trkpt lat="51.841018013656139" lon="10.266991015523672">
        <ele>352.94</ele>
        <time>2017-05-22T14:23:33Z</time>
      </trkpt>
      <trkpt lat="51.840983983129263" lon="10.266710976138711">
        <ele>352.94</ele>
        <time>2017-05-22T14:23:34Z</time>
      </trkpt>
      <trkpt lat="51.840970991179347" lon="10.2663420047611">
        <ele>351.01999999999998</ele>
        <time>2017-05-22T14:23:35Z</time>
      </trkpt>
      <trkpt lat="51.841005021706223" lon="10.266040004789829">
        <ele>351.01999999999998</ele>
        <time>2017-05-22T14:23:36Z</time>
      </trkpt>
      <trkpt lat="51.841057995334268" lon="10.265739010646939">
        <ele>351.5</ele>
        <time>2017-05-22T14:23:37Z</time>
      </trkpt>
      <trkpt lat="51.841106023639441" lon="10.265442039817572">
        <ele>351.5</ele>
        <time>2017-05-22T14:23:38Z</time>
      </trkpt>
      <trkpt lat="51.841138964518905" lon="10.26513903401792">
        <ele>351.98000000000002</ele>
        <time>2017-05-22T14:23:39Z</time>
      </trkpt>
      <trkpt lat="51.841152962297201" lon="10.264821024611592">
        <ele>351.98000000000002</ele>
        <time>2017-05-22T14:23:40Z</time>
      </trkpt>
      <trkpt lat="51.841137036681175" lon="10.264508966356516">
        <ele>351.98000000000002</ele>
        <time>2017-05-22T14:23:41Z</time>
      </trkpt>
      <trkpt lat="51.841080039739609" lon="10.264196991920471">
        <ele>351.98000000000002</ele>
        <time>2017-05-22T14:23:42Z</time>
      </trkpt>
      <trkpt lat="51.840981971472502" lon="10.263879988342524">
        <ele>351.98000000000002</ele>
        <time>2017-05-22T14:23:43Z</time>
      </trkpt>
      <trkpt lat="51.840850962325931" lon="10.263596009463072">
        <ele>353.42000000000002</ele>
        <time>2017-05-22T14:23:44Z</time>
      </trkpt>
      <trkpt lat="51.840700004249811" lon="10.263370033353567">
        <ele>353.89999999999998</ele>
        <time>2017-05-22T14:23:45Z</time>
      </trkpt>
      <trkpt lat="51.840522978454828" lon="10.263197030872107">
        <ele>354.38</ele>
        <time>2017-05-22T14:23:46Z</time>
      </trkpt>
      <trkpt lat="51.840332038700581" lon="10.26307700201869">
        <ele>354.86000000000001</ele>
        <time>2017-05-22T14:23:47Z</time>
      </trkpt>
      <trkpt lat="51.840117964893579" lon="10.262988992035389">
        <ele>355.33999999999997</ele>
        <time>2017-05-22T14:23:48Z</time>
      </trkpt>
      <trkpt lat="51.839894000440836" lon="10.262940041720867">
        <ele>355.82999999999998</ele>
        <time>2017-05-22T14:23:49Z</time>
      </trkpt>
      <trkpt lat="51.839660983532667" lon="10.262911962345243">
        <ele>356.31</ele>
        <time>2017-05-22T14:23:50Z</time>
      </trkpt>
      <trkpt lat="51.839186986908317" lon="10.262934006750584">
        <ele>357.26999999999998</ele>
        <time>2017-05-22T14:23:52Z</time>
      </trkpt>
      <trkpt lat="51.838949024677277" lon="10.262999972328544">
        <ele>358.23000000000002</ele>
        <time>2017-05-22T14:23:53Z</time>
      </trkpt>
      <trkpt lat="51.83872003108263" lon="10.263098040595651">
        <ele>358.70999999999998</ele>
        <time>2017-05-22T14:23:54Z</time>
      </trkpt>
      <trkpt lat="51.838492965325713" lon="10.263239024206996">
        <ele>359.19</ele>
        <time>2017-05-22T14:23:55Z</time>
      </trkpt>
      <trkpt lat="51.838274030014873" lon="10.263414960354567">
        <ele>359.67000000000002</ele>
        <time>2017-05-22T14:23:56Z</time>
      </trkpt>
      <trkpt lat="51.838055010885" lon="10.263630039989948">
        <ele>360.14999999999998</ele>
        <time>2017-05-22T14:23:57Z</time>
      </trkpt>
      <trkpt lat="51.83784001506865" lon="10.263877976685762">
        <ele>360.63</ele>
        <time>2017-05-22T14:23:58Z</time>
      </trkpt>
      <trkpt lat="51.835899017751217" lon="10.266031036153436">
        <ele>363.04000000000002</ele>
        <time>2017-05-22T14:24:07Z</time>
      </trkpt>
      <trkpt lat="51.835356038063765" lon="10.266608968377113">
        <ele>362.55000000000001</ele>
        <time>2017-05-22T14:24:10Z</time>
      </trkpt>
      <trkpt lat="51.835226034745574" lon="10.266866963356733">
        <ele>363.04000000000002</ele>
        <time>2017-05-22T14:24:11Z</time>
      </trkpt>
      <trkpt lat="51.835126960650086" lon="10.267155971378088">
        <ele>362.55000000000001</ele>
        <time>2017-05-22T14:24:12Z</time>
      </trkpt>
      <trkpt lat="51.835059989243746" lon="10.267450008541346">
        <ele>363.04000000000002</ele>
        <time>2017-05-22T14:24:13Z</time>
      </trkpt>
      <trkpt lat="51.835031993687153" lon="10.267775980755687">
        <ele>363.51999999999998</ele>
        <time>2017-05-22T14:24:14Z</time>
      </trkpt>
      <trkpt lat="51.835023025050759" lon="10.268129026517272">
        <ele>364</ele>
        <time>2017-05-22T14:24:15Z</time>
      </trkpt>
      <trkpt lat="51.835019001737237" lon="10.268505038693547">
        <ele>364.95999999999998</ele>
        <time>2017-05-22T14:24:16Z</time>
      </trkpt>
      <trkpt lat="51.834952030330896" lon="10.269282041117549">
        <ele>365.92000000000002</ele>
        <time>2017-05-22T14:24:18Z</time>
      </trkpt>
      <trkpt lat="51.834888998419046" lon="10.269668027758598">
        <ele>366.39999999999998</ele>
        <time>2017-05-22T14:24:19Z</time>
      </trkpt>
      <trkpt lat="51.834699986502528" lon="10.270695984363556">
        <ele>367.36000000000001</ele>
        <time>2017-05-22T14:24:22Z</time>
      </trkpt>
      <trkpt lat="51.834676014259458" lon="10.271036960184574">
        <ele>367.36000000000001</ele>
        <time>2017-05-22T14:24:23Z</time>
      </trkpt>
      <trkpt lat="51.834691017866135" lon="10.271381037309766">
        <ele>367.36000000000001</ele>
        <time>2017-05-22T14:24:24Z</time>
      </trkpt>
      <trkpt lat="51.834738040342927" lon="10.271703992038965">
        <ele>367.83999999999997</ele>
        <time>2017-05-22T14:24:25Z</time>
      </trkpt>
      <trkpt lat="51.834814986214042" lon="10.272018983960152">
        <ele>367.83999999999997</ele>
        <time>2017-05-22T14:24:26Z</time>
      </trkpt>
      <trkpt lat="51.834908025339246" lon="10.272329030558467">
        <ele>367.83999999999997</ele>
        <time>2017-05-22T14:24:27Z</time>
      </trkpt>
      <trkpt lat="51.835049008950591" lon="10.272937975823879">
        <ele>368.80000000000001</ele>
        <time>2017-05-22T14:24:29Z</time>
      </trkpt>
      <trkpt lat="51.835071975365281" lon="10.273232012987137">
        <ele>368.80000000000001</ele>
        <time>2017-05-22T14:24:30Z</time>
      </trkpt>
      <trkpt lat="51.835051020607352" lon="10.273506017401814">
        <ele>369.27999999999997</ele>
        <time>2017-05-22T14:24:31Z</time>
      </trkpt>
      <trkpt lat="51.835000980645418" lon="10.273770969361067">
        <ele>369.75999999999999</ele>
        <time>2017-05-22T14:24:32Z</time>
      </trkpt>
      <trkpt lat="51.834910036996007" lon="10.274017984047532">
        <ele>370.24000000000001</ele>
        <time>2017-05-22T14:24:33Z</time>
      </trkpt>
      <trkpt lat="51.83478900231421" lon="10.274252006784081">
        <ele>370.73000000000002</ele>
        <time>2017-05-22T14:24:34Z</time>
      </trkpt>
      <trkpt lat="51.834649024531245" lon="10.274458033964038">
        <ele>371.69</ele>
        <time>2017-05-22T14:24:35Z</time>
      </trkpt>
      <trkpt lat="51.834499994292855" lon="10.274622989818454">
        <ele>372.17000000000002</ele>
        <time>2017-05-22T14:24:36Z</time>
      </trkpt>
      <trkpt lat="51.834343001246452" lon="10.274745030328631">
        <ele>372.64999999999998</ele>
        <time>2017-05-22T14:24:37Z</time>
      </trkpt>
      <trkpt lat="51.834162035956979" lon="10.274801021441817">
        <ele>374.56999999999999</ele>
        <time>2017-05-22T14:24:38Z</time>
      </trkpt>
      <trkpt lat="51.833987021818757" lon="10.274802027270198">
        <ele>375.05000000000001</ele>
        <time>2017-05-22T14:24:39Z</time>
      </trkpt>
      <trkpt lat="51.833813013508916" lon="10.274756010621786">
        <ele>376.00999999999999</ele>
        <time>2017-05-22T14:24:40Z</time>
      </trkpt>
      <trkpt lat="51.833647973835468" lon="10.27465702034533">
        <ele>376.00999999999999</ele>
        <time>2017-05-22T14:24:41Z</time>
      </trkpt>
      <trkpt lat="51.833488969132304" lon="10.274502960965037">
        <ele>376.49000000000001</ele>
        <time>2017-05-22T14:24:42Z</time>
      </trkpt>
      <trkpt lat="51.83332996442914" lon="10.274296011775732">
        <ele>377.44999999999999</ele>
        <time>2017-05-22T14:24:43Z</time>
      </trkpt>
      <trkpt lat="51.833174983039498" lon="10.274058971554041">
        <ele>377.94</ele>
        <time>2017-05-22T14:24:44Z</time>
      </trkpt>
      <trkpt lat="51.832092963159084" lon="10.272115962579846">
        <ele>384.66000000000003</ele>
        <time>2017-05-22T14:24:51Z</time>
      </trkpt>
      <trkpt lat="51.831769002601504" lon="10.27166903950274">
        <ele>385.14999999999998</ele>
        <time>2017-05-22T14:24:53Z</time>
      </trkpt>
      <trkpt lat="51.831603040918708" lon="10.271534007042646">
        <ele>384.18000000000001</ele>
        <time>2017-05-22T14:24:54Z</time>
      </trkpt>
      <trkpt lat="51.831432972103357" lon="10.271471980959177">
        <ele>383.69999999999999</ele>
        <time>2017-05-22T14:24:55Z</time>
      </trkpt>
      <trkpt lat="51.831247983500361" lon="10.271440967917442">
        <ele>383.69999999999999</ele>
        <time>2017-05-22T14:24:56Z</time>
      </trkpt>
      <trkpt lat="51.831053020432591" lon="10.271435016766191">
        <ele>384.18000000000001</ele>
        <time>2017-05-22T14:24:57Z</time>
      </trkpt>
      <trkpt lat="51.830842969939113" lon="10.271467035636306">
        <ele>385.14999999999998</ele>
        <time>2017-05-22T14:24:58Z</time>
      </trkpt>
      <trkpt lat="51.830645995214581" lon="10.271510034799576">
        <ele>385.63</ele>
        <time>2017-05-22T14:24:59Z</time>
      </trkpt>
      <trkpt lat="51.830455977469683" lon="10.271578012034297">
        <ele>386.11000000000001</ele>
        <time>2017-05-22T14:25:00Z</time>
      </trkpt>
      <trkpt lat="51.829605968669057" lon="10.271910019218922">
        <ele>385.14999999999998</ele>
        <time>2017-05-22T14:25:06Z</time>
      </trkpt>
      <trkpt lat="51.82870801538229" lon="10.272706970572472">
        <ele>387.06999999999999</ele>
        <time>2017-05-22T14:25:14Z</time>
      </trkpt>
      <trkpt lat="51.827902011573315" lon="10.273656975477934">
        <ele>383.69999999999999</ele>
        <time>2017-05-22T14:25:21Z</time>
      </trkpt>
      <trkpt lat="51.827810984104872" lon="10.273810029029846">
        <ele>383.69999999999999</ele>
        <time>2017-05-22T14:25:22Z</time>
      </trkpt>
      <trkpt lat="51.827735966071486" lon="10.273979008197784">
        <ele>383.69999999999999</ele>
        <time>2017-05-22T14:25:23Z</time>
      </trkpt>
      <trkpt lat="51.827677041292191" lon="10.2741629909724">
        <ele>383.69999999999999</ele>
        <time>2017-05-22T14:25:24Z</time>
      </trkpt>
      <trkpt lat="51.827631024643779" lon="10.274350997060537">
        <ele>384.18000000000001</ele>
        <time>2017-05-22T14:25:25Z</time>
      </trkpt>
      <trkpt lat="51.827603029087186" lon="10.274535985663533">
        <ele>384.18000000000001</ele>
        <time>2017-05-22T14:25:26Z</time>
      </trkpt>
      <trkpt lat="51.827591964974999" lon="10.27472198009491">
        <ele>384.18000000000001</ele>
        <time>2017-05-22T14:25:27Z</time>
      </trkpt>
      <trkpt lat="51.827596994116902" lon="10.27489498257637">
        <ele>384.18000000000001</ele>
        <time>2017-05-22T14:25:28Z</time>
      </trkpt>
      <trkpt lat="51.827611997723579" lon="10.275059016421437">
        <ele>384.18000000000001</ele>
        <time>2017-05-22T14:25:29Z</time>
      </trkpt>
      <trkpt lat="51.827633958309889" lon="10.275224978104234">
        <ele>384.18000000000001</ele>
        <time>2017-05-22T14:25:30Z</time>
      </trkpt>
      <trkpt lat="51.828013993799686" lon="10.277765030041337">
        <ele>377.94</ele>
        <time>2017-05-22T14:25:43Z</time>
      </trkpt>
      <trkpt lat="51.828185990452766" lon="10.279525984078646">
        <ele>377.44999999999999</ele>
        <time>2017-05-22T14:25:52Z</time>
      </trkpt>
      <trkpt lat="51.828382965177298" lon="10.281547028571367">
        <ele>377.44999999999999</ele>
        <time>2017-05-22T14:26:04Z</time>
      </trkpt>
      <trkpt lat="51.828375002369285" lon="10.281846011057496">
        <ele>377.44999999999999</ele>
        <time>2017-05-22T14:26:06Z</time>
      </trkpt>
      <trkpt lat="51.828358992934227" lon="10.281977020204067">
        <ele>377.94</ele>
        <time>2017-05-22T14:26:07Z</time>
      </trkpt>
      <trkpt lat="51.828341977670789" lon="10.282108029350638">
        <ele>377.44999999999999</ele>
        <time>2017-05-22T14:26:08Z</time>
      </trkpt>
      <trkpt lat="51.828209962695837" lon="10.28258403763175">
        <ele>378.42000000000002</ele>
        <time>2017-05-22T14:26:12Z</time>
      </trkpt>
      <trkpt lat="51.828160006552935" lon="10.282700965180993">
        <ele>378.42000000000002</ele>
        <time>2017-05-22T14:26:13Z</time>
      </trkpt>
      <trkpt lat="51.827859012410045" lon="10.283250985667109">
        <ele>380.33999999999997</ele>
        <time>2017-05-22T14:26:18Z</time>
      </trkpt>
      <trkpt lat="51.82778500020504" lon="10.28333798982203">
        <ele>380.81999999999999</ele>
        <time>2017-05-22T14:26:19Z</time>
      </trkpt>
      <trkpt lat="51.827705958858132" lon="10.283414013683796">
        <ele>380.81999999999999</ele>
        <time>2017-05-22T14:26:20Z</time>
      </trkpt>
      <trkpt lat="51.827532034367323" lon="10.283543011173606">
        <ele>381.30000000000001</ele>
        <time>2017-05-22T14:26:22Z</time>
      </trkpt>
      <trkpt lat="51.82744100689888" lon="10.283596990630031">
        <ele>381.30000000000001</ele>
        <time>2017-05-22T14:26:23Z</time>
      </trkpt>
      <trkpt lat="51.827354002743959" lon="10.283636972308159">
        <ele>381.30000000000001</ele>
        <time>2017-05-22T14:26:24Z</time>
      </trkpt>
      <trkpt lat="51.826288998126984" lon="10.283820033073425">
        <ele>385.14999999999998</ele>
        <time>2017-05-22T14:26:36Z</time>
      </trkpt>
      <trkpt lat="51.826113983988762" lon="10.283789020031691">
        <ele>385.63</ele>
        <time>2017-05-22T14:26:38Z</time>
      </trkpt>
      <trkpt lat="51.825417028740048" lon="10.283542005345225">
        <ele>391.38999999999999</ele>
        <time>2017-05-22T14:26:46Z</time>
      </trkpt>
      <trkpt lat="51.82533698156476" lon="10.283490959554911">
        <ele>391.87</ele>
        <time>2017-05-22T14:26:47Z</time>
      </trkpt>
      <trkpt lat="51.824412038549781" lon="10.282432995736599">
        <ele>397.63999999999999</ele>
        <time>2017-05-22T14:26:58Z</time>
      </trkpt>
      <trkpt lat="51.82434800080955" lon="10.282320007681847">
        <ele>397.63999999999999</ele>
        <time>2017-05-22T14:26:59Z</time>
      </trkpt>
      <trkpt lat="51.824285974726081" lon="10.282192016020417">
        <ele>398.12</ele>
        <time>2017-05-22T14:27:00Z</time>
      </trkpt>
      <trkpt lat="51.824228977784514" lon="10.282053966075182">
        <ele>398.60000000000002</ele>
        <time>2017-05-22T14:27:01Z</time>
      </trkpt>
      <trkpt lat="51.824184972792864" lon="10.281900996342301">
        <ele>399.07999999999998</ele>
        <time>2017-05-22T14:27:02Z</time>
      </trkpt>
      <trkpt lat="51.824139039963484" lon="10.281750960275531">
        <ele>400.05000000000001</ele>
        <time>2017-05-22T14:27:03Z</time>
      </trkpt>
      <trkpt lat="51.823888001963496" lon="10.280526028946042">
        <ele>401.00999999999999</ele>
        <time>2017-05-22T14:27:10Z</time>
      </trkpt>
      <trkpt lat="51.823645010590553" lon="10.278215976431966">
        <ele>402.93000000000001</ele>
        <time>2017-05-22T14:27:21Z</time>
      </trkpt>
      <trkpt lat="51.82325198315084" lon="10.275042001157999">
        <ele>404.37</ele>
        <time>2017-05-22T14:27:36Z</time>
      </trkpt>
      <trkpt lat="51.823142012581229" lon="10.273264031857252">
        <ele>405.81</ele>
        <time>2017-05-22T14:27:43Z</time>
      </trkpt>
      <trkpt lat="51.823089960962534" lon="10.2730249799788">
        <ele>406.29000000000002</ele>
        <time>2017-05-22T14:27:44Z</time>
      </trkpt>
      <trkpt lat="51.823013015091419" lon="10.272823981940746">
        <ele>407.25999999999999</ele>
        <time>2017-05-22T14:27:45Z</time>
      </trkpt>
      <trkpt lat="51.82293196208775" lon="10.272649973630905">
        <ele>407.25999999999999</ele>
        <time>2017-05-22T14:27:46Z</time>
      </trkpt>
      <trkpt lat="51.822848981246352" lon="10.272506978362799">
        <ele>405.32999999999998</ele>
        <time>2017-05-22T14:27:47Z</time>
      </trkpt>
      <trkpt lat="51.82275703176856" lon="10.272369012236595">
        <ele>405.32999999999998</ele>
        <time>2017-05-22T14:27:48Z</time>
      </trkpt>
      <trkpt lat="51.822657035663724" lon="10.272246971726418">
        <ele>404.85000000000002</ele>
        <time>2017-05-22T14:27:49Z</time>
      </trkpt>
      <trkpt lat="51.822543041780591" lon="10.272139012813568">
        <ele>404.37</ele>
        <time>2017-05-22T14:27:50Z</time>
      </trkpt>
      <trkpt lat="51.822419995442033" lon="10.27203700505197">
        <ele>405.32999999999998</ele>
        <time>2017-05-22T14:27:51Z</time>
      </trkpt>
      <trkpt lat="51.822297032922506" lon="10.271946983411908">
        <ele>405.32999999999998</ele>
        <time>2017-05-22T14:27:52Z</time>
      </trkpt>
      <trkpt lat="51.821397989988327" lon="10.271353963762522">
        <ele>407.74000000000001</ele>
        <time>2017-05-22T14:27:59Z</time>
      </trkpt>
      <trkpt lat="51.821256000548601" lon="10.271341977640986">
        <ele>407.74000000000001</ele>
        <time>2017-05-22T14:28:00Z</time>
      </trkpt>
      <trkpt lat="51.821114011108875" lon="10.271377013996243">
        <ele>408.69999999999999</ele>
        <time>2017-05-22T14:28:01Z</time>
      </trkpt>
      <trkpt lat="51.820969004184008" lon="10.271462006494403">
        <ele>409.18000000000001</ele>
        <time>2017-05-22T14:28:02Z</time>
      </trkpt>
      <trkpt lat="51.820827014744282" lon="10.271595027297735">
        <ele>409.18000000000001</ele>
        <time>2017-05-22T14:28:03Z</time>
      </trkpt>
      <trkpt lat="51.820687036961317" lon="10.271763000637293">
        <ele>409.66000000000003</ele>
        <time>2017-05-22T14:28:04Z</time>
      </trkpt>
      <trkpt lat="51.820553010329604" lon="10.271938014775515">
        <ele>410.13999999999999</ele>
        <time>2017-05-22T14:28:05Z</time>
      </trkpt>
      <trkpt lat="51.820059986785054" lon="10.272652991116047">
        <ele>410.62</ele>
        <time>2017-05-22T14:28:09Z</time>
      </trkpt>
      <trkpt lat="51.819997960701585" lon="10.272876033559442">
        <ele>410.62</ele>
        <time>2017-05-22T14:28:10Z</time>
      </trkpt>
      <trkpt lat="51.819971976801753" lon="10.273109972476959">
        <ele>410.13999999999999</ele>
        <time>2017-05-22T14:28:11Z</time>
      </trkpt>
      <trkpt lat="51.819973988458514" lon="10.273352041840553">
        <ele>410.13999999999999</ele>
        <time>2017-05-22T14:28:12Z</time>
      </trkpt>
      <trkpt lat="51.820014975965023" lon="10.273590004071593">
        <ele>410.13999999999999</ele>
        <time>2017-05-22T14:28:13Z</time>
      </trkpt>
      <trkpt lat="51.820081025362015" lon="10.273834001272917">
        <ele>410.62</ele>
        <time>2017-05-22T14:28:14Z</time>
      </trkpt>
      <trkpt lat="51.82015897706151" lon="10.274089984595776">
        <ele>411.10000000000002</ele>
        <time>2017-05-22T14:28:15Z</time>
      </trkpt>
      <trkpt lat="51.820288980379701" lon="10.274602035060525">
        <ele>411.10000000000002</ele>
        <time>2017-05-22T14:28:17Z</time>
      </trkpt>
      <trkpt lat="51.820320999249816" lon="10.274865981191397">
        <ele>411.57999999999998</ele>
        <time>2017-05-22T14:28:18Z</time>
      </trkpt>
      <trkpt lat="51.820320999249816" lon="10.275120958685875">
        <ele>411.57999999999998</ele>
        <time>2017-05-22T14:28:19Z</time>
      </trkpt>
      <trkpt lat="51.820281017571688" lon="10.275360010564327">
        <ele>412.54000000000002</ele>
        <time>2017-05-22T14:28:20Z</time>
      </trkpt>
      <trkpt lat="51.820195019245148" lon="10.27558003552258">
        <ele>413.01999999999998</ele>
        <time>2017-05-22T14:28:21Z</time>
      </trkpt>
      <trkpt lat="51.82007197290659" lon="10.275777010247111">
        <ele>413.5</ele>
        <time>2017-05-22T14:28:22Z</time>
      </trkpt>
      <trkpt lat="51.819928977638483" lon="10.275961998850107">
        <ele>413.98000000000002</ele>
        <time>2017-05-22T14:28:23Z</time>
      </trkpt>
      <trkpt lat="51.819768967106938" lon="10.276131983846426">
        <ele>414.47000000000003</ele>
        <time>2017-05-22T14:28:24Z</time>
      </trkpt>
      <trkpt lat="51.818619975820184" lon="10.277123982086778">
        <ele>417.82999999999998</ele>
        <time>2017-05-22T14:28:30Z</time>
      </trkpt>
      <trkpt lat="51.818388970568776" lon="10.277204029262066">
        <ele>418.31</ele>
        <time>2017-05-22T14:28:31Z</time>
      </trkpt>
      <trkpt lat="51.81813701055944" lon="10.277254991233349">
        <ele>420.23000000000002</ele>
        <time>2017-05-22T14:28:32Z</time>
      </trkpt>
      <trkpt lat="51.817896030843258" lon="10.277243005111814">
        <ele>421.19</ele>
        <time>2017-05-22T14:28:33Z</time>
      </trkpt>
      <trkpt lat="51.81766401976347" lon="10.277195982635021">
        <ele>422.16000000000003</ele>
        <time>2017-05-22T14:28:34Z</time>
      </trkpt>
      <trkpt lat="51.817451035603881" lon="10.277129011228681">
        <ele>423.12</ele>
        <time>2017-05-22T14:28:35Z</time>
      </trkpt>
      <trkpt lat="51.817069994285703" lon="10.277019962668419">
        <ele>424.56</ele>
        <time>2017-05-22T14:28:37Z</time>
      </trkpt>
      <trkpt lat="51.816920964047313" lon="10.277039995416999">
        <ele>425.51999999999998</ele>
        <time>2017-05-22T14:28:38Z</time>
      </trkpt>
      <trkpt lat="51.816793978214264" lon="10.277108978480101">
        <ele>426</ele>
        <time>2017-05-22T14:28:39Z</time>
      </trkpt>
      <trkpt lat="51.816696999594569" lon="10.277250967919827">
        <ele>426.48000000000002</ele>
        <time>2017-05-22T14:28:40Z</time>
      </trkpt>
      <trkpt lat="51.816629022359848" lon="10.277427993714809">
        <ele>426.95999999999998</ele>
        <time>2017-05-22T14:28:41Z</time>
      </trkpt>
      <trkpt lat="51.816599015146494" lon="10.277639972046018">
        <ele>427.92000000000002</ele>
        <time>2017-05-22T14:28:42Z</time>
      </trkpt>
      <trkpt lat="51.816607983782887" lon="10.277877012267709">
        <ele>427.44</ele>
        <time>2017-05-22T14:28:43Z</time>
      </trkpt>
      <trkpt lat="51.816645031794906" lon="10.278111035004258">
        <ele>427.92000000000002</ele>
        <time>2017-05-22T14:28:44Z</time>
      </trkpt>
      <trkpt lat="51.816696999594569" lon="10.27835302054882">
        <ele>427.92000000000002</ele>
        <time>2017-05-22T14:28:45Z</time>
      </trkpt>
      <trkpt lat="51.816729018464684" lon="10.278613027185202">
        <ele>428.39999999999998</ele>
        <time>2017-05-22T14:28:46Z</time>
      </trkpt>
      <trkpt lat="51.816731030121446" lon="10.278886025771499">
        <ele>428.88999999999999</ele>
        <time>2017-05-22T14:28:47Z</time>
      </trkpt>
      <trkpt lat="51.81669901125133" lon="10.279156006872654">
        <ele>429.37</ele>
        <time>2017-05-22T14:28:48Z</time>
      </trkpt>
      <trkpt lat="51.81663597933948" lon="10.279424982145429">
        <ele>429.37</ele>
        <time>2017-05-22T14:28:49Z</time>
      </trkpt>
      <trkpt lat="51.816547969356179" lon="10.279698986560106">
        <ele>429.85000000000002</ele>
        <time>2017-05-22T14:28:50Z</time>
      </trkpt>
      <trkpt lat="51.816443027928472" lon="10.27996402233839">
        <ele>429.85000000000002</ele>
        <time>2017-05-22T14:28:51Z</time>
      </trkpt>
      <trkpt lat="51.816322999075055" lon="10.280226962640882">
        <ele>430.32999999999998</ele>
        <time>2017-05-22T14:28:52Z</time>
      </trkpt>
      <trkpt lat="51.815208960324526" lon="10.282288994640112">
        <ele>431.76999999999998</ele>
        <time>2017-05-22T14:29:00Z</time>
      </trkpt>
      <trkpt lat="51.814964041113853" lon="10.282686967402697">
        <ele>431.76999999999998</ele>
        <time>2017-05-22T14:29:02Z</time>
      </trkpt>
      <trkpt lat="51.814820962026715" lon="10.282857958227396">
        <ele>431.76999999999998</ele>
        <time>2017-05-22T14:29:03Z</time>
      </trkpt>
      <trkpt lat="51.814660029485822" lon="10.283004976809025">
        <ele>432.25</ele>
        <time>2017-05-22T14:29:04Z</time>
      </trkpt>
      <trkpt lat="51.814486021175981" lon="10.283150989562273">
        <ele>433.69</ele>
        <time>2017-05-22T14:29:05Z</time>
      </trkpt>
      <trkpt lat="51.814312012866139" lon="10.283257020637393">
        <ele>434.17000000000002</ele>
        <time>2017-05-22T14:29:06Z</time>
      </trkpt>
      <trkpt lat="51.814148984849453" lon="10.283345030620694">
        <ele>434.64999999999998</ele>
        <time>2017-05-22T14:29:07Z</time>
      </trkpt>
      <trkpt lat="51.81399199180305" lon="10.283378977328539">
        <ele>436.10000000000002</ele>
        <time>2017-05-22T14:29:08Z</time>
      </trkpt>
      <trkpt lat="51.813847990706563" lon="10.283346958458424">
        <ele>436.57999999999998</ele>
        <time>2017-05-22T14:29:09Z</time>
      </trkpt>
      <trkpt lat="51.813721004873514" lon="10.283252997323871">
        <ele>436.57999999999998</ele>
        <time>2017-05-22T14:29:10Z</time>
      </trkpt>
      <trkpt lat="51.813596030697227" lon="10.283125005662441">
        <ele>437.06</ele>
        <time>2017-05-22T14:29:11Z</time>
      </trkpt>
      <trkpt lat="51.813467033207417" lon="10.282978992909193">
        <ele>438.01999999999998</ele>
        <time>2017-05-22T14:29:12Z</time>
      </trkpt>
      <trkpt lat="51.812388030812144" lon="10.281805023550987">
        <ele>436.10000000000002</ele>
        <time>2017-05-22T14:29:19Z</time>
      </trkpt>
      <trkpt lat="51.812202958390117" lon="10.28157401829958">
        <ele>435.61000000000001</ele>
        <time>2017-05-22T14:29:21Z</time>
      </trkpt>
      <trkpt lat="51.812158031389117" lon="10.28148801997304">
        <ele>435.61000000000001</ele>
        <time>2017-05-22T14:29:22Z</time>
      </trkpt>
      <trkpt lat="51.81214202195406" lon="10.281408978626132">
        <ele>434.64999999999998</ele>
        <time>2017-05-22T14:29:23Z</time>
      </trkpt>
      <trkpt lat="51.812146967276931" lon="10.281333038583398">
        <ele>433.69</ele>
        <time>2017-05-22T14:29:24Z</time>
      </trkpt>
      <trkpt lat="51.81218502111733" lon="10.281266989186406">
        <ele>433.69</ele>
        <time>2017-05-22T14:29:25Z</time>
      </trkpt>
      <trkpt lat="51.812261966988444" lon="10.281218038871884">
        <ele>434.17000000000002</ele>
        <time>2017-05-22T14:29:26Z</time>
      </trkpt>
      <trkpt lat="51.812354000285268" lon="10.281160036101937">
        <ele>434.64999999999998</ele>
        <time>2017-05-22T14:29:27Z</time>
      </trkpt>
      <trkpt lat="51.812462965026498" lon="10.281066996976733">
        <ele>433.69</ele>
        <time>2017-05-22T14:29:28Z</time>
      </trkpt>
      <trkpt lat="51.812566984444857" lon="10.280941016972065">
        <ele>432.73000000000002</ele>
        <time>2017-05-22T14:29:29Z</time>
      </trkpt>
      <trkpt lat="51.812669998034835" lon="10.280771031975746">
        <ele>432.25</ele>
        <time>2017-05-22T14:29:30Z</time>
      </trkpt>
      <trkpt lat="51.812768988311291" lon="10.280571039766073">
        <ele>432.25</ele>
        <time>2017-05-22T14:29:31Z</time>
      </trkpt>
      <trkpt lat="51.812869990244508" lon="10.28035101480782">
        <ele>432.73000000000002</ele>
        <time>2017-05-22T14:29:32Z</time>
      </trkpt>
      <trkpt lat="51.813641963526607" lon="10.278531974181533">
        <ele>437.54000000000002</ele>
        <time>2017-05-22T14:29:39Z</time>
      </trkpt>
      <trkpt lat="51.813706001266837" lon="10.278273979201913">
        <ele>438.01999999999998</ele>
        <time>2017-05-22T14:29:40Z</time>
      </trkpt>
      <trkpt lat="51.813731985166669" lon="10.278011038899422">
        <ele>438.5</ele>
        <time>2017-05-22T14:29:41Z</time>
      </trkpt>
      <trkpt lat="51.81371396407485" lon="10.277755977585912">
        <ele>439.45999999999998</ele>
        <time>2017-05-22T14:29:42Z</time>
      </trkpt>
      <trkpt lat="51.813659984618425" lon="10.277510974556208">
        <ele>440.42000000000002</ele>
        <time>2017-05-22T14:29:43Z</time>
      </trkpt>
      <trkpt lat="51.813577003777027" lon="10.277282986789942">
        <ele>442.33999999999997</ele>
        <time>2017-05-22T14:29:44Z</time>
      </trkpt>
      <trkpt lat="51.813462004065514" lon="10.277089029550552">
        <ele>442.33999999999997</ele>
        <time>2017-05-22T14:29:45Z</time>
      </trkpt>
      <trkpt lat="51.813323032110929" lon="10.276928013190627">
        <ele>443.31</ele>
        <time>2017-05-22T14:29:46Z</time>
      </trkpt>
      <trkpt lat="51.813162015751004" lon="10.276832040399313">
        <ele>444.75</ele>
        <time>2017-05-22T14:29:47Z</time>
      </trkpt>
      <trkpt lat="51.812977027148008" lon="10.276754004880786">
        <ele>445.70999999999998</ele>
        <time>2017-05-22T14:29:48Z</time>
      </trkpt>
      <trkpt lat="51.811845973134041" lon="10.276338011026382">
        <ele>450.51999999999998</ele>
        <time>2017-05-22T14:29:53Z</time>
      </trkpt>
      <trkpt lat="51.810020981356502" lon="10.27545397169888">
        <ele>465.42000000000002</ele>
        <time>2017-05-22T14:30:01Z</time>
      </trkpt>
      <trkpt lat="51.809858959168196" lon="10.275306031107903">
        <ele>467.33999999999997</ele>
        <time>2017-05-22T14:30:02Z</time>
      </trkpt>
      <trkpt lat="51.809723004698753" lon="10.275096986442804">
        <ele>467.33999999999997</ele>
        <time>2017-05-22T14:30:03Z</time>
      </trkpt>
      <trkpt lat="51.809601970016956" lon="10.274857012555003">
        <ele>468.77999999999997</ele>
        <time>2017-05-22T14:30:04Z</time>
      </trkpt>
      <trkpt lat="51.809507003054023" lon="10.274573033675551">
        <ele>470.22000000000003</ele>
        <time>2017-05-22T14:30:05Z</time>
      </trkpt>
      <trkpt lat="51.809431985020638" lon="10.274253012612462">
        <ele>470.22000000000003</ele>
        <time>2017-05-22T14:30:06Z</time>
      </trkpt>
      <trkpt lat="51.809366019442677" lon="10.273895021528006">
        <ele>471.66000000000003</ele>
        <time>2017-05-22T14:30:07Z</time>
      </trkpt>
      <trkpt lat="51.809151023626328" lon="10.272470014169812">
        <ele>476.47000000000003</ele>
        <time>2017-05-22T14:30:11Z</time>
      </trkpt>
      <trkpt lat="51.809147000312805" lon="10.272148987278342">
        <ele>477.43000000000001</ele>
        <time>2017-05-22T14:30:12Z</time>
      </trkpt>
      <trkpt lat="51.809122022241354" lon="10.271861990913749">
        <ele>479.83999999999997</ele>
        <time>2017-05-22T14:30:13Z</time>
      </trkpt>
      <trkpt lat="51.809104001149535" lon="10.271594021469355">
        <ele>481.75999999999999</ele>
        <time>2017-05-22T14:30:14Z</time>
      </trkpt>
      <trkpt lat="51.809052033349872" lon="10.271353041753173">
        <ele>482.72000000000003</ele>
        <time>2017-05-22T14:30:15Z</time>
      </trkpt>
      <trkpt lat="51.808951031416655" lon="10.271109966561198">
        <ele>483.19999999999999</ele>
        <time>2017-05-22T14:30:16Z</time>
      </trkpt>
      <trkpt lat="51.808822033926845" lon="10.270937969908118">
        <ele>484.63999999999999</ele>
        <time>2017-05-22T14:30:17Z</time>
      </trkpt>
      <trkpt lat="51.808660011738539" lon="10.270760022103786">
        <ele>485.60000000000002</ele>
        <time>2017-05-22T14:30:18Z</time>
      </trkpt>
      <trkpt lat="51.808506036177278" lon="10.270570004358888">
        <ele>486.56</ele>
        <time>2017-05-22T14:30:19Z</time>
      </trkpt>
      <trkpt lat="51.808367986232042" lon="10.270345034077764">
        <ele>487.52999999999997</ele>
        <time>2017-05-22T14:30:20Z</time>
      </trkpt>
      <trkpt lat="51.808259021490812" lon="10.270099025219679">
        <ele>488.49000000000001</ele>
        <time>2017-05-22T14:30:21Z</time>
      </trkpt>
      <trkpt lat="51.808180985972285" lon="10.269858967512846">
        <ele>492.81</ele>
        <time>2017-05-22T14:30:22Z</time>
      </trkpt>
      <trkpt lat="51.808110997080803" lon="10.269618993625045">
        <ele>495.22000000000003</ele>
        <time>2017-05-22T14:30:23Z</time>
      </trkpt>
      <trkpt lat="51.808056011795998" lon="10.269368039444089">
        <ele>497.13999999999999</ele>
        <time>2017-05-22T14:30:24Z</time>
      </trkpt>
      <trkpt lat="51.807973030954599" lon="10.268875015899539">
        <ele>496.66000000000003</ele>
        <time>2017-05-22T14:30:26Z</time>
      </trkpt>
      <trkpt lat="51.807956015691161" lon="10.268609980121255">
        <ele>495.69999999999999</ele>
        <time>2017-05-22T14:30:27Z</time>
      </trkpt>
      <trkpt lat="51.807968001812696" lon="10.268327007070184">
        <ele>494.74000000000001</ele>
        <time>2017-05-22T14:30:28Z</time>
      </trkpt>
      <trkpt lat="51.808020975440741" lon="10.268028024584055">
        <ele>494.74000000000001</ele>
        <time>2017-05-22T14:30:29Z</time>
      </trkpt>
      <trkpt lat="51.808114014565945" lon="10.267722001299262">
        <ele>494.25999999999999</ele>
        <time>2017-05-22T14:30:30Z</time>
      </trkpt>
      <trkpt lat="51.808219039812684" lon="10.267407009378076">
        <ele>493.29000000000002</ele>
        <time>2017-05-22T14:30:31Z</time>
      </trkpt>
      <trkpt lat="51.808718014508486" lon="10.265255961567163">
        <ele>484.63999999999999</ele>
        <time>2017-05-22T14:30:37Z</time>
      </trkpt>
      <trkpt lat="51.808847011998296" lon="10.264578033238649">
        <ele>480.31999999999999</ele>
        <time>2017-05-22T14:30:39Z</time>
      </trkpt>
      <trkpt lat="51.808937033638358" lon="10.264261029660702">
        <ele>478.87</ele>
        <time>2017-05-22T14:30:40Z</time>
      </trkpt>
      <trkpt lat="51.809214977547526" lon="10.263225026428699">
        <ele>474.55000000000001</ele>
        <time>2017-05-22T14:30:44Z</time>
      </trkpt>
      <trkpt lat="51.809283960610628" lon="10.263041965663433">
        <ele>473.58999999999997</ele>
        <time>2017-05-22T14:30:45Z</time>
      </trkpt>
      <trkpt lat="51.809364007785916" lon="10.262888995930552">
        <ele>472.63</ele>
        <time>2017-05-22T14:30:46Z</time>
      </trkpt>
      <trkpt lat="51.809474984183908" lon="10.262768967077136">
        <ele>472.13999999999999</ele>
        <time>2017-05-22T14:30:47Z</time>
      </trkpt>
      <trkpt lat="51.809642035514116" lon="10.262720016762614">
        <ele>471.66000000000003</ele>
        <time>2017-05-22T14:30:48Z</time>
      </trkpt>
      <trkpt lat="51.809820989146829" lon="10.262696966528893">
        <ele>470.69999999999999</ele>
        <time>2017-05-22T14:30:49Z</time>
      </trkpt>
      <trkpt lat="51.81001503020525" lon="10.262716999277472">
        <ele>469.74000000000001</ele>
        <time>2017-05-22T14:30:50Z</time>
      </trkpt>
      <trkpt lat="51.810214016586542" lon="10.262795034796">
        <ele>470.22000000000003</ele>
        <time>2017-05-22T14:30:51Z</time>
      </trkpt>
      <trkpt lat="51.810414008796215" lon="10.262890001758933">
        <ele>470.22000000000003</ele>
        <time>2017-05-22T14:30:52Z</time>
      </trkpt>
      <trkpt lat="51.810547029599547" lon="10.26294800452888">
        <ele>469.74000000000001</ele>
        <time>2017-05-22T14:30:53Z</time>
      </trkpt>
      <trkpt lat="51.810662029311061" lon="10.262959990650415">
        <ele>469.74000000000001</ele>
        <time>2017-05-22T14:30:54Z</time>
      </trkpt>
      <trkpt lat="51.810731012374163" lon="10.262954039499164">
        <ele>468.77999999999997</ele>
        <time>2017-05-22T14:30:55Z</time>
      </trkpt>
      <trkpt lat="51.810776023194194" lon="10.262831998988986">
        <ele>469.25999999999999</ele>
        <time>2017-05-22T14:30:56Z</time>
      </trkpt>
      <trkpt lat="51.810761019587517" lon="10.262680035084486">
        <ele>469.74000000000001</ele>
        <time>2017-05-22T14:30:57Z</time>
      </trkpt>
      <trkpt lat="51.810716008767486" lon="10.262505020946264">
        <ele>469.74000000000001</ele>
        <time>2017-05-22T14:30:58Z</time>
      </trkpt>
      <trkpt lat="51.810637973248959" lon="10.262316009029746">
        <ele>469.74000000000001</ele>
        <time>2017-05-22T14:30:59Z</time>
      </trkpt>
      <trkpt lat="51.810524985194206" lon="10.262125991284847">
        <ele>469.25999999999999</ele>
        <time>2017-05-22T14:31:00Z</time>
      </trkpt>
      <trkpt lat="51.810395987704396" lon="10.261921975761652">
        <ele>468.77999999999997</ele>
        <time>2017-05-22T14:31:01Z</time>
      </trkpt>
      <trkpt lat="51.809919979423285" lon="10.26129299774766">
        <ele>466.86000000000001</ele>
        <time>2017-05-22T14:31:04Z</time>
      </trkpt>
      <trkpt lat="51.809742031618953" lon="10.261119995266199">
        <ele>466.86000000000001</ele>
        <time>2017-05-22T14:31:05Z</time>
      </trkpt>
      <trkpt lat="51.809263005852699" lon="10.260682962834835">
        <ele>464.93000000000001</ele>
        <time>2017-05-22T14:31:08Z</time>
      </trkpt>
      <trkpt lat="51.809127973392606" lon="10.260524963960052">
        <ele>464.44999999999999</ele>
        <time>2017-05-22T14:31:09Z</time>
      </trkpt>
      <trkpt lat="51.809030994772911" lon="10.260331006720662">
        <ele>463.97000000000003</ele>
        <time>2017-05-22T14:31:10Z</time>
      </trkpt>
      <trkpt lat="51.808950025588274" lon="10.260087009519339">
        <ele>463.97000000000003</ele>
        <time>2017-05-22T14:31:11Z</time>
      </trkpt>
      <trkpt lat="51.808881964534521" lon="10.259784003719687">
        <ele>463.00999999999999</ele>
        <time>2017-05-22T14:31:12Z</time>
      </trkpt>
      <trkpt lat="51.808815998956561" lon="10.25944503955543">
        <ele>462.05000000000001</ele>
        <time>2017-05-22T14:31:13Z</time>
      </trkpt>
      <trkpt lat="51.808367986232042" lon="10.257504964247346">
        <ele>456.27999999999997</ele>
        <time>2017-05-22T14:31:18Z</time>
      </trkpt>
      <trkpt lat="51.808314006775618" lon="10.257111014798284">
        <ele>455.31999999999999</ele>
        <time>2017-05-22T14:31:19Z</time>
      </trkpt>
      <trkpt lat="51.808280982077122" lon="10.256708012893796">
        <ele>453.88</ele>
        <time>2017-05-22T14:31:20Z</time>
      </trkpt>
      <trkpt lat="51.808192972093821" lon="10.254923002794385">
        <ele>447.63</ele>
        <time>2017-05-22T14:31:25Z</time>
      </trkpt>
      <trkpt lat="51.808204036206007" lon="10.254652015864849">
        <ele>446.19</ele>
        <time>2017-05-22T14:31:26Z</time>
      </trkpt>
      <trkpt lat="51.808248041197658" lon="10.254408018663526">
        <ele>444.75</ele>
        <time>2017-05-22T14:31:27Z</time>
      </trkpt>
      <trkpt lat="51.808319035917521" lon="10.254190005362034">
        <ele>443.31</ele>
        <time>2017-05-22T14:31:28Z</time>
      </trkpt>
      <trkpt lat="51.808434035629034" lon="10.254006022587419">
        <ele>441.86000000000001</ele>
        <time>2017-05-22T14:31:29Z</time>
      </trkpt>
      <trkpt lat="51.808580970391631" lon="10.253822961822152">
        <ele>439.94</ele>
        <time>2017-05-22T14:31:30Z</time>
      </trkpt>
      <trkpt lat="51.808700999245048" lon="10.253582987934351">
        <ele>438.01999999999998</ele>
        <time>2017-05-22T14:31:31Z</time>
      </trkpt>
      <trkpt lat="51.808808958157897" lon="10.25332398712635">
        <ele>436.10000000000002</ele>
        <time>2017-05-22T14:31:32Z</time>
      </trkpt>
      <trkpt lat="51.808886993676424" lon="10.253037996590137">
        <ele>435.13</ele>
        <time>2017-05-22T14:31:33Z</time>
      </trkpt>
      <trkpt lat="51.808924963697791" lon="10.252708001062274">
        <ele>435.13</ele>
        <time>2017-05-22T14:31:34Z</time>
      </trkpt>
      <trkpt lat="51.808932004496455" lon="10.25235503911972">
        <ele>434.64999999999998</ele>
        <time>2017-05-22T14:31:35Z</time>
      </trkpt>
      <trkpt lat="51.808924041688442" lon="10.251984978094697">
        <ele>433.69</ele>
        <time>2017-05-22T14:31:36Z</time>
      </trkpt>
      <trkpt lat="51.808925969526172" lon="10.251598991453648">
        <ele>433.69</ele>
        <time>2017-05-22T14:31:37Z</time>
      </trkpt>
      <trkpt lat="51.808946002274752" lon="10.251219039782882">
        <ele>432.25</ele>
        <time>2017-05-22T14:31:38Z</time>
      </trkpt>
      <trkpt lat="51.808984978124499" lon="10.250859959051013">
        <ele>431.29000000000002</ele>
        <time>2017-05-22T14:31:39Z</time>
      </trkpt>
      <trkpt lat="51.809036023914814" lon="10.250520994886756">
        <ele>430.32999999999998</ele>
        <time>2017-05-22T14:31:40Z</time>
      </trkpt>
      <trkpt lat="51.809095032513142" lon="10.250215977430344">
        <ele>428.88999999999999</ele>
        <time>2017-05-22T14:31:41Z</time>
      </trkpt>
      <trkpt lat="51.809141971170902" lon="10.249933004379272">
        <ele>427.92000000000002</ele>
        <time>2017-05-22T14:31:42Z</time>
      </trkpt>
      <trkpt lat="51.809168960899115" lon="10.249640978872776">
        <ele>423.60000000000002</ele>
        <time>2017-05-22T14:31:43Z</time>
      </trkpt>
      <trkpt lat="51.80920097976923" lon="10.249354988336563">
        <ele>421.68000000000001</ele>
        <time>2017-05-22T14:31:44Z</time>
      </trkpt>
      <trkpt lat="51.809274991974235" lon="10.249078972265124">
        <ele>418.79000000000002</ele>
        <time>2017-05-22T14:31:45Z</time>
      </trkpt>
      <trkpt lat="51.80937398225069" lon="10.248794993385673">
        <ele>417.82999999999998</ele>
        <time>2017-05-22T14:31:46Z</time>
      </trkpt>
      <trkpt lat="51.809514965862036" lon="10.248545967042446">
        <ele>416.38999999999999</ele>
        <time>2017-05-22T14:31:47Z</time>
      </trkpt>
      <trkpt lat="51.809649998322129" lon="10.248305993154645">
        <ele>415.91000000000003</ele>
        <time>2017-05-22T14:31:48Z</time>
      </trkpt>
      <trkpt lat="51.809900030493736" lon="10.247944984585047">
        <ele>415.91000000000003</ele>
        <time>2017-05-22T14:31:50Z</time>
      </trkpt>
      <trkpt lat="51.810020981356502" lon="10.247839037328959">
        <ele>416.38999999999999</ele>
        <time>2017-05-22T14:31:51Z</time>
      </trkpt>
      <trkpt lat="51.810151990503073" lon="10.247783968225121">
        <ele>416.87</ele>
        <time>2017-05-22T14:31:52Z</time>
      </trkpt>
      <trkpt lat="51.810290962457657" lon="10.247785979881883">
        <ele>417.35000000000002</ele>
        <time>2017-05-22T14:31:53Z</time>
      </trkpt>
      <trkpt lat="51.810450972989202" lon="10.247845994308591">
        <ele>417.82999999999998</ele>
        <time>2017-05-22T14:31:54Z</time>
      </trkpt>
      <trkpt lat="51.810620035976171" lon="10.247949007898569">
        <ele>418.31</ele>
        <time>2017-05-22T14:31:55Z</time>
      </trkpt>
      <trkpt lat="51.810775017365813" lon="10.248002987354994">
        <ele>418.79000000000002</ele>
        <time>2017-05-22T14:31:56Z</time>
      </trkpt>
      <trkpt lat="51.810923963785172" lon="10.248001981526613">
        <ele>419.26999999999998</ele>
        <time>2017-05-22T14:31:57Z</time>
      </trkpt>
      <trkpt lat="51.811053967103362" lon="10.247936015948653">
        <ele>419.75</ele>
        <time>2017-05-22T14:31:58Z</time>
      </trkpt>
      <trkpt lat="51.811154969036579" lon="10.247805006802082">
        <ele>419.75</ele>
        <time>2017-05-22T14:31:59Z</time>
      </trkpt>
      <trkpt lat="51.811228981241584" lon="10.24760995991528">
        <ele>420.70999999999998</ele>
        <time>2017-05-22T14:32:00Z</time>
      </trkpt>
      <trkpt lat="51.811280027031898" lon="10.247369986027479">
        <ele>421.68000000000001</ele>
        <time>2017-05-22T14:32:01Z</time>
      </trkpt>
      <trkpt lat="51.811301987618208" lon="10.247089024633169">
        <ele>421.68000000000001</ele>
        <time>2017-05-22T14:32:02Z</time>
      </trkpt>
      <trkpt lat="51.811316991224885" lon="10.246788030490279">
        <ele>421.68000000000001</ele>
        <time>2017-05-22T14:32:03Z</time>
      </trkpt>
      <trkpt lat="51.811395026743412" lon="10.246260976418853">
        <ele>420.70999999999998</ele>
        <time>2017-05-22T14:32:05Z</time>
      </trkpt>
      <trkpt lat="51.811486976221204" lon="10.246056960895658">
        <ele>419.75</ele>
        <time>2017-05-22T14:32:06Z</time>
      </trkpt>
      <trkpt lat="51.811632988974452" lon="10.245899967849255">
        <ele>417.35000000000002</ele>
        <time>2017-05-22T14:32:07Z</time>
      </trkpt>
      <trkpt lat="51.811762992292643" lon="10.24576099589467">
        <ele>417.35000000000002</ele>
        <time>2017-05-22T14:32:08Z</time>
      </trkpt>
      <trkpt lat="51.811929037794471" lon="10.245680026710033">
        <ele>417.35000000000002</ele>
        <time>2017-05-22T14:32:09Z</time>
      </trkpt>
      <trkpt lat="51.812098016962409" lon="10.245641972869635">
        <ele>417.82999999999998</ele>
        <time>2017-05-22T14:32:10Z</time>
      </trkpt>
      <trkpt lat="51.812266996130347" lon="10.245640967041254">
        <ele>418.31</ele>
        <time>2017-05-22T14:32:11Z</time>
      </trkpt>
      <trkpt lat="51.812432035803795" lon="10.245676003396511">
        <ele>418.79000000000002</ele>
        <time>2017-05-22T14:32:12Z</time>
      </trkpt>
      <trkpt lat="51.812581988051534" lon="10.245768958702683">
        <ele>419.26999999999998</ele>
        <time>2017-05-22T14:32:13Z</time>
      </trkpt>
      <trkpt lat="51.812715008854866" lon="10.245911031961441">
        <ele>419.26999999999998</ele>
        <time>2017-05-22T14:32:14Z</time>
      </trkpt>
      <trkpt lat="51.812839983031154" lon="10.246095014736056">
        <ele>419.26999999999998</ele>
        <time>2017-05-22T14:32:15Z</time>
      </trkpt>
      <trkpt lat="51.812963029369712" lon="10.246309004724026">
        <ele>419.26999999999998</ele>
        <time>2017-05-22T14:32:16Z</time>
      </trkpt>
      <trkpt lat="51.813088003546" lon="10.246541015803814">
        <ele>419.26999999999998</ele>
        <time>2017-05-22T14:32:17Z</time>
      </trkpt>
      <trkpt lat="51.813834998756647" lon="10.248045986518264">
        <ele>420.70999999999998</ele>
        <time>2017-05-22T14:32:23Z</time>
      </trkpt>
      <trkpt lat="51.813923008739948" lon="10.248367013409734">
        <ele>420.23000000000002</ele>
        <time>2017-05-22T14:32:24Z</time>
      </trkpt>
      <trkpt lat="51.814468000084162" lon="10.250987028703094">
        <ele>424.07999999999998</ele>
        <time>2017-05-22T14:32:32Z</time>
      </trkpt>
      <trkpt lat="51.814652988687158" lon="10.251546017825603">
        <ele>423.60000000000002</ele>
        <time>2017-05-22T14:32:34Z</time>
      </trkpt>
      <trkpt lat="51.81545396335423" lon="10.253202030435205">
        <ele>421.19</ele>
        <time>2017-05-22T14:32:41Z</time>
      </trkpt>
      <trkpt lat="51.815587989985943" lon="10.253316024318337">
        <ele>420.70999999999998</ele>
        <time>2017-05-22T14:32:42Z</time>
      </trkpt>
      <trkpt lat="51.815739031881094" lon="10.253382995724678">
        <ele>420.70999999999998</ele>
        <time>2017-05-22T14:32:43Z</time>
      </trkpt>
      <trkpt lat="51.815899964421988" lon="10.253416020423174">
        <ele>420.23000000000002</ele>
        <time>2017-05-22T14:32:44Z</time>
      </trkpt>
      <trkpt lat="51.816060980781913" lon="10.253435969352722">
        <ele>419.75</ele>
        <time>2017-05-22T14:32:45Z</time>
      </trkpt>
      <trkpt lat="51.816833037883043" lon="10.253401016816497">
        <ele>419.26999999999998</ele>
        <time>2017-05-22T14:32:50Z</time>
      </trkpt>
      <trkpt lat="51.81693596765399" lon="10.253339996561408">
        <ele>419.26999999999998</ele>
        <time>2017-05-22T14:32:51Z</time>
      </trkpt>
      <trkpt lat="51.817016014829278" lon="10.253234971314669">
        <ele>419.26999999999998</ele>
        <time>2017-05-22T14:32:52Z</time>
      </trkpt>
      <trkpt lat="51.817095978185534" lon="10.253100022673607">
        <ele>419.26999999999998</ele>
        <time>2017-05-22T14:32:53Z</time>
      </trkpt>
      <trkpt lat="51.817155992612243" lon="10.252929031848907">
        <ele>419.26999999999998</ele>
        <time>2017-05-22T14:32:54Z</time>
      </trkpt>
      <trkpt lat="51.817174013704062" lon="10.252719987183809">
        <ele>418.79000000000002</ele>
        <time>2017-05-22T14:32:55Z</time>
      </trkpt>
      <trkpt lat="51.817160015925765" lon="10.25248403660953">
        <ele>418.79000000000002</ele>
        <time>2017-05-22T14:32:56Z</time>
      </trkpt>
      <trkpt lat="51.817109975963831" lon="10.252231992781162">
        <ele>418.79000000000002</ele>
        <time>2017-05-22T14:32:57Z</time>
      </trkpt>
      <trkpt lat="51.817035963758826" lon="10.251962011680007">
        <ele>418.79000000000002</ele>
        <time>2017-05-22T14:32:58Z</time>
      </trkpt>
      <trkpt lat="51.81693303398788" lon="10.251679960638285">
        <ele>418.79000000000002</ele>
        <time>2017-05-22T14:32:59Z</time>
      </trkpt>
      <trkpt lat="51.816815016791224" lon="10.251389024779201">
        <ele>418.79000000000002</ele>
        <time>2017-05-22T14:33:00Z</time>
      </trkpt>
      <trkpt lat="51.816124012693763" lon="10.249181985855103">
        <ele>414.94999999999999</ele>
        <time>2017-05-22T14:33:07Z</time>
      </trkpt>
      <trkpt lat="51.815899964421988" lon="10.246910993009806">
        <ele>412.54000000000002</ele>
        <time>2017-05-22T14:33:14Z</time>
      </trkpt>
      <trkpt lat="51.815857971087098" lon="10.244723986834288">
        <ele>414.47000000000003</ele>
        <time>2017-05-22T14:33:21Z</time>
      </trkpt>
      <trkpt lat="51.815638029947877" lon="10.243350025266409">
        <ele>414.94999999999999</ele>
        <time>2017-05-22T14:33:26Z</time>
      </trkpt>
      <trkpt lat="51.815596958622336" lon="10.243091024458408">
        <ele>413.5</ele>
        <time>2017-05-22T14:33:27Z</time>
      </trkpt>
      <trkpt lat="51.815598970279098" lon="10.242804028093815">
        <ele>413.5</ele>
        <time>2017-05-22T14:33:28Z</time>
      </trkpt>
      <trkpt lat="51.815630989149213" lon="10.242521977052093">
        <ele>412.54000000000002</ele>
        <time>2017-05-22T14:33:29Z</time>
      </trkpt>
      <trkpt lat="51.815715981647372" lon="10.242244033142924">
        <ele>412.06</ele>
        <time>2017-05-22T14:33:30Z</time>
      </trkpt>
      <trkpt lat="51.81581899523735" lon="10.24195502512157">
        <ele>411.57999999999998</ele>
        <time>2017-05-22T14:33:31Z</time>
      </trkpt>
      <trkpt lat="51.815941035747528" lon="10.241655958816409">
        <ele>410.13999999999999</ele>
        <time>2017-05-22T14:33:32Z</time>
      </trkpt>
      <trkpt lat="51.816062992438674" lon="10.241345996037126">
        <ele>409.66000000000003</ele>
        <time>2017-05-22T14:33:33Z</time>
      </trkpt>
      <trkpt lat="51.816759025678039" lon="10.239372979849577">
        <ele>400.52999999999997</ele>
        <time>2017-05-22T14:33:39Z</time>
      </trkpt>
      <trkpt lat="51.816885005682707" lon="10.239090006798506">
        <ele>397.63999999999999</ele>
        <time>2017-05-22T14:33:40Z</time>
      </trkpt>
      <trkpt lat="51.817377023398876" lon="10.237916959449649">
        <ele>394.75999999999999</ele>
        <time>2017-05-22T14:33:44Z</time>
      </trkpt>
      <trkpt lat="51.817520018666983" lon="10.237653013318777">
        <ele>394.75999999999999</ele>
        <time>2017-05-22T14:33:45Z</time>
      </trkpt>
      <trkpt lat="51.817698972299695" lon="10.237428965047002">
        <ele>395.24000000000001</ele>
        <time>2017-05-22T14:33:46Z</time>
      </trkpt>
      <trkpt lat="51.817898964509368" lon="10.237226039171219">
        <ele>395.72000000000003</ele>
        <time>2017-05-22T14:33:47Z</time>
      </trkpt>
      <trkpt lat="51.818100968375802" lon="10.237034009769559">
        <ele>396.68000000000001</ele>
        <time>2017-05-22T14:33:48Z</time>
      </trkpt>
      <trkpt lat="51.819000011309981" lon="10.236383993178606">
        <ele>401.97000000000003</ele>
        <time>2017-05-22T14:33:53Z</time>
      </trkpt>
      <trkpt lat="51.819183994084597" lon="10.236346023157239">
        <ele>403.41000000000003</ele>
        <time>2017-05-22T14:33:54Z</time>
      </trkpt>
      <trkpt lat="51.820325022563338" lon="10.236462028697133">
        <ele>409.66000000000003</ele>
        <time>2017-05-22T14:34:01Z</time>
      </trkpt>
      <trkpt lat="51.820445973426104" lon="10.236411988735199">
        <ele>410.62</ele>
        <time>2017-05-22T14:34:02Z</time>
      </trkpt>
      <trkpt lat="51.820550998672843" lon="10.236316015943885">
        <ele>411.57999999999998</ele>
        <time>2017-05-22T14:34:03Z</time>
      </trkpt>
      <trkpt lat="51.820633979514241" lon="10.236164974048734">
        <ele>412.06</ele>
        <time>2017-05-22T14:34:04Z</time>
      </trkpt>
      <trkpt lat="51.820691982284188" lon="10.235974034294486">
        <ele>413.01999999999998</ele>
        <time>2017-05-22T14:34:05Z</time>
      </trkpt>
      <trkpt lat="51.820691982284188" lon="10.235742023214698">
        <ele>414.47000000000003</ele>
        <time>2017-05-22T14:34:06Z</time>
      </trkpt>
      <trkpt lat="51.820701034739614" lon="10.235512023791671">
        <ele>414.94999999999999</ele>
        <time>2017-05-22T14:34:07Z</time>
      </trkpt>
      <trkpt lat="51.820771023631096" lon="10.234467973932624">
        <ele>416.38999999999999</ele>
        <time>2017-05-22T14:34:11Z</time>
      </trkpt>
      <trkpt lat="51.820841012522578" lon="10.234240991994739">
        <ele>416.38999999999999</ele>
        <time>2017-05-22T14:34:12Z</time>
      </trkpt>
      <trkpt lat="51.820967998355627" lon="10.234000012278557">
        <ele>417.35000000000002</ele>
        <time>2017-05-22T14:34:13Z</time>
      </trkpt>
      <trkpt lat="51.821095990017056" lon="10.233765989542007">
        <ele>416.87</ele>
        <time>2017-05-22T14:34:14Z</time>
      </trkpt>
      <trkpt lat="51.821234961971641" lon="10.23353599011898">
        <ele>415.91000000000003</ele>
        <time>2017-05-22T14:34:15Z</time>
      </trkpt>
      <trkpt lat="51.821452975273132" lon="10.233372962102294">
        <ele>410.62</ele>
        <time>2017-05-22T14:34:16Z</time>
      </trkpt>
      <trkpt lat="51.821645004674792" lon="10.233199037611485">
        <ele>406.76999999999998</ele>
        <time>2017-05-22T14:34:17Z</time>
      </trkpt>
      <trkpt lat="51.822488978505135" lon="10.23248297162354">
        <ele>395.24000000000001</ele>
        <time>2017-05-22T14:34:22Z</time>
      </trkpt>
      <trkpt lat="51.82262996211648" lon="10.23243997246027">
        <ele>393.80000000000001</ele>
        <time>2017-05-22T14:34:23Z</time>
      </trkpt>
      <trkpt lat="51.822773041203618" lon="10.23243997246027">
        <ele>392.83999999999997</ele>
        <time>2017-05-22T14:34:24Z</time>
      </trkpt>
      <trkpt lat="51.822922993451357" lon="10.232499986886978">
        <ele>391.87</ele>
        <time>2017-05-22T14:34:25Z</time>
      </trkpt>
      <trkpt lat="51.823068000376225" lon="10.232575004920363">
        <ele>391.38999999999999</ele>
        <time>2017-05-22T14:34:26Z</time>
      </trkpt>
      <trkpt lat="51.823212001472712" lon="10.232635019347072">
        <ele>390.43000000000001</ele>
        <time>2017-05-22T14:34:27Z</time>
      </trkpt>
      <trkpt lat="51.823377041146159" lon="10.232628984376788">
        <ele>390.43000000000001</ele>
        <time>2017-05-22T14:34:28Z</time>
      </trkpt>
      <trkpt lat="51.823534034192562" lon="10.23258900269866">
        <ele>390.43000000000001</ele>
        <time>2017-05-22T14:34:29Z</time>
      </trkpt>
      <trkpt lat="51.823674011975527" lon="10.232509039342403">
        <ele>388.02999999999997</ele>
        <time>2017-05-22T14:34:30Z</time>
      </trkpt>
      <trkpt lat="51.823800997808576" lon="10.23237501271069">
        <ele>387.06999999999999</ele>
        <time>2017-05-22T14:34:31Z</time>
      </trkpt>
      <trkpt lat="51.823884984478354" lon="10.232184994965792">
        <ele>385.14999999999998</ele>
        <time>2017-05-22T14:34:32Z</time>
      </trkpt>
      <trkpt lat="51.82396100834012" lon="10.231943009421229">
        <ele>383.69999999999999</ele>
        <time>2017-05-22T14:34:33Z</time>
      </trkpt>
      <trkpt lat="51.824013981968164" lon="10.231659030541778">
        <ele>381.77999999999997</ele>
        <time>2017-05-22T14:34:34Z</time>
      </trkpt>
      <trkpt lat="51.824062010273337" lon="10.231343032792211">
        <ele>380.81999999999999</ele>
        <time>2017-05-22T14:34:35Z</time>
      </trkpt>
      <trkpt lat="51.824377002194524" lon="10.229084026068449">
        <ele>370.73000000000002</ele>
        <time>2017-05-22T14:34:42Z</time>
      </trkpt>
      <trkpt lat="51.824360992759466" lon="10.228762999176979">
        <ele>370.24000000000001</ele>
        <time>2017-05-22T14:34:43Z</time>
      </trkpt>
      <trkpt lat="51.824311958625913" lon="10.228451024740934">
        <ele>369.75999999999999</ele>
        <time>2017-05-22T14:34:44Z</time>
      </trkpt>
      <trkpt lat="51.824227971956134" lon="10.228147013112903">
        <ele>369.75999999999999</ele>
        <time>2017-05-22T14:34:45Z</time>
      </trkpt>
      <trkpt lat="51.824113978073001" lon="10.227866973727942">
        <ele>368.80000000000001</ele>
        <time>2017-05-22T14:34:46Z</time>
      </trkpt>
      <trkpt lat="51.823941981419921" lon="10.22764602676034">
        <ele>367.83999999999997</ele>
        <time>2017-05-22T14:34:47Z</time>
      </trkpt>
      <trkpt lat="51.82376797311008" lon="10.227461038157344">
        <ele>366.88</ele>
        <time>2017-05-22T14:34:48Z</time>
      </trkpt>
      <trkpt lat="51.823586001992226" lon="10.227314019575715">
        <ele>366.39999999999998</ele>
        <time>2017-05-22T14:34:49Z</time>
      </trkpt>
      <trkpt lat="51.823406964540482" lon="10.227178987115622">
        <ele>365.44</ele>
        <time>2017-05-22T14:34:50Z</time>
      </trkpt>
      <trkpt lat="51.823238991200924" lon="10.227016964927316">
        <ele>364.95999999999998</ele>
        <time>2017-05-22T14:34:51Z</time>
      </trkpt>
      <trkpt lat="51.823088033124804" lon="10.226824013516307">
        <ele>364</ele>
        <time>2017-05-22T14:34:52Z</time>
      </trkpt>
      <trkpt lat="51.822963980957866" lon="10.226599965244532">
        <ele>363.51999999999998</ele>
        <time>2017-05-22T14:34:53Z</time>
      </trkpt>
      <trkpt lat="51.822871025651693" lon="10.226333001628518">
        <ele>363.04000000000002</ele>
        <time>2017-05-22T14:34:54Z</time>
      </trkpt>
      <trkpt lat="51.82279902510345" lon="10.226054973900318">
        <ele>362.06999999999999</ele>
        <time>2017-05-22T14:34:55Z</time>
      </trkpt>
      <trkpt lat="51.822732975706458" lon="10.225765965878963">
        <ele>361.58999999999997</ele>
        <time>2017-05-22T14:34:56Z</time>
      </trkpt>
      <trkpt lat="51.822680002078414" lon="10.225459020584822">
        <ele>360.63</ele>
        <time>2017-05-22T14:34:57Z</time>
      </trkpt>
      <trkpt lat="51.82264999486506" lon="10.22515500895679">
        <ele>358.70999999999998</ele>
        <time>2017-05-22T14:34:58Z</time>
      </trkpt>
      <trkpt lat="51.82264999486506" lon="10.224823001772165">
        <ele>357.26999999999998</ele>
        <time>2017-05-22T14:34:59Z</time>
      </trkpt>
      <trkpt lat="51.822690982371569" lon="10.224461993202567">
        <ele>352.94</ele>
        <time>2017-05-22T14:35:00Z</time>
      </trkpt>
      <trkpt lat="51.82271596044302" lon="10.224151024594903">
        <ele>351.01999999999998</ele>
        <time>2017-05-22T14:35:01Z</time>
      </trkpt>
      <trkpt lat="51.822785027325153" lon="10.223868973553181">
        <ele>349.10000000000002</ele>
        <time>2017-05-22T14:35:02Z</time>
      </trkpt>
      <trkpt lat="51.822867002338171" lon="10.223621036857367">
        <ele>348.62</ele>
        <time>2017-05-22T14:35:03Z</time>
      </trkpt>
      <trkpt lat="51.82295098900795" lon="10.223377039656043">
        <ele>347.64999999999998</ele>
        <time>2017-05-22T14:35:04Z</time>
      </trkpt>
      <trkpt lat="51.823752969503403" lon="10.221775006502867">
        <ele>337.56</ele>
        <time>2017-05-22T14:35:10Z</time>
      </trkpt>
      <trkpt lat="51.82451899163425" lon="10.220443960279226">
        <ele>325.54000000000002</ele>
        <time>2017-05-22T14:35:16Z</time>
      </trkpt>
      <trkpt lat="51.824587974697351" lon="10.22025603801012">
        <ele>323.62</ele>
        <time>2017-05-22T14:35:17Z</time>
      </trkpt>
      <trkpt lat="51.824639020487666" lon="10.220073983073235">
        <ele>322.18000000000001</ele>
        <time>2017-05-22T14:35:18Z</time>
      </trkpt>
      <trkpt lat="51.824676990509033" lon="10.219879020005465">
        <ele>321.22000000000003</ele>
        <time>2017-05-22T14:35:19Z</time>
      </trkpt>
      <trkpt lat="51.824684031307697" lon="10.219678021967411">
        <ele>319.30000000000001</ele>
        <time>2017-05-22T14:35:20Z</time>
      </trkpt>
      <trkpt lat="51.824662992730737" lon="10.219453973695636">
        <ele>318.81</ele>
        <time>2017-05-22T14:35:21Z</time>
      </trkpt>
      <trkpt lat="51.824662992730737" lon="10.219274014234543">
        <ele>315.44999999999999</ele>
        <time>2017-05-22T14:35:22Z</time>
      </trkpt>
      <trkpt lat="51.824657963588834" lon="10.218864977359772">
        <ele>311.12</ele>
        <time>2017-05-22T14:35:24Z</time>
      </trkpt>
      <trkpt lat="51.824680007994175" lon="10.218656016513705">
        <ele>308.72000000000003</ele>
        <time>2017-05-22T14:35:25Z</time>
      </trkpt>
      <trkpt lat="51.824730969965458" lon="10.218440014868975">
        <ele>305.36000000000001</ele>
        <time>2017-05-22T14:35:26Z</time>
      </trkpt>
      <trkpt lat="51.824802970513701" lon="10.21821403875947">
        <ele>302.94999999999999</ele>
        <time>2017-05-22T14:35:27Z</time>
      </trkpt>
      <trkpt lat="51.824912019073963" lon="10.218013040721416">
        <ele>301.50999999999999</ele>
        <time>2017-05-22T14:35:28Z</time>
      </trkpt>
      <trkpt lat="51.825039004907012" lon="10.217843977734447">
        <ele>300.06999999999999</ele>
        <time>2017-05-22T14:35:29Z</time>
      </trkpt>
      <trkpt lat="51.825190968811512" lon="10.217688996344805">
        <ele>299.11000000000001</ele>
        <time>2017-05-22T14:35:30Z</time>
      </trkpt>
      <trkpt lat="51.825377969071269" lon="10.217522028833628">
        <ele>296.69999999999999</ele>
        <time>2017-05-22T14:35:31Z</time>
      </trkpt>
      <trkpt lat="51.825587013736367" lon="10.217338968068361">
        <ele>294.30000000000001</ele>
        <time>2017-05-22T14:35:32Z</time>
      </trkpt>
      <trkpt lat="51.826364016160369" lon="10.216531958431005">
        <ele>288.05000000000001</ele>
        <time>2017-05-22T14:35:36Z</time>
      </trkpt>
      <trkpt lat="51.826506005600095" lon="10.216278992593288">
        <ele>286.13</ele>
        <time>2017-05-22T14:35:37Z</time>
      </trkpt>
      <trkpt lat="51.826627040281892" lon="10.215985961258411">
        <ele>285.17000000000002</ele>
        <time>2017-05-22T14:35:38Z</time>
      </trkpt>
      <trkpt lat="51.826714966446161" lon="10.215657977387309">
        <ele>283.73000000000002</ele>
        <time>2017-05-22T14:35:39Z</time>
      </trkpt>
      <trkpt lat="51.826788978651166" lon="10.215309038758278">
        <ele>281.80000000000001</ele>
        <time>2017-05-22T14:35:40Z</time>
      </trkpt>
      <trkpt lat="51.827121991664171" lon="10.213957959786057">
        <ele>276.04000000000002</ele>
        <time>2017-05-22T14:35:44Z</time>
      </trkpt>
      <trkpt lat="51.827254006639123" lon="10.213651014491916">
        <ele>275.06999999999999</ele>
        <time>2017-05-22T14:35:45Z</time>
      </trkpt>
      <trkpt lat="51.827408988028765" lon="10.213370975106955">
        <ele>273.63</ele>
        <time>2017-05-22T14:35:46Z</time>
      </trkpt>
      <trkpt lat="51.827582996338606" lon="10.213117003440857">
        <ele>272.67000000000002</ele>
        <time>2017-05-22T14:35:47Z</time>
      </trkpt>
      <trkpt lat="51.827773014083505" lon="10.21288800984621">
        <ele>272.19</ele>
        <time>2017-05-22T14:35:48Z</time>
      </trkpt>
      <trkpt lat="51.827964037656784" lon="10.212677959352732">
        <ele>271.23000000000002</ele>
        <time>2017-05-22T14:35:49Z</time>
      </trkpt>
      <trkpt lat="51.828309958800673" lon="10.212204968556762">
        <ele>269.31</ele>
        <time>2017-05-22T14:35:51Z</time>
      </trkpt>
      <trkpt lat="51.828463012352586" lon="10.211921995505691">
        <ele>268.82999999999998</ele>
        <time>2017-05-22T14:35:52Z</time>
      </trkpt>
      <trkpt lat="51.828594021499157" lon="10.211616978049278">
        <ele>267.86000000000001</ele>
        <time>2017-05-22T14:35:53Z</time>
      </trkpt>
      <trkpt lat="51.828696029260755" lon="10.211305003613234">
        <ele>266.89999999999998</ele>
        <time>2017-05-22T14:35:54Z</time>
      </trkpt>
      <trkpt lat="51.828770963475108" lon="10.210991017520428">
        <ele>265.45999999999998</ele>
        <time>2017-05-22T14:35:55Z</time>
      </trkpt>
      <trkpt lat="51.828798037022352" lon="10.210639983415604">
        <ele>265.45999999999998</ele>
        <time>2017-05-22T14:35:56Z</time>
      </trkpt>
      <trkpt lat="51.828812034800649" lon="10.210271012037992">
        <ele>264.98000000000002</ele>
        <time>2017-05-22T14:35:57Z</time>
      </trkpt>
      <trkpt lat="51.828824020922184" lon="10.209885025396943">
        <ele>264.01999999999998</ele>
        <time>2017-05-22T14:35:58Z</time>
      </trkpt>
      <trkpt lat="51.828813962638378" lon="10.209486968815327">
        <ele>263.06</ele>
        <time>2017-05-22T14:35:59Z</time>
      </trkpt>
      <trkpt lat="51.828757971525192" lon="10.207502972334623">
        <ele>259.69</ele>
        <time>2017-05-22T14:36:04Z</time>
      </trkpt>
      <trkpt lat="51.828909013420343" lon="10.206352975219488">
        <ele>257.29000000000002</ele>
        <time>2017-05-22T14:36:07Z</time>
      </trkpt>
      <trkpt lat="51.829000040888786" lon="10.206003030762076">
        <ele>256.81</ele>
        <time>2017-05-22T14:36:08Z</time>
      </trkpt>
      <trkpt lat="51.829100959002972" lon="10.205676974728703">
        <ele>256.32999999999998</ele>
        <time>2017-05-22T14:36:09Z</time>
      </trkpt>
      <trkpt lat="51.829238003119826" lon="10.205355025827885">
        <ele>256.32999999999998</ele>
        <time>2017-05-22T14:36:10Z</time>
      </trkpt>
      <trkpt lat="51.829370018094778" lon="10.205037016421556">
        <ele>255.37</ele>
        <time>2017-05-22T14:36:11Z</time>
      </trkpt>
      <trkpt lat="51.829522987827659" lon="10.20472202450037">
        <ele>254.88999999999999</ele>
        <time>2017-05-22T14:36:12Z</time>
      </trkpt>
      <trkpt lat="51.83023301884532" lon="10.202635014429688">
        <ele>251.52000000000001</ele>
        <time>2017-05-22T14:36:18Z</time>
      </trkpt>
      <trkpt lat="51.830343995243311" lon="10.200836006551981">
        <ele>248.63999999999999</ele>
        <time>2017-05-22T14:36:23Z</time>
      </trkpt>
      <trkpt lat="51.830133022740483" lon="10.198768023401499">
        <ele>243.34999999999999</ele>
        <time>2017-05-22T14:36:30Z</time>
      </trkpt>
      <trkpt lat="51.830054987221956" lon="10.198119012638927">
        <ele>241.91</ele>
        <time>2017-05-22T14:36:33Z</time>
      </trkpt>
      <trkpt lat="51.83006102219224" lon="10.197903010994196">
        <ele>241.43000000000001</ele>
        <time>2017-05-22T14:36:34Z</time>
      </trkpt>
      <trkpt lat="51.830081976950169" lon="10.197680974379182">
        <ele>240.94999999999999</ele>
        <time>2017-05-22T14:36:35Z</time>
      </trkpt>
      <trkpt lat="51.830121958628297" lon="10.197452986612916">
        <ele>240.47</ele>
        <time>2017-05-22T14:36:36Z</time>
      </trkpt>
      <trkpt lat="51.830171998590231" lon="10.197219969704747">
        <ele>239.50999999999999</ele>
        <time>2017-05-22T14:36:37Z</time>
      </trkpt>
      <trkpt lat="51.830259002745152" lon="10.196956023573875">
        <ele>238.53999999999999</ele>
        <time>2017-05-22T14:36:38Z</time>
      </trkpt>
      <trkpt lat="51.830365033820271" lon="10.196696016937494">
        <ele>238.06</ele>
        <time>2017-05-22T14:36:39Z</time>
      </trkpt>
      <trkpt lat="51.830485984683037" lon="10.196432992815971">
        <ele>237.09999999999999</ele>
        <time>2017-05-22T14:36:40Z</time>
      </trkpt>
      <trkpt lat="51.831626007333398" lon="10.194705985486507">
        <ele>233.25999999999999</ele>
        <time>2017-05-22T14:36:47Z</time>
      </trkpt>
      <trkpt lat="51.833516964688897" lon="10.192397022619843">
        <ele>223.63999999999999</ele>
        <time>2017-05-22T14:36:56Z</time>
      </trkpt>
      <trkpt lat="51.834249040111899" lon="10.191808026283979">
        <ele>222.68000000000001</ele>
        <time>2017-05-22T14:36:59Z</time>
      </trkpt>
      <trkpt lat="51.834762012585998" lon="10.191580960527062">
        <ele>221.24000000000001</ele>
        <time>2017-05-22T14:37:01Z</time>
      </trkpt>
      <trkpt lat="51.83668096549809" lon="10.191364036872983">
        <ele>218.36000000000001</ele>
        <time>2017-05-22T14:37:08Z</time>
      </trkpt>
      <trkpt lat="51.838089041411877" lon="10.191580960527062">
        <ele>215.47</ele>
        <time>2017-05-22T14:37:14Z</time>
      </trkpt>
      <trkpt lat="51.838262965902686" lon="10.191560005769134">
        <ele>214.99000000000001</ele>
        <time>2017-05-22T14:37:15Z</time>
      </trkpt>
      <trkpt lat="51.83842197060585" lon="10.191499991342425">
        <ele>214.99000000000001</ele>
        <time>2017-05-22T14:37:16Z</time>
      </trkpt>
      <trkpt lat="51.838562032207847" lon="10.191384991630912">
        <ele>214.03</ele>
        <time>2017-05-22T14:37:17Z</time>
      </trkpt>
      <trkpt lat="51.838688012212515" lon="10.191222969442606">
        <ele>213.55000000000001</ele>
        <time>2017-05-22T14:37:18Z</time>
      </trkpt>
      <trkpt lat="51.838810974732041" lon="10.191018031910062">
        <ele>213.55000000000001</ele>
        <time>2017-05-22T14:37:19Z</time>
      </trkpt>
      <trkpt lat="51.839226968586445" lon="10.190179003402591">
        <ele>214.03</ele>
        <time>2017-05-22T14:37:22Z</time>
      </trkpt>
      <trkpt lat="51.840552985668182" lon="10.188046982511878">
        <ele>211.63</ele>
        <time>2017-05-22T14:37:29Z</time>
      </trkpt>
      <trkpt lat="51.842426005750895" lon="10.185851007699966">
        <ele>207.78</ele>
        <time>2017-05-22T14:37:37Z</time>
      </trkpt>
      <trkpt lat="51.844806969165802" lon="10.183389997109771">
        <ele>205.38</ele>
        <time>2017-05-22T14:37:47Z</time>
      </trkpt>
      <trkpt lat="51.845540972426534" lon="10.183078022673726">
        <ele>204.90000000000001</ele>
        <time>2017-05-22T14:37:50Z</time>
      </trkpt>
      <trkpt lat="51.845787987112999" lon="10.183051032945514">
        <ele>203.46000000000001</ele>
        <time>2017-05-22T14:37:51Z</time>
      </trkpt>
      <trkpt lat="51.846026033163071" lon="10.183052038773894">
        <ele>202.49000000000001</ele>
        <time>2017-05-22T14:37:52Z</time>
      </trkpt>
      <trkpt lat="51.846238011494279" lon="10.183084979653358">
        <ele>201.53</ele>
        <time>2017-05-22T14:37:53Z</time>
      </trkpt>
      <trkpt lat="51.846426017582417" lon="10.183121021836996">
        <ele>202.49000000000001</ele>
        <time>2017-05-22T14:37:54Z</time>
      </trkpt>
      <trkpt lat="51.847254987806082" lon="10.183167038485408">
        <ele>201.53</ele>
        <time>2017-05-22T14:38:00Z</time>
      </trkpt>
      <trkpt lat="51.848028972744942" lon="10.182879958301783">
        <ele>201.05000000000001</ele>
        <time>2017-05-22T14:38:08Z</time>
      </trkpt>
      <trkpt lat="51.848102984949946" lon="10.182790020480752">
        <ele>201.05000000000001</ele>
        <time>2017-05-22T14:38:09Z</time>
      </trkpt>
      <trkpt lat="51.848154030740261" lon="10.182663034647703">
        <ele>200.56999999999999</ele>
        <time>2017-05-22T14:38:10Z</time>
      </trkpt>
      <trkpt lat="51.848185965791345" lon="10.182506963610649">
        <ele>200.09</ele>
        <time>2017-05-22T14:38:11Z</time>
      </trkpt>
      <trkpt lat="51.848210021853447" lon="10.182342007756233">
        <ele>200.09</ele>
        <time>2017-05-22T14:38:12Z</time>
      </trkpt>
      <trkpt lat="51.848340025171638" lon="10.180439986288548">
        <ele>195.77000000000001</ele>
        <time>2017-05-22T14:38:23Z</time>
      </trkpt>
      <trkpt lat="51.848352011293173" lon="10.180334961041808">
        <ele>195.77000000000001</ele>
        <time>2017-05-22T14:38:24Z</time>
      </trkpt>
      <trkpt lat="51.848374977707863" lon="10.180258015170693">
        <ele>195.77000000000001</ele>
        <time>2017-05-22T14:38:25Z</time>
      </trkpt>
      <trkpt lat="51.848406996577978" lon="10.180205041542649">
        <ele>195.77000000000001</ele>
        <time>2017-05-22T14:38:26Z</time>
      </trkpt>
      <trkpt lat="51.848459970206022" lon="10.180189032107592">
        <ele>195.77000000000001</ele>
        <time>2017-05-22T14:38:27Z</time>
      </trkpt>
      <trkpt lat="51.848532976582646" lon="10.180195989087224">
        <ele>196.25</ele>
        <time>2017-05-22T14:38:28Z</time>
      </trkpt>
      <trkpt lat="51.848613023757935" lon="10.180216021835804">
        <ele>195.77000000000001</ele>
        <time>2017-05-22T14:38:29Z</time>
      </trkpt>
      <trkpt lat="51.848696004599333" lon="10.180219961330295">
        <ele>194.80000000000001</ele>
        <time>2017-05-22T14:38:30Z</time>
      </trkpt>
      <trkpt lat="51.849819011986256" lon="10.180277964100242">
        <ele>197.21000000000001</ele>
        <time>2017-05-22T14:38:40Z</time>
      </trkpt>
      <trkpt lat="51.850793994963169" lon="10.180282993242145">
        <ele>198.65000000000001</ele>
        <time>2017-05-22T14:38:50Z</time>
      </trkpt>
      <trkpt lat="51.852215984836221" lon="10.180311994627118">
        <ele>200.56999999999999</ele>
        <time>2017-05-22T14:39:02Z</time>
      </trkpt>
      <trkpt lat="51.853663036599755" lon="10.180353987962008">
        <ele>201.05000000000001</ele>
        <time>2017-05-22T14:39:10Z</time>
      </trkpt>
      <trkpt lat="51.855632029473782" lon="10.180719019845128">
        <ele>202.49000000000001</ele>
        <time>2017-05-22T14:39:18Z</time>
      </trkpt>
      <trkpt lat="51.857962030917406" lon="10.181123027577996">
        <ele>203.94</ele>
        <time>2017-05-22T14:39:26Z</time>
      </trkpt>
      <trkpt lat="51.859427019953728" lon="10.180750032886863">
        <ele>203.46000000000001</ele>
        <time>2017-05-22T14:39:32Z</time>
      </trkpt>
      <trkpt lat="51.86119400896132" lon="10.179672036319971">
        <ele>199.13</ele>
        <time>2017-05-22T14:39:39Z</time>
      </trkpt>
      <trkpt lat="51.862503010779619" lon="10.178738040849566">
        <ele>194.80000000000001</ele>
        <time>2017-05-22T14:39:46Z</time>
      </trkpt>
      <trkpt lat="51.863456033170223" lon="10.178034966811538">
        <ele>191.91999999999999</ele>
        <time>2017-05-22T14:39:54Z</time>
      </trkpt>
      <trkpt lat="51.864716000854969" lon="10.177121004089713">
        <ele>190</ele>
        <time>2017-05-22T14:40:08Z</time>
      </trkpt>
      <trkpt lat="51.865024035796523" lon="10.176979014649987">
        <ele>189.03999999999999</ele>
        <time>2017-05-22T14:40:11Z</time>
      </trkpt>
      <trkpt lat="51.865142975002527" lon="10.176954958587885">
        <ele>188.56</ele>
        <time>2017-05-22T14:40:12Z</time>
      </trkpt>
      <trkpt lat="51.865260992199183" lon="10.17694297246635">
        <ele>187.59</ele>
        <time>2017-05-22T14:40:13Z</time>
      </trkpt>
      <trkpt lat="51.865507001057267" lon="10.176950013265014">
        <ele>187.11000000000001</ele>
        <time>2017-05-22T14:40:15Z</time>
      </trkpt>
      <trkpt lat="51.866855984553695" lon="10.17730800434947">
        <ele>188.56</ele>
        <time>2017-05-22T14:40:27Z</time>
      </trkpt>
      <trkpt lat="51.867579007521272" lon="10.177421998232603">
        <ele>188.08000000000001</ele>
        <time>2017-05-22T14:40:33Z</time>
      </trkpt>
      <trkpt lat="51.867699036374688" lon="10.177397020161152">
        <ele>188.08000000000001</ele>
        <time>2017-05-22T14:40:34Z</time>
      </trkpt>
      <trkpt lat="51.86819901689887" lon="10.17713500186801">
        <ele>188.56</ele>
        <time>2017-05-22T14:40:38Z</time>
      </trkpt>
      <trkpt lat="51.868308987468481" lon="10.17702603712678">
        <ele>188.56</ele>
        <time>2017-05-22T14:40:39Z</time>
      </trkpt>
      <trkpt lat="51.868417030200362" lon="10.17689997330308">
        <ele>189.03999999999999</ele>
        <time>2017-05-22T14:40:40Z</time>
      </trkpt>
      <trkpt lat="51.868534963577986" lon="10.176751026883721">
        <ele>190</ele>
        <time>2017-05-22T14:40:41Z</time>
      </trkpt>
      <trkpt lat="51.868640994653106" lon="10.176593028008938">
        <ele>190.47999999999999</ele>
        <time>2017-05-22T14:40:42Z</time>
      </trkpt>
      <trkpt lat="51.868740990757942" lon="10.176408039405942">
        <ele>190.96000000000001</ele>
        <time>2017-05-22T14:40:43Z</time>
      </trkpt>
      <trkpt lat="51.86884400434792" lon="10.17621299251914">
        <ele>190.96000000000001</ele>
        <time>2017-05-22T14:40:44Z</time>
      </trkpt>
      <trkpt lat="51.868934025987983" lon="10.175982993096113">
        <ele>191.44</ele>
        <time>2017-05-22T14:40:45Z</time>
      </trkpt>
      <trkpt lat="51.869022035971284" lon="10.175745030865073">
        <ele>191.44</ele>
        <time>2017-05-22T14:40:46Z</time>
      </trkpt>
      <trkpt lat="51.869577001780272" lon="10.174582963809371">
        <ele>191.91999999999999</ele>
        <time>2017-05-22T14:40:51Z</time>
      </trkpt>
      <trkpt lat="51.869725026190281" lon="10.174396969377995">
        <ele>191.91999999999999</ele>
        <time>2017-05-22T14:40:52Z</time>
      </trkpt>
      <trkpt lat="51.869891993701458" lon="10.17423503100872">
        <ele>191.91999999999999</ele>
        <time>2017-05-22T14:40:53Z</time>
      </trkpt>
      <trkpt lat="51.870081005617976" lon="10.174096981063485">
        <ele>192.40000000000001</ele>
        <time>2017-05-22T14:40:54Z</time>
      </trkpt>
      <trkpt lat="51.870288038626313" lon="10.173975024372339">
        <ele>192.40000000000001</ele>
        <time>2017-05-22T14:40:55Z</time>
      </trkpt>
      <trkpt lat="51.870510997250676" lon="10.173861030489206">
        <ele>192.88</ele>
        <time>2017-05-22T14:40:56Z</time>
      </trkpt>
      <trkpt lat="51.872393991798162" lon="10.172977996990085">
        <ele>195.28</ele>
        <time>2017-05-22T14:41:04Z</time>
      </trkpt>
      <trkpt lat="51.875595962628722" lon="10.171483000740409">
        <ele>197.69</ele>
        <time>2017-05-22T14:41:18Z</time>
      </trkpt>
      <trkpt lat="51.877425983548164" lon="10.171214025467634">
        <ele>198.65000000000001</ele>
        <time>2017-05-22T14:41:26Z</time>
      </trkpt>
      <trkpt lat="51.879380978643894" lon="10.171487024053931">
        <ele>202.97999999999999</ele>
        <time>2017-05-22T14:41:35Z</time>
      </trkpt>
      <trkpt lat="51.880544973537326" lon="10.171746024861932">
        <ele>204.90000000000001</ele>
        <time>2017-05-22T14:41:43Z</time>
      </trkpt>
      <trkpt lat="51.882385974749923" lon="10.172289004549384">
        <ele>206.81999999999999</ele>
        <time>2017-05-22T14:41:56Z</time>
      </trkpt>
      <trkpt lat="51.883461959660053" lon="10.172683037817478">
        <ele>207.78</ele>
        <time>2017-05-22T14:42:05Z</time>
      </trkpt>
      <trkpt lat="51.884491005912423" lon="10.173089979216456">
        <ele>208.74000000000001</ele>
        <time>2017-05-22T14:42:14Z</time>
      </trkpt>
      <trkpt lat="51.885395999997854" lon="10.173639999702573">
        <ele>208.25999999999999</ele>
        <time>2017-05-22T14:42:24Z</time>
      </trkpt>
      <trkpt lat="51.886024978011847" lon="10.174411972984672">
        <ele>207.30000000000001</ele>
        <time>2017-05-22T14:42:33Z</time>
      </trkpt>
      <trkpt lat="51.886961990967393" lon="10.175723992288113">
        <ele>203.46000000000001</ele>
        <time>2017-05-22T14:42:47Z</time>
      </trkpt>
      <trkpt lat="51.887435987591743" lon="10.176823027431965">
        <ele>204.90000000000001</ele>
        <time>2017-05-22T14:42:56Z</time>
      </trkpt>
      <trkpt lat="51.887782998383045" lon="10.177785018458962">
        <ele>207.30000000000001</ele>
        <time>2017-05-22T14:43:03Z</time>
      </trkpt>
      <trkpt lat="51.887848963961005" lon="10.177899012342095">
        <ele>207.30000000000001</ele>
        <time>2017-05-22T14:43:04Z</time>
      </trkpt>
      <trkpt lat="51.887920964509249" lon="10.178002025932074">
        <ele>207.78</ele>
        <time>2017-05-22T14:43:05Z</time>
      </trkpt>
      <trkpt lat="51.888002017512918" lon="10.17808198928833">
        <ele>208.25999999999999</ele>
        <time>2017-05-22T14:43:06Z</time>
      </trkpt>
      <trkpt lat="51.888091033324599" lon="10.178134962916374">
        <ele>208.25999999999999</ele>
        <time>2017-05-22T14:43:07Z</time>
      </trkpt>
      <trkpt lat="51.888189017772675" lon="10.178162958472967">
        <ele>208.74000000000001</ele>
        <time>2017-05-22T14:43:08Z</time>
      </trkpt>
      <trkpt lat="51.888283984735608" lon="10.178164970129728">
        <ele>208.74000000000001</ele>
        <time>2017-05-22T14:43:09Z</time>
      </trkpt>
      <trkpt lat="51.888365037739277" lon="10.178147032856941">
        <ele>208.74000000000001</ele>
        <time>2017-05-22T14:43:10Z</time>
      </trkpt>
      <trkpt lat="51.888426980003715" lon="10.178113002330065">
        <ele>208.74000000000001</ele>
        <time>2017-05-22T14:43:11Z</time>
      </trkpt>
      <trkpt lat="51.888476014137268" lon="10.178063968196511">
        <ele>208.74000000000001</ele>
        <time>2017-05-22T14:43:12Z</time>
      </trkpt>
      <trkpt lat="51.888537034392357" lon="10.178005965426564">
        <ele>208.74000000000001</ele>
        <time>2017-05-22T14:43:13Z</time>
      </trkpt>
      <trkpt lat="51.88899502158165" lon="10.177606986835599">
        <ele>207.30000000000001</ele>
        <time>2017-05-22T14:43:20Z</time>
      </trkpt>
      <trkpt lat="51.889067022129893" lon="10.17754596658051">
        <ele>205.86000000000001</ele>
        <time>2017-05-22T14:43:29Z</time>
      </trkpt>
      <trkpt lat="51.889287969097495" lon="10.177386961877346">
        <ele>205.86000000000001</ele>
        <time>2017-05-22T14:43:42Z</time>
      </trkpt>
      <trkpt lat="51.890120040625334" lon="10.176902990788221">
        <ele>206.34</ele>
        <time>2017-05-22T14:43:51Z</time>
      </trkpt>
      <trkpt lat="51.89133700914681" lon="10.175938988104463">
        <ele>206.34</ele>
        <time>2017-05-22T14:44:04Z</time>
      </trkpt>
      <trkpt lat="51.891734981909394" lon="10.175617039203644">
        <ele>206.34</ele>
        <time>2017-05-22T14:44:10Z</time>
      </trkpt>
      <trkpt lat="51.891763983294368" lon="10.175615027546883">
        <ele>206.34</ele>
        <time>2017-05-22T14:44:11Z</time>
      </trkpt>
      <trkpt lat="51.891784016042948" lon="10.175658026710153">
        <ele>205.86000000000001</ele>
        <time>2017-05-22T14:44:12Z</time>
      </trkpt>
      <trkpt lat="51.891997000202537" lon="10.176354981958866">
        <ele>205.38</ele>
        <time>2017-05-22T14:44:18Z</time>
      </trkpt>
      <trkpt lat="51.892058020457625" lon="10.176624963060021">
        <ele>205.38</ele>
        <time>2017-05-22T14:44:20Z</time>
      </trkpt>
      <trkpt lat="51.892075035721064" lon="10.176773993298411">
        <ele>205.38</ele>
        <time>2017-05-22T14:44:21Z</time>
      </trkpt>
      <trkpt lat="51.89208903349936" lon="10.176922017708421">
        <ele>205.38</ele>
        <time>2017-05-22T14:44:22Z</time>
      </trkpt>
      <trkpt lat="51.892099007964134" lon="10.17707196995616">
        <ele>205.86000000000001</ele>
        <time>2017-05-22T14:44:23Z</time>
      </trkpt>
      <trkpt lat="51.892096996307373" lon="10.177223011851311">
        <ele>205.38</ele>
        <time>2017-05-22T14:44:24Z</time>
      </trkpt>
      <trkpt lat="51.892085010185838" lon="10.177381010726094">
        <ele>205.38</ele>
        <time>2017-05-22T14:44:25Z</time>
      </trkpt>
      <trkpt lat="51.892070006579161" lon="10.177540015429258">
        <ele>205.38</ele>
        <time>2017-05-22T14:44:26Z</time>
      </trkpt>
      <trkpt lat="51.892038993537426" lon="10.177710000425577">
        <ele>204.90000000000001</ele>
        <time>2017-05-22T14:44:27Z</time>
      </trkpt>
      <trkpt lat="51.891999011859298" lon="10.177877973765135">
        <ele>205.38</ele>
        <time>2017-05-22T14:44:28Z</time>
      </trkpt>
      <trkpt lat="51.891954001039267" lon="10.178031027317047">
        <ele>205.38</ele>
        <time>2017-05-22T14:44:29Z</time>
      </trkpt>
      <trkpt lat="51.891906978562474" lon="10.178175028413534">
        <ele>205.38</ele>
        <time>2017-05-22T14:44:30Z</time>
      </trkpt>
      <trkpt lat="51.891398029401898" lon="10.180033966898918">
        <ele>210.66999999999999</ele>
        <time>2017-05-22T14:44:43Z</time>
      </trkpt>
      <trkpt lat="51.891185967251658" lon="10.18061600625515">
        <ele>210.66999999999999</ele>
        <time>2017-05-22T14:44:51Z</time>
      </trkpt>
      <trkpt lat="51.890964014455676" lon="10.181197039783001">
        <ele>211.15000000000001</ele>
        <time>2017-05-22T14:45:00Z</time>
      </trkpt>
      <trkpt lat="51.890823030844331" lon="10.181489987298846">
        <ele>212.11000000000001</ele>
        <time>2017-05-22T14:45:07Z</time>
      </trkpt>
      <trkpt lat="51.890433020889759" lon="10.182364974170923">
        <ele>213.06999999999999</ele>
        <time>2017-05-22T14:45:14Z</time>
      </trkpt>
      <trkpt lat="51.889762971550226" lon="10.184608977288008">
        <ele>215.94999999999999</ele>
        <time>2017-05-22T14:45:27Z</time>
      </trkpt>
      <trkpt lat="51.889073979109526" lon="10.187270985916257">
        <ele>219.31999999999999</ele>
        <time>2017-05-22T14:45:41Z</time>
      </trkpt>
      <trkpt lat="51.888403007760644" lon="10.189158003777266">
        <ele>221.72</ele>
        <time>2017-05-22T14:45:52Z</time>
      </trkpt>
      <trkpt lat="51.887122001498938" lon="10.192406997084618">
        <ele>227.97</ele>
        <time>2017-05-22T14:46:10Z</time>
      </trkpt>
      <trkpt lat="51.885671010240912" lon="10.196162005886436">
        <ele>235.66</ele>
        <time>2017-05-22T14:46:31Z</time>
      </trkpt>
      <trkpt lat="51.885059969499707" lon="10.198003007099032">
        <ele>237.58000000000001</ele>
        <time>2017-05-22T14:46:42Z</time>
      </trkpt>
      <trkpt lat="51.884493017569184" lon="10.200192024931312">
        <ele>241.43000000000001</ele>
        <time>2017-05-22T14:46:54Z</time>
      </trkpt>
      <trkpt lat="51.884309034794569" lon="10.202241986989975">
        <ele>247.19999999999999</ele>
        <time>2017-05-22T14:47:04Z</time>
      </trkpt>
      <trkpt lat="51.883766977116466" lon="10.206052986904979">
        <ele>252.96000000000001</ele>
        <time>2017-05-22T14:47:22Z</time>
      </trkpt>
      <trkpt lat="51.883577965199947" lon="10.208153994753957">
        <ele>256.81</ele>
        <time>2017-05-22T14:47:31Z</time>
      </trkpt>
      <trkpt lat="51.883360035717487" lon="10.210205968469381">
        <ele>261.13999999999999</ele>
        <time>2017-05-22T14:47:39Z</time>
      </trkpt>
      <trkpt lat="51.883298009634018" lon="10.210505034774542">
        <ele>261.62</ele>
        <time>2017-05-22T14:47:40Z</time>
      </trkpt>
      <trkpt lat="51.883216034621" lon="10.210799993947148">
        <ele>262.10000000000002</ele>
        <time>2017-05-22T14:47:41Z</time>
      </trkpt>
      <trkpt lat="51.8831089977175" lon="10.211086990311742">
        <ele>262.57999999999998</ele>
        <time>2017-05-22T14:47:42Z</time>
      </trkpt>
      <trkpt lat="51.88298100605607" lon="10.211373986676335">
        <ele>263.06</ele>
        <time>2017-05-22T14:47:43Z</time>
      </trkpt>
      <trkpt lat="51.882840022444725" lon="10.211658971384168">
        <ele>263.54000000000002</ele>
        <time>2017-05-22T14:47:44Z</time>
      </trkpt>
      <trkpt lat="51.881977021694183" lon="10.213322024792433">
        <ele>268.82999999999998</ele>
        <time>2017-05-22T14:47:50Z</time>
      </trkpt>
      <trkpt lat="51.881850035861135" lon="10.213457979261875">
        <ele>269.79000000000002</ele>
        <time>2017-05-22T14:47:51Z</time>
      </trkpt>
      <trkpt lat="51.881718020886183" lon="10.213528973981738">
        <ele>270.26999999999998</ele>
        <time>2017-05-22T14:47:52Z</time>
      </trkpt>
      <trkpt lat="51.88156496733427" lon="10.213566021993756">
        <ele>271.23000000000002</ele>
        <time>2017-05-22T14:47:53Z</time>
      </trkpt>
      <trkpt lat="51.881400011479855" lon="10.213600974529982">
        <ele>272.19</ele>
        <time>2017-05-22T14:47:54Z</time>
      </trkpt>
      <trkpt lat="51.880108024924994" lon="10.213818987831473">
        <ele>277.48000000000002</ele>
        <time>2017-05-22T14:48:00Z</time>
      </trkpt>
      <trkpt lat="51.877815993502736" lon="10.214202040806413">
        <ele>284.69</ele>
        <time>2017-05-22T14:48:09Z</time>
      </trkpt>
      <trkpt lat="51.877599991858006" lon="10.21426398307085">
        <ele>285.17000000000002</ele>
        <time>2017-05-22T14:48:10Z</time>
      </trkpt>
      <trkpt lat="51.877405028790236" lon="10.21436900831759">
        <ele>285.64999999999998</ele>
        <time>2017-05-22T14:48:11Z</time>
      </trkpt>
      <trkpt lat="51.877235965803266" lon="10.21452097222209">
        <ele>287.08999999999997</ele>
        <time>2017-05-22T14:48:12Z</time>
      </trkpt>
      <trkpt lat="51.877084001898766" lon="10.21473303437233">
        <ele>288.52999999999997</ele>
        <time>2017-05-22T14:48:13Z</time>
      </trkpt>
      <trkpt lat="51.876952992752194" lon="10.21499203518033">
        <ele>288.52999999999997</ele>
        <time>2017-05-22T14:48:14Z</time>
      </trkpt>
      <trkpt lat="51.876831036061049" lon="10.215290011838078">
        <ele>289.00999999999999</ele>
        <time>2017-05-22T14:48:15Z</time>
      </trkpt>
      <trkpt lat="51.875911960378289" lon="10.217622024938464">
        <ele>293.33999999999997</ele>
        <time>2017-05-22T14:48:22Z</time>
      </trkpt>
      <trkpt lat="51.875825962051749" lon="10.217941962182522">
        <ele>293.81999999999999</ele>
        <time>2017-05-22T14:48:23Z</time>
      </trkpt>
      <trkpt lat="51.875764019787312" lon="10.218291990458965">
        <ele>294.77999999999997</ele>
        <time>2017-05-22T14:48:24Z</time>
      </trkpt>
      <trkpt lat="51.875724038109183" lon="10.218652999028563">
        <ele>295.74000000000001</ele>
        <time>2017-05-22T14:48:25Z</time>
      </trkpt>
      <trkpt lat="51.875713979825377" lon="10.219018030911684">
        <ele>297.18000000000001</ele>
        <time>2017-05-22T14:48:26Z</time>
      </trkpt>
      <trkpt lat="51.875734012573957" lon="10.219383984804153">
        <ele>297.67000000000002</ele>
        <time>2017-05-22T14:48:27Z</time>
      </trkpt>
      <trkpt lat="51.875776005908847" lon="10.219757985323668">
        <ele>298.63</ele>
        <time>2017-05-22T14:48:28Z</time>
      </trkpt>
      <trkpt lat="51.875842977315187" lon="10.220142966136336">
        <ele>298.63</ele>
        <time>2017-05-22T14:48:29Z</time>
      </trkpt>
      <trkpt lat="51.875914977863431" lon="10.220533981919289">
        <ele>299.58999999999997</ele>
        <time>2017-05-22T14:48:30Z</time>
      </trkpt>
      <trkpt lat="51.876451000571251" lon="10.223770989105105">
        <ele>305.83999999999997</ele>
        <time>2017-05-22T14:48:38Z</time>
      </trkpt>
      <trkpt lat="51.876456029713154" lon="10.224128980189562">
        <ele>306.31999999999999</ele>
        <time>2017-05-22T14:48:39Z</time>
      </trkpt>
      <trkpt lat="51.876429039984941" lon="10.224484959617257">
        <ele>306.80000000000001</ele>
        <time>2017-05-22T14:48:40Z</time>
      </trkpt>
      <trkpt lat="51.876367013901472" lon="10.224829958751798">
        <ele>307.75999999999999</ele>
        <time>2017-05-22T14:48:41Z</time>
      </trkpt>
      <trkpt lat="51.876287972554564" lon="10.225164983421564">
        <ele>308.72000000000003</ele>
        <time>2017-05-22T14:48:42Z</time>
      </trkpt>
      <trkpt lat="51.876217983663082" lon="10.225500008091331">
        <ele>309.19999999999999</ele>
        <time>2017-05-22T14:48:43Z</time>
      </trkpt>
      <trkpt lat="51.876182025298476" lon="10.225851964205503">
        <ele>310.63999999999999</ele>
        <time>2017-05-22T14:48:44Z</time>
      </trkpt>
      <trkpt lat="51.87616903334856" lon="10.226231999695301">
        <ele>311.60000000000002</ele>
        <time>2017-05-22T14:48:45Z</time>
      </trkpt>
      <trkpt lat="51.876253020018339" lon="10.2294319588691">
        <ele>318.32999999999998</ele>
        <time>2017-05-22T14:48:53Z</time>
      </trkpt>
      <trkpt lat="51.876607993617654" lon="10.231317970901728">
        <ele>326.01999999999998</ele>
        <time>2017-05-22T14:48:58Z</time>
      </trkpt>
      <trkpt lat="51.876723999157548" lon="10.231617959216237">
        <ele>326.99000000000001</ele>
        <time>2017-05-22T14:48:59Z</time>
      </trkpt>
      <trkpt lat="51.876868000254035" lon="10.231902021914721">
        <ele>327.94999999999999</ele>
        <time>2017-05-22T14:49:00Z</time>
      </trkpt>
      <trkpt lat="51.877284999936819" lon="10.23269603960216">
        <ele>330.82999999999998</ele>
        <time>2017-05-22T14:49:03Z</time>
      </trkpt>
      <trkpt lat="51.877357000485063" lon="10.232965014874935">
        <ele>332.26999999999998</ele>
        <time>2017-05-22T14:49:04Z</time>
      </trkpt>
      <trkpt lat="51.877388013526797" lon="10.233257040381432">
        <ele>333.23000000000002</ele>
        <time>2017-05-22T14:49:05Z</time>
      </trkpt>
      <trkpt lat="51.877388013526797" lon="10.233559040352702">
        <ele>334.19999999999999</ele>
        <time>2017-05-22T14:49:06Z</time>
      </trkpt>
      <trkpt lat="51.877390025183558" lon="10.233906973153353">
        <ele>335.63999999999999</ele>
        <time>2017-05-22T14:49:07Z</time>
      </trkpt>
      <trkpt lat="51.87741600908339" lon="10.234257001429796">
        <ele>336.60000000000002</ele>
        <time>2017-05-22T14:49:08Z</time>
      </trkpt>
      <trkpt lat="51.877452973276377" lon="10.23458800278604">
        <ele>337.56</ele>
        <time>2017-05-22T14:49:09Z</time>
      </trkpt>
      <trkpt lat="51.877469988539815" lon="10.234895031899214">
        <ele>338.04000000000002</ele>
        <time>2017-05-22T14:49:10Z</time>
      </trkpt>
      <trkpt lat="51.877454984933138" lon="10.235156966373324">
        <ele>339.48000000000002</ele>
        <time>2017-05-22T14:49:11Z</time>
      </trkpt>
      <trkpt lat="51.877468982711434" lon="10.235741017386317">
        <ele>341.41000000000003</ele>
        <time>2017-05-22T14:49:14Z</time>
      </trkpt>
      <trkpt lat="51.877549029886723" lon="10.235817963257432">
        <ele>341.88999999999999</ele>
        <time>2017-05-22T14:49:15Z</time>
      </trkpt>
      <trkpt lat="51.877632010728121" lon="10.235831961035728">
        <ele>342.37</ele>
        <time>2017-05-22T14:49:16Z</time>
      </trkpt>
      <trkpt lat="51.877712979912758" lon="10.235771024599671">
        <ele>342.85000000000002</ele>
        <time>2017-05-22T14:49:17Z</time>
      </trkpt>
      <trkpt lat="51.877795038744807" lon="10.235642027109861">
        <ele>343.32999999999998</ele>
        <time>2017-05-22T14:49:18Z</time>
      </trkpt>
      <trkpt lat="51.877849018201232" lon="10.235461983829737">
        <ele>344.29000000000002</ele>
        <time>2017-05-22T14:49:19Z</time>
      </trkpt>
      <trkpt lat="51.87791196629405" lon="10.235261991620064">
        <ele>344.76999999999998</ele>
        <time>2017-05-22T14:49:20Z</time>
      </trkpt>
      <trkpt lat="51.877983966842294" lon="10.235019000247121">
        <ele>345.73000000000002</ele>
        <time>2017-05-22T14:49:21Z</time>
      </trkpt>
      <trkpt lat="51.878218995407224" lon="10.234218025580049">
        <ele>349.57999999999998</ele>
        <time>2017-05-22T14:49:25Z</time>
      </trkpt>
      <trkpt lat="51.878311028704047" lon="10.234119035303593">
        <ele>351.01999999999998</ele>
        <time>2017-05-22T14:49:26Z</time>
      </trkpt>
      <trkpt lat="51.878409013152122" lon="10.234088022261858">
        <ele>351.98000000000002</ele>
        <time>2017-05-22T14:49:27Z</time>
      </trkpt>
      <trkpt lat="51.878502974286675" lon="10.23411400616169">
        <ele>353.42000000000002</ele>
        <time>2017-05-22T14:49:28Z</time>
      </trkpt>
      <trkpt lat="51.878560977056623" lon="10.234206961467862">
        <ele>354.86000000000001</ele>
        <time>2017-05-22T14:49:29Z</time>
      </trkpt>
      <trkpt lat="51.87857698649168" lon="10.234428998082876">
        <ele>353.89999999999998</ele>
        <time>2017-05-22T14:49:30Z</time>
      </trkpt>
      <trkpt lat="51.878557037562132" lon="10.234643993899226">
        <ele>354.86000000000001</ele>
        <time>2017-05-22T14:49:31Z</time>
      </trkpt>
      <trkpt lat="51.878520995378494" lon="10.23488899692893">
        <ele>355.33999999999997</ele>
        <time>2017-05-22T14:49:32Z</time>
      </trkpt>
      <trkpt lat="51.878386968746781" lon="10.23574504069984">
        <ele>357.26999999999998</ele>
        <time>2017-05-22T14:49:35Z</time>
      </trkpt>
      <trkpt lat="51.878316979855299" lon="10.236035976558924">
        <ele>357.75</ele>
        <time>2017-05-22T14:49:36Z</time>
      </trkpt>
      <trkpt lat="51.878025960177183" lon="10.237091006711125">
        <ele>363.04000000000002</ele>
        <time>2017-05-22T14:49:40Z</time>
      </trkpt>
      <trkpt lat="51.878008022904396" lon="10.237350007519126">
        <ele>365.44</ele>
        <time>2017-05-22T14:49:41Z</time>
      </trkpt>
      <trkpt lat="51.878024032339454" lon="10.237629041075706">
        <ele>366.88</ele>
        <time>2017-05-22T14:49:42Z</time>
      </trkpt>
      <trkpt lat="51.878085974603891" lon="10.238215019926429">
        <ele>368.80000000000001</ele>
        <time>2017-05-22T14:49:44Z</time>
      </trkpt>
      <trkpt lat="51.87808102928102" lon="10.238505033776164">
        <ele>369.75999999999999</ele>
        <time>2017-05-22T14:49:45Z</time>
      </trkpt>
      <trkpt lat="51.878046998754144" lon="10.238789012655616">
        <ele>370.24000000000001</ele>
        <time>2017-05-22T14:49:46Z</time>
      </trkpt>
      <trkpt lat="51.877992013469338" lon="10.239070979878306">
        <ele>370.24000000000001</ele>
        <time>2017-05-22T14:49:47Z</time>
      </trkpt>
      <trkpt lat="51.877924036234617" lon="10.239369040355086">
        <ele>369.75999999999999</ele>
        <time>2017-05-22T14:49:48Z</time>
      </trkpt>
      <trkpt lat="51.877580964937806" lon="10.241146003827453">
        <ele>367.83999999999997</ele>
        <time>2017-05-22T14:49:53Z</time>
      </trkpt>
      <trkpt lat="51.876870011910796" lon="10.243827039375901">
        <ele>368.31999999999999</ele>
        <time>2017-05-22T14:50:00Z</time>
      </trkpt>
      <trkpt lat="51.875915983691812" lon="10.247095981612802">
        <ele>381.30000000000001</ele>
        <time>2017-05-22T14:50:09Z</time>
      </trkpt>
      <trkpt lat="51.87586703337729" lon="10.24741499684751">
        <ele>382.74000000000001</ele>
        <time>2017-05-22T14:50:10Z</time>
      </trkpt>
      <trkpt lat="51.875854041427374" lon="10.247761001810431">
        <ele>384.66000000000003</ele>
        <time>2017-05-22T14:50:11Z</time>
      </trkpt>
      <trkpt lat="51.875868961215019" lon="10.248099965974689">
        <ele>388.99000000000001</ele>
        <time>2017-05-22T14:50:12Z</time>
      </trkpt>
      <trkpt lat="51.875896034762263" lon="10.248434990644455">
        <ele>389.94999999999999</ele>
        <time>2017-05-22T14:50:13Z</time>
      </trkpt>
      <trkpt lat="51.875939033925533" lon="10.248763980343938">
        <ele>390.91000000000003</ele>
        <time>2017-05-22T14:50:14Z</time>
      </trkpt>
      <trkpt lat="51.875969041138887" lon="10.249078972265124">
        <ele>392.36000000000001</ele>
        <time>2017-05-22T14:50:15Z</time>
      </trkpt>
      <trkpt lat="51.876029977574944" lon="10.24969101883471">
        <ele>394.27999999999997</ele>
        <time>2017-05-22T14:50:17Z</time>
      </trkpt>
      <trkpt lat="51.876022014766932" lon="10.250020008534193">
        <ele>395.24000000000001</ele>
        <time>2017-05-22T14:50:18Z</time>
      </trkpt>
      <trkpt lat="51.875888993963599" lon="10.251086018979549">
        <ele>397.16000000000003</ele>
        <time>2017-05-22T14:50:21Z</time>
      </trkpt>
      <trkpt lat="51.875810036435723" lon="10.25145398452878">
        <ele>397.63999999999999</ele>
        <time>2017-05-22T14:50:22Z</time>
      </trkpt>
      <trkpt lat="51.875701993703842" lon="10.251827985048294">
        <ele>398.60000000000002</ele>
        <time>2017-05-22T14:50:23Z</time>
      </trkpt>
      <trkpt lat="51.875576013699174" lon="10.252195028588176">
        <ele>401.00999999999999</ele>
        <time>2017-05-22T14:50:24Z</time>
      </trkpt>
      <trkpt lat="51.875447016209364" lon="10.252516977488995">
        <ele>401.97000000000003</ele>
        <time>2017-05-22T14:50:25Z</time>
      </trkpt>
      <trkpt lat="51.875299997627735" lon="10.252802968025208">
        <ele>403.88999999999999</ele>
        <time>2017-05-22T14:50:26Z</time>
      </trkpt>
      <trkpt lat="51.875134035944939" lon="10.253060040995479">
        <ele>406.76999999999998</ele>
        <time>2017-05-22T14:50:27Z</time>
      </trkpt>
      <trkpt lat="51.874935971572995" lon="10.25325802154839">
        <ele>410.13999999999999</ele>
        <time>2017-05-22T14:50:28Z</time>
      </trkpt>
      <trkpt lat="51.874736985191703" lon="10.253415014594793">
        <ele>412.06</ele>
        <time>2017-05-22T14:50:29Z</time>
      </trkpt>
      <trkpt lat="51.874528024345636" lon="10.253531020134687">
        <ele>414.47000000000003</ele>
        <time>2017-05-22T14:50:30Z</time>
      </trkpt>
      <trkpt lat="51.874286960810423" lon="10.253606960177422">
        <ele>417.82999999999998</ele>
        <time>2017-05-22T14:50:31Z</time>
      </trkpt>
      <trkpt lat="51.874042963609099" lon="10.253620035946369">
        <ele>420.70999999999998</ele>
        <time>2017-05-22T14:50:32Z</time>
      </trkpt>
      <trkpt lat="51.873803995549679" lon="10.253625987097621">
        <ele>424.07999999999998</ele>
        <time>2017-05-22T14:50:33Z</time>
      </trkpt>
      <trkpt lat="51.873400993645191" lon="10.253635961562395">
        <ele>428.88999999999999</ele>
        <time>2017-05-22T14:50:35Z</time>
      </trkpt>
      <trkpt lat="51.873225979506969" lon="10.253719026222825">
        <ele>430.81</ele>
        <time>2017-05-22T14:50:36Z</time>
      </trkpt>
      <trkpt lat="51.873043002560735" lon="10.253845006227493">
        <ele>433.20999999999998</ele>
        <time>2017-05-22T14:50:37Z</time>
      </trkpt>
      <trkpt lat="51.872305981814861" lon="10.254517989233136">
        <ele>453.88</ele>
        <time>2017-05-22T14:50:42Z</time>
      </trkpt>
      <trkpt lat="51.872242027893662" lon="10.254625026136637">
        <ele>455.80000000000001</ele>
        <time>2017-05-22T14:50:43Z</time>
      </trkpt>
      <trkpt lat="51.872239010408521" lon="10.254757963120937">
        <ele>457.24000000000001</ele>
        <time>2017-05-22T14:50:44Z</time>
      </trkpt>
      <trkpt lat="51.872271029278636" lon="10.254877991974354">
        <ele>458.69</ele>
        <time>2017-05-22T14:50:45Z</time>
      </trkpt>
      <trkpt lat="51.872333977371454" lon="10.254995003342628">
        <ele>460.61000000000001</ele>
        <time>2017-05-22T14:50:46Z</time>
      </trkpt>
      <trkpt lat="51.872445959597826" lon="10.255036996677518">
        <ele>462.05000000000001</ele>
        <time>2017-05-22T14:50:47Z</time>
      </trkpt>
      <trkpt lat="51.8725819978863" lon="10.255045965313911">
        <ele>462.52999999999997</ele>
        <time>2017-05-22T14:50:48Z</time>
      </trkpt>
      <trkpt lat="51.872732033953071" lon="10.255033979192376">
        <ele>463.49000000000001</ele>
        <time>2017-05-22T14:50:49Z</time>
      </trkpt>
      <trkpt lat="51.872892966493964" lon="10.255016963928938">
        <ele>464.44999999999999</ele>
        <time>2017-05-22T14:50:50Z</time>
      </trkpt>
      <trkpt lat="51.873491015285254" lon="10.255059041082859">
        <ele>470.22000000000003</ele>
        <time>2017-05-22T14:50:54Z</time>
      </trkpt>
      <trkpt lat="51.873590005561709" lon="10.255184015259147">
        <ele>470.22000000000003</ele>
        <time>2017-05-22T14:50:55Z</time>
      </trkpt>
      <trkpt lat="51.873678015545011" lon="10.255328016355634">
        <ele>471.66000000000003</ele>
        <time>2017-05-22T14:50:56Z</time>
      </trkpt>
      <trkpt lat="51.873744986951351" lon="10.25551401078701">
        <ele>473.58999999999997</ele>
        <time>2017-05-22T14:50:57Z</time>
      </trkpt>
      <trkpt lat="51.873805001378059" lon="10.255737975239754">
        <ele>475.99000000000001</ele>
        <time>2017-05-22T14:50:58Z</time>
      </trkpt>
      <trkpt lat="51.873848000541329" lon="10.255999993532896">
        <ele>478.38999999999999</ele>
        <time>2017-05-22T14:50:59Z</time>
      </trkpt>
      <trkpt lat="51.874148994684219" lon="10.257848035544157">
        <ele>484.16000000000003</ele>
        <time>2017-05-22T14:51:06Z</time>
      </trkpt>
      <trkpt lat="51.874444037675858" lon="10.259771011769772">
        <ele>473.11000000000001</ele>
        <time>2017-05-22T14:51:12Z</time>
      </trkpt>
      <trkpt lat="51.874502040445805" lon="10.260439971461892">
        <ele>470.22000000000003</ele>
        <time>2017-05-22T14:51:14Z</time>
      </trkpt>
      <trkpt lat="51.874606981873512" lon="10.261708991602063">
        <ele>465.89999999999998</ele>
        <time>2017-05-22T14:51:18Z</time>
      </trkpt>
      <trkpt lat="51.874608993530273" lon="10.261974027380347">
        <ele>464.93000000000001</ele>
        <time>2017-05-22T14:51:19Z</time>
      </trkpt>
      <trkpt lat="51.874569011852145" lon="10.262235961854458">
        <ele>463.49000000000001</ele>
        <time>2017-05-22T14:51:20Z</time>
      </trkpt>
      <trkpt lat="51.874501034617424" lon="10.262473002076149">
        <ele>462.52999999999997</ele>
        <time>2017-05-22T14:51:21Z</time>
      </trkpt>
      <trkpt lat="51.874405983835459" lon="10.262678023427725">
        <ele>461.56999999999999</ele>
        <time>2017-05-22T14:51:22Z</time>
      </trkpt>
      <trkpt lat="51.874307999387383" lon="10.262882960960269">
        <ele>460.13</ele>
        <time>2017-05-22T14:51:23Z</time>
      </trkpt>
      <trkpt lat="51.874048998579383" lon="10.263309013098478">
        <ele>457.72000000000003</ele>
        <time>2017-05-22T14:51:25Z</time>
      </trkpt>
      <trkpt lat="51.873958976939321" lon="10.263593997806311">
        <ele>456.27999999999997</ele>
        <time>2017-05-22T14:51:26Z</time>
      </trkpt>
      <trkpt lat="51.873893011361361" lon="10.263855010271072">
        <ele>451.48000000000002</ele>
        <time>2017-05-22T14:51:27Z</time>
      </trkpt>
      <trkpt lat="51.873824028298259" lon="10.264164973050356">
        <ele>450.02999999999997</ele>
        <time>2017-05-22T14:51:28Z</time>
      </trkpt>
      <trkpt lat="51.873783962801099" lon="10.264464039355516">
        <ele>448.58999999999997</ele>
        <time>2017-05-22T14:51:29Z</time>
      </trkpt>
      <trkpt lat="51.873756973072886" lon="10.264761010184884">
        <ele>447.14999999999998</ele>
        <time>2017-05-22T14:51:30Z</time>
      </trkpt>
      <trkpt lat="51.87374004162848" lon="10.265052029863">
        <ele>445.70999999999998</ele>
        <time>2017-05-22T14:51:31Z</time>
      </trkpt>
      <trkpt lat="51.873775999993086" lon="10.266011003404856">
        <ele>439.94</ele>
        <time>2017-05-22T14:51:35Z</time>
      </trkpt>
      <trkpt lat="51.873821010813117" lon="10.266185011714697">
        <ele>439.45999999999998</ele>
        <time>2017-05-22T14:51:36Z</time>
      </trkpt>
      <trkpt lat="51.873879013583064" lon="10.266306968405843">
        <ele>438.98000000000002</ele>
        <time>2017-05-22T14:51:37Z</time>
      </trkpt>
      <trkpt lat="51.873972974717617" lon="10.266377963125706">
        <ele>438.01999999999998</ele>
        <time>2017-05-22T14:51:38Z</time>
      </trkpt>
      <trkpt lat="51.874165004119277" lon="10.266293976455927">
        <ele>437.06</ele>
        <time>2017-05-22T14:51:39Z</time>
      </trkpt>
      <trkpt lat="51.874327026307583" lon="10.266243014484644">
        <ele>436.10000000000002</ele>
        <time>2017-05-22T14:51:40Z</time>
      </trkpt>
      <trkpt lat="51.87449399381876" lon="10.266196997836232">
        <ele>434.64999999999998</ele>
        <time>2017-05-22T14:51:41Z</time>
      </trkpt>
      <trkpt lat="51.875262027606368" lon="10.265995999798179">
        <ele>428.39999999999998</ele>
        <time>2017-05-22T14:51:46Z</time>
      </trkpt>
      <trkpt lat="51.875358000397682" lon="10.266015026718378">
        <ele>427.92000000000002</ele>
        <time>2017-05-22T14:51:47Z</time>
      </trkpt>
      <trkpt lat="51.875428995117545" lon="10.266080992296338">
        <ele>426.48000000000002</ele>
        <time>2017-05-22T14:51:48Z</time>
      </trkpt>
      <trkpt lat="51.875465037301183" lon="10.266160033643246">
        <ele>425.51999999999998</ele>
        <time>2017-05-22T14:51:49Z</time>
      </trkpt>
      <trkpt lat="51.875475011765957" lon="10.26625600643456">
        <ele>424.07999999999998</ele>
        <time>2017-05-22T14:51:50Z</time>
      </trkpt>
      <trkpt lat="51.875448022037745" lon="10.266371006146073">
        <ele>423.60000000000002</ele>
        <time>2017-05-22T14:51:51Z</time>
      </trkpt>
      <trkpt lat="51.875385995954275" lon="10.266477959230542">
        <ele>422.63999999999999</ele>
        <time>2017-05-22T14:51:52Z</time>
      </trkpt>
      <trkpt lat="51.875262027606368" lon="10.266567980870605">
        <ele>422.16000000000003</ele>
        <time>2017-05-22T14:51:53Z</time>
      </trkpt>
      <trkpt lat="51.875109979882836" lon="10.266634030267596">
        <ele>421.19</ele>
        <time>2017-05-22T14:51:54Z</time>
      </trkpt>
      <trkpt lat="51.874948041513562" lon="10.266714999452233">
        <ele>420.70999999999998</ele>
        <time>2017-05-22T14:51:55Z</time>
      </trkpt>
      <trkpt lat="51.874418975785375" lon="10.267018005251884">
        <ele>417.82999999999998</ele>
        <time>2017-05-22T14:51:58Z</time>
      </trkpt>
      <trkpt lat="51.874243039637804" lon="10.267200982198119">
        <ele>416.87</ele>
        <time>2017-05-22T14:51:59Z</time>
      </trkpt>
      <trkpt lat="51.87309798784554" lon="10.268773008137941">
        <ele>405.81</ele>
        <time>2017-05-22T14:52:05Z</time>
      </trkpt>
      <trkpt lat="51.872934959828854" lon="10.269121024757624">
        <ele>404.37</ele>
        <time>2017-05-22T14:52:06Z</time>
      </trkpt>
      <trkpt lat="51.872793976217508" lon="10.269496031105518">
        <ele>402.93000000000001</ele>
        <time>2017-05-22T14:52:07Z</time>
      </trkpt>
      <trkpt lat="51.871989984065294" lon="10.271511962637305">
        <ele>392.36000000000001</ele>
        <time>2017-05-22T14:52:13Z</time>
      </trkpt>
      <trkpt lat="51.87176501378417" lon="10.272089978680015">
        <ele>387.55000000000001</ele>
        <time>2017-05-22T14:52:15Z</time>
      </trkpt>
      <trkpt lat="51.871691001579165" lon="10.272386027500033">
        <ele>386.11000000000001</ele>
        <time>2017-05-22T14:52:16Z</time>
      </trkpt>
      <trkpt lat="51.871641967445612" lon="10.272655002772808">
        <ele>383.22000000000003</ele>
        <time>2017-05-22T14:52:17Z</time>
      </trkpt>
      <trkpt lat="51.871619001030922" lon="10.272984998300672">
        <ele>381.30000000000001</ele>
        <time>2017-05-22T14:52:18Z</time>
      </trkpt>
      <trkpt lat="51.871598968282342" lon="10.273319017142057">
        <ele>379.86000000000001</ele>
        <time>2017-05-22T14:52:19Z</time>
      </trkpt>
      <trkpt lat="51.871577007696033" lon="10.27362504042685">
        <ele>377.94</ele>
        <time>2017-05-22T14:52:20Z</time>
      </trkpt>
      <trkpt lat="51.871530991047621" lon="10.273918993771076">
        <ele>376.49000000000001</ele>
        <time>2017-05-22T14:52:21Z</time>
      </trkpt>
      <trkpt lat="51.871453961357474" lon="10.274214036762714">
        <ele>374.56999999999999</ele>
        <time>2017-05-22T14:52:22Z</time>
      </trkpt>
      <trkpt lat="51.87103402800858" lon="10.275712972506881">
        <ele>366.39999999999998</ele>
        <time>2017-05-22T14:52:27Z</time>
      </trkpt>
      <trkpt lat="51.87099102884531" lon="10.276027964428067">
        <ele>364.48000000000002</ele>
        <time>2017-05-22T14:52:28Z</time>
      </trkpt>
      <trkpt lat="51.870967978611588" lon="10.276328958570957">
        <ele>363.04000000000002</ele>
        <time>2017-05-22T14:52:29Z</time>
      </trkpt>
      <trkpt lat="51.870963033288717" lon="10.276630958542228">
        <ele>362.06999999999999</ele>
        <time>2017-05-22T14:52:30Z</time>
      </trkpt>
      <trkpt lat="51.870968984439969" lon="10.276958020403981">
        <ele>360.63</ele>
        <time>2017-05-22T14:52:31Z</time>
      </trkpt>
      <trkpt lat="51.871079038828611" lon="10.277985977008939">
        <ele>353.89999999999998</ele>
        <time>2017-05-22T14:52:34Z</time>
      </trkpt>
      <trkpt lat="51.871290011331439" lon="10.278849983587861">
        <ele>348.13</ele>
        <time>2017-05-22T14:52:37Z</time>
      </trkpt>
      <trkpt lat="51.871391013264656" lon="10.279069002717733">
        <ele>345.73000000000002</ele>
        <time>2017-05-22T14:52:38Z</time>
      </trkpt>
      <trkpt lat="51.871515987440944" lon="10.279283998534083">
        <ele>343.32999999999998</ele>
        <time>2017-05-22T14:52:39Z</time>
      </trkpt>
      <trkpt lat="51.871971040964127" lon="10.279933009296656">
        <ele>337.07999999999998</ele>
        <time>2017-05-22T14:52:42Z</time>
      </trkpt>
      <trkpt lat="51.872891038656235" lon="10.280657960101962">
        <ele>327.47000000000003</ele>
        <time>2017-05-22T14:52:47Z</time>
      </trkpt>
      <trkpt lat="51.873113997280598" lon="10.280763991177082">
        <ele>325.54000000000002</ele>
        <time>2017-05-22T14:52:48Z</time>
      </trkpt>
      <trkpt lat="51.87421303242445" lon="10.281329015269876">
        <ele>319.30000000000001</ele>
        <time>2017-05-22T14:52:53Z</time>
      </trkpt>
      <trkpt lat="51.874405983835459" lon="10.28153101913631">
        <ele>317.85000000000002</ele>
        <time>2017-05-22T14:52:54Z</time>
      </trkpt>
      <trkpt lat="51.875464031472802" lon="10.282613961026073">
        <ele>309.19999999999999</ele>
        <time>2017-05-22T14:53:00Z</time>
      </trkpt>
      <trkpt lat="51.876581003889441" lon="10.283514009788632">
        <ele>299.11000000000001</ele>
        <time>2017-05-22T14:53:07Z</time>
      </trkpt>
      <trkpt lat="51.877041002735496" lon="10.283969985321164">
        <ele>293.33999999999997</ele>
        <time>2017-05-22T14:53:11Z</time>
      </trkpt>
      <trkpt lat="51.877264967188239" lon="10.284254970028996">
        <ele>292.38</ele>
        <time>2017-05-22T14:53:16Z</time>
      </trkpt>
      <trkpt lat="51.877315007150173" lon="10.284220017492771">
        <ele>290.94</ele>
        <time>2017-05-22T14:53:17Z</time>
      </trkpt>
      <trkpt lat="51.877381978556514" lon="10.28413200750947">
        <ele>289.49000000000001</ele>
        <time>2017-05-22T14:53:18Z</time>
      </trkpt>
      <trkpt lat="51.877450961619616" lon="10.284032011404634">
        <ele>289.00999999999999</ele>
        <time>2017-05-22T14:53:19Z</time>
      </trkpt>
      <trkpt lat="51.877530002966523" lon="10.283901002258062">
        <ele>288.52999999999997</ele>
        <time>2017-05-22T14:53:20Z</time>
      </trkpt>
      <trkpt lat="51.878180019557476" lon="10.2828439604491">
        <ele>286.61000000000001</ele>
        <time>2017-05-22T14:53:26Z</time>
      </trkpt>
      <trkpt lat="51.879459014162421" lon="10.281136985868216">
        <ele>282.76999999999998</ele>
        <time>2017-05-22T14:53:34Z</time>
      </trkpt>
      <trkpt lat="51.88143203034997" lon="10.27962002903223">
        <ele>277</ele>
        <time>2017-05-22T14:53:43Z</time>
      </trkpt>
      <trkpt lat="51.882671965286136" lon="10.279555991292">
        <ele>275.06999999999999</ele>
        <time>2017-05-22T14:53:49Z</time>
      </trkpt>
      <trkpt lat="51.88375499099493" lon="10.280261998996139">
        <ele>275.06999999999999</ele>
        <time>2017-05-22T14:53:55Z</time>
      </trkpt>
      <trkpt lat="51.885605966672301" lon="10.281896973028779">
        <ele>272.67000000000002</ele>
        <time>2017-05-22T14:54:04Z</time>
      </trkpt>
      <trkpt lat="51.885968986898661" lon="10.28215697966516">
        <ele>272.67000000000002</ele>
        <time>2017-05-22T14:54:06Z</time>
      </trkpt>
      <trkpt lat="51.886136960238218" lon="10.282210959121585">
        <ele>272.19</ele>
        <time>2017-05-22T14:54:07Z</time>
      </trkpt>
      <trkpt lat="51.886312980204821" lon="10.282210037112236">
        <ele>272.19</ele>
        <time>2017-05-22T14:54:08Z</time>
      </trkpt>
      <trkpt lat="51.886492017656565" lon="10.282166032120585">
        <ele>272.19</ele>
        <time>2017-05-22T14:54:09Z</time>
      </trkpt>
      <trkpt lat="51.886666025966406" lon="10.282078022137284">
        <ele>272.19</ele>
        <time>2017-05-22T14:54:10Z</time>
      </trkpt>
      <trkpt lat="51.886830981820822" lon="10.281943995505571">
        <ele>272.19</ele>
        <time>2017-05-22T14:54:11Z</time>
      </trkpt>
      <trkpt lat="51.886982023715973" lon="10.281759006902575">
        <ele>271.70999999999998</ele>
        <time>2017-05-22T14:54:12Z</time>
      </trkpt>
      <trkpt lat="51.887149997055531" lon="10.281528001651168">
        <ele>272.67000000000002</ele>
        <time>2017-05-22T14:54:13Z</time>
      </trkpt>
      <trkpt lat="51.887306990101933" lon="10.281246034428477">
        <ele>272.19</ele>
        <time>2017-05-22T14:54:14Z</time>
      </trkpt>
      <trkpt lat="51.887445962056518" lon="10.28093297034502">
        <ele>271.23000000000002</ele>
        <time>2017-05-22T14:54:15Z</time>
      </trkpt>
      <trkpt lat="51.887565990909934" lon="10.280595012009144">
        <ele>270.26999999999998</ele>
        <time>2017-05-22T14:54:16Z</time>
      </trkpt>
      <trkpt lat="51.887681996449828" lon="10.280225034803152">
        <ele>269.79000000000002</ele>
        <time>2017-05-22T14:54:17Z</time>
      </trkpt>
      <trkpt lat="51.888475008308887" lon="10.277897967025638">
        <ele>264.98000000000002</ele>
        <time>2017-05-22T14:54:24Z</time>
      </trkpt>
      <trkpt lat="51.888922015205026" lon="10.277100009843707">
        <ele>264.01999999999998</ele>
        <time>2017-05-22T14:54:27Z</time>
      </trkpt>
      <trkpt lat="51.889108009636402" lon="10.276900017634034">
        <ele>264.01999999999998</ele>
        <time>2017-05-22T14:54:28Z</time>
      </trkpt>
      <trkpt lat="51.889337003231049" lon="10.276749981567264">
        <ele>263.54000000000002</ele>
        <time>2017-05-22T14:54:29Z</time>
      </trkpt>
      <trkpt lat="51.889561973512173" lon="10.276595000177622">
        <ele>263.54000000000002</ele>
        <time>2017-05-22T14:54:30Z</time>
      </trkpt>
      <trkpt lat="51.889793984591961" lon="10.276458961889148">
        <ele>263.54000000000002</ele>
        <time>2017-05-22T14:54:31Z</time>
      </trkpt>
      <trkpt lat="51.891497019678354" lon="10.275807017460465">
        <ele>262.57999999999998</ele>
        <time>2017-05-22T14:54:38Z</time>
      </trkpt>
      <trkpt lat="51.893426030874252" lon="10.274852989241481">
        <ele>261.13999999999999</ele>
        <time>2017-05-22T14:54:47Z</time>
      </trkpt>
      <trkpt lat="51.895306007936597" lon="10.274289976805449">
        <ele>260.64999999999998</ele>
        <time>2017-05-22T14:54:55Z</time>
      </trkpt>
      <trkpt lat="51.897367034107447" lon="10.274493992328644">
        <ele>264.01999999999998</ele>
        <time>2017-05-22T14:55:03Z</time>
      </trkpt>
      <trkpt lat="51.899638026952744" lon="10.275025991722941">
        <ele>266.42000000000002</ele>
        <time>2017-05-22T14:55:12Z</time>
      </trkpt>
      <trkpt lat="51.901303008198738" lon="10.276085967198014">
        <ele>265.45999999999998</ele>
        <time>2017-05-22T14:55:19Z</time>
      </trkpt>
      <trkpt lat="51.903836019337177" lon="10.27805102057755">
        <ele>260.17000000000002</ele>
        <time>2017-05-22T14:55:29Z</time>
      </trkpt>
      <trkpt lat="51.90521702170372" lon="10.278749987483025">
        <ele>262.57999999999998</ele>
        <time>2017-05-22T14:55:35Z</time>
      </trkpt>
      <trkpt lat="51.906395014375448" lon="10.279766963794827">
        <ele>264.5</ele>
        <time>2017-05-22T14:55:42Z</time>
      </trkpt>
      <trkpt lat="51.907355999574065" lon="10.281232036650181">
        <ele>263.06</ele>
        <time>2017-05-22T14:55:48Z</time>
      </trkpt>
      <trkpt lat="51.907983971759677" lon="10.283030960708857">
        <ele>260.17000000000002</ele>
        <time>2017-05-22T14:55:54Z</time>
      </trkpt>
      <trkpt lat="51.908406000584364" lon="10.285815009847283">
        <ele>258.25</ele>
        <time>2017-05-22T14:56:02Z</time>
      </trkpt>
      <trkpt lat="51.908668018877506" lon="10.287541011348367">
        <ele>257.76999999999998</ele>
        <time>2017-05-22T14:56:07Z</time>
      </trkpt>
      <trkpt lat="51.909271012991667" lon="10.28950204141438">
        <ele>257.76999999999998</ele>
        <time>2017-05-22T14:56:14Z</time>
      </trkpt>
      <trkpt lat="51.91039502620697" lon="10.292654978111386">
        <ele>258.25</ele>
        <time>2017-05-22T14:56:27Z</time>
      </trkpt>
      <trkpt lat="51.911184014752507" lon="10.29509000480175">
        <ele>258.73000000000002</ele>
        <time>2017-05-22T14:56:38Z</time>
      </trkpt>
      <trkpt lat="51.911979038268328" lon="10.297779003158212">
        <ele>259.20999999999998</ele>
        <time>2017-05-22T14:56:50Z</time>
      </trkpt>
      <trkpt lat="51.912655038759112" lon="10.29996701516211">
        <ele>256.32999999999998</ele>
        <time>2017-05-22T14:57:00Z</time>
      </trkpt>
      <trkpt lat="51.913716020062566" lon="10.302614020183682">
        <ele>245.27000000000001</ele>
        <time>2017-05-22T14:57:10Z</time>
      </trkpt>
      <trkpt lat="51.914726961404085" lon="10.304182022809982">
        <ele>236.62</ele>
        <time>2017-05-22T14:57:18Z</time>
      </trkpt>
      <trkpt lat="51.916065970435739" lon="10.305191958323121">
        <ele>228.44999999999999</ele>
        <time>2017-05-22T14:57:26Z</time>
      </trkpt>
      <trkpt lat="51.91742098890245" lon="10.305376024916768">
        <ele>223.16</ele>
        <time>2017-05-22T14:57:33Z</time>
      </trkpt>
      <trkpt lat="51.918927971273661" lon="10.305880028754473">
        <ele>221.72</ele>
        <time>2017-05-22T14:57:42Z</time>
      </trkpt>
      <trkpt lat="51.919995993375778" lon="10.307029020041227">
        <ele>222.68000000000001</ele>
        <time>2017-05-22T14:57:50Z</time>
      </trkpt>
      <trkpt lat="51.921145990490913" lon="10.308543965220451">
        <ele>218.84</ele>
        <time>2017-05-22T14:57:58Z</time>
      </trkpt>
      <trkpt lat="51.923207016661763" lon="10.31133396551013">
        <ele>214.99000000000001</ele>
        <time>2017-05-22T14:58:12Z</time>
      </trkpt>
      <trkpt lat="51.925610024482012" lon="10.313869994133711">
        <ele>213.06999999999999</ele>
        <time>2017-05-22T14:58:28Z</time>
      </trkpt>
      <trkpt lat="51.928059970960021" lon="10.316454973071814">
        <ele>211.63</ele>
        <time>2017-05-22T14:58:45Z</time>
      </trkpt>
      <trkpt lat="51.929138973355293" lon="10.317740002647042">
        <ele>209.69999999999999</ele>
        <time>2017-05-22T14:58:54Z</time>
      </trkpt>
      <trkpt lat="51.929361009970307" lon="10.318033033981919">
        <ele>209.22</ele>
        <time>2017-05-22T14:58:57Z</time>
      </trkpt>
      <trkpt lat="51.929429993033409" lon="10.318052982911468">
        <ele>209.22</ele>
        <time>2017-05-22T14:58:58Z</time>
      </trkpt>
      <trkpt lat="51.929486989974976" lon="10.318043008446693">
        <ele>208.74000000000001</ele>
        <time>2017-05-22T14:58:59Z</time>
      </trkpt>
      <trkpt lat="51.929544992744923" lon="10.317964972928166">
        <ele>208.74000000000001</ele>
        <time>2017-05-22T14:59:00Z</time>
      </trkpt>
      <trkpt lat="51.929598972201347" lon="10.317857014015317">
        <ele>208.74000000000001</ele>
        <time>2017-05-22T14:59:01Z</time>
      </trkpt>
      <trkpt lat="51.92966896109283" lon="10.317720975726843">
        <ele>208.74000000000001</ele>
        <time>2017-05-22T14:59:02Z</time>
      </trkpt>
      <trkpt lat="51.929969033226371" lon="10.317306993529201">
        <ele>209.22</ele>
        <time>2017-05-22T14:59:05Z</time>
      </trkpt>
      <trkpt lat="51.93009601905942" lon="10.317238010466099">
        <ele>209.22</ele>
        <time>2017-05-22T14:59:06Z</time>
      </trkpt>
      <trkpt lat="51.930227028205991" lon="10.317222001031041">
        <ele>210.19</ele>
        <time>2017-05-22T14:59:07Z</time>
      </trkpt>
      <trkpt lat="51.930346973240376" lon="10.317256031557918">
        <ele>210.19</ele>
        <time>2017-05-22T14:59:08Z</time>
      </trkpt>
      <trkpt lat="51.930439006537199" lon="10.317346975207329">
        <ele>210.66999999999999</ele>
        <time>2017-05-22T14:59:09Z</time>
      </trkpt>
      <trkpt lat="51.930499020963907" lon="10.317473039031029">
        <ele>210.66999999999999</ele>
        <time>2017-05-22T14:59:10Z</time>
      </trkpt>
      <trkpt lat="51.930541014298797" lon="10.317621985450387">
        <ele>210.66999999999999</ele>
        <time>2017-05-22T14:59:11Z</time>
      </trkpt>
      <trkpt lat="51.93054998293519" lon="10.317772021517158">
        <ele>210.66999999999999</ele>
        <time>2017-05-22T14:59:12Z</time>
      </trkpt>
      <trkpt lat="51.930534979328513" lon="10.317944018170238">
        <ele>211.63</ele>
        <time>2017-05-22T14:59:13Z</time>
      </trkpt>
      <trkpt lat="51.930488040670753" lon="10.31812003813684">
        <ele>212.11000000000001</ele>
        <time>2017-05-22T14:59:14Z</time>
      </trkpt>
      <trkpt lat="51.930406987667084" lon="10.318284993991256">
        <ele>212.11000000000001</ele>
        <time>2017-05-22T14:59:15Z</time>
      </trkpt>
      <trkpt lat="51.930289976298809" lon="10.318449027836323">
        <ele>212.59</ele>
        <time>2017-05-22T14:59:16Z</time>
      </trkpt>
      <trkpt lat="51.93016198463738" lon="10.3186159953475">
        <ele>212.59</ele>
        <time>2017-05-22T14:59:17Z</time>
      </trkpt>
      <trkpt lat="51.929098991677165" lon="10.320304026827216">
        <ele>213.55000000000001</ele>
        <time>2017-05-22T14:59:24Z</time>
      </trkpt>
      <trkpt lat="51.928065000101924" lon="10.322863021865487">
        <ele>214.50999999999999</ele>
        <time>2017-05-22T14:59:31Z</time>
      </trkpt>
      <trkpt lat="51.927529983222485" lon="10.325590996071696">
        <ele>215.47</ele>
        <time>2017-05-22T14:59:37Z</time>
      </trkpt>
      <trkpt lat="51.927546998485923" lon="10.328464983031154">
        <ele>216.91</ele>
        <time>2017-05-22T14:59:43Z</time>
      </trkpt>
      <trkpt lat="51.928089978173375" lon="10.331164039671421">
        <ele>214.99000000000001</ele>
        <time>2017-05-22T14:59:49Z</time>
      </trkpt>
      <trkpt lat="51.929222038015723" lon="10.335719017311931">
        <ele>213.06999999999999</ele>
        <time>2017-05-22T15:00:00Z</time>
      </trkpt>
      <trkpt lat="51.929348018020391" lon="10.338622005656362">
        <ele>209.69999999999999</ele>
        <time>2017-05-22T15:00:07Z</time>
      </trkpt>
      <trkpt lat="51.929029002785683" lon="10.341961020603776">
        <ele>203.94</ele>
        <time>2017-05-22T15:00:15Z</time>
      </trkpt>
      <trkpt lat="51.928322995081544" lon="10.344800977036357">
        <ele>202.97999999999999</ele>
        <time>2017-05-22T15:00:22Z</time>
      </trkpt>
      <trkpt lat="51.927117006853223" lon="10.347593994811177">
        <ele>203.94</ele>
        <time>2017-05-22T15:00:30Z</time>
      </trkpt>
      <trkpt lat="51.925507010892034" lon="10.349905975162983">
        <ele>204.41999999999999</ele>
        <time>2017-05-22T15:00:38Z</time>
      </trkpt>
      <trkpt lat="51.923342971131206" lon="10.352848023176193">
        <ele>209.22</ele>
        <time>2017-05-22T15:00:49Z</time>
      </trkpt>
      <trkpt lat="51.922103958204389" lon="10.355655960738659">
        <ele>212.59</ele>
        <time>2017-05-22T15:00:57Z</time>
      </trkpt>
      <trkpt lat="51.921255039051175" lon="10.359058007597923">
        <ele>215.94999999999999</ele>
        <time>2017-05-22T15:01:05Z</time>
      </trkpt>
      <trkpt lat="51.919735986739397" lon="10.366299971938133">
        <ele>228.44999999999999</ele>
        <time>2017-05-22T15:01:22Z</time>
      </trkpt>
      <trkpt lat="51.918938029557467" lon="10.371465990319848">
        <ele>237.58000000000001</ele>
        <time>2017-05-22T15:01:34Z</time>
      </trkpt>
      <trkpt lat="51.919018998742104" lon="10.375046990811825">
        <ele>240.94999999999999</ele>
        <time>2017-05-22T15:01:42Z</time>
      </trkpt>
      <trkpt lat="51.919599026441574" lon="10.378287015482783">
        <ele>239.50999999999999</ele>
        <time>2017-05-22T15:01:50Z</time>
      </trkpt>
      <trkpt lat="51.920618014410138" lon="10.381372980773449">
        <ele>235.66</ele>
        <time>2017-05-22T15:01:59Z</time>
      </trkpt>
      <trkpt lat="51.921920981258154" lon="10.385107034817338">
        <ele>229.41</ele>
        <time>2017-05-22T15:02:11Z</time>
      </trkpt>
      <trkpt lat="51.922539984807372" lon="10.387485986575484">
        <ele>225.56999999999999</ele>
        <time>2017-05-22T15:02:19Z</time>
      </trkpt>
      <trkpt lat="51.922520035877824" lon="10.389726972207427">
        <ele>223.16</ele>
        <time>2017-05-22T15:02:26Z</time>
      </trkpt>
      <trkpt lat="51.922035980969667" lon="10.391744999215007">
        <ele>224.12</ele>
        <time>2017-05-22T15:02:33Z</time>
      </trkpt>
      <trkpt lat="51.92107499577105" lon="10.394826019182801">
        <ele>227.97</ele>
        <time>2017-05-22T15:02:45Z</time>
      </trkpt>
      <trkpt lat="51.920229010283947" lon="10.398177020251751">
        <ele>233.25999999999999</ele>
        <time>2017-05-22T15:02:57Z</time>
      </trkpt>
      <trkpt lat="51.919456031173468" lon="10.40148401632905">
        <ele>237.09999999999999</ele>
        <time>2017-05-22T15:03:09Z</time>
      </trkpt>
      <trkpt lat="51.91851600073278" lon="10.403958018869162">
        <ele>241.43000000000001</ele>
        <time>2017-05-22T15:03:18Z</time>
      </trkpt>
      <trkpt lat="51.917988024652004" lon="10.406245021149516">
        <ele>243.34999999999999</ele>
        <time>2017-05-22T15:03:25Z</time>
      </trkpt>
      <trkpt lat="51.917345970869064" lon="10.408570999279618">
        <ele>246.22999999999999</ele>
        <time>2017-05-22T15:03:32Z</time>
      </trkpt>
      <trkpt lat="51.91666703671217" lon="10.409961976110935">
        <ele>249.12</ele>
        <time>2017-05-22T15:03:38Z</time>
      </trkpt>
      <trkpt lat="51.916285995393991" lon="10.410611992701888">
        <ele>251.03999999999999</ele>
        <time>2017-05-22T15:03:42Z</time>
      </trkpt>
      <trkpt lat="51.916203014552593" lon="10.410752976313233">
        <ele>251.03999999999999</ele>
        <time>2017-05-22T15:03:43Z</time>
      </trkpt>
      <trkpt lat="51.915196012705564" lon="10.412004981189966">
        <ele>251.03999999999999</ele>
        <time>2017-05-22T15:03:53Z</time>
      </trkpt>
      <trkpt lat="51.914337035268545" lon="10.412830011919141">
        <ele>248.63999999999999</ele>
        <time>2017-05-22T15:04:02Z</time>
      </trkpt>
      <trkpt lat="51.914250031113625" lon="10.412950962781906">
        <ele>248.63999999999999</ele>
        <time>2017-05-22T15:04:03Z</time>
      </trkpt>
      <trkpt lat="51.914150035008788" lon="10.413074009120464">
        <ele>249.59999999999999</ele>
        <time>2017-05-22T15:04:04Z</time>
      </trkpt>
      <trkpt lat="51.914080968126655" lon="10.413244999945164">
        <ele>249.59999999999999</ele>
        <time>2017-05-22T15:04:05Z</time>
      </trkpt>
      <trkpt lat="51.914021959528327" lon="10.413415990769863">
        <ele>250.08000000000001</ele>
        <time>2017-05-22T15:04:06Z</time>
      </trkpt>
      <trkpt lat="51.913967980071902" lon="10.413587987422943">
        <ele>250.56</ele>
        <time>2017-05-22T15:04:07Z</time>
      </trkpt>
      <trkpt lat="51.913313018158078" lon="10.414876034483314">
        <ele>250.56</ele>
        <time>2017-05-22T15:04:16Z</time>
      </trkpt>
      <trkpt lat="51.912445994094014" lon="10.416047992184758">
        <ele>253.93000000000001</ele>
        <time>2017-05-22T15:04:27Z</time>
      </trkpt>
      <trkpt lat="51.912309033796191" lon="10.416222000494599">
        <ele>252.96000000000001</ele>
        <time>2017-05-22T15:04:35Z</time>
      </trkpt>
      <trkpt lat="51.912205014377832" lon="10.416344963014126">
        <ele>252.96000000000001</ele>
        <time>2017-05-22T15:04:55Z</time>
      </trkpt>
      <trkpt lat="51.912109963595867" lon="10.416514026001096">
        <ele>252.47999999999999</ele>
        <time>2017-05-22T15:05:03Z</time>
      </trkpt>
      <trkpt lat="51.912104012444615" lon="10.416574040427804">
        <ele>252.47999999999999</ele>
        <time>2017-05-22T15:05:04Z</time>
      </trkpt>
      <trkpt lat="51.91211499273777" lon="10.416649980470538">
        <ele>252.47999999999999</ele>
        <time>2017-05-22T15:05:05Z</time>
      </trkpt>
      <trkpt lat="51.91213795915246" lon="10.416715024039149">
        <ele>252.47999999999999</ele>
        <time>2017-05-22T15:05:06Z</time>
      </trkpt>
      <trkpt lat="51.912184981629252" lon="10.416769003495574">
        <ele>252.47999999999999</ele>
        <time>2017-05-22T15:05:07Z</time>
      </trkpt>
      <trkpt lat="51.912247007712722" lon="10.416815020143986">
        <ele>252.47999999999999</ele>
        <time>2017-05-22T15:05:08Z</time>
      </trkpt>
      <trkpt lat="51.912916973233223" lon="10.417517004534602">
        <ele>250.56</ele>
        <time>2017-05-22T15:05:16Z</time>
      </trkpt>
      <trkpt lat="51.913365991786122" lon="10.418625008314848">
        <ele>250.56</ele>
        <time>2017-05-22T15:05:23Z</time>
      </trkpt>
      <trkpt lat="51.913734041154385" lon="10.419436963275075">
        <ele>250.08000000000001</ele>
        <time>2017-05-22T15:05:33Z</time>
      </trkpt>
      <trkpt lat="51.913777040317655" lon="10.419470993801951">
        <ele>251.03999999999999</ele>
        <time>2017-05-22T15:05:43Z</time>
      </trkpt>
      <trkpt lat="51.913824984803796" lon="10.419623041525483">
        <ele>252</ele>
        <time>2017-05-22T15:05:46Z</time>
      </trkpt>
      <trkpt lat="51.913824984803796" lon="10.419711973518133">
        <ele>252</ele>
        <time>2017-05-22T15:05:47Z</time>
      </trkpt>
      <trkpt lat="51.913806041702628" lon="10.419798977673054">
        <ele>252</ele>
        <time>2017-05-22T15:05:48Z</time>
      </trkpt>
      <trkpt lat="51.913777962327003" lon="10.419867038726807">
        <ele>250.56</ele>
        <time>2017-05-22T15:05:49Z</time>
      </trkpt>
      <trkpt lat="51.913729012012482" lon="10.41996200568974">
        <ele>251.03999999999999</ele>
        <time>2017-05-22T15:05:50Z</time>
      </trkpt>
      <trkpt lat="51.913672015070915" lon="10.420051021501422">
        <ele>251.03999999999999</ele>
        <time>2017-05-22T15:05:51Z</time>
      </trkpt>
      <trkpt lat="51.913603032007813" lon="10.420149005949497">
        <ele>251.03999999999999</ele>
        <time>2017-05-22T15:05:52Z</time>
      </trkpt>
      <trkpt lat="51.912678005173802" lon="10.421436969190836">
        <ele>253.93000000000001</ele>
        <time>2017-05-22T15:06:04Z</time>
      </trkpt>
      <trkpt lat="51.912277014926076" lon="10.421969974413514">
        <ele>256.32999999999998</ele>
        <time>2017-05-22T15:06:12Z</time>
      </trkpt>
      <trkpt lat="51.911993036046624" lon="10.42236702516675">
        <ele>257.29000000000002</ele>
        <time>2017-05-22T15:06:20Z</time>
      </trkpt>
      <trkpt lat="51.911222990602255" lon="10.423434963449836">
        <ele>258.25</ele>
        <time>2017-05-22T15:06:31Z</time>
      </trkpt>
      <trkpt lat="51.910624019801617" lon="10.42490397579968">
        <ele>258.73000000000002</ele>
        <time>2017-05-22T15:06:42Z</time>
      </trkpt>
      <trkpt lat="51.910375999286771" lon="10.426951004192233">
        <ele>265.94</ele>
        <time>2017-05-22T15:06:53Z</time>
      </trkpt>
      <trkpt lat="51.910418998450041" lon="10.427713003009558">
        <ele>268.82999999999998</ele>
        <time>2017-05-22T15:06:57Z</time>
      </trkpt>
      <trkpt lat="51.910444982349873" lon="10.427902014926076">
        <ele>269.79000000000002</ele>
        <time>2017-05-22T15:06:58Z</time>
      </trkpt>
      <trkpt lat="51.910924008116126" lon="10.429793978109956">
        <ele>273.63</ele>
        <time>2017-05-22T15:07:09Z</time>
      </trkpt>
      <trkpt lat="51.91123497672379" lon="10.43143498711288">
        <ele>269.31</ele>
        <time>2017-05-22T15:07:18Z</time>
      </trkpt>
      <trkpt lat="51.911330027505755" lon="10.432324977591634">
        <ele>265.94</ele>
        <time>2017-05-22T15:07:23Z</time>
      </trkpt>
      <trkpt lat="51.911692041903734" lon="10.434074029326439">
        <ele>256.81</ele>
        <time>2017-05-22T15:07:33Z</time>
      </trkpt>
      <trkpt lat="51.912030000239611" lon="10.437037032097578">
        <ele>246.22999999999999</ele>
        <time>2017-05-22T15:07:48Z</time>
      </trkpt>
      <trkpt lat="51.91202899441123" lon="10.43723501265049">
        <ele>245.27000000000001</ele>
        <time>2017-05-22T15:07:49Z</time>
      </trkpt>
      <trkpt lat="51.912011979147792" lon="10.437426036223769">
        <ele>244.31</ele>
        <time>2017-05-22T15:07:50Z</time>
      </trkpt>
      <trkpt lat="51.911979038268328" lon="10.43760297819972">
        <ele>243.83000000000001</ele>
        <time>2017-05-22T15:07:51Z</time>
      </trkpt>
      <trkpt lat="51.911885999143124" lon="10.437901960685849">
        <ele>242.87</ele>
        <time>2017-05-22T15:07:53Z</time>
      </trkpt>
      <trkpt lat="51.911829002201557" lon="10.438016960397363">
        <ele>242.38999999999999</ele>
        <time>2017-05-22T15:07:54Z</time>
      </trkpt>
      <trkpt lat="51.911764964461327" lon="10.438130032271147">
        <ele>241.91</ele>
        <time>2017-05-22T15:07:55Z</time>
      </trkpt>
      <trkpt lat="51.911695981398225" lon="10.438217036426067">
        <ele>241.91</ele>
        <time>2017-05-22T15:07:56Z</time>
      </trkpt>
      <trkpt lat="51.911610988900065" lon="10.438299011439085">
        <ele>242.87</ele>
        <time>2017-05-22T15:07:57Z</time>
      </trkpt>
      <trkpt lat="51.911163982003927" lon="10.438824975863099">
        <ele>243.83000000000001</ele>
        <time>2017-05-22T15:08:06Z</time>
      </trkpt>
      <trkpt lat="51.911116037517786" lon="10.438880966976285">
        <ele>243.83000000000001</ele>
        <time>2017-05-22T15:09:16Z</time>
      </trkpt>
      <trkpt lat="51.911053005605936" lon="10.438881972804666">
        <ele>243.83000000000001</ele>
        <time>2017-05-22T15:09:17Z</time>
      </trkpt>
      <trkpt lat="51.910990979522467" lon="10.438850037753582">
        <ele>243.83000000000001</ele>
        <time>2017-05-22T15:09:18Z</time>
      </trkpt>
      <trkpt lat="51.9109339825809" lon="10.438798991963267">
        <ele>243.83000000000001</ele>
        <time>2017-05-22T15:09:19Z</time>
      </trkpt>
      <trkpt lat="51.910885032266378" lon="10.438746018335223">
        <ele>243.83000000000001</ele>
        <time>2017-05-22T15:09:20Z</time>
      </trkpt>
      <trkpt lat="51.910477001219988" lon="10.438260035589337">
        <ele>245.75</ele>
        <time>2017-05-22T15:09:27Z</time>
      </trkpt>
      <trkpt lat="51.910441964864731" lon="10.438195997849107">
        <ele>245.75</ele>
        <time>2017-05-22T15:09:28Z</time>
      </trkpt>
      <trkpt lat="51.91031196154654" lon="10.43798603117466">
        <ele>244.78999999999999</ele>
        <time>2017-05-22T15:09:36Z</time>
      </trkpt>
      <trkpt lat="51.910290000960231" lon="10.437969015911222">
        <ele>245.75</ele>
        <time>2017-05-22T15:09:49Z</time>
      </trkpt>
      <trkpt lat="51.910292012616992" lon="10.437961975112557">
        <ele>246.22999999999999</ele>
        <time>2017-05-22T15:11:09Z</time>
      </trkpt>
      <trkpt lat="51.910267034545541" lon="10.43809499591589">
        <ele>253.44</ele>
        <time>2017-05-22T15:14:58Z</time>
      </trkpt>
      <trkpt lat="51.910270974040031" lon="10.438044033944607">
        <ele>252.96000000000001</ele>
        <time>2017-05-22T15:15:24Z</time>
      </trkpt>
      <trkpt lat="51.910271979868412" lon="10.438043028116226">
        <ele>252.96000000000001</ele>
        <time>2017-05-22T15:15:26Z</time>
      </trkpt>
      <trkpt lat="51.91022596322" lon="10.438000028952956">
        <ele>251.52000000000001</ele>
        <time>2017-05-22T15:15:30Z</time>
      </trkpt>
      <trkpt lat="51.910089002922177" lon="10.437753014266491">
        <ele>250.08000000000001</ele>
        <time>2017-05-22T15:15:37Z</time>
      </trkpt>
      <trkpt lat="51.91001096740365" lon="10.43770800344646">
        <ele>249.59999999999999</ele>
        <time>2017-05-22T15:15:39Z</time>
      </trkpt>
      <trkpt lat="51.909968974068761" lon="10.437702974304557">
        <ele>250.08000000000001</ele>
        <time>2017-05-22T15:15:40Z</time>
      </trkpt>
      <trkpt lat="51.909928992390633" lon="10.437704985961318">
        <ele>250.08000000000001</ele>
        <time>2017-05-22T15:15:41Z</time>
      </trkpt>
      <trkpt lat="51.909899991005659" lon="10.437712026759982">
        <ele>249.59999999999999</ele>
        <time>2017-05-22T15:15:42Z</time>
      </trkpt>
      <trkpt lat="51.909874007105827" lon="10.437689982354641">
        <ele>250.08000000000001</ele>
        <time>2017-05-22T15:15:43Z</time>
      </trkpt>
      <trkpt lat="51.909851040691137" lon="10.43766601011157">
        <ele>250.08000000000001</ele>
        <time>2017-05-22T15:15:44Z</time>
      </trkpt>
      <trkpt lat="51.909834025427699" lon="10.437626028433442">
        <ele>250.08000000000001</ele>
        <time>2017-05-22T15:15:45Z</time>
      </trkpt>
      <trkpt lat="51.909821033477783" lon="10.437572970986366">
        <ele>250.08000000000001</ele>
        <time>2017-05-22T15:15:46Z</time>
      </trkpt>
      <trkpt lat="51.909779040142894" lon="10.437436010688543">
        <ele>249.59999999999999</ele>
        <time>2017-05-22T15:15:48Z</time>
      </trkpt>
      <trkpt lat="51.909737968817353" lon="10.437396029010415">
        <ele>249.12</ele>
        <time>2017-05-22T15:15:49Z</time>
      </trkpt>
      <trkpt lat="51.909602014347911" lon="10.437102997675538">
        <ele>248.63999999999999</ele>
        <time>2017-05-22T15:15:53Z</time>
      </trkpt>
      <trkpt lat="51.909438986331224" lon="10.43672296218574">
        <ele>245.75</ele>
        <time>2017-05-22T15:16:01Z</time>
      </trkpt>
      <trkpt lat="51.909372014924884" lon="10.436592036858201">
        <ele>245.75</ele>
        <time>2017-05-22T15:16:45Z</time>
      </trkpt>
      <trkpt lat="51.90895602107048" lon="10.43577304109931">
        <ele>247.19999999999999</ele>
        <time>2017-05-22T15:16:55Z</time>
      </trkpt>
      <trkpt lat="51.9080950319767" lon="10.433814022690058">
        <ele>248.16</ele>
        <time>2017-05-22T15:17:14Z</time>
      </trkpt>
      <trkpt lat="51.90768800675869" lon="10.432524969801307">
        <ele>248.63999999999999</ele>
        <time>2017-05-22T15:17:26Z</time>
      </trkpt>
      <trkpt lat="51.907562026754022" lon="10.431990958750248">
        <ele>249.12</ele>
        <time>2017-05-22T15:17:30Z</time>
      </trkpt>
      <trkpt lat="51.907018963247538" lon="10.430380962789059">
        <ele>249.12</ele>
        <time>2017-05-22T15:17:44Z</time>
      </trkpt>
      <trkpt lat="51.906947968527675" lon="10.430225981399417">
        <ele>249.12</ele>
        <time>2017-05-22T15:17:46Z</time>
      </trkpt>
      <trkpt lat="51.906915027648211" lon="10.430179964751005">
        <ele>249.12</ele>
        <time>2017-05-22T15:17:47Z</time>
      </trkpt>
      <trkpt lat="51.906879991292953" lon="10.430153980851173">
        <ele>249.12</ele>
        <time>2017-05-22T15:17:48Z</time>
      </trkpt>
      <trkpt lat="51.906845960766077" lon="10.43014601804316">
        <ele>249.12</ele>
        <time>2017-05-22T15:17:49Z</time>
      </trkpt>
      <trkpt lat="51.906793992966413" lon="10.430192034691572">
        <ele>249.59999999999999</ele>
        <time>2017-05-22T15:17:50Z</time>
      </trkpt>
      <trkpt lat="51.906733978539705" lon="10.430251965299249">
        <ele>249.59999999999999</ele>
        <time>2017-05-22T15:17:51Z</time>
      </trkpt>
      <trkpt lat="51.906538009643555" lon="10.430415999144316">
        <ele>250.08000000000001</ele>
        <time>2017-05-22T15:17:54Z</time>
      </trkpt>
      <trkpt lat="51.906471960246563" lon="10.430455980822444">
        <ele>250.08000000000001</ele>
        <time>2017-05-22T15:17:55Z</time>
      </trkpt>
      <trkpt lat="51.906097959727049" lon="10.430696038529277">
        <ele>251.03999999999999</ele>
        <time>2017-05-22T15:18:02Z</time>
      </trkpt>
      <trkpt lat="51.906103994697332" lon="10.43077097274363">
        <ele>251.52000000000001</ele>
        <time>2017-05-22T15:18:03Z</time>
      </trkpt>
      <trkpt lat="51.906109023839235" lon="10.430830987170339">
        <ele>252</ele>
        <time>2017-05-22T15:18:04Z</time>
      </trkpt>
      <trkpt lat="51.906136013567448" lon="10.430912040174007">
        <ele>252</ele>
        <time>2017-05-22T15:18:05Z</time>
      </trkpt>
      <trkpt lat="51.906160991638899" lon="10.431002983823419">
        <ele>252.47999999999999</ele>
        <time>2017-05-22T15:18:06Z</time>
      </trkpt>
      <trkpt lat="51.906311027705669" lon="10.431401040405035">
        <ele>252.47999999999999</ele>
        <time>2017-05-22T15:18:10Z</time>
      </trkpt>
      <trkpt lat="51.906634988263249" lon="10.432462021708488">
        <ele>253.93000000000001</ele>
        <time>2017-05-22T15:18:20Z</time>
      </trkpt>
      <trkpt lat="51.906773038208485" lon="10.432775001972914">
        <ele>256.32999999999998</ele>
        <time>2017-05-22T15:18:23Z</time>
      </trkpt>
      <trkpt lat="51.906843027099967" lon="10.433085970580578">
        <ele>257.29000000000002</ele>
        <time>2017-05-22T15:18:25Z</time>
      </trkpt>
      <trkpt lat="51.907240999862552" lon="10.434467978775501">
        <ele>259.69</ele>
        <time>2017-05-22T15:18:37Z</time>
      </trkpt>
      <trkpt lat="51.907339990139008" lon="10.434637041762471">
        <ele>259.69</ele>
        <time>2017-05-22T15:18:39Z</time>
      </trkpt>
      <trkpt lat="51.907392963767052" lon="10.434723040089011">
        <ele>259.20999999999998</ele>
        <time>2017-05-22T15:18:40Z</time>
      </trkpt>
      <trkpt lat="51.907812980934978" lon="10.435427036136389">
        <ele>259.20999999999998</ele>
        <time>2017-05-22T15:18:49Z</time>
      </trkpt>
      <trkpt lat="51.907898979261518" lon="10.435736998915672">
        <ele>258.73000000000002</ele>
        <time>2017-05-22T15:18:52Z</time>
      </trkpt>
      <trkpt lat="51.908043986186385" lon="10.436518024653196">
        <ele>258.25</ele>
        <time>2017-05-22T15:18:59Z</time>
      </trkpt>
      <trkpt lat="51.908069970086217" lon="10.436618020758033">
        <ele>257.76999999999998</ele>
        <time>2017-05-22T15:19:00Z</time>
      </trkpt>
      <trkpt lat="51.908096959814429" lon="10.436696978285909">
        <ele>256.32999999999998</ele>
        <time>2017-05-22T15:19:01Z</time>
      </trkpt>
      <trkpt lat="51.908136019483209" lon="10.436768978834152">
        <ele>255.37</ele>
        <time>2017-05-22T15:19:02Z</time>
      </trkpt>
      <trkpt lat="51.908193016424775" lon="10.436812983825803">
        <ele>254.88999999999999</ele>
        <time>2017-05-22T15:19:03Z</time>
      </trkpt>
      <trkpt lat="51.908258982002735" lon="10.436865035444498">
        <ele>253.93000000000001</ele>
        <time>2017-05-22T15:19:04Z</time>
      </trkpt>
      <trkpt lat="51.90833299420774" lon="10.43691398575902">
        <ele>253.93000000000001</ele>
        <time>2017-05-22T15:19:05Z</time>
      </trkpt>
      <trkpt lat="51.909030033275485" lon="10.43727901764214">
        <ele>251.52000000000001</ele>
        <time>2017-05-22T15:19:14Z</time>
      </trkpt>
      <trkpt lat="51.909159030765295" lon="10.437382031232119">
        <ele>251.03999999999999</ele>
        <time>2017-05-22T15:19:16Z</time>
      </trkpt>
      <trkpt lat="51.909219967201352" lon="10.437435004860163">
        <ele>251.52000000000001</ele>
        <time>2017-05-22T15:19:17Z</time>
      </trkpt>
      <trkpt lat="51.909710979089141" lon="10.437799030914903">
        <ele>250.08000000000001</ele>
        <time>2017-05-22T15:19:24Z</time>
      </trkpt>
      <trkpt lat="51.909863026812673" lon="10.437868013978004">
        <ele>250.08000000000001</ele>
        <time>2017-05-22T15:19:26Z</time>
      </trkpt>
      <trkpt lat="51.909916000440717" lon="10.437882011756301">
        <ele>250.56</ele>
        <time>2017-05-22T15:19:27Z</time>
      </trkpt>
      <trkpt lat="51.910058995708823" lon="10.437931967899203">
        <ele>249.12</ele>
        <time>2017-05-22T15:19:30Z</time>
      </trkpt>
      <trkpt lat="51.910108029842377" lon="10.437962980940938">
        <ele>248.63999999999999</ele>
        <time>2017-05-22T15:19:31Z</time>
      </trkpt>
      <trkpt lat="51.910161003470421" lon="10.438016038388014">
        <ele>248.16</ele>
        <time>2017-05-22T15:19:32Z</time>
      </trkpt>
      <trkpt lat="51.910552019253373" lon="10.438522975891829">
        <ele>247.68000000000001</ele>
        <time>2017-05-22T15:19:39Z</time>
      </trkpt>
      <trkpt lat="51.910773972049356" lon="10.438848026096821">
        <ele>246.72</ele>
        <time>2017-05-22T15:19:47Z</time>
      </trkpt>
      <trkpt lat="51.910788975656033" lon="10.438899993896484">
        <ele>246.22999999999999</ele>
        <time>2017-05-22T15:20:16Z</time>
      </trkpt>
      <trkpt lat="51.910831974819303" lon="10.438952967524529">
        <ele>246.22999999999999</ele>
        <time>2017-05-22T15:20:17Z</time>
      </trkpt>
      <trkpt lat="51.91142700612545" lon="10.439742039889097">
        <ele>244.31</ele>
        <time>2017-05-22T15:20:25Z</time>
      </trkpt>
      <trkpt lat="51.912369970232248" lon="10.441084988415241">
        <ele>241.91</ele>
        <time>2017-05-22T15:20:36Z</time>
      </trkpt>
      <trkpt lat="51.912912027910352" lon="10.441786972805858">
        <ele>241.91</ele>
        <time>2017-05-22T15:20:43Z</time>
      </trkpt>
      <trkpt lat="51.912971958518028" lon="10.441908007487655">
        <ele>241.91</ele>
        <time>2017-05-22T15:20:44Z</time>
      </trkpt>
      <trkpt lat="51.913031972944736" lon="10.442047985270619">
        <ele>241.91</ele>
        <time>2017-05-22T15:20:45Z</time>
      </trkpt>
      <trkpt lat="51.913083018735051" lon="10.442203972488642">
        <ele>241.43000000000001</ele>
        <time>2017-05-22T15:20:46Z</time>
      </trkpt>
      <trkpt lat="51.913130963221192" lon="10.442364988848567">
        <ele>241.43000000000001</ele>
        <time>2017-05-22T15:20:47Z</time>
      </trkpt>
      <trkpt lat="51.913168011233211" lon="10.442540002986789">
        <ele>241.43000000000001</ele>
        <time>2017-05-22T15:20:48Z</time>
      </trkpt>
      <trkpt lat="51.913197012618184" lon="10.442716022953391">
        <ele>240.94999999999999</ele>
        <time>2017-05-22T15:20:49Z</time>
      </trkpt>
      <trkpt lat="51.913502030074596" lon="10.44456004165113">
        <ele>236.62</ele>
        <time>2017-05-22T15:21:00Z</time>
      </trkpt>
      <trkpt lat="51.913938978686929" lon="10.446931030601263">
        <ele>233.25999999999999</ele>
        <time>2017-05-22T15:21:14Z</time>
      </trkpt>
      <trkpt lat="51.914303004741669" lon="10.449609970673919">
        <ele>229.88999999999999</ele>
        <time>2017-05-22T15:21:28Z</time>
      </trkpt>
      <trkpt lat="51.914572985842824" lon="10.452522011473775">
        <ele>226.05000000000001</ele>
        <time>2017-05-22T15:21:42Z</time>
      </trkpt>
      <trkpt lat="51.914783036336303" lon="10.454601980745792">
        <ele>223.63999999999999</ele>
        <time>2017-05-22T15:21:52Z</time>
      </trkpt>
      <trkpt lat="51.914539039134979" lon="10.456322031095624">
        <ele>222.19999999999999</ele>
        <time>2017-05-22T15:22:00Z</time>
      </trkpt>
      <trkpt lat="51.9137919601053" lon="10.458390014246106">
        <ele>218.36000000000001</ele>
        <time>2017-05-22T15:22:11Z</time>
      </trkpt>
      <trkpt lat="51.912939017638564" lon="10.460124984383583">
        <ele>216.43000000000001</ele>
        <time>2017-05-22T15:22:22Z</time>
      </trkpt>
      <trkpt lat="51.912255976349115" lon="10.462533021345735">
        <ele>214.03</ele>
        <time>2017-05-22T15:22:34Z</time>
      </trkpt>
      <trkpt lat="51.911523984745145" lon="10.464688008651137">
        <ele>213.55000000000001</ele>
        <time>2017-05-22T15:22:46Z</time>
      </trkpt>
      <trkpt lat="51.910615973174572" lon="10.467011975124478">
        <ele>215.47</ele>
        <time>2017-05-22T15:22:59Z</time>
      </trkpt>
      <trkpt lat="51.909916000440717" lon="10.469702985137701">
        <ele>213.55000000000001</ele>
        <time>2017-05-22T15:23:14Z</time>
      </trkpt>
      <trkpt lat="51.909592039883137" lon="10.471889991313219">
        <ele>213.06999999999999</ele>
        <time>2017-05-22T15:23:27Z</time>
      </trkpt>
      <trkpt lat="51.909403027966619" lon="10.474229967221618">
        <ele>210.66999999999999</ele>
        <time>2017-05-22T15:23:39Z</time>
      </trkpt>
      <trkpt lat="51.909350976347923" lon="10.474401041865349">
        <ele>210.66999999999999</ele>
        <time>2017-05-22T15:23:40Z</time>
      </trkpt>
      <trkpt lat="51.909290039911866" lon="10.474560968577862">
        <ele>210.19</ele>
        <time>2017-05-22T15:23:41Z</time>
      </trkpt>
      <trkpt lat="51.909204963594675" lon="10.474702036008239">
        <ele>210.19</ele>
        <time>2017-05-22T15:23:42Z</time>
      </trkpt>
      <trkpt lat="51.909104967489839" lon="10.474815024062991">
        <ele>210.19</ele>
        <time>2017-05-22T15:23:43Z</time>
      </trkpt>
      <trkpt lat="51.90899801440537" lon="10.474909991025925">
        <ele>210.66999999999999</ele>
        <time>2017-05-22T15:23:44Z</time>
      </trkpt>
      <trkpt lat="51.907589016482234" lon="10.475956974551082">
        <ele>214.03</ele>
        <time>2017-05-22T15:23:56Z</time>
      </trkpt>
      <trkpt lat="51.906439019367099" lon="10.476847970858216">
        <ele>215.47</ele>
        <time>2017-05-22T15:24:07Z</time>
      </trkpt>
      <trkpt lat="51.905795037746429" lon="10.477521037682891">
        <ele>214.50999999999999</ele>
        <time>2017-05-22T15:24:14Z</time>
      </trkpt>
      <trkpt lat="51.905068997293711" lon="10.479089040309191">
        <ele>213.06999999999999</ele>
        <time>2017-05-22T15:24:27Z</time>
      </trkpt>
      <trkpt lat="51.904471032321453" lon="10.480498038232327">
        <ele>209.22</ele>
        <time>2017-05-22T15:24:40Z</time>
      </trkpt>
      <trkpt lat="51.904339017346501" lon="10.480729965493083">
        <ele>207.78</ele>
        <time>2017-05-22T15:24:42Z</time>
      </trkpt>
      <trkpt lat="51.904260981827974" lon="10.480817975476384">
        <ele>207.30000000000001</ele>
        <time>2017-05-22T15:24:43Z</time>
      </trkpt>
      <trkpt lat="51.904174983501434" lon="10.480878995731473">
        <ele>206.34</ele>
        <time>2017-05-22T15:24:44Z</time>
      </trkpt>
      <trkpt lat="51.904084039852023" lon="10.480920989066362">
        <ele>205.86000000000001</ele>
        <time>2017-05-22T15:24:45Z</time>
      </trkpt>
      <trkpt lat="51.90399301238358" lon="10.480948984622955">
        <ele>204.90000000000001</ele>
        <time>2017-05-22T15:24:46Z</time>
      </trkpt>
      <trkpt lat="51.903911959379911" lon="10.480960970744491">
        <ele>204.41999999999999</ele>
        <time>2017-05-22T15:24:47Z</time>
      </trkpt>
      <trkpt lat="51.903815986588597" lon="10.480965999886394">
        <ele>203.46000000000001</ele>
        <time>2017-05-22T15:24:48Z</time>
      </trkpt>
      <trkpt lat="51.903712972998619" lon="10.480985026806593">
        <ele>202.97999999999999</ele>
        <time>2017-05-22T15:24:49Z</time>
      </trkpt>
      <trkpt lat="51.903322041034698" lon="10.481033977121115">
        <ele>200.09</ele>
        <time>2017-05-22T15:24:53Z</time>
      </trkpt>
      <trkpt lat="51.902387961745262" lon="10.481610987335443">
        <ele>202.00999999999999</ele>
        <time>2017-05-22T15:25:05Z</time>
      </trkpt>
      <trkpt lat="51.901487996801734" lon="10.482017006725073">
        <ele>204.41999999999999</ele>
        <time>2017-05-22T15:25:17Z</time>
      </trkpt>
      <trkpt lat="51.901212986558676" lon="10.482098981738091">
        <ele>206.81999999999999</ele>
        <time>2017-05-22T15:25:26Z</time>
      </trkpt>
      <trkpt lat="51.900954991579056" lon="10.482187997549772">
        <ele>207.78</ele>
        <time>2017-05-22T15:25:32Z</time>
      </trkpt>
      <trkpt lat="51.900157034397125" lon="10.482382038608193">
        <ele>211.15000000000001</ele>
        <time>2017-05-22T15:25:42Z</time>
      </trkpt>
      <trkpt lat="51.899137040600181" lon="10.482649002224207">
        <ele>208.74000000000001</ele>
        <time>2017-05-22T15:25:52Z</time>
      </trkpt>
      <trkpt lat="51.89905297011137" lon="10.482667023316026">
        <ele>210.19</ele>
        <time>2017-05-22T15:25:53Z</time>
      </trkpt>
      <trkpt lat="51.898852977901697" lon="10.482708010822535">
        <ele>210.19</ele>
        <time>2017-05-22T15:25:56Z</time>
      </trkpt>
      <trkpt lat="51.898739989846945" lon="10.482761990278959">
        <ele>208.74000000000001</ele>
        <time>2017-05-22T15:25:58Z</time>
      </trkpt>
      <trkpt lat="51.898709982633591" lon="10.482837008312345">
        <ele>208.74000000000001</ele>
        <time>2017-05-22T15:25:59Z</time>
      </trkpt>
      <trkpt lat="51.898699002340436" lon="10.482918983325362">
        <ele>208.74000000000001</ele>
        <time>2017-05-22T15:26:00Z</time>
      </trkpt>
      <trkpt lat="51.898745018988848" lon="10.483810985460877">
        <ele>210.66999999999999</ele>
        <time>2017-05-22T15:26:06Z</time>
      </trkpt>
      <trkpt lat="51.899140980094671" lon="10.485910987481475">
        <ele>216.43000000000001</ele>
        <time>2017-05-22T15:26:17Z</time>
      </trkpt>
      <trkpt lat="51.899235025048256" lon="10.487742014229298">
        <ele>224.12</ele>
        <time>2017-05-22T15:26:26Z</time>
      </trkpt>
      <trkpt lat="51.899152966216207" lon="10.490035973489285">
        <ele>231.81</ele>
        <time>2017-05-22T15:26:37Z</time>
      </trkpt>
      <trkpt lat="51.899017011746764" lon="10.493282033130527">
        <ele>244.78999999999999</ele>
        <time>2017-05-22T15:26:51Z</time>
      </trkpt>
      <trkpt lat="51.89892397262156" lon="10.495729967951775">
        <ele>250.56</ele>
        <time>2017-05-22T15:27:00Z</time>
      </trkpt>
      <trkpt lat="51.898629013448954" lon="10.498028034344316">
        <ele>251.03999999999999</ele>
        <time>2017-05-22T15:27:08Z</time>
      </trkpt>
      <trkpt lat="51.897959969937801" lon="10.499895019456744">
        <ele>255.84999999999999</ele>
        <time>2017-05-22T15:27:16Z</time>
      </trkpt>
      <trkpt lat="51.896879961714149" lon="10.501460004597902">
        <ele>263.54000000000002</ele>
        <time>2017-05-22T15:27:25Z</time>
      </trkpt>
      <trkpt lat="51.895346995443106" lon="10.503197992220521">
        <ele>273.14999999999998</ele>
        <time>2017-05-22T15:27:37Z</time>
      </trkpt>
      <trkpt lat="51.894663032144308" lon="10.504414038732648">
        <ele>277.48000000000002</ele>
        <time>2017-05-22T15:27:43Z</time>
      </trkpt>
      <trkpt lat="51.894573010504246" lon="10.504646971821785">
        <ele>277.95999999999998</ele>
        <time>2017-05-22T15:27:44Z</time>
      </trkpt>
      <trkpt lat="51.894485000520945" lon="10.504888035356998">
        <ele>278.44</ele>
        <time>2017-05-22T15:27:45Z</time>
      </trkpt>
      <trkpt lat="51.894009998068213" lon="10.507072024047375">
        <ele>277.95999999999998</ele>
        <time>2017-05-22T15:27:53Z</time>
      </trkpt>
      <trkpt lat="51.893586963415146" lon="10.509330024942756">
        <ele>285.17000000000002</ele>
        <time>2017-05-22T15:28:00Z</time>
      </trkpt>
      <trkpt lat="51.892983969300985" lon="10.512568959966302">
        <ele>294.30000000000001</ele>
        <time>2017-05-22T15:28:12Z</time>
      </trkpt>
      <trkpt lat="51.892738966271281" lon="10.51509702578187">
        <ele>289.49000000000001</ele>
        <time>2017-05-22T15:28:21Z</time>
      </trkpt>
      <trkpt lat="51.893009031191468" lon="10.517285959795117">
        <ele>280.36000000000001</ele>
        <time>2017-05-22T15:28:28Z</time>
      </trkpt>
      <trkpt lat="51.89376600086689" lon="10.521076004952192">
        <ele>262.57999999999998</ele>
        <time>2017-05-22T15:28:42Z</time>
      </trkpt>
      <trkpt lat="51.894460022449493" lon="10.524868983775377">
        <ele>244.78999999999999</ele>
        <time>2017-05-22T15:28:55Z</time>
      </trkpt>
      <trkpt lat="51.894856989383698" lon="10.527794016525149">
        <ele>237.58000000000001</ele>
        <time>2017-05-22T15:29:04Z</time>
      </trkpt>
      <trkpt lat="51.89468901604414" lon="10.529869040474296">
        <ele>237.09999999999999</ele>
        <time>2017-05-22T15:29:11Z</time>
      </trkpt>
      <trkpt lat="51.894098008051515" lon="10.531624965369701">
        <ele>235.18000000000001</ele>
        <time>2017-05-22T15:29:18Z</time>
      </trkpt>
      <trkpt lat="51.893137022852898" lon="10.533172013238072">
        <ele>239.50999999999999</ele>
        <time>2017-05-22T15:29:26Z</time>
      </trkpt>
      <trkpt lat="51.891417978331447" lon="10.53559698164463">
        <ele>250.56</ele>
        <time>2017-05-22T15:29:40Z</time>
      </trkpt>
      <trkpt lat="51.890893019735813" lon="10.537463966757059">
        <ele>249.59999999999999</ele>
        <time>2017-05-22T15:29:47Z</time>
      </trkpt>
      <trkpt lat="51.890491023659706" lon="10.540155982598662">
        <ele>241.91</ele>
        <time>2017-05-22T15:29:57Z</time>
      </trkpt>
      <trkpt lat="51.890519019216299" lon="10.543205989524722">
        <ele>232.78</ele>
        <time>2017-05-22T15:30:10Z</time>
      </trkpt>
      <trkpt lat="51.89037099480629" lon="10.544830989092588">
        <ele>233.25999999999999</ele>
        <time>2017-05-22T15:30:19Z</time>
      </trkpt>
      <trkpt lat="51.889747967943549" lon="10.547763984650373">
        <ele>229.41</ele>
        <time>2017-05-22T15:30:36Z</time>
      </trkpt>
      <trkpt lat="51.889242036268115" lon="10.549396025016904">
        <ele>229.88999999999999</ele>
        <time>2017-05-22T15:30:46Z</time>
      </trkpt>
      <trkpt lat="51.889160983264446" lon="10.549500966444612">
        <ele>229.88999999999999</ele>
        <time>2017-05-22T15:30:47Z</time>
      </trkpt>
      <trkpt lat="51.889059981331229" lon="10.549580007791519">
        <ele>229.88999999999999</ele>
        <time>2017-05-22T15:30:48Z</time>
      </trkpt>
      <trkpt lat="51.888945987448096" lon="10.54962401278317">
        <ele>230.37</ele>
        <time>2017-05-22T15:30:49Z</time>
      </trkpt>
      <trkpt lat="51.888830987736583" lon="10.549651002511382">
        <ele>230.37</ele>
        <time>2017-05-22T15:30:50Z</time>
      </trkpt>
      <trkpt lat="51.888724034652114" lon="10.549673968926072">
        <ele>230.84999999999999</ele>
        <time>2017-05-22T15:30:51Z</time>
      </trkpt>
      <trkpt lat="51.888512978330255" lon="10.549707999452949">
        <ele>229.41</ele>
        <time>2017-05-22T15:30:53Z</time>
      </trkpt>
      <trkpt lat="51.88841599971056" lon="10.549772037193179">
        <ele>229.88999999999999</ele>
        <time>2017-05-22T15:30:54Z</time>
      </trkpt>
      <trkpt lat="51.8883310072124" lon="10.549877984449267">
        <ele>229.41</ele>
        <time>2017-05-22T15:30:55Z</time>
      </trkpt>
      <trkpt lat="51.888269986957312" lon="10.550026008859277">
        <ele>229.41</ele>
        <time>2017-05-22T15:30:56Z</time>
      </trkpt>
      <trkpt lat="51.88824400305748" lon="10.550199011340737">
        <ele>229.41</ele>
        <time>2017-05-22T15:30:57Z</time>
      </trkpt>
      <trkpt lat="51.888237968087196" lon="10.550388023257256">
        <ele>229.41</ele>
        <time>2017-05-22T15:30:58Z</time>
      </trkpt>
      <trkpt lat="51.888238973915577" lon="10.550581980496645">
        <ele>228.93000000000001</ele>
        <time>2017-05-22T15:30:59Z</time>
      </trkpt>
      <trkpt lat="51.888177031651139" lon="10.553176011890173">
        <ele>228.93000000000001</ele>
        <time>2017-05-22T15:31:13Z</time>
      </trkpt>
      <trkpt lat="51.887709992006421" lon="10.55456799454987">
        <ele>232.30000000000001</ele>
        <time>2017-05-22T15:31:22Z</time>
      </trkpt>
      <trkpt lat="51.887024017050862" lon="10.556475967168808">
        <ele>236.62</ele>
        <time>2017-05-22T15:31:34Z</time>
      </trkpt>
      <trkpt lat="51.886337036266923" lon="10.558428028598428">
        <ele>240.94999999999999</ele>
        <time>2017-05-22T15:31:46Z</time>
      </trkpt>
      <trkpt lat="51.885885000228882" lon="10.559691013768315">
        <ele>242.38999999999999</ele>
        <time>2017-05-22T15:31:56Z</time>
      </trkpt>
      <trkpt lat="51.885771006345749" lon="10.559939034283161">
        <ele>242.38999999999999</ele>
        <time>2017-05-22T15:31:58Z</time>
      </trkpt>
      <trkpt lat="51.885702023282647" lon="10.560053028166294">
        <ele>242.87</ele>
        <time>2017-05-22T15:31:59Z</time>
      </trkpt>
      <trkpt lat="51.88562298193574" lon="10.560146989300847">
        <ele>242.87</ele>
        <time>2017-05-22T15:32:00Z</time>
      </trkpt>
      <trkpt lat="51.885535977780819" lon="10.560225024819374">
        <ele>243.34999999999999</ele>
        <time>2017-05-22T15:32:01Z</time>
      </trkpt>
      <trkpt lat="51.885446961969137" lon="10.560288978740573">
        <ele>243.34999999999999</ele>
        <time>2017-05-22T15:32:02Z</time>
      </trkpt>
      <trkpt lat="51.885354006662965" lon="10.560325020924211">
        <ele>243.34999999999999</ele>
        <time>2017-05-22T15:32:03Z</time>
      </trkpt>
      <trkpt lat="51.885277982801199" lon="10.560373971238732">
        <ele>243.34999999999999</ele>
        <time>2017-05-22T15:32:04Z</time>
      </trkpt>
      <trkpt lat="51.885054018348455" lon="10.560467010363936">
        <ele>246.22999999999999</ele>
        <time>2017-05-22T15:32:11Z</time>
      </trkpt>
      <trkpt lat="51.884880010038614" lon="10.560567006468773">
        <ele>248.16</ele>
        <time>2017-05-22T15:32:30Z</time>
      </trkpt>
      <trkpt lat="51.884866012260318" lon="10.56058201007545">
        <ele>248.16</ele>
        <time>2017-05-22T15:32:41Z</time>
      </trkpt>
      <trkpt lat="51.884856037795544" lon="10.560599025338888">
        <ele>246.72</ele>
        <time>2017-05-22T15:32:50Z</time>
      </trkpt>
      <trkpt lat="51.884857965633273" lon="10.560648981481791">
        <ele>245.75</ele>
        <time>2017-05-22T15:32:51Z</time>
      </trkpt>
      <trkpt lat="51.884877998381853" lon="10.560727017000318">
        <ele>245.75</ele>
        <time>2017-05-22T15:32:52Z</time>
      </trkpt>
      <trkpt lat="51.885026022791862" lon="10.561303021386266">
        <ele>246.72</ele>
        <time>2017-05-22T15:32:57Z</time>
      </trkpt>
      <trkpt lat="51.885024011135101" lon="10.561455991119146">
        <ele>246.22999999999999</ele>
        <time>2017-05-22T15:32:58Z</time>
      </trkpt>
      <trkpt lat="51.884989980608225" lon="10.561587000265718">
        <ele>246.72</ele>
        <time>2017-05-22T15:32:59Z</time>
      </trkpt>
      <trkpt lat="51.884919991716743" lon="10.561682973057032">
        <ele>245.75</ele>
        <time>2017-05-22T15:33:00Z</time>
      </trkpt>
      <trkpt lat="51.884833993390203" lon="10.56178598664701">
        <ele>245.75</ele>
        <time>2017-05-22T15:33:01Z</time>
      </trkpt>
      <trkpt lat="51.88407501205802" lon="10.562691986560822">
        <ele>245.27000000000001</ele>
        <time>2017-05-22T15:33:07Z</time>
      </trkpt>
      <trkpt lat="51.882258988916874" lon="10.564545979723334">
        <ele>249.12</ele>
        <time>2017-05-22T15:33:19Z</time>
      </trkpt>
      <trkpt lat="51.880760975182056" lon="10.565109997987747">
        <ele>260.17000000000002</ele>
        <time>2017-05-22T15:33:28Z</time>
      </trkpt>
      <trkpt lat="51.879923958331347" lon="10.565056018531322">
        <ele>264.5</ele>
        <time>2017-05-22T15:33:33Z</time>
      </trkpt>
      <trkpt lat="51.878545973449945" lon="10.564560983330011">
        <ele>266.42000000000002</ele>
        <time>2017-05-22T15:33:42Z</time>
      </trkpt>
      <trkpt lat="51.877175029367208" lon="10.563597986474633">
        <ele>265.45999999999998</ele>
        <time>2017-05-22T15:33:53Z</time>
      </trkpt>
      <trkpt lat="51.875420026481152" lon="10.562182031571865">
        <ele>261.62</ele>
        <time>2017-05-22T15:34:08Z</time>
      </trkpt>
      <trkpt lat="51.873928969725966" lon="10.561717003583908">
        <ele>264.5</ele>
        <time>2017-05-22T15:34:20Z</time>
      </trkpt>
      <trkpt lat="51.87245300039649" lon="10.56161499582231">
        <ele>269.79000000000002</ele>
        <time>2017-05-22T15:34:32Z</time>
      </trkpt>
      <trkpt lat="51.871118014678359" lon="10.561195984482765">
        <ele>274.11000000000001</ele>
        <time>2017-05-22T15:34:43Z</time>
      </trkpt>
      <trkpt lat="51.869980003684759" lon="10.559962000697851">
        <ele>278.92000000000002</ele>
        <time>2017-05-22T15:34:53Z</time>
      </trkpt>
      <trkpt lat="51.868384005501866" lon="10.558346975594759">
        <ele>287.08999999999997</ele>
        <time>2017-05-22T15:35:07Z</time>
      </trkpt>
      <trkpt lat="51.866905018687248" lon="10.557361012324691">
        <ele>296.22000000000003</ele>
        <time>2017-05-22T15:35:19Z</time>
      </trkpt>
      <trkpt lat="51.865495014935732" lon="10.556907970458269">
        <ele>301.99000000000001</ele>
        <time>2017-05-22T15:35:28Z</time>
      </trkpt>
      <trkpt lat="51.864028014242649" lon="10.556228030472994">
        <ele>309.68000000000001</ele>
        <time>2017-05-22T15:35:36Z</time>
      </trkpt>
      <trkpt lat="51.862539974972606" lon="10.5552520416677">
        <ele>317.37</ele>
        <time>2017-05-22T15:35:43Z</time>
      </trkpt>
      <trkpt lat="51.860731998458505" lon="10.554446959868073">
        <ele>323.13999999999999</ele>
        <time>2017-05-22T15:35:50Z</time>
      </trkpt>
      <trkpt lat="51.858890997245908" lon="10.553997019305825">
        <ele>330.35000000000002</ele>
        <time>2017-05-22T15:35:58Z</time>
      </trkpt>
      <trkpt lat="51.85771300457418" lon="10.553259998559952">
        <ele>341.88999999999999</ele>
        <time>2017-05-22T15:36:05Z</time>
      </trkpt>
      <trkpt lat="51.856629978865385" lon="10.552089968696237">
        <ele>350.06</ele>
        <time>2017-05-22T15:36:12Z</time>
      </trkpt>
      <trkpt lat="51.856503998860717" lon="10.551891988143325">
        <ele>351.01999999999998</ele>
        <time>2017-05-22T15:36:13Z</time>
      </trkpt>
      <trkpt lat="51.856394028291106" lon="10.551667017862201">
        <ele>351.98000000000002</ele>
        <time>2017-05-22T15:36:14Z</time>
      </trkpt>
      <trkpt lat="51.85629696585238" lon="10.551411034539342">
        <ele>352.94</ele>
        <time>2017-05-22T15:36:15Z</time>
      </trkpt>
      <trkpt lat="51.85621197335422" lon="10.551148010417819">
        <ele>353.89999999999998</ele>
        <time>2017-05-22T15:36:16Z</time>
      </trkpt>
      <trkpt lat="51.856143996119499" lon="10.550890015438199">
        <ele>354.86000000000001</ele>
        <time>2017-05-22T15:36:17Z</time>
      </trkpt>
      <trkpt lat="51.856088005006313" lon="10.550615005195141">
        <ele>355.82999999999998</ele>
        <time>2017-05-22T15:36:18Z</time>
      </trkpt>
      <trkpt lat="51.855831015855074" lon="10.549520999193192">
        <ele>359.19</ele>
        <time>2017-05-22T15:36:22Z</time>
      </trkpt>
      <trkpt lat="51.855020988732576" lon="10.547701958566904">
        <ele>369.75999999999999</ele>
        <time>2017-05-22T15:36:29Z</time>
      </trkpt>
      <trkpt lat="51.854717982932925" lon="10.547221004962921">
        <ele>373.13</ele>
        <time>2017-05-22T15:36:31Z</time>
      </trkpt>
      <trkpt lat="51.854555038735271" lon="10.547026041895151">
        <ele>374.56999999999999</ele>
        <time>2017-05-22T15:36:32Z</time>
      </trkpt>
      <trkpt lat="51.854372983798385" lon="10.546865025535226">
        <ele>376.49000000000001</ele>
        <time>2017-05-22T15:36:33Z</time>
      </trkpt>
      <trkpt lat="51.854175003245473" lon="10.546740973368287">
        <ele>377.94</ele>
        <time>2017-05-22T15:36:34Z</time>
      </trkpt>
      <trkpt lat="51.853965036571026" lon="10.546652963384986">
        <ele>379.38</ele>
        <time>2017-05-22T15:36:35Z</time>
      </trkpt>
      <trkpt lat="51.853753980249166" lon="10.546605018898845">
        <ele>381.30000000000001</ele>
        <time>2017-05-22T15:36:36Z</time>
      </trkpt>
      <trkpt lat="51.853544013574719" lon="10.546589009463787">
        <ele>383.22000000000003</ele>
        <time>2017-05-22T15:36:37Z</time>
      </trkpt>
      <trkpt lat="51.852070977911353" lon="10.546706020832062">
        <ele>393.80000000000001</ele>
        <time>2017-05-22T15:36:44Z</time>
      </trkpt>
      <trkpt lat="51.851328006014228" lon="10.546697974205017">
        <ele>399.07999999999998</ele>
        <time>2017-05-22T15:36:48Z</time>
      </trkpt>
      <trkpt lat="51.851151986047626" lon="10.546611975878477">
        <ele>401.00999999999999</ele>
        <time>2017-05-22T15:36:49Z</time>
      </trkpt>
      <trkpt lat="51.850971020758152" lon="10.546497981995344">
        <ele>403.88999999999999</ele>
        <time>2017-05-22T15:36:50Z</time>
      </trkpt>
      <trkpt lat="51.85081897303462" lon="10.54631601087749">
        <ele>406.76999999999998</ele>
        <time>2017-05-22T15:36:51Z</time>
      </trkpt>
      <trkpt lat="51.850675977766514" lon="10.546083999797702">
        <ele>409.18000000000001</ele>
        <time>2017-05-22T15:36:52Z</time>
      </trkpt>
      <trkpt lat="51.850543962791562" lon="10.545830028131604">
        <ele>411.10000000000002</ele>
        <time>2017-05-22T15:36:53Z</time>
      </trkpt>
      <trkpt lat="51.850226959213614" lon="10.545373968780041">
        <ele>414.47000000000003</ele>
        <time>2017-05-22T15:36:55Z</time>
      </trkpt>
      <trkpt lat="51.850033001974225" lon="10.545184034854174">
        <ele>416.38999999999999</ele>
        <time>2017-05-22T15:36:56Z</time>
      </trkpt>
      <trkpt lat="51.849815994501114" lon="10.545024024322629">
        <ele>417.35000000000002</ele>
        <time>2017-05-22T15:36:57Z</time>
      </trkpt>
      <trkpt lat="51.849388014525175" lon="10.544685982167721">
        <ele>420.23000000000002</ele>
        <time>2017-05-22T15:36:59Z</time>
      </trkpt>
      <trkpt lat="51.849209982901812" lon="10.54446998052299">
        <ele>421.68000000000001</ele>
        <time>2017-05-22T15:37:00Z</time>
      </trkpt>
      <trkpt lat="51.849060030654073" lon="10.544202011078596">
        <ele>423.12</ele>
        <time>2017-05-22T15:37:01Z</time>
      </trkpt>
      <trkpt lat="51.848932038992643" lon="10.543889030814171">
        <ele>424.56</ele>
        <time>2017-05-22T15:37:02Z</time>
      </trkpt>
      <trkpt lat="51.848817961290479" lon="10.543535985052586">
        <ele>426.48000000000002</ele>
        <time>2017-05-22T15:37:03Z</time>
      </trkpt>
      <trkpt lat="51.848729029297829" lon="10.54315997287631">
        <ele>427.92000000000002</ele>
        <time>2017-05-22T15:37:04Z</time>
      </trkpt>
      <trkpt lat="51.848627021536231" lon="10.5427719745785">
        <ele>428.88999999999999</ele>
        <time>2017-05-22T15:37:05Z</time>
      </trkpt>
      <trkpt lat="51.84851897880435" lon="10.542381964623928">
        <ele>429.85000000000002</ele>
        <time>2017-05-22T15:37:06Z</time>
      </trkpt>
      <trkpt lat="51.847441988065839" lon="10.539216035977006">
        <ele>439.45999999999998</ele>
        <time>2017-05-22T15:37:14Z</time>
      </trkpt>
      <trkpt lat="51.846601031720638" lon="10.536787966266274">
        <ele>448.11000000000001</ele>
        <time>2017-05-22T15:37:20Z</time>
      </trkpt>
      <trkpt lat="51.845550024881959" lon="10.535138994455338">
        <ele>464.93000000000001</ele>
        <time>2017-05-22T15:37:25Z</time>
      </trkpt>
      <trkpt lat="51.845371993258595" lon="10.534813022240996">
        <ele>466.38</ele>
        <time>2017-05-22T15:37:26Z</time>
      </trkpt>
      <trkpt lat="51.845233021304011" lon="10.534472968429327">
        <ele>467.33999999999997</ele>
        <time>2017-05-22T15:37:27Z</time>
      </trkpt>
      <trkpt lat="51.84512497857213" lon="10.53411397151649">
        <ele>468.30000000000001</ele>
        <time>2017-05-22T15:37:28Z</time>
      </trkpt>
      <trkpt lat="51.84503797441721" lon="10.533748017624021">
        <ele>469.74000000000001</ele>
        <time>2017-05-22T15:37:29Z</time>
      </trkpt>
      <trkpt lat="51.844937978312373" lon="10.533394971862435">
        <ele>470.69999999999999</ele>
        <time>2017-05-22T15:37:30Z</time>
      </trkpt>
      <trkpt lat="51.844834964722395" lon="10.533066987991333">
        <ele>472.13999999999999</ele>
        <time>2017-05-22T15:37:31Z</time>
      </trkpt>
      <trkpt lat="51.844727005809546" lon="10.532777979969978">
        <ele>476.94999999999999</ele>
        <time>2017-05-22T15:37:32Z</time>
      </trkpt>
      <trkpt lat="51.844560960307717" lon="10.532529037445784">
        <ele>479.35000000000002</ele>
        <time>2017-05-22T15:37:33Z</time>
      </trkpt>
      <trkpt lat="51.844364991411567" lon="10.532310018315911">
        <ele>480.80000000000001</ele>
        <time>2017-05-22T15:37:34Z</time>
      </trkpt>
      <trkpt lat="51.844162987545133" lon="10.53211597725749">
        <ele>482.24000000000001</ele>
        <time>2017-05-22T15:37:35Z</time>
      </trkpt>
      <trkpt lat="51.843937011435628" lon="10.531938029453158">
        <ele>484.16000000000003</ele>
        <time>2017-05-22T15:37:36Z</time>
      </trkpt>
      <trkpt lat="51.843739030882716" lon="10.53174901753664">
        <ele>487.52999999999997</ele>
        <time>2017-05-22T15:37:37Z</time>
      </trkpt>
      <trkpt lat="51.843570973724127" lon="10.531509965658188">
        <ele>489.93000000000001</ele>
        <time>2017-05-22T15:37:38Z</time>
      </trkpt>
      <trkpt lat="51.843428984284401" lon="10.531218023970723">
        <ele>491.37</ele>
        <time>2017-05-22T15:37:39Z</time>
      </trkpt>
      <trkpt lat="51.84329504147172" lon="10.53089196793735">
        <ele>493.29000000000002</ele>
        <time>2017-05-22T15:37:40Z</time>
      </trkpt>
      <trkpt lat="51.843167971819639" lon="10.530553003773093">
        <ele>494.25999999999999</ele>
        <time>2017-05-22T15:37:41Z</time>
      </trkpt>
      <trkpt lat="51.842684000730515" lon="10.529190022498369">
        <ele>500.01999999999998</ele>
        <time>2017-05-22T15:37:45Z</time>
      </trkpt>
      <trkpt lat="51.842528013512492" lon="10.528863966464996">
        <ele>501.45999999999998</ele>
        <time>2017-05-22T15:37:46Z</time>
      </trkpt>
      <trkpt lat="51.842356016859412" lon="10.528540005907416">
        <ele>502.91000000000003</ele>
        <time>2017-05-22T15:37:47Z</time>
      </trkpt>
      <trkpt lat="51.842173961922526" lon="10.5282489862293">
        <ele>504.35000000000002</ele>
        <time>2017-05-22T15:37:48Z</time>
      </trkpt>
      <trkpt lat="51.841982016339898" lon="10.52801001816988">
        <ele>505.31</ele>
        <time>2017-05-22T15:37:49Z</time>
      </trkpt>
      <trkpt lat="51.841769032180309" lon="10.52777498960495">
        <ele>506.75</ele>
        <time>2017-05-22T15:37:50Z</time>
      </trkpt>
      <trkpt lat="51.841558981686831" lon="10.527571979910135">
        <ele>508.67000000000002</ele>
        <time>2017-05-22T15:37:51Z</time>
      </trkpt>
      <trkpt lat="51.841321019455791" lon="10.527415992692113">
        <ele>510.12</ele>
        <time>2017-05-22T15:37:52Z</time>
      </trkpt>
      <trkpt lat="51.841080039739609" lon="10.527272997424006">
        <ele>511.07999999999998</ele>
        <time>2017-05-22T15:37:53Z</time>
      </trkpt>
      <trkpt lat="51.840812992304564" lon="10.527176018804312">
        <ele>513</ele>
        <time>2017-05-22T15:37:54Z</time>
      </trkpt>
      <trkpt lat="51.840536976233125" lon="10.52710703574121">
        <ele>514.44000000000005</ele>
        <time>2017-05-22T15:37:55Z</time>
      </trkpt>
      <trkpt lat="51.840248974040151" lon="10.527084991335869">
        <ele>516.37</ele>
        <time>2017-05-22T15:37:56Z</time>
      </trkpt>
      <trkpt lat="51.839961977675557" lon="10.527116004377604">
        <ele>517.80999999999995</ele>
        <time>2017-05-22T15:37:57Z</time>
      </trkpt>
      <trkpt lat="51.839686967432499" lon="10.527206026017666">
        <ele>520.21000000000004</ele>
        <time>2017-05-22T15:37:58Z</time>
      </trkpt>
      <trkpt lat="51.83945001102984" lon="10.527400989085436">
        <ele>521.64999999999998</ele>
        <time>2017-05-22T15:37:59Z</time>
      </trkpt>
      <trkpt lat="51.839209031313658" lon="10.527609027922153">
        <ele>523.09000000000003</ele>
        <time>2017-05-22T15:38:00Z</time>
      </trkpt>
      <trkpt lat="51.838985988870263" lon="10.527822012081742">
        <ele>524.53999999999996</ele>
        <time>2017-05-22T15:38:01Z</time>
      </trkpt>
      <trkpt lat="51.83878499083221" lon="10.528036002069712">
        <ele>525.98000000000002</ele>
        <time>2017-05-22T15:38:02Z</time>
      </trkpt>
      <trkpt lat="51.838180990889668" lon="10.528706973418593">
        <ele>532.71000000000004</ele>
        <time>2017-05-22T15:38:05Z</time>
      </trkpt>
      <trkpt lat="51.837975969538093" lon="10.528886010870337">
        <ele>534.14999999999998</ele>
        <time>2017-05-22T15:38:06Z</time>
      </trkpt>
      <trkpt lat="51.83681096881628" lon="10.529571985825896">
        <ele>541.84000000000003</ele>
        <time>2017-05-22T15:38:12Z</time>
      </trkpt>
      <trkpt lat="51.836611982434988" lon="10.52960098721087">
        <ele>543.75999999999999</ele>
        <time>2017-05-22T15:38:13Z</time>
      </trkpt>
      <trkpt lat="51.836414001882076" lon="10.529590006917715">
        <ele>545.20000000000005</ele>
        <time>2017-05-22T15:38:14Z</time>
      </trkpt>
      <trkpt lat="51.836217027157545" lon="10.529540972784162">
        <ele>546.64999999999998</ele>
        <time>2017-05-22T15:38:15Z</time>
      </trkpt>
      <trkpt lat="51.836032038554549" lon="10.52945002913475">
        <ele>547.61000000000001</ele>
        <time>2017-05-22T15:38:16Z</time>
      </trkpt>
      <trkpt lat="51.835860963910818" lon="10.529335029423237">
        <ele>549.04999999999995</ele>
        <time>2017-05-22T15:38:17Z</time>
      </trkpt>
      <trkpt lat="51.835655020549893" lon="10.529173007234931">
        <ele>552.40999999999997</ele>
        <time>2017-05-22T15:38:18Z</time>
      </trkpt>
      <trkpt lat="51.83549802750349" lon="10.528981983661652">
        <ele>553.38</ele>
        <time>2017-05-22T15:38:19Z</time>
      </trkpt>
      <trkpt lat="51.835338016971946" lon="10.528759025037289">
        <ele>555.77999999999997</ele>
        <time>2017-05-22T15:38:20Z</time>
      </trkpt>
      <trkpt lat="51.835184963420033" lon="10.528518967330456">
        <ele>557.70000000000005</ele>
        <time>2017-05-22T15:38:21Z</time>
      </trkpt>
      <trkpt lat="51.83358502574265" lon="10.52577598951757">
        <ele>572.12</ele>
        <time>2017-05-22T15:38:31Z</time>
      </trkpt>
      <trkpt lat="51.832074020057917" lon="10.523808002471924">
        <ele>582.22000000000003</ele>
        <time>2017-05-22T15:38:39Z</time>
      </trkpt>
      <trkpt lat="51.830610036849976" lon="10.523191010579467">
        <ele>586.05999999999995</ele>
        <time>2017-05-22T15:38:45Z</time>
      </trkpt>
      <trkpt lat="51.828882023692131" lon="10.522652976214886">
        <ele>593.26999999999998</ele>
        <time>2017-05-22T15:38:53Z</time>
      </trkpt>
      <trkpt lat="51.827059965580702" lon="10.522141009569168">
        <ele>605.28999999999996</ele>
        <time>2017-05-22T15:39:03Z</time>
      </trkpt>
      <trkpt lat="51.825146963819861" lon="10.52180397324264">
        <ele>616.34000000000003</ele>
        <time>2017-05-22T15:39:15Z</time>
      </trkpt>
      <trkpt lat="51.823493968695402" lon="10.522007988765836">
        <ele>626.44000000000005</ele>
        <time>2017-05-22T15:39:26Z</time>
      </trkpt>
      <trkpt lat="51.821694038808346" lon="10.522376960143447">
        <ele>634.61000000000001</ele>
        <time>2017-05-22T15:39:38Z</time>
      </trkpt>
      <trkpt lat="51.820505987852812" lon="10.522935027256608">
        <ele>635.09000000000003</ele>
        <time>2017-05-22T15:39:44Z</time>
      </trkpt>
      <trkpt lat="51.818832037970424" lon="10.524335978552699">
        <ele>640.86000000000001</ele>
        <time>2017-05-22T15:39:51Z</time>
      </trkpt>
      <trkpt lat="51.818312024697661" lon="10.524620963260531">
        <ele>643.74000000000001</ele>
        <time>2017-05-22T15:39:53Z</time>
      </trkpt>
      <trkpt lat="51.818044977262616" lon="10.524698998779058">
        <ele>644.70000000000005</ele>
        <time>2017-05-22T15:39:54Z</time>
      </trkpt>
      <trkpt lat="51.817755969241261" lon="10.524726994335651">
        <ele>645.65999999999997</ele>
        <time>2017-05-22T15:39:55Z</time>
      </trkpt>
      <trkpt lat="51.817466961219907" lon="10.524717019870877">
        <ele>647.10000000000002</ele>
        <time>2017-05-22T15:39:56Z</time>
      </trkpt>
      <trkpt lat="51.817177031189203" lon="10.524671003222466">
        <ele>648.54999999999995</ele>
        <time>2017-05-22T15:39:57Z</time>
      </trkpt>
      <trkpt lat="51.816904032602906" lon="10.524613000452518">
        <ele>649.50999999999999</ele>
        <time>2017-05-22T15:39:58Z</time>
      </trkpt>
      <trkpt lat="51.815480031073093" lon="10.524255009368062">
        <ele>654.79999999999995</ele>
        <time>2017-05-22T15:40:04Z</time>
      </trkpt>
      <trkpt lat="51.815267968922853" lon="10.524278981611133">
        <ele>655.75999999999999</ele>
        <time>2017-05-22T15:40:05Z</time>
      </trkpt>
      <trkpt lat="51.815045010298491" lon="10.524341007694602">
        <ele>656.72000000000003</ele>
        <time>2017-05-22T15:40:06Z</time>
      </trkpt>
      <trkpt lat="51.814821967855096" lon="10.524421976879239">
        <ele>658.63999999999999</ele>
        <time>2017-05-22T15:40:07Z</time>
      </trkpt>
      <trkpt lat="51.814608983695507" lon="10.524583999067545">
        <ele>659.60000000000002</ele>
        <time>2017-05-22T15:40:08Z</time>
      </trkpt>
      <trkpt lat="51.814398011192679" lon="10.524768987670541">
        <ele>660.55999999999995</ele>
        <time>2017-05-22T15:40:09Z</time>
      </trkpt>
      <trkpt lat="51.813585972413421" lon="10.525632994249463">
        <ele>665.85000000000002</ele>
        <time>2017-05-22T15:40:13Z</time>
      </trkpt>
      <trkpt lat="51.813372988253832" lon="10.525790993124247">
        <ele>667.28999999999996</ele>
        <time>2017-05-22T15:40:14Z</time>
      </trkpt>
      <trkpt lat="51.813133014366031" lon="10.525850001722574">
        <ele>668.73000000000002</ele>
        <time>2017-05-22T15:40:15Z</time>
      </trkpt>
      <trkpt lat="51.812887005507946" lon="10.525858970358968">
        <ele>671.13999999999999</ele>
        <time>2017-05-22T15:40:16Z</time>
      </trkpt>
      <trkpt lat="51.81268198415637" lon="10.525803985074162">
        <ele>673.53999999999996</ele>
        <time>2017-05-22T15:40:17Z</time>
      </trkpt>
      <trkpt lat="51.812460031360388" lon="10.525726033374667">
        <ele>676.41999999999996</ele>
        <time>2017-05-22T15:40:18Z</time>
      </trkpt>
      <trkpt lat="51.8122280202806" lon="10.525595024228096">
        <ele>679.78999999999996</ele>
        <time>2017-05-22T15:40:19Z</time>
      </trkpt>
      <trkpt lat="51.812007995322347" lon="10.525511037558317">
        <ele>682.66999999999996</ele>
        <time>2017-05-22T15:40:20Z</time>
      </trkpt>
      <trkpt lat="51.811790987849236" lon="10.525472983717918">
        <ele>684.60000000000002</ele>
        <time>2017-05-22T15:40:21Z</time>
      </trkpt>
      <trkpt lat="51.811552019789815" lon="10.52547499537468">
        <ele>686.03999999999996</ele>
        <time>2017-05-22T15:40:22Z</time>
      </trkpt>
      <trkpt lat="51.811317997053266" lon="10.525499973446131">
        <ele>689.39999999999998</ele>
        <time>2017-05-22T15:40:23Z</time>
      </trkpt>
      <trkpt lat="51.811077017337084" lon="10.525527969002724">
        <ele>692.76999999999998</ele>
        <time>2017-05-22T15:40:24Z</time>
      </trkpt>
      <trkpt lat="51.809498034417629" lon="10.526147978380322">
        <ele>711.50999999999999</ele>
        <time>2017-05-22T15:40:31Z</time>
      </trkpt>
      <trkpt lat="51.80797403678298" lon="10.527913039550185">
        <ele>729.77999999999997</ele>
        <time>2017-05-22T15:40:39Z</time>
      </trkpt>
      <trkpt lat="51.807466009631753" lon="10.528747038915753">
        <ele>737.47000000000003</ele>
        <time>2017-05-22T15:40:42Z</time>
      </trkpt>
      <trkpt lat="51.807327037677169" lon="10.529068987816572">
        <ele>740.35000000000002</ele>
        <time>2017-05-22T15:40:43Z</time>
      </trkpt>
      <trkpt lat="51.80720298551023" lon="10.529414992779493">
        <ele>743.24000000000001</ele>
        <time>2017-05-22T15:40:44Z</time>
      </trkpt>
      <trkpt lat="51.806251974776387" lon="10.532337008044124">
        <ele>765.35000000000002</ele>
        <time>2017-05-22T15:40:53Z</time>
      </trkpt>
      <trkpt lat="51.805619979277253" lon="10.533964019268751">
        <ele>773.51999999999998</ele>
        <time>2017-05-22T15:41:00Z</time>
      </trkpt>
      <trkpt lat="51.804737029597163" lon="10.534948976710439">
        <ele>776.39999999999998</ele>
        <time>2017-05-22T15:41:07Z</time>
      </trkpt>
      <trkpt lat="51.80288203060627" lon="10.536168962717056">
        <ele>781.69000000000005</ele>
        <time>2017-05-22T15:41:22Z</time>
      </trkpt>
      <trkpt lat="51.801599012687802" lon="10.536893997341394">
        <ele>776.88</ele>
        <time>2017-05-22T15:41:33Z</time>
      </trkpt>
      <trkpt lat="51.800387995317578" lon="10.537107987329364">
        <ele>774.96000000000004</ele>
        <time>2017-05-22T15:41:42Z</time>
      </trkpt>
      <trkpt lat="51.800260003656149" lon="10.537166995927691">
        <ele>774.96000000000004</ele>
        <time>2017-05-22T15:41:43Z</time>
      </trkpt>
      <trkpt lat="51.800127988681197" lon="10.537248970940709">
        <ele>775.44000000000005</ele>
        <time>2017-05-22T15:41:44Z</time>
      </trkpt>
      <trkpt lat="51.800005026161671" lon="10.537371011450887">
        <ele>776.39999999999998</ele>
        <time>2017-05-22T15:41:45Z</time>
      </trkpt>
      <trkpt lat="51.799879968166351" lon="10.53750897757709">
        <ele>776.39999999999998</ele>
        <time>2017-05-22T15:41:46Z</time>
      </trkpt>
      <trkpt lat="51.799754993990064" lon="10.537664964795113">
        <ele>776.88</ele>
        <time>2017-05-22T15:41:47Z</time>
      </trkpt>
      <trkpt lat="51.798660987988114" lon="10.538980001583695">
        <ele>778.32000000000005</ele>
        <time>2017-05-22T15:41:54Z</time>
      </trkpt>
      <trkpt lat="51.79828598164022" lon="10.539356013759971">
        <ele>779.28999999999996</ele>
        <time>2017-05-22T15:41:56Z</time>
      </trkpt>
      <trkpt lat="51.798063023015857" lon="10.539485011249781">
        <ele>780.25</ele>
        <time>2017-05-22T15:41:57Z</time>
      </trkpt>
      <trkpt lat="51.797817014157772" lon="10.539572015404701">
        <ele>780.73000000000002</ele>
        <time>2017-05-22T15:41:58Z</time>
      </trkpt>
      <trkpt lat="51.79542800411582" lon="10.540113989263773">
        <ele>792.25999999999999</ele>
        <time>2017-05-22T15:42:07Z</time>
      </trkpt>
      <trkpt lat="51.794494008645415" lon="10.540587985888124">
        <ele>797.07000000000005</ele>
        <time>2017-05-22T15:42:11Z</time>
      </trkpt>
      <trkpt lat="51.794282030314207" lon="10.540789989754558">
        <ele>798.02999999999997</ele>
        <time>2017-05-22T15:42:12Z</time>
      </trkpt>
      <trkpt lat="51.792889041826129" lon="10.542602995410562">
        <ele>794.66999999999996</ele>
        <time>2017-05-22T15:42:19Z</time>
      </trkpt>
      <trkpt lat="51.791138984262943" lon="10.545238014310598">
        <ele>787.46000000000004</ele>
        <time>2017-05-22T15:42:28Z</time>
      </trkpt>
      <trkpt lat="51.789912041276693" lon="10.546878017485142">
        <ele>789.38</ele>
        <time>2017-05-22T15:42:34Z</time>
      </trkpt>
      <trkpt lat="51.789709031581879" lon="10.547073986381292">
        <ele>789.86000000000001</ele>
        <time>2017-05-22T15:42:35Z</time>
      </trkpt>
      <trkpt lat="51.789485989138484" lon="10.547231985256076">
        <ele>789.86000000000001</ele>
        <time>2017-05-22T15:42:36Z</time>
      </trkpt>
      <trkpt lat="51.78924199193716" lon="10.547351008281112">
        <ele>790.82000000000005</ele>
        <time>2017-05-22T15:42:37Z</time>
      </trkpt>
      <trkpt lat="51.788978967815638" lon="10.547432983294129">
        <ele>790.82000000000005</ele>
        <time>2017-05-22T15:42:38Z</time>
      </trkpt>
      <trkpt lat="51.788710998371243" lon="10.547529961913824">
        <ele>791.29999999999995</ele>
        <time>2017-05-22T15:42:39Z</time>
      </trkpt>
      <trkpt lat="51.785616986453533" lon="10.548714995384216">
        <ele>792.25999999999999</ele>
        <time>2017-05-22T15:42:50Z</time>
      </trkpt>
      <trkpt lat="51.783197969198227" lon="10.550009999424219">
        <ele>783.61000000000001</ele>
        <time>2017-05-22T15:42:58Z</time>
      </trkpt>
      <trkpt lat="51.780823040753603" lon="10.550830001011491">
        <ele>778.32000000000005</ele>
        <time>2017-05-22T15:43:06Z</time>
      </trkpt>
      <trkpt lat="51.779115982353687" lon="10.550850033760071">
        <ele>769.19000000000005</ele>
        <time>2017-05-22T15:43:12Z</time>
      </trkpt>
      <trkpt lat="51.777835981920362" lon="10.551412040367723">
        <ele>762.46000000000004</ele>
        <time>2017-05-22T15:43:17Z</time>
      </trkpt>
      <trkpt lat="51.776524968445301" lon="10.551911015063524">
        <ele>757.17999999999995</ele>
        <time>2017-05-22T15:43:24Z</time>
      </trkpt>
      <trkpt lat="51.775300959125161" lon="10.551701970398426">
        <ele>756.21000000000004</ele>
        <time>2017-05-22T15:43:31Z</time>
      </trkpt>
      <trkpt lat="51.774204019457102" lon="10.55069899186492">
        <ele>756.21000000000004</ele>
        <time>2017-05-22T15:43:38Z</time>
      </trkpt>
      <trkpt lat="51.772248018532991" lon="10.548682976514101">
        <ele>750.45000000000005</ele>
        <time>2017-05-22T15:43:49Z</time>
      </trkpt>
      <trkpt lat="51.770668029785156" lon="10.547065017744899">
        <ele>739.87</ele>
        <time>2017-05-22T15:43:56Z</time>
      </trkpt>
      <trkpt lat="51.7687420360744" lon="10.545518975704908">
        <ele>731.70000000000005</ele>
        <time>2017-05-22T15:44:03Z</time>
      </trkpt>
      <trkpt lat="51.76844397559762" lon="10.54545502178371">
        <ele>732.17999999999995</ele>
        <time>2017-05-22T15:44:04Z</time>
      </trkpt>
      <trkpt lat="51.76814298145473" lon="10.545442029833794">
        <ele>732.17999999999995</ele>
        <time>2017-05-22T15:44:05Z</time>
      </trkpt>
      <trkpt lat="51.767845004796982" lon="10.545487040653825">
        <ele>732.65999999999997</ele>
        <time>2017-05-22T15:44:06Z</time>
      </trkpt>
      <trkpt lat="51.767563037574291" lon="10.545573038980365">
        <ele>733.13999999999999</ele>
        <time>2017-05-22T15:44:07Z</time>
      </trkpt>
      <trkpt lat="51.767278974875808" lon="10.545691978186369">
        <ele>733.62</ele>
        <time>2017-05-22T15:44:08Z</time>
      </trkpt>
      <trkpt lat="51.765570994466543" lon="10.546560008078814">
        <ele>731.70000000000005</ele>
        <time>2017-05-22T15:44:15Z</time>
      </trkpt>
      <trkpt lat="51.764198960736394" lon="10.547297028824687">
        <ele>730.25999999999999</ele>
        <time>2017-05-22T15:44:23Z</time>
      </trkpt>
      <trkpt lat="51.762470025569201" lon="10.548194982111454">
        <ele>723.04999999999995</ele>
        <time>2017-05-22T15:44:33Z</time>
      </trkpt>
      <trkpt lat="51.760692978277802" lon="10.549285970628262">
        <ele>722.57000000000005</ele>
        <time>2017-05-22T15:44:44Z</time>
      </trkpt>
      <trkpt lat="51.758934035897255" lon="10.550520960241556">
        <ele>720.15999999999997</ele>
        <time>2017-05-22T15:44:54Z</time>
      </trkpt>
      <trkpt lat="51.757341977208853" lon="10.551631981506944">
        <ele>721.13</ele>
        <time>2017-05-22T15:45:00Z</time>
      </trkpt>
      <trkpt lat="51.754892030730844" lon="10.553315989673138">
        <ele>724.49000000000001</ele>
        <time>2017-05-22T15:45:09Z</time>
      </trkpt>
      <trkpt lat="51.753487978130579" lon="10.553913032636046">
        <ele>719.67999999999995</ele>
        <time>2017-05-22T15:45:14Z</time>
      </trkpt>
      <trkpt lat="51.751988036558032" lon="10.555033022537827">
        <ele>723.04999999999995</ele>
        <time>2017-05-22T15:45:20Z</time>
      </trkpt>
      <trkpt lat="51.751595009118319" lon="10.555475000292063">
        <ele>725.45000000000005</ele>
        <time>2017-05-22T15:45:22Z</time>
      </trkpt>
      <trkpt lat="51.751419994980097" lon="10.555742969736457">
        <ele>726.40999999999997</ele>
        <time>2017-05-22T15:45:23Z</time>
      </trkpt>
      <trkpt lat="51.751264007762074" lon="10.556041030213237">
        <ele>729.29999999999995</ele>
        <time>2017-05-22T15:45:24Z</time>
      </trkpt>
      <trkpt lat="51.751140039414167" lon="10.55637001991272">
        <ele>730.74000000000001</ele>
        <time>2017-05-22T15:45:25Z</time>
      </trkpt>
      <trkpt lat="51.751035014167428" lon="10.556720970198512">
        <ele>731.22000000000003</ele>
        <time>2017-05-22T15:45:26Z</time>
      </trkpt>
      <trkpt lat="51.750957984477282" lon="10.557098994031549">
        <ele>732.17999999999995</ele>
        <time>2017-05-22T15:45:27Z</time>
      </trkpt>
      <trkpt lat="51.75091297365725" lon="10.557503001764417">
        <ele>732.17999999999995</ele>
        <time>2017-05-22T15:45:28Z</time>
      </trkpt>
      <trkpt lat="51.750897970050573" lon="10.55794196203351">
        <ele>732.17999999999995</ele>
        <time>2017-05-22T15:45:29Z</time>
      </trkpt>
      <trkpt lat="51.750904005020857" lon="10.55841201916337">
        <ele>732.65999999999997</ele>
        <time>2017-05-22T15:45:30Z</time>
      </trkpt>
      <trkpt lat="51.750922026112676" lon="10.558898001909256">
        <ele>732.65999999999997</ele>
        <time>2017-05-22T15:45:31Z</time>
      </trkpt>
      <trkpt lat="51.750949015840888" lon="10.561953037977219">
        <ele>733.62</ele>
        <time>2017-05-22T15:45:37Z</time>
      </trkpt>
      <trkpt lat="51.750881038606167" lon="10.562442960217595">
        <ele>733.62</ele>
        <time>2017-05-22T15:45:38Z</time>
      </trkpt>
      <trkpt lat="51.750790011137724" lon="10.56292500346899">
        <ele>733.62</ele>
        <time>2017-05-22T15:45:39Z</time>
      </trkpt>
      <trkpt lat="51.750668976455927" lon="10.563395982608199">
        <ele>733.13999999999999</ele>
        <time>2017-05-22T15:45:40Z</time>
      </trkpt>
      <trkpt lat="51.75052204169333" lon="10.563862016424537">
        <ele>733.62</ele>
        <time>2017-05-22T15:45:41Z</time>
      </trkpt>
      <trkpt lat="51.750362031161785" lon="10.56432100944221">
        <ele>733.62</ele>
        <time>2017-05-22T15:45:42Z</time>
      </trkpt>
      <trkpt lat="51.748855970799923" lon="10.568285984918475">
        <ele>737.47000000000003</ele>
        <time>2017-05-22T15:45:51Z</time>
      </trkpt>
      <trkpt lat="51.74783899448812" lon="10.570893008261919">
        <ele>739.38999999999999</ele>
        <time>2017-05-22T15:45:57Z</time>
      </trkpt>
      <trkpt lat="51.747031984850764" lon="10.572964008897543">
        <ele>736.99000000000001</ele>
        <time>2017-05-22T15:46:03Z</time>
      </trkpt>
      <trkpt lat="51.74624802544713" lon="10.574931995943189">
        <ele>735.54999999999995</ele>
        <time>2017-05-22T15:46:11Z</time>
      </trkpt>
      <trkpt lat="51.745662968605757" lon="10.577098969370127">
        <ele>740.83000000000004</ele>
        <time>2017-05-22T15:46:20Z</time>
      </trkpt>
      <trkpt lat="51.745704961940646" lon="10.579224033281207">
        <ele>736.99000000000001</ele>
        <time>2017-05-22T15:46:27Z</time>
      </trkpt>
      <trkpt lat="51.745689958333969" lon="10.579557968303561">
        <ele>736.02999999999997</ele>
        <time>2017-05-22T15:46:28Z</time>
      </trkpt>
      <trkpt lat="51.745653999969363" lon="10.579910008236766">
        <ele>734.58000000000004</ele>
        <time>2017-05-22T15:46:29Z</time>
      </trkpt>
      <trkpt lat="51.745588034391403" lon="10.580272022634745">
        <ele>733.62</ele>
        <time>2017-05-22T15:46:30Z</time>
      </trkpt>
      <trkpt lat="51.745502036064863" lon="10.580645017325878">
        <ele>732.17999999999995</ele>
        <time>2017-05-22T15:46:31Z</time>
      </trkpt>
      <trkpt lat="51.745394999161363" lon="10.581020023673773">
        <ele>730.74000000000001</ele>
        <time>2017-05-22T15:46:32Z</time>
      </trkpt>
      <trkpt lat="51.745259966701269" lon="10.581387989223003">
        <ele>729.77999999999997</ele>
        <time>2017-05-22T15:46:33Z</time>
      </trkpt>
      <trkpt lat="51.745098028331995" lon="10.581738017499447">
        <ele>728.34000000000003</ele>
        <time>2017-05-22T15:46:34Z</time>
      </trkpt>
      <trkpt lat="51.744927037507296" lon="10.582063989713788">
        <ele>725.45000000000005</ele>
        <time>2017-05-22T15:46:35Z</time>
      </trkpt>
      <trkpt lat="51.743188966065645" lon="10.584772014990449">
        <ele>710.07000000000005</ele>
        <time>2017-05-22T15:46:44Z</time>
      </trkpt>
      <trkpt lat="51.740969019010663" lon="10.587453972548246">
        <ele>691.80999999999995</ele>
        <time>2017-05-22T15:46:53Z</time>
      </trkpt>
      <trkpt lat="51.739192977547646" lon="10.588981993496418">
        <ele>682.19000000000005</ele>
        <time>2017-05-22T15:47:00Z</time>
      </trkpt>
      <trkpt lat="51.736719980835915" lon="10.590445976704359">
        <ele>671.13999999999999</ele>
        <time>2017-05-22T15:47:10Z</time>
      </trkpt>
      <trkpt lat="51.734266011044383" lon="10.591222979128361">
        <ele>664.40999999999997</ele>
        <time>2017-05-22T15:47:19Z</time>
      </trkpt>
      <trkpt lat="51.7316800262779" lon="10.591422971338034">
        <ele>659.60000000000002</ele>
        <time>2017-05-22T15:47:28Z</time>
      </trkpt>
      <trkpt lat="51.729756966233253" lon="10.591214010491967">
        <ele>652.87</ele>
        <time>2017-05-22T15:47:35Z</time>
      </trkpt>
      <trkpt lat="51.727137034758925" lon="10.590836992487311">
        <ele>638.45000000000005</ele>
        <time>2017-05-22T15:47:43Z</time>
      </trkpt>
      <trkpt lat="51.724448036402464" lon="10.590917961671948">
        <ele>624.02999999999997</ele>
        <time>2017-05-22T15:47:52Z</time>
      </trkpt>
      <trkpt lat="51.721951989457011" lon="10.591815998777747">
        <ele>612.01999999999998</ele>
        <time>2017-05-22T15:48:01Z</time>
      </trkpt>
      <trkpt lat="51.72025297768414" lon="10.592936994507909">
        <ele>603.36000000000001</ele>
        <time>2017-05-22T15:48:08Z</time>
      </trkpt>
      <trkpt lat="51.718175020068884" lon="10.595035990700126">
        <ele>593.75</ele>
        <time>2017-05-22T15:48:17Z</time>
      </trkpt>
      <trkpt lat="51.716481959447265" lon="10.597642008215189">
        <ele>589.90999999999997</ele>
        <time>2017-05-22T15:48:25Z</time>
      </trkpt>
      <trkpt lat="51.715164994820952" lon="10.600568968802691">
        <ele>589.90999999999997</ele>
        <time>2017-05-22T15:48:33Z</time>
      </trkpt>
      <trkpt lat="51.714180037379265" lon="10.603794995695353">
        <ele>596.14999999999998</ele>
        <time>2017-05-22T15:48:41Z</time>
      </trkpt>
      <trkpt lat="51.713694976642728" lon="10.606356002390385">
        <ele>601.44000000000005</ele>
        <time>2017-05-22T15:48:46Z</time>
      </trkpt>
      <trkpt lat="51.713402029126883" lon="10.608955984935164">
        <ele>604.80999999999995</ele>
        <time>2017-05-22T15:48:51Z</time>
      </trkpt>
      <trkpt lat="51.713322987779975" lon="10.61133099719882">
        <ele>604.80999999999995</ele>
        <time>2017-05-22T15:48:57Z</time>
      </trkpt>
      <trkpt lat="51.713432958349586" lon="10.613898960873485">
        <ele>600</ele>
        <time>2017-05-22T15:49:07Z</time>
      </trkpt>
      <trkpt lat="51.713787009939551" lon="10.620856024324894">
        <ele>585.58000000000004</ele>
        <time>2017-05-22T15:49:33Z</time>
      </trkpt>
      <trkpt lat="51.713782986626029" lon="10.622328976169229">
        <ele>570.20000000000005</ele>
        <time>2017-05-22T15:49:40Z</time>
      </trkpt>
      <trkpt lat="51.71382699161768" lon="10.622599963098764">
        <ele>572.60000000000002</ele>
        <time>2017-05-22T15:49:42Z</time>
      </trkpt>
      <trkpt lat="51.71380503103137" lon="10.622713034972548">
        <ele>573.08000000000004</ele>
        <time>2017-05-22T15:49:43Z</time>
      </trkpt>
      <trkpt lat="51.713781980797648" lon="10.622960971668363">
        <ele>574.03999999999996</ele>
        <time>2017-05-22T15:49:45Z</time>
      </trkpt>
      <trkpt lat="51.713809976354241" lon="10.623079994693398">
        <ele>573.55999999999995</ele>
        <time>2017-05-22T15:49:46Z</time>
      </trkpt>
      <trkpt lat="51.713880971074104" lon="10.623364979401231">
        <ele>570.67999999999995</ele>
        <time>2017-05-22T15:49:48Z</time>
      </trkpt>
      <trkpt lat="51.713909972459078" lon="10.623574024066329">
        <ele>571.63999999999999</ele>
        <time>2017-05-22T15:49:49Z</time>
      </trkpt>
      <trkpt lat="51.713944002985954" lon="10.625250991433859">
        <ele>570.67999999999995</ele>
        <time>2017-05-22T15:49:55Z</time>
      </trkpt>
      <trkpt lat="51.713659018278122" lon="10.626901974901557">
        <ele>566.83000000000004</ele>
        <time>2017-05-22T15:50:00Z</time>
      </trkpt>
      <trkpt lat="51.713542006909847" lon="10.627239011228085">
        <ele>566.83000000000004</ele>
        <time>2017-05-22T15:50:01Z</time>
      </trkpt>
      <trkpt lat="51.713401023298502" lon="10.627563977614045">
        <ele>565.87</ele>
        <time>2017-05-22T15:50:02Z</time>
      </trkpt>
      <trkpt lat="51.713244030252099" lon="10.627870000898838">
        <ele>564.90999999999997</ele>
        <time>2017-05-22T15:50:03Z</time>
      </trkpt>
      <trkpt lat="51.713072033599019" lon="10.628146016970277">
        <ele>563.95000000000005</ele>
        <time>2017-05-22T15:50:04Z</time>
      </trkpt>
      <trkpt lat="51.712883021682501" lon="10.628396971151233">
        <ele>562.99000000000001</ele>
        <time>2017-05-22T15:50:05Z</time>
      </trkpt>
      <trkpt lat="51.712682023644447" lon="10.628625964745879">
        <ele>561.07000000000005</ele>
        <time>2017-05-22T15:50:06Z</time>
      </trkpt>
      <trkpt lat="51.712446995079517" lon="10.628848001360893">
        <ele>560.11000000000001</ele>
        <time>2017-05-22T15:50:07Z</time>
      </trkpt>
      <trkpt lat="51.712183970957994" lon="10.629050005227327">
        <ele>557.70000000000005</ele>
        <time>2017-05-22T15:50:08Z</time>
      </trkpt>
      <trkpt lat="51.711566979065537" lon="10.629428029060364">
        <ele>554.82000000000005</ele>
        <time>2017-05-22T15:50:10Z</time>
      </trkpt>
      <trkpt lat="51.709933010861278" lon="10.63021500594914">
        <ele>547.13</ele>
        <time>2017-05-22T15:50:15Z</time>
      </trkpt>
      <trkpt lat="51.709642997011542" lon="10.630451962351799">
        <ele>545.69000000000005</ele>
        <time>2017-05-22T15:50:16Z</time>
      </trkpt>
      <trkpt lat="51.709361029788852" lon="10.630734013393521">
        <ele>544.72000000000003</ele>
        <time>2017-05-22T15:50:17Z</time>
      </trkpt>
      <trkpt lat="51.708141965791583" lon="10.632548024877906">
        <ele>539.44000000000005</ele>
        <time>2017-05-22T15:50:22Z</time>
      </trkpt>
      <trkpt lat="51.706461980938911" lon="10.636216029524803">
        <ele>528.38</ele>
        <time>2017-05-22T15:50:30Z</time>
      </trkpt>
      <trkpt lat="51.705658994615078" lon="10.638148980215192">
        <ele>530.29999999999995</ele>
        <time>2017-05-22T15:50:35Z</time>
      </trkpt>
      <trkpt lat="51.705579031258821" lon="10.638563968241215">
        <ele>529.82000000000005</ele>
        <time>2017-05-22T15:50:36Z</time>
      </trkpt>
      <trkpt lat="51.70551298186183" lon="10.638990020379424">
        <ele>530.78999999999996</ele>
        <time>2017-05-22T15:50:37Z</time>
      </trkpt>
      <trkpt lat="51.705466965213418" lon="10.639402996748686">
        <ele>530.78999999999996</ele>
        <time>2017-05-22T15:50:38Z</time>
      </trkpt>
      <trkpt lat="51.705441987141967" lon="10.639794012531638">
        <ele>530.78999999999996</ele>
        <time>2017-05-22T15:50:39Z</time>
      </trkpt>
      <trkpt lat="51.705439975485206" lon="10.640168013051152">
        <ele>531.75</ele>
        <time>2017-05-22T15:50:40Z</time>
      </trkpt>
      <trkpt lat="51.70546998269856" lon="10.640515023842454">
        <ele>532.23000000000002</ele>
        <time>2017-05-22T15:50:41Z</time>
      </trkpt>
      <trkpt lat="51.705529997125268" lon="10.64085197634995">
        <ele>532.23000000000002</ele>
        <time>2017-05-22T15:50:42Z</time>
      </trkpt>
      <trkpt lat="51.705601997673512" lon="10.641185995191336">
        <ele>531.75</ele>
        <time>2017-05-22T15:50:43Z</time>
      </trkpt>
      <trkpt lat="51.705713979899883" lon="10.641878005117178">
        <ele>533.19000000000005</ele>
        <time>2017-05-22T15:50:45Z</time>
      </trkpt>
      <trkpt lat="51.705716997385025" lon="10.642211018130183">
        <ele>533.66999999999996</ele>
        <time>2017-05-22T15:50:46Z</time>
      </trkpt>
      <trkpt lat="51.705686990171671" lon="10.642551993951201">
        <ele>533.66999999999996</ele>
        <time>2017-05-22T15:50:47Z</time>
      </trkpt>
      <trkpt lat="51.705446010455489" lon="10.64497503452003">
        <ele>533.19000000000005</ele>
        <time>2017-05-22T15:50:53Z</time>
      </trkpt>
      <trkpt lat="51.705250041559339" lon="10.647153994068503">
        <ele>532.71000000000004</ele>
        <time>2017-05-22T15:50:58Z</time>
      </trkpt>
      <trkpt lat="51.705250963568687" lon="10.647574011236429">
        <ele>532.23000000000002</ele>
        <time>2017-05-22T15:50:59Z</time>
      </trkpt>
      <trkpt lat="51.705260016024113" lon="10.651241010054946">
        <ele>528.38</ele>
        <time>2017-05-22T15:51:07Z</time>
      </trkpt>
      <trkpt lat="51.705130012705922" lon="10.652132006362081">
        <ele>528.38</ele>
        <time>2017-05-22T15:51:09Z</time>
      </trkpt>
      <trkpt lat="51.704804040491581" lon="10.653231963515282">
        <ele>527.89999999999998</ele>
        <time>2017-05-22T15:51:12Z</time>
      </trkpt>
      <trkpt lat="51.70463003218174" lon="10.653496999293566">
        <ele>527.89999999999998</ele>
        <time>2017-05-22T15:51:13Z</time>
      </trkpt>
      <trkpt lat="51.704399026930332" lon="10.653725992888212">
        <ele>526.94000000000005</ele>
        <time>2017-05-22T15:51:14Z</time>
      </trkpt>
      <trkpt lat="51.704168021678925" lon="10.653875023126602">
        <ele>526.46000000000004</ele>
        <time>2017-05-22T15:51:15Z</time>
      </trkpt>
      <trkpt lat="51.703931987285614" lon="10.653987005352974">
        <ele>525.5</ele>
        <time>2017-05-22T15:51:16Z</time>
      </trkpt>
      <trkpt lat="51.703678015619516" lon="10.654047019779682">
        <ele>525.01999999999998</ele>
        <time>2017-05-22T15:51:17Z</time>
      </trkpt>
      <trkpt lat="51.703420020639896" lon="10.654076021164656">
        <ele>524.05999999999995</ele>
        <time>2017-05-22T15:51:18Z</time>
      </trkpt>
      <trkpt lat="51.703150039538741" lon="10.654082978144288">
        <ele>523.09000000000003</ele>
        <time>2017-05-22T15:51:19Z</time>
      </trkpt>
      <trkpt lat="51.701123965904117" lon="10.653978958725929">
        <ele>519.25</ele>
        <time>2017-05-22T15:51:26Z</time>
      </trkpt>
      <trkpt lat="51.700888015329838" lon="10.654053976759315">
        <ele>516.37</ele>
        <time>2017-05-22T15:51:27Z</time>
      </trkpt>
      <trkpt lat="51.700637983158231" lon="10.654155984520912">
        <ele>515.39999999999998</ele>
        <time>2017-05-22T15:51:28Z</time>
      </trkpt>
      <trkpt lat="51.700387028977275" lon="10.654292022809386">
        <ele>513.96000000000004</ele>
        <time>2017-05-22T15:51:29Z</time>
      </trkpt>
      <trkpt lat="51.700148982927203" lon="10.654469970613718">
        <ele>513</ele>
        <time>2017-05-22T15:51:30Z</time>
      </trkpt>
      <trkpt lat="51.699919989332557" lon="10.654670968651772">
        <ele>512.51999999999998</ele>
        <time>2017-05-22T15:51:31Z</time>
      </trkpt>
      <trkpt lat="51.699499972164631" lon="10.655100960284472">
        <ele>511.56</ele>
        <time>2017-05-22T15:51:33Z</time>
      </trkpt>
      <trkpt lat="51.699331998825073" lon="10.655344035476446">
        <ele>512.03999999999996</ele>
        <time>2017-05-22T15:51:34Z</time>
      </trkpt>
      <trkpt lat="51.698894966393709" lon="10.656029004603624">
        <ele>510.12</ele>
        <time>2017-05-22T15:51:37Z</time>
      </trkpt>
      <trkpt lat="51.698729004710913" lon="10.656197983771563">
        <ele>509.63999999999999</ele>
        <time>2017-05-22T15:51:38Z</time>
      </trkpt>
      <trkpt lat="51.698556002229452" lon="10.656329998746514">
        <ele>509.16000000000003</ele>
        <time>2017-05-22T15:51:39Z</time>
      </trkpt>
      <trkpt lat="51.698366990312934" lon="10.656393030658364">
        <ele>507.70999999999998</ele>
        <time>2017-05-22T15:51:40Z</time>
      </trkpt>
      <trkpt lat="51.69816599227488" lon="10.656417002901435">
        <ele>506.26999999999998</ele>
        <time>2017-05-22T15:51:41Z</time>
      </trkpt>
      <trkpt lat="51.697969017550349" lon="10.656438963487744">
        <ele>505.79000000000002</ele>
        <time>2017-05-22T15:51:42Z</time>
      </trkpt>
      <trkpt lat="51.697787968441844" lon="10.656477017328143">
        <ele>504.82999999999998</ele>
        <time>2017-05-22T15:51:43Z</time>
      </trkpt>
      <trkpt lat="51.697609014809132" lon="10.656537031754851">
        <ele>504.35000000000002</ele>
        <time>2017-05-22T15:51:44Z</time>
      </trkpt>
      <trkpt lat="51.697463002055883" lon="10.656659994274378">
        <ele>503.38999999999999</ele>
        <time>2017-05-22T15:51:45Z</time>
      </trkpt>
      <trkpt lat="51.697342973202467" lon="10.656831990927458">
        <ele>502.91000000000003</ele>
        <time>2017-05-22T15:51:46Z</time>
      </trkpt>
      <trkpt lat="51.697253035381436" lon="10.657045980915427">
        <ele>502.43000000000001</ele>
        <time>2017-05-22T15:51:47Z</time>
      </trkpt>
      <trkpt lat="51.697187991812825" lon="10.657292995601892">
        <ele>501.94999999999999</ele>
        <time>2017-05-22T15:51:48Z</time>
      </trkpt>
      <trkpt lat="51.697135018184781" lon="10.657557025551796">
        <ele>501.45999999999998</ele>
        <time>2017-05-22T15:51:49Z</time>
      </trkpt>
      <trkpt lat="51.697094030678272" lon="10.657844021916389">
        <ele>500.5</ele>
        <time>2017-05-22T15:51:50Z</time>
      </trkpt>
      <trkpt lat="51.696870988234878" lon="10.65949902869761">
        <ele>492.81</ele>
        <time>2017-05-22T15:51:56Z</time>
      </trkpt>
      <trkpt lat="51.696869982406497" lon="10.6598000228405">
        <ele>491.37</ele>
        <time>2017-05-22T15:51:57Z</time>
      </trkpt>
      <trkpt lat="51.696891020983458" lon="10.660119038075209">
        <ele>490.41000000000003</ele>
        <time>2017-05-22T15:51:58Z</time>
      </trkpt>
      <trkpt lat="51.696931002661586" lon="10.660434029996395">
        <ele>489.44999999999999</ele>
        <time>2017-05-22T15:51:59Z</time>
      </trkpt>
      <trkpt lat="51.696980036795139" lon="10.660718008875847">
        <ele>487.52999999999997</ele>
        <time>2017-05-22T15:52:00Z</time>
      </trkpt>
      <trkpt lat="51.697022030130029" lon="10.661216983571649">
        <ele>486.07999999999998</ele>
        <time>2017-05-22T15:52:02Z</time>
      </trkpt>
      <trkpt lat="51.697007026523352" lon="10.661423010751605">
        <ele>486.56</ele>
        <time>2017-05-22T15:52:03Z</time>
      </trkpt>
      <trkpt lat="51.696968972682953" lon="10.66158696077764">
        <ele>486.56</ele>
        <time>2017-05-22T15:52:04Z</time>
      </trkpt>
      <trkpt lat="51.696919016540051" lon="10.661706989631057">
        <ele>484.16000000000003</ele>
        <time>2017-05-22T15:52:05Z</time>
      </trkpt>
      <trkpt lat="51.696836035698652" lon="10.661817966029048">
        <ele>483.68000000000001</ele>
        <time>2017-05-22T15:52:06Z</time>
      </trkpt>
      <trkpt lat="51.696736039593816" lon="10.661904970183969">
        <ele>483.19999999999999</ele>
        <time>2017-05-22T15:52:07Z</time>
      </trkpt>
      <trkpt lat="51.696613999083638" lon="10.66195098683238">
        <ele>483.19999999999999</ele>
        <time>2017-05-22T15:52:08Z</time>
      </trkpt>
      <trkpt lat="51.69648801907897" lon="10.661921985447407">
        <ele>480.80000000000001</ele>
        <time>2017-05-22T15:52:09Z</time>
      </trkpt>
      <trkpt lat="51.696365978568792" lon="10.66184202209115">
        <ele>479.83999999999997</ele>
        <time>2017-05-22T15:52:10Z</time>
      </trkpt>
      <trkpt lat="51.696274029091001" lon="10.661658961325884">
        <ele>477.43000000000001</ele>
        <time>2017-05-22T15:52:11Z</time>
      </trkpt>
      <trkpt lat="51.696200016885996" lon="10.661427034065127">
        <ele>475.02999999999997</ele>
        <time>2017-05-22T15:52:12Z</time>
      </trkpt>
      <trkpt lat="51.696119969710708" lon="10.661198040470481">
        <ele>474.06999999999999</ele>
        <time>2017-05-22T15:52:13Z</time>
      </trkpt>
      <trkpt lat="51.696050986647606" lon="10.6609190069139">
        <ele>473.11000000000001</ele>
        <time>2017-05-22T15:52:14Z</time>
      </trkpt>
      <trkpt lat="51.69597202911973" lon="10.660580964758992">
        <ele>475.50999999999999</ele>
        <time>2017-05-22T15:52:15Z</time>
      </trkpt>
      <trkpt lat="51.69590899720788" lon="10.660222973674536">
        <ele>476.94999999999999</ele>
        <time>2017-05-22T15:52:16Z</time>
      </trkpt>
      <trkpt lat="51.695561986416578" lon="10.657764980569482">
        <ele>480.80000000000001</ele>
        <time>2017-05-22T15:52:23Z</time>
      </trkpt>
      <trkpt lat="51.695177005603909" lon="10.656394036486745">
        <ele>485.60000000000002</ele>
        <time>2017-05-22T15:52:28Z</time>
      </trkpt>
      <trkpt lat="51.69513501226902" lon="10.656132018193603">
        <ele>487.05000000000001</ele>
        <time>2017-05-22T15:52:29Z</time>
      </trkpt>
      <trkpt lat="51.695111962035298" lon="10.65584996715188">
        <ele>488.97000000000003</ele>
        <time>2017-05-22T15:52:30Z</time>
      </trkpt>
      <trkpt lat="51.695111040025949" lon="10.655570011585951">
        <ele>490.41000000000003</ele>
        <time>2017-05-22T15:52:31Z</time>
      </trkpt>
      <trkpt lat="51.695119002833962" lon="10.655292989686131">
        <ele>491.85000000000002</ele>
        <time>2017-05-22T15:52:32Z</time>
      </trkpt>
      <trkpt lat="51.695110034197569" lon="10.654478017240763">
        <ele>495.69999999999999</ele>
        <time>2017-05-22T15:52:35Z</time>
      </trkpt>
      <trkpt lat="51.695073992013931" lon="10.654182974249125">
        <ele>497.13999999999999</ele>
        <time>2017-05-22T15:52:36Z</time>
      </trkpt>
      <trkpt lat="51.694737039506435" lon="10.652181962504983">
        <ele>505.31</ele>
        <time>2017-05-22T15:52:41Z</time>
      </trkpt>
      <trkpt lat="51.694093979895115" lon="10.649806028231978">
        <ele>513.96000000000004</ele>
        <time>2017-05-22T15:52:47Z</time>
      </trkpt>
      <trkpt lat="51.693986020982265" lon="10.649538980796933">
        <ele>514.91999999999996</ele>
        <time>2017-05-22T15:52:48Z</time>
      </trkpt>
      <trkpt lat="51.693861968815327" lon="10.649292971938848">
        <ele>516.85000000000002</ele>
        <time>2017-05-22T15:52:49Z</time>
      </trkpt>
      <trkpt lat="51.693725008517504" lon="10.649098008871078">
        <ele>518.28999999999996</ele>
        <time>2017-05-22T15:52:50Z</time>
      </trkpt>
      <trkpt lat="51.693578995764256" lon="10.648954007774591">
        <ele>519.25</ele>
        <time>2017-05-22T15:52:51Z</time>
      </trkpt>
      <trkpt lat="51.693426026031375" lon="10.648850994184613">
        <ele>520.21000000000004</ele>
        <time>2017-05-22T15:52:52Z</time>
      </trkpt>
      <trkpt lat="51.693269032984972" lon="10.648803971707821">
        <ele>521.16999999999996</ele>
        <time>2017-05-22T15:52:53Z</time>
      </trkpt>
      <trkpt lat="51.693109022453427" lon="10.648810006678104">
        <ele>521.64999999999998</ele>
        <time>2017-05-22T15:52:54Z</time>
      </trkpt>
      <trkpt lat="51.692955968901515" lon="10.648869015276432">
        <ele>522.13</ele>
        <time>2017-05-22T15:52:55Z</time>
      </trkpt>
      <trkpt lat="51.692808028310537" lon="10.648973034694791">
        <ele>521.64999999999998</ele>
        <time>2017-05-22T15:52:56Z</time>
      </trkpt>
      <trkpt lat="51.692665033042431" lon="10.649126004427671">
        <ele>521.64999999999998</ele>
        <time>2017-05-22T15:52:57Z</time>
      </trkpt>
      <trkpt lat="51.692525977268815" lon="10.649325996637344">
        <ele>520.69000000000005</ele>
        <time>2017-05-22T15:52:58Z</time>
      </trkpt>
      <trkpt lat="51.692387005314231" lon="10.649563958868384">
        <ele>519.73000000000002</ele>
        <time>2017-05-22T15:52:59Z</time>
      </trkpt>
      <trkpt lat="51.692246021702886" lon="10.649821031838655">
        <ele>518.76999999999998</ele>
        <time>2017-05-22T15:53:00Z</time>
      </trkpt>
      <trkpt lat="51.692094979807734" lon="10.650065029039979">
        <ele>517.33000000000004</ele>
        <time>2017-05-22T15:53:01Z</time>
      </trkpt>
      <trkpt lat="51.691930023953319" lon="10.65028103068471">
        <ele>515.88</ele>
        <time>2017-05-22T15:53:02Z</time>
      </trkpt>
      <trkpt lat="51.691748974844813" lon="10.65047699958086">
        <ele>514.91999999999996</ele>
        <time>2017-05-22T15:53:03Z</time>
      </trkpt>
      <trkpt lat="51.691387966275215" lon="10.650832979008555">
        <ele>513</ele>
        <time>2017-05-22T15:53:05Z</time>
      </trkpt>
      <trkpt lat="51.691227033734322" lon="10.651038000360131">
        <ele>512.51999999999998</ele>
        <time>2017-05-22T15:53:06Z</time>
      </trkpt>
      <trkpt lat="51.691101975739002" lon="10.65129398368299">
        <ele>512.03999999999996</ele>
        <time>2017-05-22T15:53:07Z</time>
      </trkpt>
      <trkpt lat="51.691024024039507" lon="10.651605958119035">
        <ele>510.60000000000002</ele>
        <time>2017-05-22T15:53:08Z</time>
      </trkpt>
      <trkpt lat="51.690963003784418" lon="10.651937965303659">
        <ele>510.12</ele>
        <time>2017-05-22T15:53:09Z</time>
      </trkpt>
      <trkpt lat="51.690913969650865" lon="10.652283970266581">
        <ele>509.16000000000003</ele>
        <time>2017-05-22T15:53:10Z</time>
      </trkpt>
      <trkpt lat="51.690877005457878" lon="10.652642967179418">
        <ele>508.67000000000002</ele>
        <time>2017-05-22T15:53:11Z</time>
      </trkpt>
      <trkpt lat="51.690737027674913" lon="10.653680982068181">
        <ele>506.75</ele>
        <time>2017-05-22T15:53:14Z</time>
      </trkpt>
      <trkpt lat="51.690643988549709" lon="10.654007960110903">
        <ele>507.23000000000002</ele>
        <time>2017-05-22T15:53:15Z</time>
      </trkpt>
      <trkpt lat="51.690532006323338" lon="10.65432203002274">
        <ele>507.23000000000002</ele>
        <time>2017-05-22T15:53:16Z</time>
      </trkpt>
      <trkpt lat="51.69030100107193" lon="10.654974980279803">
        <ele>507.70999999999998</ele>
        <time>2017-05-22T15:53:18Z</time>
      </trkpt>
      <trkpt lat="51.690213996917009" lon="10.655327020213008">
        <ele>508.67000000000002</ele>
        <time>2017-05-22T15:53:19Z</time>
      </trkpt>
      <trkpt lat="51.689663976430893" lon="10.657790964469314">
        <ele>517.33000000000004</ele>
        <time>2017-05-22T15:53:26Z</time>
      </trkpt>
      <trkpt lat="51.689553000032902" lon="10.658046025782824">
        <ele>518.28999999999996</ele>
        <time>2017-05-22T15:53:27Z</time>
      </trkpt>
      <trkpt lat="51.689427020028234" lon="10.658249035477638">
        <ele>519.73000000000002</ele>
        <time>2017-05-22T15:53:28Z</time>
      </trkpt>
      <trkpt lat="51.68929198756814" lon="10.658366968855262">
        <ele>520.69000000000005</ele>
        <time>2017-05-22T15:53:29Z</time>
      </trkpt>
      <trkpt lat="51.689122002571821" lon="10.658365041017532">
        <ele>522.13</ele>
        <time>2017-05-22T15:53:30Z</time>
      </trkpt>
      <trkpt lat="51.688946988433599" lon="10.658335033804178">
        <ele>522.61000000000001</ele>
        <time>2017-05-22T15:53:31Z</time>
      </trkpt>
      <trkpt lat="51.688736015930772" lon="10.6582320202142">
        <ele>525.5</ele>
        <time>2017-05-22T15:53:32Z</time>
      </trkpt>
      <trkpt lat="51.688562007620931" lon="10.658076032996178">
        <ele>525.98000000000002</ele>
        <time>2017-05-22T15:53:33Z</time>
      </trkpt>
      <trkpt lat="51.68838799931109" lon="10.65786799415946">
        <ele>525.98000000000002</ele>
        <time>2017-05-22T15:53:34Z</time>
      </trkpt>
      <trkpt lat="51.68714202940464" lon="10.656518004834652">
        <ele>530.78999999999996</ele>
        <time>2017-05-22T15:53:40Z</time>
      </trkpt>
      <trkpt lat="51.68549096211791" lon="10.655574034899473">
        <ele>536.54999999999995</ele>
        <time>2017-05-22T15:53:47Z</time>
      </trkpt>
      <trkpt lat="51.684797024354339" lon="10.655432967469096">
        <ele>539.91999999999996</ele>
        <time>2017-05-22T15:53:50Z</time>
      </trkpt>
      <trkpt lat="51.684588985517621" lon="10.655339006334543">
        <ele>540.39999999999998</ele>
        <time>2017-05-22T15:53:51Z</time>
      </trkpt>
      <trkpt lat="51.68422101996839" lon="10.655169021338224">
        <ele>543.75999999999999</ele>
        <time>2017-05-22T15:53:53Z</time>
      </trkpt>
      <trkpt lat="51.68404801748693" lon="10.655149994418025">
        <ele>544.24000000000001</ele>
        <time>2017-05-22T15:53:54Z</time>
      </trkpt>
      <trkpt lat="51.683889012783766" lon="10.655184024944901">
        <ele>545.20000000000005</ele>
        <time>2017-05-22T15:53:55Z</time>
      </trkpt>
      <trkpt lat="51.683753980323672" lon="10.655295001342893">
        <ele>547.13</ele>
        <time>2017-05-22T15:53:56Z</time>
      </trkpt>
      <trkpt lat="51.683650966733694" lon="10.655450988560915">
        <ele>550.00999999999999</ele>
        <time>2017-05-22T15:53:57Z</time>
      </trkpt>
      <trkpt lat="51.683555999770761" lon="10.655646035447717">
        <ele>550.97000000000003</ele>
        <time>2017-05-22T15:53:58Z</time>
      </trkpt>
      <trkpt lat="51.683487016707659" lon="10.655875029042363">
        <ele>551.92999999999995</ele>
        <time>2017-05-22T15:53:59Z</time>
      </trkpt>
      <trkpt lat="51.683462038636208" lon="10.656136963516474">
        <ele>551.92999999999995</ele>
        <time>2017-05-22T15:54:00Z</time>
      </trkpt>
      <trkpt lat="51.683473018929362" lon="10.656400993466377">
        <ele>552.40999999999997</ele>
        <time>2017-05-22T15:54:01Z</time>
      </trkpt>
      <trkpt lat="51.683517023921013" lon="10.656656976789236">
        <ele>553.38</ele>
        <time>2017-05-22T15:54:02Z</time>
      </trkpt>
      <trkpt lat="51.683596987277269" lon="10.65689804032445">
        <ele>554.82000000000005</ele>
        <time>2017-05-22T15:54:03Z</time>
      </trkpt>
      <trkpt lat="51.683703018352389" lon="10.657099960371852">
        <ele>555.77999999999997</ele>
        <time>2017-05-22T15:54:04Z</time>
      </trkpt>
      <trkpt lat="51.683832015842199" lon="10.657248990610242">
        <ele>556.25999999999999</ele>
        <time>2017-05-22T15:54:05Z</time>
      </trkpt>
      <trkpt lat="51.683971993625164" lon="10.657349992543459">
        <ele>556.74000000000001</ele>
        <time>2017-05-22T15:54:06Z</time>
      </trkpt>
      <trkpt lat="51.684133009985089" lon="10.657396009191871">
        <ele>558.17999999999995</ele>
        <time>2017-05-22T15:54:07Z</time>
      </trkpt>
      <trkpt lat="51.684296960011125" lon="10.657398020848632">
        <ele>559.13999999999999</ele>
        <time>2017-05-22T15:54:08Z</time>
      </trkpt>
      <trkpt lat="51.684460993856192" lon="10.657388968393207">
        <ele>559.62</ele>
        <time>2017-05-22T15:54:09Z</time>
      </trkpt>
      <trkpt lat="51.684841029345989" lon="10.657447976991534">
        <ele>561.54999999999995</ele>
        <time>2017-05-22T15:54:11Z</time>
      </trkpt>
      <trkpt lat="51.68499500490725" lon="10.657573034986854">
        <ele>561.54999999999995</ele>
        <time>2017-05-22T15:54:12Z</time>
      </trkpt>
      <trkpt lat="51.68514403514564" lon="10.657749976962805">
        <ele>562.50999999999999</ele>
        <time>2017-05-22T15:54:13Z</time>
      </trkpt>
      <trkpt lat="51.685280995443463" lon="10.657952986657619">
        <ele>563.47000000000003</ele>
        <time>2017-05-22T15:54:14Z</time>
      </trkpt>
      <trkpt lat="51.685367999598384" lon="10.658201007172465">
        <ele>564.42999999999995</ele>
        <time>2017-05-22T15:54:15Z</time>
      </trkpt>
      <trkpt lat="51.685416027903557" lon="10.658488003537059">
        <ele>565.38999999999999</ele>
        <time>2017-05-22T15:54:16Z</time>
      </trkpt>
      <trkpt lat="51.685438994318247" lon="10.658783968538046">
        <ele>566.35000000000002</ele>
        <time>2017-05-22T15:54:17Z</time>
      </trkpt>
      <trkpt lat="51.685436982661486" lon="10.659095020964742">
        <ele>567.32000000000005</ele>
        <time>2017-05-22T15:54:18Z</time>
      </trkpt>
      <trkpt lat="51.685412004590034" lon="10.659423004835844">
        <ele>569.24000000000001</ele>
        <time>2017-05-22T15:54:19Z</time>
      </trkpt>
      <trkpt lat="51.685374034568667" lon="10.659761969000101">
        <ele>569.72000000000003</ele>
        <time>2017-05-22T15:54:20Z</time>
      </trkpt>
      <trkpt lat="51.684920992702246" lon="10.662292968481779">
        <ele>577.88999999999999</ele>
        <time>2017-05-22T15:54:27Z</time>
      </trkpt>
      <trkpt lat="51.684538023546338" lon="10.663613034412265">
        <ele>581.73000000000002</ele>
        <time>2017-05-22T15:54:32Z</time>
      </trkpt>
      <trkpt lat="51.68441497720778" lon="10.6637769844383">
        <ele>582.70000000000005</ele>
        <time>2017-05-22T15:54:33Z</time>
      </trkpt>
      <trkpt lat="51.684267036616802" lon="10.663903970271349">
        <ele>583.65999999999997</ele>
        <time>2017-05-22T15:54:34Z</time>
      </trkpt>
      <trkpt lat="51.684095961973071" lon="10.663988040760159">
        <ele>584.13999999999999</ele>
        <time>2017-05-22T15:54:35Z</time>
      </trkpt>
      <trkpt lat="51.68389898724854" lon="10.663996003568172">
        <ele>583.65999999999997</ele>
        <time>2017-05-22T15:54:36Z</time>
      </trkpt>
      <trkpt lat="51.683695977553725" lon="10.663998015224934">
        <ele>585.10000000000002</ele>
        <time>2017-05-22T15:54:37Z</time>
      </trkpt>
      <trkpt lat="51.683497997000813" lon="10.663940012454987">
        <ele>584.62</ele>
        <time>2017-05-22T15:54:38Z</time>
      </trkpt>
      <trkpt lat="51.683290963992476" lon="10.663845967501402">
        <ele>584.13999999999999</ele>
        <time>2017-05-22T15:54:39Z</time>
      </trkpt>
      <trkpt lat="51.683078985661268" lon="10.663729039952159">
        <ele>584.62</ele>
        <time>2017-05-22T15:54:40Z</time>
      </trkpt>
      <trkpt lat="51.681455997750163" lon="10.662420960143209">
        <ele>580.76999999999998</ele>
        <time>2017-05-22T15:54:48Z</time>
      </trkpt>
      <trkpt lat="51.680667009204626" lon="10.661547984927893">
        <ele>576.92999999999995</ele>
        <time>2017-05-22T15:54:53Z</time>
      </trkpt>
      <trkpt lat="51.680497024208307" lon="10.661485036835074">
        <ele>577.40999999999997</ele>
        <time>2017-05-22T15:54:54Z</time>
      </trkpt>
      <trkpt lat="51.680323015898466" lon="10.661513032391667">
        <ele>576.45000000000005</ele>
        <time>2017-05-22T15:54:55Z</time>
      </trkpt>
      <trkpt lat="51.680166022852063" lon="10.661529963836074">
        <ele>575.49000000000001</ele>
        <time>2017-05-22T15:54:56Z</time>
      </trkpt>
      <trkpt lat="51.680011041462421" lon="10.661551002413034">
        <ele>575.00999999999999</ele>
        <time>2017-05-22T15:54:57Z</time>
      </trkpt>
      <trkpt lat="51.679852958768606" lon="10.66162602044642">
        <ele>574.03999999999996</ele>
        <time>2017-05-22T15:54:58Z</time>
      </trkpt>
      <trkpt lat="51.679705018177629" lon="10.661758035421371">
        <ele>573.55999999999995</ele>
        <time>2017-05-22T15:54:59Z</time>
      </trkpt>
      <trkpt lat="51.67957803234458" lon="10.661944029852748">
        <ele>572.60000000000002</ele>
        <time>2017-05-22T15:55:00Z</time>
      </trkpt>
      <trkpt lat="51.679464038461447" lon="10.662199007347226">
        <ele>572.12</ele>
        <time>2017-05-22T15:55:01Z</time>
      </trkpt>
      <trkpt lat="51.67936597019434" lon="10.662497989833355">
        <ele>572.12</ele>
        <time>2017-05-22T15:55:02Z</time>
      </trkpt>
      <trkpt lat="51.679268991574645" lon="10.662820022553205">
        <ele>571.63999999999999</ele>
        <time>2017-05-22T15:55:03Z</time>
      </trkpt>
      <trkpt lat="51.678314041346312" lon="10.665151029825211">
        <ele>568.27999999999997</ele>
        <time>2017-05-22T15:55:10Z</time>
      </trkpt>
      <trkpt lat="51.677581965923309" lon="10.66622500307858">
        <ele>566.35000000000002</ele>
        <time>2017-05-22T15:55:14Z</time>
      </trkpt>
      <trkpt lat="51.677381973713636" lon="10.666426001116633">
        <ele>565.87</ele>
        <time>2017-05-22T15:55:15Z</time>
      </trkpt>
      <trkpt lat="51.677177958190441" lon="10.66659296862781">
        <ele>565.38999999999999</ele>
        <time>2017-05-22T15:55:16Z</time>
      </trkpt>
      <trkpt lat="51.676073977723718" lon="10.667065037414432">
        <ele>564.90999999999997</ele>
        <time>2017-05-22T15:55:21Z</time>
      </trkpt>
      <trkpt lat="51.675826041027904" lon="10.667076017707586">
        <ele>565.87</ele>
        <time>2017-05-22T15:55:22Z</time>
      </trkpt>
      <trkpt lat="51.673832992091775" lon="10.666945008561015">
        <ele>571.63999999999999</ele>
        <time>2017-05-22T15:55:30Z</time>
      </trkpt>
      <trkpt lat="51.672497000545263" lon="10.667330995202065">
        <ele>580.28999999999996</ele>
        <time>2017-05-22T15:55:36Z</time>
      </trkpt>
      <trkpt lat="51.671607010066509" lon="10.667630983516574">
        <ele>588.95000000000005</ele>
        <time>2017-05-22T15:55:42Z</time>
      </trkpt>
      <trkpt lat="51.670573018491268" lon="10.667410036548972">
        <ele>595.19000000000005</ele>
        <time>2017-05-22T15:55:49Z</time>
      </trkpt>
      <trkpt lat="51.669903974980116" lon="10.667264023795724">
        <ele>600</ele>
        <time>2017-05-22T15:55:56Z</time>
      </trkpt>
      <trkpt lat="51.669633993878961" lon="10.667341975495219">
        <ele>603.36000000000001</ele>
        <time>2017-05-22T15:56:04Z</time>
      </trkpt>
      <trkpt lat="51.669508013874292" lon="10.667440965771675">
        <ele>603.85000000000002</ele>
        <time>2017-05-22T15:56:53Z</time>
      </trkpt>
      <trkpt lat="51.669475995004177" lon="10.667439037933946">
        <ele>603.85000000000002</ele>
        <time>2017-05-22T15:56:54Z</time>
      </trkpt>
      <trkpt lat="51.669453028589487" lon="10.667352033779025">
        <ele>603.36000000000001</ele>
        <time>2017-05-22T15:56:56Z</time>
      </trkpt>
      <trkpt lat="51.669451016932726" lon="10.667282966896892">
        <ele>602.88</ele>
        <time>2017-05-22T15:56:57Z</time>
      </trkpt>
      <trkpt lat="51.669584037736058" lon="10.666191978380084">
        <ele>597.60000000000002</ele>
        <time>2017-05-22T15:57:08Z</time>
      </trkpt>
      <trkpt lat="51.669605998322368" lon="10.665761986747384">
        <ele>595.19000000000005</ele>
        <time>2017-05-22T15:57:13Z</time>
      </trkpt>
      <trkpt lat="51.669580014422536" lon="10.665720999240875">
        <ele>594.71000000000004</ele>
        <time>2017-05-22T15:57:14Z</time>
      </trkpt>
      <trkpt lat="51.669543972238898" lon="10.665689986199141">
        <ele>594.23000000000002</ele>
        <time>2017-05-22T15:57:15Z</time>
      </trkpt>
      <trkpt lat="51.669490998610854" lon="10.665671965107322">
        <ele>593.26999999999998</ele>
        <time>2017-05-22T15:57:16Z</time>
      </trkpt>
      <trkpt lat="51.669428972527385" lon="10.665653022006154">
        <ele>592.30999999999995</ele>
        <time>2017-05-22T15:57:17Z</time>
      </trkpt>
      <trkpt lat="51.66892496868968" lon="10.665483959019184">
        <ele>587.01999999999998</ele>
        <time>2017-05-22T15:57:24Z</time>
      </trkpt>
      <trkpt lat="51.668152995407581" lon="10.665184976533055">
        <ele>587.98000000000002</ele>
        <time>2017-05-22T15:57:32Z</time>
      </trkpt>
      <trkpt lat="51.668046964332461" lon="10.665168967097998">
        <ele>587.98000000000002</ele>
        <time>2017-05-22T15:57:33Z</time>
      </trkpt>
      <trkpt lat="51.667063012719154" lon="10.665401984006166">
        <ele>595.66999999999996</ele>
        <time>2017-05-22T15:57:43Z</time>
      </trkpt>
      <trkpt lat="51.666545011103153" lon="10.665791993960738">
        <ele>600.48000000000002</ele>
        <time>2017-05-22T15:57:49Z</time>
      </trkpt>
      <trkpt lat="51.666478961706161" lon="10.665891990065575">
        <ele>601.44000000000005</ele>
        <time>2017-05-22T15:57:50Z</time>
      </trkpt>
      <trkpt lat="51.666412996128201" lon="10.666004978120327">
        <ele>602.39999999999998</ele>
        <time>2017-05-22T15:57:51Z</time>
      </trkpt>
      <trkpt lat="51.665952997282147" lon="10.666778041049838">
        <ele>607.21000000000004</ele>
        <time>2017-05-22T15:57:58Z</time>
      </trkpt>
      <trkpt lat="51.66516300290823" lon="10.66725798882544">
        <ele>612.5</ele>
        <time>2017-05-22T15:58:08Z</time>
      </trkpt>
      <trkpt lat="51.664480967447162" lon="10.667367037385702">
        <ele>616.34000000000003</ele>
        <time>2017-05-22T15:58:18Z</time>
      </trkpt>
      <trkpt lat="51.664119036868215" lon="10.66742998547852">
        <ele>615.38</ele>
        <time>2017-05-22T15:58:26Z</time>
      </trkpt>
      <trkpt lat="51.663974029943347" lon="10.667467033490539">
        <ele>614.89999999999998</ele>
        <time>2017-05-22T15:58:28Z</time>
      </trkpt>
      <trkpt lat="51.663892976939678" lon="10.667501986026764">
        <ele>613.94000000000005</ele>
        <time>2017-05-22T15:58:29Z</time>
      </trkpt>
      <trkpt lat="51.663818964734674" lon="10.667563006281853">
        <ele>612.98000000000002</ele>
        <time>2017-05-22T15:58:30Z</time>
      </trkpt>
      <trkpt lat="51.663468014448881" lon="10.667928960174322">
        <ele>611.05999999999995</ele>
        <time>2017-05-22T15:58:35Z</time>
      </trkpt>
      <trkpt lat="51.663389978930354" lon="10.66796600818634">
        <ele>610.57000000000005</ele>
        <time>2017-05-22T15:58:36Z</time>
      </trkpt>
      <trkpt lat="51.663310015574098" lon="10.667984029278159">
        <ele>609.61000000000001</ele>
        <time>2017-05-22T15:58:37Z</time>
      </trkpt>
      <trkpt lat="51.662314999848604" lon="10.667918985709548">
        <ele>602.88</ele>
        <time>2017-05-22T15:58:48Z</time>
      </trkpt>
      <trkpt lat="51.661438001319766" lon="10.667851008474827">
        <ele>594.71000000000004</ele>
        <time>2017-05-22T15:58:57Z</time>
      </trkpt>
      <trkpt lat="51.660536024719477" lon="10.667569963261485">
        <ele>587.98000000000002</ele>
        <time>2017-05-22T15:59:07Z</time>
      </trkpt>
      <trkpt lat="51.660060016438365" lon="10.667115999385715">
        <ele>583.17999999999995</ele>
        <time>2017-05-22T15:59:15Z</time>
      </trkpt>
      <trkpt lat="51.660036966204643" lon="10.667067971080542">
        <ele>582.70000000000005</ele>
        <time>2017-05-22T15:59:16Z</time>
      </trkpt>
      <trkpt lat="51.660033026710153" lon="10.667010974138975">
        <ele>581.73000000000002</ele>
        <time>2017-05-22T15:59:17Z</time>
      </trkpt>
      <trkpt lat="51.660040989518166" lon="10.666949031874537">
        <ele>581.25</ele>
        <time>2017-05-22T15:59:18Z</time>
      </trkpt>
      <trkpt lat="51.66004803031683" lon="10.666883988305926">
        <ele>580.76999999999998</ele>
        <time>2017-05-22T15:59:19Z</time>
      </trkpt>
      <trkpt lat="51.660043001174927" lon="10.666798995807767">
        <ele>580.76999999999998</ele>
        <time>2017-05-22T15:59:20Z</time>
      </trkpt>
      <trkpt lat="51.660025985911489" lon="10.666706040501595">
        <ele>580.28999999999996</ele>
        <time>2017-05-22T15:59:21Z</time>
      </trkpt>
      <trkpt lat="51.659998996183276" lon="10.666602021083236">
        <ele>579.80999999999995</ele>
        <time>2017-05-22T15:59:22Z</time>
      </trkpt>
      <trkpt lat="51.659969994798303" lon="10.666498001664877">
        <ele>579.33000000000004</ele>
        <time>2017-05-22T15:59:23Z</time>
      </trkpt>
      <trkpt lat="51.659934036433697" lon="10.666404040530324">
        <ele>578.85000000000002</ele>
        <time>2017-05-22T15:59:24Z</time>
      </trkpt>
      <trkpt lat="51.659893970936537" lon="10.666314018890262">
        <ele>577.88999999999999</ele>
        <time>2017-05-22T15:59:25Z</time>
      </trkpt>
      <trkpt lat="51.659764973446727" lon="10.66590397618711">
        <ele>575.00999999999999</ele>
        <time>2017-05-22T15:59:29Z</time>
      </trkpt>
      <trkpt lat="51.659501027315855" lon="10.664882976561785">
        <ele>572.60000000000002</ele>
        <time>2017-05-22T15:59:38Z</time>
      </trkpt>
      <trkpt lat="51.659058965742588" lon="10.663042981177568">
        <ele>568.27999999999997</ele>
        <time>2017-05-22T15:59:55Z</time>
      </trkpt>
      <trkpt lat="51.65891395881772" lon="10.662369998171926">
        <ele>568.75999999999999</ele>
        <time>2017-05-22T16:00:01Z</time>
      </trkpt>
      <trkpt lat="51.658878000453115" lon="10.662277964875102">
        <ele>568.75999999999999</ele>
        <time>2017-05-22T16:00:02Z</time>
      </trkpt>
      <trkpt lat="51.658615982159972" lon="10.661733979359269">
        <ele>567.79999999999995</ele>
        <time>2017-05-22T16:00:09Z</time>
      </trkpt>
      <trkpt lat="51.658593015745282" lon="10.661634989082813">
        <ele>568.27999999999997</ele>
        <time>2017-05-22T16:00:10Z</time>
      </trkpt>
      <trkpt lat="51.658576000481844" lon="10.661544967442751">
        <ele>568.75999999999999</ele>
        <time>2017-05-22T16:00:11Z</time>
      </trkpt>
      <trkpt lat="51.658565020188689" lon="10.661446982994676">
        <ele>568.75999999999999</ele>
        <time>2017-05-22T16:00:12Z</time>
      </trkpt>
      <trkpt lat="51.658556973561645" lon="10.661350004374981">
        <ele>569.24000000000001</ele>
        <time>2017-05-22T16:00:13Z</time>
      </trkpt>
      <trkpt lat="51.658554039895535" lon="10.661009028553963">
        <ele>570.67999999999995</ele>
        <time>2017-05-22T16:00:21Z</time>
      </trkpt>
      <trkpt lat="51.658581029623747" lon="10.660970974713564">
        <ele>570.67999999999995</ele>
        <time>2017-05-22T16:00:39Z</time>
      </trkpt>
      <trkpt lat="51.658580023795366" lon="10.660973992198706">
        <ele>570.67999999999995</ele>
        <time>2017-05-22T16:01:42Z</time>
      </trkpt>
      <trkpt lat="51.658574994653463" lon="10.661014979705215">
        <ele>571.15999999999997</ele>
        <time>2017-05-22T16:02:37Z</time>
      </trkpt>
    </trkseg>
  </trk>

</gpx>